<?xml version='1.0' encoding='UTF-8'?><gpx version="1.1" creator="JPX - https://github.com/jenetics/jpx" xmlns="http://www.topografix.com/GPX/1/1"><trk><trkseg><trkpt lat="39.794067179915444" lon="8.549904809289524"><ele>10.0</ele><time>2026-05-02T06:47:25.999Z</time></trkpt><trkpt lat="39.79446846025314" lon="8.54874609351468"><ele>10.0</ele><time>2026-05-02T06:47:30.999Z</time></trkpt><trkpt lat="39.79442235917787" lon="8.548816190372342"><ele>10.0</ele><time>2026-05-02T06:50:15.999Z</time></trkpt><trkpt lat="39.79442417409523" lon="8.548929799326176"><ele>10.0</ele><time>2026-05-02T06:50:36.998Z</time></trkpt><trkpt lat="39.794415378598394" lon="8.549055372657008"><ele>10.0</ele><time>2026-05-02T06:50:39.998Z</time></trkpt><trkpt lat="39.79441125298616" lon="8.549180346357852"><ele>10.0</ele><time>2026-05-02T06:50:41.998Z</time></trkpt><trkpt lat="39.79440847094735" lon="8.549279729311726"><ele>10.0</ele><time>2026-05-02T06:50:43.998Z</time></trkpt><trkpt lat="39.794413587065065" lon="8.549389103973391"><ele>10.0</ele><time>2026-05-02T06:50:46.998Z</time></trkpt><trkpt lat="39.79442111030774" lon="8.54952451859808"><ele>10.0</ele><time>2026-05-02T06:50:48.998Z</time></trkpt><trkpt lat="39.79441482276817" lon="8.549616569257049"><ele>10.0</ele><time>2026-05-02T06:50:49.998Z</time></trkpt><trkpt lat="39.79441067067254" lon="8.549709103884895"><ele>10.0</ele><time>2026-05-02T06:50:50.998Z</time></trkpt><trkpt lat="39.794383462328376" lon="8.54979110897615"><ele>10.0</ele><time>2026-05-02T06:50:51.998Z</time></trkpt><trkpt lat="39.79438383807392" lon="8.549889692064806"><ele>10.0</ele><time>2026-05-02T06:50:52.998Z</time></trkpt><trkpt lat="39.79438425126271" lon="8.549998098512647"><ele>10.0</ele><time>2026-05-02T06:50:53.998Z</time></trkpt><trkpt lat="39.79438458832228" lon="8.550086531478163"><ele>10.0</ele><time>2026-05-02T06:50:54.998Z</time></trkpt><trkpt lat="39.7943843444955" lon="8.550270678211708"><ele>10.0</ele><time>2026-05-02T06:50:56.998Z</time></trkpt><trkpt lat="39.794383066079966" lon="8.5503689605192"><ele>10.0</ele><time>2026-05-02T06:50:57.998Z</time></trkpt><trkpt lat="39.79438157216359" lon="8.550483809669311"><ele>10.0</ele><time>2026-05-02T06:50:58.998Z</time></trkpt><trkpt lat="39.79438083890092" lon="8.550608014875097"><ele>9.4</ele><time>2026-05-02T06:50:59.998Z</time></trkpt><trkpt lat="39.79438168368296" lon="8.55073270562252"><ele>8.8</ele><time>2026-05-02T06:51:00.998Z</time></trkpt><trkpt lat="39.794395075387165" lon="8.550866844714351"><ele>8.2</ele><time>2026-05-02T06:51:01.998Z</time></trkpt><trkpt lat="39.79442948337835" lon="8.550977192393203"><ele>7.6</ele><time>2026-05-02T06:51:02.999Z</time></trkpt><trkpt lat="39.7944218880988" lon="8.551109401159252"><ele>7.0</ele><time>2026-05-02T06:51:03.999Z</time></trkpt><trkpt lat="39.79441955295286" lon="8.55124490601801"><ele>7.0</ele><time>2026-05-02T06:51:04.999Z</time></trkpt><trkpt lat="39.7944151014011" lon="8.551382617112642"><ele>6.999999999999999</ele><time>2026-05-02T06:51:05.999Z</time></trkpt><trkpt lat="39.794412159648736" lon="8.55152006537394"><ele>6.999999999999999</ele><time>2026-05-02T06:51:06.999Z</time></trkpt><trkpt lat="39.79441015998217" lon="8.551651505328177"><ele>7.0</ele><time>2026-05-02T06:51:07.999Z</time></trkpt><trkpt lat="39.79440941659399" lon="8.551770495367549"><ele>7.0</ele><time>2026-05-02T06:51:08.999Z</time></trkpt><trkpt lat="39.79440873837775" lon="8.551879053802901"><ele>7.000000000000001</ele><time>2026-05-02T06:51:09.999Z</time></trkpt><trkpt lat="39.79440812278935" lon="8.551977587658836"><ele>7.0</ele><time>2026-05-02T06:51:10.999Z</time></trkpt><trkpt lat="39.79440745277667" lon="8.55208483296859"><ele>7.0</ele><time>2026-05-02T06:51:11.999Z</time></trkpt><trkpt lat="39.79440611427054" lon="8.552201198928879"><ele>7.0</ele><time>2026-05-02T06:51:13Z</time></trkpt><trkpt lat="39.79440468727545" lon="8.552315567278203"><ele>7.000000000000001</ele><time>2026-05-02T06:51:13.999Z</time></trkpt><trkpt lat="39.79440354637392" lon="8.552407006042989"><ele>7.0</ele><time>2026-05-02T06:51:15Z</time></trkpt><trkpt lat="39.79440231428487" lon="8.55250575584516"><ele>7.0</ele><time>2026-05-02T06:51:16Z</time></trkpt><trkpt lat="39.79440097712513" lon="8.552658489371783"><ele>6.999999999999999</ele><time>2026-05-02T06:51:17.999Z</time></trkpt><trkpt lat="39.79440113794957" lon="8.552780300281915"><ele>6.999999999999999</ele><time>2026-05-02T06:51:19.999Z</time></trkpt><trkpt lat="39.79440113794924" lon="8.55288114118065"><ele>7.0</ele><time>2026-05-02T06:51:21.999Z</time></trkpt><trkpt lat="39.79440113794922" lon="8.552967028616623"><ele>7.0</ele><time>2026-05-02T06:51:23.999Z</time></trkpt><trkpt lat="39.79440322235719" lon="8.553121375793815"><ele>6.199999999999999</ele><time>2026-05-02T06:51:25.999Z</time></trkpt><trkpt lat="39.79440472071309" lon="8.55322537328551"><ele>5.3999999999999995</ele><time>2026-05-02T06:51:26.999Z</time></trkpt><trkpt lat="39.794406506020344" lon="8.553349287494104"><ele>4.6</ele><time>2026-05-02T06:51:27.999Z</time></trkpt><trkpt lat="39.79440852264479" lon="8.553489256840413"><ele>3.8</ele><time>2026-05-02T06:51:28.999Z</time></trkpt><trkpt lat="39.79441064276171" lon="8.553636409444872"><ele>3.0</ele><time>2026-05-02T06:51:29.999Z</time></trkpt><trkpt lat="39.794412766217526" lon="8.553783796587092"><ele>3.0</ele><time>2026-05-02T06:51:30.999Z</time></trkpt><trkpt lat="39.79441397446397" lon="8.553936809304988"><ele>3.0</ele><time>2026-05-02T06:51:31.999Z</time></trkpt><trkpt lat="39.79441557642829" lon="8.554091708888473"><ele>3.0</ele><time>2026-05-02T06:51:32.999Z</time></trkpt><trkpt lat="39.794417197738305" lon="8.554248479176639"><ele>3.0</ele><time>2026-05-02T06:51:33.999Z</time></trkpt><trkpt lat="39.794417471927225" lon="8.554405784002604"><ele>3.2</ele><time>2026-05-02T06:51:34.999Z</time></trkpt><trkpt lat="39.79441725171172" lon="8.554558195042693"><ele>3.4</ele><time>2026-05-02T06:51:35.999Z</time></trkpt><trkpt lat="39.794417054129866" lon="8.554694941545907"><ele>3.6000000000000005</ele><time>2026-05-02T06:51:36.999Z</time></trkpt><trkpt lat="39.794416876840685" lon="8.554817642851347"><ele>3.8000000000000003</ele><time>2026-05-02T06:51:37.999Z</time></trkpt><trkpt lat="39.79441671110151" lon="8.554932350600785"><ele>4.0</ele><time>2026-05-02T06:51:38.999Z</time></trkpt><trkpt lat="39.794416534575966" lon="8.555054526280815"><ele>4.0</ele><time>2026-05-02T06:51:39.999Z</time></trkpt><trkpt lat="39.79441925103957" lon="8.555187253275097"><ele>4.0</ele><time>2026-05-02T06:51:40.999Z</time></trkpt><trkpt lat="39.79442102078683" lon="8.555325464737937"><ele>4.0</ele><time>2026-05-02T06:51:41.999Z</time></trkpt><trkpt lat="39.794422763273076" lon="8.555461547335865"><ele>4.0</ele><time>2026-05-02T06:51:42.999Z</time></trkpt><trkpt lat="39.794422837949995" lon="8.555591816751955"><ele>4.0</ele><time>2026-05-02T06:51:43.999Z</time></trkpt><trkpt lat="39.794422837950364" lon="8.555722870893948"><ele>4.2</ele><time>2026-05-02T06:51:44.999Z</time></trkpt><trkpt lat="39.79442283794996" lon="8.5558596833582"><ele>4.4</ele><time>2026-05-02T06:51:45.999Z</time></trkpt><trkpt lat="39.79442283794994" lon="8.555999370486486"><ele>4.6</ele><time>2026-05-02T06:51:46.999Z</time></trkpt><trkpt lat="39.794422837949675" lon="8.556134609109996"><ele>4.8</ele><time>2026-05-02T06:51:47.999Z</time></trkpt><trkpt lat="39.79442283794983" lon="8.556268706872476"><ele>5.0</ele><time>2026-05-02T06:51:48.999Z</time></trkpt><trkpt lat="39.794422589865874" lon="8.556404658302146"><ele>5.0</ele><time>2026-05-02T06:51:49.999Z</time></trkpt><trkpt lat="39.79442242107514" lon="8.556544186893623"><ele>5.0</ele><time>2026-05-02T06:51:50.999Z</time></trkpt><trkpt lat="39.79442225543645" lon="8.556681109923444"><ele>5.0</ele><time>2026-05-02T06:51:51.999Z</time></trkpt><trkpt lat="39.79442209140277" lon="8.556816705980836"><ele>5.0</ele><time>2026-05-02T06:51:52.999Z</time></trkpt><trkpt lat="39.79442192677623" lon="8.55695279269293"><ele>5.0</ele><time>2026-05-02T06:51:53.999Z</time></trkpt><trkpt lat="39.79443783354152" lon="8.557076362872433"><ele>5.2</ele><time>2026-05-02T06:51:54.999Z</time></trkpt><trkpt lat="39.794421528526385" lon="8.557189764114637"><ele>5.4</ele><time>2026-05-02T06:51:55.999Z</time></trkpt><trkpt lat="39.79442122304687" lon="8.557307771017646"><ele>5.6</ele><time>2026-05-02T06:51:56.999Z</time></trkpt><trkpt lat="39.79442090598095" lon="8.557430253657781"><ele>5.8</ele><time>2026-05-02T06:51:57.999Z</time></trkpt><trkpt lat="39.79442058764686" lon="8.557553227315166"><ele>6.0</ele><time>2026-05-02T06:51:58.999Z</time></trkpt><trkpt lat="39.794420193879226" lon="8.557681231725473"><ele>6.0</ele><time>2026-05-02T06:51:59.999Z</time></trkpt><trkpt lat="39.794419788811815" lon="8.55781976468965"><ele>6.0</ele><time>2026-05-02T06:52:00.999Z</time></trkpt><trkpt lat="39.79441998628599" lon="8.55796447407749"><ele>6.0</ele><time>2026-05-02T06:52:01.999Z</time></trkpt><trkpt lat="39.79442027880056" lon="8.558114358490391"><ele>6.0</ele><time>2026-05-02T06:52:02.999Z</time></trkpt><trkpt lat="39.794420579598345" lon="8.558268487128926"><ele>6.0</ele><time>2026-05-02T06:52:03.999Z</time></trkpt><trkpt lat="39.79442080163003" lon="8.558427165531498"><ele>6.0</ele><time>2026-05-02T06:52:04.999Z</time></trkpt><trkpt lat="39.7944209341625" lon="8.5585885767278"><ele>6.0</ele><time>2026-05-02T06:52:05.999Z</time></trkpt><trkpt lat="39.79442106944271" lon="8.558753334406193"><ele>6.0</ele><time>2026-05-02T06:52:06.999Z</time></trkpt><trkpt lat="39.79442120791881" lon="8.558921984509272"><ele>5.75</ele><time>2026-05-02T06:52:07.999Z</time></trkpt><trkpt lat="39.7944213456037" lon="8.55908967038363"><ele>5.5</ele><time>2026-05-02T06:52:08.999Z</time></trkpt><trkpt lat="39.794421482922104" lon="8.559256910519833"><ele>5.25</ele><time>2026-05-02T06:52:09.999Z</time></trkpt><trkpt lat="39.79442162544508" lon="8.559430489683946"><ele>5.0</ele><time>2026-05-02T06:52:10.999Z</time></trkpt><trkpt lat="39.794421931842344" lon="8.559607972016947"><ele>4.75</ele><time>2026-05-02T06:52:11.999Z</time></trkpt><trkpt lat="39.79442279041813" lon="8.559786890928626"><ele>4.5</ele><time>2026-05-02T06:52:12.999Z</time></trkpt><trkpt lat="39.79442365849795" lon="8.559967790317149"><ele>4.25</ele><time>2026-05-02T06:52:13.999Z</time></trkpt><trkpt lat="39.79442453276416" lon="8.560149978875877"><ele>4.0</ele><time>2026-05-02T06:52:14.999Z</time></trkpt><trkpt lat="39.7944254179213" lon="8.560334436958614"><ele>3.75</ele><time>2026-05-02T06:52:15.999Z</time></trkpt><trkpt lat="39.79442576890528" lon="8.560518755382622"><ele>3.5</ele><time>2026-05-02T06:52:16.999Z</time></trkpt><trkpt lat="39.79442563811893" lon="8.560702235228257"><ele>3.25</ele><time>2026-05-02T06:52:17.999Z</time></trkpt><trkpt lat="39.794425505759634" lon="8.560887922613682"><ele>3.0</ele><time>2026-05-02T06:52:18.999Z</time></trkpt><trkpt lat="39.79442536947416" lon="8.561079117207473"><ele>2.75</ele><time>2026-05-02T06:52:19.999Z</time></trkpt><trkpt lat="39.79442523407925" lon="8.561269062862136"><ele>2.5</ele><time>2026-05-02T06:52:20.999Z</time></trkpt><trkpt lat="39.794425094551244" lon="8.561464806656474"><ele>2.25</ele><time>2026-05-02T06:52:21.999Z</time></trkpt><trkpt lat="39.79442495538321" lon="8.561660045305004"><ele>2.0</ele><time>2026-05-02T06:52:22.999Z</time></trkpt><trkpt lat="39.794424946364444" lon="8.561855479697122"><ele>2.5</ele><time>2026-05-02T06:52:23.999Z</time></trkpt><trkpt lat="39.79442562538209" lon="8.562047323832408"><ele>3.0</ele><time>2026-05-02T06:52:24.999Z</time></trkpt><trkpt lat="39.79442630864911" lon="8.562240369021907"><ele>3.5</ele><time>2026-05-02T06:52:25.998Z</time></trkpt><trkpt lat="39.79442696637505" lon="8.562426197634997"><ele>4.0</ele><time>2026-05-02T06:52:26.998Z</time></trkpt><trkpt lat="39.7944276889145" lon="8.562630338310509"><ele>4.0</ele><time>2026-05-02T06:52:27.998Z</time></trkpt><trkpt lat="39.79442847112972" lon="8.562851339499408"><ele>4.0</ele><time>2026-05-02T06:52:28.998Z</time></trkpt><trkpt lat="39.794429260496585" lon="8.56307436090204"><ele>4.0</ele><time>2026-05-02T06:52:29.998Z</time></trkpt><trkpt lat="39.794430053171766" lon="8.563298317334116"><ele>4.0</ele><time>2026-05-02T06:52:30.998Z</time></trkpt><trkpt lat="39.79443083391755" lon="8.563518902941166"><ele>4.0</ele><time>2026-05-02T06:52:31.998Z</time></trkpt><trkpt lat="39.7944308339367" lon="8.563740016074632"><ele>4.0</ele><time>2026-05-02T06:52:32.998Z</time></trkpt><trkpt lat="39.79444495334714" lon="8.563958824408154"><ele>4.0</ele><time>2026-05-02T06:52:33.998Z</time></trkpt><trkpt lat="39.794443699393675" lon="8.56417954867277"><ele>4.0</ele><time>2026-05-02T06:52:34.998Z</time></trkpt><trkpt lat="39.79443001307427" lon="8.56439799637279"><ele>4.0</ele><time>2026-05-02T06:52:35.998Z</time></trkpt><trkpt lat="39.79442974258594" lon="8.564614812611937"><ele>4.0</ele><time>2026-05-02T06:52:36.998Z</time></trkpt><trkpt lat="39.79442947378764" lon="8.564830273169283"><ele>4.0</ele><time>2026-05-02T06:52:37.998Z</time></trkpt><trkpt lat="39.79442921002697" lon="8.565041696426057"><ele>4.0</ele><time>2026-05-02T06:52:38.998Z</time></trkpt><trkpt lat="39.79442894915191" lon="8.56525080592753"><ele>4.333333333333333</ele><time>2026-05-02T06:52:39.998Z</time></trkpt><trkpt lat="39.7944294044869" lon="8.565459870503323"><ele>4.666666666666667</ele><time>2026-05-02T06:52:40.998Z</time></trkpt><trkpt lat="39.79442988854803" lon="8.565667423265824"><ele>5.0</ele><time>2026-05-02T06:52:41.998Z</time></trkpt><trkpt lat="39.79443037026142" lon="8.56587396935717"><ele>5.0</ele><time>2026-05-02T06:52:42.998Z</time></trkpt><trkpt lat="39.794447310294736" lon="8.56608141993486"><ele>5.0</ele><time>2026-05-02T06:52:43.998Z</time></trkpt><trkpt lat="39.79443133960458" lon="8.566289599069052"><ele>5.0</ele><time>2026-05-02T06:52:44.998Z</time></trkpt><trkpt lat="39.794431822405016" lon="8.566496611427045"><ele>5.0</ele><time>2026-05-02T06:52:45.998Z</time></trkpt><trkpt lat="39.79444874224916" lon="8.566705883763138"><ele>5.0</ele><time>2026-05-02T06:52:46.998Z</time></trkpt><trkpt lat="39.794448328405444" lon="8.566913435282812"><ele>5.0</ele><time>2026-05-02T06:52:47.998Z</time></trkpt><trkpt lat="39.79444861964246" lon="8.56712264201293"><ele>5.333333333333334</ele><time>2026-05-02T06:52:48.998Z</time></trkpt><trkpt lat="39.79445076171192" lon="8.567330083319412"><ele>5.666666666666667</ele><time>2026-05-02T06:52:49.998Z</time></trkpt><trkpt lat="39.794451935435816" lon="8.56754003437958"><ele>6.0</ele><time>2026-05-02T06:52:50.998Z</time></trkpt><trkpt lat="39.79445226897483" lon="8.567750159392745"><ele>5.333333333333333</ele><time>2026-05-02T06:52:51.998Z</time></trkpt><trkpt lat="39.7944371210253" lon="8.567957241372401"><ele>4.666666666666666</ele><time>2026-05-02T06:52:52.998Z</time></trkpt><trkpt lat="39.79443698738749" lon="8.568165877146004"><ele>4.0</ele><time>2026-05-02T06:52:53.998Z</time></trkpt><trkpt lat="39.79443685337841" lon="8.568375091695858"><ele>4.0</ele><time>2026-05-02T06:52:54.998Z</time></trkpt><trkpt lat="39.794436718829516" lon="8.568585149427156"><ele>4.0</ele><time>2026-05-02T06:52:55.998Z</time></trkpt><trkpt lat="39.79443658440895" lon="8.568795006503526"><ele>4.0</ele><time>2026-05-02T06:52:56.998Z</time></trkpt><trkpt lat="39.794436450460225" lon="8.56900412773953"><ele>4.0</ele><time>2026-05-02T06:52:57.998Z</time></trkpt><trkpt lat="39.7944363145088" lon="8.569216373983913"><ele>4.0</ele><time>2026-05-02T06:52:58.998Z</time></trkpt><trkpt lat="39.79443640394657" lon="8.569425760819627"><ele>4.0</ele><time>2026-05-02T06:52:59.998Z</time></trkpt><trkpt lat="39.79443679609639" lon="8.569637992034835"><ele>4.333333333333333</ele><time>2026-05-02T06:53:00.998Z</time></trkpt><trkpt lat="39.79443718663511" lon="8.56984935195074"><ele>4.666666666666667</ele><time>2026-05-02T06:53:01.998Z</time></trkpt><trkpt lat="39.79443757553915" lon="8.570059826671532"><ele>5.0</ele><time>2026-05-02T06:53:02.998Z</time></trkpt><trkpt lat="39.794437966826074" lon="8.570271591481013"><ele>5.333333333333334</ele><time>2026-05-02T06:53:03.998Z</time></trkpt><trkpt lat="39.794438564886754" lon="8.570484783640088"><ele>5.666666666666667</ele><time>2026-05-02T06:53:04.998Z</time></trkpt><trkpt lat="39.79443960535751" lon="8.570696150295182"><ele>6.0</ele><time>2026-05-02T06:53:05.998Z</time></trkpt><trkpt lat="39.794440650659645" lon="8.570908498384938"><ele>6.0</ele><time>2026-05-02T06:53:06.998Z</time></trkpt><trkpt lat="39.794458346758304" lon="8.571120676584039"><ele>6.0</ele><time>2026-05-02T06:53:07.998Z</time></trkpt><trkpt lat="39.79445900610167" lon="8.571332204168366"><ele>6.0</ele><time>2026-05-02T06:53:09Z</time></trkpt><trkpt lat="39.79445831079377" lon="8.571542857746085"><ele>6.666666666666666</ele><time>2026-05-02T06:53:10Z</time></trkpt><trkpt lat="39.79445831918132" lon="8.57175397795943"><ele>7.333333333333333</ele><time>2026-05-02T06:53:11Z</time></trkpt><trkpt lat="39.79445842082043" lon="8.571964786548046"><ele>8.0</ele><time>2026-05-02T06:53:12Z</time></trkpt><trkpt lat="39.794460011515824" lon="8.572175336465497"><ele>8.333333333333332</ele><time>2026-05-02T06:53:13Z</time></trkpt><trkpt lat="39.794458912974655" lon="8.572386296428121"><ele>8.666666666666666</ele><time>2026-05-02T06:53:14Z</time></trkpt><trkpt lat="39.794459098746785" lon="8.572597566709808"><ele>9.0</ele><time>2026-05-02T06:53:15Z</time></trkpt><trkpt lat="39.794458606172164" lon="8.572807939525706"><ele>8.666666666666666</ele><time>2026-05-02T06:53:16Z</time></trkpt><trkpt lat="39.79445935846895" lon="8.5730172984637"><ele>8.333333333333332</ele><time>2026-05-02T06:53:17Z</time></trkpt><trkpt lat="39.79445947296203" lon="8.57322710367324"><ele>8.0</ele><time>2026-05-02T06:53:18Z</time></trkpt><trkpt lat="39.79444443795428" lon="8.573438413260623"><ele>8.0</ele><time>2026-05-02T06:53:19Z</time></trkpt><trkpt lat="39.79444466496039" lon="8.573647977435943"><ele>8.0</ele><time>2026-05-02T06:53:20Z</time></trkpt><trkpt lat="39.79444494007809" lon="8.5738590480407"><ele>8.0</ele><time>2026-05-02T06:53:21Z</time></trkpt><trkpt lat="39.79444521528658" lon="8.574070188097815"><ele>7.333333333333333</ele><time>2026-05-02T06:53:22Z</time></trkpt><trkpt lat="39.79444554503447" lon="8.574277919465809"><ele>6.666666666666666</ele><time>2026-05-02T06:53:23Z</time></trkpt><trkpt lat="39.794462224881634" lon="8.574484514726416"><ele>6.0</ele><time>2026-05-02T06:53:24Z</time></trkpt><trkpt lat="39.79446258207149" lon="8.574690341636465"><ele>6.0</ele><time>2026-05-02T06:53:25Z</time></trkpt><trkpt lat="39.79446360501211" lon="8.574896888389612"><ele>6.0</ele><time>2026-05-02T06:53:26Z</time></trkpt><trkpt lat="39.794447943429226" lon="8.575103934151816"><ele>6.0</ele><time>2026-05-02T06:53:26.999Z</time></trkpt><trkpt lat="39.79444854088357" lon="8.575309699154536"><ele>5.666666666666667</ele><time>2026-05-02T06:53:27.999Z</time></trkpt><trkpt lat="39.794465239216976" lon="8.575516216074472"><ele>5.333333333333334</ele><time>2026-05-02T06:53:28.999Z</time></trkpt><trkpt lat="39.79446640153563" lon="8.57572283028666"><ele>5.0</ele><time>2026-05-02T06:53:29.999Z</time></trkpt><trkpt lat="39.79445034448688" lon="8.575930865837476"><ele>5.0</ele><time>2026-05-02T06:53:30.999Z</time></trkpt><trkpt lat="39.79445094948667" lon="8.576139229589831"><ele>5.0</ele><time>2026-05-02T06:53:31.999Z</time></trkpt><trkpt lat="39.79445155596162" lon="8.576348101414904"><ele>5.0</ele><time>2026-05-02T06:53:32.999Z</time></trkpt><trkpt lat="39.79445252192971" lon="8.576558780055993"><ele>5.0</ele><time>2026-05-02T06:53:33.999Z</time></trkpt><trkpt lat="39.79445354374927" lon="8.576769637490447"><ele>5.0</ele><time>2026-05-02T06:53:34.999Z</time></trkpt><trkpt lat="39.79445458308581" lon="8.576984109593948"><ele>5.0</ele><time>2026-05-02T06:53:35.999Z</time></trkpt><trkpt lat="39.794454976497356" lon="8.577200004574092"><ele>5.0</ele><time>2026-05-02T06:53:36.999Z</time></trkpt><trkpt lat="39.794455256001115" lon="8.577415585842974"><ele>5.0</ele><time>2026-05-02T06:53:37.999Z</time></trkpt><trkpt lat="39.79445553494216" lon="8.577630733270095"><ele>5.0</ele><time>2026-05-02T06:53:38.999Z</time></trkpt><trkpt lat="39.794455959499665" lon="8.577846131511198"><ele>5.666666666666667</ele><time>2026-05-02T06:53:39.999Z</time></trkpt><trkpt lat="39.794456767474" lon="8.578060499183364"><ele>6.333333333333334</ele><time>2026-05-02T06:53:40.999Z</time></trkpt><trkpt lat="39.79445757401741" lon="8.578274487443053"><ele>7.0</ele><time>2026-05-02T06:53:41.999Z</time></trkpt><trkpt lat="39.79445837684833" lon="8.578487490557425"><ele>7.333333333333334</ele><time>2026-05-02T06:53:42.999Z</time></trkpt><trkpt lat="39.79445918204527" lon="8.5787011214352"><ele>7.666666666666666</ele><time>2026-05-02T06:53:43.999Z</time></trkpt><trkpt lat="39.7944599915814" lon="8.57891590359351"><ele>8.0</ele><time>2026-05-02T06:53:44.999Z</time></trkpt><trkpt lat="39.79446080073622" lon="8.579130584484226"><ele>8.0</ele><time>2026-05-02T06:53:45.999Z</time></trkpt><trkpt lat="39.79446160829953" lon="8.579344843098012"><ele>8.0</ele><time>2026-05-02T06:53:46.999Z</time></trkpt><trkpt lat="39.7944781597645" lon="8.579560526757623"><ele>8.0</ele><time>2026-05-02T06:53:47.999Z</time></trkpt><trkpt lat="39.79446323383642" lon="8.579776124818299"><ele>7.666666666666666</ele><time>2026-05-02T06:53:48.999Z</time></trkpt><trkpt lat="39.79447769618492" lon="8.579989702184516"><ele>7.333333333333334</ele><time>2026-05-02T06:53:49.999Z</time></trkpt><trkpt lat="39.794477069370984" lon="8.580206938309175"><ele>7.0</ele><time>2026-05-02T06:53:50.999Z</time></trkpt><trkpt lat="39.794463037956426" lon="8.580422058135488"><ele>6.0</ele><time>2026-05-02T06:53:51.999Z</time></trkpt><trkpt lat="39.79446303795663" lon="8.580637131737875"><ele>5.0</ele><time>2026-05-02T06:53:52.999Z</time></trkpt><trkpt lat="39.794463037956476" lon="8.580853839338445"><ele>4.0</ele><time>2026-05-02T06:53:53.999Z</time></trkpt><trkpt lat="39.794463037956255" lon="8.581069593796467"><ele>5.25</ele><time>2026-05-02T06:53:54.999Z</time></trkpt><trkpt lat="39.794463037956454" lon="8.58127844925849"><ele>6.5</ele><time>2026-05-02T06:53:55.999Z</time></trkpt><trkpt lat="39.794463037956284" lon="8.581467801450085"><ele>7.75</ele><time>2026-05-02T06:53:56.999Z</time></trkpt><trkpt lat="39.79446303795609" lon="8.58164373444848"><ele>9.0</ele><time>2026-05-02T06:53:57.999Z</time></trkpt><trkpt lat="39.794463888845385" lon="8.581809127621389"><ele>9.0</ele><time>2026-05-02T06:53:58.999Z</time></trkpt><trkpt lat="39.794466849894825" lon="8.581952329314566"><ele>9.0</ele><time>2026-05-02T06:53:59.999Z</time></trkpt><trkpt lat="39.79446799296903" lon="8.58206117338484"><ele>9.0</ele><time>2026-05-02T06:54:00.999Z</time></trkpt><trkpt lat="39.79448175807315" lon="8.582175579301666"><ele>9.0</ele><time>2026-05-02T06:54:02.999Z</time></trkpt><trkpt lat="39.7944711829356" lon="8.582279991374428"><ele>9.0</ele><time>2026-05-02T06:54:09.999Z</time></trkpt><trkpt lat="39.794642166825646" lon="8.582268841428863"><ele>10.25</ele><time>2026-05-02T06:54:10.999Z</time></trkpt><trkpt lat="39.794733954857456" lon="8.582248126558039"><ele>11.5</ele><time>2026-05-02T06:54:11.999Z</time></trkpt><trkpt lat="39.79484523352971" lon="8.582247273946118"><ele>12.75</ele><time>2026-05-02T06:54:12.999Z</time></trkpt><trkpt lat="39.7949622367394" lon="8.582253035287232"><ele>14.0</ele><time>2026-05-02T06:54:13.999Z</time></trkpt><trkpt lat="39.7950918139638" lon="8.582257432715544"><ele>14.0</ele><time>2026-05-02T06:54:14.999Z</time></trkpt><trkpt lat="39.79522384988329" lon="8.582258374475087"><ele>14.0</ele><time>2026-05-02T06:54:15.999Z</time></trkpt><trkpt lat="39.79536696667005" lon="8.58225341052523"><ele>14.0</ele><time>2026-05-02T06:54:16.999Z</time></trkpt><trkpt lat="39.79552013143005" lon="8.58224759297152"><ele>14.0</ele><time>2026-05-02T06:54:17.999Z</time></trkpt><trkpt lat="39.79567497778219" lon="8.582231169521155"><ele>14.0</ele><time>2026-05-02T06:54:18.999Z</time></trkpt><trkpt lat="39.79583386110098" lon="8.582237624050927"><ele>14.0</ele><time>2026-05-02T06:54:19.999Z</time></trkpt><trkpt lat="39.795993165671725" lon="8.58223185715901"><ele>14.0</ele><time>2026-05-02T06:54:20.999Z</time></trkpt><trkpt lat="39.796158786906446" lon="8.582231833899261"><ele>12.666666666666668</ele><time>2026-05-02T06:54:21.999Z</time></trkpt><trkpt lat="39.79632601526886" lon="8.582229363688736"><ele>11.333333333333334</ele><time>2026-05-02T06:54:22.999Z</time></trkpt><trkpt lat="39.79649231730121" lon="8.582230752058393"><ele>10.0</ele><time>2026-05-02T06:54:23.999Z</time></trkpt><trkpt lat="39.79665982883314" lon="8.582232667708448"><ele>10.0</ele><time>2026-05-02T06:54:24.999Z</time></trkpt><trkpt lat="39.796828195295156" lon="8.582233624655657"><ele>10.0</ele><time>2026-05-02T06:54:25.999Z</time></trkpt><trkpt lat="39.79699821914615" lon="8.582231595073043"><ele>10.0</ele><time>2026-05-02T06:54:26.999Z</time></trkpt><trkpt lat="39.7971705610565" lon="8.582232855742065"><ele>9.666666666666668</ele><time>2026-05-02T06:54:27.999Z</time></trkpt><trkpt lat="39.79734321299845" lon="8.582232927272864"><ele>9.333333333333334</ele><time>2026-05-02T06:54:28.999Z</time></trkpt><trkpt lat="39.79751645591647" lon="8.582229817569836"><ele>9.0</ele><time>2026-05-02T06:54:29.999Z</time></trkpt><trkpt lat="39.797689360337046" lon="8.58222629871347"><ele>8.0</ele><time>2026-05-02T06:54:30.999Z</time></trkpt><trkpt lat="39.79786111357431" lon="8.58222702912318"><ele>7.0</ele><time>2026-05-02T06:54:31.998Z</time></trkpt><trkpt lat="39.79803373256114" lon="8.582227779361395"><ele>6.0</ele><time>2026-05-02T06:54:32.998Z</time></trkpt><trkpt lat="39.798205450931356" lon="8.582227434644652"><ele>6.0</ele><time>2026-05-02T06:54:33.998Z</time></trkpt><trkpt lat="39.79837677646335" lon="8.582225790023427"><ele>6.0</ele><time>2026-05-02T06:54:34.998Z</time></trkpt><trkpt lat="39.798546870450636" lon="8.582223451312176"><ele>6.0</ele><time>2026-05-02T06:54:35.998Z</time></trkpt><trkpt lat="39.79871600292036" lon="8.582224353717718"><ele>5.333333333333333</ele><time>2026-05-02T06:54:36.998Z</time></trkpt><trkpt lat="39.798883746247924" lon="8.582225841942831"><ele>4.666666666666666</ele><time>2026-05-02T06:54:37.998Z</time></trkpt><trkpt lat="39.799051851376376" lon="8.582223728908954"><ele>4.0</ele><time>2026-05-02T06:54:38.998Z</time></trkpt><trkpt lat="39.79921877122316" lon="8.58222326603439"><ele>4.333333333333333</ele><time>2026-05-02T06:54:39.998Z</time></trkpt><trkpt lat="39.79938508220668" lon="8.582223309502519"><ele>4.666666666666667</ele><time>2026-05-02T06:54:40.998Z</time></trkpt><trkpt lat="39.79955151288756" lon="8.582221939731115"><ele>5.0</ele><time>2026-05-02T06:54:41.998Z</time></trkpt><trkpt lat="39.7997180667264" lon="8.582221189574328"><ele>5.0</ele><time>2026-05-02T06:54:42.998Z</time></trkpt><trkpt lat="39.79988500494279" lon="8.582218435826762"><ele>5.0</ele><time>2026-05-02T06:54:43.998Z</time></trkpt><trkpt lat="39.800052546822855" lon="8.582216864820536"><ele>5.0</ele><time>2026-05-02T06:54:44.998Z</time></trkpt><trkpt lat="39.80022060670983" lon="8.58221532081217"><ele>5.0</ele><time>2026-05-02T06:54:45.998Z</time></trkpt><trkpt lat="39.800389088347636" lon="8.582214118253246"><ele>5.0</ele><time>2026-05-02T06:54:46.998Z</time></trkpt><trkpt lat="39.80055827715151" lon="8.582213036395242"><ele>5.0</ele><time>2026-05-02T06:54:47.998Z</time></trkpt><trkpt lat="39.80072688190125" lon="8.582211876438762"><ele>5.0</ele><time>2026-05-02T06:54:48.998Z</time></trkpt><trkpt lat="39.8008950697145" lon="8.582211258002951"><ele>5.0</ele><time>2026-05-02T06:54:49.998Z</time></trkpt><trkpt lat="39.80106138940619" lon="8.582209971570654"><ele>5.0</ele><time>2026-05-02T06:54:50.998Z</time></trkpt><trkpt lat="39.80122657366869" lon="8.5822089031581"><ele>5.666666666666667</ele><time>2026-05-02T06:54:51.998Z</time></trkpt><trkpt lat="39.80139173054683" lon="8.582206644950324"><ele>6.333333333333334</ele><time>2026-05-02T06:54:52.998Z</time></trkpt><trkpt lat="39.80155776959686" lon="8.582204614853312"><ele>7.0</ele><time>2026-05-02T06:54:53.998Z</time></trkpt><trkpt lat="39.801724235326134" lon="8.582202326795946"><ele>6.333333333333334</ele><time>2026-05-02T06:54:54.998Z</time></trkpt><trkpt lat="39.801890837614145" lon="8.582199007875506"><ele>5.666666666666667</ele><time>2026-05-02T06:54:55.998Z</time></trkpt><trkpt lat="39.80205860750275" lon="8.582194994641656"><ele>5.0</ele><time>2026-05-02T06:54:56.998Z</time></trkpt><trkpt lat="39.8022268131595" lon="8.582192359407152"><ele>5.0</ele><time>2026-05-02T06:54:57.998Z</time></trkpt><trkpt lat="39.802395489086706" lon="8.582191699109634"><ele>5.0</ele><time>2026-05-02T06:54:58.998Z</time></trkpt><trkpt lat="39.80256455343024" lon="8.582190536267971"><ele>5.0</ele><time>2026-05-02T06:54:59.998Z</time></trkpt><trkpt lat="39.802735450759066" lon="8.582189378088735"><ele>4.666666666666667</ele><time>2026-05-02T06:55:00.998Z</time></trkpt><trkpt lat="39.80290680472671" lon="8.582189419463766"><ele>4.333333333333333</ele><time>2026-05-02T06:55:01.998Z</time></trkpt><trkpt lat="39.80307898840902" lon="8.582190645464246"><ele>4.0</ele><time>2026-05-02T06:55:02.998Z</time></trkpt><trkpt lat="39.80325275179152" lon="8.582192573268985"><ele>4.0</ele><time>2026-05-02T06:55:03.998Z</time></trkpt><trkpt lat="39.803426914484625" lon="8.582192918034082"><ele>4.0</ele><time>2026-05-02T06:55:04.998Z</time></trkpt><trkpt lat="39.80360230031972" lon="8.58219181536871"><ele>4.0</ele><time>2026-05-02T06:55:05.998Z</time></trkpt><trkpt lat="39.803777989935256" lon="8.582192001320815"><ele>4.0</ele><time>2026-05-02T06:55:06.998Z</time></trkpt><trkpt lat="39.80395351011624" lon="8.58219181547862"><ele>4.0</ele><time>2026-05-02T06:55:07.998Z</time></trkpt><trkpt lat="39.8041290778541" lon="8.58219128239035"><ele>4.0</ele><time>2026-05-02T06:55:08.998Z</time></trkpt><trkpt lat="39.804305020649814" lon="8.582191037408284"><ele>5.0</ele><time>2026-05-02T06:55:09.998Z</time></trkpt><trkpt lat="39.80448183993311" lon="8.582190167270735"><ele>6.0</ele><time>2026-05-02T06:55:10.998Z</time></trkpt><trkpt lat="39.80465844785824" lon="8.582188297668166"><ele>7.0</ele><time>2026-05-02T06:55:11.998Z</time></trkpt><trkpt lat="39.80483451347379" lon="8.582185652222078"><ele>7.0</ele><time>2026-05-02T06:55:12.998Z</time></trkpt><trkpt lat="39.805010043713146" lon="8.58218463786048"><ele>7.0</ele><time>2026-05-02T06:55:13.998Z</time></trkpt><trkpt lat="39.80518553714487" lon="8.582185602569693"><ele>7.0</ele><time>2026-05-02T06:55:15Z</time></trkpt><trkpt lat="39.80536029804755" lon="8.582187056785544"><ele>7.0</ele><time>2026-05-02T06:55:16Z</time></trkpt><trkpt lat="39.80553586838717" lon="8.582189283291259"><ele>7.0</ele><time>2026-05-02T06:55:17Z</time></trkpt><trkpt lat="39.805711873471225" lon="8.58218960953493"><ele>7.0</ele><time>2026-05-02T06:55:18Z</time></trkpt><trkpt lat="39.805886849829236" lon="8.582187488435972"><ele>7.0</ele><time>2026-05-02T06:55:19Z</time></trkpt><trkpt lat="39.80606364848485" lon="8.582186689153076"><ele>7.0</ele><time>2026-05-02T06:55:20Z</time></trkpt><trkpt lat="39.80624011228931" lon="8.58218506251701"><ele>7.0</ele><time>2026-05-02T06:55:21Z</time></trkpt><trkpt lat="39.80641828094345" lon="8.582185214822493"><ele>7.0</ele><time>2026-05-02T06:55:22Z</time></trkpt><trkpt lat="39.8065985654084" lon="8.58218450086095"><ele>7.0</ele><time>2026-05-02T06:55:23Z</time></trkpt><trkpt lat="39.806779873981995" lon="8.58218385073159"><ele>7.0</ele><time>2026-05-02T06:55:24Z</time></trkpt><trkpt lat="39.806961971161" lon="8.582181875263254"><ele>6.0</ele><time>2026-05-02T06:55:25Z</time></trkpt><trkpt lat="39.807143914911066" lon="8.58217943301956"><ele>5.0</ele><time>2026-05-02T06:55:26Z</time></trkpt><trkpt lat="39.80732419097441" lon="8.582177679428057"><ele>4.0</ele><time>2026-05-02T06:55:27Z</time></trkpt><trkpt lat="39.807505020177864" lon="8.582178990643802"><ele>4.333333333333333</ele><time>2026-05-02T06:55:28Z</time></trkpt><trkpt lat="39.807683337551545" lon="8.58217917253292"><ele>4.666666666666667</ele><time>2026-05-02T06:55:29Z</time></trkpt><trkpt lat="39.80786053845785" lon="8.582180608660359"><ele>5.0</ele><time>2026-05-02T06:55:30Z</time></trkpt><trkpt lat="39.80803619751451" lon="8.582180829122038"><ele>5.0</ele><time>2026-05-02T06:55:31Z</time></trkpt><trkpt lat="39.80821124803073" lon="8.582178339500793"><ele>5.0</ele><time>2026-05-02T06:55:32Z</time></trkpt><trkpt lat="39.808387718238514" lon="8.582178087384039"><ele>5.0</ele><time>2026-05-02T06:55:32.999Z</time></trkpt><trkpt lat="39.808565969214285" lon="8.582179351559132"><ele>4.666666666666667</ele><time>2026-05-02T06:55:33.999Z</time></trkpt><trkpt lat="39.80874436995767" lon="8.582179642672964"><ele>4.333333333333333</ele><time>2026-05-02T06:55:34.999Z</time></trkpt><trkpt lat="39.80892345889184" lon="8.582177243411982"><ele>4.0</ele><time>2026-05-02T06:55:35.999Z</time></trkpt><trkpt lat="39.80910209477261" lon="8.582175273814597"><ele>4.0</ele><time>2026-05-02T06:55:36.999Z</time></trkpt><trkpt lat="39.80927841681962" lon="8.582174923845376"><ele>4.0</ele><time>2026-05-02T06:55:37.999Z</time></trkpt><trkpt lat="39.80945264266354" lon="8.582175274750506"><ele>4.0</ele><time>2026-05-02T06:55:38.999Z</time></trkpt><trkpt lat="39.809625612589095" lon="8.582168640674738"><ele>4.0</ele><time>2026-05-02T06:55:39.999Z</time></trkpt><trkpt lat="39.80979816010798" lon="8.582147166309776"><ele>4.0</ele><time>2026-05-02T06:55:40.999Z</time></trkpt><trkpt lat="39.80997484958382" lon="8.582078271464475"><ele>4.0</ele><time>2026-05-02T06:55:41.999Z</time></trkpt><trkpt lat="39.81011707243816" lon="8.581972372459955"><ele>4.0</ele><time>2026-05-02T06:55:42.999Z</time></trkpt><trkpt lat="39.810257295161186" lon="8.581832232914458"><ele>4.0</ele><time>2026-05-02T06:55:43.999Z</time></trkpt><trkpt lat="39.81039494672776" lon="8.581682240171464"><ele>4.0</ele><time>2026-05-02T06:55:44.999Z</time></trkpt><trkpt lat="39.81053926062458" lon="8.581540048410872"><ele>4.0</ele><time>2026-05-02T06:55:45.999Z</time></trkpt><trkpt lat="39.81068511350773" lon="8.581396629141683"><ele>4.0</ele><time>2026-05-02T06:55:46.999Z</time></trkpt><trkpt lat="39.810829762307016" lon="8.581252424481304"><ele>4.0</ele><time>2026-05-02T06:55:47.999Z</time></trkpt><trkpt lat="39.8109749798253" lon="8.581109670830944"><ele>3.0</ele><time>2026-05-02T06:55:48.999Z</time></trkpt><trkpt lat="39.81112092327152" lon="8.580968361699508"><ele>2.0</ele><time>2026-05-02T06:55:49.999Z</time></trkpt><trkpt lat="39.811268433259336" lon="8.580833274532882"><ele>1.0</ele><time>2026-05-02T06:55:50.999Z</time></trkpt><trkpt lat="39.811417697176296" lon="8.580701811148728"><ele>1.0</ele><time>2026-05-02T06:55:51.999Z</time></trkpt><trkpt lat="39.81156538132444" lon="8.580572446705682"><ele>1.0</ele><time>2026-05-02T06:55:52.999Z</time></trkpt><trkpt lat="39.81171180022175" lon="8.580443666106307"><ele>1.0</ele><time>2026-05-02T06:55:53.999Z</time></trkpt><trkpt lat="39.811857579116854" lon="8.580315313044172"><ele>1.3333333333333333</ele><time>2026-05-02T06:55:54.999Z</time></trkpt><trkpt lat="39.81200007154805" lon="8.580186479317115"><ele>1.6666666666666665</ele><time>2026-05-02T06:55:55.999Z</time></trkpt><trkpt lat="39.81214563027703" lon="8.580060348077524"><ele>2.0</ele><time>2026-05-02T06:55:56.999Z</time></trkpt><trkpt lat="39.812291367099" lon="8.579935515389117"><ele>2.0</ele><time>2026-05-02T06:55:57.999Z</time></trkpt><trkpt lat="39.812437462451804" lon="8.579808128521996"><ele>2.0</ele><time>2026-05-02T06:55:58.999Z</time></trkpt><trkpt lat="39.81258267078029" lon="8.57967690190713"><ele>2.0</ele><time>2026-05-02T06:55:59.999Z</time></trkpt><trkpt lat="39.812726462069925" lon="8.57954056611903"><ele>1.6666666666666665</ele><time>2026-05-02T06:56:00.999Z</time></trkpt><trkpt lat="39.81286452632115" lon="8.579392629197974"><ele>1.3333333333333333</ele><time>2026-05-02T06:56:01.999Z</time></trkpt><trkpt lat="39.81299531981196" lon="8.579235017461679"><ele>1.0</ele><time>2026-05-02T06:56:02.999Z</time></trkpt><trkpt lat="39.813124074340934" lon="8.579075412028201"><ele>1.0</ele><time>2026-05-02T06:56:03.999Z</time></trkpt><trkpt lat="39.81325322895432" lon="8.578914996682132"><ele>1.0</ele><time>2026-05-02T06:56:04.999Z</time></trkpt><trkpt lat="39.81338179258931" lon="8.57875305634836"><ele>1.0</ele><time>2026-05-02T06:56:05.999Z</time></trkpt><trkpt lat="39.813509823753" lon="8.57859129310061"><ele>1.0</ele><time>2026-05-02T06:56:06.999Z</time></trkpt><trkpt lat="39.813637257103125" lon="8.57842856509261"><ele>1.0</ele><time>2026-05-02T06:56:07.999Z</time></trkpt><trkpt lat="39.81376223279729" lon="8.578264124736759"><ele>1.0</ele><time>2026-05-02T06:56:08.999Z</time></trkpt><trkpt lat="39.813879447210006" lon="8.57808769799209"><ele>1.0</ele><time>2026-05-02T06:56:09.999Z</time></trkpt><trkpt lat="39.81398505439133" lon="8.577898833437484"><ele>1.0</ele><time>2026-05-02T06:56:10.999Z</time></trkpt><trkpt lat="39.81408480100696" lon="8.577703940025163"><ele>1.0</ele><time>2026-05-02T06:56:11.999Z</time></trkpt><trkpt lat="39.81418225349355" lon="8.577504147000484"><ele>0.6666666666666666</ele><time>2026-05-02T06:56:12.999Z</time></trkpt><trkpt lat="39.81427478426" lon="8.5773022224151"><ele>0.3333333333333333</ele><time>2026-05-02T06:56:13.999Z</time></trkpt><trkpt lat="39.81436566674773" lon="8.577100164919749"><ele>0.0</ele><time>2026-05-02T06:56:14.999Z</time></trkpt><trkpt lat="39.81445899057948" lon="8.576897773833236"><ele>1.0</ele><time>2026-05-02T06:56:15.999Z</time></trkpt><trkpt lat="39.81455329922077" lon="8.576696323032351"><ele>2.0</ele><time>2026-05-02T06:56:16.999Z</time></trkpt><trkpt lat="39.81464683451975" lon="8.576493771312103"><ele>3.0</ele><time>2026-05-02T06:56:17.999Z</time></trkpt><trkpt lat="39.81473848552347" lon="8.576289128570595"><ele>3.333333333333333</ele><time>2026-05-02T06:56:18.999Z</time></trkpt><trkpt lat="39.81482785858674" lon="8.57608389147417"><ele>3.6666666666666665</ele><time>2026-05-02T06:56:19.999Z</time></trkpt><trkpt lat="39.81491873879253" lon="8.575879961832237"><ele>4.0</ele><time>2026-05-02T06:56:20.999Z</time></trkpt><trkpt lat="39.81500842507044" lon="8.57567827640905"><ele>4.0</ele><time>2026-05-02T06:56:21.999Z</time></trkpt><trkpt lat="39.815097590927905" lon="8.575476519034945"><ele>4.0</ele><time>2026-05-02T06:56:22.999Z</time></trkpt><trkpt lat="39.81518409725819" lon="8.575274928115276"><ele>4.0</ele><time>2026-05-02T06:56:23.999Z</time></trkpt><trkpt lat="39.815270927806154" lon="8.57507365413924"><ele>3.6666666666666665</ele><time>2026-05-02T06:56:24.999Z</time></trkpt><trkpt lat="39.815359279519704" lon="8.574872819165204"><ele>3.333333333333333</ele><time>2026-05-02T06:56:25.999Z</time></trkpt><trkpt lat="39.81544689862928" lon="8.57467252360502"><ele>3.0</ele><time>2026-05-02T06:56:26.999Z</time></trkpt><trkpt lat="39.81553418790984" lon="8.57447241823138"><ele>3.0</ele><time>2026-05-02T06:56:27.999Z</time></trkpt><trkpt lat="39.81562152536665" lon="8.574272690535507"><ele>3.0</ele><time>2026-05-02T06:56:28.999Z</time></trkpt><trkpt lat="39.81571251161372" lon="8.574077696503554"><ele>3.0</ele><time>2026-05-02T06:56:29.999Z</time></trkpt><trkpt lat="39.81581216883933" lon="8.573891477739807"><ele>3.0</ele><time>2026-05-02T06:56:30.999Z</time></trkpt><trkpt lat="39.81593829663223" lon="8.573736174810865"><ele>3.0</ele><time>2026-05-02T06:56:31.999Z</time></trkpt><trkpt lat="39.81608985589369" lon="8.573622397919678"><ele>3.0</ele><time>2026-05-02T06:56:32.999Z</time></trkpt><trkpt lat="39.816254297397705" lon="8.573545644938099"><ele>2.6666666666666665</ele><time>2026-05-02T06:56:33.999Z</time></trkpt><trkpt lat="39.81642662462391" lon="8.57350663326775"><ele>2.333333333333333</ele><time>2026-05-02T06:56:34.999Z</time></trkpt><trkpt lat="39.81660188456345" lon="8.573505280980005"><ele>2.0</ele><time>2026-05-02T06:56:35.999Z</time></trkpt><trkpt lat="39.81677430805357" lon="8.573545691834623"><ele>2.0</ele><time>2026-05-02T06:56:36.999Z</time></trkpt><trkpt lat="39.816941141778415" lon="8.57362188750479"><ele>2.0</ele><time>2026-05-02T06:56:37.998Z</time></trkpt><trkpt lat="39.81710702713019" lon="8.573705574523565"><ele>2.0</ele><time>2026-05-02T06:56:38.998Z</time></trkpt><trkpt lat="39.81727402628506" lon="8.573789386637523"><ele>2.0</ele><time>2026-05-02T06:56:39.998Z</time></trkpt><trkpt lat="39.81744341873191" lon="8.573871248260641"><ele>2.0</ele><time>2026-05-02T06:56:40.998Z</time></trkpt><trkpt lat="39.817613228185394" lon="8.57395621968835"><ele>2.0</ele><time>2026-05-02T06:56:41.998Z</time></trkpt><trkpt lat="39.81778213154158" lon="8.57404160220689"><ele>1.6666666666666665</ele><time>2026-05-02T06:56:42.998Z</time></trkpt><trkpt lat="39.817953737280675" lon="8.574119170690295"><ele>1.3333333333333333</ele><time>2026-05-02T06:56:43.998Z</time></trkpt><trkpt lat="39.818130080494605" lon="8.574178811635104"><ele>1.0</ele><time>2026-05-02T06:56:44.998Z</time></trkpt><trkpt lat="39.81830957764632" lon="8.574215646826762"><ele>1.0</ele><time>2026-05-02T06:56:45.998Z</time></trkpt><trkpt lat="39.81848886893251" lon="8.574246971430583"><ele>1.0</ele><time>2026-05-02T06:56:46.998Z</time></trkpt><trkpt lat="39.818668186680156" lon="8.574282344451197"><ele>1.0</ele><time>2026-05-02T06:56:47.998Z</time></trkpt><trkpt lat="39.81884770157597" lon="8.574320622638913"><ele>1.0</ele><time>2026-05-02T06:56:48.998Z</time></trkpt><trkpt lat="39.819026602008535" lon="8.574358737463466"><ele>1.0</ele><time>2026-05-02T06:56:49.998Z</time></trkpt><trkpt lat="39.81920670171847" lon="8.574400648029144"><ele>1.0</ele><time>2026-05-02T06:56:50.998Z</time></trkpt><trkpt lat="39.81938221958566" lon="8.574455606019942"><ele>0.3333333333333333</ele><time>2026-05-02T06:56:51.998Z</time></trkpt><trkpt lat="39.81953349426387" lon="8.574574099091294"><ele>-0.3333333333333333</ele><time>2026-05-02T06:56:52.998Z</time></trkpt><trkpt lat="39.8196733368601" lon="8.574727310939695"><ele>-1.0</ele><time>2026-05-02T06:56:53.998Z</time></trkpt><trkpt lat="39.819805508341666" lon="8.574882325194448"><ele>-1.0</ele><time>2026-05-02T06:56:54.998Z</time></trkpt><trkpt lat="39.81993938421791" lon="8.575039618501792"><ele>-1.0</ele><time>2026-05-02T06:56:55.998Z</time></trkpt><trkpt lat="39.82007553503073" lon="8.575191957539854"><ele>-1.0</ele><time>2026-05-02T06:56:56.998Z</time></trkpt><trkpt lat="39.82021424373998" lon="8.575349324193965"><ele>-0.6666666666666666</ele><time>2026-05-02T06:56:57.998Z</time></trkpt><trkpt lat="39.820348649071875" lon="8.575506686112387"><ele>-0.3333333333333333</ele><time>2026-05-02T06:56:58.998Z</time></trkpt><trkpt lat="39.82048375615217" lon="8.575662442284173"><ele>0.0</ele><time>2026-05-02T06:56:59.998Z</time></trkpt><trkpt lat="39.82061993937162" lon="8.575816146892738"><ele>0.0</ele><time>2026-05-02T06:57:00.998Z</time></trkpt><trkpt lat="39.820756731961254" lon="8.575967011066211"><ele>0.0</ele><time>2026-05-02T06:57:01.998Z</time></trkpt><trkpt lat="39.820893718036025" lon="8.57611980041899"><ele>0.0</ele><time>2026-05-02T06:57:02.998Z</time></trkpt><trkpt lat="39.82102884592055" lon="8.57627334078269"><ele>0.0</ele><time>2026-05-02T06:57:03.998Z</time></trkpt><trkpt lat="39.8211626342332" lon="8.576426965537294"><ele>0.0</ele><time>2026-05-02T06:57:04.998Z</time></trkpt><trkpt lat="39.821297435309745" lon="8.576580716009452"><ele>0.0</ele><time>2026-05-02T06:57:05.998Z</time></trkpt><trkpt lat="39.821435453060694" lon="8.57672875818572"><ele>0.0</ele><time>2026-05-02T06:57:06.998Z</time></trkpt><trkpt lat="39.82158494434041" lon="8.576861631252827"><ele>0.0</ele><time>2026-05-02T06:57:07.998Z</time></trkpt><trkpt lat="39.82174892149491" lon="8.576968963004937"><ele>0.0</ele><time>2026-05-02T06:57:08.998Z</time></trkpt><trkpt lat="39.82192640863358" lon="8.57704112177861"><ele>0.6666666666666666</ele><time>2026-05-02T06:57:09.998Z</time></trkpt><trkpt lat="39.82211161230319" lon="8.57708215723376"><ele>1.3333333333333333</ele><time>2026-05-02T06:57:10.998Z</time></trkpt><trkpt lat="39.82229911973259" lon="8.57708425276739"><ele>2.0</ele><time>2026-05-02T06:57:11.998Z</time></trkpt><trkpt lat="39.822487184090704" lon="8.577045251182545"><ele>1.6666666666666665</ele><time>2026-05-02T06:57:12.998Z</time></trkpt><trkpt lat="39.8226671554945" lon="8.57699936915025"><ele>1.3333333333333333</ele><time>2026-05-02T06:57:13.998Z</time></trkpt><trkpt lat="39.82284080371258" lon="8.576964480718942"><ele>1.0</ele><time>2026-05-02T06:57:14.998Z</time></trkpt><trkpt lat="39.823014682973984" lon="8.576935485882158"><ele>1.0</ele><time>2026-05-02T06:57:15.998Z</time></trkpt><trkpt lat="39.82318937548994" lon="8.576905564270778"><ele>1.0</ele><time>2026-05-02T06:57:16.998Z</time></trkpt><trkpt lat="39.82336200236324" lon="8.5768884086531"><ele>1.0</ele><time>2026-05-02T06:57:17.998Z</time></trkpt><trkpt lat="39.82353567362173" lon="8.576902557982667"><ele>1.0</ele><time>2026-05-02T06:57:18.998Z</time></trkpt><trkpt lat="39.82371018528564" lon="8.576940959195879"><ele>1.0</ele><time>2026-05-02T06:57:19.998Z</time></trkpt><trkpt lat="39.82388357090327" lon="8.57699871130952"><ele>1.0</ele><time>2026-05-02T06:57:21Z</time></trkpt><trkpt lat="39.82405304683645" lon="8.577062496918867"><ele>0.6666666666666666</ele><time>2026-05-02T06:57:22Z</time></trkpt><trkpt lat="39.82421255953216" lon="8.577121951353258"><ele>0.3333333333333333</ele><time>2026-05-02T06:57:23Z</time></trkpt><trkpt lat="39.82436152001079" lon="8.577177949970126"><ele>0.0</ele><time>2026-05-02T06:57:24Z</time></trkpt><trkpt lat="39.82449437007418" lon="8.577231236461992"><ele>0.8</ele><time>2026-05-02T06:57:25Z</time></trkpt><trkpt lat="39.82460394899111" lon="8.577276887924949"><ele>1.6</ele><time>2026-05-02T06:57:26Z</time></trkpt><trkpt lat="39.82469206740058" lon="8.577309845064386"><ele>2.4000000000000004</ele><time>2026-05-02T06:57:27Z</time></trkpt><trkpt lat="39.82476083701533" lon="8.577342565338983"><ele>3.2</ele><time>2026-05-02T06:57:28Z</time></trkpt><trkpt lat="39.82485131993168" lon="8.57722565417109"><ele>4.0</ele><time>2026-05-02T06:57:32Z</time></trkpt><trkpt lat="39.824845904341906" lon="8.577325307840177"><ele>4.0</ele><time>2026-05-02T06:57:41.999Z</time></trkpt><trkpt lat="39.82489419956079" lon="8.577466489258471"><ele>4.0</ele><time>2026-05-02T06:57:44.999Z</time></trkpt><trkpt lat="39.82497356960189" lon="8.577519677574692"><ele>4.0</ele><time>2026-05-02T06:57:45.999Z</time></trkpt><trkpt lat="39.8250631543175" lon="8.577579844980264"><ele>4.0</ele><time>2026-05-02T06:57:46.999Z</time></trkpt><trkpt lat="39.82516115911096" lon="8.57766812687085"><ele>4.0</ele><time>2026-05-02T06:57:47.999Z</time></trkpt><trkpt lat="39.825259410882445" lon="8.57777483149218"><ele>4.333333333333333</ele><time>2026-05-02T06:57:48.999Z</time></trkpt><trkpt lat="39.82537022018061" lon="8.577898445395723"><ele>4.666666666666667</ele><time>2026-05-02T06:57:49.999Z</time></trkpt><trkpt lat="39.82548335415224" lon="8.57802514497663"><ele>5.0</ele><time>2026-05-02T06:57:50.999Z</time></trkpt><trkpt lat="39.8256018861397" lon="8.578156228822749"><ele>5.0</ele><time>2026-05-02T06:57:51.999Z</time></trkpt><trkpt lat="39.825726565843084" lon="8.578290884553285"><ele>5.0</ele><time>2026-05-02T06:57:52.999Z</time></trkpt><trkpt lat="39.825855857375046" lon="8.578426822245751"><ele>5.0</ele><time>2026-05-02T06:57:53.999Z</time></trkpt><trkpt lat="39.82598404453453" lon="8.578562628425447"><ele>6.0</ele><time>2026-05-02T06:57:54.999Z</time></trkpt><trkpt lat="39.82611791457603" lon="8.578706572219282"><ele>7.0</ele><time>2026-05-02T06:57:55.999Z</time></trkpt><trkpt lat="39.82625265141809" lon="8.578846618029289"><ele>8.0</ele><time>2026-05-02T06:57:56.999Z</time></trkpt><trkpt lat="39.826391524940945" lon="8.578987117858333"><ele>8.0</ele><time>2026-05-02T06:57:57.999Z</time></trkpt><trkpt lat="39.826531116137325" lon="8.579123912771777"><ele>8.0</ele><time>2026-05-02T06:57:58.999Z</time></trkpt><trkpt lat="39.826678030077865" lon="8.579245401239499"><ele>8.0</ele><time>2026-05-02T06:57:59.999Z</time></trkpt><trkpt lat="39.82684399266352" lon="8.579349991553697"><ele>7.666666666666666</ele><time>2026-05-02T06:58:00.999Z</time></trkpt><trkpt lat="39.82701252648356" lon="8.57943733121345"><ele>7.333333333333334</ele><time>2026-05-02T06:58:01.999Z</time></trkpt><trkpt lat="39.82718184366308" lon="8.5795237981856"><ele>7.0</ele><time>2026-05-02T06:58:02.999Z</time></trkpt><trkpt lat="39.827348230193536" lon="8.579614418471117"><ele>7.0</ele><time>2026-05-02T06:58:03.999Z</time></trkpt><trkpt lat="39.82751507765198" lon="8.579707063240832"><ele>7.0</ele><time>2026-05-02T06:58:04.999Z</time></trkpt><trkpt lat="39.82768173920808" lon="8.579795837158864"><ele>7.0</ele><time>2026-05-02T06:58:05.999Z</time></trkpt><trkpt lat="39.82784747603657" lon="8.579884771434356"><ele>7.333333333333334</ele><time>2026-05-02T06:58:06.999Z</time></trkpt><trkpt lat="39.82801312501935" lon="8.579974879926118"><ele>7.666666666666666</ele><time>2026-05-02T06:58:07.999Z</time></trkpt><trkpt lat="39.82817535520231" lon="8.580064565106401"><ele>8.0</ele><time>2026-05-02T06:58:08.999Z</time></trkpt><trkpt lat="39.82833789994816" lon="8.58015495767115"><ele>8.333333333333332</ele><time>2026-05-02T06:58:09.999Z</time></trkpt><trkpt lat="39.828498595139116" lon="8.580244321371115"><ele>8.666666666666666</ele><time>2026-05-02T06:58:10.999Z</time></trkpt><trkpt lat="39.828659058942876" lon="8.580331673113543"><ele>9.0</ele><time>2026-05-02T06:58:11.999Z</time></trkpt><trkpt lat="39.82882174224009" lon="8.580420031921093"><ele>9.0</ele><time>2026-05-02T06:58:12.999Z</time></trkpt><trkpt lat="39.82898464070653" lon="8.580509882939507"><ele>9.0</ele><time>2026-05-02T06:58:13.999Z</time></trkpt><trkpt lat="39.82914860564863" lon="8.580599573874034"><ele>9.0</ele><time>2026-05-02T06:58:14.999Z</time></trkpt><trkpt lat="39.8293127314457" lon="8.58068838255364"><ele>8.333333333333334</ele><time>2026-05-02T06:58:15.999Z</time></trkpt><trkpt lat="39.829477658940306" lon="8.580778319219998"><ele>7.666666666666667</ele><time>2026-05-02T06:58:16.999Z</time></trkpt><trkpt lat="39.82964346123895" lon="8.580870321656063"><ele>7.0</ele><time>2026-05-02T06:58:17.999Z</time></trkpt><trkpt lat="39.82980871269691" lon="8.580961724037184"><ele>7.0</ele><time>2026-05-02T06:58:18.999Z</time></trkpt><trkpt lat="39.82997464337297" lon="8.58105153458838"><ele>7.0</ele><time>2026-05-02T06:58:19.999Z</time></trkpt><trkpt lat="39.83013930243703" lon="8.581142594017132"><ele>7.0</ele><time>2026-05-02T06:58:20.999Z</time></trkpt><trkpt lat="39.83030340817164" lon="8.58123478023403"><ele>6.666666666666667</ele><time>2026-05-02T06:58:21.999Z</time></trkpt><trkpt lat="39.830467697532015" lon="8.58132614995691"><ele>6.333333333333334</ele><time>2026-05-02T06:58:22.999Z</time></trkpt><trkpt lat="39.830631142289946" lon="8.581416183717971"><ele>6.0</ele><time>2026-05-02T06:58:23.999Z</time></trkpt><trkpt lat="39.83079531954518" lon="8.581506488273021"><ele>6.0</ele><time>2026-05-02T06:58:24.999Z</time></trkpt><trkpt lat="39.830958730001925" lon="8.581596308121282"><ele>6.0</ele><time>2026-05-02T06:58:25.999Z</time></trkpt><trkpt lat="39.83112304696635" lon="8.581687055529088"><ele>6.0</ele><time>2026-05-02T06:58:26.999Z</time></trkpt><trkpt lat="39.831288415151924" lon="8.581778883720528"><ele>6.0</ele><time>2026-05-02T06:58:27.999Z</time></trkpt><trkpt lat="39.831453822158466" lon="8.581870460391482"><ele>6.0</ele><time>2026-05-02T06:58:28.999Z</time></trkpt><trkpt lat="39.831620279425756" lon="8.581960073096601"><ele>6.0</ele><time>2026-05-02T06:58:29.999Z</time></trkpt><trkpt lat="39.831788065956616" lon="8.582049428251945"><ele>5.666666666666667</ele><time>2026-05-02T06:58:30.999Z</time></trkpt><trkpt lat="39.831954022137666" lon="8.582139721521418"><ele>5.333333333333334</ele><time>2026-05-02T06:58:31.999Z</time></trkpt><trkpt lat="39.832120803432275" lon="8.582234399976581"><ele>5.0</ele><time>2026-05-02T06:58:32.999Z</time></trkpt><trkpt lat="39.8322883002853" lon="8.582328836042507"><ele>5.0</ele><time>2026-05-02T06:58:33.999Z</time></trkpt><trkpt lat="39.83245615512578" lon="8.582423191749857"><ele>5.0</ele><time>2026-05-02T06:58:34.999Z</time></trkpt><trkpt lat="39.83262297849775" lon="8.582515664789414"><ele>5.0</ele><time>2026-05-02T06:58:35.999Z</time></trkpt><trkpt lat="39.83278973700083" lon="8.582607758567365"><ele>4.666666666666667</ele><time>2026-05-02T06:58:36.999Z</time></trkpt><trkpt lat="39.83295718074703" lon="8.58269830844314"><ele>4.333333333333333</ele><time>2026-05-02T06:58:37.999Z</time></trkpt><trkpt lat="39.83312394786379" lon="8.582790907446876"><ele>4.0</ele><time>2026-05-02T06:58:38.999Z</time></trkpt><trkpt lat="39.833292111546015" lon="8.58288345418694"><ele>3.6666666666666665</ele><time>2026-05-02T06:58:39.998Z</time></trkpt><trkpt lat="39.833458418376715" lon="8.582977520683102"><ele>3.333333333333333</ele><time>2026-05-02T06:58:40.998Z</time></trkpt><trkpt lat="39.83362485832141" lon="8.583070249047951"><ele>3.0</ele><time>2026-05-02T06:58:41.998Z</time></trkpt><trkpt lat="39.833791878573585" lon="8.58316363621012"><ele>3.666666666666667</ele><time>2026-05-02T06:58:42.998Z</time></trkpt><trkpt lat="39.83395925745156" lon="8.583254769213283"><ele>4.333333333333334</ele><time>2026-05-02T06:58:43.998Z</time></trkpt><trkpt lat="39.834126596976745" lon="8.58334599013383"><ele>5.0</ele><time>2026-05-02T06:58:44.998Z</time></trkpt><trkpt lat="39.8342933839781" lon="8.583438623408416"><ele>5.0</ele><time>2026-05-02T06:58:45.998Z</time></trkpt><trkpt lat="39.83445976311457" lon="8.583530577080012"><ele>5.0</ele><time>2026-05-02T06:58:46.998Z</time></trkpt><trkpt lat="39.834626231681" lon="8.583620291488517"><ele>5.0</ele><time>2026-05-02T06:58:47.998Z</time></trkpt><trkpt lat="39.834793051435454" lon="8.583710843849518"><ele>5.0</ele><time>2026-05-02T06:58:48.998Z</time></trkpt><trkpt lat="39.83495964999533" lon="8.583800964000739"><ele>5.0</ele><time>2026-05-02T06:58:49.998Z</time></trkpt><trkpt lat="39.83512587378014" lon="8.583890782524602"><ele>5.0</ele><time>2026-05-02T06:58:50.998Z</time></trkpt><trkpt lat="39.83529067470721" lon="8.583982251561766"><ele>5.333333333333334</ele><time>2026-05-02T06:58:51.998Z</time></trkpt><trkpt lat="39.835453720980105" lon="8.584073679222438"><ele>5.666666666666667</ele><time>2026-05-02T06:58:52.998Z</time></trkpt><trkpt lat="39.83561633889763" lon="8.584164870607854"><ele>6.0</ele><time>2026-05-02T06:58:53.998Z</time></trkpt><trkpt lat="39.835777529632864" lon="8.58425266405861"><ele>6.0</ele><time>2026-05-02T06:58:54.998Z</time></trkpt><trkpt lat="39.83594208031626" lon="8.584340399629363"><ele>6.0</ele><time>2026-05-02T06:58:55.998Z</time></trkpt><trkpt lat="39.83610654819878" lon="8.584427675305598"><ele>6.0</ele><time>2026-05-02T06:58:56.998Z</time></trkpt><trkpt lat="39.83627113580772" lon="8.584515577679399"><ele>7.0</ele><time>2026-05-02T06:58:57.998Z</time></trkpt><trkpt lat="39.83643679915579" lon="8.5845986137082"><ele>8.0</ele><time>2026-05-02T06:58:58.998Z</time></trkpt><trkpt lat="39.83660369197041" lon="8.584676645185754"><ele>9.0</ele><time>2026-05-02T06:58:59.998Z</time></trkpt><trkpt lat="39.83677160459614" lon="8.58475382762088"><ele>7.333333333333333</ele><time>2026-05-02T06:59:00.998Z</time></trkpt><trkpt lat="39.836940408427495" lon="8.584831397529525"><ele>5.666666666666666</ele><time>2026-05-02T06:59:01.998Z</time></trkpt><trkpt lat="39.83710888852873" lon="8.584909117881578"><ele>4.0</ele><time>2026-05-02T06:59:02.998Z</time></trkpt><trkpt lat="39.83727724244049" lon="8.584985540706322"><ele>4.0</ele><time>2026-05-02T06:59:03.998Z</time></trkpt><trkpt lat="39.83744668882695" lon="8.585061195844608"><ele>4.0</ele><time>2026-05-02T06:59:04.998Z</time></trkpt><trkpt lat="39.837618162711614" lon="8.585135006977813"><ele>4.0</ele><time>2026-05-02T06:59:05.998Z</time></trkpt><trkpt lat="39.837789324743795" lon="8.58521091844283"><ele>3.6666666666666665</ele><time>2026-05-02T06:59:06.998Z</time></trkpt><trkpt lat="39.8379602320086" lon="8.585289086774573"><ele>3.333333333333333</ele><time>2026-05-02T06:59:07.998Z</time></trkpt><trkpt lat="39.83813070213909" lon="8.585366594440579"><ele>3.0</ele><time>2026-05-02T06:59:08.998Z</time></trkpt><trkpt lat="39.83830044896986" lon="8.585445439578999"><ele>3.333333333333333</ele><time>2026-05-02T06:59:09.998Z</time></trkpt><trkpt lat="39.8384700530993" lon="8.585524272301187"><ele>3.6666666666666665</ele><time>2026-05-02T06:59:10.998Z</time></trkpt><trkpt lat="39.83863964609743" lon="8.585602273823854"><ele>4.0</ele><time>2026-05-02T06:59:11.998Z</time></trkpt><trkpt lat="39.83880899589976" lon="8.585679000896592"><ele>4.0</ele><time>2026-05-02T06:59:12.998Z</time></trkpt><trkpt lat="39.8389772741661" lon="8.585755562144893"><ele>4.0</ele><time>2026-05-02T06:59:13.998Z</time></trkpt><trkpt lat="39.83914518858084" lon="8.585830804361457"><ele>4.0</ele><time>2026-05-02T06:59:14.998Z</time></trkpt><trkpt lat="39.83931262611653" lon="8.585906266376565"><ele>3.6666666666666665</ele><time>2026-05-02T06:59:15.998Z</time></trkpt><trkpt lat="39.839479928547036" lon="8.58598211448985"><ele>3.333333333333333</ele><time>2026-05-02T06:59:16.998Z</time></trkpt><trkpt lat="39.83964543536967" lon="8.586056847851712"><ele>3.0</ele><time>2026-05-02T06:59:17.998Z</time></trkpt><trkpt lat="39.839812056078166" lon="8.586130921756647"><ele>3.666666666666667</ele><time>2026-05-02T06:59:18.998Z</time></trkpt><trkpt lat="39.839978207918264" lon="8.586203931500833"><ele>4.333333333333334</ele><time>2026-05-02T06:59:19.998Z</time></trkpt><trkpt lat="39.840144379936355" lon="8.586279054412707"><ele>5.0</ele><time>2026-05-02T06:59:20.998Z</time></trkpt><trkpt lat="39.84031050316243" lon="8.586356584579763"><ele>5.333333333333334</ele><time>2026-05-02T06:59:21.998Z</time></trkpt><trkpt lat="39.84047708773486" lon="8.586434324356683"><ele>5.666666666666667</ele><time>2026-05-02T06:59:22.998Z</time></trkpt><trkpt lat="39.84064389829958" lon="8.586512064982298"><ele>6.0</ele><time>2026-05-02T06:59:23.998Z</time></trkpt><trkpt lat="39.84081219422369" lon="8.586588338015492"><ele>6.0</ele><time>2026-05-02T06:59:24.998Z</time></trkpt><trkpt lat="39.84098137052344" lon="8.586664427638773"><ele>6.0</ele><time>2026-05-02T06:59:25.998Z</time></trkpt><trkpt lat="39.841150003801985" lon="8.586740562957722"><ele>6.0</ele><time>2026-05-02T06:59:27Z</time></trkpt><trkpt lat="39.84131894161029" lon="8.586814541637683"><ele>6.0</ele><time>2026-05-02T06:59:28.001Z</time></trkpt><trkpt lat="39.84148750218051" lon="8.586887145497249"><ele>6.0</ele><time>2026-05-02T06:59:29.001Z</time></trkpt><trkpt lat="39.84165659163007" lon="8.586961155922294"><ele>6.0</ele><time>2026-05-02T06:59:30.001Z</time></trkpt><trkpt lat="39.841825187417186" lon="8.58703810730901"><ele>5.666666666666667</ele><time>2026-05-02T06:59:31.001Z</time></trkpt><trkpt lat="39.84199332260284" lon="8.58711643886812"><ele>5.333333333333334</ele><time>2026-05-02T06:59:32.001Z</time></trkpt><trkpt lat="39.84216050105695" lon="8.587193885880357"><ele>5.0</ele><time>2026-05-02T06:59:33.001Z</time></trkpt><trkpt lat="39.84232808502489" lon="8.587269929523083"><ele>5.0</ele><time>2026-05-02T06:59:34.001Z</time></trkpt><trkpt lat="39.84249477787778" lon="8.587346753526539"><ele>5.0</ele><time>2026-05-02T06:59:35.001Z</time></trkpt><trkpt lat="39.842662170378915" lon="8.587424050552514"><ele>5.0</ele><time>2026-05-02T06:59:36.001Z</time></trkpt><trkpt lat="39.842829249337846" lon="8.58750095692243"><ele>4.0</ele><time>2026-05-02T06:59:37.001Z</time></trkpt><trkpt lat="39.84299641325062" lon="8.587579068387967"><ele>3.0</ele><time>2026-05-02T06:59:38.001Z</time></trkpt><trkpt lat="39.84316104423728" lon="8.58765702943399"><ele>2.0</ele><time>2026-05-02T06:59:39.001Z</time></trkpt><trkpt lat="39.84332552526612" lon="8.587732296690309"><ele>1.6666666666666665</ele><time>2026-05-02T06:59:40.001Z</time></trkpt><trkpt lat="39.84349013563806" lon="8.587806999575616"><ele>1.3333333333333333</ele><time>2026-05-02T06:59:41.001Z</time></trkpt><trkpt lat="39.843654759811955" lon="8.587879528704736"><ele>1.0</ele><time>2026-05-02T06:59:42Z</time></trkpt><trkpt lat="39.843817502360224" lon="8.58795010160598"><ele>1.6666666666666665</ele><time>2026-05-02T06:59:43Z</time></trkpt><trkpt lat="39.843979900638985" lon="8.588021384762127"><ele>2.3333333333333335</ele><time>2026-05-02T06:59:44Z</time></trkpt><trkpt lat="39.84414286599411" lon="8.588091310590872"><ele>3.0</ele><time>2026-05-02T06:59:45Z</time></trkpt><trkpt lat="39.844305688262345" lon="8.588159576923669"><ele>3.0</ele><time>2026-05-02T06:59:46Z</time></trkpt><trkpt lat="39.84447008711532" lon="8.58823130315872"><ele>3.0</ele><time>2026-05-02T06:59:47Z</time></trkpt><trkpt lat="39.844636143886945" lon="8.588305008054695"><ele>3.0</ele><time>2026-05-02T06:59:48Z</time></trkpt><trkpt lat="39.84480251728878" lon="8.5883777191145"><ele>3.0</ele><time>2026-05-02T06:59:49Z</time></trkpt><trkpt lat="39.84496859607947" lon="8.588452542856583"><ele>3.0</ele><time>2026-05-02T06:59:50Z</time></trkpt><trkpt lat="39.845132919710124" lon="8.58853161084375"><ele>3.0</ele><time>2026-05-02T06:59:51Z</time></trkpt><trkpt lat="39.84529216754976" lon="8.588618582798672"><ele>3.333333333333333</ele><time>2026-05-02T06:59:52Z</time></trkpt><trkpt lat="39.84544395024729" lon="8.588719533912597"><ele>3.6666666666666665</ele><time>2026-05-02T06:59:53Z</time></trkpt><trkpt lat="39.84558725820625" lon="8.588831643987474"><ele>4.0</ele><time>2026-05-02T06:59:54Z</time></trkpt><trkpt lat="39.84572564967667" lon="8.58894602446548"><ele>4.0</ele><time>2026-05-02T06:59:55Z</time></trkpt><trkpt lat="39.84586448473741" lon="8.589060874710785"><ele>4.0</ele><time>2026-05-02T06:59:56Z</time></trkpt><trkpt lat="39.84599959076933" lon="8.5891734736484"><ele>4.0</ele><time>2026-05-02T06:59:57Z</time></trkpt><trkpt lat="39.84611703587744" lon="8.589300009797453"><ele>4.0</ele><time>2026-05-02T06:59:58Z</time></trkpt><trkpt lat="39.84623523929922" lon="8.589402455470278"><ele>4.0</ele><time>2026-05-02T06:59:59Z</time></trkpt><trkpt lat="39.84634529497161" lon="8.589497478215021"><ele>4.0</ele><time>2026-05-02T07:00:00Z</time></trkpt><trkpt lat="39.84644488644021" lon="8.58958346541835"><ele>4.0</ele><time>2026-05-02T07:00:01Z</time></trkpt><trkpt lat="39.84652847969183" lon="8.589655640168726"><ele>4.0</ele><time>2026-05-02T07:00:02Z</time></trkpt><trkpt lat="39.846597504030406" lon="8.589715237639872"><ele>4.0</ele><time>2026-05-02T07:00:03Z</time></trkpt><trkpt lat="39.846710355758866" lon="8.589634361484793"><ele>4.0</ele><time>2026-05-02T07:00:04Z</time></trkpt><trkpt lat="39.84678458977323" lon="8.589560389078114"><ele>4.0</ele><time>2026-05-02T07:00:05Z</time></trkpt><trkpt lat="39.84685818416662" lon="8.589443653194483"><ele>4.0</ele><time>2026-05-02T07:00:06Z</time></trkpt><trkpt lat="39.846932308140765" lon="8.589301727937167"><ele>3.75</ele><time>2026-05-02T07:00:07Z</time></trkpt><trkpt lat="39.84701526441193" lon="8.589143165442879"><ele>3.5</ele><time>2026-05-02T07:00:08Z</time></trkpt><trkpt lat="39.847072917449005" lon="8.588970737268971"><ele>3.25</ele><time>2026-05-02T07:00:09Z</time></trkpt><trkpt lat="39.847128270873405" lon="8.588781035052733"><ele>3.0</ele><time>2026-05-02T07:00:10Z</time></trkpt><trkpt lat="39.84727629403757" lon="8.588623376986167"><ele>3.666666666666667</ele><time>2026-05-02T07:00:11Z</time></trkpt><trkpt lat="39.84737027085619" lon="8.58843332952457"><ele>4.333333333333334</ele><time>2026-05-02T07:00:12Z</time></trkpt><trkpt lat="39.84746390435982" lon="8.58824334949652"><ele>5.0</ele><time>2026-05-02T07:00:13Z</time></trkpt><trkpt lat="39.84756393946612" lon="8.588043509545058"><ele>4.0</ele><time>2026-05-02T07:00:14Z</time></trkpt><trkpt lat="39.84766533850833" lon="8.587840476240336"><ele>3.0</ele><time>2026-05-02T07:00:15Z</time></trkpt><trkpt lat="39.847766867516334" lon="8.58763768530756"><ele>2.0</ele><time>2026-05-02T07:00:16Z</time></trkpt><trkpt lat="39.84786892262094" lon="8.587434059319293"><ele>2.0</ele><time>2026-05-02T07:00:17Z</time></trkpt><trkpt lat="39.8479707966689" lon="8.587230696681955"><ele>2.0</ele><time>2026-05-02T07:00:18Z</time></trkpt><trkpt lat="39.84807251487945" lon="8.587030040800375"><ele>2.0</ele><time>2026-05-02T07:00:19Z</time></trkpt><trkpt lat="39.84817579483611" lon="8.586829168378404"><ele>2.333333333333333</ele><time>2026-05-02T07:00:20Z</time></trkpt><trkpt lat="39.8482790509735" lon="8.586628079454762"><ele>2.6666666666666665</ele><time>2026-05-02T07:00:21Z</time></trkpt><trkpt lat="39.848379750725584" lon="8.586426317624676"><ele>3.0</ele><time>2026-05-02T07:00:22Z</time></trkpt><trkpt lat="39.848480017479396" lon="8.586224200340292"><ele>3.0</ele><time>2026-05-02T07:00:23Z</time></trkpt><trkpt lat="39.8485802877835" lon="8.586022799057703"><ele>3.0</ele><time>2026-05-02T07:00:24Z</time></trkpt><trkpt lat="39.848680910550925" lon="8.585822087990813"><ele>3.0</ele><time>2026-05-02T07:00:25Z</time></trkpt><trkpt lat="39.8487821186047" lon="8.585623195777899"><ele>3.0</ele><time>2026-05-02T07:00:26Z</time></trkpt><trkpt lat="39.84888239077581" lon="8.585424164512082"><ele>3.0</ele><time>2026-05-02T07:00:27Z</time></trkpt><trkpt lat="39.84898144159395" lon="8.585225584702004"><ele>3.0</ele><time>2026-05-02T07:00:28Z</time></trkpt><trkpt lat="39.84908043232482" lon="8.585027853563906"><ele>3.0</ele><time>2026-05-02T07:00:29Z</time></trkpt><trkpt lat="39.84917970980511" lon="8.58483131707909"><ele>3.0</ele><time>2026-05-02T07:00:30Z</time></trkpt><trkpt lat="39.84927851638712" lon="8.584634934264912"><ele>3.0</ele><time>2026-05-02T07:00:31Z</time></trkpt><trkpt lat="39.84937605523207" lon="8.58443719278745"><ele>3.0</ele><time>2026-05-02T07:00:32Z</time></trkpt><trkpt lat="39.84947520085456" lon="8.584239561823074"><ele>3.0</ele><time>2026-05-02T07:00:33Z</time></trkpt><trkpt lat="39.84957565981333" lon="8.584042652243296"><ele>3.0</ele><time>2026-05-02T07:00:34Z</time></trkpt><trkpt lat="39.84967422787966" lon="8.583844810463695"><ele>3.333333333333333</ele><time>2026-05-02T07:00:35Z</time></trkpt><trkpt lat="39.84977148804161" lon="8.583645761964886"><ele>3.6666666666666665</ele><time>2026-05-02T07:00:36Z</time></trkpt><trkpt lat="39.84986878165917" lon="8.583447424257283"><ele>4.0</ele><time>2026-05-02T07:00:37Z</time></trkpt><trkpt lat="39.84996648601918" lon="8.58325029803931"><ele>4.0</ele><time>2026-05-02T07:00:38Z</time></trkpt><trkpt lat="39.85006520343337" lon="8.583053290749504"><ele>4.0</ele><time>2026-05-02T07:00:39Z</time></trkpt><trkpt lat="39.850164495309244" lon="8.582856899341278"><ele>4.0</ele><time>2026-05-02T07:00:40Z</time></trkpt><trkpt lat="39.8502637189487" lon="8.582660176224888"><ele>3.6666666666666665</ele><time>2026-05-02T07:00:41Z</time></trkpt><trkpt lat="39.85036422735844" lon="8.582463735653443"><ele>3.333333333333333</ele><time>2026-05-02T07:00:42Z</time></trkpt><trkpt lat="39.850465255326846" lon="8.58226768659135"><ele>3.0</ele><time>2026-05-02T07:00:43Z</time></trkpt><trkpt lat="39.85056626676499" lon="8.582071524473797"><ele>2.3333333333333335</ele><time>2026-05-02T07:00:44Z</time></trkpt><trkpt lat="39.85066721406682" lon="8.581876869779238"><ele>1.6666666666666665</ele><time>2026-05-02T07:00:45Z</time></trkpt><trkpt lat="39.850772181402945" lon="8.581684835225616"><ele>1.0</ele><time>2026-05-02T07:00:45.999Z</time></trkpt><trkpt lat="39.85088187172325" lon="8.581498650925992"><ele>1.3333333333333333</ele><time>2026-05-02T07:00:46.999Z</time></trkpt><trkpt lat="39.8509964142232" lon="8.58131808308618"><ele>1.6666666666666665</ele><time>2026-05-02T07:00:47.999Z</time></trkpt><trkpt lat="39.85111542213734" lon="8.581142463274833"><ele>2.0</ele><time>2026-05-02T07:00:48.999Z</time></trkpt><trkpt lat="39.85123695648888" lon="8.580970156572018"><ele>2.0</ele><time>2026-05-02T07:00:49.999Z</time></trkpt><trkpt lat="39.85135952685228" lon="8.580799950502957"><ele>2.0</ele><time>2026-05-02T07:00:50.999Z</time></trkpt><trkpt lat="39.85148498354937" lon="8.580633601605166"><ele>2.0</ele><time>2026-05-02T07:00:51.999Z</time></trkpt><trkpt lat="39.85161477569606" lon="8.58047457629801"><ele>2.0</ele><time>2026-05-02T07:00:52.999Z</time></trkpt><trkpt lat="39.851749223216075" lon="8.580319219765896"><ele>2.0</ele><time>2026-05-02T07:00:53.999Z</time></trkpt><trkpt lat="39.85187664913222" lon="8.580162610310522"><ele>2.0</ele><time>2026-05-02T07:00:54.999Z</time></trkpt><trkpt lat="39.85199848271733" lon="8.579994097882368"><ele>3.0</ele><time>2026-05-02T07:00:55.999Z</time></trkpt><trkpt lat="39.85212047240791" lon="8.579839855987487"><ele>4.0</ele><time>2026-05-02T07:00:56.999Z</time></trkpt><trkpt lat="39.85224825030775" lon="8.579682947813797"><ele>5.0</ele><time>2026-05-02T07:00:57.999Z</time></trkpt><trkpt lat="39.852374215204456" lon="8.579529350881069"><ele>4.333333333333334</ele><time>2026-05-02T07:00:58.999Z</time></trkpt><trkpt lat="39.85250032633079" lon="8.579378079857152"><ele>3.666666666666667</ele><time>2026-05-02T07:00:59.999Z</time></trkpt><trkpt lat="39.85262618663039" lon="8.579224777494403"><ele>3.0</ele><time>2026-05-02T07:01:00.999Z</time></trkpt><trkpt lat="39.852750342444466" lon="8.579070434762814"><ele>3.0</ele><time>2026-05-02T07:01:01.999Z</time></trkpt><trkpt lat="39.85287376667359" lon="8.578916046078325"><ele>3.0</ele><time>2026-05-02T07:01:02.999Z</time></trkpt><trkpt lat="39.8529984489206" lon="8.578762030602563"><ele>3.0</ele><time>2026-05-02T07:01:03.999Z</time></trkpt><trkpt lat="39.853121609988506" lon="8.578609983617978"><ele>2.3333333333333335</ele><time>2026-05-02T07:01:04.999Z</time></trkpt><trkpt lat="39.85324276949601" lon="8.578459659343114"><ele>1.6666666666666665</ele><time>2026-05-02T07:01:05.999Z</time></trkpt><trkpt lat="39.85336277830768" lon="8.578316564783442"><ele>1.0</ele><time>2026-05-02T07:01:06.999Z</time></trkpt><trkpt lat="39.853479219919386" lon="8.57819785924368"><ele>1.75</ele><time>2026-05-02T07:01:07.999Z</time></trkpt><trkpt lat="39.85359730459758" lon="8.578092407906098"><ele>2.5</ele><time>2026-05-02T07:01:08.999Z</time></trkpt><trkpt lat="39.85371124620406" lon="8.578002271451828"><ele>3.25</ele><time>2026-05-02T07:01:09.999Z</time></trkpt><trkpt lat="39.85380415486158" lon="8.577895932420164"><ele>4.0</ele><time>2026-05-02T07:01:10.999Z</time></trkpt><trkpt lat="39.853882544022355" lon="8.577747984780656"><ele>4.0</ele><time>2026-05-02T07:01:11.999Z</time></trkpt><trkpt lat="39.85396550253332" lon="8.577585861018518"><ele>4.0</ele><time>2026-05-02T07:01:12.999Z</time></trkpt><trkpt lat="39.854049988549065" lon="8.57741640015386"><ele>4.0</ele><time>2026-05-02T07:01:13.999Z</time></trkpt><trkpt lat="39.854208900271416" lon="8.57729444972749"><ele>4.0</ele><time>2026-05-02T07:01:14.999Z</time></trkpt><trkpt lat="39.85433868662896" lon="8.577140408885878"><ele>4.0</ele><time>2026-05-02T07:01:15.999Z</time></trkpt><trkpt lat="39.85447179903023" lon="8.576975461243968"><ele>4.0</ele><time>2026-05-02T07:01:16.999Z</time></trkpt><trkpt lat="39.85460813466661" lon="8.576810175046084"><ele>4.333333333333333</ele><time>2026-05-02T07:01:17.999Z</time></trkpt><trkpt lat="39.854744214708596" lon="8.57664470754168"><ele>4.666666666666667</ele><time>2026-05-02T07:01:18.999Z</time></trkpt><trkpt lat="39.85488277603287" lon="8.576480188115681"><ele>5.0</ele><time>2026-05-02T07:01:19.999Z</time></trkpt><trkpt lat="39.85502037541609" lon="8.576318167332946"><ele>5.0</ele><time>2026-05-02T07:01:20.999Z</time></trkpt><trkpt lat="39.85515922979199" lon="8.57615658097975"><ele>5.0</ele><time>2026-05-02T07:01:21.999Z</time></trkpt><trkpt lat="39.85529636518172" lon="8.575998488174584"><ele>5.0</ele><time>2026-05-02T07:01:22.999Z</time></trkpt><trkpt lat="39.8554297576417" lon="8.575839973532895"><ele>5.0</ele><time>2026-05-02T07:01:23.999Z</time></trkpt><trkpt lat="39.85555912168165" lon="8.575679717647665"><ele>5.0</ele><time>2026-05-02T07:01:24.999Z</time></trkpt><trkpt lat="39.85568851876127" lon="8.575518459796099"><ele>5.0</ele><time>2026-05-02T07:01:25.999Z</time></trkpt><trkpt lat="39.855817590756104" lon="8.575357671724706"><ele>4.666666666666667</ele><time>2026-05-02T07:01:26.999Z</time></trkpt><trkpt lat="39.85594739939812" lon="8.575197687213203"><ele>4.333333333333333</ele><time>2026-05-02T07:01:27.999Z</time></trkpt><trkpt lat="39.85607718586208" lon="8.575039185771804"><ele>4.0</ele><time>2026-05-02T07:01:28.999Z</time></trkpt><trkpt lat="39.85620973455506" lon="8.574881448429764"><ele>3.6666666666666665</ele><time>2026-05-02T07:01:29.999Z</time></trkpt><trkpt lat="39.8563436227849" lon="8.57472543978584"><ele>3.333333333333333</ele><time>2026-05-02T07:01:30.999Z</time></trkpt><trkpt lat="39.85648065645039" lon="8.574574601894254"><ele>3.0</ele><time>2026-05-02T07:01:31.999Z</time></trkpt><trkpt lat="39.85662279841397" lon="8.574429815132394"><ele>3.0</ele><time>2026-05-02T07:01:33.001Z</time></trkpt><trkpt lat="39.8567688565573" lon="8.574295058573803"><ele>3.0</ele><time>2026-05-02T07:01:34.001Z</time></trkpt><trkpt lat="39.85692245138294" lon="8.574172670590395"><ele>3.0</ele><time>2026-05-02T07:01:35.001Z</time></trkpt><trkpt lat="39.85708391318604" lon="8.574064702502119"><ele>3.666666666666667</ele><time>2026-05-02T07:01:36.001Z</time></trkpt><trkpt lat="39.857249714387464" lon="8.573971005345712"><ele>4.333333333333334</ele><time>2026-05-02T07:01:37.001Z</time></trkpt><trkpt lat="39.85741842552862" lon="8.573891108763421"><ele>5.0</ele><time>2026-05-02T07:01:38.001Z</time></trkpt><trkpt lat="39.85758957346363" lon="8.573822847678793"><ele>4.666666666666667</ele><time>2026-05-02T07:01:39.001Z</time></trkpt><trkpt lat="39.85776199114206" lon="8.573768400261446"><ele>4.333333333333333</ele><time>2026-05-02T07:01:40.001Z</time></trkpt><trkpt lat="39.857936513102445" lon="8.57372408327337"><ele>4.0</ele><time>2026-05-02T07:01:41.001Z</time></trkpt><trkpt lat="39.85811337745812" lon="8.57369661807584"><ele>3.6666666666666665</ele><time>2026-05-02T07:01:42.001Z</time></trkpt><trkpt lat="39.858293392337224" lon="8.573674367960692"><ele>3.333333333333333</ele><time>2026-05-02T07:01:43.001Z</time></trkpt><trkpt lat="39.85847362423951" lon="8.573651067227532"><ele>3.0</ele><time>2026-05-02T07:01:44.001Z</time></trkpt><trkpt lat="39.858654114394234" lon="8.573626426491606"><ele>2.6666666666666665</ele><time>2026-05-02T07:01:45.001Z</time></trkpt><trkpt lat="39.85883559198552" lon="8.57360314071618"><ele>2.333333333333333</ele><time>2026-05-02T07:01:46.001Z</time></trkpt><trkpt lat="39.859015623702525" lon="8.573578917569728"><ele>2.0</ele><time>2026-05-02T07:01:47.001Z</time></trkpt><trkpt lat="39.859196447621535" lon="8.573554071230278"><ele>2.6666666666666665</ele><time>2026-05-02T07:01:48Z</time></trkpt><trkpt lat="39.85937564075225" lon="8.573528034718407"><ele>3.333333333333333</ele><time>2026-05-02T07:01:49Z</time></trkpt><trkpt lat="39.85955476441142" lon="8.573499064927974"><ele>4.0</ele><time>2026-05-02T07:01:50Z</time></trkpt><trkpt lat="39.85973309080469" lon="8.57346752092767"><ele>4.0</ele><time>2026-05-02T07:01:51Z</time></trkpt><trkpt lat="39.85991050133611" lon="8.57343425364715"><ele>4.0</ele><time>2026-05-02T07:01:52Z</time></trkpt><trkpt lat="39.86008818896877" lon="8.573403978955813"><ele>4.0</ele><time>2026-05-02T07:01:53Z</time></trkpt><trkpt lat="39.86026546428369" lon="8.573377948005323"><ele>4.0</ele><time>2026-05-02T07:01:54Z</time></trkpt><trkpt lat="39.860442243387254" lon="8.573352590786222"><ele>4.0</ele><time>2026-05-02T07:01:55Z</time></trkpt><trkpt lat="39.86061821750832" lon="8.573326211458728"><ele>4.0</ele><time>2026-05-02T07:01:56Z</time></trkpt><trkpt lat="39.86079565367872" lon="8.573298469239768"><ele>4.0</ele><time>2026-05-02T07:01:57Z</time></trkpt><trkpt lat="39.860972411766504" lon="8.573272276779653"><ele>4.0</ele><time>2026-05-02T07:01:58Z</time></trkpt><trkpt lat="39.861148546573304" lon="8.573247902909065"><ele>4.0</ele><time>2026-05-02T07:01:59Z</time></trkpt><trkpt lat="39.861321791608724" lon="8.573223377473795"><ele>4.0</ele><time>2026-05-02T07:02:00Z</time></trkpt><trkpt lat="39.86149473727152" lon="8.573200335661555"><ele>4.0</ele><time>2026-05-02T07:02:01Z</time></trkpt><trkpt lat="39.86166730145005" lon="8.573177415310097"><ele>4.0</ele><time>2026-05-02T07:02:02Z</time></trkpt><trkpt lat="39.86183625016256" lon="8.573152284649916"><ele>4.333333333333333</ele><time>2026-05-02T07:02:03Z</time></trkpt><trkpt lat="39.862004623209245" lon="8.573128154866101"><ele>4.666666666666667</ele><time>2026-05-02T07:02:04Z</time></trkpt><trkpt lat="39.86217034867587" lon="8.573103573416622"><ele>5.0</ele><time>2026-05-02T07:02:05Z</time></trkpt><trkpt lat="39.86233609361369" lon="8.573080381466387"><ele>5.0</ele><time>2026-05-02T07:02:06Z</time></trkpt><trkpt lat="39.86250190866301" lon="8.573058549603736"><ele>5.0</ele><time>2026-05-02T07:02:07Z</time></trkpt><trkpt lat="39.86266988197187" lon="8.573038780045524"><ele>5.0</ele><time>2026-05-02T07:02:08Z</time></trkpt><trkpt lat="39.86283772931106" lon="8.573017768373942"><ele>5.0</ele><time>2026-05-02T07:02:09Z</time></trkpt><trkpt lat="39.863006790354106" lon="8.572995469555357"><ele>5.0</ele><time>2026-05-02T07:02:10Z</time></trkpt><trkpt lat="39.863176948046785" lon="8.572971361086775"><ele>5.0</ele><time>2026-05-02T07:02:11Z</time></trkpt><trkpt lat="39.863346705745826" lon="8.57294803042051"><ele>4.333333333333334</ele><time>2026-05-02T07:02:12Z</time></trkpt><trkpt lat="39.863519088856066" lon="8.572925412770571"><ele>3.666666666666667</ele><time>2026-05-02T07:02:13Z</time></trkpt><trkpt lat="39.863690495620304" lon="8.572900197106044"><ele>3.0</ele><time>2026-05-02T07:02:14Z</time></trkpt><trkpt lat="39.863863867210114" lon="8.57287556757799"><ele>3.0</ele><time>2026-05-02T07:02:15Z</time></trkpt><trkpt lat="39.864038313975186" lon="8.572852573392728"><ele>3.0</ele><time>2026-05-02T07:02:16Z</time></trkpt><trkpt lat="39.864211372392994" lon="8.572827068602047"><ele>3.0</ele><time>2026-05-02T07:02:17Z</time></trkpt><trkpt lat="39.864385762505954" lon="8.572802350253673"><ele>3.333333333333333</ele><time>2026-05-02T07:02:18Z</time></trkpt><trkpt lat="39.86456043859592" lon="8.57277684397504"><ele>3.6666666666666665</ele><time>2026-05-02T07:02:19Z</time></trkpt><trkpt lat="39.864733229642155" lon="8.572738473132253"><ele>4.0</ele><time>2026-05-02T07:02:20Z</time></trkpt><trkpt lat="39.86490438692551" lon="8.572684819986662"><ele>4.0</ele><time>2026-05-02T07:02:21Z</time></trkpt><trkpt lat="39.865070155069866" lon="8.572610547512154"><ele>4.0</ele><time>2026-05-02T07:02:22Z</time></trkpt><trkpt lat="39.865230215183026" lon="8.572519615171414"><ele>4.0</ele><time>2026-05-02T07:02:23Z</time></trkpt><trkpt lat="39.86538662508997" lon="8.572411520079294"><ele>4.0</ele><time>2026-05-02T07:02:24Z</time></trkpt><trkpt lat="39.865536656852534" lon="8.572286865683862"><ele>4.0</ele><time>2026-05-02T07:02:25Z</time></trkpt><trkpt lat="39.86568132724503" lon="8.572150041386303"><ele>4.0</ele><time>2026-05-02T07:02:26Z</time></trkpt><trkpt lat="39.86581824819644" lon="8.571997691668757"><ele>3.6666666666666665</ele><time>2026-05-02T07:02:27Z</time></trkpt><trkpt lat="39.86594781256691" lon="8.571832833227703"><ele>3.333333333333333</ele><time>2026-05-02T07:02:28Z</time></trkpt><trkpt lat="39.866074023760355" lon="8.571661831192712"><ele>3.0</ele><time>2026-05-02T07:02:29Z</time></trkpt><trkpt lat="39.866200588196975" lon="8.571487597295878"><ele>3.0</ele><time>2026-05-02T07:02:30Z</time></trkpt><trkpt lat="39.866328147355674" lon="8.571313009986977"><ele>3.0</ele><time>2026-05-02T07:02:31Z</time></trkpt><trkpt lat="39.86645703507174" lon="8.571139870337422"><ele>3.0</ele><time>2026-05-02T07:02:32Z</time></trkpt><trkpt lat="39.86658796554444" lon="8.570969586058157"><ele>3.333333333333333</ele><time>2026-05-02T07:02:33Z</time></trkpt><trkpt lat="39.86671687359612" lon="8.570800448159352"><ele>3.6666666666666665</ele><time>2026-05-02T07:02:34Z</time></trkpt><trkpt lat="39.86684197672766" lon="8.570630399231119"><ele>4.0</ele><time>2026-05-02T07:02:35Z</time></trkpt><trkpt lat="39.86696740375692" lon="8.57046010081982"><ele>4.333333333333333</ele><time>2026-05-02T07:02:36Z</time></trkpt><trkpt lat="39.86709122689643" lon="8.570292966702496"><ele>4.666666666666667</ele><time>2026-05-02T07:02:37Z</time></trkpt><trkpt lat="39.86721408358576" lon="8.57012702605122"><ele>5.0</ele><time>2026-05-02T07:02:38Z</time></trkpt><trkpt lat="39.86733530748127" lon="8.569962148399963"><ele>5.0</ele><time>2026-05-02T07:02:39Z</time></trkpt><trkpt lat="39.8674589406694" lon="8.569800670599056"><ele>5.0</ele><time>2026-05-02T07:02:40Z</time></trkpt><trkpt lat="39.867589412926634" lon="8.569650726960646"><ele>5.0</ele><time>2026-05-02T07:02:41Z</time></trkpt><trkpt lat="39.86773149362986" lon="8.569525087752886"><ele>4.666666666666667</ele><time>2026-05-02T07:02:42Z</time></trkpt><trkpt lat="39.867883925552725" lon="8.569421072015704"><ele>4.333333333333333</ele><time>2026-05-02T07:02:43Z</time></trkpt><trkpt lat="39.8680428849517" lon="8.56933687199949"><ele>4.0</ele><time>2026-05-02T07:02:44Z</time></trkpt><trkpt lat="39.86820635210133" lon="8.569276027858065"><ele>4.0</ele><time>2026-05-02T07:02:45Z</time></trkpt><trkpt lat="39.86837292221752" lon="8.569230381358059"><ele>4.0</ele><time>2026-05-02T07:02:46Z</time></trkpt><trkpt lat="39.86854058416396" lon="8.569191579316406"><ele>4.0</ele><time>2026-05-02T07:02:47Z</time></trkpt><trkpt lat="39.86871004649036" lon="8.569159907104163"><ele>3.0</ele><time>2026-05-02T07:02:48Z</time></trkpt><trkpt lat="39.86888083920267" lon="8.569133172715764"><ele>2.0</ele><time>2026-05-02T07:02:49Z</time></trkpt><trkpt lat="39.8690532326674" lon="8.569108959115873"><ele>1.0</ele><time>2026-05-02T07:02:50Z</time></trkpt><trkpt lat="39.869226728142344" lon="8.569084916576095"><ele>1.0</ele><time>2026-05-02T07:02:50.999Z</time></trkpt><trkpt lat="39.86940021485661" lon="8.5690616046909"><ele>1.0</ele><time>2026-05-02T07:02:51.999Z</time></trkpt><trkpt lat="39.86957562442165" lon="8.569042739376334"><ele>1.0</ele><time>2026-05-02T07:02:52.999Z</time></trkpt><trkpt lat="39.86975197547557" lon="8.569027993205946"><ele>1.0</ele><time>2026-05-02T07:02:53.999Z</time></trkpt><trkpt lat="39.869927888475125" lon="8.569012054857978"><ele>1.0</ele><time>2026-05-02T07:02:54.999Z</time></trkpt><trkpt lat="39.87010439766652" lon="8.568997206280988"><ele>1.0</ele><time>2026-05-02T07:02:55.999Z</time></trkpt><trkpt lat="39.87028212558253" lon="8.56898013804125"><ele>1.6666666666666665</ele><time>2026-05-02T07:02:56.999Z</time></trkpt><trkpt lat="39.87046087600939" lon="8.568961810926666"><ele>2.3333333333333335</ele><time>2026-05-02T07:02:57.999Z</time></trkpt><trkpt lat="39.8706392836944" lon="8.568942934407916"><ele>3.0</ele><time>2026-05-02T07:02:58.999Z</time></trkpt><trkpt lat="39.87081708507383" lon="8.568924964806289"><ele>2.6666666666666665</ele><time>2026-05-02T07:02:59.999Z</time></trkpt><trkpt lat="39.8709941312313" lon="8.568906375102802"><ele>2.333333333333333</ele><time>2026-05-02T07:03:00.999Z</time></trkpt><trkpt lat="39.87117147000425" lon="8.568887478691003"><ele>2.0</ele><time>2026-05-02T07:03:01.999Z</time></trkpt><trkpt lat="39.8713486793318" lon="8.568868764136331"><ele>2.0</ele><time>2026-05-02T07:03:02.999Z</time></trkpt><trkpt lat="39.87152588660976" lon="8.568852116813561"><ele>2.0</ele><time>2026-05-02T07:03:03.999Z</time></trkpt><trkpt lat="39.8717014609726" lon="8.568848248007516"><ele>2.0</ele><time>2026-05-02T07:03:04.999Z</time></trkpt><trkpt lat="39.87186780353906" lon="8.56886435599156"><ele>2.6666666666666665</ele><time>2026-05-02T07:03:05.999Z</time></trkpt><trkpt lat="39.87201985306775" lon="8.568917056901542"><ele>3.333333333333333</ele><time>2026-05-02T07:03:06.999Z</time></trkpt><trkpt lat="39.872172603643016" lon="8.568992635520344"><ele>4.0</ele><time>2026-05-02T07:03:07.999Z</time></trkpt><trkpt lat="39.87232059903074" lon="8.569092938200606"><ele>4.0</ele><time>2026-05-02T07:03:08.999Z</time></trkpt><trkpt lat="39.87246380615362" lon="8.569214247501257"><ele>4.0</ele><time>2026-05-02T07:03:09.999Z</time></trkpt><trkpt lat="39.8725902959872" lon="8.569359589021296"><ele>4.0</ele><time>2026-05-02T07:03:10.999Z</time></trkpt><trkpt lat="39.87270257488745" lon="8.569531853932581"><ele>3.6666666666666665</ele><time>2026-05-02T07:03:11.999Z</time></trkpt><trkpt lat="39.87281602144064" lon="8.5697091216828"><ele>3.333333333333333</ele><time>2026-05-02T07:03:12.999Z</time></trkpt><trkpt lat="39.87293458991185" lon="8.5698810187564"><ele>3.0</ele><time>2026-05-02T07:03:13.999Z</time></trkpt><trkpt lat="39.87305315700423" lon="8.570054278047829"><ele>3.0</ele><time>2026-05-02T07:03:14.999Z</time></trkpt><trkpt lat="39.873170713127706" lon="8.570229841557492"><ele>3.0</ele><time>2026-05-02T07:03:15.999Z</time></trkpt><trkpt lat="39.87328792725608" lon="8.570406472988148"><ele>3.0</ele><time>2026-05-02T07:03:16.999Z</time></trkpt><trkpt lat="39.87340628165992" lon="8.570583109584263"><ele>2.6666666666666665</ele><time>2026-05-02T07:03:17.999Z</time></trkpt><trkpt lat="39.873527075689005" lon="8.570759360006805"><ele>2.333333333333333</ele><time>2026-05-02T07:03:18.999Z</time></trkpt><trkpt lat="39.87364543707884" lon="8.570936231523568"><ele>2.0</ele><time>2026-05-02T07:03:19.999Z</time></trkpt><trkpt lat="39.87376114827739" lon="8.571115545205098"><ele>2.0</ele><time>2026-05-02T07:03:20.999Z</time></trkpt><trkpt lat="39.873879246076605" lon="8.571293354201602"><ele>2.0</ele><time>2026-05-02T07:03:21.999Z</time></trkpt><trkpt lat="39.87399902599184" lon="8.57147124317649"><ele>2.0</ele><time>2026-05-02T07:03:22.999Z</time></trkpt><trkpt lat="39.87412231281506" lon="8.571637165554998"><ele>2.0</ele><time>2026-05-02T07:03:23.999Z</time></trkpt><trkpt lat="39.87424553279551" lon="8.571807772559245"><ele>2.0</ele><time>2026-05-02T07:03:24.999Z</time></trkpt><trkpt lat="39.874359172724795" lon="8.571983412302712"><ele>2.0</ele><time>2026-05-02T07:03:25.999Z</time></trkpt><trkpt lat="39.87446989252529" lon="8.572162295971527"><ele>2.5</ele><time>2026-05-02T07:03:26.999Z</time></trkpt><trkpt lat="39.87458005247118" lon="8.572326653790551"><ele>3.0</ele><time>2026-05-02T07:03:27.999Z</time></trkpt><trkpt lat="39.87466596602933" lon="8.572450961852224"><ele>3.5</ele><time>2026-05-02T07:03:28.999Z</time></trkpt><trkpt lat="39.87471758845338" lon="8.572549911602588"><ele>4.0</ele><time>2026-05-02T07:03:29.999Z</time></trkpt><trkpt lat="39.874788363559574" lon="8.572662193047526"><ele>3.9999999999999996</ele><time>2026-05-02T07:03:31.999Z</time></trkpt><trkpt lat="39.87476463280986" lon="8.572581524560944"><ele>4.0</ele><time>2026-05-02T07:03:34.999Z</time></trkpt><trkpt lat="39.87474580722842" lon="8.572493742461813"><ele>4.0</ele><time>2026-05-02T07:03:36.999Z</time></trkpt><trkpt lat="39.874702704147545" lon="8.572427326270093"><ele>4.0</ele><time>2026-05-02T07:03:39.001Z</time></trkpt><trkpt lat="39.874626450811824" lon="8.572282792869844"><ele>3.9999999999999996</ele><time>2026-05-02T07:03:41.001Z</time></trkpt><trkpt lat="39.87455794124353" lon="8.57219067583258"><ele>4.0</ele><time>2026-05-02T07:03:42.001Z</time></trkpt><trkpt lat="39.8744796475614" lon="8.572091935105421"><ele>3.4000000000000004</ele><time>2026-05-02T07:03:43.001Z</time></trkpt><trkpt lat="39.87439427671991" lon="8.571987872743005"><ele>2.8000000000000003</ele><time>2026-05-02T07:03:44Z</time></trkpt><trkpt lat="39.874323659819595" lon="8.571892069113643"><ele>2.2</ele><time>2026-05-02T07:03:45.001Z</time></trkpt><trkpt lat="39.874283408259764" lon="8.571815285890564"><ele>1.6</ele><time>2026-05-02T07:03:46.001Z</time></trkpt><trkpt lat="39.874366985021105" lon="8.571760262563776"><ele>1.0</ele><time>2026-05-02T07:03:49Z</time></trkpt><trkpt lat="39.87448151332411" lon="8.571671745691892"><ele>1.0</ele><time>2026-05-02T07:03:51Z</time></trkpt><trkpt lat="39.87454823366421" lon="8.571631972192892"><ele>1.0</ele><time>2026-05-02T07:03:52Z</time></trkpt><trkpt lat="39.874662427056684" lon="8.571682838121928"><ele>1.0</ele><time>2026-05-02T07:03:54Z</time></trkpt><trkpt lat="39.874684783551686" lon="8.571771585207083"><ele>1.0</ele><time>2026-05-02T07:03:55Z</time></trkpt><trkpt lat="39.87473630228026" lon="8.571854161910514"><ele>1.0</ele><time>2026-05-02T07:03:56Z</time></trkpt><trkpt lat="39.87480888348306" lon="8.571958298501595"><ele>1.0</ele><time>2026-05-02T07:03:57Z</time></trkpt><trkpt lat="39.874893063856156" lon="8.572076447051977"><ele>1.0</ele><time>2026-05-02T07:03:58Z</time></trkpt><trkpt lat="39.87498975105923" lon="8.572210929055618"><ele>1.0</ele><time>2026-05-02T07:03:59Z</time></trkpt><trkpt lat="39.87508572452192" lon="8.572342796085747"><ele>1.0</ele><time>2026-05-02T07:04:00Z</time></trkpt><trkpt lat="39.875186998733895" lon="8.572479589192016"><ele>1.0</ele><time>2026-05-02T07:04:01Z</time></trkpt><trkpt lat="39.875290595153594" lon="8.572619517673438"><ele>1.0</ele><time>2026-05-02T07:04:02Z</time></trkpt><trkpt lat="39.875389587970936" lon="8.57275523185602"><ele>1.0</ele><time>2026-05-02T07:04:03Z</time></trkpt><trkpt lat="39.8754785025735" lon="8.57287873094727"><ele>1.0</ele><time>2026-05-02T07:04:04Z</time></trkpt><trkpt lat="39.87557916945148" lon="8.572960166534127"><ele>1.2000000000000002</ele><time>2026-05-02T07:04:05Z</time></trkpt><trkpt lat="39.875654211302745" lon="8.573069269115164"><ele>1.4000000000000001</ele><time>2026-05-02T07:04:06Z</time></trkpt><trkpt lat="39.87573405936075" lon="8.57317211698646"><ele>1.6</ele><time>2026-05-02T07:04:07Z</time></trkpt><trkpt lat="39.87581196303165" lon="8.573277661973213"><ele>1.8</ele><time>2026-05-02T07:04:08Z</time></trkpt><trkpt lat="39.87588673910446" lon="8.573366714708193"><ele>2.0</ele><time>2026-05-02T07:04:09Z</time></trkpt><trkpt lat="39.87595130818563" lon="8.57344700446617"><ele>1.9999999999999998</ele><time>2026-05-02T07:04:10Z</time></trkpt><trkpt lat="39.87600358196729" lon="8.573523645918788"><ele>2.0</ele><time>2026-05-02T07:04:11Z</time></trkpt><trkpt lat="39.87605027878875" lon="8.5735808509395"><ele>2.0</ele><time>2026-05-02T07:04:12Z</time></trkpt><trkpt lat="39.87615116310446" lon="8.573648395376313"><ele>2.0</ele><time>2026-05-02T07:04:14Z</time></trkpt><trkpt lat="39.8762352815873" lon="8.573556898247777"><ele>1.9999999999999998</ele><time>2026-05-02T07:04:16Z</time></trkpt><trkpt lat="39.87629797789425" lon="8.573522399519492"><ele>2.0</ele><time>2026-05-02T07:04:17Z</time></trkpt><trkpt lat="39.87635225480628" lon="8.573416708147757"><ele>2.0</ele><time>2026-05-02T07:04:18Z</time></trkpt><trkpt lat="39.87642656767997" lon="8.573302472893916"><ele>2.0</ele><time>2026-05-02T07:04:19Z</time></trkpt><trkpt lat="39.876514735786245" lon="8.573226782394102"><ele>2.0</ele><time>2026-05-02T07:04:20Z</time></trkpt><trkpt lat="39.87661435669536" lon="8.573158667370253"><ele>2.0</ele><time>2026-05-02T07:04:21Z</time></trkpt><trkpt lat="39.87671081115393" lon="8.573067455890929"><ele>1.8</ele><time>2026-05-02T07:04:22Z</time></trkpt><trkpt lat="39.876794441596225" lon="8.57298505714617"><ele>1.6</ele><time>2026-05-02T07:04:23Z</time></trkpt><trkpt lat="39.87687203192064" lon="8.57291481955351"><ele>1.4000000000000001</ele><time>2026-05-02T07:04:24Z</time></trkpt><trkpt lat="39.87695962908719" lon="8.572837722733494"><ele>1.2000000000000002</ele><time>2026-05-02T07:04:25Z</time></trkpt><trkpt lat="39.87705637022745" lon="8.572740693279073"><ele>1.0</ele><time>2026-05-02T07:04:26Z</time></trkpt><trkpt lat="39.87714202851483" lon="8.572642264772567"><ele>1.0</ele><time>2026-05-02T07:04:27Z</time></trkpt><trkpt lat="39.87723065427849" lon="8.57255189862056"><ele>1.0</ele><time>2026-05-02T07:04:28Z</time></trkpt><trkpt lat="39.877322367382334" lon="8.572456888385144"><ele>1.0</ele><time>2026-05-02T07:04:29Z</time></trkpt><trkpt lat="39.877414338153066" lon="8.572349692684085"><ele>1.0</ele><time>2026-05-02T07:04:30Z</time></trkpt><trkpt lat="39.877505639970074" lon="8.572246013561807"><ele>1.0</ele><time>2026-05-02T07:04:31Z</time></trkpt><trkpt lat="39.87758322697017" lon="8.572174954148423"><ele>1.0</ele><time>2026-05-02T07:04:32Z</time></trkpt><trkpt lat="39.8776721996336" lon="8.572102660592234"><ele>1.0</ele><time>2026-05-02T07:04:33Z</time></trkpt><trkpt lat="39.877772545321534" lon="8.572018363569192"><ele>1.0</ele><time>2026-05-02T07:04:34Z</time></trkpt><trkpt lat="39.877867938689704" lon="8.571909584316575"><ele>1.0</ele><time>2026-05-02T07:04:35Z</time></trkpt><trkpt lat="39.87796582915531" lon="8.571799724036062"><ele>1.25</ele><time>2026-05-02T07:04:36Z</time></trkpt><trkpt lat="39.87806597030676" lon="8.571703303560833"><ele>1.5</ele><time>2026-05-02T07:04:37Z</time></trkpt><trkpt lat="39.87816616397936" lon="8.571620236023275"><ele>1.75</ele><time>2026-05-02T07:04:38Z</time></trkpt><trkpt lat="39.8782631923502" lon="8.571526398118213"><ele>2.0</ele><time>2026-05-02T07:04:39Z</time></trkpt><trkpt lat="39.87835693579281" lon="8.571418127595393"><ele>2.0</ele><time>2026-05-02T07:04:40Z</time></trkpt><trkpt lat="39.87845709211645" lon="8.571315678631304"><ele>2.0</ele><time>2026-05-02T07:04:41Z</time></trkpt><trkpt lat="39.87855622215488" lon="8.571216643019511"><ele>2.0</ele><time>2026-05-02T07:04:42Z</time></trkpt><trkpt lat="39.87863682800687" lon="8.571117984757976"><ele>2.0</ele><time>2026-05-02T07:04:43Z</time></trkpt><trkpt lat="39.87872771509374" lon="8.571030075789585"><ele>1.8</ele><time>2026-05-02T07:04:44Z</time></trkpt><trkpt lat="39.87881678795403" lon="8.570946754106396"><ele>1.6</ele><time>2026-05-02T07:04:45Z</time></trkpt><trkpt lat="39.878891933724034" lon="8.570858089565418"><ele>1.4000000000000001</ele><time>2026-05-02T07:04:46Z</time></trkpt><trkpt lat="39.87897735399019" lon="8.570771880381702"><ele>1.2000000000000002</ele><time>2026-05-02T07:04:47Z</time></trkpt><trkpt lat="39.879058102302096" lon="8.57069885781373"><ele>1.0</ele><time>2026-05-02T07:04:48Z</time></trkpt><trkpt lat="39.879147110498494" lon="8.570617133638743"><ele>1.0</ele><time>2026-05-02T07:04:49Z</time></trkpt><trkpt lat="39.879237329900164" lon="8.570526570766955"><ele>1.0</ele><time>2026-05-02T07:04:50Z</time></trkpt><trkpt lat="39.879329645670296" lon="8.57043962692311"><ele>1.0</ele><time>2026-05-02T07:04:51Z</time></trkpt><trkpt lat="39.87943245633368" lon="8.570383458159121"><ele>1.0</ele><time>2026-05-02T07:04:52Z</time></trkpt><trkpt lat="39.87954415913705" lon="8.57035686756473"><ele>1.0</ele><time>2026-05-02T07:04:53Z</time></trkpt><trkpt lat="39.87966534642945" lon="8.570398425062407"><ele>1.0</ele><time>2026-05-02T07:04:53.999Z</time></trkpt><trkpt lat="39.87978966030063" lon="8.57040188391261"><ele>1.0</ele><time>2026-05-02T07:04:54.999Z</time></trkpt><trkpt lat="39.879919875501606" lon="8.570400095631745"><ele>1.0</ele><time>2026-05-02T07:04:55.999Z</time></trkpt><trkpt lat="39.88005425650922" lon="8.570412121280476"><ele>0.75</ele><time>2026-05-02T07:04:56.999Z</time></trkpt><trkpt lat="39.88019063027975" lon="8.570410939042388"><ele>0.5</ele><time>2026-05-02T07:04:57.999Z</time></trkpt><trkpt lat="39.88032893223036" lon="8.57043042473376"><ele>0.25</ele><time>2026-05-02T07:04:58.999Z</time></trkpt><trkpt lat="39.88045647809739" lon="8.570441078756133"><ele>0.0</ele><time>2026-05-02T07:04:59.999Z</time></trkpt><trkpt lat="39.880569653694394" lon="8.57045053240291"><ele>0.0</ele><time>2026-05-02T07:05:00.999Z</time></trkpt><trkpt lat="39.88067638133216" lon="8.57045950145166"><ele>0.0</ele><time>2026-05-02T07:05:01.999Z</time></trkpt><trkpt lat="39.88078500362344" lon="8.570467261345646"><ele>0.0</ele><time>2026-05-02T07:05:02.999Z</time></trkpt><trkpt lat="39.88087972001423" lon="8.570459158657203"><ele>0.0</ele><time>2026-05-02T07:05:03.999Z</time></trkpt><trkpt lat="39.88096082713664" lon="8.570477440609968"><ele>0.0</ele><time>2026-05-02T07:05:04.999Z</time></trkpt><trkpt lat="39.881069612361365" lon="8.570466385054504"><ele>0.0</ele><time>2026-05-02T07:05:06.999Z</time></trkpt><trkpt lat="39.881110526366875" lon="8.570337043180604"><ele>0.0</ele><time>2026-05-02T07:05:08.999Z</time></trkpt><trkpt lat="39.88109946508285" lon="8.570234257579399"><ele>0.0</ele><time>2026-05-02T07:05:09.999Z</time></trkpt><trkpt lat="39.88107389345108" lon="8.570135713093071"><ele>0.0</ele><time>2026-05-02T07:05:10.999Z</time></trkpt><trkpt lat="39.88106192228444" lon="8.570022078971716"><ele>0.0</ele><time>2026-05-02T07:05:11.999Z</time></trkpt><trkpt lat="39.88105480995537" lon="8.569908191941236"><ele>0.0</ele><time>2026-05-02T07:05:12.999Z</time></trkpt><trkpt lat="39.88103944144732" lon="8.569800260116997"><ele>0.0</ele><time>2026-05-02T07:05:13.999Z</time></trkpt><trkpt lat="39.881033874411486" lon="8.569708165526977"><ele>0.0</ele><time>2026-05-02T07:05:14.999Z</time></trkpt><trkpt lat="39.88107760847626" lon="8.569575920545898"><ele>0.0</ele><time>2026-05-02T07:05:16.999Z</time></trkpt><trkpt lat="39.881162215013624" lon="8.569535906162875"><ele>0.0</ele><time>2026-05-02T07:05:18.999Z</time></trkpt><trkpt lat="39.88121576154311" lon="8.569481546206475"><ele>0.0</ele><time>2026-05-02T07:05:20.999Z</time></trkpt><trkpt lat="39.88120801276823" lon="8.569292048911016"><ele>0.25</ele><time>2026-05-02T07:05:22.999Z</time></trkpt><trkpt lat="39.8811863653772" lon="8.569159136244126"><ele>0.5</ele><time>2026-05-02T07:05:23.999Z</time></trkpt><trkpt lat="39.88116939522556" lon="8.568971509215887"><ele>0.75</ele><time>2026-05-02T07:05:24.999Z</time></trkpt><trkpt lat="39.88115906450366" lon="8.568765922518825"><ele>1.0</ele><time>2026-05-02T07:05:25.999Z</time></trkpt><trkpt lat="39.88113860596623" lon="8.56853416228725"><ele>1.0</ele><time>2026-05-02T07:05:26.999Z</time></trkpt><trkpt lat="39.88111468853987" lon="8.56826965154161"><ele>1.0</ele><time>2026-05-02T07:05:27.999Z</time></trkpt><trkpt lat="39.88109489314429" lon="8.567986178258016"><ele>1.0</ele><time>2026-05-02T07:05:28.999Z</time></trkpt><trkpt lat="39.88107216038579" lon="8.567675974000554"><ele>1.0</ele><time>2026-05-02T07:05:29.999Z</time></trkpt><trkpt lat="39.88104856459359" lon="8.567362675814795"><ele>1.0</ele><time>2026-05-02T07:05:30.999Z</time></trkpt><trkpt lat="39.881020524987804" lon="8.567031836245919"><ele>1.0</ele><time>2026-05-02T07:05:31.999Z</time></trkpt><trkpt lat="39.88099388618055" lon="8.566682397711954"><ele>1.0</ele><time>2026-05-02T07:05:32.999Z</time></trkpt><trkpt lat="39.880969041829445" lon="8.56635596462099"><ele>0.6666666666666666</ele><time>2026-05-02T07:05:33.999Z</time></trkpt><trkpt lat="39.88094684686011" lon="8.566066123696558"><ele>0.3333333333333333</ele><time>2026-05-02T07:05:34.999Z</time></trkpt><trkpt lat="39.880927374978526" lon="8.565807881934848"><ele>0.0</ele><time>2026-05-02T07:05:35.999Z</time></trkpt><trkpt lat="39.88091412566538" lon="8.565578057987292"><ele>0.0</ele><time>2026-05-02T07:05:36.999Z</time></trkpt><trkpt lat="39.88091714273715" lon="8.565359727209785"><ele>0.0</ele><time>2026-05-02T07:05:37.999Z</time></trkpt><trkpt lat="39.88094292352208" lon="8.565153798624642"><ele>0.0</ele><time>2026-05-02T07:05:38.999Z</time></trkpt><trkpt lat="39.88098331188763" lon="8.564955104054436"><ele>0.0</ele><time>2026-05-02T07:05:39.999Z</time></trkpt><trkpt lat="39.88103997155628" lon="8.564748059374654"><ele>0.0</ele><time>2026-05-02T07:05:40.999Z</time></trkpt><trkpt lat="39.88110777499898" lon="8.564541428148479"><ele>0.0</ele><time>2026-05-02T07:05:41.999Z</time></trkpt><trkpt lat="39.881180257731266" lon="8.564339930987328"><ele>-0.3333333333333333</ele><time>2026-05-02T07:05:42.999Z</time></trkpt><trkpt lat="39.881252643687006" lon="8.564131007659237"><ele>-0.6666666666666666</ele><time>2026-05-02T07:05:43.999Z</time></trkpt><trkpt lat="39.88132381545192" lon="8.56391125806439"><ele>-1.0</ele><time>2026-05-02T07:05:45Z</time></trkpt><trkpt lat="39.88140331358851" lon="8.563677334866204"><ele>-0.3333333333333333</ele><time>2026-05-02T07:05:46Z</time></trkpt><trkpt lat="39.88148346426625" lon="8.563440189419882"><ele>0.3333333333333333</ele><time>2026-05-02T07:05:47Z</time></trkpt><trkpt lat="39.88156721677069" lon="8.563190692357978"><ele>1.0</ele><time>2026-05-02T07:05:48Z</time></trkpt><trkpt lat="39.88165585680246" lon="8.562936890184721"><ele>1.0</ele><time>2026-05-02T07:05:49Z</time></trkpt><trkpt lat="39.881746408583304" lon="8.562677849651276"><ele>1.0</ele><time>2026-05-02T07:05:50Z</time></trkpt><trkpt lat="39.88183922535522" lon="8.562412028463113"><ele>1.0</ele><time>2026-05-02T07:05:51Z</time></trkpt><trkpt lat="39.88193286462996" lon="8.562139019831987"><ele>1.0</ele><time>2026-05-02T07:05:52Z</time></trkpt><trkpt lat="39.88203033914805" lon="8.56186150759827"><ele>1.0</ele><time>2026-05-02T07:05:53Z</time></trkpt><trkpt lat="39.88212865174594" lon="8.56157978324266"><ele>1.0</ele><time>2026-05-02T07:05:54Z</time></trkpt><trkpt lat="39.8822313265951" lon="8.561282095896038"><ele>1.0</ele><time>2026-05-02T07:05:55Z</time></trkpt><trkpt lat="39.88233872443735" lon="8.560969858819858"><ele>1.5</ele><time>2026-05-02T07:05:56Z</time></trkpt><trkpt lat="39.88244101938816" lon="8.560673487065248"><ele>2.0</ele><time>2026-05-02T07:05:57Z</time></trkpt><trkpt lat="39.882532830339166" lon="8.560395616934525"><ele>1.6666666666666665</ele><time>2026-05-02T07:05:58Z</time></trkpt><trkpt lat="39.8826257403924" lon="8.56012357241096"><ele>1.3333333333333333</ele><time>2026-05-02T07:05:59Z</time></trkpt><trkpt lat="39.88270855004721" lon="8.559884840625706"><ele>1.0</ele><time>2026-05-02T07:06:00Z</time></trkpt><trkpt lat="39.88277913627863" lon="8.559661172097398"><ele>0.6666666666666666</ele><time>2026-05-02T07:06:01Z</time></trkpt><trkpt lat="39.882851226201275" lon="8.559459144326249"><ele>0.3333333333333333</ele><time>2026-05-02T07:06:02Z</time></trkpt><trkpt lat="39.8829181339303" lon="8.559266527955725"><ele>0.0</ele><time>2026-05-02T07:06:03Z</time></trkpt><trkpt lat="39.88298043940371" lon="8.559098425710395"><ele>0.0</ele><time>2026-05-02T07:06:04Z</time></trkpt><trkpt lat="39.883028048035435" lon="8.558950105607012"><ele>0.0</ele><time>2026-05-02T07:06:05Z</time></trkpt><trkpt lat="39.88306360072773" lon="8.558844444591637"><ele>0.0</ele><time>2026-05-02T07:06:06Z</time></trkpt><trkpt lat="39.88309484240864" lon="8.558733165712376"><ele>0.0</ele><time>2026-05-02T07:06:07Z</time></trkpt><trkpt lat="39.8831224566917" lon="8.558642703337398"><ele>0.0</ele><time>2026-05-02T07:06:08Z</time></trkpt><trkpt lat="39.883198179519894" lon="8.558543659254177"><ele>-0.25</ele><time>2026-05-02T07:06:10Z</time></trkpt><trkpt lat="39.88327726016628" lon="8.558534687824986"><ele>-0.5</ele><time>2026-05-02T07:06:11Z</time></trkpt><trkpt lat="39.88338049939044" lon="8.558534797339062"><ele>-0.75</ele><time>2026-05-02T07:06:12Z</time></trkpt><trkpt lat="39.883510063340395" lon="8.558500584599928"><ele>-1.0</ele><time>2026-05-02T07:06:13Z</time></trkpt><trkpt lat="39.88365430195825" lon="8.558460129832062"><ele>-0.3333333333333333</ele><time>2026-05-02T07:06:14Z</time></trkpt><trkpt lat="39.883805438661966" lon="8.558400968600685"><ele>0.3333333333333333</ele><time>2026-05-02T07:06:15Z</time></trkpt><trkpt lat="39.883978673316506" lon="8.55835086787987"><ele>1.0</ele><time>2026-05-02T07:06:16Z</time></trkpt><trkpt lat="39.88415401220194" lon="8.558300515021351"><ele>1.0</ele><time>2026-05-02T07:06:17Z</time></trkpt><trkpt lat="39.88433269631184" lon="8.558248388336375"><ele>1.0</ele><time>2026-05-02T07:06:18Z</time></trkpt><trkpt lat="39.8845085786077" lon="8.558200623593288"><ele>1.0</ele><time>2026-05-02T07:06:19Z</time></trkpt><trkpt lat="39.884685586033406" lon="8.558152330186513"><ele>1.0</ele><time>2026-05-02T07:06:20Z</time></trkpt><trkpt lat="39.884864850883744" lon="8.558099546830006"><ele>1.0</ele><time>2026-05-02T07:06:21Z</time></trkpt><trkpt lat="39.885053912903714" lon="8.558045034820172"><ele>1.0</ele><time>2026-05-02T07:06:22Z</time></trkpt><trkpt lat="39.885238609839995" lon="8.55799371979659"><ele>1.0</ele><time>2026-05-02T07:06:23Z</time></trkpt><trkpt lat="39.88542742672553" lon="8.557941780289948"><ele>1.0</ele><time>2026-05-02T07:06:24Z</time></trkpt><trkpt lat="39.885612820046646" lon="8.557892648143142"><ele>1.0</ele><time>2026-05-02T07:06:25Z</time></trkpt><trkpt lat="39.88579631014037" lon="8.557841125768228"><ele>0.6666666666666666</ele><time>2026-05-02T07:06:26Z</time></trkpt><trkpt lat="39.8859756299077" lon="8.557784010749584"><ele>0.3333333333333333</ele><time>2026-05-02T07:06:27Z</time></trkpt><trkpt lat="39.88616018068179" lon="8.557728898166205"><ele>0.0</ele><time>2026-05-02T07:06:28Z</time></trkpt><trkpt lat="39.886348816160336" lon="8.557679277199998"><ele>0.0</ele><time>2026-05-02T07:06:29Z</time></trkpt><trkpt lat="39.88653968313158" lon="8.557625720377988"><ele>0.0</ele><time>2026-05-02T07:06:30Z</time></trkpt><trkpt lat="39.886730970466196" lon="8.557572281483353"><ele>0.0</ele><time>2026-05-02T07:06:31Z</time></trkpt><trkpt lat="39.88692355253972" lon="8.557521102288895"><ele>0.3333333333333333</ele><time>2026-05-02T07:06:32Z</time></trkpt><trkpt lat="39.88711756059424" lon="8.557466817694547"><ele>0.6666666666666666</ele><time>2026-05-02T07:06:33Z</time></trkpt><trkpt lat="39.887308982225214" lon="8.557416653040644"><ele>1.0</ele><time>2026-05-02T07:06:34Z</time></trkpt><trkpt lat="39.887501454867696" lon="8.557368329199967"><ele>1.0</ele><time>2026-05-02T07:06:35Z</time></trkpt><trkpt lat="39.887690787989285" lon="8.557318833336035"><ele>1.0</ele><time>2026-05-02T07:06:36Z</time></trkpt><trkpt lat="39.887879540970076" lon="8.557264693818965"><ele>1.0</ele><time>2026-05-02T07:06:37Z</time></trkpt><trkpt lat="39.88806851656126" lon="8.557207703930601"><ele>1.0</ele><time>2026-05-02T07:06:38Z</time></trkpt><trkpt lat="39.88825687939365" lon="8.557149232411627"><ele>1.0</ele><time>2026-05-02T07:06:39Z</time></trkpt><trkpt lat="39.888446249964424" lon="8.557091019738815"><ele>1.0</ele><time>2026-05-02T07:06:40Z</time></trkpt><trkpt lat="39.888635961080475" lon="8.557038381684631"><ele>1.0</ele><time>2026-05-02T07:06:41Z</time></trkpt><trkpt lat="39.88882831390119" lon="8.556990692632791"><ele>1.0</ele><time>2026-05-02T07:06:42Z</time></trkpt><trkpt lat="39.88901503068101" lon="8.556955517716819"><ele>1.0</ele><time>2026-05-02T07:06:43Z</time></trkpt><trkpt lat="39.88918512562107" lon="8.556919114443781"><ele>1.3333333333333333</ele><time>2026-05-02T07:06:44Z</time></trkpt><trkpt lat="39.889340209224436" lon="8.556881279569852"><ele>1.6666666666666665</ele><time>2026-05-02T07:06:45Z</time></trkpt><trkpt lat="39.88949153893496" lon="8.556838999751328"><ele>2.0</ele><time>2026-05-02T07:06:46Z</time></trkpt><trkpt lat="39.88965201925215" lon="8.556790611401093"><ele>2.0</ele><time>2026-05-02T07:06:47Z</time></trkpt><trkpt lat="39.88981360481549" lon="8.556732820652403"><ele>2.0</ele><time>2026-05-02T07:06:48Z</time></trkpt><trkpt lat="39.889981745168605" lon="8.556672393683007"><ele>2.0</ele><time>2026-05-02T07:06:49Z</time></trkpt><trkpt lat="39.890166381550976" lon="8.556637533637662"><ele>2.0</ele><time>2026-05-02T07:06:50Z</time></trkpt><trkpt lat="39.89034485286364" lon="8.556584214753329"><ele>2.0</ele><time>2026-05-02T07:06:51Z</time></trkpt><trkpt lat="39.89052171466447" lon="8.556532874638311"><ele>2.0</ele><time>2026-05-02T07:06:52Z</time></trkpt><trkpt lat="39.89068298286059" lon="8.556465719741139"><ele>2.0</ele><time>2026-05-02T07:06:52.999Z</time></trkpt><trkpt lat="39.89083226649627" lon="8.556427248276869"><ele>2.0</ele><time>2026-05-02T07:06:53.999Z</time></trkpt><trkpt lat="39.89098120412594" lon="8.556383733891062"><ele>2.0</ele><time>2026-05-02T07:06:54.999Z</time></trkpt><trkpt lat="39.891136607388624" lon="8.5563432844946"><ele>2.0</ele><time>2026-05-02T07:06:55.999Z</time></trkpt><trkpt lat="39.89129077794591" lon="8.556304829889227"><ele>2.0</ele><time>2026-05-02T07:06:56.999Z</time></trkpt><trkpt lat="39.8914415642322" lon="8.556257243790327"><ele>2.0</ele><time>2026-05-02T07:06:57.999Z</time></trkpt><trkpt lat="39.8916013007797" lon="8.55620816182949"><ele>2.0</ele><time>2026-05-02T07:06:58.999Z</time></trkpt><trkpt lat="39.891768764888305" lon="8.556162398957229"><ele>2.0</ele><time>2026-05-02T07:06:59.999Z</time></trkpt><trkpt lat="39.89194912218831" lon="8.55610725431775"><ele>2.0</ele><time>2026-05-02T07:07:00.999Z</time></trkpt><trkpt lat="39.89213103454729" lon="8.556063033719191"><ele>2.0</ele><time>2026-05-02T07:07:01.999Z</time></trkpt><trkpt lat="39.892317761678484" lon="8.556010481092377"><ele>2.0</ele><time>2026-05-02T07:07:02.999Z</time></trkpt><trkpt lat="39.892502320657584" lon="8.555961452291875"><ele>2.0</ele><time>2026-05-02T07:07:03.999Z</time></trkpt><trkpt lat="39.892678921841174" lon="8.555907833933247"><ele>1.3333333333333333</ele><time>2026-05-02T07:07:04.999Z</time></trkpt><trkpt lat="39.89285002978222" lon="8.555859148967304"><ele>0.6666666666666666</ele><time>2026-05-02T07:07:05.999Z</time></trkpt><trkpt lat="39.893018787957985" lon="8.555834321816745"><ele>0.0</ele><time>2026-05-02T07:07:06.999Z</time></trkpt><trkpt lat="39.89318841065131" lon="8.555803927208578"><ele>0.0</ele><time>2026-05-02T07:07:07.999Z</time></trkpt><trkpt lat="39.893343517750374" lon="8.555773577187724"><ele>0.0</ele><time>2026-05-02T07:07:08.999Z</time></trkpt><trkpt lat="39.89348840564291" lon="8.555741959757178"><ele>0.0</ele><time>2026-05-02T07:07:09.999Z</time></trkpt><trkpt lat="39.89363783204883" lon="8.555709093640765"><ele>0.3333333333333333</ele><time>2026-05-02T07:07:10.999Z</time></trkpt><trkpt lat="39.89378916369279" lon="8.555655459142837"><ele>0.6666666666666666</ele><time>2026-05-02T07:07:11.999Z</time></trkpt><trkpt lat="39.89394618881538" lon="8.555620187766937"><ele>1.0</ele><time>2026-05-02T07:07:12.999Z</time></trkpt><trkpt lat="39.8941099870975" lon="8.555605738398876"><ele>1.3333333333333333</ele><time>2026-05-02T07:07:13.999Z</time></trkpt><trkpt lat="39.894272812788415" lon="8.555574332520207"><ele>1.6666666666666665</ele><time>2026-05-02T07:07:14.999Z</time></trkpt><trkpt lat="39.89443434583944" lon="8.555529554542156"><ele>2.0</ele><time>2026-05-02T07:07:15.999Z</time></trkpt><trkpt lat="39.89460127804038" lon="8.555512514590443"><ele>2.0</ele><time>2026-05-02T07:07:16.999Z</time></trkpt><trkpt lat="39.894762348291515" lon="8.555494099167072"><ele>2.0</ele><time>2026-05-02T07:07:17.999Z</time></trkpt><trkpt lat="39.89492276015325" lon="8.555479015472839"><ele>2.0</ele><time>2026-05-02T07:07:18.999Z</time></trkpt><trkpt lat="39.895082168495264" lon="8.555467127420242"><ele>1.6666666666666665</ele><time>2026-05-02T07:07:19.999Z</time></trkpt><trkpt lat="39.89524286582127" lon="8.555452936029615"><ele>1.3333333333333333</ele><time>2026-05-02T07:07:20.999Z</time></trkpt><trkpt lat="39.895407904580296" lon="8.555426251886129"><ele>1.0</ele><time>2026-05-02T07:07:21.999Z</time></trkpt><trkpt lat="39.89557592786814" lon="8.55539808343985"><ele>1.0</ele><time>2026-05-02T07:07:22.999Z</time></trkpt><trkpt lat="39.89574056412144" lon="8.555374462701906"><ele>1.0</ele><time>2026-05-02T07:07:23.999Z</time></trkpt><trkpt lat="39.895898961224205" lon="8.555355258291078"><ele>1.0</ele><time>2026-05-02T07:07:24.999Z</time></trkpt><trkpt lat="39.8960608572607" lon="8.555333420007436"><ele>1.0</ele><time>2026-05-02T07:07:25.999Z</time></trkpt><trkpt lat="39.89621977201256" lon="8.555316104039258"><ele>1.0</ele><time>2026-05-02T07:07:26.999Z</time></trkpt><trkpt lat="39.89638271603598" lon="8.555294239427424"><ele>1.0</ele><time>2026-05-02T07:07:27.999Z</time></trkpt><trkpt lat="39.89654772716582" lon="8.555272924796968"><ele>1.0</ele><time>2026-05-02T07:07:28.999Z</time></trkpt><trkpt lat="39.89671557606354" lon="8.555254641859888"><ele>1.0</ele><time>2026-05-02T07:07:29.999Z</time></trkpt><trkpt lat="39.89687772526945" lon="8.555240631915387"><ele>1.0</ele><time>2026-05-02T07:07:30.999Z</time></trkpt><trkpt lat="39.89703798245502" lon="8.555223519426919"><ele>1.6666666666666665</ele><time>2026-05-02T07:07:31.999Z</time></trkpt><trkpt lat="39.89719193913515" lon="8.555203583844111"><ele>2.3333333333333335</ele><time>2026-05-02T07:07:32.999Z</time></trkpt><trkpt lat="39.89734470661772" lon="8.555185076122557"><ele>3.0</ele><time>2026-05-02T07:07:33.999Z</time></trkpt><trkpt lat="39.89749510322749" lon="8.555170343725592"><ele>3.0</ele><time>2026-05-02T07:07:34.999Z</time></trkpt><trkpt lat="39.89764717089435" lon="8.55515196079752"><ele>3.0</ele><time>2026-05-02T07:07:35.999Z</time></trkpt><trkpt lat="39.897799383312844" lon="8.555130294736717"><ele>3.0</ele><time>2026-05-02T07:07:36.999Z</time></trkpt><trkpt lat="39.897944271004654" lon="8.55511267441272"><ele>3.0</ele><time>2026-05-02T07:07:37.999Z</time></trkpt><trkpt lat="39.898076533945" lon="8.555097886762407"><ele>3.0</ele><time>2026-05-02T07:07:38.999Z</time></trkpt><trkpt lat="39.898196859373506" lon="8.555088212480666"><ele>3.0</ele><time>2026-05-02T07:07:39.999Z</time></trkpt><trkpt lat="39.89830380743568" lon="8.555076159035597"><ele>3.0</ele><time>2026-05-02T07:07:40.999Z</time></trkpt><trkpt lat="39.898398860256734" lon="8.555063039780103"><ele>3.0</ele><time>2026-05-02T07:07:41.999Z</time></trkpt><trkpt lat="39.89847398334822" lon="8.55505135608109"><ele>3.0</ele><time>2026-05-02T07:07:42.999Z</time></trkpt><trkpt lat="39.898579613387234" lon="8.555036750938834"><ele>3.0</ele><time>2026-05-02T07:07:44.999Z</time></trkpt><trkpt lat="39.89860851919416" lon="8.555234226715903"><ele>3.0</ele><time>2026-05-02T07:07:47.999Z</time></trkpt><trkpt lat="39.89864109056522" lon="8.555308878095275"><ele>3.0</ele><time>2026-05-02T07:07:48.999Z</time></trkpt><trkpt lat="39.89864448708711" lon="8.555400312653799"><ele>3.0</ele><time>2026-05-02T07:07:52Z</time></trkpt><trkpt lat="39.898626038168345" lon="8.555302545932717"><ele>3.0</ele><time>2026-05-02T07:07:57Z</time></trkpt><trkpt lat="39.898667302254765" lon="8.555030614498634"><ele>3.0</ele><time>2026-05-02T07:07:59Z</time></trkpt><trkpt lat="39.89873200689637" lon="8.555016214400524"><ele>3.0</ele><time>2026-05-02T07:08:00Z</time></trkpt><trkpt lat="39.89879580138247" lon="8.555007617136631"><ele>3.0</ele><time>2026-05-02T07:08:01Z</time></trkpt><trkpt lat="39.898889950806115" lon="8.554994928125097"><ele>3.0</ele><time>2026-05-02T07:08:02Z</time></trkpt><trkpt lat="39.898984913323275" lon="8.554982129523008"><ele>3.0</ele><time>2026-05-02T07:08:03Z</time></trkpt><trkpt lat="39.89911063711158" lon="8.555357810486374"><ele>3.0</ele><time>2026-05-02T07:08:04Z</time></trkpt><trkpt lat="39.899196594622914" lon="8.555382168117935"><ele>2.6666666666666665</ele><time>2026-05-02T07:08:05Z</time></trkpt><trkpt lat="39.899260048911174" lon="8.555374315625158"><ele>2.333333333333333</ele><time>2026-05-02T07:08:06Z</time></trkpt><trkpt lat="39.89940576097205" lon="8.555579227408037"><ele>2.0</ele><time>2026-05-02T07:08:08Z</time></trkpt><trkpt lat="39.899419794980304" lon="8.555231874816489"><ele>2.0</ele><time>2026-05-02T07:08:09Z</time></trkpt><trkpt lat="39.89948949568198" lon="8.555166848791012"><ele>2.0</ele><time>2026-05-02T07:08:11Z</time></trkpt><trkpt lat="39.899497446096966" lon="8.55491305567539"><ele>2.0</ele><time>2026-05-02T07:08:13Z</time></trkpt><trkpt lat="39.89944800307633" lon="8.55548485970061"><ele>1.8333333333333333</ele><time>2026-05-02T07:08:15Z</time></trkpt><trkpt lat="39.89952847912006" lon="8.555552671130405"><ele>1.6666666666666665</ele><time>2026-05-02T07:08:17Z</time></trkpt><trkpt lat="39.89957541479386" lon="8.555637536106769"><ele>1.5</ele><time>2026-05-02T07:08:18Z</time></trkpt><trkpt lat="39.8996473496328" lon="8.555708264711877"><ele>1.3333333333333333</ele><time>2026-05-02T07:08:19Z</time></trkpt><trkpt lat="39.899736002920115" lon="8.555731789501694"><ele>1.1666666666666665</ele><time>2026-05-02T07:08:20Z</time></trkpt><trkpt lat="39.899797472622105" lon="8.555783599738643"><ele>1.0</ele><time>2026-05-02T07:08:21Z</time></trkpt><trkpt lat="39.89984949210259" lon="8.555837047726818"><ele>1.0</ele><time>2026-05-02T07:08:22Z</time></trkpt><trkpt lat="39.899909202380314" lon="8.55587467142431"><ele>1.0</ele><time>2026-05-02T07:08:24Z</time></trkpt><trkpt lat="39.900519156507706" lon="8.55620503045121"><ele>3.0</ele><time>2026-05-02T07:08:25Z</time></trkpt><trkpt lat="39.90027423340794" lon="8.555302504742174"><ele>3.0</ele><time>2026-05-02T07:08:27Z</time></trkpt><trkpt lat="39.90036539922275" lon="8.555218944939622"><ele>3.0</ele><time>2026-05-02T07:08:28Z</time></trkpt><trkpt lat="39.900467028139424" lon="8.555148983941617"><ele>3.0</ele><time>2026-05-02T07:08:29Z</time></trkpt><trkpt lat="39.90057161677988" lon="8.555082346384888"><ele>3.0</ele><time>2026-05-02T07:08:30Z</time></trkpt><trkpt lat="39.90068466094846" lon="8.555019987596015"><ele>3.0</ele><time>2026-05-02T07:08:31Z</time></trkpt><trkpt lat="39.90080322338588" lon="8.55496996555463"><ele>3.0</ele><time>2026-05-02T07:08:32Z</time></trkpt><trkpt lat="39.90093269088794" lon="8.55492701919855"><ele>3.0</ele><time>2026-05-02T07:08:33Z</time></trkpt><trkpt lat="39.90106334459064" lon="8.554884761831877"><ele>3.0</ele><time>2026-05-02T07:08:34Z</time></trkpt><trkpt lat="39.90119327323508" lon="8.554837540201381"><ele>3.5</ele><time>2026-05-02T07:08:35Z</time></trkpt><trkpt lat="39.90132590277471" lon="8.55479095311548"><ele>4.0</ele><time>2026-05-02T07:08:36Z</time></trkpt><trkpt lat="39.90146280480251" lon="8.554756245328434"><ele>4.5</ele><time>2026-05-02T07:08:37Z</time></trkpt><trkpt lat="39.90160131900637" lon="8.554734105295234"><ele>5.0</ele><time>2026-05-02T07:08:38Z</time></trkpt><trkpt lat="39.90174034045969" lon="8.55471175043884"><ele>5.0</ele><time>2026-05-02T07:08:39Z</time></trkpt><trkpt lat="39.90187763604264" lon="8.554681807953713"><ele>5.0</ele><time>2026-05-02T07:08:40Z</time></trkpt><trkpt lat="39.90201706236117" lon="8.554658672114167"><ele>5.0</ele><time>2026-05-02T07:08:41Z</time></trkpt><trkpt lat="39.90216081804959" lon="8.554641611524994"><ele>5.0</ele><time>2026-05-02T07:08:42Z</time></trkpt><trkpt lat="39.902304269135996" lon="8.554625637648908"><ele>5.0</ele><time>2026-05-02T07:08:43Z</time></trkpt><trkpt lat="39.902449239747135" lon="8.554605007326714"><ele>5.0</ele><time>2026-05-02T07:08:44Z</time></trkpt><trkpt lat="39.90259449470841" lon="8.554587389188109"><ele>5.0</ele><time>2026-05-02T07:08:45Z</time></trkpt><trkpt lat="39.90274181838159" lon="8.554571932794575"><ele>5.0</ele><time>2026-05-02T07:08:46Z</time></trkpt><trkpt lat="39.90290097873401" lon="8.554549190630507"><ele>4.333333333333334</ele><time>2026-05-02T07:08:47Z</time></trkpt><trkpt lat="39.903086357181444" lon="8.554554945888487"><ele>3.666666666666667</ele><time>2026-05-02T07:08:48Z</time></trkpt><trkpt lat="39.90329441812334" lon="8.554501231786258"><ele>3.0</ele><time>2026-05-02T07:08:49Z</time></trkpt><trkpt lat="39.90349616164886" lon="8.554488979383322"><ele>3.0</ele><time>2026-05-02T07:08:50Z</time></trkpt><trkpt lat="39.90367421566298" lon="8.554471435648846"><ele>3.0</ele><time>2026-05-02T07:08:51Z</time></trkpt><trkpt lat="39.90385010653692" lon="8.554456862278062"><ele>3.0</ele><time>2026-05-02T07:08:52Z</time></trkpt><trkpt lat="39.904038574199014" lon="8.554446829969644"><ele>3.0</ele><time>2026-05-02T07:08:53Z</time></trkpt><trkpt lat="39.904227095391185" lon="8.554439049471506"><ele>3.0</ele><time>2026-05-02T07:08:54Z</time></trkpt><trkpt lat="39.90441091429272" lon="8.554436086758635"><ele>3.0</ele><time>2026-05-02T07:08:55Z</time></trkpt><trkpt lat="39.90458866619535" lon="8.55441767873914"><ele>3.0</ele><time>2026-05-02T07:08:55.999Z</time></trkpt><trkpt lat="39.904765353301066" lon="8.554429107867431"><ele>3.0</ele><time>2026-05-02T07:08:56.999Z</time></trkpt><trkpt lat="39.904938774480115" lon="8.55444308897192"><ele>3.0</ele><time>2026-05-02T07:08:57.999Z</time></trkpt><trkpt lat="39.90511274747156" lon="8.55446079802076"><ele>3.0</ele><time>2026-05-02T07:08:58.999Z</time></trkpt><trkpt lat="39.90529162326108" lon="8.554491114545888"><ele>3.0</ele><time>2026-05-02T07:08:59.999Z</time></trkpt><trkpt lat="39.90547842127134" lon="8.554538930920895"><ele>3.0</ele><time>2026-05-02T07:09:00.999Z</time></trkpt><trkpt lat="39.90566972028645" lon="8.55459090782857"><ele>3.0</ele><time>2026-05-02T07:09:01.999Z</time></trkpt><trkpt lat="39.90586369847276" lon="8.554642860316195"><ele>3.0</ele><time>2026-05-02T07:09:02.999Z</time></trkpt><trkpt lat="39.906054921403985" lon="8.554691405586988"><ele>3.0</ele><time>2026-05-02T07:09:03.999Z</time></trkpt><trkpt lat="39.906237849390735" lon="8.554746151015491"><ele>3.666666666666667</ele><time>2026-05-02T07:09:04.999Z</time></trkpt><trkpt lat="39.90639365754621" lon="8.55479407707315"><ele>4.333333333333334</ele><time>2026-05-02T07:09:05.999Z</time></trkpt><trkpt lat="39.90654570404286" lon="8.55483847307107"><ele>5.0</ele><time>2026-05-02T07:09:06.999Z</time></trkpt><trkpt lat="39.90668648082396" lon="8.55490976382302"><ele>4.666666666666667</ele><time>2026-05-02T07:09:07.999Z</time></trkpt><trkpt lat="39.90683617621156" lon="8.554967538705483"><ele>4.333333333333333</ele><time>2026-05-02T07:09:08.999Z</time></trkpt><trkpt lat="39.90699025105417" lon="8.555028044229724"><ele>4.0</ele><time>2026-05-02T07:09:09.999Z</time></trkpt><trkpt lat="39.90715439587888" lon="8.55508313526837"><ele>4.0</ele><time>2026-05-02T07:09:10.999Z</time></trkpt><trkpt lat="39.90731092101719" lon="8.555159124966027"><ele>4.0</ele><time>2026-05-02T07:09:11.999Z</time></trkpt><trkpt lat="39.907470289086945" lon="8.55523350368077"><ele>4.0</ele><time>2026-05-02T07:09:12.999Z</time></trkpt><trkpt lat="39.907638888645366" lon="8.555312333515658"><ele>3.333333333333333</ele><time>2026-05-02T07:09:13.999Z</time></trkpt><trkpt lat="39.90780771635876" lon="8.555401617391945"><ele>2.6666666666666665</ele><time>2026-05-02T07:09:14.999Z</time></trkpt><trkpt lat="39.90797319343411" lon="8.555466229998348"><ele>2.0</ele><time>2026-05-02T07:09:15.999Z</time></trkpt><trkpt lat="39.90813037060077" lon="8.555553384106112"><ele>2.0</ele><time>2026-05-02T07:09:16.999Z</time></trkpt><trkpt lat="39.90827601904424" lon="8.555662628491516"><ele>2.0</ele><time>2026-05-02T07:09:17.999Z</time></trkpt><trkpt lat="39.90842144924723" lon="8.55574757104822"><ele>2.0</ele><time>2026-05-02T07:09:18.999Z</time></trkpt><trkpt lat="39.908556639848975" lon="8.555828384427356"><ele>2.25</ele><time>2026-05-02T07:09:19.999Z</time></trkpt><trkpt lat="39.90868392459768" lon="8.55590858790127"><ele>2.5</ele><time>2026-05-02T07:09:20.999Z</time></trkpt><trkpt lat="39.90880837457637" lon="8.556005410280195"><ele>2.75</ele><time>2026-05-02T07:09:21.999Z</time></trkpt><trkpt lat="39.90892418989331" lon="8.556100585012926"><ele>3.0</ele><time>2026-05-02T07:09:22.999Z</time></trkpt><trkpt lat="39.90904014533265" lon="8.556202309551763"><ele>3.0</ele><time>2026-05-02T07:09:23.999Z</time></trkpt><trkpt lat="39.90915793771827" lon="8.556308005312872"><ele>3.0</ele><time>2026-05-02T07:09:24.999Z</time></trkpt><trkpt lat="39.90928878730467" lon="8.556417488717742"><ele>3.0</ele><time>2026-05-02T07:09:25.999Z</time></trkpt><trkpt lat="39.90942529378042" lon="8.556529270720057"><ele>3.0</ele><time>2026-05-02T07:09:26.999Z</time></trkpt><trkpt lat="39.90956600919079" lon="8.556649040188601"><ele>3.0</ele><time>2026-05-02T07:09:27.999Z</time></trkpt><trkpt lat="39.90969445566286" lon="8.55677301194915"><ele>3.0</ele><time>2026-05-02T07:09:28.999Z</time></trkpt><trkpt lat="39.90980735716424" lon="8.556881610027448"><ele>3.0</ele><time>2026-05-02T07:09:29.999Z</time></trkpt><trkpt lat="39.90990904245888" lon="8.55699663412508"><ele>3.0</ele><time>2026-05-02T07:09:30.999Z</time></trkpt><trkpt lat="39.91001258496445" lon="8.557142226780167"><ele>3.0</ele><time>2026-05-02T07:09:31.999Z</time></trkpt><trkpt lat="39.91012622140148" lon="8.557309436470046"><ele>3.25</ele><time>2026-05-02T07:09:32.999Z</time></trkpt><trkpt lat="39.91023254810169" lon="8.557465112849183"><ele>3.5</ele><time>2026-05-02T07:09:33.999Z</time></trkpt><trkpt lat="39.91032089660213" lon="8.557594862974437"><ele>3.75</ele><time>2026-05-02T07:09:34.999Z</time></trkpt><trkpt lat="39.91040351689573" lon="8.557711136737684"><ele>4.0</ele><time>2026-05-02T07:09:35.999Z</time></trkpt><trkpt lat="39.91047857921427" lon="8.557818426800763"><ele>3.6</ele><time>2026-05-02T07:09:36.999Z</time></trkpt><trkpt lat="39.91055079632932" lon="8.557902606432737"><ele>3.2</ele><time>2026-05-02T07:09:37.999Z</time></trkpt><trkpt lat="39.910566839044506" lon="8.558038873674953"><ele>2.8000000000000003</ele><time>2026-05-02T07:09:38.999Z</time></trkpt><trkpt lat="39.91056590934529" lon="8.558180363957673"><ele>2.4000000000000004</ele><time>2026-05-02T07:09:39.999Z</time></trkpt><trkpt lat="39.91056501557817" lon="8.558324122929186"><ele>2.0</ele><time>2026-05-02T07:09:40.999Z</time></trkpt><trkpt lat="39.91060434042209" lon="8.55844759159916"><ele>2.0</ele><time>2026-05-02T07:09:41.999Z</time></trkpt><trkpt lat="39.91068068119555" lon="8.558550982336325"><ele>2.0</ele><time>2026-05-02T07:09:42.999Z</time></trkpt><trkpt lat="39.910778713857944" lon="8.558617539142418"><ele>2.0</ele><time>2026-05-02T07:09:43.999Z</time></trkpt><trkpt lat="39.910886606237966" lon="8.55863207287126"><ele>2.0</ele><time>2026-05-02T07:09:44.999Z</time></trkpt><trkpt lat="39.91098931797649" lon="8.558604686007106"><ele>2.0</ele><time>2026-05-02T07:09:45.999Z</time></trkpt><trkpt lat="39.91108059401544" lon="8.558525512783936"><ele>2.5</ele><time>2026-05-02T07:09:46.999Z</time></trkpt><trkpt lat="39.91114836440093" lon="8.558405772539334"><ele>3.0</ele><time>2026-05-02T07:09:47.999Z</time></trkpt><trkpt lat="39.91118450029229" lon="8.558259672306747"><ele>3.5</ele><time>2026-05-02T07:09:48.999Z</time></trkpt><trkpt lat="39.91118007677577" lon="8.558105934537588"><ele>4.0</ele><time>2026-05-02T07:09:49.999Z</time></trkpt><trkpt lat="39.91113239516889" lon="8.557965464559345"><ele>3.75</ele><time>2026-05-02T07:09:50.999Z</time></trkpt><trkpt lat="39.911064972923214" lon="8.55784018881503"><ele>3.5</ele><time>2026-05-02T07:09:51.999Z</time></trkpt><trkpt lat="39.91098681796418" lon="8.557710679399024"><ele>3.25</ele><time>2026-05-02T07:09:52.999Z</time></trkpt><trkpt lat="39.910933605902756" lon="8.55755140788983"><ele>3.0</ele><time>2026-05-02T07:09:53.999Z</time></trkpt><trkpt lat="39.910952769679774" lon="8.55738220841705"><ele>3.0</ele><time>2026-05-02T07:09:54.999Z</time></trkpt><trkpt lat="39.910969613123505" lon="8.557201957251523"><ele>3.0</ele><time>2026-05-02T07:09:55.999Z</time></trkpt><trkpt lat="39.910975866697854" lon="8.557002119103975"><ele>3.0</ele><time>2026-05-02T07:09:57Z</time></trkpt><trkpt lat="39.91100959011168" lon="8.556794016626773"><ele>2.6666666666666665</ele><time>2026-05-02T07:09:58Z</time></trkpt><trkpt lat="39.91103055105484" lon="8.55657850357859"><ele>2.333333333333333</ele><time>2026-05-02T07:09:59Z</time></trkpt><trkpt lat="39.91104347353647" lon="8.556339655950506"><ele>2.0</ele><time>2026-05-02T07:10:00Z</time></trkpt><trkpt lat="39.9110624409154" lon="8.556095492397201"><ele>2.0</ele><time>2026-05-02T07:10:01Z</time></trkpt><trkpt lat="39.9110831101253" lon="8.555847106916199"><ele>2.0</ele><time>2026-05-02T07:10:02Z</time></trkpt><trkpt lat="39.91112156905326" lon="8.555598495900762"><ele>2.0</ele><time>2026-05-02T07:10:03Z</time></trkpt><trkpt lat="39.91114483010279" lon="8.555353802702141"><ele>2.333333333333333</ele><time>2026-05-02T07:10:04Z</time></trkpt><trkpt lat="39.911154384421216" lon="8.555108654859286"><ele>2.6666666666666665</ele><time>2026-05-02T07:10:05Z</time></trkpt><trkpt lat="39.91117788877994" lon="8.554863503928223"><ele>3.0</ele><time>2026-05-02T07:10:06Z</time></trkpt><trkpt lat="39.911198658035644" lon="8.554617837909984"><ele>2.6666666666666665</ele><time>2026-05-02T07:10:07Z</time></trkpt><trkpt lat="39.91123712392762" lon="8.554382923521121"><ele>2.333333333333333</ele><time>2026-05-02T07:10:08Z</time></trkpt><trkpt lat="39.91124397388902" lon="8.554134836139779"><ele>2.0</ele><time>2026-05-02T07:10:09Z</time></trkpt><trkpt lat="39.91127022417568" lon="8.553883774681138"><ele>2.0</ele><time>2026-05-02T07:10:10Z</time></trkpt><trkpt lat="39.91129282832496" lon="8.553631264045562"><ele>2.0</ele><time>2026-05-02T07:10:11Z</time></trkpt><trkpt lat="39.91133240336184" lon="8.553380637357881"><ele>2.0</ele><time>2026-05-02T07:10:12Z</time></trkpt><trkpt lat="39.91135686033798" lon="8.55312336372455"><ele>2.333333333333333</ele><time>2026-05-02T07:10:13Z</time></trkpt><trkpt lat="39.91138135647528" lon="8.552865678103961"><ele>2.6666666666666665</ele><time>2026-05-02T07:10:14Z</time></trkpt><trkpt lat="39.91138981291245" lon="8.552604263727897"><ele>3.0</ele><time>2026-05-02T07:10:15Z</time></trkpt><trkpt lat="39.911422564717874" lon="8.552347117913818"><ele>3.0</ele><time>2026-05-02T07:10:16Z</time></trkpt><trkpt lat="39.91145458535295" lon="8.552090415246848"><ele>3.0</ele><time>2026-05-02T07:10:17Z</time></trkpt><trkpt lat="39.911483491907845" lon="8.551832445911824"><ele>3.0</ele><time>2026-05-02T07:10:18Z</time></trkpt><trkpt lat="39.91150955898853" lon="8.55157522459313"><ele>3.0</ele><time>2026-05-02T07:10:19Z</time></trkpt><trkpt lat="39.9115347757972" lon="8.551317887228404"><ele>3.0</ele><time>2026-05-02T07:10:20Z</time></trkpt><trkpt lat="39.91155990325029" lon="8.551059333335504"><ele>3.0</ele><time>2026-05-02T07:10:21Z</time></trkpt><trkpt lat="39.91158444640928" lon="8.550801912837558"><ele>3.0</ele><time>2026-05-02T07:10:22Z</time></trkpt><trkpt lat="39.911609260030275" lon="8.550541775641321"><ele>3.0</ele><time>2026-05-02T07:10:23Z</time></trkpt><trkpt lat="39.91163323439218" lon="8.550279983385277"><ele>3.0</ele><time>2026-05-02T07:10:24Z</time></trkpt><trkpt lat="39.91165783627234" lon="8.550017723649782"><ele>3.0</ele><time>2026-05-02T07:10:25Z</time></trkpt><trkpt lat="39.91168129791504" lon="8.549754288045232"><ele>3.0</ele><time>2026-05-02T07:10:26Z</time></trkpt><trkpt lat="39.911706025911684" lon="8.549490142793042"><ele>3.0</ele><time>2026-05-02T07:10:27Z</time></trkpt><trkpt lat="39.91173077791476" lon="8.549225160446353"><ele>3.0</ele><time>2026-05-02T07:10:28Z</time></trkpt><trkpt lat="39.91175640115758" lon="8.548961706640192"><ele>3.0</ele><time>2026-05-02T07:10:29Z</time></trkpt><trkpt lat="39.911781580058545" lon="8.54869855342957"><ele>3.0</ele><time>2026-05-02T07:10:30Z</time></trkpt><trkpt lat="39.91180411275129" lon="8.548437276890775"><ele>3.0</ele><time>2026-05-02T07:10:31Z</time></trkpt><trkpt lat="39.9118258930017" lon="8.548176264447024"><ele>3.0</ele><time>2026-05-02T07:10:32Z</time></trkpt><trkpt lat="39.91185167418738" lon="8.547912573411152"><ele>3.0</ele><time>2026-05-02T07:10:33Z</time></trkpt><trkpt lat="39.911877840681335" lon="8.547651350647875"><ele>3.0</ele><time>2026-05-02T07:10:34Z</time></trkpt><trkpt lat="39.911902812003255" lon="8.547389956370221"><ele>3.0</ele><time>2026-05-02T07:10:35Z</time></trkpt><trkpt lat="39.91192673027368" lon="8.547129411049438"><ele>3.0</ele><time>2026-05-02T07:10:36Z</time></trkpt><trkpt lat="39.91195093717682" lon="8.546870147557112"><ele>3.0</ele><time>2026-05-02T07:10:37Z</time></trkpt><trkpt lat="39.911975974288914" lon="8.546609860405662"><ele>3.0</ele><time>2026-05-02T07:10:38Z</time></trkpt><trkpt lat="39.91200145897249" lon="8.546349698974375"><ele>3.0</ele><time>2026-05-02T07:10:39Z</time></trkpt><trkpt lat="39.912032681476475" lon="8.54608849437717"><ele>2.6666666666666665</ele><time>2026-05-02T07:10:40Z</time></trkpt><trkpt lat="39.91207394294996" lon="8.545827106392315"><ele>2.333333333333333</ele><time>2026-05-02T07:10:41Z</time></trkpt><trkpt lat="39.9121291816566" lon="8.545573942364369"><ele>2.0</ele><time>2026-05-02T07:10:42Z</time></trkpt><trkpt lat="39.91219792624757" lon="8.545325887504692"><ele>2.0</ele><time>2026-05-02T07:10:43Z</time></trkpt><trkpt lat="39.91228042438335" lon="8.545085701848848"><ele>2.0</ele><time>2026-05-02T07:10:44Z</time></trkpt><trkpt lat="39.91236873904309" lon="8.544848458583928"><ele>2.0</ele><time>2026-05-02T07:10:45Z</time></trkpt><trkpt lat="39.91246237316921" lon="8.544617157485959"><ele>2.0</ele><time>2026-05-02T07:10:46Z</time></trkpt><trkpt lat="39.91256608335251" lon="8.544393996396547"><ele>2.0</ele><time>2026-05-02T07:10:47Z</time></trkpt><trkpt lat="39.91268266180812" lon="8.544184854666128"><ele>2.0</ele><time>2026-05-02T07:10:48Z</time></trkpt><trkpt lat="39.91280741216755" lon="8.543983820751873"><ele>2.0</ele><time>2026-05-02T07:10:49Z</time></trkpt><trkpt lat="39.912935484760524" lon="8.543789431017448"><ele>2.0</ele><time>2026-05-02T07:10:50Z</time></trkpt><trkpt lat="39.91306647626395" lon="8.54360451983704"><ele>2.0</ele><time>2026-05-02T07:10:51Z</time></trkpt><trkpt lat="39.91319936745386" lon="8.54342792798203"><ele>1.6666666666666665</ele><time>2026-05-02T07:10:52Z</time></trkpt><trkpt lat="39.91332932125096" lon="8.543257990376638"><ele>1.3333333333333333</ele><time>2026-05-02T07:10:53Z</time></trkpt><trkpt lat="39.91345055545348" lon="8.543099320561353"><ele>1.0</ele><time>2026-05-02T07:10:54Z</time></trkpt><trkpt lat="39.91356480395671" lon="8.542954045518252"><ele>1.6</ele><time>2026-05-02T07:10:55Z</time></trkpt><trkpt lat="39.91367526992968" lon="8.542831955776998"><ele>2.2</ele><time>2026-05-02T07:10:56Z</time></trkpt><trkpt lat="39.91377498019133" lon="8.542750982391501"><ele>2.8000000000000003</ele><time>2026-05-02T07:10:57Z</time></trkpt><trkpt lat="39.9138626363408" lon="8.542702939461906"><ele>3.4000000000000004</ele><time>2026-05-02T07:10:58Z</time></trkpt><trkpt lat="39.913949290889455" lon="8.54269081308258"><ele>4.0</ele><time>2026-05-02T07:10:59Z</time></trkpt><trkpt lat="39.91403748498804" lon="8.54271485864579"><ele>4.0</ele><time>2026-05-02T07:11:00Z</time></trkpt><trkpt lat="39.91412815576021" lon="8.542767117768921"><ele>4.0</ele><time>2026-05-02T07:11:01Z</time></trkpt><trkpt lat="39.914231677477225" lon="8.542813040896785"><ele>4.0</ele><time>2026-05-02T07:11:02Z</time></trkpt><trkpt lat="39.91435172495251" lon="8.542816366563468"><ele>4.0</ele><time>2026-05-02T07:11:02.999Z</time></trkpt><trkpt lat="39.914475250715206" lon="8.542761700519392"><ele>4.5</ele><time>2026-05-02T07:11:03.999Z</time></trkpt><trkpt lat="39.91458742975906" lon="8.542667595775692"><ele>5.0</ele><time>2026-05-02T07:11:04.999Z</time></trkpt><trkpt lat="39.91468237886663" lon="8.542541785963339"><ele>5.5</ele><time>2026-05-02T07:11:05.999Z</time></trkpt><trkpt lat="39.91471175701963" lon="8.542364108083436"><ele>6.0</ele><time>2026-05-02T07:11:06.999Z</time></trkpt><trkpt lat="39.91474805746981" lon="8.54215831439633"><ele>6.0</ele><time>2026-05-02T07:11:07.999Z</time></trkpt><trkpt lat="39.914821968165406" lon="8.54195695815843"><ele>6.0</ele><time>2026-05-02T07:11:08.999Z</time></trkpt><trkpt lat="39.914916587484825" lon="8.541738841388645"><ele>6.0</ele><time>2026-05-02T07:11:09.999Z</time></trkpt><trkpt lat="39.91504423921285" lon="8.541513406291767"><ele>5.666666666666667</ele><time>2026-05-02T07:11:10.999Z</time></trkpt><trkpt lat="39.9151718343905" lon="8.541285935629832"><ele>5.333333333333334</ele><time>2026-05-02T07:11:11.999Z</time></trkpt><trkpt lat="39.91531199197102" lon="8.541075148304868"><ele>5.0</ele><time>2026-05-02T07:11:12.999Z</time></trkpt><trkpt lat="39.91548235204133" lon="8.540892902950095"><ele>4.5</ele><time>2026-05-02T07:11:13.999Z</time></trkpt><trkpt lat="39.91567644901757" lon="8.540735375529"><ele>4.0</ele><time>2026-05-02T07:11:14.999Z</time></trkpt><trkpt lat="39.91588509748725" lon="8.54061705063377"><ele>4.0</ele><time>2026-05-02T07:11:15.999Z</time></trkpt><trkpt lat="39.91609292204976" lon="8.540517191130384"><ele>4.0</ele><time>2026-05-02T07:11:16.999Z</time></trkpt><trkpt lat="39.91629259219881" lon="8.54041208573634"><ele>4.0</ele><time>2026-05-02T07:11:17.999Z</time></trkpt><trkpt lat="39.91648621001857" lon="8.540300737972597"><ele>4.0</ele><time>2026-05-02T07:11:18.999Z</time></trkpt><trkpt lat="39.91667253293353" lon="8.540186580985775"><ele>4.0</ele><time>2026-05-02T07:11:19.999Z</time></trkpt><trkpt lat="39.91685305953739" lon="8.540067692894052"><ele>4.0</ele><time>2026-05-02T07:11:20.999Z</time></trkpt><trkpt lat="39.91702544631818" lon="8.53993497136842"><ele>3.6666666666666665</ele><time>2026-05-02T07:11:21.999Z</time></trkpt><trkpt lat="39.9171843770975" lon="8.53978177529241"><ele>3.333333333333333</ele><time>2026-05-02T07:11:22.999Z</time></trkpt><trkpt lat="39.91733673071435" lon="8.539611985520633"><ele>3.0</ele><time>2026-05-02T07:11:23.999Z</time></trkpt><trkpt lat="39.91748999492384" lon="8.539444384192787"><ele>3.0</ele><time>2026-05-02T07:11:24.999Z</time></trkpt><trkpt lat="39.91764784248462" lon="8.539282097667003"><ele>3.0</ele><time>2026-05-02T07:11:25.999Z</time></trkpt><trkpt lat="39.91780551219981" lon="8.539119687999277"><ele>3.0</ele><time>2026-05-02T07:11:26.999Z</time></trkpt><trkpt lat="39.9179607194836" lon="8.538957623484299"><ele>3.0</ele><time>2026-05-02T07:11:27.999Z</time></trkpt><trkpt lat="39.918114114604066" lon="8.538792556457437"><ele>3.0</ele><time>2026-05-02T07:11:28.999Z</time></trkpt><trkpt lat="39.9182663476321" lon="8.538627054400662"><ele>3.0</ele><time>2026-05-02T07:11:29.999Z</time></trkpt><trkpt lat="39.91841705883274" lon="8.538464418460904"><ele>2.6666666666666665</ele><time>2026-05-02T07:11:30.999Z</time></trkpt><trkpt lat="39.91856267864474" lon="8.53831483703623"><ele>2.333333333333333</ele><time>2026-05-02T07:11:31.999Z</time></trkpt><trkpt lat="39.918699080347956" lon="8.538182747802027"><ele>2.0</ele><time>2026-05-02T07:11:32.999Z</time></trkpt><trkpt lat="39.91882167067109" lon="8.538076981478115"><ele>2.0</ele><time>2026-05-02T07:11:33.999Z</time></trkpt><trkpt lat="39.91894351090651" lon="8.537995451795656"><ele>2.0</ele><time>2026-05-02T07:11:34.999Z</time></trkpt><trkpt lat="39.919062033698125" lon="8.537925542778556"><ele>2.0</ele><time>2026-05-02T07:11:35.999Z</time></trkpt><trkpt lat="39.9191954129936" lon="8.537964681744102"><ele>2.0</ele><time>2026-05-02T07:11:36.999Z</time></trkpt><trkpt lat="39.91930511421562" lon="8.537952664194195"><ele>2.0</ele><time>2026-05-02T07:11:37.999Z</time></trkpt><trkpt lat="39.919404041199094" lon="8.537896936214501"><ele>2.0</ele><time>2026-05-02T07:11:38.999Z</time></trkpt><trkpt lat="39.91948666665865" lon="8.537810084787386"><ele>2.0</ele><time>2026-05-02T07:11:39.999Z</time></trkpt><trkpt lat="39.919540587339746" lon="8.537699887179098"><ele>2.0</ele><time>2026-05-02T07:11:40.999Z</time></trkpt><trkpt lat="39.91956473726468" lon="8.537572368516658"><ele>2.0</ele><time>2026-05-02T07:11:41.999Z</time></trkpt><trkpt lat="39.919570648515844" lon="8.537429275968323"><ele>1.75</ele><time>2026-05-02T07:11:42.999Z</time></trkpt><trkpt lat="39.91948055026431" lon="8.537284107773583"><ele>1.5</ele><time>2026-05-02T07:11:43.999Z</time></trkpt><trkpt lat="39.91938816107799" lon="8.53715998428239"><ele>1.25</ele><time>2026-05-02T07:11:44.999Z</time></trkpt><trkpt lat="39.91929137319439" lon="8.537023537518003"><ele>1.0</ele><time>2026-05-02T07:11:45.999Z</time></trkpt><trkpt lat="39.91921401292065" lon="8.53684190709753"><ele>1.0</ele><time>2026-05-02T07:11:46.999Z</time></trkpt><trkpt lat="39.91915738711181" lon="8.536617440302805"><ele>1.0</ele><time>2026-05-02T07:11:47.999Z</time></trkpt><trkpt lat="39.91913302576984" lon="8.536362755718415"><ele>1.0</ele><time>2026-05-02T07:11:48.999Z</time></trkpt><trkpt lat="39.919071696260936" lon="8.536097849690428"><ele>1.0</ele><time>2026-05-02T07:11:49.999Z</time></trkpt><trkpt lat="39.919026631994214" lon="8.535815282278014"><ele>1.0</ele><time>2026-05-02T07:11:50.999Z</time></trkpt><trkpt lat="39.91897109765352" lon="8.53553223663561"><ele>1.0</ele><time>2026-05-02T07:11:51.999Z</time></trkpt><trkpt lat="39.91891039020183" lon="8.535243563915476"><ele>1.5</ele><time>2026-05-02T07:11:52.999Z</time></trkpt><trkpt lat="39.918853316088786" lon="8.534951371039321"><ele>2.0</ele><time>2026-05-02T07:11:53.999Z</time></trkpt><trkpt lat="39.91880150330352" lon="8.534661274952079"><ele>1.5</ele><time>2026-05-02T07:11:54.999Z</time></trkpt><trkpt lat="39.91875578115298" lon="8.534372545527907"><ele>1.0</ele><time>2026-05-02T07:11:55.999Z</time></trkpt><trkpt lat="39.91871117640284" lon="8.534084897613297"><ele>1.0</ele><time>2026-05-02T07:11:56.999Z</time></trkpt><trkpt lat="39.91866378517446" lon="8.533803464319309"><ele>1.0</ele><time>2026-05-02T07:11:57.999Z</time></trkpt><trkpt lat="39.918612510911636" lon="8.533522963423296"><ele>1.0</ele><time>2026-05-02T07:11:58.999Z</time></trkpt><trkpt lat="39.91855913799929" lon="8.533245067850636"><ele>1.0</ele><time>2026-05-02T07:11:59.999Z</time></trkpt><trkpt lat="39.91850570407253" lon="8.53296739872824"><ele>1.0</ele><time>2026-05-02T07:12:00.999Z</time></trkpt><trkpt lat="39.91845511435311" lon="8.532692342016425"><ele>1.0</ele><time>2026-05-02T07:12:01.999Z</time></trkpt><trkpt lat="39.918404557860526" lon="8.532415813072268"><ele>1.3333333333333333</ele><time>2026-05-02T07:12:03Z</time></trkpt><trkpt lat="39.91835448364774" lon="8.53214385028591"><ele>1.6666666666666665</ele><time>2026-05-02T07:12:04Z</time></trkpt><trkpt lat="39.91830347258661" lon="8.531876757822793"><ele>2.0</ele><time>2026-05-02T07:12:05Z</time></trkpt><trkpt lat="39.918255439514894" lon="8.53161317967245"><ele>2.0</ele><time>2026-05-02T07:12:06Z</time></trkpt><trkpt lat="39.91820565003205" lon="8.531353038655432"><ele>2.0</ele><time>2026-05-02T07:12:07Z</time></trkpt><trkpt lat="39.918155244682175" lon="8.531091777334316"><ele>2.0</ele><time>2026-05-02T07:12:08Z</time></trkpt><trkpt lat="39.91810554051757" lon="8.530832441307586"><ele>1.6666666666666665</ele><time>2026-05-02T07:12:09Z</time></trkpt><trkpt lat="39.918059353319556" lon="8.53056930811074"><ele>1.3333333333333333</ele><time>2026-05-02T07:12:10Z</time></trkpt><trkpt lat="39.91801897774458" lon="8.53030293125835"><ele>1.0</ele><time>2026-05-02T07:12:11Z</time></trkpt><trkpt lat="39.91798519156391" lon="8.530034469074991"><ele>1.0</ele><time>2026-05-02T07:12:12Z</time></trkpt><trkpt lat="39.91795631091888" lon="8.52976387706183"><ele>1.0</ele><time>2026-05-02T07:12:13Z</time></trkpt><trkpt lat="39.91793956478385" lon="8.529489695423397"><ele>1.0</ele><time>2026-05-02T07:12:14Z</time></trkpt><trkpt lat="39.91793600157009" lon="8.52921483703497"><ele>1.3333333333333333</ele><time>2026-05-02T07:12:15Z</time></trkpt><trkpt lat="39.91794275110769" lon="8.528940441848153"><ele>1.6666666666666665</ele><time>2026-05-02T07:12:16Z</time></trkpt><trkpt lat="39.917955634631234" lon="8.528667211160924"><ele>2.0</ele><time>2026-05-02T07:12:17Z</time></trkpt><trkpt lat="39.91798123500523" lon="8.528393292770918"><ele>2.0</ele><time>2026-05-02T07:12:18Z</time></trkpt><trkpt lat="39.91801835570874" lon="8.528121994140934"><ele>2.0</ele><time>2026-05-02T07:12:19Z</time></trkpt><trkpt lat="39.91805907176045" lon="8.527851789233067"><ele>2.0</ele><time>2026-05-02T07:12:20Z</time></trkpt><trkpt lat="39.91810685444956" lon="8.527582106476446"><ele>1.6666666666666665</ele><time>2026-05-02T07:12:21Z</time></trkpt><trkpt lat="39.918156395496766" lon="8.527315106891166"><ele>1.3333333333333333</ele><time>2026-05-02T07:12:22Z</time></trkpt><trkpt lat="39.918206507103434" lon="8.527049616481253"><ele>1.0</ele><time>2026-05-02T07:12:23Z</time></trkpt><trkpt lat="39.91825755212912" lon="8.52678702111457"><ele>1.0</ele><time>2026-05-02T07:12:24Z</time></trkpt><trkpt lat="39.91831056237233" lon="8.526526682025091"><ele>1.0</ele><time>2026-05-02T07:12:25Z</time></trkpt><trkpt lat="39.918362154153954" lon="8.52626625139066"><ele>1.0</ele><time>2026-05-02T07:12:26Z</time></trkpt><trkpt lat="39.91841533807126" lon="8.526006132352352"><ele>0.6666666666666666</ele><time>2026-05-02T07:12:27Z</time></trkpt><trkpt lat="39.91846801871022" lon="8.525747336221054"><ele>0.3333333333333333</ele><time>2026-05-02T07:12:28Z</time></trkpt><trkpt lat="39.918519746998" lon="8.525487467555687"><ele>0.0</ele><time>2026-05-02T07:12:29Z</time></trkpt><trkpt lat="39.91857174962632" lon="8.525228115708853"><ele>0.0</ele><time>2026-05-02T07:12:30Z</time></trkpt><trkpt lat="39.918622474515495" lon="8.524963920519134"><ele>0.0</ele><time>2026-05-02T07:12:31Z</time></trkpt><trkpt lat="39.91867394650908" lon="8.52469697145914"><ele>0.0</ele><time>2026-05-02T07:12:32Z</time></trkpt><trkpt lat="39.91872287800713" lon="8.524430866167881"><ele>0.0</ele><time>2026-05-02T07:12:33Z</time></trkpt><trkpt lat="39.91877340581133" lon="8.524164275155725"><ele>0.0</ele><time>2026-05-02T07:12:34Z</time></trkpt><trkpt lat="39.918821192286" lon="8.523907613711"><ele>0.0</ele><time>2026-05-02T07:12:35Z</time></trkpt><trkpt lat="39.91886559699681" lon="8.523666790244855"><ele>0.0</ele><time>2026-05-02T07:12:36Z</time></trkpt><trkpt lat="39.91890719084868" lon="8.523436088404539"><ele>0.0</ele><time>2026-05-02T07:12:37Z</time></trkpt><trkpt lat="39.918948337267246" lon="8.523202045203181"><ele>0.0</ele><time>2026-05-02T07:12:38Z</time></trkpt><trkpt lat="39.918988413341836" lon="8.52296343022045"><ele>0.0</ele><time>2026-05-02T07:12:39Z</time></trkpt><trkpt lat="39.919028048689555" lon="8.522726491085418"><ele>0.0</ele><time>2026-05-02T07:12:40Z</time></trkpt><trkpt lat="39.91906895535375" lon="8.522501624841455"><ele>0.0</ele><time>2026-05-02T07:12:41Z</time></trkpt><trkpt lat="39.91910246044049" lon="8.522284122444862"><ele>0.6666666666666666</ele><time>2026-05-02T07:12:42Z</time></trkpt><trkpt lat="39.91912088766368" lon="8.522058769326684"><ele>1.3333333333333333</ele><time>2026-05-02T07:12:43Z</time></trkpt><trkpt lat="39.91912165631454" lon="8.521843714388613"><ele>2.0</ele><time>2026-05-02T07:12:44Z</time></trkpt><trkpt lat="39.91911753694511" lon="8.52164026549297"><ele>2.0</ele><time>2026-05-02T07:12:45Z</time></trkpt><trkpt lat="39.919113887445796" lon="8.52146228334468"><ele>2.0</ele><time>2026-05-02T07:12:46Z</time></trkpt><trkpt lat="39.91912984237219" lon="8.52131084777887"><ele>2.0</ele><time>2026-05-02T07:12:47Z</time></trkpt><trkpt lat="39.919168783233786" lon="8.521167812880469"><ele>2.0</ele><time>2026-05-02T07:12:48Z</time></trkpt><trkpt lat="39.91919493263412" lon="8.521039550034848"><ele>1.75</ele><time>2026-05-02T07:12:49Z</time></trkpt><trkpt lat="39.919176337880764" lon="8.520918663159835"><ele>1.5</ele><time>2026-05-02T07:12:50Z</time></trkpt><trkpt lat="39.919127217374935" lon="8.520798872413382"><ele>1.25</ele><time>2026-05-02T07:12:51Z</time></trkpt><trkpt lat="39.91903804439873" lon="8.520678544751535"><ele>1.0</ele><time>2026-05-02T07:12:52Z</time></trkpt><trkpt lat="39.91892952828814" lon="8.52054321904493"><ele>0.3333333333333333</ele><time>2026-05-02T07:12:53Z</time></trkpt><trkpt lat="39.91882555874667" lon="8.520375749449922"><ele>-0.3333333333333333</ele><time>2026-05-02T07:12:54Z</time></trkpt><trkpt lat="39.91873191672094" lon="8.52018421610379"><ele>-1.0</ele><time>2026-05-02T07:12:55Z</time></trkpt><trkpt lat="39.918640094816475" lon="8.519984137880893"><ele>-1.0</ele><time>2026-05-02T07:12:56Z</time></trkpt><trkpt lat="39.91854699650898" lon="8.51976951007609"><ele>-1.0</ele><time>2026-05-02T07:12:57Z</time></trkpt><trkpt lat="39.91845894357083" lon="8.519547311933502"><ele>-1.0</ele><time>2026-05-02T07:12:58Z</time></trkpt><trkpt lat="39.918371385594156" lon="8.519320413098876"><ele>-0.6666666666666666</ele><time>2026-05-02T07:12:59Z</time></trkpt><trkpt lat="39.918280125402234" lon="8.519084735432799"><ele>-0.3333333333333333</ele><time>2026-05-02T07:13:00Z</time></trkpt><trkpt lat="39.918186814228605" lon="8.518846841082398"><ele>0.0</ele><time>2026-05-02T07:13:01Z</time></trkpt><trkpt lat="39.918093737773326" lon="8.51860789562631"><ele>0.0</ele><time>2026-05-02T07:13:02Z</time></trkpt><trkpt lat="39.91800522202628" lon="8.518364181355276"><ele>0.0</ele><time>2026-05-02T07:13:03Z</time></trkpt><trkpt lat="39.91793789117526" lon="8.518106937993934"><ele>0.0</ele><time>2026-05-02T07:13:04Z</time></trkpt><trkpt lat="39.91790950021665" lon="8.517839597294"><ele>0.6666666666666666</ele><time>2026-05-02T07:13:05Z</time></trkpt><trkpt lat="39.91790543904114" lon="8.517570097351275"><ele>1.3333333333333333</ele><time>2026-05-02T07:13:06Z</time></trkpt><trkpt lat="39.91793095023606" lon="8.517304628507093"><ele>2.0</ele><time>2026-05-02T07:13:07Z</time></trkpt><trkpt lat="39.91798519552145" lon="8.517048516531144"><ele>2.0</ele><time>2026-05-02T07:13:07.999Z</time></trkpt><trkpt lat="39.918068841526626" lon="8.516807051196002"><ele>2.0</ele><time>2026-05-02T07:13:08.999Z</time></trkpt><trkpt lat="39.91816128265247" lon="8.516573171290885"><ele>2.0</ele><time>2026-05-02T07:13:09.999Z</time></trkpt><trkpt lat="39.9182447381293" lon="8.51633164434566"><ele>2.0</ele><time>2026-05-02T07:13:10.999Z</time></trkpt><trkpt lat="39.91832184897713" lon="8.516082751674073"><ele>2.0</ele><time>2026-05-02T07:13:11.999Z</time></trkpt><trkpt lat="39.918400651666985" lon="8.515834584473296"><ele>2.0</ele><time>2026-05-02T07:13:12.999Z</time></trkpt><trkpt lat="39.91847991844747" lon="8.515589351355127"><ele>2.0</ele><time>2026-05-02T07:13:13.999Z</time></trkpt><trkpt lat="39.9185555521664" lon="8.515346773646932"><ele>2.0</ele><time>2026-05-02T07:13:14.999Z</time></trkpt><trkpt lat="39.91862681849108" lon="8.515110182311163"><ele>2.0</ele><time>2026-05-02T07:13:15.999Z</time></trkpt><trkpt lat="39.91869615902237" lon="8.514895854435498"><ele>2.0</ele><time>2026-05-02T07:13:16.999Z</time></trkpt><trkpt lat="39.9187606528762" lon="8.514694346455116"><ele>2.0</ele><time>2026-05-02T07:13:17.999Z</time></trkpt><trkpt lat="39.91882232996865" lon="8.514492929090222"><ele>2.0</ele><time>2026-05-02T07:13:18.999Z</time></trkpt><trkpt lat="39.91885987992909" lon="8.514272921370008"><ele>2.0</ele><time>2026-05-02T07:13:19.999Z</time></trkpt><trkpt lat="39.91884817307499" lon="8.514031626590803"><ele>2.0</ele><time>2026-05-02T07:13:20.999Z</time></trkpt><trkpt lat="39.918808347611694" lon="8.513773425078055"><ele>2.0</ele><time>2026-05-02T07:13:21.999Z</time></trkpt><trkpt lat="39.91877351602383" lon="8.51350353465796"><ele>2.0</ele><time>2026-05-02T07:13:22.999Z</time></trkpt><trkpt lat="39.9187456028648" lon="8.513224190540933"><ele>2.0</ele><time>2026-05-02T07:13:23.999Z</time></trkpt><trkpt lat="39.918709752910495" lon="8.512930479626714"><ele>2.0</ele><time>2026-05-02T07:13:24.999Z</time></trkpt><trkpt lat="39.91867549099952" lon="8.512623008675943"><ele>1.5</ele><time>2026-05-02T07:13:25.999Z</time></trkpt><trkpt lat="39.91865094657525" lon="8.512312999737048"><ele>1.0</ele><time>2026-05-02T07:13:26.999Z</time></trkpt><trkpt lat="39.91863008744605" lon="8.512007229499861"><ele>1.0</ele><time>2026-05-02T07:13:27.999Z</time></trkpt><trkpt lat="39.91860159586441" lon="8.511708357113033"><ele>1.0</ele><time>2026-05-02T07:13:28.999Z</time></trkpt><trkpt lat="39.918567581758026" lon="8.511416611861936"><ele>0.6666666666666666</ele><time>2026-05-02T07:13:29.999Z</time></trkpt><trkpt lat="39.91853597945789" lon="8.511130417681132"><ele>0.3333333333333333</ele><time>2026-05-02T07:13:30.999Z</time></trkpt><trkpt lat="39.91850648229684" lon="8.510848531496825"><ele>0.0</ele><time>2026-05-02T07:13:31.999Z</time></trkpt><trkpt lat="39.91847740209524" lon="8.510567699617827"><ele>0.0</ele><time>2026-05-02T07:13:32.999Z</time></trkpt><trkpt lat="39.91844988117086" lon="8.510291574527994"><ele>0.0</ele><time>2026-05-02T07:13:33.999Z</time></trkpt><trkpt lat="39.91842360701017" lon="8.510017005622343"><ele>0.0</ele><time>2026-05-02T07:13:34.999Z</time></trkpt><trkpt lat="39.918400007583514" lon="8.509743821307518"><ele>0.0</ele><time>2026-05-02T07:13:35.999Z</time></trkpt><trkpt lat="39.91838074222209" lon="8.509473200016654"><ele>0.0</ele><time>2026-05-02T07:13:36.999Z</time></trkpt><trkpt lat="39.918363470778004" lon="8.509202670745433"><ele>0.0</ele><time>2026-05-02T07:13:37.999Z</time></trkpt><trkpt lat="39.918337294313844" lon="8.508931038638314"><ele>0.3333333333333333</ele><time>2026-05-02T07:13:38.999Z</time></trkpt><trkpt lat="39.91829127484844" lon="8.508664551309309"><ele>0.6666666666666666</ele><time>2026-05-02T07:13:39.999Z</time></trkpt><trkpt lat="39.91822994233648" lon="8.508403280980058"><ele>1.0</ele><time>2026-05-02T07:13:40.999Z</time></trkpt><trkpt lat="39.91816513121659" lon="8.508140342741736"><ele>1.3333333333333333</ele><time>2026-05-02T07:13:41.999Z</time></trkpt><trkpt lat="39.91810682479618" lon="8.507874448498757"><ele>1.6666666666666665</ele><time>2026-05-02T07:13:42.999Z</time></trkpt><trkpt lat="39.918049525189645" lon="8.507609592261964"><ele>2.0</ele><time>2026-05-02T07:13:43.999Z</time></trkpt><trkpt lat="39.917992320052036" lon="8.507352036197458"><ele>2.0</ele><time>2026-05-02T07:13:44.999Z</time></trkpt><trkpt lat="39.91793963768959" lon="8.507106489257083"><ele>2.0</ele><time>2026-05-02T07:13:45.999Z</time></trkpt><trkpt lat="39.91788897189663" lon="8.50687747794582"><ele>2.0</ele><time>2026-05-02T07:13:46.999Z</time></trkpt><trkpt lat="39.91784043934781" lon="8.506661266914618"><ele>2.333333333333333</ele><time>2026-05-02T07:13:47.999Z</time></trkpt><trkpt lat="39.91779102280419" lon="8.506446969483433"><ele>2.6666666666666665</ele><time>2026-05-02T07:13:48.999Z</time></trkpt><trkpt lat="39.91774083717133" lon="8.506236834238836"><ele>3.0</ele><time>2026-05-02T07:13:49.999Z</time></trkpt><trkpt lat="39.91768924129483" lon="8.506039305232225"><ele>3.0</ele><time>2026-05-02T07:13:50.999Z</time></trkpt><trkpt lat="39.91763236987955" lon="8.505849291260272"><ele>3.0</ele><time>2026-05-02T07:13:51.999Z</time></trkpt><trkpt lat="39.91756734478042" lon="8.505659256403264"><ele>3.0</ele><time>2026-05-02T07:13:52.999Z</time></trkpt><trkpt lat="39.917493446100266" lon="8.50546931342506"><ele>3.0</ele><time>2026-05-02T07:13:53.999Z</time></trkpt><trkpt lat="39.91741174944657" lon="8.505276325448852"><ele>3.0</ele><time>2026-05-02T07:13:54.999Z</time></trkpt><trkpt lat="39.917319569579945" lon="8.505088000473343"><ele>3.0</ele><time>2026-05-02T07:13:55.999Z</time></trkpt><trkpt lat="39.91721606029728" lon="8.504904862805075"><ele>3.0</ele><time>2026-05-02T07:13:56.999Z</time></trkpt><trkpt lat="39.917107294709126" lon="8.504719672697773"><ele>3.0</ele><time>2026-05-02T07:13:57.999Z</time></trkpt><trkpt lat="39.91698725604948" lon="8.504533657127563"><ele>3.0</ele><time>2026-05-02T07:13:58.999Z</time></trkpt><trkpt lat="39.91686362171805" lon="8.504346255081199"><ele>3.0</ele><time>2026-05-02T07:13:59.999Z</time></trkpt><trkpt lat="39.91675648617282" lon="8.50413598756516"><ele>3.0</ele><time>2026-05-02T07:14:00.999Z</time></trkpt><trkpt lat="39.91663690943554" lon="8.50393525641699"><ele>3.0</ele><time>2026-05-02T07:14:01.999Z</time></trkpt><trkpt lat="39.91651967159177" lon="8.503737573350612"><ele>3.0</ele><time>2026-05-02T07:14:02.999Z</time></trkpt><trkpt lat="39.9164101378866" lon="8.503532058306496"><ele>3.0</ele><time>2026-05-02T07:14:03.999Z</time></trkpt><trkpt lat="39.916310185067516" lon="8.503319501692452"><ele>3.0</ele><time>2026-05-02T07:14:04.999Z</time></trkpt><trkpt lat="39.91621587067126" lon="8.503102861537803"><ele>3.0</ele><time>2026-05-02T07:14:05.999Z</time></trkpt><trkpt lat="39.91615600340085" lon="8.502864317802429"><ele>3.0</ele><time>2026-05-02T07:14:06.999Z</time></trkpt><trkpt lat="39.91610518903355" lon="8.502622209978169"><ele>3.0</ele><time>2026-05-02T07:14:07.999Z</time></trkpt><trkpt lat="39.91606193141481" lon="8.502378300335616"><ele>3.0</ele><time>2026-05-02T07:14:09Z</time></trkpt><trkpt lat="39.91602669738518" lon="8.502131473791394"><ele>3.0</ele><time>2026-05-02T07:14:10Z</time></trkpt><trkpt lat="39.9160083968113" lon="8.501882089542697"><ele>3.0</ele><time>2026-05-02T07:14:11Z</time></trkpt><trkpt lat="39.916006107948306" lon="8.501632469948284"><ele>3.0</ele><time>2026-05-02T07:14:12Z</time></trkpt><trkpt lat="39.91602187885881" lon="8.501383977370821"><ele>3.0</ele><time>2026-05-02T07:14:13Z</time></trkpt><trkpt lat="39.9160489605933" lon="8.501138291357682"><ele>3.0</ele><time>2026-05-02T07:14:14Z</time></trkpt><trkpt lat="39.91608271654313" lon="8.500895374418224"><ele>3.0</ele><time>2026-05-02T07:14:15Z</time></trkpt><trkpt lat="39.91612658102417" lon="8.500654439650022"><ele>3.0</ele><time>2026-05-02T07:14:16Z</time></trkpt><trkpt lat="39.91618952626877" lon="8.500422700480872"><ele>3.0</ele><time>2026-05-02T07:14:17Z</time></trkpt><trkpt lat="39.9162720636957" lon="8.500201356884524"><ele>2.6666666666666665</ele><time>2026-05-02T07:14:18Z</time></trkpt><trkpt lat="39.91636193386641" lon="8.499986400533343"><ele>2.333333333333333</ele><time>2026-05-02T07:14:19Z</time></trkpt><trkpt lat="39.916458879677116" lon="8.499776685064385"><ele>2.0</ele><time>2026-05-02T07:14:20Z</time></trkpt><trkpt lat="39.91656724246686" lon="8.499577487635264"><ele>1.6666666666666665</ele><time>2026-05-02T07:14:21Z</time></trkpt><trkpt lat="39.91668461062344" lon="8.499386668112255"><ele>1.3333333333333333</ele><time>2026-05-02T07:14:22Z</time></trkpt><trkpt lat="39.916807797232416" lon="8.499204232933222"><ele>1.0</ele><time>2026-05-02T07:14:23Z</time></trkpt><trkpt lat="39.916928933943204" lon="8.499023472458905"><ele>0.6666666666666666</ele><time>2026-05-02T07:14:24Z</time></trkpt><trkpt lat="39.917046283807544" lon="8.49883607682529"><ele>0.3333333333333333</ele><time>2026-05-02T07:14:25Z</time></trkpt><trkpt lat="39.91715998098054" lon="8.498642208863524"><ele>0.0</ele><time>2026-05-02T07:14:26Z</time></trkpt><trkpt lat="39.917274496374986" lon="8.498450010992002"><ele>0.0</ele><time>2026-05-02T07:14:27Z</time></trkpt><trkpt lat="39.9173922526925" lon="8.498261613085049"><ele>0.0</ele><time>2026-05-02T07:14:28Z</time></trkpt><trkpt lat="39.91750974251473" lon="8.498071684382232"><ele>0.0</ele><time>2026-05-02T07:14:29Z</time></trkpt><trkpt lat="39.917626552648905" lon="8.497880472976256"><ele>0.3333333333333333</ele><time>2026-05-02T07:14:30Z</time></trkpt><trkpt lat="39.91774437170614" lon="8.497690483398452"><ele>0.6666666666666666</ele><time>2026-05-02T07:14:31Z</time></trkpt><trkpt lat="39.91786440639601" lon="8.497500859913481"><ele>1.0</ele><time>2026-05-02T07:14:32Z</time></trkpt><trkpt lat="39.91798562854043" lon="8.497310437774924"><ele>1.0</ele><time>2026-05-02T07:14:33Z</time></trkpt><trkpt lat="39.918104931908346" lon="8.497119567558746"><ele>1.0</ele><time>2026-05-02T07:14:34Z</time></trkpt><trkpt lat="39.918218210185316" lon="8.49692222521435"><ele>1.0</ele><time>2026-05-02T07:14:35Z</time></trkpt><trkpt lat="39.91832390829466" lon="8.496715620811713"><ele>1.6666666666666665</ele><time>2026-05-02T07:14:36Z</time></trkpt><trkpt lat="39.91841597909555" lon="8.496496331585936"><ele>2.3333333333333335</ele><time>2026-05-02T07:14:37Z</time></trkpt><trkpt lat="39.918494568222584" lon="8.496265036376062"><ele>3.0</ele><time>2026-05-02T07:14:38Z</time></trkpt><trkpt lat="39.918561266798605" lon="8.49602597821715"><ele>3.0</ele><time>2026-05-02T07:14:39Z</time></trkpt><trkpt lat="39.91861819430454" lon="8.495782829672633"><ele>3.0</ele><time>2026-05-02T07:14:40Z</time></trkpt><trkpt lat="39.91866182374227" lon="8.49553626250035"><ele>3.0</ele><time>2026-05-02T07:14:41Z</time></trkpt><trkpt lat="39.91868772788029" lon="8.49528692281271"><ele>2.6666666666666665</ele><time>2026-05-02T07:14:42Z</time></trkpt><trkpt lat="39.91869852030809" lon="8.495036516983287"><ele>2.333333333333333</ele><time>2026-05-02T07:14:43Z</time></trkpt><trkpt lat="39.91869791594314" lon="8.494785535880053"><ele>2.0</ele><time>2026-05-02T07:14:44Z</time></trkpt><trkpt lat="39.91868646539237" lon="8.494539818469704"><ele>2.0</ele><time>2026-05-02T07:14:45Z</time></trkpt><trkpt lat="39.91866252664758" lon="8.494297845017417"><ele>2.0</ele><time>2026-05-02T07:14:46Z</time></trkpt><trkpt lat="39.91862302907438" lon="8.494059033987307"><ele>2.0</ele><time>2026-05-02T07:14:47Z</time></trkpt><trkpt lat="39.91856999710177" lon="8.493823506368235"><ele>1.6666666666666665</ele><time>2026-05-02T07:14:48Z</time></trkpt><trkpt lat="39.91850478969492" lon="8.493592123207183"><ele>1.3333333333333333</ele><time>2026-05-02T07:14:49Z</time></trkpt><trkpt lat="39.91842845254477" lon="8.493367340920694"><ele>1.0</ele><time>2026-05-02T07:14:50Z</time></trkpt><trkpt lat="39.91834473444776" lon="8.493145527749764"><ele>1.0</ele><time>2026-05-02T07:14:51Z</time></trkpt><trkpt lat="39.91825984590882" lon="8.492927519510356"><ele>1.0</ele><time>2026-05-02T07:14:52Z</time></trkpt><trkpt lat="39.91818069782486" lon="8.492730093418691"><ele>1.0</ele><time>2026-05-02T07:14:53Z</time></trkpt><trkpt lat="39.91811796570863" lon="8.492566250074423"><ele>1.0</ele><time>2026-05-02T07:14:54Z</time></trkpt><trkpt lat="39.918075017012114" lon="8.492442821192027"><ele>1.0</ele><time>2026-05-02T07:14:55Z</time></trkpt><trkpt lat="39.9180599729927" lon="8.492345183344243"><ele>1.0</ele><time>2026-05-02T07:14:56Z</time></trkpt><trkpt lat="39.91809377506363" lon="8.492254984289609"><ele>1.0</ele><time>2026-05-02T07:14:57Z</time></trkpt><trkpt lat="39.918126433395074" lon="8.492127143153718"><ele>1.0</ele><time>2026-05-02T07:14:58Z</time></trkpt><trkpt lat="39.91819396701096" lon="8.491985637665877"><ele>1.0</ele><time>2026-05-02T07:14:59Z</time></trkpt><trkpt lat="39.91826936914021" lon="8.491824248841132"><ele>1.0</ele><time>2026-05-02T07:15:00Z</time></trkpt><trkpt lat="39.91835041636067" lon="8.491649414928105"><ele>1.0</ele><time>2026-05-02T07:15:01Z</time></trkpt><trkpt lat="39.918442146022535" lon="8.491466393564199"><ele>1.0</ele><time>2026-05-02T07:15:02Z</time></trkpt><trkpt lat="39.918539224688466" lon="8.491272077434681"><ele>1.0</ele><time>2026-05-02T07:15:03Z</time></trkpt><trkpt lat="39.918625403900016" lon="8.491098994374962"><ele>1.0</ele><time>2026-05-02T07:15:04Z</time></trkpt><trkpt lat="39.9187036101226" lon="8.490949551741657"><ele>1.0</ele><time>2026-05-02T07:15:05Z</time></trkpt><trkpt lat="39.91877692256124" lon="8.490812129428468"><ele>1.0</ele><time>2026-05-02T07:15:06Z</time></trkpt><trkpt lat="39.91882886452426" lon="8.49067614997023"><ele>1.0</ele><time>2026-05-02T07:15:07Z</time></trkpt><trkpt lat="39.91885900169661" lon="8.49053447412859"><ele>1.0</ele><time>2026-05-02T07:15:08Z</time></trkpt><trkpt lat="39.91887152660499" lon="8.490365895939917"><ele>1.3333333333333333</ele><time>2026-05-02T07:15:09Z</time></trkpt><trkpt lat="39.91887360201312" lon="8.490169752837287"><ele>1.6666666666666665</ele><time>2026-05-02T07:15:10Z</time></trkpt><trkpt lat="39.918883426453576" lon="8.489955431042388"><ele>2.0</ele><time>2026-05-02T07:15:10.999Z</time></trkpt><trkpt lat="39.91890796216698" lon="8.489735459638617"><ele>1.6666666666666665</ele><time>2026-05-02T07:15:11.999Z</time></trkpt><trkpt lat="39.918946950713426" lon="8.489514813641598"><ele>1.3333333333333333</ele><time>2026-05-02T07:15:12.999Z</time></trkpt><trkpt lat="39.91899687467584" lon="8.489299070254605"><ele>1.0</ele><time>2026-05-02T07:15:13.999Z</time></trkpt><trkpt lat="39.91905207118092" lon="8.489085312120904"><ele>1.0</ele><time>2026-05-02T07:15:14.999Z</time></trkpt><trkpt lat="39.91909930709436" lon="8.488867423669744"><ele>1.0</ele><time>2026-05-02T07:15:15.999Z</time></trkpt><trkpt lat="39.919139037538045" lon="8.488643468828531"><ele>1.0</ele><time>2026-05-02T07:15:16.999Z</time></trkpt><trkpt lat="39.919177449620555" lon="8.488416870634069"><ele>1.0</ele><time>2026-05-02T07:15:17.999Z</time></trkpt><trkpt lat="39.919216329732635" lon="8.488190231225467"><ele>1.0</ele><time>2026-05-02T07:15:18.999Z</time></trkpt><trkpt lat="39.919251045880685" lon="8.48796183364064"><ele>1.0</ele><time>2026-05-02T07:15:19.999Z</time></trkpt><trkpt lat="39.91928247482317" lon="8.487727411269944"><ele>1.0</ele><time>2026-05-02T07:15:20.999Z</time></trkpt><trkpt lat="39.919297949514934" lon="8.48749710685548"><ele>1.0</ele><time>2026-05-02T07:15:21.999Z</time></trkpt><trkpt lat="39.919318310153805" lon="8.487263234264253"><ele>1.0</ele><time>2026-05-02T07:15:22.999Z</time></trkpt><trkpt lat="39.919342437773885" lon="8.487041379212084"><ele>0.6666666666666666</ele><time>2026-05-02T07:15:23.999Z</time></trkpt><trkpt lat="39.9193696895801" lon="8.48680642225577"><ele>0.3333333333333333</ele><time>2026-05-02T07:15:24.999Z</time></trkpt><trkpt lat="39.919408841369304" lon="8.486568665691204"><ele>0.0</ele><time>2026-05-02T07:15:25.999Z</time></trkpt><trkpt lat="39.91945421932624" lon="8.486335507448437"><ele>0.3333333333333333</ele><time>2026-05-02T07:15:26.999Z</time></trkpt><trkpt lat="39.91949525109575" lon="8.486101666125647"><ele>0.6666666666666666</ele><time>2026-05-02T07:15:27.999Z</time></trkpt><trkpt lat="39.91952716827505" lon="8.485857327218664"><ele>1.0</ele><time>2026-05-02T07:15:28.999Z</time></trkpt><trkpt lat="39.919544708067896" lon="8.485628734743615"><ele>1.0</ele><time>2026-05-02T07:15:29.999Z</time></trkpt><trkpt lat="39.91956003143079" lon="8.485412956190252"><ele>1.0</ele><time>2026-05-02T07:15:30.999Z</time></trkpt><trkpt lat="39.91957502585696" lon="8.48519275097076"><ele>1.0</ele><time>2026-05-02T07:15:31.999Z</time></trkpt><trkpt lat="39.91959601130699" lon="8.484969559195914"><ele>1.0</ele><time>2026-05-02T07:15:32.999Z</time></trkpt><trkpt lat="39.9196183612611" lon="8.48474084639405"><ele>1.0</ele><time>2026-05-02T07:15:33.999Z</time></trkpt><trkpt lat="39.91965835062009" lon="8.484510982383126"><ele>1.0</ele><time>2026-05-02T07:15:34.999Z</time></trkpt><trkpt lat="39.9196908180211" lon="8.484270822815928"><ele>1.0</ele><time>2026-05-02T07:15:35.999Z</time></trkpt><trkpt lat="39.91971921183601" lon="8.484022928534351"><ele>1.0</ele><time>2026-05-02T07:15:36.999Z</time></trkpt><trkpt lat="39.919739448266064" lon="8.483770393256183"><ele>1.0</ele><time>2026-05-02T07:15:37.999Z</time></trkpt><trkpt lat="39.9197484327185" lon="8.483515699974177"><ele>1.0</ele><time>2026-05-02T07:15:38.999Z</time></trkpt><trkpt lat="39.91978240965389" lon="8.48326292300978"><ele>1.0</ele><time>2026-05-02T07:15:39.999Z</time></trkpt><trkpt lat="39.91981221068278" lon="8.483026171029502"><ele>1.0</ele><time>2026-05-02T07:15:40.999Z</time></trkpt><trkpt lat="39.91984132408971" lon="8.482796540934007"><ele>1.0</ele><time>2026-05-02T07:15:41.999Z</time></trkpt><trkpt lat="39.919869325755066" lon="8.4825538164544"><ele>1.0</ele><time>2026-05-02T07:15:42.999Z</time></trkpt><trkpt lat="39.91989561632565" lon="8.482308110977577"><ele>1.0</ele><time>2026-05-02T07:15:43.999Z</time></trkpt><trkpt lat="39.919933692880036" lon="8.482049295145732"><ele>1.0</ele><time>2026-05-02T07:15:44.999Z</time></trkpt><trkpt lat="39.919969096344964" lon="8.481789686304088"><ele>1.0</ele><time>2026-05-02T07:15:45.999Z</time></trkpt><trkpt lat="39.92000358961048" lon="8.481539241310822"><ele>1.0</ele><time>2026-05-02T07:15:46.999Z</time></trkpt><trkpt lat="39.9200379350239" lon="8.481311694481779"><ele>1.0</ele><time>2026-05-02T07:15:47.999Z</time></trkpt><trkpt lat="39.92006665885934" lon="8.48109246822809"><ele>1.0</ele><time>2026-05-02T07:15:48.999Z</time></trkpt><trkpt lat="39.92007790815632" lon="8.480892534837329"><ele>1.0</ele><time>2026-05-02T07:15:49.999Z</time></trkpt><trkpt lat="39.92007978887418" lon="8.480679456257112"><ele>1.0</ele><time>2026-05-02T07:15:50.999Z</time></trkpt><trkpt lat="39.92007249180476" lon="8.480460008080534"><ele>1.0</ele><time>2026-05-02T07:15:51.999Z</time></trkpt><trkpt lat="39.92006877216582" lon="8.480234422159192"><ele>1.0</ele><time>2026-05-02T07:15:52.999Z</time></trkpt><trkpt lat="39.920069997030915" lon="8.480032704052574"><ele>1.25</ele><time>2026-05-02T07:15:53.999Z</time></trkpt><trkpt lat="39.92005244701504" lon="8.479847431576026"><ele>1.5</ele><time>2026-05-02T07:15:54.999Z</time></trkpt><trkpt lat="39.920029213096534" lon="8.47967309647116"><ele>1.75</ele><time>2026-05-02T07:15:55.999Z</time></trkpt><trkpt lat="39.92001222483757" lon="8.479507982793091"><ele>2.0</ele><time>2026-05-02T07:15:56.999Z</time></trkpt><trkpt lat="39.920016984891205" lon="8.47934099398967"><ele>2.0</ele><time>2026-05-02T07:15:57.999Z</time></trkpt><trkpt lat="39.920040326791295" lon="8.479164069955404"><ele>2.0</ele><time>2026-05-02T07:15:58.999Z</time></trkpt><trkpt lat="39.92006290026011" lon="8.478979621493995"><ele>2.0</ele><time>2026-05-02T07:15:59.999Z</time></trkpt><trkpt lat="39.920071969771044" lon="8.478785063649772"><ele>2.0</ele><time>2026-05-02T07:16:00.999Z</time></trkpt><trkpt lat="39.92007261929813" lon="8.478582560288801"><ele>2.0</ele><time>2026-05-02T07:16:01.999Z</time></trkpt><trkpt lat="39.9200712862292" lon="8.478373020847016"><ele>2.0</ele><time>2026-05-02T07:16:02.999Z</time></trkpt><trkpt lat="39.92006624549986" lon="8.478155037905475"><ele>2.0</ele><time>2026-05-02T07:16:03.999Z</time></trkpt><trkpt lat="39.920056970395855" lon="8.477930448401821"><ele>2.0</ele><time>2026-05-02T07:16:04.999Z</time></trkpt><trkpt lat="39.92005019956886" lon="8.477701118805449"><ele>2.0</ele><time>2026-05-02T07:16:05.999Z</time></trkpt><trkpt lat="39.920050084859824" lon="8.4774766550186"><ele>2.0</ele><time>2026-05-02T07:16:06.999Z</time></trkpt><trkpt lat="39.92004740149196" lon="8.477250677941646"><ele>2.0</ele><time>2026-05-02T07:16:07.999Z</time></trkpt><trkpt lat="39.920031498763784" lon="8.477030140267534"><ele>2.0</ele><time>2026-05-02T07:16:08.999Z</time></trkpt><trkpt lat="39.92001791211652" lon="8.476809052059538"><ele>2.0</ele><time>2026-05-02T07:16:09.999Z</time></trkpt><trkpt lat="39.92003301275659" lon="8.476574193350002"><ele>2.0</ele><time>2026-05-02T07:16:10.999Z</time></trkpt><trkpt lat="39.92001666121673" lon="8.476338923436677"><ele>2.0</ele><time>2026-05-02T07:16:11.999Z</time></trkpt><trkpt lat="39.92001678431851" lon="8.476098168355799"><ele>2.0</ele><time>2026-05-02T07:16:12.999Z</time></trkpt><trkpt lat="39.920020123203656" lon="8.475861943051187"><ele>2.0</ele><time>2026-05-02T07:16:13.999Z</time></trkpt><trkpt lat="39.920022101703864" lon="8.475640810722858"><ele>2.0</ele><time>2026-05-02T07:16:15Z</time></trkpt><trkpt lat="39.92002134427322" lon="8.475406701593966"><ele>2.0</ele><time>2026-05-02T07:16:16Z</time></trkpt><trkpt lat="39.92002845430302" lon="8.475169859169593"><ele>2.333333333333333</ele><time>2026-05-02T07:16:17Z</time></trkpt><trkpt lat="39.92003158918837" lon="8.47493347796298"><ele>2.6666666666666665</ele><time>2026-05-02T07:16:18Z</time></trkpt><trkpt lat="39.92003394421709" lon="8.474715384142787"><ele>3.0</ele><time>2026-05-02T07:16:19Z</time></trkpt><trkpt lat="39.92003692229689" lon="8.474518351768307"><ele>3.0</ele><time>2026-05-02T07:16:20Z</time></trkpt><trkpt lat="39.920036417118645" lon="8.474333664768753"><ele>3.0</ele><time>2026-05-02T07:16:21Z</time></trkpt><trkpt lat="39.920036694361315" lon="8.474159476615958"><ele>3.0</ele><time>2026-05-02T07:16:22Z</time></trkpt><trkpt lat="39.92005390139448" lon="8.473975792145879"><ele>3.0</ele><time>2026-05-02T07:16:23Z</time></trkpt><trkpt lat="39.9200799217191" lon="8.47379133046452"><ele>2.75</ele><time>2026-05-02T07:16:24Z</time></trkpt><trkpt lat="39.920107050127314" lon="8.473607306711394"><ele>2.5</ele><time>2026-05-02T07:16:25Z</time></trkpt><trkpt lat="39.92012426253013" lon="8.473411326126694"><ele>2.25</ele><time>2026-05-02T07:16:26Z</time></trkpt><trkpt lat="39.92012623532689" lon="8.473214563359484"><ele>2.0</ele><time>2026-05-02T07:16:27Z</time></trkpt><trkpt lat="39.920110811415654" lon="8.473013912247854"><ele>2.0</ele><time>2026-05-02T07:16:28Z</time></trkpt><trkpt lat="39.920084569950454" lon="8.472811988553355"><ele>2.0</ele><time>2026-05-02T07:16:29Z</time></trkpt><trkpt lat="39.92006228402434" lon="8.472607605838679"><ele>2.0</ele><time>2026-05-02T07:16:30Z</time></trkpt><trkpt lat="39.9200586025325" lon="8.472403445985426"><ele>2.0</ele><time>2026-05-02T07:16:31Z</time></trkpt><trkpt lat="39.920067705230494" lon="8.472191445220298"><ele>2.0</ele><time>2026-05-02T07:16:32Z</time></trkpt><trkpt lat="39.920077631814024" lon="8.471980201194704"><ele>2.0</ele><time>2026-05-02T07:16:33Z</time></trkpt><trkpt lat="39.92010009098874" lon="8.471771063189443"><ele>2.0</ele><time>2026-05-02T07:16:34Z</time></trkpt><trkpt lat="39.920091924885824" lon="8.471557458913793"><ele>2.0</ele><time>2026-05-02T07:16:35Z</time></trkpt><trkpt lat="39.92010262170045" lon="8.471344553726073"><ele>2.0</ele><time>2026-05-02T07:16:36Z</time></trkpt><trkpt lat="39.92010715758555" lon="8.471127074890067"><ele>2.0</ele><time>2026-05-02T07:16:37Z</time></trkpt><trkpt lat="39.92010710687247" lon="8.470907162491647"><ele>2.0</ele><time>2026-05-02T07:16:38Z</time></trkpt><trkpt lat="39.920103022998525" lon="8.470691448883636"><ele>2.0</ele><time>2026-05-02T07:16:39Z</time></trkpt><trkpt lat="39.92008590117802" lon="8.470484762128395"><ele>1.6666666666666665</ele><time>2026-05-02T07:16:40Z</time></trkpt><trkpt lat="39.9200540628602" lon="8.470283352024659"><ele>1.3333333333333333</ele><time>2026-05-02T07:16:41Z</time></trkpt><trkpt lat="39.920019548594205" lon="8.470093138048403"><ele>1.0</ele><time>2026-05-02T07:16:42Z</time></trkpt><trkpt lat="39.919994229597734" lon="8.469892371986674"><ele>1.0</ele><time>2026-05-02T07:16:43Z</time></trkpt><trkpt lat="39.91997662067399" lon="8.469687084752541"><ele>1.0</ele><time>2026-05-02T07:16:44Z</time></trkpt><trkpt lat="39.919986168367274" lon="8.469503020908896"><ele>1.0</ele><time>2026-05-02T07:16:45Z</time></trkpt><trkpt lat="39.919958840956085" lon="8.469330161694899"><ele>1.0</ele><time>2026-05-02T07:16:46Z</time></trkpt><trkpt lat="39.91995772592104" lon="8.469162439044537"><ele>1.0</ele><time>2026-05-02T07:16:47Z</time></trkpt><trkpt lat="39.919966690182555" lon="8.468976629562734"><ele>1.0</ele><time>2026-05-02T07:16:48Z</time></trkpt><trkpt lat="39.919977469971236" lon="8.468785246414775"><ele>1.0</ele><time>2026-05-02T07:16:49Z</time></trkpt><trkpt lat="39.919987397938755" lon="8.468591477704523"><ele>1.0</ele><time>2026-05-02T07:16:50Z</time></trkpt><trkpt lat="39.91999232944703" lon="8.468409118004061"><ele>1.25</ele><time>2026-05-02T07:16:51Z</time></trkpt><trkpt lat="39.9200000356815" lon="8.46824381018198"><ele>1.5</ele><time>2026-05-02T07:16:52Z</time></trkpt><trkpt lat="39.92001077726196" lon="8.468086646363327"><ele>1.75</ele><time>2026-05-02T07:16:53Z</time></trkpt><trkpt lat="39.9200148238712" lon="8.467937548453072"><ele>2.0</ele><time>2026-05-02T07:16:54Z</time></trkpt><trkpt lat="39.92000248009197" lon="8.46780166764593"><ele>2.0</ele><time>2026-05-02T07:16:55Z</time></trkpt><trkpt lat="39.91997526470957" lon="8.467674579600232"><ele>2.0</ele><time>2026-05-02T07:16:56Z</time></trkpt><trkpt lat="39.91993333430841" lon="8.467560052466482"><ele>2.0</ele><time>2026-05-02T07:16:57Z</time></trkpt><trkpt lat="39.91989341594208" lon="8.46743960840341"><ele>2.0</ele><time>2026-05-02T07:16:58Z</time></trkpt><trkpt lat="39.9198192579799" lon="8.467340409218702"><ele>2.0</ele><time>2026-05-02T07:16:59Z</time></trkpt><trkpt lat="39.919754092265364" lon="8.467253117968319"><ele>2.0</ele><time>2026-05-02T07:17:00Z</time></trkpt><trkpt lat="39.919704733036426" lon="8.467166832189047"><ele>2.0</ele><time>2026-05-02T07:17:01Z</time></trkpt><trkpt lat="39.919659733660446" lon="8.46706300916975"><ele>2.0</ele><time>2026-05-02T07:17:02Z</time></trkpt><trkpt lat="39.91960962265885" lon="8.46693261526297"><ele>2.0</ele><time>2026-05-02T07:17:03Z</time></trkpt><trkpt lat="39.91955471582403" lon="8.466783074109507"><ele>2.0</ele><time>2026-05-02T07:17:04Z</time></trkpt><trkpt lat="39.919497474671054" lon="8.46662228454857"><ele>2.0</ele><time>2026-05-02T07:17:05Z</time></trkpt><trkpt lat="39.91943875226906" lon="8.466456797640625"><ele>2.0</ele><time>2026-05-02T07:17:06Z</time></trkpt><trkpt lat="39.91936583958461" lon="8.46629863115855"><ele>2.0</ele><time>2026-05-02T07:17:07Z</time></trkpt><trkpt lat="39.919302909004884" lon="8.466133789169275"><ele>2.0</ele><time>2026-05-02T07:17:08Z</time></trkpt><trkpt lat="39.919242878045814" lon="8.46596627099468"><ele>2.0</ele><time>2026-05-02T07:17:09Z</time></trkpt><trkpt lat="39.919181182742804" lon="8.465798357543123"><ele>2.0</ele><time>2026-05-02T07:17:10Z</time></trkpt><trkpt lat="39.91912249047849" lon="8.46562589366487"><ele>2.0</ele><time>2026-05-02T07:17:11Z</time></trkpt><trkpt lat="39.91909295866677" lon="8.465447786700123"><ele>2.0</ele><time>2026-05-02T07:17:12Z</time></trkpt><trkpt lat="39.919057968507836" lon="8.465267261548119"><ele>2.0</ele><time>2026-05-02T07:17:13Z</time></trkpt><trkpt lat="39.919014636185075" lon="8.465077556902875"><ele>2.0</ele><time>2026-05-02T07:17:13.999Z</time></trkpt><trkpt lat="39.91899547668452" lon="8.464868297796517"><ele>2.0</ele><time>2026-05-02T07:17:14.999Z</time></trkpt><trkpt lat="39.91897757198152" lon="8.4646482095763"><ele>1.6666666666666665</ele><time>2026-05-02T07:17:15.999Z</time></trkpt><trkpt lat="39.918964134962394" lon="8.464418273898662"><ele>1.3333333333333333</ele><time>2026-05-02T07:17:16.999Z</time></trkpt><trkpt lat="39.91896177929647" lon="8.464186457546392"><ele>1.0</ele><time>2026-05-02T07:17:17.999Z</time></trkpt><trkpt lat="39.91896491948828" lon="8.46395941067346"><ele>1.3333333333333333</ele><time>2026-05-02T07:17:18.999Z</time></trkpt><trkpt lat="39.918974522365616" lon="8.46373126966639"><ele>1.6666666666666665</ele><time>2026-05-02T07:17:19.999Z</time></trkpt><trkpt lat="39.91899388722738" lon="8.463502458772641"><ele>2.0</ele><time>2026-05-02T07:17:20.999Z</time></trkpt><trkpt lat="39.91901755888277" lon="8.463273024672029"><ele>2.0</ele><time>2026-05-02T07:17:21.999Z</time></trkpt><trkpt lat="39.9190405556932" lon="8.463046925426974"><ele>2.0</ele><time>2026-05-02T07:17:22.999Z</time></trkpt><trkpt lat="39.91906112629483" lon="8.462834679167928"><ele>2.0</ele><time>2026-05-02T07:17:23.999Z</time></trkpt><trkpt lat="39.91907845328911" lon="8.462612937976662"><ele>2.0</ele><time>2026-05-02T07:17:24.999Z</time></trkpt><trkpt lat="39.919095317100854" lon="8.462383951338145"><ele>2.0</ele><time>2026-05-02T07:17:25.999Z</time></trkpt><trkpt lat="39.919111198884764" lon="8.462152251801674"><ele>2.0</ele><time>2026-05-02T07:17:26.999Z</time></trkpt><trkpt lat="39.91912387749975" lon="8.461916439325496"><ele>2.333333333333333</ele><time>2026-05-02T07:17:27.999Z</time></trkpt><trkpt lat="39.919136532489134" lon="8.461678239116228"><ele>2.6666666666666665</ele><time>2026-05-02T07:17:28.999Z</time></trkpt><trkpt lat="39.91914045173346" lon="8.461438894671923"><ele>3.0</ele><time>2026-05-02T07:17:29.999Z</time></trkpt><trkpt lat="39.919143914872535" lon="8.461197124296593"><ele>3.0</ele><time>2026-05-02T07:17:30.999Z</time></trkpt><trkpt lat="39.91914739728441" lon="8.460954499626942"><ele>3.0</ele><time>2026-05-02T07:17:31.999Z</time></trkpt><trkpt lat="39.91915137370263" lon="8.460711342233568"><ele>3.0</ele><time>2026-05-02T07:17:32.999Z</time></trkpt><trkpt lat="39.91915718824055" lon="8.460464296682025"><ele>3.333333333333333</ele><time>2026-05-02T07:17:33.999Z</time></trkpt><trkpt lat="39.919163630027136" lon="8.46021881098283"><ele>3.6666666666666665</ele><time>2026-05-02T07:17:34.999Z</time></trkpt><trkpt lat="39.919166104944864" lon="8.45997199393335"><ele>4.0</ele><time>2026-05-02T07:17:35.999Z</time></trkpt><trkpt lat="39.91916991577723" lon="8.459726757890323"><ele>3.6666666666666665</ele><time>2026-05-02T07:17:36.999Z</time></trkpt><trkpt lat="39.91917502948344" lon="8.459483145374625"><ele>3.333333333333333</ele><time>2026-05-02T07:17:37.999Z</time></trkpt><trkpt lat="39.91918024295917" lon="8.459238439580698"><ele>3.0</ele><time>2026-05-02T07:17:38.999Z</time></trkpt><trkpt lat="39.91918488711249" lon="8.458994630677411"><ele>2.6666666666666665</ele><time>2026-05-02T07:17:39.999Z</time></trkpt><trkpt lat="39.91918784401157" lon="8.458751552343275"><ele>2.333333333333333</ele><time>2026-05-02T07:17:40.999Z</time></trkpt><trkpt lat="39.919190994068025" lon="8.458530178324416"><ele>2.0</ele><time>2026-05-02T07:17:41.999Z</time></trkpt><trkpt lat="39.91919121452765" lon="8.458309346716842"><ele>2.0</ele><time>2026-05-02T07:17:42.999Z</time></trkpt><trkpt lat="39.91919056545401" lon="8.458092039667324"><ele>2.0</ele><time>2026-05-02T07:17:43.999Z</time></trkpt><trkpt lat="39.91920772902766" lon="8.457896280471296"><ele>2.0</ele><time>2026-05-02T07:17:44.999Z</time></trkpt><trkpt lat="39.919197381001915" lon="8.457693796276077"><ele>2.0</ele><time>2026-05-02T07:17:45.999Z</time></trkpt><trkpt lat="39.91922002321774" lon="8.457476198380698"><ele>2.0</ele><time>2026-05-02T07:17:46.999Z</time></trkpt><trkpt lat="39.919225503407844" lon="8.45725563826848"><ele>2.0</ele><time>2026-05-02T07:17:47.999Z</time></trkpt><trkpt lat="39.91922902486635" lon="8.457032298577458"><ele>2.0</ele><time>2026-05-02T07:17:48.999Z</time></trkpt><trkpt lat="39.91923051710629" lon="8.456808073729368"><ele>2.0</ele><time>2026-05-02T07:17:49.999Z</time></trkpt><trkpt lat="39.91923149803459" lon="8.456578770265628"><ele>2.0</ele><time>2026-05-02T07:17:50.999Z</time></trkpt><trkpt lat="39.919230901415986" lon="8.456347645065684"><ele>2.0</ele><time>2026-05-02T07:17:51.999Z</time></trkpt><trkpt lat="39.91923159368363" lon="8.45612108145494"><ele>2.0</ele><time>2026-05-02T07:17:52.999Z</time></trkpt><trkpt lat="39.91924475817603" lon="8.45589119494118"><ele>2.0</ele><time>2026-05-02T07:17:53.999Z</time></trkpt><trkpt lat="39.91925285274743" lon="8.455651273660989"><ele>2.333333333333333</ele><time>2026-05-02T07:17:54.999Z</time></trkpt><trkpt lat="39.91927417518095" lon="8.45541396692348"><ele>2.6666666666666665</ele><time>2026-05-02T07:17:55.999Z</time></trkpt><trkpt lat="39.91929109834828" lon="8.4551794108992"><ele>3.0</ele><time>2026-05-02T07:17:56.999Z</time></trkpt><trkpt lat="39.91931743670987" lon="8.454959740518968"><ele>3.0</ele><time>2026-05-02T07:17:57.999Z</time></trkpt><trkpt lat="39.91935433117129" lon="8.454727856196348"><ele>3.0</ele><time>2026-05-02T07:17:58.999Z</time></trkpt><trkpt lat="39.91938757066384" lon="8.454499003583495"><ele>3.0</ele><time>2026-05-02T07:17:59.999Z</time></trkpt><trkpt lat="39.91940845135824" lon="8.454282790818109"><ele>3.0</ele><time>2026-05-02T07:18:00.999Z</time></trkpt><trkpt lat="39.91941503609335" lon="8.454078472241076"><ele>3.0</ele><time>2026-05-02T07:18:01.999Z</time></trkpt><trkpt lat="39.919410732257326" lon="8.453886713088185"><ele>3.0</ele><time>2026-05-02T07:18:02.999Z</time></trkpt><trkpt lat="39.91940723384653" lon="8.453701593810734"><ele>3.0</ele><time>2026-05-02T07:18:03.999Z</time></trkpt><trkpt lat="39.9194079518688" lon="8.453532223927493"><ele>3.25</ele><time>2026-05-02T07:18:04.999Z</time></trkpt><trkpt lat="39.9194218385052" lon="8.453371762291162"><ele>3.5</ele><time>2026-05-02T07:18:05.999Z</time></trkpt><trkpt lat="39.919447727506615" lon="8.453215529396145"><ele>3.75</ele><time>2026-05-02T07:18:06.999Z</time></trkpt><trkpt lat="39.91947778062483" lon="8.453066088053504"><ele>4.0</ele><time>2026-05-02T07:18:07.999Z</time></trkpt><trkpt lat="39.919514125514006" lon="8.452938704330752"><ele>4.333333333333333</ele><time>2026-05-02T07:18:08.999Z</time></trkpt><trkpt lat="39.919550462187985" lon="8.452834307835632"><ele>4.666666666666666</ele><time>2026-05-02T07:18:09.999Z</time></trkpt><trkpt lat="39.91957915619738" lon="8.45275921102487"><ele>5.0</ele><time>2026-05-02T07:18:10.999Z</time></trkpt><trkpt lat="39.919637630918785" lon="8.452635046600017"><ele>5.333333333333333</ele><time>2026-05-02T07:18:12.999Z</time></trkpt><trkpt lat="39.91968733734591" lon="8.45251533679274"><ele>5.666666666666667</ele><time>2026-05-02T07:18:14.999Z</time></trkpt><trkpt lat="39.919715269494375" lon="8.452440308153506"><ele>6.0</ele><time>2026-05-02T07:18:15.999Z</time></trkpt><trkpt lat="39.91975501478238" lon="8.452351517586184"><ele>6.0</ele><time>2026-05-02T07:18:16.998Z</time></trkpt><trkpt lat="39.91981937605348" lon="8.452268904042649"><ele>6.0</ele><time>2026-05-02T07:18:17.998Z</time></trkpt><trkpt lat="39.91987933000485" lon="8.452167857314105"><ele>6.0</ele><time>2026-05-02T07:18:18.998Z</time></trkpt><trkpt lat="39.919937618970486" lon="8.452058051450512"><ele>6.0</ele><time>2026-05-02T07:18:19.998Z</time></trkpt><trkpt lat="39.9199926048809" lon="8.451934714978036"><ele>6.0</ele><time>2026-05-02T07:18:21Z</time></trkpt><trkpt lat="39.9200187278663" lon="8.451797707460264"><ele>6.166666666666667</ele><time>2026-05-02T07:18:22Z</time></trkpt><trkpt lat="39.920076780226985" lon="8.45168794485068"><ele>6.333333333333334</ele><time>2026-05-02T07:18:23Z</time></trkpt><trkpt lat="39.92013567719717" lon="8.451591438591569"><ele>6.5</ele><time>2026-05-02T07:18:24Z</time></trkpt><trkpt lat="39.920194990468936" lon="8.451507056427472"><ele>6.666666666666667</ele><time>2026-05-02T07:18:25Z</time></trkpt><trkpt lat="39.92025521313941" lon="8.451431158421887"><ele>6.833333333333334</ele><time>2026-05-02T07:18:26Z</time></trkpt><trkpt lat="39.92030381100806" lon="8.451358783755085"><ele>7.0</ele><time>2026-05-02T07:18:27Z</time></trkpt><trkpt lat="39.9203549138639" lon="8.451288044081167"><ele>7.0</ele><time>2026-05-02T07:18:28Z</time></trkpt><trkpt lat="39.920377549494525" lon="8.451201024379877"><ele>6.999999999999999</ele><time>2026-05-02T07:18:29Z</time></trkpt><trkpt lat="39.920429989877064" lon="8.451083234748396"><ele>6.999999999999999</ele><time>2026-05-02T07:18:30Z</time></trkpt><trkpt lat="39.920505511357824" lon="8.451019223293796"><ele>7.0</ele><time>2026-05-02T07:18:31Z</time></trkpt><trkpt lat="39.920587018891695" lon="8.450964225997847"><ele>7.0</ele><time>2026-05-02T07:18:32Z</time></trkpt><trkpt lat="39.92068017566687" lon="8.450922584082901"><ele>7.0</ele><time>2026-05-02T07:18:33Z</time></trkpt><trkpt lat="39.92077672563495" lon="8.45090006733368"><ele>6.999999999999999</ele><time>2026-05-02T07:18:34Z</time></trkpt><trkpt lat="39.92086517772311" lon="8.450898255191209"><ele>6.999999999999999</ele><time>2026-05-02T07:18:35Z</time></trkpt><trkpt lat="39.92092932758021" lon="8.450907313216737"><ele>7.0</ele><time>2026-05-02T07:18:36Z</time></trkpt><trkpt lat="39.92105110787313" lon="8.450991480048941"><ele>7.0</ele><time>2026-05-02T07:18:38Z</time></trkpt><trkpt lat="39.9211257839709" lon="8.451030894225886"><ele>7.25</ele><time>2026-05-02T07:18:39Z</time></trkpt><trkpt lat="39.921213389791895" lon="8.451089578235571"><ele>7.5</ele><time>2026-05-02T07:18:40Z</time></trkpt><trkpt lat="39.921314856020146" lon="8.451162332457898"><ele>7.75</ele><time>2026-05-02T07:18:41Z</time></trkpt><trkpt lat="39.921425578391386" lon="8.451251281409718"><ele>8.0</ele><time>2026-05-02T07:18:42Z</time></trkpt><trkpt lat="39.92154470899891" lon="8.451352180207202"><ele>8.0</ele><time>2026-05-02T07:18:43Z</time></trkpt><trkpt lat="39.9216699827733" lon="8.451466807065627"><ele>8.0</ele><time>2026-05-02T07:18:44Z</time></trkpt><trkpt lat="39.921799744583076" lon="8.451582288925568"><ele>8.0</ele><time>2026-05-02T07:18:45Z</time></trkpt><trkpt lat="39.92192699545097" lon="8.451693441785412"><ele>8.0</ele><time>2026-05-02T07:18:46Z</time></trkpt><trkpt lat="39.92206286394994" lon="8.45180873694194"><ele>8.0</ele><time>2026-05-02T07:18:47Z</time></trkpt><trkpt lat="39.922204905888336" lon="8.451928374258179"><ele>8.0</ele><time>2026-05-02T07:18:48Z</time></trkpt><trkpt lat="39.92234706625749" lon="8.452053352534174"><ele>8.0</ele><time>2026-05-02T07:18:49Z</time></trkpt><trkpt lat="39.92248283000435" lon="8.452170181372173"><ele>8.0</ele><time>2026-05-02T07:18:50Z</time></trkpt><trkpt lat="39.92262515380003" lon="8.45229701801188"><ele>8.0</ele><time>2026-05-02T07:18:51Z</time></trkpt><trkpt lat="39.92277247941451" lon="8.452426022824882"><ele>8.0</ele><time>2026-05-02T07:18:52Z</time></trkpt><trkpt lat="39.92292413130666" lon="8.452554744797437"><ele>8.0</ele><time>2026-05-02T07:18:53Z</time></trkpt><trkpt lat="39.92307861370811" lon="8.452676249520264"><ele>8.0</ele><time>2026-05-02T07:18:54Z</time></trkpt><trkpt lat="39.923231968523474" lon="8.452791722643425"><ele>8.0</ele><time>2026-05-02T07:18:55Z</time></trkpt><trkpt lat="39.923383710645474" lon="8.452898985683325"><ele>8.0</ele><time>2026-05-02T07:18:56Z</time></trkpt><trkpt lat="39.92353518097958" lon="8.453006340713836"><ele>8.0</ele><time>2026-05-02T07:18:57Z</time></trkpt><trkpt lat="39.923688587341886" lon="8.453112162897801"><ele>9.0</ele><time>2026-05-02T07:18:58Z</time></trkpt><trkpt lat="39.923843099191274" lon="8.453220733679581"><ele>10.0</ele><time>2026-05-02T07:18:59Z</time></trkpt><trkpt lat="39.92399681973727" lon="8.453332889583496"><ele>11.0</ele><time>2026-05-02T07:19:00Z</time></trkpt><trkpt lat="39.92415005245208" lon="8.453446580237994"><ele>10.666666666666666</ele><time>2026-05-02T07:19:01Z</time></trkpt><trkpt lat="39.924303794416154" lon="8.453565084065508"><ele>10.333333333333334</ele><time>2026-05-02T07:19:02Z</time></trkpt><trkpt lat="39.92445628943063" lon="8.453686038073226"><ele>10.0</ele><time>2026-05-02T07:19:03Z</time></trkpt><trkpt lat="39.92460461230743" lon="8.453812623610334"><ele>10.0</ele><time>2026-05-02T07:19:04Z</time></trkpt><trkpt lat="39.924753609573195" lon="8.453938377414751"><ele>10.0</ele><time>2026-05-02T07:19:05Z</time></trkpt><trkpt lat="39.92490052330684" lon="8.454062536243113"><ele>10.0</ele><time>2026-05-02T07:19:06Z</time></trkpt><trkpt lat="39.92504660906547" lon="8.454185758953079"><ele>10.666666666666668</ele><time>2026-05-02T07:19:07Z</time></trkpt><trkpt lat="39.92519258660141" lon="8.454310329485784"><ele>11.333333333333334</ele><time>2026-05-02T07:19:08Z</time></trkpt><trkpt lat="39.925344796385176" lon="8.454423211932841"><ele>12.0</ele><time>2026-05-02T07:19:09Z</time></trkpt><trkpt lat="39.92550555927884" lon="8.454510399368266"><ele>12.0</ele><time>2026-05-02T07:19:10Z</time></trkpt><trkpt lat="39.92567759991483" lon="8.454567852113572"><ele>12.0</ele><time>2026-05-02T07:19:11Z</time></trkpt><trkpt lat="39.92585054335148" lon="8.454606032827964"><ele>12.0</ele><time>2026-05-02T07:19:12Z</time></trkpt><trkpt lat="39.92602825705548" lon="8.454620037430958"><ele>12.0</ele><time>2026-05-02T07:19:13Z</time></trkpt><trkpt lat="39.92620538683728" lon="8.45463519433841"><ele>12.0</ele><time>2026-05-02T07:19:14Z</time></trkpt><trkpt lat="39.92638175977073" lon="8.45465159140821"><ele>12.0</ele><time>2026-05-02T07:19:15Z</time></trkpt><trkpt lat="39.92655706627944" lon="8.454670364659874"><ele>13.333333333333332</ele><time>2026-05-02T07:19:16Z</time></trkpt><trkpt lat="39.92673039614949" lon="8.45470400320915"><ele>14.666666666666666</ele><time>2026-05-02T07:19:16.999Z</time></trkpt><trkpt lat="39.92690135582624" lon="8.454760568516743"><ele>16.0</ele><time>2026-05-02T07:19:17.999Z</time></trkpt><trkpt lat="39.92707211726834" lon="8.454821634906924"><ele>16.0</ele><time>2026-05-02T07:19:18.999Z</time></trkpt><trkpt lat="39.927242751753255" lon="8.454882205446722"><ele>16.0</ele><time>2026-05-02T07:19:19.999Z</time></trkpt><trkpt lat="39.92741526410285" lon="8.454947582356198"><ele>16.0</ele><time>2026-05-02T07:19:20.999Z</time></trkpt><trkpt lat="39.927587925809206" lon="8.455013146686293"><ele>16.666666666666664</ele><time>2026-05-02T07:19:21.999Z</time></trkpt><trkpt lat="39.92776002247301" lon="8.455079486461525"><ele>17.333333333333332</ele><time>2026-05-02T07:19:22.999Z</time></trkpt><trkpt lat="39.92793056604653" lon="8.455143878390995"><ele>18.0</ele><time>2026-05-02T07:19:23.999Z</time></trkpt><trkpt lat="39.92809801635786" lon="8.455210611030884"><ele>18.0</ele><time>2026-05-02T07:19:24.999Z</time></trkpt><trkpt lat="39.92825343309392" lon="8.455272529467752"><ele>18.0</ele><time>2026-05-02T07:19:25.999Z</time></trkpt><trkpt lat="39.92839764543279" lon="8.455328601302892"><ele>18.0</ele><time>2026-05-02T07:19:26.999Z</time></trkpt><trkpt lat="39.92852934890743" lon="8.45537877954779"><ele>18.25</ele><time>2026-05-02T07:19:27.999Z</time></trkpt><trkpt lat="39.928653705338036" lon="8.455423110589022"><ele>18.5</ele><time>2026-05-02T07:19:28.999Z</time></trkpt><trkpt lat="39.9287683379564" lon="8.45547398494945"><ele>18.75</ele><time>2026-05-02T07:19:29.999Z</time></trkpt><trkpt lat="39.92887397132037" lon="8.455517419368405"><ele>19.0</ele><time>2026-05-02T07:19:30.999Z</time></trkpt><trkpt lat="39.92896148942491" lon="8.455560684925503"><ele>19.0</ele><time>2026-05-02T07:19:31.999Z</time></trkpt><trkpt lat="39.9290351697808" lon="8.45561011945621"><ele>19.0</ele><time>2026-05-02T07:19:32.999Z</time></trkpt><trkpt lat="39.92909390255492" lon="8.455665786864108"><ele>19.0</ele><time>2026-05-02T07:19:33.999Z</time></trkpt><trkpt lat="39.9291804074643" lon="8.455715588506875"><ele>19.0</ele><time>2026-05-02T07:19:35.999Z</time></trkpt><trkpt lat="39.929268856795105" lon="8.45552882670461"><ele>19.0</ele><time>2026-05-02T07:19:36.999Z</time></trkpt><trkpt lat="39.9292860479305" lon="8.455422162577296"><ele>20.25</ele><time>2026-05-02T07:19:37.999Z</time></trkpt><trkpt lat="39.92931521516134" lon="8.45529655211612"><ele>21.5</ele><time>2026-05-02T07:19:38.999Z</time></trkpt><trkpt lat="39.92937093075427" lon="8.455167079066126"><ele>22.75</ele><time>2026-05-02T07:19:39.999Z</time></trkpt><trkpt lat="39.92943819763375" lon="8.455026460697937"><ele>24.0</ele><time>2026-05-02T07:19:40.999Z</time></trkpt><trkpt lat="39.92951143796715" lon="8.45486928083772"><ele>24.0</ele><time>2026-05-02T07:19:41.999Z</time></trkpt><trkpt lat="39.929585937300736" lon="8.454700539151995"><ele>24.0</ele><time>2026-05-02T07:19:42.999Z</time></trkpt><trkpt lat="39.92966292944841" lon="8.454525301505733"><ele>24.0</ele><time>2026-05-02T07:19:43.999Z</time></trkpt><trkpt lat="39.92973743900808" lon="8.454356339168637"><ele>25.333333333333336</ele><time>2026-05-02T07:19:44.999Z</time></trkpt><trkpt lat="39.92981668167866" lon="8.454184476824134"><ele>26.666666666666668</ele><time>2026-05-02T07:19:45.999Z</time></trkpt><trkpt lat="39.92990558919823" lon="8.454005710649051"><ele>28.0</ele><time>2026-05-02T07:19:46.999Z</time></trkpt><trkpt lat="39.93000479834588" lon="8.453826559811459"><ele>30.666666666666668</ele><time>2026-05-02T07:19:47.999Z</time></trkpt><trkpt lat="39.93010874690072" lon="8.453645778735593"><ele>33.333333333333336</ele><time>2026-05-02T07:19:48.999Z</time></trkpt><trkpt lat="39.93021504850657" lon="8.453469131858201"><ele>36.0</ele><time>2026-05-02T07:19:49.999Z</time></trkpt><trkpt lat="39.93031849618811" lon="8.45330038606226"><ele>36.0</ele><time>2026-05-02T07:19:50.999Z</time></trkpt><trkpt lat="39.93042232912456" lon="8.453123040577472"><ele>36.0</ele><time>2026-05-02T07:19:51.999Z</time></trkpt><trkpt lat="39.93052542144062" lon="8.45293853363178"><ele>36.0</ele><time>2026-05-02T07:19:52.999Z</time></trkpt><trkpt lat="39.93063003538556" lon="8.452754666177404"><ele>35.666666666666664</ele><time>2026-05-02T07:19:53.999Z</time></trkpt><trkpt lat="39.93073599697336" lon="8.452570250737079"><ele>35.33333333333333</ele><time>2026-05-02T07:19:54.999Z</time></trkpt><trkpt lat="39.930843236938344" lon="8.452388218327453"><ele>35.0</ele><time>2026-05-02T07:19:55.999Z</time></trkpt><trkpt lat="39.93095425245886" lon="8.45220414064618"><ele>39.33333333333333</ele><time>2026-05-02T07:19:56.999Z</time></trkpt><trkpt lat="39.93106185071279" lon="8.452019022200329"><ele>43.666666666666664</ele><time>2026-05-02T07:19:57.999Z</time></trkpt><trkpt lat="39.93116539353925" lon="8.451827746518992"><ele>48.0</ele><time>2026-05-02T07:19:58.999Z</time></trkpt><trkpt lat="39.93125774822123" lon="8.451625170026048"><ele>48.0</ele><time>2026-05-02T07:19:59.999Z</time></trkpt><trkpt lat="39.93132839466099" lon="8.451405537518987"><ele>48.0</ele><time>2026-05-02T07:20:00.999Z</time></trkpt><trkpt lat="39.931378361155964" lon="8.451174728889676"><ele>48.0</ele><time>2026-05-02T07:20:01.999Z</time></trkpt><trkpt lat="39.93141310350609" lon="8.450934546964735"><ele>47.666666666666664</ele><time>2026-05-02T07:20:02.999Z</time></trkpt><trkpt lat="39.93144538806193" lon="8.450695737063786"><ele>47.33333333333333</ele><time>2026-05-02T07:20:03.999Z</time></trkpt><trkpt lat="39.93147666393038" lon="8.450453402012478"><ele>47.0</ele><time>2026-05-02T07:20:04.999Z</time></trkpt><trkpt lat="39.9315126493742" lon="8.450213671807576"><ele>47.0</ele><time>2026-05-02T07:20:05.999Z</time></trkpt><trkpt lat="39.93156116739705" lon="8.449977220350744"><ele>47.0</ele><time>2026-05-02T07:20:06.999Z</time></trkpt><trkpt lat="39.93163619999288" lon="8.44975070304567"><ele>47.0</ele><time>2026-05-02T07:20:07.999Z</time></trkpt><trkpt lat="39.93172983043217" lon="8.449535796168691"><ele>49.33333333333333</ele><time>2026-05-02T07:20:08.999Z</time></trkpt><trkpt lat="39.931838764244915" lon="8.449333983345866"><ele>51.666666666666664</ele><time>2026-05-02T07:20:09.999Z</time></trkpt><trkpt lat="39.93196522267358" lon="8.449151136153414"><ele>54.0</ele><time>2026-05-02T07:20:10.999Z</time></trkpt><trkpt lat="39.93210629741417" lon="8.448987251990216"><ele>54.0</ele><time>2026-05-02T07:20:11.999Z</time></trkpt><trkpt lat="39.93226215826617" lon="8.44884876731951"><ele>54.0</ele><time>2026-05-02T07:20:12.999Z</time></trkpt><trkpt lat="39.93242460400044" lon="8.448724286703678"><ele>54.0</ele><time>2026-05-02T07:20:13.999Z</time></trkpt><trkpt lat="39.93259114371869" lon="8.448608808049059"><ele>55.66666666666667</ele><time>2026-05-02T07:20:14.999Z</time></trkpt><trkpt lat="39.93275338746818" lon="8.448480412734577"><ele>57.333333333333336</ele><time>2026-05-02T07:20:15.999Z</time></trkpt><trkpt lat="39.932914154704974" lon="8.448349687523901"><ele>59.0</ele><time>2026-05-02T07:20:16.999Z</time></trkpt><trkpt lat="39.933074297118246" lon="8.448221704184897"><ele>59.0</ele><time>2026-05-02T07:20:17.999Z</time></trkpt><trkpt lat="39.93323628279146" lon="8.448097429339462"><ele>59.0</ele><time>2026-05-02T07:20:18.999Z</time></trkpt><trkpt lat="39.933400881044555" lon="8.44797432224836"><ele>59.0</ele><time>2026-05-02T07:20:19.998Z</time></trkpt><trkpt lat="39.93356354823671" lon="8.447848344881777"><ele>58.66666666666667</ele><time>2026-05-02T07:20:20.998Z</time></trkpt><trkpt lat="39.933726458683715" lon="8.447720290588386"><ele>58.33333333333333</ele><time>2026-05-02T07:20:21.998Z</time></trkpt><trkpt lat="39.933887155617946" lon="8.447586509840558"><ele>58.0</ele><time>2026-05-02T07:20:22.998Z</time></trkpt><trkpt lat="39.93404420638824" lon="8.447444328085593"><ele>58.0</ele><time>2026-05-02T07:20:23.998Z</time></trkpt><trkpt lat="39.93419302193057" lon="8.44728355494377"><ele>58.0</ele><time>2026-05-02T07:20:24.998Z</time></trkpt><trkpt lat="39.93433326822611" lon="8.447108449163135"><ele>58.0</ele><time>2026-05-02T07:20:25.998Z</time></trkpt><trkpt lat="39.93446870143736" lon="8.446921299630137"><ele>58.33333333333333</ele><time>2026-05-02T07:20:27Z</time></trkpt><trkpt lat="39.93460153197317" lon="8.446730625261797"><ele>58.66666666666667</ele><time>2026-05-02T07:20:28Z</time></trkpt><trkpt lat="39.934733374154064" lon="8.446537261860195"><ele>59.0</ele><time>2026-05-02T07:20:29Z</time></trkpt><trkpt lat="39.93486698484559" lon="8.446343497238598"><ele>58.66666666666667</ele><time>2026-05-02T07:20:30Z</time></trkpt><trkpt lat="39.934999842268304" lon="8.446150719086889"><ele>58.33333333333333</ele><time>2026-05-02T07:20:31Z</time></trkpt><trkpt lat="39.93513298239758" lon="8.445956220569505"><ele>58.0</ele><time>2026-05-02T07:20:32Z</time></trkpt><trkpt lat="39.93526465600204" lon="8.445761455182247"><ele>58.0</ele><time>2026-05-02T07:20:33Z</time></trkpt><trkpt lat="39.93539871449208" lon="8.445567305185218"><ele>58.0</ele><time>2026-05-02T07:20:34Z</time></trkpt><trkpt lat="39.93553382368695" lon="8.445373138814098"><ele>58.0</ele><time>2026-05-02T07:20:35Z</time></trkpt><trkpt lat="39.935668197188036" lon="8.445178384111083"><ele>57.666666666666664</ele><time>2026-05-02T07:20:36Z</time></trkpt><trkpt lat="39.93580410284256" lon="8.444981053273539"><ele>57.33333333333333</ele><time>2026-05-02T07:20:37Z</time></trkpt><trkpt lat="39.935940458870604" lon="8.444782079716287"><ele>57.0</ele><time>2026-05-02T07:20:38Z</time></trkpt><trkpt lat="39.93607435651832" lon="8.444583204645076"><ele>55.33333333333333</ele><time>2026-05-02T07:20:39Z</time></trkpt><trkpt lat="39.93621584504938" lon="8.44438511811654"><ele>53.666666666666664</ele><time>2026-05-02T07:20:40Z</time></trkpt><trkpt lat="39.936356224049575" lon="8.444188851393045"><ele>52.0</ele><time>2026-05-02T07:20:41Z</time></trkpt><trkpt lat="39.93649466535263" lon="8.443991634856413"><ele>52.33333333333333</ele><time>2026-05-02T07:20:42Z</time></trkpt><trkpt lat="39.93663033756752" lon="8.443793903791407"><ele>52.66666666666667</ele><time>2026-05-02T07:20:43Z</time></trkpt><trkpt lat="39.936766188732435" lon="8.443596563488457"><ele>53.0</ele><time>2026-05-02T07:20:44Z</time></trkpt><trkpt lat="39.93690318170705" lon="8.443400792652646"><ele>52.0</ele><time>2026-05-02T07:20:45Z</time></trkpt><trkpt lat="39.937039815517686" lon="8.443206445320646"><ele>51.0</ele><time>2026-05-02T07:20:46Z</time></trkpt><trkpt lat="39.93717557674121" lon="8.443011877296625"><ele>50.0</ele><time>2026-05-02T07:20:47Z</time></trkpt><trkpt lat="39.93731108524968" lon="8.442816280003747"><ele>49.333333333333336</ele><time>2026-05-02T07:20:48Z</time></trkpt><trkpt lat="39.93744918891612" lon="8.442624597593708"><ele>48.66666666666667</ele><time>2026-05-02T07:20:49Z</time></trkpt><trkpt lat="39.93759501592599" lon="8.442440948664462"><ele>48.0</ele><time>2026-05-02T07:20:50Z</time></trkpt><trkpt lat="39.93774989982587" lon="8.442275920341457"><ele>47.666666666666664</ele><time>2026-05-02T07:20:51Z</time></trkpt><trkpt lat="39.937917215999775" lon="8.442130392862746"><ele>47.33333333333333</ele><time>2026-05-02T07:20:52Z</time></trkpt><trkpt lat="39.93809292184244" lon="8.44200011061961"><ele>47.0</ele><time>2026-05-02T07:20:53Z</time></trkpt><trkpt lat="39.93827056732075" lon="8.441874894056168"><ele>47.33333333333333</ele><time>2026-05-02T07:20:54Z</time></trkpt><trkpt lat="39.93845025847103" lon="8.441749530799223"><ele>47.666666666666664</ele><time>2026-05-02T07:20:55Z</time></trkpt><trkpt lat="39.93862867145266" lon="8.44162174790602"><ele>48.0</ele><time>2026-05-02T07:20:56Z</time></trkpt><trkpt lat="39.93880795090777" lon="8.441494435832348"><ele>48.0</ele><time>2026-05-02T07:20:57Z</time></trkpt><trkpt lat="39.938988676599074" lon="8.441366062405917"><ele>48.0</ele><time>2026-05-02T07:20:58Z</time></trkpt><trkpt lat="39.939167735702654" lon="8.441237275360393"><ele>48.0</ele><time>2026-05-02T07:20:59Z</time></trkpt><trkpt lat="39.939345991262535" lon="8.441107524849699"><ele>47.333333333333336</ele><time>2026-05-02T07:21:00Z</time></trkpt><trkpt lat="39.939521300500175" lon="8.440970791974427"><ele>46.66666666666667</ele><time>2026-05-02T07:21:01Z</time></trkpt><trkpt lat="39.93969003986658" lon="8.440821035721994"><ele>46.0</ele><time>2026-05-02T07:21:02Z</time></trkpt><trkpt lat="39.93984818183329" lon="8.44065164363299"><ele>46.0</ele><time>2026-05-02T07:21:03Z</time></trkpt><trkpt lat="39.93999660543715" lon="8.44046876233082"><ele>46.0</ele><time>2026-05-02T07:21:04Z</time></trkpt><trkpt lat="39.9401392323243" lon="8.440275832994312"><ele>46.0</ele><time>2026-05-02T07:21:05Z</time></trkpt><trkpt lat="39.940272635648874" lon="8.440071414735323"><ele>45.66666666666667</ele><time>2026-05-02T07:21:06Z</time></trkpt><trkpt lat="39.940397648367664" lon="8.439857697528812"><ele>45.333333333333336</ele><time>2026-05-02T07:21:07Z</time></trkpt><trkpt lat="39.94052098405985" lon="8.439640505276984"><ele>45.0</ele><time>2026-05-02T07:21:08Z</time></trkpt><trkpt lat="39.94064435044289" lon="8.439421899245822"><ele>44.666666666666664</ele><time>2026-05-02T07:21:09Z</time></trkpt><trkpt lat="39.9407684618175" lon="8.439203233314938"><ele>44.33333333333333</ele><time>2026-05-02T07:21:10Z</time></trkpt><trkpt lat="39.94089235472431" lon="8.438985105736311"><ele>44.0</ele><time>2026-05-02T07:21:11Z</time></trkpt><trkpt lat="39.94101484455953" lon="8.438767128948104"><ele>43.666666666666664</ele><time>2026-05-02T07:21:12Z</time></trkpt><trkpt lat="39.94113814168767" lon="8.438550184428456"><ele>43.333333333333336</ele><time>2026-05-02T07:21:13Z</time></trkpt><trkpt lat="39.94126374788733" lon="8.438337117562522"><ele>43.0</ele><time>2026-05-02T07:21:14Z</time></trkpt><trkpt lat="39.941396542877115" lon="8.438132731074454"><ele>42.66666666666667</ele><time>2026-05-02T07:21:15Z</time></trkpt><trkpt lat="39.94153697354937" lon="8.437940029777643"><ele>42.333333333333336</ele><time>2026-05-02T07:21:16Z</time></trkpt><trkpt lat="39.941699137324484" lon="8.437782875106176"><ele>42.0</ele><time>2026-05-02T07:21:17Z</time></trkpt><trkpt lat="39.94186759937467" lon="8.437636267076282"><ele>42.0</ele><time>2026-05-02T07:21:18Z</time></trkpt><trkpt lat="39.94203017504918" lon="8.437472701657963"><ele>42.0</ele><time>2026-05-02T07:21:19Z</time></trkpt><trkpt lat="39.942188859288" lon="8.4373082542737"><ele>42.0</ele><time>2026-05-02T07:21:19.999Z</time></trkpt><trkpt lat="39.94235074354178" lon="8.437148642359105"><ele>41.333333333333336</ele><time>2026-05-02T07:21:20.999Z</time></trkpt><trkpt lat="39.94250972603687" lon="8.436996229876145"><ele>40.66666666666667</ele><time>2026-05-02T07:21:21.999Z</time></trkpt><trkpt lat="39.94265692270228" lon="8.436855302327922"><ele>40.0</ele><time>2026-05-02T07:21:22.999Z</time></trkpt><trkpt lat="39.942795389933" lon="8.436721027311654"><ele>40.0</ele><time>2026-05-02T07:21:23.999Z</time></trkpt><trkpt lat="39.94292618008307" lon="8.436593340287086"><ele>40.0</ele><time>2026-05-02T07:21:24.999Z</time></trkpt><trkpt lat="39.943050030344665" lon="8.436470963547649"><ele>40.0</ele><time>2026-05-02T07:21:25.999Z</time></trkpt><trkpt lat="39.94316482363242" lon="8.436348909349409"><ele>40.0</ele><time>2026-05-02T07:21:26.999Z</time></trkpt><trkpt lat="39.94327775268586" lon="8.436223649268758"><ele>40.0</ele><time>2026-05-02T07:21:27.999Z</time></trkpt><trkpt lat="39.943385411612624" lon="8.436110299970823"><ele>40.0</ele><time>2026-05-02T07:21:28.999Z</time></trkpt><trkpt lat="39.943477535510475" lon="8.436006335429884"><ele>40.0</ele><time>2026-05-02T07:21:29.999Z</time></trkpt><trkpt lat="39.94354611832518" lon="8.435920677114614"><ele>40.2</ele><time>2026-05-02T07:21:30.999Z</time></trkpt><trkpt lat="39.94359764026388" lon="8.435847866520538"><ele>40.4</ele><time>2026-05-02T07:21:31.999Z</time></trkpt><trkpt lat="39.943604894443354" lon="8.435709917506456"><ele>40.599999999999994</ele><time>2026-05-02T07:21:33.999Z</time></trkpt><trkpt lat="39.94357769139917" lon="8.435555150125124"><ele>40.8</ele><time>2026-05-02T07:21:35.999Z</time></trkpt><trkpt lat="39.943587271530156" lon="8.435440829735548"><ele>41.0</ele><time>2026-05-02T07:21:36.999Z</time></trkpt><trkpt lat="39.94360787358358" lon="8.435312606050454"><ele>40.25</ele><time>2026-05-02T07:21:37.999Z</time></trkpt><trkpt lat="39.94363167635564" lon="8.435160862866026"><ele>39.5</ele><time>2026-05-02T07:21:38.999Z</time></trkpt><trkpt lat="39.94365560496544" lon="8.434997287727752"><ele>38.75</ele><time>2026-05-02T07:21:39.999Z</time></trkpt><trkpt lat="39.943678823173194" lon="8.434830624914015"><ele>38.0</ele><time>2026-05-02T07:21:40.999Z</time></trkpt><trkpt lat="39.94369651543803" lon="8.434662389836276"><ele>37.6</ele><time>2026-05-02T07:21:41.999Z</time></trkpt><trkpt lat="39.943706344283115" lon="8.43449914695834"><ele>37.199999999999996</ele><time>2026-05-02T07:21:42.999Z</time></trkpt><trkpt lat="39.943704390275734" lon="8.434349023260681"><ele>36.8</ele><time>2026-05-02T07:21:43.999Z</time></trkpt><trkpt lat="39.943689017608904" lon="8.434212820797665"><ele>36.4</ele><time>2026-05-02T07:21:44.999Z</time></trkpt><trkpt lat="39.94366704113264" lon="8.434090529909897"><ele>36.0</ele><time>2026-05-02T07:21:45.999Z</time></trkpt><trkpt lat="39.94365348611044" lon="8.433979900964372"><ele>36.0</ele><time>2026-05-02T07:21:46.999Z</time></trkpt><trkpt lat="39.943644570804615" lon="8.433870806442325"><ele>36.0</ele><time>2026-05-02T07:21:47.999Z</time></trkpt><trkpt lat="39.943673465483535" lon="8.433764057387553"><ele>36.0</ele><time>2026-05-02T07:21:48.999Z</time></trkpt><trkpt lat="39.94371908009149" lon="8.433648861356618"><ele>36.0</ele><time>2026-05-02T07:21:49.999Z</time></trkpt><trkpt lat="39.94378274368614" lon="8.433530813486268"><ele>36.0</ele><time>2026-05-02T07:21:50.999Z</time></trkpt><trkpt lat="39.943855078078904" lon="8.433412848958469"><ele>36.0</ele><time>2026-05-02T07:21:51.999Z</time></trkpt><trkpt lat="39.94392702700221" lon="8.433288582098323"><ele>36.0</ele><time>2026-05-02T07:21:52.999Z</time></trkpt><trkpt lat="39.944000641728344" lon="8.433164098619828"><ele>36.0</ele><time>2026-05-02T07:21:53.999Z</time></trkpt><trkpt lat="39.94406207816857" lon="8.433016531289047"><ele>36.0</ele><time>2026-05-02T07:21:54.999Z</time></trkpt><trkpt lat="39.94413017776792" lon="8.432923183841478"><ele>36.0</ele><time>2026-05-02T07:21:55.999Z</time></trkpt><trkpt lat="39.944185334341185" lon="8.432805099236479"><ele>36.0</ele><time>2026-05-02T07:21:56.999Z</time></trkpt><trkpt lat="39.94423744879956" lon="8.432675191612853"><ele>36.0</ele><time>2026-05-02T07:21:57.999Z</time></trkpt><trkpt lat="39.94428048528965" lon="8.43252923762665"><ele>36.0</ele><time>2026-05-02T07:21:58.999Z</time></trkpt><trkpt lat="39.94431275265988" lon="8.432365807197094"><ele>35.75</ele><time>2026-05-02T07:21:59.999Z</time></trkpt><trkpt lat="39.94435379544643" lon="8.432194725975084"><ele>35.5</ele><time>2026-05-02T07:22:00.999Z</time></trkpt><trkpt lat="39.94441663775635" lon="8.432024700345876"><ele>35.25</ele><time>2026-05-02T07:22:01.999Z</time></trkpt><trkpt lat="39.94449174002056" lon="8.431854821408361"><ele>35.0</ele><time>2026-05-02T07:22:02.999Z</time></trkpt><trkpt lat="39.944570101840235" lon="8.431698211800382"><ele>34.75</ele><time>2026-05-02T07:22:03.999Z</time></trkpt><trkpt lat="39.94465202771439" lon="8.4315514811819"><ele>34.5</ele><time>2026-05-02T07:22:04.999Z</time></trkpt><trkpt lat="39.944739818355515" lon="8.431408940654105"><ele>34.25</ele><time>2026-05-02T07:22:05.999Z</time></trkpt><trkpt lat="39.944832698648725" lon="8.4312589857978"><ele>34.0</ele><time>2026-05-02T07:22:06.999Z</time></trkpt><trkpt lat="39.944925473499886" lon="8.431102937957132"><ele>33.66666666666667</ele><time>2026-05-02T07:22:07.999Z</time></trkpt><trkpt lat="39.945008630586976" lon="8.430930940163213"><ele>33.333333333333336</ele><time>2026-05-02T07:22:08.999Z</time></trkpt><trkpt lat="39.94507507464244" lon="8.430746831794623"><ele>33.0</ele><time>2026-05-02T07:22:09.999Z</time></trkpt><trkpt lat="39.945137655526004" lon="8.4305683980834"><ele>33.5</ele><time>2026-05-02T07:22:10.999Z</time></trkpt><trkpt lat="39.94518921883515" lon="8.43040400146294"><ele>34.0</ele><time>2026-05-02T07:22:11.999Z</time></trkpt><trkpt lat="39.94522524148649" lon="8.430229635023856"><ele>34.5</ele><time>2026-05-02T07:22:12.999Z</time></trkpt><trkpt lat="39.94523761446606" lon="8.430042575249656"><ele>35.0</ele><time>2026-05-02T07:22:13.999Z</time></trkpt><trkpt lat="39.945252331581635" lon="8.429847069562438"><ele>35.0</ele><time>2026-05-02T07:22:14.999Z</time></trkpt><trkpt lat="39.945283113937656" lon="8.429655540276805"><ele>35.0</ele><time>2026-05-02T07:22:15.999Z</time></trkpt><trkpt lat="39.94533411087357" lon="8.42947873743555"><ele>35.0</ele><time>2026-05-02T07:22:16.999Z</time></trkpt><trkpt lat="39.945400241977076" lon="8.429308675738861"><ele>35.0</ele><time>2026-05-02T07:22:17.999Z</time></trkpt><trkpt lat="39.945468621116184" lon="8.429144148952087"><ele>35.0</ele><time>2026-05-02T07:22:18.999Z</time></trkpt><trkpt lat="39.945537653539866" lon="8.428997510446251"><ele>35.0</ele><time>2026-05-02T07:22:19.999Z</time></trkpt><trkpt lat="39.945589143512436" lon="8.428856026316453"><ele>35.0</ele><time>2026-05-02T07:22:20.999Z</time></trkpt><trkpt lat="39.94562345275199" lon="8.42872097510322"><ele>35.0</ele><time>2026-05-02T07:22:21.999Z</time></trkpt><trkpt lat="39.94564207820543" lon="8.428586811831673"><ele>35.0</ele><time>2026-05-02T07:22:22.998Z</time></trkpt><trkpt lat="39.9456482360113" lon="8.42845489197811"><ele>35.0</ele><time>2026-05-02T07:22:23.998Z</time></trkpt><trkpt lat="39.94564871524423" lon="8.42831166089383"><ele>35.0</ele><time>2026-05-02T07:22:24.998Z</time></trkpt><trkpt lat="39.94564589122813" lon="8.428156160654307"><ele>35.0</ele><time>2026-05-02T07:22:25.998Z</time></trkpt><trkpt lat="39.94563372771967" lon="8.428014680844736"><ele>35.0</ele><time>2026-05-02T07:22:26.998Z</time></trkpt><trkpt lat="39.945609886509686" lon="8.427876830162901"><ele>35.0</ele><time>2026-05-02T07:22:27.998Z</time></trkpt><trkpt lat="39.94557575006135" lon="8.427744640437217"><ele>35.0</ele><time>2026-05-02T07:22:28.998Z</time></trkpt><trkpt lat="39.945533648356204" lon="8.427612558070773"><ele>35.0</ele><time>2026-05-02T07:22:29.998Z</time></trkpt><trkpt lat="39.94550749978093" lon="8.42748881477087"><ele>35.0</ele><time>2026-05-02T07:22:30.998Z</time></trkpt><trkpt lat="39.94552660659485" lon="8.42735227155767"><ele>35.0</ele><time>2026-05-02T07:22:31.998Z</time></trkpt><trkpt lat="39.94552568693169" lon="8.427194868883639"><ele>35.5</ele><time>2026-05-02T07:22:33Z</time></trkpt><trkpt lat="39.94553675449303" lon="8.427025209877891"><ele>36.0</ele><time>2026-05-02T07:22:34Z</time></trkpt><trkpt lat="39.94553155796199" lon="8.42684952389474"><ele>36.5</ele><time>2026-05-02T07:22:35Z</time></trkpt><trkpt lat="39.94550371136762" lon="8.426683410974055"><ele>37.0</ele><time>2026-05-02T07:22:36Z</time></trkpt><trkpt lat="39.945468435583095" lon="8.426520974286836"><ele>37.0</ele><time>2026-05-02T07:22:37Z</time></trkpt><trkpt lat="39.945411552252196" lon="8.426362321444183"><ele>37.0</ele><time>2026-05-02T07:22:38Z</time></trkpt><trkpt lat="39.945346106558524" lon="8.42620337718773"><ele>37.0</ele><time>2026-05-02T07:22:39Z</time></trkpt><trkpt lat="39.945261467473784" lon="8.426067038965805"><ele>37.0</ele><time>2026-05-02T07:22:40Z</time></trkpt><trkpt lat="39.945183882609335" lon="8.425926706579267"><ele>37.0</ele><time>2026-05-02T07:22:41Z</time></trkpt><trkpt lat="39.94510041667443" lon="8.425789695519288"><ele>37.0</ele><time>2026-05-02T07:22:42Z</time></trkpt><trkpt lat="39.945021865053555" lon="8.425643700493971"><ele>37.0</ele><time>2026-05-02T07:22:43Z</time></trkpt><trkpt lat="39.94497769273605" lon="8.425470095679609"><ele>37.0</ele><time>2026-05-02T07:22:44Z</time></trkpt><trkpt lat="39.94492111874009" lon="8.425302926726234"><ele>37.5</ele><time>2026-05-02T07:22:45Z</time></trkpt><trkpt lat="39.944860576982826" lon="8.425137032007683"><ele>38.0</ele><time>2026-05-02T07:22:46Z</time></trkpt><trkpt lat="39.944779988358036" lon="8.425008026946449"><ele>38.5</ele><time>2026-05-02T07:22:47Z</time></trkpt><trkpt lat="39.94470928726383" lon="8.424891482390374"><ele>39.0</ele><time>2026-05-02T07:22:48Z</time></trkpt><trkpt lat="39.94466561527907" lon="8.424771633664708"><ele>39.0</ele><time>2026-05-02T07:22:49Z</time></trkpt><trkpt lat="39.94463288951107" lon="8.424659073375945"><ele>39.0</ele><time>2026-05-02T07:22:50Z</time></trkpt><trkpt lat="39.94461303061865" lon="8.42452905151566"><ele>39.0</ele><time>2026-05-02T07:22:51Z</time></trkpt><trkpt lat="39.944607035712316" lon="8.424384172213237"><ele>39.0</ele><time>2026-05-02T07:22:52Z</time></trkpt><trkpt lat="39.94458875620265" lon="8.42422316186911"><ele>39.0</ele><time>2026-05-02T07:22:53Z</time></trkpt><trkpt lat="39.94458756299431" lon="8.4240565234774"><ele>39.25</ele><time>2026-05-02T07:22:54Z</time></trkpt><trkpt lat="39.94458722655224" lon="8.423883161177834"><ele>39.5</ele><time>2026-05-02T07:22:55Z</time></trkpt><trkpt lat="39.94458567543685" lon="8.423710802187758"><ele>39.75</ele><time>2026-05-02T07:22:56Z</time></trkpt><trkpt lat="39.944581469023056" lon="8.423562342756696"><ele>40.0</ele><time>2026-05-02T07:22:57Z</time></trkpt><trkpt lat="39.944544214596924" lon="8.423372385765846"><ele>40.0</ele><time>2026-05-02T07:22:58Z</time></trkpt><trkpt lat="39.94450041279771" lon="8.423194684415797"><ele>40.0</ele><time>2026-05-02T07:22:59Z</time></trkpt><trkpt lat="39.94444460726589" lon="8.423015480659801"><ele>40.0</ele><time>2026-05-02T07:23:00Z</time></trkpt><trkpt lat="39.944399752955135" lon="8.422830615122917"><ele>40.0</ele><time>2026-05-02T07:23:01Z</time></trkpt><trkpt lat="39.94433760549862" lon="8.422645749636212"><ele>40.333333333333336</ele><time>2026-05-02T07:23:02Z</time></trkpt><trkpt lat="39.94425534934223" lon="8.422471551284277"><ele>40.666666666666664</ele><time>2026-05-02T07:23:03Z</time></trkpt><trkpt lat="39.94418526656138" lon="8.422291097340475"><ele>41.0</ele><time>2026-05-02T07:23:04Z</time></trkpt><trkpt lat="39.94410899399978" lon="8.422121462517387"><ele>40.5</ele><time>2026-05-02T07:23:05Z</time></trkpt><trkpt lat="39.94404242007749" lon="8.42197011270327"><ele>40.0</ele><time>2026-05-02T07:23:06Z</time></trkpt><trkpt lat="39.94397507650755" lon="8.4218327824624"><ele>39.5</ele><time>2026-05-02T07:23:07Z</time></trkpt><trkpt lat="39.94390249912508" lon="8.421711603656576"><ele>39.0</ele><time>2026-05-02T07:23:08Z</time></trkpt><trkpt lat="39.94385013777154" lon="8.421589318679946"><ele>39.0</ele><time>2026-05-02T07:23:09Z</time></trkpt><trkpt lat="39.94380140105829" lon="8.421484183371577"><ele>39.0</ele><time>2026-05-02T07:23:10Z</time></trkpt><trkpt lat="39.94375403905024" lon="8.421369609106556"><ele>39.0</ele><time>2026-05-02T07:23:11Z</time></trkpt><trkpt lat="39.94369202807111" lon="8.421256453583203"><ele>39.0</ele><time>2026-05-02T07:23:12Z</time></trkpt><trkpt lat="39.94364833017311" lon="8.421150302020907"><ele>39.0</ele><time>2026-05-02T07:23:13Z</time></trkpt><trkpt lat="39.94360268099889" lon="8.42107743862278"><ele>38.666666666666664</ele><time>2026-05-02T07:23:14Z</time></trkpt><trkpt lat="39.94354743716123" lon="8.421027939416305"><ele>38.333333333333336</ele><time>2026-05-02T07:23:15Z</time></trkpt><trkpt lat="39.943426215623056" lon="8.421002490916672"><ele>38.0</ele><time>2026-05-02T07:23:17Z</time></trkpt><trkpt lat="39.94335600925257" lon="8.42100732257433"><ele>37.66666666666667</ele><time>2026-05-02T07:23:18Z</time></trkpt><trkpt lat="39.94327939640344" lon="8.42102170881822"><ele>37.333333333333336</ele><time>2026-05-02T07:23:19Z</time></trkpt><trkpt lat="39.94319657814139" lon="8.421027894758362"><ele>37.0</ele><time>2026-05-02T07:23:20Z</time></trkpt><trkpt lat="39.94310915749278" lon="8.421063612920523"><ele>37.8</ele><time>2026-05-02T07:23:21Z</time></trkpt><trkpt lat="39.9430201460597" lon="8.421100873095096"><ele>38.6</ele><time>2026-05-02T07:23:22Z</time></trkpt><trkpt lat="39.94292578725886" lon="8.421140597450167"><ele>39.4</ele><time>2026-05-02T07:23:23Z</time></trkpt><trkpt lat="39.942830356785535" lon="8.421180772970917"><ele>40.199999999999996</ele><time>2026-05-02T07:23:23.999Z</time></trkpt><trkpt lat="39.942736792062824" lon="8.421220537042846"><ele>41.0</ele><time>2026-05-02T07:23:24.999Z</time></trkpt><trkpt lat="39.94264250744712" lon="8.421263271433686"><ele>41.0</ele><time>2026-05-02T07:23:25.999Z</time></trkpt><trkpt lat="39.94254591138299" lon="8.421307750652248"><ele>41.0</ele><time>2026-05-02T07:23:26.999Z</time></trkpt><trkpt lat="39.94244903336995" lon="8.421358609729934"><ele>41.0</ele><time>2026-05-02T07:23:27.999Z</time></trkpt><trkpt lat="39.94235195191977" lon="8.421417572089464"><ele>41.0</ele><time>2026-05-02T07:23:28.999Z</time></trkpt><trkpt lat="39.94225474756633" lon="8.421476041041249"><ele>41.0</ele><time>2026-05-02T07:23:29.999Z</time></trkpt><trkpt lat="39.94215204517045" lon="8.421523236164735"><ele>41.199999999999996</ele><time>2026-05-02T07:23:30.999Z</time></trkpt><trkpt lat="39.94205236626776" lon="8.421554514604683"><ele>41.4</ele><time>2026-05-02T07:23:31.999Z</time></trkpt><trkpt lat="39.94194762435501" lon="8.421569034447487"><ele>41.6</ele><time>2026-05-02T07:23:32.999Z</time></trkpt><trkpt lat="39.941833335362034" lon="8.421576252039356"><ele>41.8</ele><time>2026-05-02T07:23:33.999Z</time></trkpt><trkpt lat="39.941719235349765" lon="8.421587767902748"><ele>42.0</ele><time>2026-05-02T07:23:34.999Z</time></trkpt><trkpt lat="39.94160015835745" lon="8.42162470581548"><ele>42.25</ele><time>2026-05-02T07:23:35.999Z</time></trkpt><trkpt lat="39.94148614490868" lon="8.421669412876865"><ele>42.5</ele><time>2026-05-02T07:23:36.999Z</time></trkpt><trkpt lat="39.941373243345716" lon="8.421721530377198"><ele>42.75</ele><time>2026-05-02T07:23:37.999Z</time></trkpt><trkpt lat="39.941260754369914" lon="8.421782119147796"><ele>43.0</ele><time>2026-05-02T07:23:38.999Z</time></trkpt><trkpt lat="39.94115390505321" lon="8.421846528404187"><ele>43.0</ele><time>2026-05-02T07:23:39.999Z</time></trkpt><trkpt lat="39.94105796728303" lon="8.421908466291528"><ele>43.0</ele><time>2026-05-02T07:23:40.999Z</time></trkpt><trkpt lat="39.94096574741406" lon="8.42197262561142"><ele>43.0</ele><time>2026-05-02T07:23:41.999Z</time></trkpt><trkpt lat="39.94088182802925" lon="8.422029378105368"><ele>43.0</ele><time>2026-05-02T07:23:42.999Z</time></trkpt><trkpt lat="39.94080116715765" lon="8.422074641028765"><ele>43.0</ele><time>2026-05-02T07:23:43.999Z</time></trkpt><trkpt lat="39.940718190375186" lon="8.422102953991923"><ele>43.0</ele><time>2026-05-02T07:23:44.999Z</time></trkpt><trkpt lat="39.94062120179192" lon="8.42213330424031"><ele>43.0</ele><time>2026-05-02T07:23:45.999Z</time></trkpt><trkpt lat="39.94051440081923" lon="8.422166767635705"><ele>43.0</ele><time>2026-05-02T07:23:46.999Z</time></trkpt><trkpt lat="39.94040245173487" lon="8.422207125221508"><ele>43.0</ele><time>2026-05-02T07:23:47.999Z</time></trkpt><trkpt lat="39.94029362606313" lon="8.422249576972572"><ele>43.0</ele><time>2026-05-02T07:23:48.999Z</time></trkpt><trkpt lat="39.94018288280434" lon="8.42229277673914"><ele>43.2</ele><time>2026-05-02T07:23:49.999Z</time></trkpt><trkpt lat="39.94007342597586" lon="8.42232865778835"><ele>43.4</ele><time>2026-05-02T07:23:50.999Z</time></trkpt><trkpt lat="39.93996830527316" lon="8.422351440804809"><ele>43.6</ele><time>2026-05-02T07:23:51.999Z</time></trkpt><trkpt lat="39.93986003170216" lon="8.422368410746449"><ele>43.800000000000004</ele><time>2026-05-02T07:23:52.999Z</time></trkpt><trkpt lat="39.93974545211083" lon="8.422378668410351"><ele>44.0</ele><time>2026-05-02T07:23:53.999Z</time></trkpt><trkpt lat="39.939626156516546" lon="8.422382947801255"><ele>44.0</ele><time>2026-05-02T07:23:54.999Z</time></trkpt><trkpt lat="39.93950216350638" lon="8.422386643596292"><ele>44.0</ele><time>2026-05-02T07:23:55.999Z</time></trkpt><trkpt lat="39.93937734645053" lon="8.422394500805913"><ele>44.0</ele><time>2026-05-02T07:23:56.999Z</time></trkpt><trkpt lat="39.93924966418489" lon="8.422402881176783"><ele>44.0</ele><time>2026-05-02T07:23:57.999Z</time></trkpt><trkpt lat="39.93911950185777" lon="8.422413405871715"><ele>43.5</ele><time>2026-05-02T07:23:58.999Z</time></trkpt><trkpt lat="39.93899127994651" lon="8.42242996905793"><ele>43.0</ele><time>2026-05-02T07:23:59.999Z</time></trkpt><trkpt lat="39.93885960336317" lon="8.42245158697062"><ele>42.5</ele><time>2026-05-02T07:24:00.999Z</time></trkpt><trkpt lat="39.93872771939185" lon="8.422471644364167"><ele>42.0</ele><time>2026-05-02T07:24:01.999Z</time></trkpt><trkpt lat="39.93859639347234" lon="8.422486435383444"><ele>42.0</ele><time>2026-05-02T07:24:02.999Z</time></trkpt><trkpt lat="39.938464754725345" lon="8.422500438830838"><ele>42.0</ele><time>2026-05-02T07:24:03.999Z</time></trkpt><trkpt lat="39.93834403667025" lon="8.422513280559203"><ele>42.0</ele><time>2026-05-02T07:24:04.999Z</time></trkpt><trkpt lat="39.938228449128026" lon="8.422523493619355"><ele>42.0</ele><time>2026-05-02T07:24:05.999Z</time></trkpt><trkpt lat="39.93811100575974" lon="8.422525003623292"><ele>41.8</ele><time>2026-05-02T07:24:06.999Z</time></trkpt><trkpt lat="39.937993458898" lon="8.422514574503388"><ele>41.6</ele><time>2026-05-02T07:24:07.999Z</time></trkpt><trkpt lat="39.93787945852075" lon="8.422500377427925"><ele>41.4</ele><time>2026-05-02T07:24:08.999Z</time></trkpt><trkpt lat="39.93777331779028" lon="8.42249505450193"><ele>41.199999999999996</ele><time>2026-05-02T07:24:09.999Z</time></trkpt><trkpt lat="39.93767953807998" lon="8.422495054503704"><ele>41.0</ele><time>2026-05-02T07:24:10.999Z</time></trkpt><trkpt lat="39.937586908728385" lon="8.422491649808238"><ele>41.4</ele><time>2026-05-02T07:24:11.999Z</time></trkpt><trkpt lat="39.93749473022679" lon="8.422469637807152"><ele>41.8</ele><time>2026-05-02T07:24:12.999Z</time></trkpt><trkpt lat="39.937402267134544" lon="8.422413299698992"><ele>42.199999999999996</ele><time>2026-05-02T07:24:13.999Z</time></trkpt><trkpt lat="39.93730238532452" lon="8.42233809107962"><ele>42.599999999999994</ele><time>2026-05-02T07:24:14.999Z</time></trkpt><trkpt lat="39.93719771373638" lon="8.422266003964017"><ele>43.0</ele><time>2026-05-02T07:24:15.999Z</time></trkpt><trkpt lat="39.93709189128569" lon="8.422206975554795"><ele>43.0</ele><time>2026-05-02T07:24:16.999Z</time></trkpt><trkpt lat="39.936974212878624" lon="8.422198019896328"><ele>43.0</ele><time>2026-05-02T07:24:17.999Z</time></trkpt><trkpt lat="39.9368687230019" lon="8.422175441797076"><ele>43.0</ele><time>2026-05-02T07:24:18.999Z</time></trkpt><trkpt lat="39.93675446895238" lon="8.422196955579025"><ele>43.0</ele><time>2026-05-02T07:24:19.999Z</time></trkpt><trkpt lat="39.93663653386025" lon="8.422224588398231"><ele>42.75</ele><time>2026-05-02T07:24:20.999Z</time></trkpt><trkpt lat="39.93651301435254" lon="8.422234854498427"><ele>42.5</ele><time>2026-05-02T07:24:21.999Z</time></trkpt><trkpt lat="39.93638947014616" lon="8.422218154275015"><ele>42.25</ele><time>2026-05-02T07:24:22.999Z</time></trkpt><trkpt lat="39.936266688434316" lon="8.42217410655952"><ele>42.0</ele><time>2026-05-02T07:24:23.999Z</time></trkpt><trkpt lat="39.93614123149464" lon="8.42212517061604"><ele>41.4</ele><time>2026-05-02T07:24:24.999Z</time></trkpt><trkpt lat="39.93602234731193" lon="8.42210979047016"><ele>40.800000000000004</ele><time>2026-05-02T07:24:25.999Z</time></trkpt><trkpt lat="39.93591817004537" lon="8.422091033662364"><ele>40.2</ele><time>2026-05-02T07:24:26.998Z</time></trkpt><trkpt lat="39.935823257368874" lon="8.422059738061442"><ele>39.6</ele><time>2026-05-02T07:24:27.998Z</time></trkpt><trkpt lat="39.935736440521964" lon="8.421989538846816"><ele>39.0</ele><time>2026-05-02T07:24:28.998Z</time></trkpt><trkpt lat="39.93562831472631" lon="8.421917428119658"><ele>38.75</ele><time>2026-05-02T07:24:29.998Z</time></trkpt><trkpt lat="39.93551789439969" lon="8.421846986388791"><ele>38.5</ele><time>2026-05-02T07:24:30.998Z</time></trkpt><trkpt lat="39.935402238891285" lon="8.42177615020102"><ele>38.25</ele><time>2026-05-02T07:24:31.998Z</time></trkpt><trkpt lat="39.93528332566088" lon="8.42170013890452"><ele>38.0</ele><time>2026-05-02T07:24:32.998Z</time></trkpt><trkpt lat="39.93515916237088" lon="8.421620522153429"><ele>37.666666666666664</ele><time>2026-05-02T07:24:33.998Z</time></trkpt><trkpt lat="39.93502959601799" lon="8.421541031457284"><ele>37.333333333333336</ele><time>2026-05-02T07:24:34.998Z</time></trkpt><trkpt lat="39.934880480163784" lon="8.421471956471908"><ele>37.0</ele><time>2026-05-02T07:24:35.998Z</time></trkpt><trkpt lat="39.934724223679716" lon="8.421410370433655"><ele>37.0</ele><time>2026-05-02T07:24:36.998Z</time></trkpt><trkpt lat="39.93456695454775" lon="8.421351750089709"><ele>37.0</ele><time>2026-05-02T07:24:37.998Z</time></trkpt><trkpt lat="39.934426644408816" lon="8.421298994485474"><ele>37.0</ele><time>2026-05-02T07:24:39Z</time></trkpt><trkpt lat="39.934299876907744" lon="8.421246521739192"><ele>37.0</ele><time>2026-05-02T07:24:40Z</time></trkpt><trkpt lat="39.93418078216696" lon="8.42120257229269"><ele>36.6</ele><time>2026-05-02T07:24:41Z</time></trkpt><trkpt lat="39.934068497226185" lon="8.421190952273445"><ele>36.2</ele><time>2026-05-02T07:24:42Z</time></trkpt><trkpt lat="39.93396406504312" lon="8.421171287028665"><ele>35.8</ele><time>2026-05-02T07:24:43Z</time></trkpt><trkpt lat="39.93386257268887" lon="8.42115941723308"><ele>35.4</ele><time>2026-05-02T07:24:44Z</time></trkpt><trkpt lat="39.93376151932374" lon="8.421205674707043"><ele>35.0</ele><time>2026-05-02T07:24:45Z</time></trkpt><trkpt lat="39.93367197955677" lon="8.421299621561253"><ele>35.25</ele><time>2026-05-02T07:24:46Z</time></trkpt><trkpt lat="39.93356466815577" lon="8.421367638036395"><ele>35.5</ele><time>2026-05-02T07:24:47Z</time></trkpt><trkpt lat="39.93345668910989" lon="8.421457459794741"><ele>35.75</ele><time>2026-05-02T07:24:48Z</time></trkpt><trkpt lat="39.93334718689847" lon="8.421554067231101"><ele>36.0</ele><time>2026-05-02T07:24:49Z</time></trkpt><trkpt lat="39.933244132947586" lon="8.421662005351129"><ele>36.0</ele><time>2026-05-02T07:24:50Z</time></trkpt><trkpt lat="39.93314458233519" lon="8.421770984436158"><ele>36.0</ele><time>2026-05-02T07:24:51Z</time></trkpt><trkpt lat="39.933051430714876" lon="8.421871838568428"><ele>36.0</ele><time>2026-05-02T07:24:52Z</time></trkpt><trkpt lat="39.93296858543091" lon="8.42195533314965"><ele>36.0</ele><time>2026-05-02T07:24:53Z</time></trkpt><trkpt lat="39.93288666520622" lon="8.42202418714895"><ele>36.0</ele><time>2026-05-02T07:24:54Z</time></trkpt><trkpt lat="39.93279349379789" lon="8.422070364433393"><ele>36.0</ele><time>2026-05-02T07:24:55Z</time></trkpt><trkpt lat="39.9326814814827" lon="8.42209365341646"><ele>36.0</ele><time>2026-05-02T07:24:56Z</time></trkpt><trkpt lat="39.93257641938737" lon="8.422127259547972"><ele>36.0</ele><time>2026-05-02T07:24:57Z</time></trkpt><trkpt lat="39.93249303427748" lon="8.422177782222798"><ele>36.0</ele><time>2026-05-02T07:24:58Z</time></trkpt><trkpt lat="39.93244898123901" lon="8.422276089697103"><ele>36.2</ele><time>2026-05-02T07:24:59Z</time></trkpt><trkpt lat="39.93240715024447" lon="8.422376709014413"><ele>36.400000000000006</ele><time>2026-05-02T07:25:00Z</time></trkpt><trkpt lat="39.93234448008272" lon="8.422485586865509"><ele>36.6</ele><time>2026-05-02T07:25:01Z</time></trkpt><trkpt lat="39.93228511705767" lon="8.42261565560347"><ele>36.800000000000004</ele><time>2026-05-02T07:25:02Z</time></trkpt><trkpt lat="39.93222674910346" lon="8.42275805023137"><ele>37.0</ele><time>2026-05-02T07:25:03Z</time></trkpt><trkpt lat="39.932174696207156" lon="8.42290848105629"><ele>37.5</ele><time>2026-05-02T07:25:04Z</time></trkpt><trkpt lat="39.93213412443825" lon="8.42306762008147"><ele>38.0</ele><time>2026-05-02T07:25:05Z</time></trkpt><trkpt lat="39.93209623337042" lon="8.42322651755824"><ele>38.5</ele><time>2026-05-02T07:25:06Z</time></trkpt><trkpt lat="39.932054839342555" lon="8.423378653649436"><ele>39.0</ele><time>2026-05-02T07:25:07Z</time></trkpt><trkpt lat="39.93200279607909" lon="8.423522785335305"><ele>39.0</ele><time>2026-05-02T07:25:08Z</time></trkpt><trkpt lat="39.931954192392304" lon="8.423645647820551"><ele>39.0</ele><time>2026-05-02T07:25:09Z</time></trkpt><trkpt lat="39.93191027892503" lon="8.423751314606516"><ele>39.0</ele><time>2026-05-02T07:25:10Z</time></trkpt><trkpt lat="39.9318679098427" lon="8.423846725984408"><ele>39.0</ele><time>2026-05-02T07:25:11Z</time></trkpt><trkpt lat="39.93180465795926" lon="8.423944322177274"><ele>39.0</ele><time>2026-05-02T07:25:13Z</time></trkpt><trkpt lat="39.931747514338014" lon="8.423882177877948"><ele>38.5</ele><time>2026-05-02T07:25:15Z</time></trkpt><trkpt lat="39.9316536620235" lon="8.423740902270545"><ele>38.0</ele><time>2026-05-02T07:25:17Z</time></trkpt><trkpt lat="39.931599998302396" lon="8.423621217510318"><ele>37.5</ele><time>2026-05-02T07:25:18Z</time></trkpt><trkpt lat="39.93153804062139" lon="8.423494220937696"><ele>37.0</ele><time>2026-05-02T07:25:19Z</time></trkpt><trkpt lat="39.931453622273054" lon="8.423377713753291"><ele>37.0</ele><time>2026-05-02T07:25:20Z</time></trkpt><trkpt lat="39.93137501008248" lon="8.423265616808232"><ele>37.0</ele><time>2026-05-02T07:25:21Z</time></trkpt><trkpt lat="39.931295885034295" lon="8.423175239121283"><ele>37.0</ele><time>2026-05-02T07:25:22Z</time></trkpt><trkpt lat="39.9312139424131" lon="8.42309814057092"><ele>37.0</ele><time>2026-05-02T07:25:23Z</time></trkpt><trkpt lat="39.93111350105839" lon="8.42303202646894"><ele>37.0</ele><time>2026-05-02T07:25:24Z</time></trkpt><trkpt lat="39.931001726273756" lon="8.422971665358473"><ele>36.75</ele><time>2026-05-02T07:25:25Z</time></trkpt><trkpt lat="39.93089666896554" lon="8.422882294144554"><ele>36.5</ele><time>2026-05-02T07:25:26Z</time></trkpt><trkpt lat="39.930803009494284" lon="8.422794368225794"><ele>36.25</ele><time>2026-05-02T07:25:27Z</time></trkpt><trkpt lat="39.93073083054456" lon="8.422689855287862"><ele>36.0</ele><time>2026-05-02T07:25:28Z</time></trkpt><trkpt lat="39.9306715184844" lon="8.422565153496661"><ele>35.75</ele><time>2026-05-02T07:25:28.999Z</time></trkpt><trkpt lat="39.93060537007172" lon="8.422422876759494"><ele>35.5</ele><time>2026-05-02T07:25:29.999Z</time></trkpt><trkpt lat="39.93053507000089" lon="8.42230064465658"><ele>35.25</ele><time>2026-05-02T07:25:30.999Z</time></trkpt><trkpt lat="39.93048423061271" lon="8.422181753880713"><ele>35.0</ele><time>2026-05-02T07:25:31.999Z</time></trkpt><trkpt lat="39.93041023178034" lon="8.422081291608938"><ele>34.75</ele><time>2026-05-02T07:25:32.999Z</time></trkpt><trkpt lat="39.93032352947828" lon="8.421988093271914"><ele>34.5</ele><time>2026-05-02T07:25:33.999Z</time></trkpt><trkpt lat="39.930226202245194" lon="8.42189957638139"><ele>34.25</ele><time>2026-05-02T07:25:34.999Z</time></trkpt><trkpt lat="39.9301261197287" lon="8.421809193030393"><ele>34.0</ele><time>2026-05-02T07:25:35.999Z</time></trkpt><trkpt lat="39.93002527385301" lon="8.4217167018813"><ele>34.0</ele><time>2026-05-02T07:25:36.999Z</time></trkpt><trkpt lat="39.92993697008147" lon="8.42158980508421"><ele>34.0</ele><time>2026-05-02T07:25:37.999Z</time></trkpt><trkpt lat="39.929826725491374" lon="8.421480498414743"><ele>34.0</ele><time>2026-05-02T07:25:38.999Z</time></trkpt><trkpt lat="39.92972106332174" lon="8.421341302021236"><ele>34.0</ele><time>2026-05-02T07:25:39.999Z</time></trkpt><trkpt lat="39.92960698418727" lon="8.421212212367445"><ele>33.66666666666667</ele><time>2026-05-02T07:25:40.999Z</time></trkpt><trkpt lat="39.92947851599826" lon="8.42109602513149"><ele>33.333333333333336</ele><time>2026-05-02T07:25:41.999Z</time></trkpt><trkpt lat="39.92934527760248" lon="8.420984132794418"><ele>33.0</ele><time>2026-05-02T07:25:42.999Z</time></trkpt><trkpt lat="39.929209867870235" lon="8.420883230734113"><ele>33.0</ele><time>2026-05-02T07:25:43.999Z</time></trkpt><trkpt lat="39.92907721396666" lon="8.420764339518346"><ele>33.0</ele><time>2026-05-02T07:25:44.999Z</time></trkpt><trkpt lat="39.92895449852708" lon="8.420656910763292"><ele>33.0</ele><time>2026-05-02T07:25:45.999Z</time></trkpt><trkpt lat="39.928846295456644" lon="8.420547608248091"><ele>33.0</ele><time>2026-05-02T07:25:46.999Z</time></trkpt><trkpt lat="39.92872939023801" lon="8.420449597179838"><ele>33.0</ele><time>2026-05-02T07:25:47.999Z</time></trkpt><trkpt lat="39.92863840069872" lon="8.420327567821127"><ele>33.0</ele><time>2026-05-02T07:25:48.999Z</time></trkpt><trkpt lat="39.9285257609721" lon="8.420210695698772"><ele>33.0</ele><time>2026-05-02T07:25:49.999Z</time></trkpt><trkpt lat="39.9284123605864" lon="8.420093349490058"><ele>33.0</ele><time>2026-05-02T07:25:50.999Z</time></trkpt><trkpt lat="39.9282881526582" lon="8.4199876580261"><ele>33.0</ele><time>2026-05-02T07:25:51.999Z</time></trkpt><trkpt lat="39.92817681243198" lon="8.419859508760249"><ele>33.0</ele><time>2026-05-02T07:25:52.999Z</time></trkpt><trkpt lat="39.92805929175547" lon="8.41973536501885"><ele>33.0</ele><time>2026-05-02T07:25:53.999Z</time></trkpt><trkpt lat="39.92793555743589" lon="8.41961637715572"><ele>33.0</ele><time>2026-05-02T07:25:54.999Z</time></trkpt><trkpt lat="39.92780366783613" lon="8.419506526001724"><ele>33.0</ele><time>2026-05-02T07:25:55.999Z</time></trkpt><trkpt lat="39.92766581059611" lon="8.419401982887177"><ele>33.0</ele><time>2026-05-02T07:25:56.999Z</time></trkpt><trkpt lat="39.92753256980565" lon="8.419317431260703"><ele>33.0</ele><time>2026-05-02T07:25:57.999Z</time></trkpt><trkpt lat="39.92741182217937" lon="8.419237301746888"><ele>33.0</ele><time>2026-05-02T07:25:58.999Z</time></trkpt><trkpt lat="39.927294597170004" lon="8.41923856827608"><ele>33.0</ele><time>2026-05-02T07:25:59.999Z</time></trkpt><trkpt lat="39.92722084600872" lon="8.419259146156298"><ele>33.0</ele><time>2026-05-02T07:26:00.999Z</time></trkpt><trkpt lat="39.927149857051155" lon="8.419281061766629"><ele>33.0</ele><time>2026-05-02T07:26:01.999Z</time></trkpt><trkpt lat="39.92707880697033" lon="8.41932028595061"><ele>33.0</ele><time>2026-05-02T07:26:02.999Z</time></trkpt><trkpt lat="39.92699618312325" lon="8.419346789617357"><ele>33.0</ele><time>2026-05-02T07:26:03.999Z</time></trkpt><trkpt lat="39.92691494273696" lon="8.419347816861725"><ele>33.0</ele><time>2026-05-02T07:26:04.999Z</time></trkpt><trkpt lat="39.926823117175985" lon="8.419325480958584"><ele>33.0</ele><time>2026-05-02T07:26:05.999Z</time></trkpt><trkpt lat="39.92670734341644" lon="8.419298728525208"><ele>33.0</ele><time>2026-05-02T07:26:06.999Z</time></trkpt><trkpt lat="39.92658923082585" lon="8.419270241962687"><ele>33.75</ele><time>2026-05-02T07:26:07.999Z</time></trkpt><trkpt lat="39.92646773956091" lon="8.419257102855457"><ele>34.5</ele><time>2026-05-02T07:26:08.999Z</time></trkpt><trkpt lat="39.9263488038351" lon="8.419228628054494"><ele>35.25</ele><time>2026-05-02T07:26:09.999Z</time></trkpt><trkpt lat="39.926229174445275" lon="8.419183140647148"><ele>36.0</ele><time>2026-05-02T07:26:10.999Z</time></trkpt><trkpt lat="39.926101959774" lon="8.419117926527374"><ele>36.0</ele><time>2026-05-02T07:26:11.999Z</time></trkpt><trkpt lat="39.92597042733454" lon="8.419052872525523"><ele>36.0</ele><time>2026-05-02T07:26:12.999Z</time></trkpt><trkpt lat="39.92583362860541" lon="8.418996060049603"><ele>36.0</ele><time>2026-05-02T07:26:13.999Z</time></trkpt><trkpt lat="39.92569563366829" lon="8.41896142267665"><ele>36.0</ele><time>2026-05-02T07:26:14.999Z</time></trkpt><trkpt lat="39.925557233543714" lon="8.41894236513433"><ele>36.25</ele><time>2026-05-02T07:26:15.999Z</time></trkpt><trkpt lat="39.92542952730264" lon="8.418920944896248"><ele>36.5</ele><time>2026-05-02T07:26:16.999Z</time></trkpt><trkpt lat="39.92531417572093" lon="8.418875935063575"><ele>36.75</ele><time>2026-05-02T07:26:17.999Z</time></trkpt><trkpt lat="39.92518222333403" lon="8.418822352864145"><ele>37.0</ele><time>2026-05-02T07:26:18.999Z</time></trkpt><trkpt lat="39.92503646798771" lon="8.418813798753138"><ele>37.0</ele><time>2026-05-02T07:26:19.999Z</time></trkpt><trkpt lat="39.92490129583997" lon="8.418775342979632"><ele>37.0</ele><time>2026-05-02T07:26:20.999Z</time></trkpt><trkpt lat="39.92478734409551" lon="8.418762650011614"><ele>37.0</ele><time>2026-05-02T07:26:21.999Z</time></trkpt><trkpt lat="39.924705398993154" lon="8.418743030291866"><ele>37.0</ele><time>2026-05-02T07:26:22.999Z</time></trkpt><trkpt lat="39.92463159873367" lon="8.418712924529338"><ele>37.0</ele><time>2026-05-02T07:26:23.999Z</time></trkpt><trkpt lat="39.92456339019505" lon="8.41864395191551"><ele>37.0</ele><time>2026-05-02T07:26:24.999Z</time></trkpt><trkpt lat="39.92446868380469" lon="8.418541262166826"><ele>37.0</ele><time>2026-05-02T07:26:25.999Z</time></trkpt><trkpt lat="39.924345529152845" lon="8.418471189505725"><ele>37.0</ele><time>2026-05-02T07:26:26.999Z</time></trkpt><trkpt lat="39.924215324328614" lon="8.418399452747202"><ele>37.0</ele><time>2026-05-02T07:26:27.999Z</time></trkpt><trkpt lat="39.92409176632574" lon="8.418301497241808"><ele>37.25</ele><time>2026-05-02T07:26:28.999Z</time></trkpt><trkpt lat="39.92396689179225" lon="8.418211014078476"><ele>37.5</ele><time>2026-05-02T07:26:29.999Z</time></trkpt><trkpt lat="39.92384483938108" lon="8.418105976640494"><ele>37.75</ele><time>2026-05-02T07:26:30.999Z</time></trkpt><trkpt lat="39.92372156879119" lon="8.417996438994653"><ele>38.0</ele><time>2026-05-02T07:26:31.999Z</time></trkpt><trkpt lat="39.92360973692601" lon="8.417908103450799"><ele>38.0</ele><time>2026-05-02T07:26:32.998Z</time></trkpt><trkpt lat="39.92349588531969" lon="8.417833365692287"><ele>38.0</ele><time>2026-05-02T07:26:33.998Z</time></trkpt><trkpt lat="39.923367494250606" lon="8.417766909457503"><ele>38.0</ele><time>2026-05-02T07:26:34.998Z</time></trkpt><trkpt lat="39.923226750783286" lon="8.417712953142388"><ele>38.0</ele><time>2026-05-02T07:26:35.998Z</time></trkpt><trkpt lat="39.92308237094701" lon="8.41766447000845"><ele>38.25</ele><time>2026-05-02T07:26:36.998Z</time></trkpt><trkpt lat="39.92295781145031" lon="8.41761324506595"><ele>38.5</ele><time>2026-05-02T07:26:37.998Z</time></trkpt><trkpt lat="39.922839300837644" lon="8.417551487085376"><ele>38.75</ele><time>2026-05-02T07:26:38.998Z</time></trkpt><trkpt lat="39.92272188888027" lon="8.417464548839053"><ele>39.0</ele><time>2026-05-02T07:26:39.998Z</time></trkpt><trkpt lat="39.922602119839105" lon="8.41739755270056"><ele>39.25</ele><time>2026-05-02T07:26:40.998Z</time></trkpt><trkpt lat="39.92247794939302" lon="8.4173714036182"><ele>39.5</ele><time>2026-05-02T07:26:41.998Z</time></trkpt><trkpt lat="39.9223536748917" lon="8.417310336019233"><ele>39.75</ele><time>2026-05-02T07:26:42.998Z</time></trkpt><trkpt lat="39.922211331807624" lon="8.417284246617054"><ele>40.0</ele><time>2026-05-02T07:26:43.998Z</time></trkpt><trkpt lat="39.922065292946456" lon="8.417264895326623"><ele>40.0</ele><time>2026-05-02T07:26:45Z</time></trkpt><trkpt lat="39.92192299625098" lon="8.417230573336305"><ele>40.0</ele><time>2026-05-02T07:26:46Z</time></trkpt><trkpt lat="39.921785145342355" lon="8.417175822677317"><ele>40.0</ele><time>2026-05-02T07:26:47Z</time></trkpt><trkpt lat="39.921655310701304" lon="8.417095597369844"><ele>40.0</ele><time>2026-05-02T07:26:48Z</time></trkpt><trkpt lat="39.92151921473989" lon="8.417002633071487"><ele>40.0</ele><time>2026-05-02T07:26:49Z</time></trkpt><trkpt lat="39.92137628814142" lon="8.416918251559752"><ele>40.0</ele><time>2026-05-02T07:26:50Z</time></trkpt><trkpt lat="39.921242727901706" lon="8.416805417928892"><ele>40.0</ele><time>2026-05-02T07:26:51Z</time></trkpt><trkpt lat="39.92110894992805" lon="8.41668699891631"><ele>40.0</ele><time>2026-05-02T07:26:52Z</time></trkpt><trkpt lat="39.920978542473605" lon="8.416553900606644"><ele>40.0</ele><time>2026-05-02T07:26:53Z</time></trkpt><trkpt lat="39.92083386919915" lon="8.416442205448286"><ele>40.0</ele><time>2026-05-02T07:26:54Z</time></trkpt><trkpt lat="39.92068766250309" lon="8.416332089092993"><ele>38.66666666666667</ele><time>2026-05-02T07:26:55Z</time></trkpt><trkpt lat="39.92054790527976" lon="8.416226830628451"><ele>37.333333333333336</ele><time>2026-05-02T07:26:56Z</time></trkpt><trkpt lat="39.92041611582665" lon="8.41613324740079"><ele>36.0</ele><time>2026-05-02T07:26:57Z</time></trkpt><trkpt lat="39.920291260943316" lon="8.416054551616668"><ele>36.0</ele><time>2026-05-02T07:26:58Z</time></trkpt><trkpt lat="39.92016800792209" lon="8.415987180603565"><ele>36.0</ele><time>2026-05-02T07:26:59Z</time></trkpt><trkpt lat="39.92003067058894" lon="8.415942038721331"><ele>36.0</ele><time>2026-05-02T07:27:00Z</time></trkpt><trkpt lat="39.91989772021408" lon="8.415906683551349"><ele>36.0</ele><time>2026-05-02T07:27:01Z</time></trkpt><trkpt lat="39.919778937531035" lon="8.41586504813442"><ele>36.4</ele><time>2026-05-02T07:27:02Z</time></trkpt><trkpt lat="39.9196649409816" lon="8.415795538448306"><ele>36.8</ele><time>2026-05-02T07:27:03Z</time></trkpt><trkpt lat="39.919569727729304" lon="8.415736348041277"><ele>37.199999999999996</ele><time>2026-05-02T07:27:04Z</time></trkpt><trkpt lat="39.919657946157905" lon="8.415791985982047"><ele>37.6</ele><time>2026-05-02T07:27:12Z</time></trkpt><trkpt lat="39.91972198433447" lon="8.415868770870244"><ele>38.0</ele><time>2026-05-02T07:27:13Z</time></trkpt><trkpt lat="39.91979727172494" lon="8.41583872098665"><ele>38.0</ele><time>2026-05-02T07:27:15Z</time></trkpt><trkpt lat="39.91982801606865" lon="8.41576050013373"><ele>38.0</ele><time>2026-05-02T07:27:16Z</time></trkpt><trkpt lat="39.91986261940423" lon="8.415635563163283"><ele>38.0</ele><time>2026-05-02T07:27:17Z</time></trkpt><trkpt lat="39.91992189733256" lon="8.415483517994675"><ele>38.0</ele><time>2026-05-02T07:27:18Z</time></trkpt><trkpt lat="39.92000741016146" lon="8.415324741211814"><ele>38.0</ele><time>2026-05-02T07:27:19Z</time></trkpt><trkpt lat="39.92009356945055" lon="8.415157836425934"><ele>36.75</ele><time>2026-05-02T07:27:20Z</time></trkpt><trkpt lat="39.92017735481955" lon="8.414988639615814"><ele>35.5</ele><time>2026-05-02T07:27:21Z</time></trkpt><trkpt lat="39.92024933914928" lon="8.414835213211651"><ele>34.25</ele><time>2026-05-02T07:27:22Z</time></trkpt><trkpt lat="39.92032719961817" lon="8.414683506784181"><ele>33.0</ele><time>2026-05-02T07:27:23Z</time></trkpt><trkpt lat="39.920403169930665" lon="8.414539805522272"><ele>32.5</ele><time>2026-05-02T07:27:24Z</time></trkpt><trkpt lat="39.92047339390869" lon="8.41440740238733"><ele>32.0</ele><time>2026-05-02T07:27:25Z</time></trkpt><trkpt lat="39.92053856874065" lon="8.414282947315609"><ele>31.5</ele><time>2026-05-02T07:27:26Z</time></trkpt><trkpt lat="39.92059522754371" lon="8.414160354646302"><ele>31.0</ele><time>2026-05-02T07:27:27Z</time></trkpt><trkpt lat="39.9206384931547" lon="8.414036499898922"><ele>31.0</ele><time>2026-05-02T07:27:28Z</time></trkpt><trkpt lat="39.9206703356227" lon="8.41391229609544"><ele>31.0</ele><time>2026-05-02T07:27:29Z</time></trkpt><trkpt lat="39.92069434211342" lon="8.413794923123481"><ele>31.0</ele><time>2026-05-02T07:27:30Z</time></trkpt><trkpt lat="39.920714650715425" lon="8.413677598100927"><ele>31.0</ele><time>2026-05-02T07:27:31Z</time></trkpt><trkpt lat="39.92074942340252" lon="8.413559768495587"><ele>31.0</ele><time>2026-05-02T07:27:32Z</time></trkpt><trkpt lat="39.92079834869117" lon="8.413440038992553"><ele>31.0</ele><time>2026-05-02T07:27:32.999Z</time></trkpt><trkpt lat="39.92085603979374" lon="8.413330174773826"><ele>31.0</ele><time>2026-05-02T07:27:33.999Z</time></trkpt><trkpt lat="39.9209185585443" lon="8.41322180437361"><ele>31.0</ele><time>2026-05-02T07:27:34.999Z</time></trkpt><trkpt lat="39.92097599043392" lon="8.413125197811953"><ele>31.0</ele><time>2026-05-02T07:27:35.999Z</time></trkpt><trkpt lat="39.92103120009291" lon="8.413043034053354"><ele>31.0</ele><time>2026-05-02T07:27:36.999Z</time></trkpt><trkpt lat="39.92109390756729" lon="8.412979114668003"><ele>30.200000000000003</ele><time>2026-05-02T07:27:37.999Z</time></trkpt><trkpt lat="39.92117019228388" lon="8.412921442298389"><ele>29.400000000000002</ele><time>2026-05-02T07:27:38.999Z</time></trkpt><trkpt lat="39.92125457701521" lon="8.412851682546846"><ele>28.6</ele><time>2026-05-02T07:27:39.999Z</time></trkpt><trkpt lat="39.921345178297514" lon="8.41278666690087"><ele>27.8</ele><time>2026-05-02T07:27:40.999Z</time></trkpt><trkpt lat="39.921451376884505" lon="8.412753163685444"><ele>27.0</ele><time>2026-05-02T07:27:41.999Z</time></trkpt><trkpt lat="39.92155117153527" lon="8.412720849504998"><ele>27.0</ele><time>2026-05-02T07:27:42.999Z</time></trkpt><trkpt lat="39.92165931838644" lon="8.412697209339024"><ele>27.000000000000004</ele><time>2026-05-02T07:27:43.999Z</time></trkpt><trkpt lat="39.9217668590991" lon="8.412659931588228"><ele>27.000000000000004</ele><time>2026-05-02T07:27:44.999Z</time></trkpt><trkpt lat="39.921872331773905" lon="8.412619491008316"><ele>27.0</ele><time>2026-05-02T07:27:45.999Z</time></trkpt><trkpt lat="39.92198323754499" lon="8.412571877449672"><ele>27.0</ele><time>2026-05-02T07:27:46.999Z</time></trkpt><trkpt lat="39.922083961247985" lon="8.41253133266951"><ele>27.0</ele><time>2026-05-02T07:27:47.999Z</time></trkpt><trkpt lat="39.92220186137306" lon="8.412498939032632"><ele>27.0</ele><time>2026-05-02T07:27:48.999Z</time></trkpt><trkpt lat="39.92231858106443" lon="8.412473689427168"><ele>27.0</ele><time>2026-05-02T07:27:49.999Z</time></trkpt><trkpt lat="39.92243722316559" lon="8.412446652696426"><ele>27.0</ele><time>2026-05-02T07:27:50.999Z</time></trkpt><trkpt lat="39.92254906899221" lon="8.412425102706148"><ele>26.75</ele><time>2026-05-02T07:27:51.999Z</time></trkpt><trkpt lat="39.922647268300786" lon="8.4124011668297"><ele>26.5</ele><time>2026-05-02T07:27:52.999Z</time></trkpt><trkpt lat="39.92275570706464" lon="8.412349568524043"><ele>26.25</ele><time>2026-05-02T07:27:53.999Z</time></trkpt><trkpt lat="39.922876803434484" lon="8.41223577030753"><ele>26.0</ele><time>2026-05-02T07:27:54.999Z</time></trkpt><trkpt lat="39.92301210551789" lon="8.412115887108424"><ele>26.0</ele><time>2026-05-02T07:27:55.999Z</time></trkpt><trkpt lat="39.92313442162564" lon="8.412023559254804"><ele>26.0</ele><time>2026-05-02T07:27:56.999Z</time></trkpt><trkpt lat="39.92324523846811" lon="8.411960242954038"><ele>26.0</ele><time>2026-05-02T07:27:57.999Z</time></trkpt><trkpt lat="39.923349907397565" lon="8.411915342257021"><ele>26.0</ele><time>2026-05-02T07:27:58.999Z</time></trkpt><trkpt lat="39.923464926032025" lon="8.411880751733529"><ele>26.5</ele><time>2026-05-02T07:27:59.999Z</time></trkpt><trkpt lat="39.923582792789205" lon="8.411847799159327"><ele>27.0</ele><time>2026-05-02T07:28:00.999Z</time></trkpt><trkpt lat="39.92368554023077" lon="8.41180848327219"><ele>27.5</ele><time>2026-05-02T07:28:01.999Z</time></trkpt><trkpt lat="39.92379719828252" lon="8.411768562335078"><ele>28.0</ele><time>2026-05-02T07:28:02.999Z</time></trkpt><trkpt lat="39.92393110869276" lon="8.411746507427551"><ele>28.0</ele><time>2026-05-02T07:28:03.999Z</time></trkpt><trkpt lat="39.924078897526826" lon="8.411714556237895"><ele>28.0</ele><time>2026-05-02T07:28:04.999Z</time></trkpt><trkpt lat="39.924219726759326" lon="8.41167042500308"><ele>28.0</ele><time>2026-05-02T07:28:05.999Z</time></trkpt><trkpt lat="39.92435939860657" lon="8.411633680265917"><ele>28.0</ele><time>2026-05-02T07:28:06.999Z</time></trkpt><trkpt lat="39.9244975290869" lon="8.411594851958467"><ele>28.25</ele><time>2026-05-02T07:28:07.999Z</time></trkpt><trkpt lat="39.92462861405592" lon="8.411539028720583"><ele>28.5</ele><time>2026-05-02T07:28:08.999Z</time></trkpt><trkpt lat="39.924758885141415" lon="8.41147758654679"><ele>28.75</ele><time>2026-05-02T07:28:09.999Z</time></trkpt><trkpt lat="39.9248814829357" lon="8.411399825189255"><ele>29.0</ele><time>2026-05-02T07:28:10.999Z</time></trkpt><trkpt lat="39.92500091993563" lon="8.41130075330046"><ele>29.25</ele><time>2026-05-02T07:28:11.999Z</time></trkpt><trkpt lat="39.92510954910252" lon="8.411179679046477"><ele>29.5</ele><time>2026-05-02T07:28:12.999Z</time></trkpt><trkpt lat="39.92520964433292" lon="8.41104212380426"><ele>29.75</ele><time>2026-05-02T07:28:13.999Z</time></trkpt><trkpt lat="39.925303846032044" lon="8.410889083548488"><ele>30.0</ele><time>2026-05-02T07:28:14.999Z</time></trkpt><trkpt lat="39.92539105948623" lon="8.410725104171377"><ele>30.0</ele><time>2026-05-02T07:28:15.999Z</time></trkpt><trkpt lat="39.925466339284824" lon="8.410581046470595"><ele>30.0</ele><time>2026-05-02T07:28:16.999Z</time></trkpt><trkpt lat="39.925532366817485" lon="8.410453017095085"><ele>30.0</ele><time>2026-05-02T07:28:17.999Z</time></trkpt><trkpt lat="39.92560207818449" lon="8.410332128983063"><ele>30.0</ele><time>2026-05-02T07:28:18.999Z</time></trkpt><trkpt lat="39.92568236035648" lon="8.4102348590611"><ele>29.5</ele><time>2026-05-02T07:28:19.999Z</time></trkpt><trkpt lat="39.925771273959725" lon="8.410162684140735"><ele>29.0</ele><time>2026-05-02T07:28:20.999Z</time></trkpt><trkpt lat="39.925882184063994" lon="8.410106245421574"><ele>28.5</ele><time>2026-05-02T07:28:21.999Z</time></trkpt><trkpt lat="39.92600536942513" lon="8.410060033037366"><ele>28.0</ele><time>2026-05-02T07:28:22.999Z</time></trkpt><trkpt lat="39.92613229108648" lon="8.410033506395568"><ele>28.0</ele><time>2026-05-02T07:28:23.999Z</time></trkpt><trkpt lat="39.92625747388735" lon="8.410023182484572"><ele>27.999999999999996</ele><time>2026-05-02T07:28:24.999Z</time></trkpt><trkpt lat="39.9263682232396" lon="8.410013555311158"><ele>27.999999999999996</ele><time>2026-05-02T07:28:25.999Z</time></trkpt><trkpt lat="39.9264551453809" lon="8.410004356764173"><ele>28.0</ele><time>2026-05-02T07:28:26.999Z</time></trkpt><trkpt lat="39.92652351932906" lon="8.409984068284764"><ele>28.0</ele><time>2026-05-02T07:28:27.999Z</time></trkpt><trkpt lat="39.92660206810354" lon="8.409950795352735"><ele>28.0</ele><time>2026-05-02T07:28:28.999Z</time></trkpt><trkpt lat="39.92668567308696" lon="8.409918576411725"><ele>28.0</ele><time>2026-05-02T07:28:29.999Z</time></trkpt><trkpt lat="39.92678538562572" lon="8.409877469681131"><ele>28.0</ele><time>2026-05-02T07:28:30.999Z</time></trkpt><trkpt lat="39.926901277192584" lon="8.409824838009866"><ele>28.0</ele><time>2026-05-02T07:28:31.999Z</time></trkpt><trkpt lat="39.927025154995185" lon="8.40975343288925"><ele>28.0</ele><time>2026-05-02T07:28:32.999Z</time></trkpt><trkpt lat="39.92715278149024" lon="8.40965871522375"><ele>28.0</ele><time>2026-05-02T07:28:33.999Z</time></trkpt><trkpt lat="39.927277364721434" lon="8.409547910499876"><ele>28.0</ele><time>2026-05-02T07:28:34.999Z</time></trkpt><trkpt lat="39.9274003829501" lon="8.409426814221243"><ele>27.5</ele><time>2026-05-02T07:28:35.998Z</time></trkpt><trkpt lat="39.92750861270805" lon="8.40930813707943"><ele>27.0</ele><time>2026-05-02T07:28:36.998Z</time></trkpt><trkpt lat="39.92759567555013" lon="8.409177159162285"><ele>26.5</ele><time>2026-05-02T07:28:37.998Z</time></trkpt><trkpt lat="39.927672783252504" lon="8.40901269880237"><ele>26.0</ele><time>2026-05-02T07:28:38.998Z</time></trkpt><trkpt lat="39.92775295009813" lon="8.408843218203092"><ele>25.333333333333332</ele><time>2026-05-02T07:28:39.998Z</time></trkpt><trkpt lat="39.92783910176222" lon="8.408671049455332"><ele>24.666666666666664</ele><time>2026-05-02T07:28:40.998Z</time></trkpt><trkpt lat="39.9279298859039" lon="8.408506650124679"><ele>24.0</ele><time>2026-05-02T07:28:41.998Z</time></trkpt><trkpt lat="39.92802191844124" lon="8.408349769182367"><ele>24.0</ele><time>2026-05-02T07:28:42.998Z</time></trkpt><trkpt lat="39.92812312168365" lon="8.408199513382419"><ele>24.0</ele><time>2026-05-02T07:28:43.998Z</time></trkpt><trkpt lat="39.928229300954555" lon="8.40805762724553"><ele>24.0</ele><time>2026-05-02T07:28:44.998Z</time></trkpt><trkpt lat="39.928335491293204" lon="8.407934982232916"><ele>24.0</ele><time>2026-05-02T07:28:45.998Z</time></trkpt><trkpt lat="39.92843854652608" lon="8.407828107947767"><ele>22.333333333333332</ele><time>2026-05-02T07:28:46.998Z</time></trkpt><trkpt lat="39.92854471965312" lon="8.407726058293921"><ele>20.666666666666664</ele><time>2026-05-02T07:28:47.998Z</time></trkpt><trkpt lat="39.928671949852514" lon="8.40761621250635"><ele>19.0</ele><time>2026-05-02T07:28:48.998Z</time></trkpt><trkpt lat="39.928812510464255" lon="8.40748955878205"><ele>19.0</ele><time>2026-05-02T07:28:49.998Z</time></trkpt><trkpt lat="39.928940514382376" lon="8.407355385951165"><ele>19.0</ele><time>2026-05-02T07:28:51Z</time></trkpt><trkpt lat="39.92905255831933" lon="8.407235785931965"><ele>19.0</ele><time>2026-05-02T07:28:52Z</time></trkpt><trkpt lat="39.929163677333584" lon="8.407133637346517"><ele>19.0</ele><time>2026-05-02T07:28:53Z</time></trkpt><trkpt lat="39.929273218727886" lon="8.4070451390868"><ele>19.0</ele><time>2026-05-02T07:28:54Z</time></trkpt><trkpt lat="39.929391635841355" lon="8.406953279802396"><ele>19.0</ele><time>2026-05-02T07:28:55Z</time></trkpt><trkpt lat="39.92952285347798" lon="8.406856118096108"><ele>19.0</ele><time>2026-05-02T07:28:56Z</time></trkpt><trkpt lat="39.92965713808506" lon="8.406755816226449"><ele>19.0</ele><time>2026-05-02T07:28:57Z</time></trkpt><trkpt lat="39.929798005292476" lon="8.406654622084945"><ele>19.0</ele><time>2026-05-02T07:28:58Z</time></trkpt><trkpt lat="39.929924362714296" lon="8.406563275733866"><ele>19.0</ele><time>2026-05-02T07:28:59Z</time></trkpt><trkpt lat="39.93004131712221" lon="8.406473872601355"><ele>19.0</ele><time>2026-05-02T07:29:00Z</time></trkpt><trkpt lat="39.93015080894752" lon="8.406367263898236"><ele>19.0</ele><time>2026-05-02T07:29:01Z</time></trkpt><trkpt lat="39.93025671002409" lon="8.4062542938083"><ele>18.4</ele><time>2026-05-02T07:29:02Z</time></trkpt><trkpt lat="39.9303552975083" lon="8.40615281032746"><ele>17.799999999999997</ele><time>2026-05-02T07:29:03Z</time></trkpt><trkpt lat="39.93044159485331" lon="8.406057969133359"><ele>17.200000000000003</ele><time>2026-05-02T07:29:04Z</time></trkpt><trkpt lat="39.930521680922" lon="8.405982444541815"><ele>16.6</ele><time>2026-05-02T07:29:05Z</time></trkpt><trkpt lat="39.93061108508372" lon="8.405923829529588"><ele>16.0</ele><time>2026-05-02T07:29:06Z</time></trkpt><trkpt lat="39.930700692661404" lon="8.405890582936621"><ele>16.0</ele><time>2026-05-02T07:29:07Z</time></trkpt><trkpt lat="39.930782416511924" lon="8.40585603505633"><ele>16.0</ele><time>2026-05-02T07:29:08Z</time></trkpt><trkpt lat="39.93084669366377" lon="8.40583589881358"><ele>16.0</ele><time>2026-05-02T07:29:09Z</time></trkpt><trkpt lat="39.930906797279206" lon="8.405868581543835"><ele>16.0</ele><time>2026-05-02T07:29:10Z</time></trkpt><trkpt lat="39.931022931770926" lon="8.405832785963206"><ele>16.0</ele><time>2026-05-02T07:29:12Z</time></trkpt><trkpt lat="39.93112765858808" lon="8.405759786533292"><ele>15.833333333333332</ele><time>2026-05-02T07:29:14Z</time></trkpt><trkpt lat="39.931189081134946" lon="8.405703918634819"><ele>15.666666666666666</ele><time>2026-05-02T07:29:15Z</time></trkpt><trkpt lat="39.93125578339175" lon="8.405641389002472"><ele>15.5</ele><time>2026-05-02T07:29:16Z</time></trkpt><trkpt lat="39.93132311327933" lon="8.405594158448146"><ele>15.333333333333332</ele><time>2026-05-02T07:29:17Z</time></trkpt><trkpt lat="39.9313905311034" lon="8.405531784641484"><ele>15.166666666666666</ele><time>2026-05-02T07:29:18Z</time></trkpt><trkpt lat="39.931452767250406" lon="8.405439922779424"><ele>15.0</ele><time>2026-05-02T07:29:19Z</time></trkpt><trkpt lat="39.9314996519547" lon="8.405359738064764"><ele>15.0</ele><time>2026-05-02T07:29:20Z</time></trkpt><trkpt lat="39.93158598707197" lon="8.405294983955368"><ele>15.0</ele><time>2026-05-02T07:29:22Z</time></trkpt><trkpt lat="39.93168358833982" lon="8.405343811363226"><ele>15.0</ele><time>2026-05-02T07:29:24Z</time></trkpt><trkpt lat="39.931760747666594" lon="8.405360681440822"><ele>15.0</ele><time>2026-05-02T07:29:25Z</time></trkpt><trkpt lat="39.931846826657555" lon="8.405379555144375"><ele>15.0</ele><time>2026-05-02T07:29:26Z</time></trkpt><trkpt lat="39.931942340044024" lon="8.4053904350908"><ele>14.8</ele><time>2026-05-02T07:29:27Z</time></trkpt><trkpt lat="39.932042004548826" lon="8.40535663509309"><ele>14.6</ele><time>2026-05-02T07:29:28Z</time></trkpt><trkpt lat="39.93213657593682" lon="8.405292829598142"><ele>14.399999999999999</ele><time>2026-05-02T07:29:29Z</time></trkpt><trkpt lat="39.93223233774349" lon="8.40521575351629"><ele>14.2</ele><time>2026-05-02T07:29:30Z</time></trkpt><trkpt lat="39.93233582279792" lon="8.405146704007937"><ele>14.0</ele><time>2026-05-02T07:29:31Z</time></trkpt><trkpt lat="39.93242832493595" lon="8.405099163751991"><ele>14.000000000000002</ele><time>2026-05-02T07:29:32Z</time></trkpt><trkpt lat="39.93251182135017" lon="8.40505601328924"><ele>14.0</ele><time>2026-05-02T07:29:33Z</time></trkpt><trkpt lat="39.93258960489112" lon="8.405039755041738"><ele>14.0</ele><time>2026-05-02T07:29:34Z</time></trkpt><trkpt lat="39.93266125699272" lon="8.405000497767798"><ele>14.0</ele><time>2026-05-02T07:29:35Z</time></trkpt><trkpt lat="39.93273626813264" lon="8.404952077887813"><ele>14.000000000000002</ele><time>2026-05-02T07:29:35.999Z</time></trkpt><trkpt lat="39.93280796909115" lon="8.40489414179923"><ele>14.0</ele><time>2026-05-02T07:29:36.999Z</time></trkpt><trkpt lat="39.93289555341579" lon="8.404825074454928"><ele>13.399999999999999</ele><time>2026-05-02T07:29:37.999Z</time></trkpt><trkpt lat="39.932987651081824" lon="8.4047505181065"><ele>12.799999999999999</ele><time>2026-05-02T07:29:38.999Z</time></trkpt><trkpt lat="39.933078460754665" lon="8.404665035618322"><ele>12.2</ele><time>2026-05-02T07:29:39.999Z</time></trkpt><trkpt lat="39.93316311980624" lon="8.40455920779158"><ele>11.600000000000001</ele><time>2026-05-02T07:29:40.999Z</time></trkpt><trkpt lat="39.933231545280215" lon="8.404459096064286"><ele>11.0</ele><time>2026-05-02T07:29:41.999Z</time></trkpt><trkpt lat="39.93328268616024" lon="8.404376552455824"><ele>10.8</ele><time>2026-05-02T07:29:42.999Z</time></trkpt><trkpt lat="39.93333207568725" lon="8.404295700731398"><ele>10.600000000000001</ele><time>2026-05-02T07:29:43.999Z</time></trkpt><trkpt lat="39.93338996304092" lon="8.404194393980635"><ele>10.4</ele><time>2026-05-02T07:29:44.999Z</time></trkpt><trkpt lat="39.93345148442974" lon="8.40407489884283"><ele>10.2</ele><time>2026-05-02T07:29:45.999Z</time></trkpt><trkpt lat="39.93348914760522" lon="8.403961679883466"><ele>10.0</ele><time>2026-05-02T07:29:46.999Z</time></trkpt><trkpt lat="39.93350128136212" lon="8.403870795723533"><ele>9.0</ele><time>2026-05-02T07:29:47.999Z</time></trkpt><trkpt lat="39.93352540859951" lon="8.403778848269086"><ele>8.0</ele><time>2026-05-02T07:29:48.999Z</time></trkpt><trkpt lat="39.93358115619564" lon="8.403580289383777"><ele>7.0</ele><time>2026-05-02T07:29:49.999Z</time></trkpt><trkpt lat="39.933638949417144" lon="8.403466519904926"><ele>6.0</ele><time>2026-05-02T07:29:50.999Z</time></trkpt><trkpt lat="39.933704917050584" lon="8.403339496779063"><ele>6.0</ele><time>2026-05-02T07:29:51.999Z</time></trkpt><trkpt lat="39.933751929701444" lon="8.403242645740487"><ele>6.0</ele><time>2026-05-02T07:29:52.999Z</time></trkpt><trkpt lat="39.93380261294073" lon="8.403125913648163"><ele>6.0</ele><time>2026-05-02T07:29:53.999Z</time></trkpt><trkpt lat="39.93382354519317" lon="8.403046130241833"><ele>6.0</ele><time>2026-05-02T07:29:54.999Z</time></trkpt><trkpt lat="39.93387291859444" lon="8.402964101405919"><ele>6.0</ele><time>2026-05-02T07:29:55.999Z</time></trkpt><trkpt lat="39.93392791002301" lon="8.40287799944292"><ele>6.0</ele><time>2026-05-02T07:29:56.999Z</time></trkpt><trkpt lat="39.933986308551845" lon="8.402783266727207"><ele>5.3999999999999995</ele><time>2026-05-02T07:29:57.999Z</time></trkpt><trkpt lat="39.934053124654035" lon="8.402661603727308"><ele>4.8</ele><time>2026-05-02T07:29:58.999Z</time></trkpt><trkpt lat="39.93410219747189" lon="8.402594247719184"><ele>4.199999999999999</ele><time>2026-05-02T07:29:59.999Z</time></trkpt><trkpt lat="39.93415657769969" lon="8.402524837347872"><ele>3.5999999999999996</ele><time>2026-05-02T07:30:00.999Z</time></trkpt><trkpt lat="39.934210642242306" lon="8.402480082663777"><ele>3.0</ele><time>2026-05-02T07:30:01.999Z</time></trkpt><trkpt lat="39.93471032934972" lon="8.402630938745064"><ele>3.0</ele><time>2026-05-02T07:30:02.999Z</time></trkpt><trkpt lat="39.934815520582035" lon="8.40262148308432"><ele>3.0</ele><time>2026-05-02T07:30:03.999Z</time></trkpt><trkpt lat="39.93493584819574" lon="8.402556583292336"><ele>3.0</ele><time>2026-05-02T07:30:04.999Z</time></trkpt><trkpt lat="39.93508043878624" lon="8.40249512265393"><ele>3.0</ele><time>2026-05-02T07:30:05.999Z</time></trkpt><trkpt lat="39.93521620957461" lon="8.402425602860593"><ele>2.3333333333333335</ele><time>2026-05-02T07:30:06.999Z</time></trkpt><trkpt lat="39.93535322640126" lon="8.402391123575994"><ele>1.6666666666666665</ele><time>2026-05-02T07:30:07.999Z</time></trkpt><trkpt lat="39.93551452674258" lon="8.402376937722684"><ele>1.0</ele><time>2026-05-02T07:30:08.999Z</time></trkpt><trkpt lat="39.93568688013121" lon="8.402369326141256"><ele>1.0</ele><time>2026-05-02T07:30:09.999Z</time></trkpt><trkpt lat="39.93587364775065" lon="8.402367760102038"><ele>1.0</ele><time>2026-05-02T07:30:10.999Z</time></trkpt><trkpt lat="39.93605571756512" lon="8.402381304616528"><ele>1.0</ele><time>2026-05-02T07:30:11.999Z</time></trkpt><trkpt lat="39.936223346031625" lon="8.402378564299173"><ele>1.25</ele><time>2026-05-02T07:30:12.999Z</time></trkpt><trkpt lat="39.9363737394259" lon="8.402359342856906"><ele>1.5</ele><time>2026-05-02T07:30:13.999Z</time></trkpt><trkpt lat="39.936513634111456" lon="8.402326516574382"><ele>1.75</ele><time>2026-05-02T07:30:14.999Z</time></trkpt><trkpt lat="39.93664926554348" lon="8.402378947313514"><ele>2.0</ele><time>2026-05-02T07:30:15.999Z</time></trkpt><trkpt lat="39.93679613405489" lon="8.40241678114284"><ele>2.0</ele><time>2026-05-02T07:30:16.999Z</time></trkpt><trkpt lat="39.93694989033313" lon="8.402452662856149"><ele>2.0</ele><time>2026-05-02T07:30:17.999Z</time></trkpt><trkpt lat="39.93711598387602" lon="8.402491423682669"><ele>2.0</ele><time>2026-05-02T07:30:18.999Z</time></trkpt><trkpt lat="39.9372891636086" lon="8.402532005159276"><ele>2.0</ele><time>2026-05-02T07:30:19.999Z</time></trkpt><trkpt lat="39.93745956846771" lon="8.402566288182609"><ele>2.0</ele><time>2026-05-02T07:30:20.999Z</time></trkpt><trkpt lat="39.93761553219885" lon="8.40259977895132"><ele>2.0</ele><time>2026-05-02T07:30:21.999Z</time></trkpt><trkpt lat="39.937761620781686" lon="8.402625703431175"><ele>2.333333333333333</ele><time>2026-05-02T07:30:22.999Z</time></trkpt><trkpt lat="39.937906614771244" lon="8.402693030653792"><ele>2.6666666666666665</ele><time>2026-05-02T07:30:23.999Z</time></trkpt><trkpt lat="39.938045832058535" lon="8.402797238828217"><ele>3.0</ele><time>2026-05-02T07:30:24.999Z</time></trkpt><trkpt lat="39.93818801601685" lon="8.402900943820867"><ele>3.333333333333333</ele><time>2026-05-02T07:30:25.999Z</time></trkpt><trkpt lat="39.93833105620393" lon="8.403017551436157"><ele>3.6666666666666665</ele><time>2026-05-02T07:30:26.999Z</time></trkpt><trkpt lat="39.938476211989226" lon="8.403125024199541"><ele>4.0</ele><time>2026-05-02T07:30:27.999Z</time></trkpt><trkpt lat="39.93862848741901" lon="8.4031909509993"><ele>3.5</ele><time>2026-05-02T07:30:28.999Z</time></trkpt><trkpt lat="39.938773424508476" lon="8.403269748483648"><ele>3.0</ele><time>2026-05-02T07:30:29.999Z</time></trkpt><trkpt lat="39.93890672861253" lon="8.403330018147248"><ele>2.5</ele><time>2026-05-02T07:30:30.999Z</time></trkpt><trkpt lat="39.939023288790025" lon="8.403393052152863"><ele>2.0</ele><time>2026-05-02T07:30:31.999Z</time></trkpt><trkpt lat="39.939119580503686" lon="8.403457087515191"><ele>2.0</ele><time>2026-05-02T07:30:32.999Z</time></trkpt><trkpt lat="39.939208657648535" lon="8.403494043923732"><ele>2.0</ele><time>2026-05-02T07:30:33.999Z</time></trkpt><trkpt lat="39.939319194494836" lon="8.403493874784546"><ele>2.0</ele><time>2026-05-02T07:30:34.999Z</time></trkpt><trkpt lat="39.93945414985699" lon="8.403469630176966"><ele>2.0</ele><time>2026-05-02T07:30:35.999Z</time></trkpt><trkpt lat="39.93960555140713" lon="8.403450390182261"><ele>2.0</ele><time>2026-05-02T07:30:36.999Z</time></trkpt><trkpt lat="39.93976115219501" lon="8.403448870623373"><ele>2.0</ele><time>2026-05-02T07:30:37.999Z</time></trkpt><trkpt lat="39.93991760745666" lon="8.403447778448347"><ele>2.0</ele><time>2026-05-02T07:30:38.998Z</time></trkpt><trkpt lat="39.94008729316782" lon="8.403434430613336"><ele>2.333333333333333</ele><time>2026-05-02T07:30:39.998Z</time></trkpt><trkpt lat="39.940258150130624" lon="8.403394488904967"><ele>2.6666666666666665</ele><time>2026-05-02T07:30:40.998Z</time></trkpt><trkpt lat="39.94042168712756" lon="8.403368378389303"><ele>3.0</ele><time>2026-05-02T07:30:41.998Z</time></trkpt><trkpt lat="39.94057714421543" lon="8.403362601414468"><ele>3.0</ele><time>2026-05-02T07:30:42.998Z</time></trkpt><trkpt lat="39.94072473427272" lon="8.403364824203821"><ele>3.0</ele><time>2026-05-02T07:30:43.998Z</time></trkpt><trkpt lat="39.9408763170125" lon="8.403352554999142"><ele>3.0</ele><time>2026-05-02T07:30:44.998Z</time></trkpt><trkpt lat="39.94103071949413" lon="8.403319473909104"><ele>3.666666666666667</ele><time>2026-05-02T07:30:45.998Z</time></trkpt><trkpt lat="39.94118670193569" lon="8.403271492645764"><ele>4.333333333333334</ele><time>2026-05-02T07:30:46.998Z</time></trkpt><trkpt lat="39.941343637505646" lon="8.403221658790388"><ele>5.0</ele><time>2026-05-02T07:30:47.998Z</time></trkpt><trkpt lat="39.94150127198044" lon="8.403181214735097"><ele>5.0</ele><time>2026-05-02T07:30:48.998Z</time></trkpt><trkpt lat="39.94166254766787" lon="8.403149931232875"><ele>5.0</ele><time>2026-05-02T07:30:49.998Z</time></trkpt><trkpt lat="39.94182398300794" lon="8.403121663708301"><ele>5.0</ele><time>2026-05-02T07:30:50.998Z</time></trkpt><trkpt lat="39.941982255408135" lon="8.403089585068368"><ele>5.0</ele><time>2026-05-02T07:30:51.998Z</time></trkpt><trkpt lat="39.94213215097456" lon="8.403066793965506"><ele>5.0</ele><time>2026-05-02T07:30:52.998Z</time></trkpt><trkpt lat="39.94226865415327" lon="8.40306412767087"><ele>5.0</ele><time>2026-05-02T07:30:53.998Z</time></trkpt><trkpt lat="39.94241504291167" lon="8.4030839996878"><ele>5.0</ele><time>2026-05-02T07:30:54.998Z</time></trkpt><trkpt lat="39.942567877865166" lon="8.403125166669575"><ele>4.666666666666667</ele><time>2026-05-02T07:30:55.998Z</time></trkpt><trkpt lat="39.94273068649387" lon="8.403175591535762"><ele>4.333333333333333</ele><time>2026-05-02T07:30:57Z</time></trkpt><trkpt lat="39.9429018093578" lon="8.403229585394529"><ele>4.0</ele><time>2026-05-02T07:30:58Z</time></trkpt><trkpt lat="39.94307105862115" lon="8.403273526681799"><ele>4.0</ele><time>2026-05-02T07:30:59Z</time></trkpt><trkpt lat="39.94323559517675" lon="8.403312430025498"><ele>4.0</ele><time>2026-05-02T07:31:00Z</time></trkpt><trkpt lat="39.94339788682518" lon="8.40335653917986"><ele>4.0</ele><time>2026-05-02T07:31:01Z</time></trkpt><trkpt lat="39.943558868298105" lon="8.403405563833699"><ele>4.25</ele><time>2026-05-02T07:31:02Z</time></trkpt><trkpt lat="39.94369777111574" lon="8.403463551764753"><ele>4.5</ele><time>2026-05-02T07:31:03Z</time></trkpt><trkpt lat="39.94382540674103" lon="8.403528148203977"><ele>4.75</ele><time>2026-05-02T07:31:04Z</time></trkpt><trkpt lat="39.94396920530196" lon="8.403594962097342"><ele>5.0</ele><time>2026-05-02T07:31:05Z</time></trkpt><trkpt lat="39.944123869704754" lon="8.40365679557164"><ele>6.0</ele><time>2026-05-02T07:31:06Z</time></trkpt><trkpt lat="39.94425399309101" lon="8.403713506206346"><ele>7.0</ele><time>2026-05-02T07:31:07Z</time></trkpt><trkpt lat="39.94439044206905" lon="8.403742648412614"><ele>8.0</ele><time>2026-05-02T07:31:08Z</time></trkpt><trkpt lat="39.9445651735152" lon="8.403739556647949"><ele>8.0</ele><time>2026-05-02T07:31:09Z</time></trkpt><trkpt lat="39.94474099189567" lon="8.403739911836288"><ele>8.0</ele><time>2026-05-02T07:31:10Z</time></trkpt><trkpt lat="39.94491558571918" lon="8.403765533406473"><ele>8.0</ele><time>2026-05-02T07:31:11Z</time></trkpt><trkpt lat="39.94508811236024" lon="8.403814075305492"><ele>8.0</ele><time>2026-05-02T07:31:12Z</time></trkpt><trkpt lat="39.94525055830275" lon="8.403865498970257"><ele>8.0</ele><time>2026-05-02T07:31:13Z</time></trkpt><trkpt lat="39.94539673457504" lon="8.403885484320558"><ele>8.0</ele><time>2026-05-02T07:31:14Z</time></trkpt><trkpt lat="39.9455366003699" lon="8.403875496609007"><ele>8.0</ele><time>2026-05-02T07:31:15Z</time></trkpt><trkpt lat="39.94567777195254" lon="8.403843515753222"><ele>8.0</ele><time>2026-05-02T07:31:16Z</time></trkpt><trkpt lat="39.94582155468561" lon="8.403812454858501"><ele>8.0</ele><time>2026-05-02T07:31:17Z</time></trkpt><trkpt lat="39.94597547411391" lon="8.403827504177572"><ele>8.0</ele><time>2026-05-02T07:31:18Z</time></trkpt><trkpt lat="39.946154953089085" lon="8.40381042219856"><ele>6.666666666666666</ele><time>2026-05-02T07:31:19Z</time></trkpt><trkpt lat="39.9463373607069" lon="8.403796611576409"><ele>5.333333333333333</ele><time>2026-05-02T07:31:20Z</time></trkpt><trkpt lat="39.946513730966124" lon="8.403777123711983"><ele>4.0</ele><time>2026-05-02T07:31:21Z</time></trkpt><trkpt lat="39.94667371414646" lon="8.40377314606173"><ele>4.5</ele><time>2026-05-02T07:31:22Z</time></trkpt><trkpt lat="39.946811726823334" lon="8.403783308092851"><ele>5.0</ele><time>2026-05-02T07:31:23Z</time></trkpt><trkpt lat="39.94693993202011" lon="8.403803895230897"><ele>5.5</ele><time>2026-05-02T07:31:24Z</time></trkpt><trkpt lat="39.947082665805006" lon="8.403812179592718"><ele>6.0</ele><time>2026-05-02T07:31:25Z</time></trkpt><trkpt lat="39.947244882594" lon="8.40379005847094"><ele>6.0</ele><time>2026-05-02T07:31:26Z</time></trkpt><trkpt lat="39.947396334735615" lon="8.403775199941888"><ele>6.0</ele><time>2026-05-02T07:31:27Z</time></trkpt><trkpt lat="39.947506210045546" lon="8.403800525221953"><ele>6.0</ele><time>2026-05-02T07:31:28Z</time></trkpt><trkpt lat="39.94759304361809" lon="8.403845859143518"><ele>6.0</ele><time>2026-05-02T07:31:29Z</time></trkpt><trkpt lat="39.9476629732925" lon="8.403867829704158"><ele>6.0</ele><time>2026-05-02T07:31:30Z</time></trkpt><trkpt lat="39.947758235563725" lon="8.403777074520818"><ele>6.5</ele><time>2026-05-02T07:31:31Z</time></trkpt><trkpt lat="39.947877059734864" lon="8.403731602711392"><ele>7.0</ele><time>2026-05-02T07:31:32Z</time></trkpt><trkpt lat="39.94800731893451" lon="8.403663378714004"><ele>7.5</ele><time>2026-05-02T07:31:33Z</time></trkpt><trkpt lat="39.948130742146425" lon="8.403598031644847"><ele>8.0</ele><time>2026-05-02T07:31:34Z</time></trkpt><trkpt lat="39.94824500822723" lon="8.403528640093036"><ele>8.0</ele><time>2026-05-02T07:31:35Z</time></trkpt><trkpt lat="39.94833485295192" lon="8.403440704206727"><ele>8.0</ele><time>2026-05-02T07:31:36Z</time></trkpt><trkpt lat="39.94842773336344" lon="8.403364290757722"><ele>8.0</ele><time>2026-05-02T07:31:37Z</time></trkpt><trkpt lat="39.9485081191069" lon="8.403284322174976"><ele>8.0</ele><time>2026-05-02T07:31:37.999Z</time></trkpt><trkpt lat="39.948573955603074" lon="8.403204327418024"><ele>8.0</ele><time>2026-05-02T07:31:38.999Z</time></trkpt><trkpt lat="39.94863371836457" lon="8.403150936100921"><ele>8.200000000000001</ele><time>2026-05-02T07:31:39.999Z</time></trkpt><trkpt lat="39.948732176235005" lon="8.403215646089397"><ele>8.4</ele><time>2026-05-02T07:31:41.999Z</time></trkpt><trkpt lat="39.948819914214184" lon="8.403231394850224"><ele>8.600000000000001</ele><time>2026-05-02T07:31:43.999Z</time></trkpt><trkpt lat="39.94889963119537" lon="8.403157121264613"><ele>8.8</ele><time>2026-05-02T07:31:45.999Z</time></trkpt><trkpt lat="39.94894977886925" lon="8.403088023833483"><ele>9.0</ele><time>2026-05-02T07:31:46.999Z</time></trkpt><trkpt lat="39.949008250198446" lon="8.403016001861914"><ele>8.5</ele><time>2026-05-02T07:31:47.999Z</time></trkpt><trkpt lat="39.94905850218926" lon="8.402924577542526"><ele>8.0</ele><time>2026-05-02T07:31:48.999Z</time></trkpt><trkpt lat="39.9490953123221" lon="8.402829280787083"><ele>7.5</ele><time>2026-05-02T07:31:49.999Z</time></trkpt><trkpt lat="39.94915675798176" lon="8.402764685117813"><ele>7.0</ele><time>2026-05-02T07:31:50.999Z</time></trkpt><trkpt lat="39.949212969221165" lon="8.402683430977627"><ele>6.5</ele><time>2026-05-02T07:31:51.999Z</time></trkpt><trkpt lat="39.949280584574495" lon="8.402621085433978"><ele>6.0</ele><time>2026-05-02T07:31:52.999Z</time></trkpt><trkpt lat="39.949326376630275" lon="8.402535135854741"><ele>5.666666666666667</ele><time>2026-05-02T07:31:53.999Z</time></trkpt><trkpt lat="39.94936560872185" lon="8.402440813245585"><ele>5.333333333333333</ele><time>2026-05-02T07:31:54.999Z</time></trkpt><trkpt lat="39.94942509659518" lon="8.402367148470956"><ele>5.0</ele><time>2026-05-02T07:31:55.999Z</time></trkpt><trkpt lat="39.949488547027244" lon="8.402309744117137"><ele>4.666666666666666</ele><time>2026-05-02T07:31:56.999Z</time></trkpt><trkpt lat="39.94954807465876" lon="8.402251511370416"><ele>4.333333333333333</ele><time>2026-05-02T07:31:57.999Z</time></trkpt><trkpt lat="39.949612913016566" lon="8.402195864919594"><ele>4.0</ele><time>2026-05-02T07:31:58.999Z</time></trkpt><trkpt lat="39.94968967876075" lon="8.402187445237045"><ele>4.0</ele><time>2026-05-02T07:31:59.999Z</time></trkpt><trkpt lat="39.94977850604879" lon="8.402192772524637"><ele>4.0</ele><time>2026-05-02T07:32:00.999Z</time></trkpt><trkpt lat="39.94984358955811" lon="8.402272258055877"><ele>4.0</ele><time>2026-05-02T07:32:01.999Z</time></trkpt><trkpt lat="39.94994429932013" lon="8.402382739215916"><ele>4.0</ele><time>2026-05-02T07:32:03.999Z</time></trkpt><trkpt lat="39.9500058391551" lon="8.402457406272744"><ele>4.0</ele><time>2026-05-02T07:32:04.999Z</time></trkpt><trkpt lat="39.950072907472354" lon="8.402543651420094"><ele>3.8000000000000003</ele><time>2026-05-02T07:32:05.999Z</time></trkpt><trkpt lat="39.9501394264139" lon="8.402638960824564"><ele>3.6000000000000005</ele><time>2026-05-02T07:32:06.999Z</time></trkpt><trkpt lat="39.95019302832348" lon="8.402733058481731"><ele>3.4</ele><time>2026-05-02T07:32:07.999Z</time></trkpt><trkpt lat="39.95021368392476" lon="8.40283259670748"><ele>3.2</ele><time>2026-05-02T07:32:08.999Z</time></trkpt><trkpt lat="39.95017928974222" lon="8.402929469860535"><ele>3.0</ele><time>2026-05-02T07:32:09.999Z</time></trkpt><trkpt lat="39.95016511286022" lon="8.403064639455891"><ele>3.4</ele><time>2026-05-02T07:32:10.999Z</time></trkpt><trkpt lat="39.95014694532789" lon="8.403237858891446"><ele>3.8</ele><time>2026-05-02T07:32:11.999Z</time></trkpt><trkpt lat="39.95015589521522" lon="8.403397126951933"><ele>4.2</ele><time>2026-05-02T07:32:12.999Z</time></trkpt><trkpt lat="39.950169358997975" lon="8.403521917677827"><ele>4.6</ele><time>2026-05-02T07:32:13.999Z</time></trkpt><trkpt lat="39.95019937285823" lon="8.403622174411097"><ele>5.0</ele><time>2026-05-02T07:32:14.999Z</time></trkpt><trkpt lat="39.950233564611814" lon="8.403699880035138"><ele>5.0</ele><time>2026-05-02T07:32:15.999Z</time></trkpt><trkpt lat="39.95030965102989" lon="8.403791216046153"><ele>5.0</ele><time>2026-05-02T07:32:17.999Z</time></trkpt><trkpt lat="39.95042623122739" lon="8.40372617635761"><ele>5.0</ele><time>2026-05-02T07:32:19.999Z</time></trkpt><trkpt lat="39.950497012894985" lon="8.403668400750849"><ele>5.0</ele><time>2026-05-02T07:32:20.999Z</time></trkpt><trkpt lat="39.95058911510872" lon="8.40364230378267"><ele>5.0</ele><time>2026-05-02T07:32:21.999Z</time></trkpt><trkpt lat="39.950678881884194" lon="8.403580574427494"><ele>5.0</ele><time>2026-05-02T07:32:22.999Z</time></trkpt><trkpt lat="39.95078071006108" lon="8.403537981139348"><ele>5.0</ele><time>2026-05-02T07:32:23.999Z</time></trkpt><trkpt lat="39.95089575996065" lon="8.4035173311771"><ele>5.0</ele><time>2026-05-02T07:32:24.999Z</time></trkpt><trkpt lat="39.951018930178016" lon="8.403509598916415"><ele>5.0</ele><time>2026-05-02T07:32:25.999Z</time></trkpt><trkpt lat="39.95114601318037" lon="8.403504318827896"><ele>5.0</ele><time>2026-05-02T07:32:26.999Z</time></trkpt><trkpt lat="39.95127730935383" lon="8.40348259269212"><ele>5.0</ele><time>2026-05-02T07:32:27.999Z</time></trkpt><trkpt lat="39.95140601052367" lon="8.403433865198187"><ele>5.0</ele><time>2026-05-02T07:32:28.999Z</time></trkpt><trkpt lat="39.95154939194737" lon="8.403406337735001"><ele>5.0</ele><time>2026-05-02T07:32:29.999Z</time></trkpt><trkpt lat="39.95169706137562" lon="8.403412518682192"><ele>5.0</ele><time>2026-05-02T07:32:30.999Z</time></trkpt><trkpt lat="39.95184580274184" lon="8.403398818621856"><ele>5.0</ele><time>2026-05-02T07:32:31.999Z</time></trkpt><trkpt lat="39.95199531530253" lon="8.403396585792123"><ele>5.0</ele><time>2026-05-02T07:32:32.999Z</time></trkpt><trkpt lat="39.95214504346526" lon="8.403406949865955"><ele>5.0</ele><time>2026-05-02T07:32:33.999Z</time></trkpt><trkpt lat="39.95229428291498" lon="8.403417801859435"><ele>5.0</ele><time>2026-05-02T07:32:34.999Z</time></trkpt><trkpt lat="39.95244106665324" lon="8.403431299181127"><ele>5.0</ele><time>2026-05-02T07:32:35.999Z</time></trkpt><trkpt lat="39.952584502474565" lon="8.403444577528118"><ele>5.0</ele><time>2026-05-02T07:32:36.999Z</time></trkpt><trkpt lat="39.952724199499784" lon="8.403451310412459"><ele>5.0</ele><time>2026-05-02T07:32:37.999Z</time></trkpt><trkpt lat="39.95286153939814" lon="8.40345833796326"><ele>5.4</ele><time>2026-05-02T07:32:38.999Z</time></trkpt><trkpt lat="39.95299950930477" lon="8.40347274476064"><ele>5.8</ele><time>2026-05-02T07:32:39.998Z</time></trkpt><trkpt lat="39.95312094146105" lon="8.40348504019582"><ele>6.199999999999999</ele><time>2026-05-02T07:32:40.998Z</time></trkpt><trkpt lat="39.953211045959726" lon="8.403490757308903"><ele>6.6</ele><time>2026-05-02T07:32:41.998Z</time></trkpt><trkpt lat="39.95327555959807" lon="8.403503351465323"><ele>7.0</ele><time>2026-05-02T07:32:42.998Z</time></trkpt><trkpt lat="39.95334415989803" lon="8.403556776204956"><ele>7.0</ele><time>2026-05-02T07:32:44.998Z</time></trkpt><trkpt lat="39.95338570639672" lon="8.403635542069702"><ele>6.999999999999999</ele><time>2026-05-02T07:32:46.998Z</time></trkpt><trkpt lat="39.953435691039964" lon="8.403705607706247"><ele>6.999999999999999</ele><time>2026-05-02T07:32:47.998Z</time></trkpt><trkpt lat="39.95350546109901" lon="8.403762078433218"><ele>7.0</ele><time>2026-05-02T07:32:48.998Z</time></trkpt><trkpt lat="39.95360896630353" lon="8.403822269354798"><ele>7.0</ele><time>2026-05-02T07:32:49.998Z</time></trkpt><trkpt lat="39.95372427601958" lon="8.40390133257046"><ele>7.666666666666667</ele><time>2026-05-02T07:32:50.998Z</time></trkpt><trkpt lat="39.953844102405846" lon="8.404007091638812"><ele>8.333333333333334</ele><time>2026-05-02T07:32:51.998Z</time></trkpt><trkpt lat="39.9539783603542" lon="8.404122439419902"><ele>9.0</ele><time>2026-05-02T07:32:52.998Z</time></trkpt><trkpt lat="39.95412055730701" lon="8.404236049525181"><ele>9.333333333333334</ele><time>2026-05-02T07:32:53.998Z</time></trkpt><trkpt lat="39.954258926560414" lon="8.404360043863191"><ele>9.666666666666668</ele><time>2026-05-02T07:32:54.998Z</time></trkpt><trkpt lat="39.95439279583163" lon="8.404504868386399"><ele>10.0</ele><time>2026-05-02T07:32:55.998Z</time></trkpt><trkpt lat="39.954527413038115" lon="8.404645347136476"><ele>10.333333333333334</ele><time>2026-05-02T07:32:56.998Z</time></trkpt><trkpt lat="39.954676310294026" lon="8.404772424299614"><ele>10.666666666666666</ele><time>2026-05-02T07:32:57.998Z</time></trkpt><trkpt lat="39.95483126985286" lon="8.404903199193011"><ele>11.0</ele><time>2026-05-02T07:32:58.998Z</time></trkpt><trkpt lat="39.95498206433866" lon="8.405040409424862"><ele>12.0</ele><time>2026-05-02T07:32:59.998Z</time></trkpt><trkpt lat="39.95512986613691" lon="8.405173583945967"><ele>13.0</ele><time>2026-05-02T07:33:00.998Z</time></trkpt><trkpt lat="39.955275651517546" lon="8.405295907794791"><ele>14.0</ele><time>2026-05-02T07:33:01.998Z</time></trkpt><trkpt lat="39.95541971518488" lon="8.405405980158468"><ele>14.0</ele><time>2026-05-02T07:33:03Z</time></trkpt><trkpt lat="39.955542149577624" lon="8.405495729492433"><ele>14.0</ele><time>2026-05-02T07:33:04Z</time></trkpt><trkpt lat="39.955647554625095" lon="8.40555827675933"><ele>14.0</ele><time>2026-05-02T07:33:05Z</time></trkpt><trkpt lat="39.955756764348415" lon="8.405604411593893"><ele>14.0</ele><time>2026-05-02T07:33:06Z</time></trkpt><trkpt lat="39.9558770184683" lon="8.405627234593757"><ele>13.25</ele><time>2026-05-02T07:33:07Z</time></trkpt><trkpt lat="39.956011245917814" lon="8.405637751598334"><ele>12.5</ele><time>2026-05-02T07:33:08Z</time></trkpt><trkpt lat="39.95615975741129" lon="8.405639098640375"><ele>11.75</ele><time>2026-05-02T07:33:09Z</time></trkpt><trkpt lat="39.95632164609366" lon="8.405634911931239"><ele>11.0</ele><time>2026-05-02T07:33:10Z</time></trkpt><trkpt lat="39.95649039840948" lon="8.405635043336437"><ele>11.0</ele><time>2026-05-02T07:33:11Z</time></trkpt><trkpt lat="39.95666470862484" lon="8.40562744165447"><ele>11.0</ele><time>2026-05-02T07:33:12Z</time></trkpt><trkpt lat="39.9568406777423" lon="8.405597061453044"><ele>11.0</ele><time>2026-05-02T07:33:13Z</time></trkpt><trkpt lat="39.95700639537191" lon="8.405573651455283"><ele>11.0</ele><time>2026-05-02T07:33:14Z</time></trkpt><trkpt lat="39.957165766557885" lon="8.40557840437054"><ele>11.0</ele><time>2026-05-02T07:33:15Z</time></trkpt><trkpt lat="39.95732580630518" lon="8.405610038124058"><ele>11.0</ele><time>2026-05-02T07:33:16Z</time></trkpt><trkpt lat="39.95748081877263" lon="8.405664154652825"><ele>11.25</ele><time>2026-05-02T07:33:17Z</time></trkpt><trkpt lat="39.95763532620493" lon="8.405726641736688"><ele>11.5</ele><time>2026-05-02T07:33:18Z</time></trkpt><trkpt lat="39.95777482186506" lon="8.405785617763277"><ele>11.75</ele><time>2026-05-02T07:33:19Z</time></trkpt><trkpt lat="39.95788804444465" lon="8.40583671679301"><ele>12.0</ele><time>2026-05-02T07:33:20Z</time></trkpt><trkpt lat="39.95798071677328" lon="8.405870842372385"><ele>12.0</ele><time>2026-05-02T07:33:21Z</time></trkpt><trkpt lat="39.958070541548175" lon="8.405846969592957"><ele>12.0</ele><time>2026-05-02T07:33:22Z</time></trkpt><trkpt lat="39.95814717864715" lon="8.405852874079027"><ele>12.0</ele><time>2026-05-02T07:33:23Z</time></trkpt><trkpt lat="39.95821044488177" lon="8.405846139165716"><ele>12.0</ele><time>2026-05-02T07:33:25Z</time></trkpt><trkpt lat="39.95816131183793" lon="8.405984774564292"><ele>12.0</ele><time>2026-05-02T07:33:28Z</time></trkpt><trkpt lat="39.95811926235363" lon="8.40609294365969"><ele>12.0</ele><time>2026-05-02T07:33:29Z</time></trkpt><trkpt lat="39.95806035624204" lon="8.406216222716575"><ele>12.5</ele><time>2026-05-02T07:33:30Z</time></trkpt><trkpt lat="39.957989427749666" lon="8.406335188783759"><ele>13.0</ele><time>2026-05-02T07:33:31Z</time></trkpt><trkpt lat="39.95793666560452" lon="8.406477990368714"><ele>13.5</ele><time>2026-05-02T07:33:32Z</time></trkpt><trkpt lat="39.95788231539628" lon="8.406622212142501"><ele>14.0</ele><time>2026-05-02T07:33:33Z</time></trkpt><trkpt lat="39.95785148902146" lon="8.406753213839934"><ele>14.0</ele><time>2026-05-02T07:33:34Z</time></trkpt><trkpt lat="39.957804537913205" lon="8.406857912323437"><ele>13.999999999999998</ele><time>2026-05-02T07:33:35Z</time></trkpt><trkpt lat="39.957783760641334" lon="8.406982067207144"><ele>13.999999999999998</ele><time>2026-05-02T07:33:36Z</time></trkpt><trkpt lat="39.95778508954313" lon="8.40712257623827"><ele>14.0</ele><time>2026-05-02T07:33:37Z</time></trkpt><trkpt lat="39.957787044330324" lon="8.407261328242432"><ele>14.0</ele><time>2026-05-02T07:33:38Z</time></trkpt><trkpt lat="39.957781780375065" lon="8.407382556155525"><ele>14.0</ele><time>2026-05-02T07:33:39Z</time></trkpt><trkpt lat="39.95779387246153" lon="8.407493239374883"><ele>13.999999999999998</ele><time>2026-05-02T07:33:40Z</time></trkpt><trkpt lat="39.957825643658275" lon="8.40760242219705"><ele>13.999999999999998</ele><time>2026-05-02T07:33:41Z</time></trkpt><trkpt lat="39.957850113194986" lon="8.40772735695956"><ele>14.0</ele><time>2026-05-02T07:33:42Z</time></trkpt><trkpt lat="39.95790212047721" lon="8.407863824814516"><ele>14.0</ele><time>2026-05-02T07:33:42.999Z</time></trkpt><trkpt lat="39.95800015113609" lon="8.408000192808574"><ele>14.333333333333334</ele><time>2026-05-02T07:33:43.999Z</time></trkpt><trkpt lat="39.958100785307714" lon="8.40814847692318"><ele>14.666666666666668</ele><time>2026-05-02T07:33:44.999Z</time></trkpt><trkpt lat="39.95822865678559" lon="8.408299121836476"><ele>15.0</ele><time>2026-05-02T07:33:45.999Z</time></trkpt><trkpt lat="39.95836035205257" lon="8.408443434185163"><ele>14.666666666666668</ele><time>2026-05-02T07:33:46.999Z</time></trkpt><trkpt lat="39.95850451019682" lon="8.408586033292927"><ele>14.333333333333334</ele><time>2026-05-02T07:33:47.999Z</time></trkpt><trkpt lat="39.95866836513667" lon="8.408728922621732"><ele>14.0</ele><time>2026-05-02T07:33:48.999Z</time></trkpt><trkpt lat="39.95884375471129" lon="8.408863642514689"><ele>14.666666666666668</ele><time>2026-05-02T07:33:49.999Z</time></trkpt><trkpt lat="39.95901116123858" lon="8.409005111923118"><ele>15.333333333333332</ele><time>2026-05-02T07:33:50.999Z</time></trkpt><trkpt lat="39.95916692682217" lon="8.40914670030495"><ele>16.0</ele><time>2026-05-02T07:33:51.999Z</time></trkpt><trkpt lat="39.95931307978221" lon="8.409290651776251"><ele>16.0</ele><time>2026-05-02T07:33:52.999Z</time></trkpt><trkpt lat="39.95944741669632" lon="8.409417315391448"><ele>16.0</ele><time>2026-05-02T07:33:53.999Z</time></trkpt><trkpt lat="39.95957948209079" lon="8.409519667041032"><ele>16.0</ele><time>2026-05-02T07:33:54.999Z</time></trkpt><trkpt lat="39.95968252432291" lon="8.409595402817406"><ele>16.0</ele><time>2026-05-02T07:33:55.999Z</time></trkpt><trkpt lat="39.959746473469345" lon="8.409644385033744"><ele>16.666666666666664</ele><time>2026-05-02T07:33:56.999Z</time></trkpt><trkpt lat="39.95980036521617" lon="8.409725291817914"><ele>17.333333333333332</ele><time>2026-05-02T07:33:57.999Z</time></trkpt><trkpt lat="39.95980567664056" lon="8.409820430634438"><ele>18.0</ele><time>2026-05-02T07:33:58.999Z</time></trkpt><trkpt lat="39.959801748077204" lon="8.4099075342221"><ele>18.666666666666668</ele><time>2026-05-02T07:33:59.999Z</time></trkpt><trkpt lat="39.9597827380955" lon="8.410007080820684"><ele>19.333333333333336</ele><time>2026-05-02T07:34:00.999Z</time></trkpt><trkpt lat="39.959751495417166" lon="8.410127279587112"><ele>20.0</ele><time>2026-05-02T07:34:01.999Z</time></trkpt><trkpt lat="39.95971137669574" lon="8.410262152782401"><ele>20.0</ele><time>2026-05-02T07:34:02.999Z</time></trkpt><trkpt lat="39.95967057188507" lon="8.410423404719232"><ele>20.0</ele><time>2026-05-02T07:34:03.999Z</time></trkpt><trkpt lat="39.9596045331225" lon="8.410567833399435"><ele>20.0</ele><time>2026-05-02T07:34:04.999Z</time></trkpt><trkpt lat="39.95959215347958" lon="8.410707808120344"><ele>20.0</ele><time>2026-05-02T07:34:05.999Z</time></trkpt><trkpt lat="39.95957864364897" lon="8.410822459548083"><ele>20.6</ele><time>2026-05-02T07:34:06.999Z</time></trkpt><trkpt lat="39.95958190468566" lon="8.410919826514062"><ele>21.2</ele><time>2026-05-02T07:34:07.999Z</time></trkpt><trkpt lat="39.95963015840973" lon="8.411074916774453"><ele>21.799999999999997</ele><time>2026-05-02T07:34:09.999Z</time></trkpt><trkpt lat="39.95973596913235" lon="8.41105892416545"><ele>22.4</ele><time>2026-05-02T07:34:10.999Z</time></trkpt><trkpt lat="39.95982596087723" lon="8.411037720042092"><ele>23.0</ele><time>2026-05-02T07:34:11.999Z</time></trkpt><trkpt lat="39.95993723167038" lon="8.411053833464312"><ele>23.333333333333336</ele><time>2026-05-02T07:34:12.999Z</time></trkpt><trkpt lat="39.96007065876056" lon="8.41107957572499"><ele>23.666666666666668</ele><time>2026-05-02T07:34:13.999Z</time></trkpt><trkpt lat="39.96022302063694" lon="8.411072547425764"><ele>24.0</ele><time>2026-05-02T07:34:14.999Z</time></trkpt><trkpt lat="39.96038769840254" lon="8.4110459619187"><ele>24.0</ele><time>2026-05-02T07:34:15.999Z</time></trkpt><trkpt lat="39.96054538313176" lon="8.410997528237393"><ele>24.0</ele><time>2026-05-02T07:34:16.999Z</time></trkpt><trkpt lat="39.96070798635081" lon="8.410921428063983"><ele>24.0</ele><time>2026-05-02T07:34:17.999Z</time></trkpt><trkpt lat="39.960880448986195" lon="8.410827648762648"><ele>24.0</ele><time>2026-05-02T07:34:18.999Z</time></trkpt><trkpt lat="39.96105987902784" lon="8.41069692393707"><ele>24.0</ele><time>2026-05-02T07:34:19.999Z</time></trkpt><trkpt lat="39.961256381039426" lon="8.410616431574928"><ele>24.0</ele><time>2026-05-02T07:34:20.999Z</time></trkpt><trkpt lat="39.96144099699308" lon="8.410516827551058"><ele>23.666666666666668</ele><time>2026-05-02T07:34:21.999Z</time></trkpt><trkpt lat="39.96163255171791" lon="8.41042275385837"><ele>23.333333333333336</ele><time>2026-05-02T07:34:22.999Z</time></trkpt><trkpt lat="39.96180015842326" lon="8.410342037430611"><ele>23.0</ele><time>2026-05-02T07:34:23.999Z</time></trkpt><trkpt lat="39.96193075393651" lon="8.410275726147624"><ele>22.799999999999997</ele><time>2026-05-02T07:34:24.999Z</time></trkpt><trkpt lat="39.96202901688233" lon="8.410218443343751"><ele>22.6</ele><time>2026-05-02T07:34:25.999Z</time></trkpt><trkpt lat="39.96210302820917" lon="8.410159765359678"><ele>22.4</ele><time>2026-05-02T07:34:26.999Z</time></trkpt><trkpt lat="39.96216950317398" lon="8.410073866144243"><ele>22.200000000000003</ele><time>2026-05-02T07:34:27.999Z</time></trkpt><trkpt lat="39.962235098470565" lon="8.409946065094863"><ele>22.0</ele><time>2026-05-02T07:34:28.999Z</time></trkpt><trkpt lat="39.96230454298268" lon="8.409797012675297"><ele>21.75</ele><time>2026-05-02T07:34:29.999Z</time></trkpt><trkpt lat="39.96236634025271" lon="8.409653557029822"><ele>21.5</ele><time>2026-05-02T07:34:30.999Z</time></trkpt><trkpt lat="39.962487909988575" lon="8.409577529723073"><ele>21.25</ele><time>2026-05-02T07:34:31.999Z</time></trkpt><trkpt lat="39.96261874895632" lon="8.409484298568776"><ele>21.0</ele><time>2026-05-02T07:34:32.999Z</time></trkpt><trkpt lat="39.96276910798393" lon="8.409385242335295"><ele>21.0</ele><time>2026-05-02T07:34:33.999Z</time></trkpt><trkpt lat="39.962929984088326" lon="8.409286237428056"><ele>21.0</ele><time>2026-05-02T07:34:34.999Z</time></trkpt><trkpt lat="39.96309609526947" lon="8.409202754504197"><ele>21.0</ele><time>2026-05-02T07:34:35.999Z</time></trkpt><trkpt lat="39.96326415369912" lon="8.409122450377367"><ele>21.333333333333332</ele><time>2026-05-02T07:34:36.999Z</time></trkpt><trkpt lat="39.96342369366553" lon="8.409026776079187"><ele>21.666666666666664</ele><time>2026-05-02T07:34:37.999Z</time></trkpt><trkpt lat="39.96357356921667" lon="8.408906120926327"><ele>22.0</ele><time>2026-05-02T07:34:38.999Z</time></trkpt><trkpt lat="39.96370535391704" lon="8.408749756543873"><ele>22.0</ele><time>2026-05-02T07:34:39.999Z</time></trkpt><trkpt lat="39.963843042934435" lon="8.408583615448254"><ele>22.0</ele><time>2026-05-02T07:34:40.999Z</time></trkpt><trkpt lat="39.96400427862037" lon="8.408424636068627"><ele>22.0</ele><time>2026-05-02T07:34:41.999Z</time></trkpt><trkpt lat="39.96415442955057" lon="8.408237417705045"><ele>21.333333333333332</ele><time>2026-05-02T07:34:42.999Z</time></trkpt><trkpt lat="39.964308286865446" lon="8.408037850802765"><ele>20.666666666666668</ele><time>2026-05-02T07:34:43.999Z</time></trkpt><trkpt lat="39.96446650340325" lon="8.407818468699693"><ele>20.0</ele><time>2026-05-02T07:34:44.998Z</time></trkpt><trkpt lat="39.96462489899138" lon="8.407583744136623"><ele>19.5</ele><time>2026-05-02T07:34:45.998Z</time></trkpt><trkpt lat="39.964782851374004" lon="8.407350205404201"><ele>19.0</ele><time>2026-05-02T07:34:46.998Z</time></trkpt><trkpt lat="39.964923749146315" lon="8.407136392167411"><ele>18.666666666666664</ele><time>2026-05-02T07:34:47.998Z</time></trkpt><trkpt lat="39.96504722607289" lon="8.406944532247012"><ele>18.333333333333332</ele><time>2026-05-02T07:34:48.998Z</time></trkpt><trkpt lat="39.965164604062345" lon="8.406762766570205"><ele>18.0</ele><time>2026-05-02T07:34:49.998Z</time></trkpt><trkpt lat="39.965282286100006" lon="8.406594819295977"><ele>18.0</ele><time>2026-05-02T07:34:50.998Z</time></trkpt><trkpt lat="39.965411266135945" lon="8.406431607766015"><ele>18.0</ele><time>2026-05-02T07:34:51.998Z</time></trkpt><trkpt lat="39.96555427134777" lon="8.406280101448264"><ele>18.0</ele><time>2026-05-02T07:34:52.998Z</time></trkpt><trkpt lat="39.96571102423636" lon="8.406127604553644"><ele>17.333333333333332</ele><time>2026-05-02T07:34:53.998Z</time></trkpt><trkpt lat="39.96586220210158" lon="8.40596777022448"><ele>16.666666666666664</ele><time>2026-05-02T07:34:54.998Z</time></trkpt><trkpt lat="39.96600393055311" lon="8.405801128524569"><ele>16.0</ele><time>2026-05-02T07:34:55.998Z</time></trkpt><trkpt lat="39.966144987704396" lon="8.405627173339967"><ele>15.333333333333332</ele><time>2026-05-02T07:34:56.998Z</time></trkpt><trkpt lat="39.966296494063464" lon="8.40545311510374"><ele>14.666666666666668</ele><time>2026-05-02T07:34:57.998Z</time></trkpt><trkpt lat="39.96645855584774" lon="8.405285222906546"><ele>14.0</ele><time>2026-05-02T07:34:58.998Z</time></trkpt><trkpt lat="39.96662502623534" lon="8.40512831203049"><ele>14.333333333333334</ele><time>2026-05-02T07:34:59.998Z</time></trkpt><trkpt lat="39.9667986809803" lon="8.404980099795495"><ele>14.666666666666668</ele><time>2026-05-02T07:35:00.998Z</time></trkpt><trkpt lat="39.96697188003463" lon="8.404835230552036"><ele>15.0</ele><time>2026-05-02T07:35:01.998Z</time></trkpt><trkpt lat="39.96713092442231" lon="8.40470317988831"><ele>14.333333333333332</ele><time>2026-05-02T07:35:02.998Z</time></trkpt><trkpt lat="39.96727344841214" lon="8.404573376766834"><ele>13.666666666666666</ele><time>2026-05-02T07:35:03.998Z</time></trkpt><trkpt lat="39.96738613360367" lon="8.404424195255336"><ele>13.0</ele><time>2026-05-02T07:35:04.998Z</time></trkpt><trkpt lat="39.96752333964286" lon="8.40433515827483"><ele>13.0</ele><time>2026-05-02T07:35:05.998Z</time></trkpt><trkpt lat="39.967663992366106" lon="8.404255826161902"><ele>13.0</ele><time>2026-05-02T07:35:06.998Z</time></trkpt><trkpt lat="39.96782349612059" lon="8.404158153539338"><ele>13.0</ele><time>2026-05-02T07:35:08Z</time></trkpt><trkpt lat="39.96798202389208" lon="8.404080370991949"><ele>13.0</ele><time>2026-05-02T07:35:09Z</time></trkpt><trkpt lat="39.968132869440744" lon="8.404007180000077"><ele>13.0</ele><time>2026-05-02T07:35:10Z</time></trkpt><trkpt lat="39.968284339869335" lon="8.403948637753626"><ele>13.0</ele><time>2026-05-02T07:35:11Z</time></trkpt><trkpt lat="39.96844674771662" lon="8.40394503502045"><ele>13.0</ele><time>2026-05-02T07:35:12Z</time></trkpt><trkpt lat="39.968620602031315" lon="8.403898281444619"><ele>13.0</ele><time>2026-05-02T07:35:13Z</time></trkpt><trkpt lat="39.96881902151899" lon="8.403866724984603"><ele>13.0</ele><time>2026-05-02T07:35:14Z</time></trkpt><trkpt lat="39.96902267886916" lon="8.403825101447568"><ele>13.0</ele><time>2026-05-02T07:35:15Z</time></trkpt><trkpt lat="39.96924452429106" lon="8.403819159986183"><ele>13.0</ele><time>2026-05-02T07:35:16Z</time></trkpt><trkpt lat="39.96945665122767" lon="8.403779837252303"><ele>13.0</ele><time>2026-05-02T07:35:17Z</time></trkpt><trkpt lat="39.96963599738328" lon="8.403718207904268"><ele>13.0</ele><time>2026-05-02T07:35:18Z</time></trkpt><trkpt lat="39.969802057030606" lon="8.403672187020485"><ele>13.0</ele><time>2026-05-02T07:35:19Z</time></trkpt><trkpt lat="39.969950865495974" lon="8.403633438710871"><ele>13.0</ele><time>2026-05-02T07:35:20Z</time></trkpt><trkpt lat="39.97007564062844" lon="8.403623339634102"><ele>13.0</ele><time>2026-05-02T07:35:21Z</time></trkpt><trkpt lat="39.970162384691136" lon="8.403592719991282"><ele>12.999999999999998</ele><time>2026-05-02T07:35:22Z</time></trkpt><trkpt lat="39.97022863889428" lon="8.403529923498517"><ele>13.0</ele><time>2026-05-02T07:35:23Z</time></trkpt><trkpt lat="39.97028843174171" lon="8.403481390117207"><ele>13.0</ele><time>2026-05-02T07:35:24Z</time></trkpt><trkpt lat="39.97035807967224" lon="8.403411584944532"><ele>13.0</ele><time>2026-05-02T07:35:26Z</time></trkpt><trkpt lat="39.97039632439453" lon="8.403482958464519"><ele>12.999999999999998</ele><time>2026-05-02T07:35:29Z</time></trkpt><trkpt lat="39.97046187300017" lon="8.403577449115375"><ele>13.0</ele><time>2026-05-02T07:35:30Z</time></trkpt><trkpt lat="39.97051667608291" lon="8.403718837407357"><ele>13.25</ele><time>2026-05-02T07:35:31Z</time></trkpt><trkpt lat="39.97059577061317" lon="8.40385282146324"><ele>13.5</ele><time>2026-05-02T07:35:32Z</time></trkpt><trkpt lat="39.97068383091987" lon="8.404008231915913"><ele>13.75</ele><time>2026-05-02T07:35:33Z</time></trkpt><trkpt lat="39.9707705210559" lon="8.404177795814325"><ele>14.0</ele><time>2026-05-02T07:35:34Z</time></trkpt><trkpt lat="39.97086145981418" lon="8.404360678556095"><ele>14.333333333333334</ele><time>2026-05-02T07:35:35Z</time></trkpt><trkpt lat="39.970958505392105" lon="8.404550363071206"><ele>14.666666666666668</ele><time>2026-05-02T07:35:36Z</time></trkpt><trkpt lat="39.97106121766609" lon="8.40474502073867"><ele>15.0</ele><time>2026-05-02T07:35:37Z</time></trkpt><trkpt lat="39.97117208852475" lon="8.404953572969836"><ele>16.0</ele><time>2026-05-02T07:35:38Z</time></trkpt><trkpt lat="39.971282171688756" lon="8.405167514619007"><ele>17.0</ele><time>2026-05-02T07:35:39Z</time></trkpt><trkpt lat="39.97139507569293" lon="8.405384261227434"><ele>18.0</ele><time>2026-05-02T07:35:40Z</time></trkpt><trkpt lat="39.97150937874984" lon="8.405609527243257"><ele>18.0</ele><time>2026-05-02T07:35:41Z</time></trkpt><trkpt lat="39.97161730607729" lon="8.405842015801976"><ele>18.0</ele><time>2026-05-02T07:35:42Z</time></trkpt><trkpt lat="39.9716969016285" lon="8.406094025058907"><ele>18.0</ele><time>2026-05-02T07:35:43Z</time></trkpt><trkpt lat="39.97177682000113" lon="8.406340972030682"><ele>18.333333333333332</ele><time>2026-05-02T07:35:44Z</time></trkpt><trkpt lat="39.97186929380768" lon="8.406589096728268"><ele>18.666666666666664</ele><time>2026-05-02T07:35:44.999Z</time></trkpt><trkpt lat="39.9719403107515" lon="8.406843298525494"><ele>19.0</ele><time>2026-05-02T07:35:45.999Z</time></trkpt><trkpt lat="39.972015642210145" lon="8.407097354410748"><ele>19.0</ele><time>2026-05-02T07:35:46.999Z</time></trkpt><trkpt lat="39.972089746248635" lon="8.407344377142921"><ele>19.0</ele><time>2026-05-02T07:35:47.999Z</time></trkpt><trkpt lat="39.972166794299895" lon="8.407591111730364"><ele>19.0</ele><time>2026-05-02T07:35:48.999Z</time></trkpt><trkpt lat="39.972242077625786" lon="8.407834215200165"><ele>19.333333333333332</ele><time>2026-05-02T07:35:49.999Z</time></trkpt><trkpt lat="39.972315991560855" lon="8.408078310010636"><ele>19.666666666666668</ele><time>2026-05-02T07:35:50.999Z</time></trkpt><trkpt lat="39.972389543519355" lon="8.408320280217483"><ele>20.0</ele><time>2026-05-02T07:35:51.999Z</time></trkpt><trkpt lat="39.97245817105454" lon="8.408564670848317"><ele>20.0</ele><time>2026-05-02T07:35:52.999Z</time></trkpt><trkpt lat="39.97252325727604" lon="8.408817932519138"><ele>20.0</ele><time>2026-05-02T07:35:53.999Z</time></trkpt><trkpt lat="39.97258712626074" lon="8.40907197286362"><ele>20.0</ele><time>2026-05-02T07:35:54.999Z</time></trkpt><trkpt lat="39.972651796058855" lon="8.409325304497822"><ele>20.333333333333336</ele><time>2026-05-02T07:35:55.999Z</time></trkpt><trkpt lat="39.97271096941617" lon="8.409581043677404"><ele>20.666666666666668</ele><time>2026-05-02T07:35:56.999Z</time></trkpt><trkpt lat="39.97276728428143" lon="8.409842377147031"><ele>21.0</ele><time>2026-05-02T07:35:57.999Z</time></trkpt><trkpt lat="39.97282457649859" lon="8.410103349618998"><ele>21.0</ele><time>2026-05-02T07:35:58.999Z</time></trkpt><trkpt lat="39.97288309607607" lon="8.410366923403307"><ele>21.0</ele><time>2026-05-02T07:35:59.999Z</time></trkpt><trkpt lat="39.97294408323158" lon="8.410632198054113"><ele>21.0</ele><time>2026-05-02T07:36:00.999Z</time></trkpt><trkpt lat="39.97300375291913" lon="8.410897952728627"><ele>20.333333333333332</ele><time>2026-05-02T07:36:01.999Z</time></trkpt><trkpt lat="39.97306276082336" lon="8.411164421318322"><ele>19.666666666666664</ele><time>2026-05-02T07:36:02.999Z</time></trkpt><trkpt lat="39.97312132441843" lon="8.411433129479454"><ele>19.0</ele><time>2026-05-02T07:36:03.999Z</time></trkpt><trkpt lat="39.973179671072195" lon="8.411701682707559"><ele>18.666666666666664</ele><time>2026-05-02T07:36:04.999Z</time></trkpt><trkpt lat="39.973238856605384" lon="8.411970696511213"><ele>18.333333333333332</ele><time>2026-05-02T07:36:05.999Z</time></trkpt><trkpt lat="39.97329905017893" lon="8.412238976157138"><ele>18.0</ele><time>2026-05-02T07:36:06.999Z</time></trkpt><trkpt lat="39.9733608812048" lon="8.412505716341414"><ele>17.666666666666668</ele><time>2026-05-02T07:36:07.999Z</time></trkpt><trkpt lat="39.973423213279034" lon="8.41276986589511"><ele>17.333333333333336</ele><time>2026-05-02T07:36:08.999Z</time></trkpt><trkpt lat="39.97348275177924" lon="8.413003358165925"><ele>17.0</ele><time>2026-05-02T07:36:09.999Z</time></trkpt><trkpt lat="39.9735275253769" lon="8.413158997126859"><ele>17.0</ele><time>2026-05-02T07:36:10.999Z</time></trkpt><trkpt lat="39.97355127962666" lon="8.413256548718692"><ele>17.0</ele><time>2026-05-02T07:36:11.999Z</time></trkpt><trkpt lat="39.97356657027215" lon="8.413343882898861"><ele>17.0</ele><time>2026-05-02T07:36:13.999Z</time></trkpt><trkpt lat="39.97353416414444" lon="8.413228641834197"><ele>17.0</ele><time>2026-05-02T07:36:18.999Z</time></trkpt><trkpt lat="39.97350876587427" lon="8.413145531596996"><ele>17.0</ele><time>2026-05-02T07:36:20.999Z</time></trkpt><trkpt lat="39.97373977758303" lon="8.41298803847488"><ele>17.0</ele><time>2026-05-02T07:36:22.999Z</time></trkpt><trkpt lat="39.97383655620818" lon="8.412937161483068"><ele>17.0</ele><time>2026-05-02T07:36:23.999Z</time></trkpt><trkpt lat="39.97394279364771" lon="8.412886327621129"><ele>17.0</ele><time>2026-05-02T07:36:24.999Z</time></trkpt><trkpt lat="39.974056063518546" lon="8.412836428457174"><ele>17.0</ele><time>2026-05-02T07:36:25.999Z</time></trkpt><trkpt lat="39.97416886055916" lon="8.412785534524337"><ele>17.5</ele><time>2026-05-02T07:36:26.999Z</time></trkpt><trkpt lat="39.97428595480931" lon="8.412730487986147"><ele>18.0</ele><time>2026-05-02T07:36:27.999Z</time></trkpt><trkpt lat="39.97441014385089" lon="8.412679109619473"><ele>18.5</ele><time>2026-05-02T07:36:28.999Z</time></trkpt><trkpt lat="39.97453553206018" lon="8.412623039573948"><ele>19.0</ele><time>2026-05-02T07:36:29.999Z</time></trkpt><trkpt lat="39.97466203347824" lon="8.412568100955781"><ele>19.0</ele><time>2026-05-02T07:36:30.999Z</time></trkpt><trkpt lat="39.97479066435577" lon="8.412511162721497"><ele>19.0</ele><time>2026-05-02T07:36:31.999Z</time></trkpt><trkpt lat="39.97490360738009" lon="8.412460041390721"><ele>19.0</ele><time>2026-05-02T07:36:32.999Z</time></trkpt><trkpt lat="39.97500515857236" lon="8.41242620244477"><ele>19.0</ele><time>2026-05-02T07:36:33.999Z</time></trkpt><trkpt lat="39.97510472720594" lon="8.4124167670508"><ele>19.0</ele><time>2026-05-02T07:36:34.999Z</time></trkpt><trkpt lat="39.97521408082626" lon="8.412435491792506"><ele>19.0</ele><time>2026-05-02T07:36:35.999Z</time></trkpt><trkpt lat="39.97533628203673" lon="8.412469838433147"><ele>19.0</ele><time>2026-05-02T07:36:36.999Z</time></trkpt><trkpt lat="39.975469152369776" lon="8.412499297666454"><ele>19.0</ele><time>2026-05-02T07:36:37.999Z</time></trkpt><trkpt lat="39.97560580807788" lon="8.412524737817144"><ele>19.0</ele><time>2026-05-02T07:36:38.999Z</time></trkpt><trkpt lat="39.975736439201334" lon="8.412549842541896"><ele>19.0</ele><time>2026-05-02T07:36:39.999Z</time></trkpt><trkpt lat="39.975860613316456" lon="8.412575711019072"><ele>19.0</ele><time>2026-05-02T07:36:40.999Z</time></trkpt><trkpt lat="39.97597945263435" lon="8.412611653734078"><ele>19.0</ele><time>2026-05-02T07:36:41.999Z</time></trkpt><trkpt lat="39.97607948158579" lon="8.412659475623638"><ele>19.0</ele><time>2026-05-02T07:36:42.999Z</time></trkpt><trkpt lat="39.976187190359546" lon="8.412707791629831"><ele>19.0</ele><time>2026-05-02T07:36:43.999Z</time></trkpt><trkpt lat="39.976305535443686" lon="8.412764643538031"><ele>19.0</ele><time>2026-05-02T07:36:44.999Z</time></trkpt><trkpt lat="39.976413902453146" lon="8.412826619591506"><ele>19.0</ele><time>2026-05-02T07:36:45.999Z</time></trkpt><trkpt lat="39.97652092171652" lon="8.412884186886535"><ele>19.0</ele><time>2026-05-02T07:36:46.998Z</time></trkpt><trkpt lat="39.97662576284279" lon="8.412921658889818"><ele>19.0</ele><time>2026-05-02T07:36:47.998Z</time></trkpt><trkpt lat="39.976726596442425" lon="8.412945792471954"><ele>19.0</ele><time>2026-05-02T07:36:48.998Z</time></trkpt><trkpt lat="39.97683385353585" lon="8.412985460414856"><ele>19.0</ele><time>2026-05-02T07:36:49.998Z</time></trkpt><trkpt lat="39.9769338070922" lon="8.413024064667239"><ele>19.0</ele><time>2026-05-02T07:36:50.998Z</time></trkpt><trkpt lat="39.977026150675044" lon="8.413058622288988"><ele>18.666666666666664</ele><time>2026-05-02T07:36:51.998Z</time></trkpt><trkpt lat="39.97710524617096" lon="8.413088702164165"><ele>18.333333333333332</ele><time>2026-05-02T07:36:52.998Z</time></trkpt><trkpt lat="39.97717875237339" lon="8.413112366650868"><ele>18.0</ele><time>2026-05-02T07:36:53.998Z</time></trkpt><trkpt lat="39.977248796154925" lon="8.413127205624969"><ele>17.666666666666668</ele><time>2026-05-02T07:36:54.998Z</time></trkpt><trkpt lat="39.977314390076174" lon="8.41315178345648"><ele>17.333333333333336</ele><time>2026-05-02T07:36:55.998Z</time></trkpt><trkpt lat="39.977396320744525" lon="8.413184283955873"><ele>17.0</ele><time>2026-05-02T07:36:56.998Z</time></trkpt><trkpt lat="39.977498305676846" lon="8.413200856186126"><ele>17.0</ele><time>2026-05-02T07:36:57.998Z</time></trkpt><trkpt lat="39.97761601560472" lon="8.413196540606945"><ele>17.0</ele><time>2026-05-02T07:36:58.998Z</time></trkpt><trkpt lat="39.97774068720771" lon="8.413180692817779"><ele>17.0</ele><time>2026-05-02T07:36:59.998Z</time></trkpt><trkpt lat="39.97786584534464" lon="8.413157915330562"><ele>17.0</ele><time>2026-05-02T07:37:00.998Z</time></trkpt><trkpt lat="39.977983141841875" lon="8.413132877442234"><ele>17.0</ele><time>2026-05-02T07:37:01.998Z</time></trkpt><trkpt lat="39.97808802584397" lon="8.413106220445412"><ele>17.0</ele><time>2026-05-02T07:37:02.998Z</time></trkpt><trkpt lat="39.97819059671377" lon="8.413078106597698"><ele>17.0</ele><time>2026-05-02T07:37:03.998Z</time></trkpt><trkpt lat="39.978300396813665" lon="8.413053409233438"><ele>17.0</ele><time>2026-05-02T07:37:04.998Z</time></trkpt><trkpt lat="39.9784210332876" lon="8.413025737207"><ele>17.0</ele><time>2026-05-02T07:37:05.998Z</time></trkpt><trkpt lat="39.97854018557668" lon="8.412991496520934"><ele>17.4</ele><time>2026-05-02T07:37:06.998Z</time></trkpt><trkpt lat="39.97865387459372" lon="8.412952107554714"><ele>17.799999999999997</ele><time>2026-05-02T07:37:07.998Z</time></trkpt><trkpt lat="39.97875629298751" lon="8.412911469184074"><ele>18.2</ele><time>2026-05-02T07:37:08.998Z</time></trkpt><trkpt lat="39.97884981104413" lon="8.412885975933952"><ele>18.599999999999998</ele><time>2026-05-02T07:37:09.998Z</time></trkpt><trkpt lat="39.97894320399242" lon="8.412870730694127"><ele>19.0</ele><time>2026-05-02T07:37:10.998Z</time></trkpt><trkpt lat="39.97905084382621" lon="8.412848387206344"><ele>19.0</ele><time>2026-05-02T07:37:11.998Z</time></trkpt><trkpt lat="39.97916479956025" lon="8.412814434360442"><ele>19.0</ele><time>2026-05-02T07:37:12.998Z</time></trkpt><trkpt lat="39.979277019636285" lon="8.412776151971318"><ele>19.0</ele><time>2026-05-02T07:37:14Z</time></trkpt><trkpt lat="39.97938044611943" lon="8.41275535995192"><ele>19.0</ele><time>2026-05-02T07:37:15Z</time></trkpt><trkpt lat="39.97947472908936" lon="8.412766046375541"><ele>19.0</ele><time>2026-05-02T07:37:16Z</time></trkpt><trkpt lat="39.97957592076826" lon="8.41279114777105"><ele>19.0</ele><time>2026-05-02T07:37:17Z</time></trkpt><trkpt lat="39.979699669854824" lon="8.412808994372993"><ele>19.0</ele><time>2026-05-02T07:37:18Z</time></trkpt><trkpt lat="39.9798241705045" lon="8.412817727682379"><ele>19.0</ele><time>2026-05-02T07:37:19Z</time></trkpt><trkpt lat="39.979933419848194" lon="8.41280794809214"><ele>19.0</ele><time>2026-05-02T07:37:20Z</time></trkpt><trkpt lat="39.98003987666373" lon="8.41280262386643"><ele>19.4</ele><time>2026-05-02T07:37:21Z</time></trkpt><trkpt lat="39.98014503377493" lon="8.412800869052528"><ele>19.799999999999997</ele><time>2026-05-02T07:37:22Z</time></trkpt><trkpt lat="39.980253027531155" lon="8.412803306301932"><ele>20.200000000000003</ele><time>2026-05-02T07:37:23Z</time></trkpt><trkpt lat="39.98036620254401" lon="8.412813293222314"><ele>20.6</ele><time>2026-05-02T07:37:24Z</time></trkpt><trkpt lat="39.980481000077354" lon="8.412821640941061"><ele>21.0</ele><time>2026-05-02T07:37:25Z</time></trkpt><trkpt lat="39.9805945498614" lon="8.412831020423427"><ele>21.0</ele><time>2026-05-02T07:37:26Z</time></trkpt><trkpt lat="39.98069861709086" lon="8.412841134235123"><ele>21.0</ele><time>2026-05-02T07:37:27Z</time></trkpt><trkpt lat="39.980812223910085" lon="8.412833929628391"><ele>21.0</ele><time>2026-05-02T07:37:28Z</time></trkpt><trkpt lat="39.98093819045615" lon="8.412818797457211"><ele>21.0</ele><time>2026-05-02T07:37:29Z</time></trkpt><trkpt lat="39.98105878185125" lon="8.412807182228285"><ele>20.8</ele><time>2026-05-02T07:37:30Z</time></trkpt><trkpt lat="39.98116214535003" lon="8.41279357312933"><ele>20.6</ele><time>2026-05-02T07:37:31Z</time></trkpt><trkpt lat="39.98124990751171" lon="8.412771603701012"><ele>20.4</ele><time>2026-05-02T07:37:32Z</time></trkpt><trkpt lat="39.98133120825539" lon="8.412753893915554"><ele>20.2</ele><time>2026-05-02T07:37:33Z</time></trkpt><trkpt lat="39.98142488826124" lon="8.412763678127112"><ele>20.0</ele><time>2026-05-02T07:37:34Z</time></trkpt><trkpt lat="39.98152756390754" lon="8.41277741173478"><ele>20.0</ele><time>2026-05-02T07:37:35Z</time></trkpt><trkpt lat="39.98162067519502" lon="8.412760994630563"><ele>20.0</ele><time>2026-05-02T07:37:36Z</time></trkpt><trkpt lat="39.98170752172302" lon="8.412713765610944"><ele>20.0</ele><time>2026-05-02T07:37:37Z</time></trkpt><trkpt lat="39.98180594745705" lon="8.412651364136115"><ele>20.0</ele><time>2026-05-02T07:37:38Z</time></trkpt><trkpt lat="39.98191464636948" lon="8.412592934790908"><ele>20.0</ele><time>2026-05-02T07:37:39Z</time></trkpt><trkpt lat="39.98202844157202" lon="8.412540693259828"><ele>19.25</ele><time>2026-05-02T07:37:40Z</time></trkpt><trkpt lat="39.982139225370744" lon="8.412492103893488"><ele>18.5</ele><time>2026-05-02T07:37:41Z</time></trkpt><trkpt lat="39.98224737825125" lon="8.412441331686335"><ele>17.75</ele><time>2026-05-02T07:37:42Z</time></trkpt><trkpt lat="39.98235696564344" lon="8.412384113021083"><ele>17.0</ele><time>2026-05-02T07:37:43Z</time></trkpt><trkpt lat="39.98246657128369" lon="8.412327781244038"><ele>17.25</ele><time>2026-05-02T07:37:44Z</time></trkpt><trkpt lat="39.98257779538063" lon="8.412263734157616"><ele>17.5</ele><time>2026-05-02T07:37:45Z</time></trkpt><trkpt lat="39.98268985678045" lon="8.412192136218234"><ele>17.75</ele><time>2026-05-02T07:37:46Z</time></trkpt><trkpt lat="39.98280135623745" lon="8.412112268223531"><ele>18.0</ele><time>2026-05-02T07:37:47Z</time></trkpt><trkpt lat="39.982914697019254" lon="8.412020036917003"><ele>18.0</ele><time>2026-05-02T07:37:47.999Z</time></trkpt><trkpt lat="39.98303370214591" lon="8.411932890120243"><ele>18.0</ele><time>2026-05-02T07:37:48.999Z</time></trkpt><trkpt lat="39.98314809094736" lon="8.411859782630408"><ele>18.0</ele><time>2026-05-02T07:37:49.999Z</time></trkpt><trkpt lat="39.983253597760864" lon="8.411794608761591"><ele>18.0</ele><time>2026-05-02T07:37:50.999Z</time></trkpt><trkpt lat="39.98335527146285" lon="8.411743707667268"><ele>17.4</ele><time>2026-05-02T07:37:51.999Z</time></trkpt><trkpt lat="39.983453848379824" lon="8.411702960636337"><ele>16.8</ele><time>2026-05-02T07:37:52.999Z</time></trkpt><trkpt lat="39.983554392710225" lon="8.41167428623152"><ele>16.2</ele><time>2026-05-02T07:37:53.999Z</time></trkpt><trkpt lat="39.98366199827787" lon="8.411671479244081"><ele>15.6</ele><time>2026-05-02T07:37:54.999Z</time></trkpt><trkpt lat="39.98377585160595" lon="8.411679695446397"><ele>15.0</ele><time>2026-05-02T07:37:55.999Z</time></trkpt><trkpt lat="39.983878574927864" lon="8.411682421233126"><ele>15.0</ele><time>2026-05-02T07:37:56.999Z</time></trkpt><trkpt lat="39.98397912282745" lon="8.41170342897564"><ele>15.0</ele><time>2026-05-02T07:37:57.999Z</time></trkpt><trkpt lat="39.9840881887104" lon="8.411736930130305"><ele>15.0</ele><time>2026-05-02T07:37:58.999Z</time></trkpt><trkpt lat="39.984195757826605" lon="8.411773855474813"><ele>15.0</ele><time>2026-05-02T07:37:59.999Z</time></trkpt><trkpt lat="39.98429271602452" lon="8.411806039854813"><ele>15.0</ele><time>2026-05-02T07:38:00.999Z</time></trkpt><trkpt lat="39.98437658540717" lon="8.411845930400098"><ele>14.6</ele><time>2026-05-02T07:38:01.999Z</time></trkpt><trkpt lat="39.98443400690756" lon="8.411891736616322"><ele>14.2</ele><time>2026-05-02T07:38:02.999Z</time></trkpt><trkpt lat="39.98451712096196" lon="8.41201876023855"><ele>13.8</ele><time>2026-05-02T07:38:04.999Z</time></trkpt><trkpt lat="39.984562681611926" lon="8.41210908501074"><ele>13.4</ele><time>2026-05-02T07:38:05.999Z</time></trkpt><trkpt lat="39.984618854779434" lon="8.41221226387631"><ele>13.0</ele><time>2026-05-02T07:38:06.999Z</time></trkpt><trkpt lat="39.98468039024027" lon="8.412333114342557"><ele>12.999999999999998</ele><time>2026-05-02T07:38:07.999Z</time></trkpt><trkpt lat="39.98473438769599" lon="8.412463704171648"><ele>13.0</ele><time>2026-05-02T07:38:08.999Z</time></trkpt><trkpt lat="39.98478167254249" lon="8.412573022672966"><ele>13.0</ele><time>2026-05-02T07:38:09.999Z</time></trkpt><trkpt lat="39.98482390971893" lon="8.412638256665552"><ele>13.0</ele><time>2026-05-02T07:38:10.999Z</time></trkpt><trkpt lat="39.98488444779323" lon="8.412677149991703"><ele>12.999999999999998</ele><time>2026-05-02T07:38:11.999Z</time></trkpt><trkpt lat="39.984966950498716" lon="8.412724629822419"><ele>13.0</ele><time>2026-05-02T07:38:12.999Z</time></trkpt><trkpt lat="39.985061350451836" lon="8.412789902261808"><ele>12.999999999999998</ele><time>2026-05-02T07:38:13.999Z</time></trkpt><trkpt lat="39.98514150408174" lon="8.412809375714083"><ele>13.0</ele><time>2026-05-02T07:38:14.999Z</time></trkpt><trkpt lat="39.98521328776043" lon="8.412792966565258"><ele>13.0</ele><time>2026-05-02T07:38:15.999Z</time></trkpt><trkpt lat="39.98528988387496" lon="8.412747239922616"><ele>13.0</ele><time>2026-05-02T07:38:16.999Z</time></trkpt><trkpt lat="39.985371629141646" lon="8.412681189142713"><ele>12.999999999999998</ele><time>2026-05-02T07:38:17.999Z</time></trkpt><trkpt lat="39.98545863022522" lon="8.412610009094122"><ele>13.0</ele><time>2026-05-02T07:38:18.999Z</time></trkpt><trkpt lat="39.98554774661833" lon="8.412567743897327"><ele>12.999999999999998</ele><time>2026-05-02T07:38:19.999Z</time></trkpt><trkpt lat="39.985639834569156" lon="8.412553511090087"><ele>13.0</ele><time>2026-05-02T07:38:20.999Z</time></trkpt><trkpt lat="39.9857185720141" lon="8.412521473632104"><ele>13.0</ele><time>2026-05-02T07:38:21.999Z</time></trkpt><trkpt lat="39.9857835869358" lon="8.41245355296598"><ele>13.0</ele><time>2026-05-02T07:38:22.999Z</time></trkpt><trkpt lat="39.985838449241605" lon="8.41236482033389"><ele>12.999999999999998</ele><time>2026-05-02T07:38:23.999Z</time></trkpt><trkpt lat="39.985889346016" lon="8.412301201536637"><ele>13.0</ele><time>2026-05-02T07:38:24.999Z</time></trkpt><trkpt lat="39.985953941627486" lon="8.412260542688982"><ele>12.600000000000001</ele><time>2026-05-02T07:38:25.999Z</time></trkpt><trkpt lat="39.98604959603656" lon="8.412224917604293"><ele>12.200000000000001</ele><time>2026-05-02T07:38:26.999Z</time></trkpt><trkpt lat="39.986156368782694" lon="8.412186065005617"><ele>11.8</ele><time>2026-05-02T07:38:27.999Z</time></trkpt><trkpt lat="39.98626212812173" lon="8.412121144062144"><ele>11.4</ele><time>2026-05-02T07:38:28.999Z</time></trkpt><trkpt lat="39.98636867480289" lon="8.412047927927121"><ele>11.0</ele><time>2026-05-02T07:38:29.999Z</time></trkpt><trkpt lat="39.986470882535144" lon="8.411987654286214"><ele>11.0</ele><time>2026-05-02T07:38:30.999Z</time></trkpt><trkpt lat="39.986583385818385" lon="8.411929492839189"><ele>11.0</ele><time>2026-05-02T07:38:31.999Z</time></trkpt><trkpt lat="39.986684004730726" lon="8.411883776871676"><ele>11.0</ele><time>2026-05-02T07:38:32.999Z</time></trkpt><trkpt lat="39.98678287010962" lon="8.41186203445105"><ele>11.0</ele><time>2026-05-02T07:38:33.999Z</time></trkpt><trkpt lat="39.98689133087658" lon="8.411842161561898"><ele>11.0</ele><time>2026-05-02T07:38:34.999Z</time></trkpt><trkpt lat="39.98700551955908" lon="8.411801119265814"><ele>11.200000000000001</ele><time>2026-05-02T07:38:35.999Z</time></trkpt><trkpt lat="39.987114546372176" lon="8.411748708941067"><ele>11.4</ele><time>2026-05-02T07:38:36.999Z</time></trkpt><trkpt lat="39.98722311933912" lon="8.411699701787084"><ele>11.6</ele><time>2026-05-02T07:38:37.999Z</time></trkpt><trkpt lat="39.987326113310125" lon="8.411655714324697"><ele>11.8</ele><time>2026-05-02T07:38:38.999Z</time></trkpt><trkpt lat="39.987417836698704" lon="8.411611182449914"><ele>12.0</ele><time>2026-05-02T07:38:39.999Z</time></trkpt><trkpt lat="39.987516843296525" lon="8.411561517659758"><ele>12.0</ele><time>2026-05-02T07:38:40.999Z</time></trkpt><trkpt lat="39.987623870399524" lon="8.411519615252164"><ele>12.0</ele><time>2026-05-02T07:38:41.999Z</time></trkpt><trkpt lat="39.98773072932159" lon="8.411475660312204"><ele>12.0</ele><time>2026-05-02T07:38:42.999Z</time></trkpt><trkpt lat="39.987838641301366" lon="8.41142450778756"><ele>12.0</ele><time>2026-05-02T07:38:43.999Z</time></trkpt><trkpt lat="39.987948331354616" lon="8.411379477423258"><ele>12.0</ele><time>2026-05-02T07:38:44.999Z</time></trkpt><trkpt lat="39.98805900793632" lon="8.411339388892978"><ele>12.0</ele><time>2026-05-02T07:38:45.999Z</time></trkpt><trkpt lat="39.988165496539814" lon="8.411302107474317"><ele>12.0</ele><time>2026-05-02T07:38:46.999Z</time></trkpt><trkpt lat="39.98827274426196" lon="8.411262300177496"><ele>12.0</ele><time>2026-05-02T07:38:47.999Z</time></trkpt><trkpt lat="39.988378846555015" lon="8.411216217450304"><ele>12.0</ele><time>2026-05-02T07:38:48.999Z</time></trkpt><trkpt lat="39.98848542586631" lon="8.411159459373962"><ele>12.2</ele><time>2026-05-02T07:38:49.998Z</time></trkpt><trkpt lat="39.98858252044453" lon="8.411109346850392"><ele>12.399999999999999</ele><time>2026-05-02T07:38:50.998Z</time></trkpt><trkpt lat="39.988684063870636" lon="8.411059721107609"><ele>12.600000000000001</ele><time>2026-05-02T07:38:51.998Z</time></trkpt><trkpt lat="39.98879153714059" lon="8.411012701790504"><ele>12.8</ele><time>2026-05-02T07:38:52.998Z</time></trkpt><trkpt lat="39.98889360970757" lon="8.410967443921411"><ele>13.0</ele><time>2026-05-02T07:38:53.998Z</time></trkpt><trkpt lat="39.98899290909433" lon="8.410922129225336"><ele>13.0</ele><time>2026-05-02T07:38:54.998Z</time></trkpt><trkpt lat="39.98908623732117" lon="8.410880307851798"><ele>13.0</ele><time>2026-05-02T07:38:55.998Z</time></trkpt><trkpt lat="39.98918588686244" lon="8.410842305527584"><ele>13.0</ele><time>2026-05-02T07:38:56.998Z</time></trkpt><trkpt lat="39.98928284527177" lon="8.410807745835475"><ele>13.0</ele><time>2026-05-02T07:38:57.998Z</time></trkpt><trkpt lat="39.9893805777574" lon="8.410773740285189"><ele>13.0</ele><time>2026-05-02T07:38:58.998Z</time></trkpt><trkpt lat="39.98946962347009" lon="8.410736329081756"><ele>12.833333333333332</ele><time>2026-05-02T07:38:59.998Z</time></trkpt><trkpt lat="39.989550019369716" lon="8.410690142599396"><ele>12.666666666666666</ele><time>2026-05-02T07:39:00.998Z</time></trkpt><trkpt lat="39.98962043729942" lon="8.410644781252376"><ele>12.5</ele><time>2026-05-02T07:39:01.998Z</time></trkpt><trkpt lat="39.98969292015265" lon="8.410608255403506"><ele>12.333333333333332</ele><time>2026-05-02T07:39:02.998Z</time></trkpt><trkpt lat="39.989767783751006" lon="8.410576540396582"><ele>12.166666666666666</ele><time>2026-05-02T07:39:03.998Z</time></trkpt><trkpt lat="39.98984974225899" lon="8.410544249346655"><ele>12.0</ele><time>2026-05-02T07:39:04.998Z</time></trkpt><trkpt lat="39.98993080592383" lon="8.410514397688704"><ele>12.0</ele><time>2026-05-02T07:39:05.998Z</time></trkpt><trkpt lat="39.9900051971992" lon="8.410489244378638"><ele>12.0</ele><time>2026-05-02T07:39:06.998Z</time></trkpt><trkpt lat="39.99008784925143" lon="8.410468661598335"><ele>12.0</ele><time>2026-05-02T07:39:07.998Z</time></trkpt><trkpt lat="39.99017626936105" lon="8.410448420568214"><ele>12.0</ele><time>2026-05-02T07:39:08.998Z</time></trkpt><trkpt lat="39.990270052565016" lon="8.410435080833306"><ele>12.0</ele><time>2026-05-02T07:39:09.998Z</time></trkpt><trkpt lat="39.99036535792841" lon="8.410420542781495"><ele>12.0</ele><time>2026-05-02T07:39:10.998Z</time></trkpt><trkpt lat="39.990453339690525" lon="8.410406039460337"><ele>12.0</ele><time>2026-05-02T07:39:11.998Z</time></trkpt><trkpt lat="39.9905330459057" lon="8.410403660343475"><ele>12.0</ele><time>2026-05-02T07:39:13.998Z</time></trkpt><trkpt lat="39.99058727198162" lon="8.410473713301258"><ele>12.0</ele><time>2026-05-02T07:39:15.998Z</time></trkpt><trkpt lat="39.990640371133196" lon="8.41051826139676"><ele>12.0</ele><time>2026-05-02T07:39:16.998Z</time></trkpt><trkpt lat="39.99070184354888" lon="8.41056135895865"><ele>12.0</ele><time>2026-05-02T07:39:17.998Z</time></trkpt><trkpt lat="39.99077433691962" lon="8.410612296471575"><ele>12.0</ele><time>2026-05-02T07:39:18.998Z</time></trkpt><trkpt lat="39.99085020666215" lon="8.4106610963095"><ele>11.999999999999998</ele><time>2026-05-02T07:39:20Z</time></trkpt><trkpt lat="39.990918705625056" lon="8.410701784697284"><ele>12.0</ele><time>2026-05-02T07:39:21Z</time></trkpt><trkpt lat="39.99098272301662" lon="8.410737445945633"><ele>12.0</ele><time>2026-05-02T07:39:22Z</time></trkpt><trkpt lat="39.991042748584334" lon="8.410768961541535"><ele>12.0</ele><time>2026-05-02T07:39:23Z</time></trkpt><trkpt lat="39.99110402073617" lon="8.410801929054287"><ele>12.0</ele><time>2026-05-02T07:39:24Z</time></trkpt><trkpt lat="39.99116850214343" lon="8.410836817346317"><ele>11.999999999999998</ele><time>2026-05-02T07:39:25Z</time></trkpt><trkpt lat="39.99122878188341" lon="8.410869046594831"><ele>12.0</ele><time>2026-05-02T07:39:26Z</time></trkpt><trkpt lat="39.9912884442244" lon="8.410902453519808"><ele>12.0</ele><time>2026-05-02T07:39:27Z</time></trkpt><trkpt lat="39.991382337508455" lon="8.410949161835717"><ele>12.0</ele><time>2026-05-02T07:39:29Z</time></trkpt><trkpt lat="39.991451385280556" lon="8.411022194984332"><ele>12.0</ele><time>2026-05-02T07:39:31Z</time></trkpt><trkpt lat="39.99150244092699" lon="8.411113112087776"><ele>12.0</ele><time>2026-05-02T07:39:33Z</time></trkpt><trkpt lat="39.991560247369335" lon="8.41121979358716"><ele>12.0</ele><time>2026-05-02T07:39:35Z</time></trkpt><trkpt lat="39.991612349381356" lon="8.411319167367813"><ele>11.833333333333334</ele><time>2026-05-02T07:39:37Z</time></trkpt><trkpt lat="39.99168752647472" lon="8.411442235978216"><ele>11.666666666666666</ele><time>2026-05-02T07:39:39Z</time></trkpt><trkpt lat="39.991724371309736" lon="8.411533695402863"><ele>11.5</ele><time>2026-05-02T07:39:40Z</time></trkpt><trkpt lat="39.99175584666719" lon="8.411618483591296"><ele>11.333333333333332</ele><time>2026-05-02T07:39:41Z</time></trkpt><trkpt lat="39.99178254090059" lon="8.411697418179655"><ele>11.166666666666666</ele><time>2026-05-02T07:39:42Z</time></trkpt><trkpt lat="39.991809390603954" lon="8.411776707178115"><ele>11.0</ele><time>2026-05-02T07:39:43Z</time></trkpt><trkpt lat="39.991855574573854" lon="8.41190248050759"><ele>11.0</ele><time>2026-05-02T07:39:45Z</time></trkpt><trkpt lat="39.99180018530137" lon="8.411982270408371"><ele>11.0</ele><time>2026-05-02T07:39:48Z</time></trkpt><trkpt lat="39.99170531625005" lon="8.412055591519001"><ele>11.0</ele><time>2026-05-02T07:39:50Z</time></trkpt><trkpt lat="39.99163171566457" lon="8.412104134537165"><ele>11.0</ele><time>2026-05-02T07:39:51Z</time></trkpt><trkpt lat="39.99155162072581" lon="8.412164335261853"><ele>11.0</ele><time>2026-05-02T07:39:51.999Z</time></trkpt><trkpt lat="39.99147141638761" lon="8.412216774885954"><ele>11.0</ele><time>2026-05-02T07:39:52.999Z</time></trkpt><trkpt lat="39.991410865786165" lon="8.412258100822227"><ele>11.0</ele><time>2026-05-02T07:39:53.999Z</time></trkpt><trkpt lat="39.99133410774567" lon="8.412313045935697"><ele>11.0</ele><time>2026-05-02T07:39:55.999Z</time></trkpt><trkpt lat="39.99127209638624" lon="8.412363002590364"><ele>11.0</ele><time>2026-05-02T07:39:57.999Z</time></trkpt><trkpt lat="39.99124012115014" lon="8.4124905997579"><ele>11.0</ele><time>2026-05-02T07:39:59.999Z</time></trkpt><trkpt lat="39.99124700949984" lon="8.41259093228424"><ele>11.0</ele><time>2026-05-02T07:40:00.999Z</time></trkpt><trkpt lat="39.99123436039527" lon="8.412715010077234"><ele>11.0</ele><time>2026-05-02T07:40:01.999Z</time></trkpt><trkpt lat="39.99121234878583" lon="8.41285052730684"><ele>11.0</ele><time>2026-05-02T07:40:02.999Z</time></trkpt><trkpt lat="39.99117784037195" lon="8.412986181383806"><ele>11.0</ele><time>2026-05-02T07:40:03.999Z</time></trkpt><trkpt lat="39.99113609198013" lon="8.413103233822342"><ele>11.0</ele><time>2026-05-02T07:40:04.999Z</time></trkpt><trkpt lat="39.991099247281" lon="8.41319654072547"><ele>11.0</ele><time>2026-05-02T07:40:05.999Z</time></trkpt><trkpt lat="39.9910577670954" lon="8.413289643504985"><ele>10.666666666666666</ele><time>2026-05-02T07:40:06.999Z</time></trkpt><trkpt lat="39.99102569785363" lon="8.413397100645552"><ele>10.333333333333332</ele><time>2026-05-02T07:40:07.999Z</time></trkpt><trkpt lat="39.99099782312873" lon="8.41348424210729"><ele>10.0</ele><time>2026-05-02T07:40:08.999Z</time></trkpt><trkpt lat="39.99096876467231" lon="8.41357849132623"><ele>9.666666666666666</ele><time>2026-05-02T07:40:09.999Z</time></trkpt><trkpt lat="39.99094173835311" lon="8.413677018753344"><ele>9.333333333333334</ele><time>2026-05-02T07:40:10.999Z</time></trkpt><trkpt lat="39.990921240258686" lon="8.413768779813061"><ele>9.0</ele><time>2026-05-02T07:40:11.999Z</time></trkpt><trkpt lat="39.99089687547663" lon="8.41386079927871"><ele>8.833333333333334</ele><time>2026-05-02T07:40:12.999Z</time></trkpt><trkpt lat="39.99086826469744" lon="8.413960665411654"><ele>8.666666666666666</ele><time>2026-05-02T07:40:13.999Z</time></trkpt><trkpt lat="39.990833039229386" lon="8.414058190029937"><ele>8.5</ele><time>2026-05-02T07:40:14.999Z</time></trkpt><trkpt lat="39.990796976959786" lon="8.414147002020286"><ele>8.333333333333332</ele><time>2026-05-02T07:40:15.999Z</time></trkpt><trkpt lat="39.99075570343762" lon="8.414247017155033"><ele>8.166666666666666</ele><time>2026-05-02T07:40:16.999Z</time></trkpt><trkpt lat="39.99072448158761" lon="8.414360245024753"><ele>8.0</ele><time>2026-05-02T07:40:17.999Z</time></trkpt><trkpt lat="39.99069856952018" lon="8.414470764496597"><ele>8.0</ele><time>2026-05-02T07:40:18.999Z</time></trkpt><trkpt lat="39.99066301886869" lon="8.414586378404737"><ele>8.0</ele><time>2026-05-02T07:40:19.999Z</time></trkpt><trkpt lat="39.99061768802593" lon="8.414705540048729"><ele>8.0</ele><time>2026-05-02T07:40:20.999Z</time></trkpt><trkpt lat="39.99056696902973" lon="8.41482349937447"><ele>8.0</ele><time>2026-05-02T07:40:21.999Z</time></trkpt><trkpt lat="39.99051634201998" lon="8.414942755294067"><ele>8.0</ele><time>2026-05-02T07:40:22.999Z</time></trkpt><trkpt lat="39.99046194500283" lon="8.415073512321685"><ele>8.5</ele><time>2026-05-02T07:40:23.999Z</time></trkpt><trkpt lat="39.990401919238785" lon="8.415207847386682"><ele>9.0</ele><time>2026-05-02T07:40:24.999Z</time></trkpt><trkpt lat="39.990339058169084" lon="8.415335920246537"><ele>9.5</ele><time>2026-05-02T07:40:25.999Z</time></trkpt><trkpt lat="39.99027588414822" lon="8.41546606404392"><ele>10.0</ele><time>2026-05-02T07:40:26.999Z</time></trkpt><trkpt lat="39.990210869700036" lon="8.415602401602312"><ele>10.0</ele><time>2026-05-02T07:40:27.999Z</time></trkpt><trkpt lat="39.99014702803148" lon="8.415741527388272"><ele>10.0</ele><time>2026-05-02T07:40:28.999Z</time></trkpt><trkpt lat="39.99008559610792" lon="8.415878581418047"><ele>10.0</ele><time>2026-05-02T07:40:29.999Z</time></trkpt><trkpt lat="39.990027793472855" lon="8.416008846783809"><ele>10.0</ele><time>2026-05-02T07:40:30.999Z</time></trkpt><trkpt lat="39.98997680127248" lon="8.416120939525667"><ele>9.8</ele><time>2026-05-02T07:40:31.999Z</time></trkpt><trkpt lat="39.989927043680275" lon="8.416228726388038"><ele>9.6</ele><time>2026-05-02T07:40:32.999Z</time></trkpt><trkpt lat="39.98987229395028" lon="8.416343094126761"><ele>9.4</ele><time>2026-05-02T07:40:33.999Z</time></trkpt><trkpt lat="39.98981807968225" lon="8.416465171178771"><ele>9.2</ele><time>2026-05-02T07:40:34.999Z</time></trkpt><trkpt lat="39.98976351541371" lon="8.416589509677037"><ele>9.0</ele><time>2026-05-02T07:40:35.999Z</time></trkpt><trkpt lat="39.989707491483884" lon="8.416692801694609"><ele>9.0</ele><time>2026-05-02T07:40:36.999Z</time></trkpt><trkpt lat="39.9896417854163" lon="8.416773267184851"><ele>9.0</ele><time>2026-05-02T07:40:37.999Z</time></trkpt><trkpt lat="39.98955429382687" lon="8.416855232394605"><ele>9.0</ele><time>2026-05-02T07:40:38.999Z</time></trkpt><trkpt lat="39.98947207281266" lon="8.416954710372337"><ele>9.0</ele><time>2026-05-02T07:40:39.999Z</time></trkpt><trkpt lat="39.98942230566367" lon="8.417047677571093"><ele>9.0</ele><time>2026-05-02T07:40:40.999Z</time></trkpt><trkpt lat="39.98938695177381" lon="8.417145101498843"><ele>9.0</ele><time>2026-05-02T07:40:41.999Z</time></trkpt><trkpt lat="39.98935157885978" lon="8.417252096975115"><ele>9.0</ele><time>2026-05-02T07:40:42.999Z</time></trkpt><trkpt lat="39.989314493438734" lon="8.417355177881543"><ele>9.0</ele><time>2026-05-02T07:40:43.999Z</time></trkpt><trkpt lat="39.989253961333105" lon="8.417445768918144"><ele>9.0</ele><time>2026-05-02T07:40:44.999Z</time></trkpt><trkpt lat="39.98917937712878" lon="8.417518467961514"><ele>9.0</ele><time>2026-05-02T07:40:45.999Z</time></trkpt><trkpt lat="39.989126184514596" lon="8.417591841052506"><ele>9.0</ele><time>2026-05-02T07:40:46.999Z</time></trkpt><trkpt lat="39.989100033540446" lon="8.417685211163063"><ele>8.8</ele><time>2026-05-02T07:40:47.999Z</time></trkpt><trkpt lat="39.98896130172653" lon="8.417708668737317"><ele>8.600000000000001</ele><time>2026-05-02T07:40:48.999Z</time></trkpt><trkpt lat="39.988929412142895" lon="8.417791978465122"><ele>8.4</ele><time>2026-05-02T07:40:50.999Z</time></trkpt><trkpt lat="39.98887384902464" lon="8.417846435650095"><ele>8.200000000000001</ele><time>2026-05-02T07:40:51.999Z</time></trkpt><trkpt lat="39.98881516660834" lon="8.417920550191019"><ele>8.0</ele><time>2026-05-02T07:40:52.999Z</time></trkpt><trkpt lat="39.98874899928989" lon="8.418016644108565"><ele>7.800000000000001</ele><time>2026-05-02T07:40:53.999Z</time></trkpt><trkpt lat="39.98869094855027" lon="8.418119481206505"><ele>7.6000000000000005</ele><time>2026-05-02T07:40:54.998Z</time></trkpt><trkpt lat="39.988629251746374" lon="8.418195686858265"><ele>7.3999999999999995</ele><time>2026-05-02T07:40:55.998Z</time></trkpt><trkpt lat="39.98855546344459" lon="8.418252993609977"><ele>7.199999999999999</ele><time>2026-05-02T07:40:56.998Z</time></trkpt><trkpt lat="39.98844531425212" lon="8.418332485768401"><ele>7.0</ele><time>2026-05-02T07:40:57.998Z</time></trkpt><trkpt lat="39.9883237419347" lon="8.418413786150737"><ele>7.3999999999999995</ele><time>2026-05-02T07:40:58.998Z</time></trkpt><trkpt lat="39.98821980073788" lon="8.418508873125392"><ele>7.799999999999999</ele><time>2026-05-02T07:40:59.998Z</time></trkpt><trkpt lat="39.9881511614822" lon="8.41860208496027"><ele>8.2</ele><time>2026-05-02T07:41:00.998Z</time></trkpt><trkpt lat="39.98808097762446" lon="8.41866474180773"><ele>8.6</ele><time>2026-05-02T07:41:01.998Z</time></trkpt><trkpt lat="39.988009015829434" lon="8.418692043771225"><ele>9.0</ele><time>2026-05-02T07:41:02.998Z</time></trkpt><trkpt lat="39.98790333220495" lon="8.41874205930811"><ele>9.0</ele><time>2026-05-02T07:41:03.998Z</time></trkpt><trkpt lat="39.98778366631677" lon="8.418808798092869"><ele>9.0</ele><time>2026-05-02T07:41:04.998Z</time></trkpt><trkpt lat="39.98767278955953" lon="8.418901600934895"><ele>9.0</ele><time>2026-05-02T07:41:05.998Z</time></trkpt><trkpt lat="39.98757027481031" lon="8.418996684948825"><ele>9.0</ele><time>2026-05-02T07:41:06.998Z</time></trkpt><trkpt lat="39.98748509007917" lon="8.419095576430756"><ele>8.75</ele><time>2026-05-02T07:41:07.998Z</time></trkpt><trkpt lat="39.987421627166704" lon="8.419188289279088"><ele>8.5</ele><time>2026-05-02T07:41:08.998Z</time></trkpt><trkpt lat="39.9873576466805" lon="8.419254628075537"><ele>8.25</ele><time>2026-05-02T07:41:09.998Z</time></trkpt><trkpt lat="39.987269972853625" lon="8.419326941688587"><ele>8.0</ele><time>2026-05-02T07:41:11.998Z</time></trkpt><trkpt lat="39.98735306479503" lon="8.419608241480148"><ele>8.25</ele><time>2026-05-02T07:41:14.998Z</time></trkpt><trkpt lat="39.987419313190536" lon="8.419723711720208"><ele>8.5</ele><time>2026-05-02T07:41:15.998Z</time></trkpt><trkpt lat="39.98748949508281" lon="8.419854887378811"><ele>8.75</ele><time>2026-05-02T07:41:16.998Z</time></trkpt><trkpt lat="39.98755528787099" lon="8.419991018871931"><ele>9.0</ele><time>2026-05-02T07:41:17.998Z</time></trkpt><trkpt lat="39.98763340788612" lon="8.420142190654316"><ele>8.333333333333334</ele><time>2026-05-02T07:41:18.998Z</time></trkpt><trkpt lat="39.98772699589151" lon="8.420320437301609"><ele>7.666666666666667</ele><time>2026-05-02T07:41:19.998Z</time></trkpt><trkpt lat="39.98782283164318" lon="8.420506912349298"><ele>7.0</ele><time>2026-05-02T07:41:20.998Z</time></trkpt><trkpt lat="39.98790346935351" lon="8.42066208715953"><ele>7.0</ele><time>2026-05-02T07:41:21.998Z</time></trkpt><trkpt lat="39.98796999149039" lon="8.420802779556734"><ele>7.0</ele><time>2026-05-02T07:41:22.998Z</time></trkpt><trkpt lat="39.98802596737137" lon="8.420935544844117"><ele>7.0</ele><time>2026-05-02T07:41:23.998Z</time></trkpt><trkpt lat="39.988074529133726" lon="8.421079043999834"><ele>7.0</ele><time>2026-05-02T07:41:24.998Z</time></trkpt><trkpt lat="39.988106060211365" lon="8.42124101954212"><ele>7.0</ele><time>2026-05-02T07:41:26Z</time></trkpt><trkpt lat="39.988124717470455" lon="8.421385306009523"><ele>6.999999999999999</ele><time>2026-05-02T07:41:27Z</time></trkpt><trkpt lat="39.98816314588213" lon="8.421502739569334"><ele>6.999999999999999</ele><time>2026-05-02T07:41:28Z</time></trkpt><trkpt lat="39.988184161751846" lon="8.42158805405532"><ele>7.0</ele><time>2026-05-02T07:41:29Z</time></trkpt><trkpt lat="39.98815611458274" lon="8.421670539959607"><ele>7.0</ele><time>2026-05-02T07:41:30Z</time></trkpt><trkpt lat="39.98808823522597" lon="8.421780117041404"><ele>7.0</ele><time>2026-05-02T07:41:31Z</time></trkpt><trkpt lat="39.98800767747601" lon="8.42190951846761"><ele>7.0</ele><time>2026-05-02T07:41:32Z</time></trkpt><trkpt lat="39.987923423683384" lon="8.422040236841454"><ele>7.0</ele><time>2026-05-02T07:41:33Z</time></trkpt><trkpt lat="39.98781878534126" lon="8.422139773910787"><ele>7.0</ele><time>2026-05-02T07:41:34Z</time></trkpt><trkpt lat="39.987719616786876" lon="8.422186466220682"><ele>7.0</ele><time>2026-05-02T07:41:35Z</time></trkpt><trkpt lat="39.987647750242566" lon="8.422226630011112"><ele>6.999999999999999</ele><time>2026-05-02T07:41:36Z</time></trkpt><trkpt lat="39.987608102789764" lon="8.422320839666886"><ele>6.999999999999999</ele><time>2026-05-02T07:41:37Z</time></trkpt><trkpt lat="39.987577683070995" lon="8.42243657368152"><ele>7.0</ele><time>2026-05-02T07:41:38Z</time></trkpt><trkpt lat="39.98751499145238" lon="8.422528459945013"><ele>7.0</ele><time>2026-05-02T07:41:39Z</time></trkpt><trkpt lat="39.987416033869664" lon="8.42257150246873"><ele>7.0</ele><time>2026-05-02T07:41:40Z</time></trkpt><trkpt lat="39.9873119302836" lon="8.422612310819241"><ele>6.999999999999999</ele><time>2026-05-02T07:41:41Z</time></trkpt><trkpt lat="39.98724248733678" lon="8.422698110657063"><ele>6.999999999999999</ele><time>2026-05-02T07:41:42Z</time></trkpt><trkpt lat="39.987182506195836" lon="8.42281598922425"><ele>7.0</ele><time>2026-05-02T07:41:43Z</time></trkpt><trkpt lat="39.987098501998425" lon="8.422921037463844"><ele>7.0</ele><time>2026-05-02T07:41:44Z</time></trkpt><trkpt lat="39.98699187799745" lon="8.423008676027228"><ele>6.75</ele><time>2026-05-02T07:41:45Z</time></trkpt><trkpt lat="39.9868769762223" lon="8.42309551448687"><ele>6.5</ele><time>2026-05-02T07:41:46Z</time></trkpt><trkpt lat="39.98677611543956" lon="8.42318912507904"><ele>6.25</ele><time>2026-05-02T07:41:47Z</time></trkpt><trkpt lat="39.986690010122025" lon="8.4233117572006"><ele>6.0</ele><time>2026-05-02T07:41:48Z</time></trkpt><trkpt lat="39.986603078091306" lon="8.423467727948958"><ele>6.199999999999999</ele><time>2026-05-02T07:41:49Z</time></trkpt><trkpt lat="39.98652540184688" lon="8.423593296328631"><ele>6.3999999999999995</ele><time>2026-05-02T07:41:50Z</time></trkpt><trkpt lat="39.98644732949633" lon="8.423677962447593"><ele>6.6</ele><time>2026-05-02T07:41:51Z</time></trkpt><trkpt lat="39.986400278928286" lon="8.423740777021216"><ele>6.8</ele><time>2026-05-02T07:41:52Z</time></trkpt><trkpt lat="39.98641203802668" lon="8.423896111613807"><ele>7.0</ele><time>2026-05-02T07:41:54Z</time></trkpt><trkpt lat="39.986459211407016" lon="8.423993783502855"><ele>7.0</ele><time>2026-05-02T07:41:54.999Z</time></trkpt><trkpt lat="39.98651389494592" lon="8.424108596377149"><ele>6.999999999999999</ele><time>2026-05-02T07:41:55.999Z</time></trkpt><trkpt lat="39.98657373350266" lon="8.424228032767706"><ele>6.999999999999999</ele><time>2026-05-02T07:41:56.999Z</time></trkpt><trkpt lat="39.9866231247232" lon="8.424360091959608"><ele>7.0</ele><time>2026-05-02T07:41:57.999Z</time></trkpt><trkpt lat="39.9866775467722" lon="8.42450302287919"><ele>7.0</ele><time>2026-05-02T07:41:58.999Z</time></trkpt><trkpt lat="39.98673231624553" lon="8.424652091132712"><ele>6.75</ele><time>2026-05-02T07:41:59.999Z</time></trkpt><trkpt lat="39.98679018795712" lon="8.42479340465718"><ele>6.5</ele><time>2026-05-02T07:42:00.999Z</time></trkpt><trkpt lat="39.986847071162046" lon="8.42491809961427"><ele>6.25</ele><time>2026-05-02T07:42:01.999Z</time></trkpt><trkpt lat="39.98690293404988" lon="8.425073227469447"><ele>6.0</ele><time>2026-05-02T07:42:02.999Z</time></trkpt><trkpt lat="39.986963182600796" lon="8.425259695552555"><ele>6.0</ele><time>2026-05-02T07:42:03.999Z</time></trkpt><trkpt lat="39.98702040071252" lon="8.425434283737433"><ele>6.0</ele><time>2026-05-02T07:42:04.999Z</time></trkpt><trkpt lat="39.98707351679212" lon="8.425590454010417"><ele>6.0</ele><time>2026-05-02T07:42:05.999Z</time></trkpt><trkpt lat="39.98711616274314" lon="8.425752564228624"><ele>6.0</ele><time>2026-05-02T07:42:06.999Z</time></trkpt><trkpt lat="39.98715848802794" lon="8.425909153163245"><ele>6.25</ele><time>2026-05-02T07:42:07.999Z</time></trkpt><trkpt lat="39.98720362190751" lon="8.426066679406"><ele>6.5</ele><time>2026-05-02T07:42:08.999Z</time></trkpt><trkpt lat="39.98724455960691" lon="8.426208125774323"><ele>6.75</ele><time>2026-05-02T07:42:09.999Z</time></trkpt><trkpt lat="39.987284777909935" lon="8.42633993863431"><ele>7.0</ele><time>2026-05-02T07:42:10.999Z</time></trkpt><trkpt lat="39.987333322020326" lon="8.426478370513514"><ele>7.0</ele><time>2026-05-02T07:42:11.999Z</time></trkpt><trkpt lat="39.98740035049859" lon="8.426618105015816"><ele>7.0</ele><time>2026-05-02T07:42:12.999Z</time></trkpt><trkpt lat="39.98748157509918" lon="8.426756646966602"><ele>7.0</ele><time>2026-05-02T07:42:13.999Z</time></trkpt><trkpt lat="39.98756287127339" lon="8.42689835466739"><ele>7.0</ele><time>2026-05-02T07:42:14.999Z</time></trkpt><trkpt lat="39.987625916536274" lon="8.427042013299957"><ele>6.25</ele><time>2026-05-02T07:42:15.999Z</time></trkpt><trkpt lat="39.98767443770223" lon="8.427194427804295"><ele>5.5</ele><time>2026-05-02T07:42:16.999Z</time></trkpt><trkpt lat="39.98770185033504" lon="8.427337491636292"><ele>4.75</ele><time>2026-05-02T07:42:17.999Z</time></trkpt><trkpt lat="39.987715901791475" lon="8.427489323320593"><ele>4.0</ele><time>2026-05-02T07:42:18.999Z</time></trkpt><trkpt lat="39.98772733243543" lon="8.427677178769883"><ele>4.0</ele><time>2026-05-02T07:42:19.999Z</time></trkpt><trkpt lat="39.98775691486167" lon="8.42787208262356"><ele>4.0</ele><time>2026-05-02T07:42:20.999Z</time></trkpt><trkpt lat="39.987797921613435" lon="8.428054203368347"><ele>4.0</ele><time>2026-05-02T07:42:21.999Z</time></trkpt><trkpt lat="39.98782827777306" lon="8.42821225382204"><ele>4.0</ele><time>2026-05-02T07:42:22.999Z</time></trkpt><trkpt lat="39.987846183051275" lon="8.428378744102632"><ele>4.0</ele><time>2026-05-02T07:42:23.999Z</time></trkpt><trkpt lat="39.98787053660574" lon="8.42852854518185"><ele>4.0</ele><time>2026-05-02T07:42:24.999Z</time></trkpt><trkpt lat="39.98792533917066" lon="8.42866908667729"><ele>4.0</ele><time>2026-05-02T07:42:25.999Z</time></trkpt><trkpt lat="39.98800330475801" lon="8.428810827622625"><ele>4.0</ele><time>2026-05-02T07:42:26.999Z</time></trkpt><trkpt lat="39.988089020075286" lon="8.428937247112794"><ele>4.2</ele><time>2026-05-02T07:42:27.999Z</time></trkpt><trkpt lat="39.98816419790527" lon="8.429043611447014"><ele>4.4</ele><time>2026-05-02T07:42:28.999Z</time></trkpt><trkpt lat="39.98821734581454" lon="8.429147703777382"><ele>4.6</ele><time>2026-05-02T07:42:29.999Z</time></trkpt><trkpt lat="39.98824757555543" lon="8.429273826891153"><ele>4.8</ele><time>2026-05-02T07:42:30.999Z</time></trkpt><trkpt lat="39.98827228977768" lon="8.429430031941301"><ele>5.0</ele><time>2026-05-02T07:42:31.999Z</time></trkpt><trkpt lat="39.988316983238626" lon="8.429581465248177"><ele>5.0</ele><time>2026-05-02T07:42:32.999Z</time></trkpt><trkpt lat="39.98837446008766" lon="8.429690277349495"><ele>5.0</ele><time>2026-05-02T07:42:33.999Z</time></trkpt><trkpt lat="39.98842062246533" lon="8.42979283387102"><ele>5.0</ele><time>2026-05-02T07:42:34.999Z</time></trkpt><trkpt lat="39.988465216942664" lon="8.42989855890674"><ele>5.0</ele><time>2026-05-02T07:42:35.999Z</time></trkpt><trkpt lat="39.98851012438333" lon="8.429994764336703"><ele>5.0</ele><time>2026-05-02T07:42:36.999Z</time></trkpt><trkpt lat="39.98855566693068" lon="8.430077563557989"><ele>5.0</ele><time>2026-05-02T07:42:37.999Z</time></trkpt><trkpt lat="39.98861098457818" lon="8.430137861459405"><ele>5.0</ele><time>2026-05-02T07:42:38.999Z</time></trkpt><trkpt lat="39.9886732637126" lon="8.430169800031914"><ele>5.0</ele><time>2026-05-02T07:42:39.999Z</time></trkpt><trkpt lat="39.98875702180074" lon="8.43017841959348"><ele>5.0</ele><time>2026-05-02T07:42:41.999Z</time></trkpt><trkpt lat="39.988842916040795" lon="8.430061798882837"><ele>5.0</ele><time>2026-05-02T07:42:44.999Z</time></trkpt><trkpt lat="39.98885727530402" lon="8.429926733371758"><ele>5.0</ele><time>2026-05-02T07:42:45.999Z</time></trkpt><trkpt lat="39.988881389845474" lon="8.429776064890262"><ele>5.0</ele><time>2026-05-02T07:42:46.999Z</time></trkpt><trkpt lat="39.98892602690524" lon="8.429609968038593"><ele>5.0</ele><time>2026-05-02T07:42:47.999Z</time></trkpt><trkpt lat="39.9889812041162" lon="8.42945467811371"><ele>5.0</ele><time>2026-05-02T07:42:48.999Z</time></trkpt><trkpt lat="39.989048639539014" lon="8.4292836252749"><ele>5.0</ele><time>2026-05-02T07:42:49.999Z</time></trkpt><trkpt lat="39.98912999040012" lon="8.42912161343534"><ele>5.0</ele><time>2026-05-02T07:42:50.999Z</time></trkpt><trkpt lat="39.98922779930229" lon="8.428960182582317"><ele>5.0</ele><time>2026-05-02T07:42:51.999Z</time></trkpt><trkpt lat="39.98933427479352" lon="8.428788836196889"><ele>5.0</ele><time>2026-05-02T07:42:52.999Z</time></trkpt><trkpt lat="39.98944158745382" lon="8.428615973174438"><ele>5.0</ele><time>2026-05-02T07:42:53.999Z</time></trkpt><trkpt lat="39.98954596044197" lon="8.428448787401397"><ele>5.0</ele><time>2026-05-02T07:42:54.999Z</time></trkpt><trkpt lat="39.989648860682806" lon="8.428280823464464"><ele>5.0</ele><time>2026-05-02T07:42:55.999Z</time></trkpt><trkpt lat="39.98975385653506" lon="8.428108620490912"><ele>4.666666666666667</ele><time>2026-05-02T07:42:56.998Z</time></trkpt><trkpt lat="39.98985885558755" lon="8.427935319362739"><ele>4.333333333333333</ele><time>2026-05-02T07:42:57.998Z</time></trkpt><trkpt lat="39.989965439911806" lon="8.427762745691227"><ele>4.0</ele><time>2026-05-02T07:42:58.998Z</time></trkpt><trkpt lat="39.990074126242206" lon="8.427589715335605"><ele>4.0</ele><time>2026-05-02T07:42:59.998Z</time></trkpt><trkpt lat="39.9901791354412" lon="8.427415036907897"><ele>4.0</ele><time>2026-05-02T07:43:00.998Z</time></trkpt><trkpt lat="39.99028684771511" lon="8.427238438977694"><ele>4.0</ele><time>2026-05-02T07:43:01.998Z</time></trkpt><trkpt lat="39.99039208854444" lon="8.427055682624676"><ele>4.333333333333333</ele><time>2026-05-02T07:43:02.998Z</time></trkpt><trkpt lat="39.99049569025524" lon="8.426874715584848"><ele>4.666666666666667</ele><time>2026-05-02T07:43:03.998Z</time></trkpt><trkpt lat="39.99059853425315" lon="8.426692585531773"><ele>5.0</ele><time>2026-05-02T07:43:04.998Z</time></trkpt><trkpt lat="39.99069949469739" lon="8.426507809876862"><ele>5.0</ele><time>2026-05-02T07:43:05.998Z</time></trkpt><trkpt lat="39.99079835466606" lon="8.42631635600509"><ele>5.0</ele><time>2026-05-02T07:43:06.998Z</time></trkpt><trkpt lat="39.99089893361161" lon="8.426127131110409"><ele>5.0</ele><time>2026-05-02T07:43:07.998Z</time></trkpt><trkpt lat="39.991003662787215" lon="8.425942015395604"><ele>4.666666666666667</ele><time>2026-05-02T07:43:08.998Z</time></trkpt><trkpt lat="39.991110325955546" lon="8.425749761144225"><ele>4.333333333333333</ele><time>2026-05-02T07:43:09.998Z</time></trkpt><trkpt lat="39.991213366434245" lon="8.42555653156267"><ele>4.0</ele><time>2026-05-02T07:43:10.998Z</time></trkpt><trkpt lat="39.99131597853818" lon="8.425362268478553"><ele>3.6666666666666665</ele><time>2026-05-02T07:43:11.998Z</time></trkpt><trkpt lat="39.99142011105229" lon="8.425168733728496"><ele>3.333333333333333</ele><time>2026-05-02T07:43:12.998Z</time></trkpt><trkpt lat="39.99152701893528" lon="8.424976341642806"><ele>3.0</ele><time>2026-05-02T07:43:13.998Z</time></trkpt><trkpt lat="39.991632823121456" lon="8.424783728468686"><ele>3.333333333333333</ele><time>2026-05-02T07:43:14.998Z</time></trkpt><trkpt lat="39.991742113507385" lon="8.424594106374611"><ele>3.6666666666666665</ele><time>2026-05-02T07:43:15.998Z</time></trkpt><trkpt lat="39.991862706145184" lon="8.424413108164142"><ele>4.0</ele><time>2026-05-02T07:43:16.998Z</time></trkpt><trkpt lat="39.991996398849416" lon="8.42425049660964"><ele>4.0</ele><time>2026-05-02T07:43:17.998Z</time></trkpt><trkpt lat="39.9921420894397" lon="8.424108399092743"><ele>4.0</ele><time>2026-05-02T07:43:18.998Z</time></trkpt><trkpt lat="39.99229752245332" lon="8.423985074764419"><ele>4.0</ele><time>2026-05-02T07:43:19.998Z</time></trkpt><trkpt lat="39.99245904026162" lon="8.423875068342024"><ele>4.0</ele><time>2026-05-02T07:43:20.998Z</time></trkpt><trkpt lat="39.99262272298537" lon="8.423769442819586"><ele>4.0</ele><time>2026-05-02T07:43:21.998Z</time></trkpt><trkpt lat="39.99278370336951" lon="8.423664267880943"><ele>4.0</ele><time>2026-05-02T07:43:22.998Z</time></trkpt><trkpt lat="39.992948261574426" lon="8.423558601769075"><ele>4.0</ele><time>2026-05-02T07:43:23.998Z</time></trkpt><trkpt lat="39.993113614364766" lon="8.423458242584248"><ele>4.0</ele><time>2026-05-02T07:43:24.998Z</time></trkpt><trkpt lat="39.993278063038694" lon="8.423356887326115"><ele>4.0</ele><time>2026-05-02T07:43:25.998Z</time></trkpt><trkpt lat="39.993440654069694" lon="8.423249062633753"><ele>4.0</ele><time>2026-05-02T07:43:26.998Z</time></trkpt><trkpt lat="39.99360198784288" lon="8.423139698818488"><ele>4.0</ele><time>2026-05-02T07:43:27.998Z</time></trkpt><trkpt lat="39.99376413171634" lon="8.423035258780379"><ele>4.0</ele><time>2026-05-02T07:43:28.998Z</time></trkpt><trkpt lat="39.99392778272036" lon="8.42293026285024"><ele>4.333333333333333</ele><time>2026-05-02T07:43:29.998Z</time></trkpt><trkpt lat="39.994091007052816" lon="8.42282656713072"><ele>4.666666666666667</ele><time>2026-05-02T07:43:30.998Z</time></trkpt><trkpt lat="39.99425366383649" lon="8.422725734470456"><ele>5.0</ele><time>2026-05-02T07:43:32Z</time></trkpt><trkpt lat="39.994416277653826" lon="8.422623390970546"><ele>5.0</ele><time>2026-05-02T07:43:33Z</time></trkpt><trkpt lat="39.994577831301854" lon="8.422521022861096"><ele>5.0</ele><time>2026-05-02T07:43:34Z</time></trkpt><trkpt lat="39.994738437795064" lon="8.422418697636264"><ele>5.0</ele><time>2026-05-02T07:43:35Z</time></trkpt><trkpt lat="39.994899838676844" lon="8.422316568251711"><ele>5.0</ele><time>2026-05-02T07:43:36Z</time></trkpt><trkpt lat="39.995060827915616" lon="8.422211749233545"><ele>5.0</ele><time>2026-05-02T07:43:37Z</time></trkpt><trkpt lat="39.995221796751984" lon="8.422103964505812"><ele>5.0</ele><time>2026-05-02T07:43:38Z</time></trkpt><trkpt lat="39.99538279950982" lon="8.421998108682558"><ele>5.333333333333334</ele><time>2026-05-02T07:43:39Z</time></trkpt><trkpt lat="39.995547450850225" lon="8.421896783490864"><ele>5.666666666666667</ele><time>2026-05-02T07:43:40Z</time></trkpt><trkpt lat="39.99571496334012" lon="8.421795089640936"><ele>6.0</ele><time>2026-05-02T07:43:41Z</time></trkpt><trkpt lat="39.99588149549125" lon="8.421691087947167"><ele>6.0</ele><time>2026-05-02T07:43:42Z</time></trkpt><trkpt lat="39.99604469042148" lon="8.421581903488887"><ele>6.0</ele><time>2026-05-02T07:43:43Z</time></trkpt><trkpt lat="39.99620672032033" lon="8.421467599206396"><ele>6.0</ele><time>2026-05-02T07:43:44Z</time></trkpt><trkpt lat="39.996365446738444" lon="8.421346116629987"><ele>6.333333333333334</ele><time>2026-05-02T07:43:45Z</time></trkpt><trkpt lat="39.996517147741606" lon="8.421210107070827"><ele>6.666666666666667</ele><time>2026-05-02T07:43:46Z</time></trkpt><trkpt lat="39.99666050213809" lon="8.42105780679216"><ele>7.0</ele><time>2026-05-02T07:43:47Z</time></trkpt><trkpt lat="39.99679629723583" lon="8.420895637625977"><ele>7.0</ele><time>2026-05-02T07:43:48Z</time></trkpt><trkpt lat="39.996927680776594" lon="8.420727121036697"><ele>7.0</ele><time>2026-05-02T07:43:49Z</time></trkpt><trkpt lat="39.9970570713923" lon="8.420554308545134"><ele>7.0</ele><time>2026-05-02T07:43:50Z</time></trkpt><trkpt lat="39.997185888811366" lon="8.420379019602"><ele>7.666666666666667</ele><time>2026-05-02T07:43:51Z</time></trkpt><trkpt lat="39.99731323858013" lon="8.420204812540046"><ele>8.333333333333334</ele><time>2026-05-02T07:43:52Z</time></trkpt><trkpt lat="39.99743823244661" lon="8.420028013189457"><ele>9.0</ele><time>2026-05-02T07:43:53Z</time></trkpt><trkpt lat="39.997562982169015" lon="8.419851690423023"><ele>9.0</ele><time>2026-05-02T07:43:54Z</time></trkpt><trkpt lat="39.99768963463533" lon="8.419676533581"><ele>9.0</ele><time>2026-05-02T07:43:55Z</time></trkpt><trkpt lat="39.99781671910133" lon="8.419501633229403"><ele>9.0</ele><time>2026-05-02T07:43:56Z</time></trkpt><trkpt lat="39.99794396343225" lon="8.419326681658665"><ele>9.333333333333334</ele><time>2026-05-02T07:43:57Z</time></trkpt><trkpt lat="39.99807103372921" lon="8.419152340906956"><ele>9.666666666666668</ele><time>2026-05-02T07:43:57.999Z</time></trkpt><trkpt lat="39.998198811791326" lon="8.418980020857507"><ele>10.0</ele><time>2026-05-02T07:43:58.999Z</time></trkpt><trkpt lat="39.99832882714932" lon="8.418808928624626"><ele>10.0</ele><time>2026-05-02T07:43:59.999Z</time></trkpt><trkpt lat="39.9984570958039" lon="8.418635831610239"><ele>10.0</ele><time>2026-05-02T07:44:00.999Z</time></trkpt><trkpt lat="39.99858574097178" lon="8.41846117821206"><ele>10.0</ele><time>2026-05-02T07:44:01.999Z</time></trkpt><trkpt lat="39.99871645816377" lon="8.418290471540123"><ele>10.0</ele><time>2026-05-02T07:44:02.999Z</time></trkpt><trkpt lat="39.99885191513362" lon="8.418127003261016"><ele>10.0</ele><time>2026-05-02T07:44:03.999Z</time></trkpt><trkpt lat="39.998993416375754" lon="8.417970978354523"><ele>10.0</ele><time>2026-05-02T07:44:04.999Z</time></trkpt><trkpt lat="39.999138394242294" lon="8.4178206049412"><ele>10.333333333333334</ele><time>2026-05-02T07:44:05.999Z</time></trkpt><trkpt lat="39.99928375623464" lon="8.417671160854683"><ele>10.666666666666666</ele><time>2026-05-02T07:44:06.999Z</time></trkpt><trkpt lat="39.999428641003824" lon="8.41752051090925"><ele>11.0</ele><time>2026-05-02T07:44:07.999Z</time></trkpt><trkpt lat="39.99957265049163" lon="8.417367495317304"><ele>11.0</ele><time>2026-05-02T07:44:08.999Z</time></trkpt><trkpt lat="39.99972023692905" lon="8.417219969837516"><ele>11.0</ele><time>2026-05-02T07:44:09.999Z</time></trkpt><trkpt lat="39.99987037575012" lon="8.417078243195407"><ele>11.0</ele><time>2026-05-02T07:44:10.999Z</time></trkpt><trkpt lat="40.00002227473834" lon="8.416938493766963"><ele>11.666666666666666</ele><time>2026-05-02T07:44:11.999Z</time></trkpt><trkpt lat="40.00017270763544" lon="8.41679732260687"><ele>12.333333333333332</ele><time>2026-05-02T07:44:12.999Z</time></trkpt><trkpt lat="40.00032023328009" lon="8.416654581801293"><ele>13.0</ele><time>2026-05-02T07:44:13.999Z</time></trkpt><trkpt lat="40.00046674083504" lon="8.416512174694686"><ele>13.0</ele><time>2026-05-02T07:44:14.999Z</time></trkpt><trkpt lat="40.00061626541518" lon="8.416370525145101"><ele>13.0</ele><time>2026-05-02T07:44:15.999Z</time></trkpt><trkpt lat="40.000766495577864" lon="8.416232746946465"><ele>13.0</ele><time>2026-05-02T07:44:16.999Z</time></trkpt><trkpt lat="40.0009224466093" lon="8.416106106013233"><ele>13.666666666666666</ele><time>2026-05-02T07:44:17.999Z</time></trkpt><trkpt lat="40.00108537666933" lon="8.415995403397787"><ele>14.333333333333332</ele><time>2026-05-02T07:44:18.999Z</time></trkpt><trkpt lat="40.00125791809702" lon="8.415920780168651"><ele>15.0</ele><time>2026-05-02T07:44:19.999Z</time></trkpt><trkpt lat="40.00143625934292" lon="8.415894651968614"><ele>15.0</ele><time>2026-05-02T07:44:20.999Z</time></trkpt><trkpt lat="40.00161643459615" lon="8.415896731934037"><ele>15.0</ele><time>2026-05-02T07:44:21.999Z</time></trkpt><trkpt lat="40.00179515733928" lon="8.415929953808996"><ele>15.0</ele><time>2026-05-02T07:44:22.999Z</time></trkpt><trkpt lat="40.00196980992772" lon="8.415980706375937"><ele>16.0</ele><time>2026-05-02T07:44:23.999Z</time></trkpt><trkpt lat="40.002140990948256" lon="8.416048573242646"><ele>17.0</ele><time>2026-05-02T07:44:24.999Z</time></trkpt><trkpt lat="40.00231443369407" lon="8.416115917054173"><ele>18.0</ele><time>2026-05-02T07:44:25.999Z</time></trkpt><trkpt lat="40.00249263257885" lon="8.416171225473061"><ele>19.0</ele><time>2026-05-02T07:44:26.999Z</time></trkpt><trkpt lat="40.00267359039458" lon="8.416215056635668"><ele>20.0</ele><time>2026-05-02T07:44:27.999Z</time></trkpt><trkpt lat="40.00285659846121" lon="8.416239226312326"><ele>21.0</ele><time>2026-05-02T07:44:28.999Z</time></trkpt><trkpt lat="40.0030395322534" lon="8.416225408357821"><ele>21.0</ele><time>2026-05-02T07:44:29.999Z</time></trkpt><trkpt lat="40.00322206502958" lon="8.416186142306422"><ele>21.0</ele><time>2026-05-02T07:44:30.999Z</time></trkpt><trkpt lat="40.003401705776746" lon="8.416139107037925"><ele>21.0</ele><time>2026-05-02T07:44:31.999Z</time></trkpt><trkpt lat="40.003580967639266" lon="8.416078851179913"><ele>21.666666666666668</ele><time>2026-05-02T07:44:32.999Z</time></trkpt><trkpt lat="40.00375834846733" lon="8.416010965549129"><ele>22.333333333333336</ele><time>2026-05-02T07:44:33.999Z</time></trkpt><trkpt lat="40.00393723326062" lon="8.415940183518405"><ele>23.0</ele><time>2026-05-02T07:44:34.999Z</time></trkpt><trkpt lat="40.00411576653934" lon="8.41587093061891"><ele>21.666666666666668</ele><time>2026-05-02T07:44:35.999Z</time></trkpt><trkpt lat="40.00429592019953" lon="8.415803040870209"><ele>20.333333333333332</ele><time>2026-05-02T07:44:36.999Z</time></trkpt><trkpt lat="40.0044778816118" lon="8.41573243959652"><ele>19.0</ele><time>2026-05-02T07:44:37.999Z</time></trkpt><trkpt lat="40.004660895056965" lon="8.415661530952514"><ele>19.0</ele><time>2026-05-02T07:44:38.999Z</time></trkpt><trkpt lat="40.004845016915944" lon="8.415593241625306"><ele>19.0</ele><time>2026-05-02T07:44:39.999Z</time></trkpt><trkpt lat="40.005031879043415" lon="8.415527110393377"><ele>19.0</ele><time>2026-05-02T07:44:40.999Z</time></trkpt><trkpt lat="40.00521432340922" lon="8.415451681473549"><ele>20.0</ele><time>2026-05-02T07:44:41.999Z</time></trkpt><trkpt lat="40.0054005162224" lon="8.415383480038479"><ele>21.0</ele><time>2026-05-02T07:44:42.999Z</time></trkpt><trkpt lat="40.00558356027055" lon="8.415297914538684"><ele>22.0</ele><time>2026-05-02T07:44:43.999Z</time></trkpt><trkpt lat="40.005763133546246" lon="8.415194888170737"><ele>20.666666666666664</ele><time>2026-05-02T07:44:44.999Z</time></trkpt><trkpt lat="40.005946578060374" lon="8.415105870258586"><ele>19.333333333333332</ele><time>2026-05-02T07:44:45.999Z</time></trkpt><trkpt lat="40.00612479055684" lon="8.415008545136525"><ele>18.0</ele><time>2026-05-02T07:44:46.999Z</time></trkpt><trkpt lat="40.00629830665235" lon="8.414898506755963"><ele>18.0</ele><time>2026-05-02T07:44:47.999Z</time></trkpt><trkpt lat="40.00646961317883" lon="8.414787604713087"><ele>18.0</ele><time>2026-05-02T07:44:48.999Z</time></trkpt><trkpt lat="40.006641972248175" lon="8.414683981718388"><ele>18.0</ele><time>2026-05-02T07:44:49.999Z</time></trkpt><trkpt lat="40.006812708247594" lon="8.41457770126404"><ele>18.0</ele><time>2026-05-02T07:44:50.999Z</time></trkpt><trkpt lat="40.00697862718052" lon="8.414456971764155"><ele>18.0</ele><time>2026-05-02T07:44:51.999Z</time></trkpt><trkpt lat="40.00713990252676" lon="8.414326681076744"><ele>18.0</ele><time>2026-05-02T07:44:52.999Z</time></trkpt><trkpt lat="40.00729864677122" lon="8.41419153393181"><ele>18.0</ele><time>2026-05-02T07:44:53.999Z</time></trkpt><trkpt lat="40.00745747242265" lon="8.414055664006993"><ele>18.0</ele><time>2026-05-02T07:44:54.999Z</time></trkpt><trkpt lat="40.007615923550546" lon="8.413921347843555"><ele>18.0</ele><time>2026-05-02T07:44:55.999Z</time></trkpt><trkpt lat="40.00777563383245" lon="8.4137847815602"><ele>17.0</ele><time>2026-05-02T07:44:56.999Z</time></trkpt><trkpt lat="40.00793546749657" lon="8.41364897720742"><ele>16.0</ele><time>2026-05-02T07:44:57.999Z</time></trkpt><trkpt lat="40.00810208145559" lon="8.413529782294724"><ele>15.0</ele><time>2026-05-02T07:44:58.999Z</time></trkpt><trkpt lat="40.008283448157" lon="8.413452026860032"><ele>14.333333333333332</ele><time>2026-05-02T07:44:59.999Z</time></trkpt><trkpt lat="40.00847280113325" lon="8.41343949721352"><ele>13.666666666666666</ele><time>2026-05-02T07:45:00.998Z</time></trkpt><trkpt lat="40.00865804278428" lon="8.413467629445526"><ele>13.0</ele><time>2026-05-02T07:45:01.998Z</time></trkpt><trkpt lat="40.00883819426513" lon="8.413540446494444"><ele>13.0</ele><time>2026-05-02T07:45:02.998Z</time></trkpt><trkpt lat="40.00899737235878" lon="8.413673923629785"><ele>13.0</ele><time>2026-05-02T07:45:03.998Z</time></trkpt><trkpt lat="40.00913122250695" lon="8.41384391410205"><ele>13.0</ele><time>2026-05-02T07:45:04.998Z</time></trkpt><trkpt lat="40.00924785165803" lon="8.414038312873853"><ele>12.666666666666666</ele><time>2026-05-02T07:45:05.998Z</time></trkpt><trkpt lat="40.00936457805512" lon="8.414236942286816"><ele>12.333333333333332</ele><time>2026-05-02T07:45:06.998Z</time></trkpt><trkpt lat="40.00945589384793" lon="8.414445780765002"><ele>12.0</ele><time>2026-05-02T07:45:07.998Z</time></trkpt><trkpt lat="40.00954725270959" lon="8.414654458689444"><ele>12.666666666666668</ele><time>2026-05-02T07:45:08.998Z</time></trkpt><trkpt lat="40.00964094324487" lon="8.414861447186764"><ele>13.333333333333334</ele><time>2026-05-02T07:45:09.998Z</time></trkpt><trkpt lat="40.00974353348363" lon="8.415067537605095"><ele>14.0</ele><time>2026-05-02T07:45:10.998Z</time></trkpt><trkpt lat="40.00984598916132" lon="8.415267833914545"><ele>14.0</ele><time>2026-05-02T07:45:11.998Z</time></trkpt><trkpt lat="40.00994268415204" lon="8.415474800209143"><ele>14.0</ele><time>2026-05-02T07:45:12.998Z</time></trkpt><trkpt lat="40.01003487756625" lon="8.41568608928839"><ele>14.0</ele><time>2026-05-02T07:45:13.998Z</time></trkpt><trkpt lat="40.010135750644" lon="8.415887982226996"><ele>12.666666666666668</ele><time>2026-05-02T07:45:14.998Z</time></trkpt><trkpt lat="40.010244981892384" lon="8.416085466788433"><ele>11.333333333333334</ele><time>2026-05-02T07:45:15.998Z</time></trkpt><trkpt lat="40.010367867244355" lon="8.416270096360215"><ele>10.0</ele><time>2026-05-02T07:45:16.998Z</time></trkpt><trkpt lat="40.01050881309887" lon="8.41643332631313"><ele>9.0</ele><time>2026-05-02T07:45:17.998Z</time></trkpt><trkpt lat="40.01066143130491" lon="8.416578712069253"><ele>8.0</ele><time>2026-05-02T07:45:18.998Z</time></trkpt><trkpt lat="40.01081442093242" lon="8.416719356049756"><ele>7.0</ele><time>2026-05-02T07:45:19.998Z</time></trkpt><trkpt lat="40.010961617802316" lon="8.416863406363978"><ele>7.0</ele><time>2026-05-02T07:45:20.998Z</time></trkpt><trkpt lat="40.01110800647696" lon="8.417010328246358"><ele>7.0</ele><time>2026-05-02T07:45:21.998Z</time></trkpt><trkpt lat="40.011256981245324" lon="8.417152064119733"><ele>7.0</ele><time>2026-05-02T07:45:22.998Z</time></trkpt><trkpt lat="40.01140808247961" lon="8.417291018157632"><ele>6.666666666666667</ele><time>2026-05-02T07:45:23.998Z</time></trkpt><trkpt lat="40.01156104824742" lon="8.417428195959069"><ele>6.333333333333334</ele><time>2026-05-02T07:45:24.998Z</time></trkpt><trkpt lat="40.0117165636352" lon="8.417553815051317"><ele>6.0</ele><time>2026-05-02T07:45:25.998Z</time></trkpt><trkpt lat="40.01188340427228" lon="8.417662056131746"><ele>5.666666666666667</ele><time>2026-05-02T07:45:26.998Z</time></trkpt><trkpt lat="40.012060758598345" lon="8.417743707726258"><ele>5.333333333333334</ele><time>2026-05-02T07:45:27.998Z</time></trkpt><trkpt lat="40.0122437147397" lon="8.41780754027804"><ele>5.0</ele><time>2026-05-02T07:45:28.998Z</time></trkpt><trkpt lat="40.01242892779045" lon="8.41785604663729"><ele>5.0</ele><time>2026-05-02T07:45:29.998Z</time></trkpt><trkpt lat="40.01261571823991" lon="8.417892640408533"><ele>5.0</ele><time>2026-05-02T07:45:30.998Z</time></trkpt><trkpt lat="40.01280073450441" lon="8.417931830690797"><ele>5.0</ele><time>2026-05-02T07:45:31.998Z</time></trkpt><trkpt lat="40.012985353701815" lon="8.417979963390332"><ele>4.666666666666667</ele><time>2026-05-02T07:45:32.998Z</time></trkpt><trkpt lat="40.01316699336913" lon="8.418029781189595"><ele>4.333333333333333</ele><time>2026-05-02T07:45:33.998Z</time></trkpt><trkpt lat="40.0133499887303" lon="8.418078975463143"><ele>4.0</ele><time>2026-05-02T07:45:34.998Z</time></trkpt><trkpt lat="40.013533725512296" lon="8.418121998129783"><ele>3.6666666666666665</ele><time>2026-05-02T07:45:35.998Z</time></trkpt><trkpt lat="40.013717942697554" lon="8.418164030068237"><ele>3.333333333333333</ele><time>2026-05-02T07:45:36.998Z</time></trkpt><trkpt lat="40.013898717072394" lon="8.418213315941829"><ele>3.0</ele><time>2026-05-02T07:45:38Z</time></trkpt><trkpt lat="40.014080636129165" lon="8.418263895232245"><ele>3.0</ele><time>2026-05-02T07:45:39Z</time></trkpt><trkpt lat="40.01426276415906" lon="8.418300670780356"><ele>3.0</ele><time>2026-05-02T07:45:40Z</time></trkpt><trkpt lat="40.014447644569394" lon="8.41834107636686"><ele>3.0</ele><time>2026-05-02T07:45:41Z</time></trkpt><trkpt lat="40.01463423490697" lon="8.418382547712886"><ele>3.0</ele><time>2026-05-02T07:45:42Z</time></trkpt><trkpt lat="40.014821573391295" lon="8.418408176401732"><ele>3.0</ele><time>2026-05-02T07:45:43Z</time></trkpt><trkpt lat="40.01501181287841" lon="8.418401489751341"><ele>3.0</ele><time>2026-05-02T07:45:44Z</time></trkpt><trkpt lat="40.01519972413075" lon="8.418373481722401"><ele>3.0</ele><time>2026-05-02T07:45:45Z</time></trkpt><trkpt lat="40.01538835888418" lon="8.41834933910643"><ele>3.0</ele><time>2026-05-02T07:45:46Z</time></trkpt><trkpt lat="40.01557656085498" lon="8.418331385005471"><ele>3.0</ele><time>2026-05-02T07:45:47Z</time></trkpt><trkpt lat="40.01576453089963" lon="8.418308400760596"><ele>2.6666666666666665</ele><time>2026-05-02T07:45:48Z</time></trkpt><trkpt lat="40.01595174451927" lon="8.418285484361324"><ele>2.333333333333333</ele><time>2026-05-02T07:45:49Z</time></trkpt><trkpt lat="40.0161381788888" lon="8.41826465306191"><ele>2.0</ele><time>2026-05-02T07:45:50Z</time></trkpt><trkpt lat="40.016324909974095" lon="8.418246567969891"><ele>2.0</ele><time>2026-05-02T07:45:51Z</time></trkpt><trkpt lat="40.01651000184" lon="8.418228290873387"><ele>2.0</ele><time>2026-05-02T07:45:52Z</time></trkpt><trkpt lat="40.016694250873755" lon="8.418207378889148"><ele>2.0</ele><time>2026-05-02T07:45:53Z</time></trkpt><trkpt lat="40.0168787969694" lon="8.418183491027055"><ele>2.333333333333333</ele><time>2026-05-02T07:45:54Z</time></trkpt><trkpt lat="40.01706329321731" lon="8.41816405716649"><ele>2.6666666666666665</ele><time>2026-05-02T07:45:55Z</time></trkpt><trkpt lat="40.01724230398444" lon="8.418145930570972"><ele>3.0</ele><time>2026-05-02T07:45:56Z</time></trkpt><trkpt lat="40.01740726358933" lon="8.418128811722765"><ele>3.0</ele><time>2026-05-02T07:45:57Z</time></trkpt><trkpt lat="40.01755883343745" lon="8.418112520400674"><ele>3.0</ele><time>2026-05-02T07:45:58Z</time></trkpt><trkpt lat="40.01770218648194" lon="8.418099802667909"><ele>3.0</ele><time>2026-05-02T07:45:59Z</time></trkpt><trkpt lat="40.01783369953421" lon="8.418085486638175"><ele>3.0</ele><time>2026-05-02T07:46:00Z</time></trkpt><trkpt lat="40.017958444303694" lon="8.418068802095172"><ele>3.0</ele><time>2026-05-02T07:46:01Z</time></trkpt><trkpt lat="40.018075747630725" lon="8.418050789847277"><ele>3.0</ele><time>2026-05-02T07:46:01.999Z</time></trkpt><trkpt lat="40.0181838127983" lon="8.41803430892177"><ele>3.0</ele><time>2026-05-02T07:46:02.999Z</time></trkpt><trkpt lat="40.018280336198224" lon="8.418019916116533"><ele>3.0</ele><time>2026-05-02T07:46:03.999Z</time></trkpt><trkpt lat="40.01834833371909" lon="8.418017006194905"><ele>3.0</ele><time>2026-05-02T07:46:04.999Z</time></trkpt><trkpt lat="40.01841140425183" lon="8.41813351262107"><ele>3.0</ele><time>2026-05-02T07:46:06.999Z</time></trkpt><trkpt lat="40.01847254201147" lon="8.418219097817598"><ele>3.0</ele><time>2026-05-02T07:46:07.999Z</time></trkpt><trkpt lat="40.018521878974916" lon="8.418332837148311"><ele>3.0</ele><time>2026-05-02T07:46:08.999Z</time></trkpt><trkpt lat="40.01859486895169" lon="8.418417674869776"><ele>3.0</ele><time>2026-05-02T07:46:09.999Z</time></trkpt><trkpt lat="40.018641920858975" lon="8.41850914524057"><ele>3.0</ele><time>2026-05-02T07:46:10.999Z</time></trkpt><trkpt lat="40.01868436047189" lon="8.418581623988745"><ele>3.0</ele><time>2026-05-02T07:46:11.999Z</time></trkpt><trkpt lat="40.01874146371432" lon="8.418683121014194"><ele>3.0</ele><time>2026-05-02T07:46:13.999Z</time></trkpt><trkpt lat="40.01881312747841" lon="8.418800190977622"><ele>3.0</ele><time>2026-05-02T07:46:15.999Z</time></trkpt><trkpt lat="40.01888066614556" lon="8.418859284782117"><ele>3.0</ele><time>2026-05-02T07:46:16.999Z</time></trkpt><trkpt lat="40.01896269614682" lon="8.418883482855307"><ele>3.0</ele><time>2026-05-02T07:46:17.999Z</time></trkpt><trkpt lat="40.01904673298354" lon="8.41887279914166"><ele>3.0</ele><time>2026-05-02T07:46:18.999Z</time></trkpt><trkpt lat="40.01912111208286" lon="8.418905334960488"><ele>3.0</ele><time>2026-05-02T07:46:19.999Z</time></trkpt><trkpt lat="40.01919172728762" lon="8.418927732189887"><ele>3.2</ele><time>2026-05-02T07:46:20.999Z</time></trkpt><trkpt lat="40.01930003693273" lon="8.419021184606182"><ele>3.4</ele><time>2026-05-02T07:46:22.999Z</time></trkpt><trkpt lat="40.01934827705246" lon="8.41910765559664"><ele>3.6000000000000005</ele><time>2026-05-02T07:46:23.999Z</time></trkpt><trkpt lat="40.019393826947564" lon="8.419203911767609"><ele>3.8000000000000003</ele><time>2026-05-02T07:46:24.999Z</time></trkpt><trkpt lat="40.019456771658156" lon="8.419295843029312"><ele>4.0</ele><time>2026-05-02T07:46:25.999Z</time></trkpt><trkpt lat="40.01949954055214" lon="8.419410842649798"><ele>4.0</ele><time>2026-05-02T07:46:26.999Z</time></trkpt><trkpt lat="40.01955403864536" lon="8.419526124367872"><ele>4.0</ele><time>2026-05-02T07:46:27.999Z</time></trkpt><trkpt lat="40.01960229209035" lon="8.419631957332784"><ele>4.0</ele><time>2026-05-02T07:46:28.999Z</time></trkpt><trkpt lat="40.01963168351797" lon="8.419736927464497"><ele>4.0</ele><time>2026-05-02T07:46:29.999Z</time></trkpt><trkpt lat="40.01964354438026" lon="8.419862873157568"><ele>4.0</ele><time>2026-05-02T07:46:30.999Z</time></trkpt><trkpt lat="40.01964986239495" lon="8.420011422454404"><ele>4.0</ele><time>2026-05-02T07:46:31.999Z</time></trkpt><trkpt lat="40.01966352313952" lon="8.420154119687167"><ele>4.0</ele><time>2026-05-02T07:46:32.999Z</time></trkpt><trkpt lat="40.01968231144823" lon="8.420279315354668"><ele>4.0</ele><time>2026-05-02T07:46:33.999Z</time></trkpt><trkpt lat="40.01969394255776" lon="8.420396717026778"><ele>4.0</ele><time>2026-05-02T07:46:34.999Z</time></trkpt><trkpt lat="40.019712088719416" lon="8.420502326460372"><ele>4.0</ele><time>2026-05-02T07:46:35.999Z</time></trkpt><trkpt lat="40.019769122025366" lon="8.420608169882383"><ele>4.2</ele><time>2026-05-02T07:46:36.999Z</time></trkpt><trkpt lat="40.019841785020155" lon="8.420714766360831"><ele>4.4</ele><time>2026-05-02T07:46:37.999Z</time></trkpt><trkpt lat="40.01991336701486" lon="8.420812983185245"><ele>4.6</ele><time>2026-05-02T07:46:38.999Z</time></trkpt><trkpt lat="40.01997811750278" lon="8.420894445741196"><ele>4.8</ele><time>2026-05-02T07:46:39.999Z</time></trkpt><trkpt lat="40.020026624900986" lon="8.420976000842526"><ele>5.0</ele><time>2026-05-02T07:46:40.999Z</time></trkpt><trkpt lat="40.02005668974637" lon="8.421098857016924"><ele>5.0</ele><time>2026-05-02T07:46:42.999Z</time></trkpt><trkpt lat="40.0199876162805" lon="8.421146502255763"><ele>5.0</ele><time>2026-05-02T07:46:43.999Z</time></trkpt><trkpt lat="40.019954687879284" lon="8.421231423115291"><ele>5.0</ele><time>2026-05-02T07:46:44.999Z</time></trkpt><trkpt lat="40.019931467155686" lon="8.421342655249205"><ele>5.0</ele><time>2026-05-02T07:46:45.999Z</time></trkpt><trkpt lat="40.0199017695825" lon="8.421462851454205"><ele>5.0</ele><time>2026-05-02T07:46:46.999Z</time></trkpt><trkpt lat="40.01989898870364" lon="8.421594755834262"><ele>5.0</ele><time>2026-05-02T07:46:47.999Z</time></trkpt><trkpt lat="40.019914075314986" lon="8.4217267028503"><ele>5.25</ele><time>2026-05-02T07:46:48.999Z</time></trkpt><trkpt lat="40.01994204160151" lon="8.421862577601177"><ele>5.5</ele><time>2026-05-02T07:46:49.999Z</time></trkpt><trkpt lat="40.0199862479383" lon="8.42199571400299"><ele>5.75</ele><time>2026-05-02T07:46:50.999Z</time></trkpt><trkpt lat="40.02004608505099" lon="8.42212292007115"><ele>6.0</ele><time>2026-05-02T07:46:51.999Z</time></trkpt><trkpt lat="40.02012036171462" lon="8.422258722711666"><ele>6.0</ele><time>2026-05-02T07:46:52.999Z</time></trkpt><trkpt lat="40.02017979111028" lon="8.422410563821298"><ele>6.0</ele><time>2026-05-02T07:46:53.999Z</time></trkpt><trkpt lat="40.02023762302554" lon="8.42255396115206"><ele>6.0</ele><time>2026-05-02T07:46:54.999Z</time></trkpt><trkpt lat="40.02029942394928" lon="8.422704416802683"><ele>6.0</ele><time>2026-05-02T07:46:55.999Z</time></trkpt><trkpt lat="40.02033774389904" lon="8.422886821341141"><ele>6.666666666666666</ele><time>2026-05-02T07:46:56.999Z</time></trkpt><trkpt lat="40.02037580925091" lon="8.42307761775275"><ele>7.333333333333333</ele><time>2026-05-02T07:46:57.999Z</time></trkpt><trkpt lat="40.0204068403903" lon="8.423277008012812"><ele>8.0</ele><time>2026-05-02T07:46:58.999Z</time></trkpt><trkpt lat="40.0204327433035" lon="8.423493733354666"><ele>8.0</ele><time>2026-05-02T07:46:59.999Z</time></trkpt><trkpt lat="40.020450747306285" lon="8.423715760896574"><ele>8.0</ele><time>2026-05-02T07:47:00.999Z</time></trkpt><trkpt lat="40.02046180560364" lon="8.423917536739584"><ele>8.0</ele><time>2026-05-02T07:47:01.999Z</time></trkpt><trkpt lat="40.02047089437542" lon="8.424095764817968"><ele>8.25</ele><time>2026-05-02T07:47:02.999Z</time></trkpt><trkpt lat="40.02048459312528" lon="8.424260732288236"><ele>8.5</ele><time>2026-05-02T07:47:03.999Z</time></trkpt><trkpt lat="40.02048115219431" lon="8.424413268073213"><ele>8.75</ele><time>2026-05-02T07:47:04.998Z</time></trkpt><trkpt lat="40.0204855750566" lon="8.4245526530172"><ele>9.0</ele><time>2026-05-02T07:47:05.998Z</time></trkpt><trkpt lat="40.02048607498072" lon="8.424692505764973"><ele>9.0</ele><time>2026-05-02T07:47:06.998Z</time></trkpt><trkpt lat="40.020490473308236" lon="8.424847408551669"><ele>9.0</ele><time>2026-05-02T07:47:07.998Z</time></trkpt><trkpt lat="40.02045868199097" lon="8.425020999580429"><ele>9.0</ele><time>2026-05-02T07:47:08.998Z</time></trkpt><trkpt lat="40.02043449656117" lon="8.425208722341017"><ele>9.0</ele><time>2026-05-02T07:47:09.998Z</time></trkpt><trkpt lat="40.020412546729084" lon="8.425409454366186"><ele>9.333333333333334</ele><time>2026-05-02T07:47:10.998Z</time></trkpt><trkpt lat="40.02038669233802" lon="8.42561975216306"><ele>9.666666666666668</ele><time>2026-05-02T07:47:11.998Z</time></trkpt><trkpt lat="40.02035105944199" lon="8.425830100514686"><ele>10.0</ele><time>2026-05-02T07:47:12.998Z</time></trkpt><trkpt lat="40.020308992772115" lon="8.426036877932418"><ele>10.0</ele><time>2026-05-02T07:47:13.998Z</time></trkpt><trkpt lat="40.02026294259097" lon="8.426233196886166"><ele>10.0</ele><time>2026-05-02T07:47:14.998Z</time></trkpt><trkpt lat="40.020222626544495" lon="8.426445209509339"><ele>10.0</ele><time>2026-05-02T07:47:15.998Z</time></trkpt><trkpt lat="40.020187663064775" lon="8.426661721712346"><ele>10.0</ele><time>2026-05-02T07:47:16.998Z</time></trkpt><trkpt lat="40.02015587859065" lon="8.426858906478355"><ele>10.0</ele><time>2026-05-02T07:47:17.998Z</time></trkpt><trkpt lat="40.0201248906209" lon="8.42703573269535"><ele>10.0</ele><time>2026-05-02T07:47:18.998Z</time></trkpt><trkpt lat="40.02009947556112" lon="8.427198900534663"><ele>10.0</ele><time>2026-05-02T07:47:19.998Z</time></trkpt><trkpt lat="40.02007482343655" lon="8.427321292905956"><ele>9.75</ele><time>2026-05-02T07:47:20.998Z</time></trkpt><trkpt lat="40.020042866895466" lon="8.427401741094066"><ele>9.5</ele><time>2026-05-02T07:47:21.998Z</time></trkpt><trkpt lat="40.02008800097783" lon="8.427599427818489"><ele>9.25</ele><time>2026-05-02T07:47:23.998Z</time></trkpt><trkpt lat="40.02014284690095" lon="8.427733882510068"><ele>9.0</ele><time>2026-05-02T07:47:24.998Z</time></trkpt><trkpt lat="40.02020905306591" lon="8.427877374978165"><ele>8.5</ele><time>2026-05-02T07:47:25.998Z</time></trkpt><trkpt lat="40.020283636017666" lon="8.42801998383991"><ele>8.0</ele><time>2026-05-02T07:47:26.998Z</time></trkpt><trkpt lat="40.020363604401034" lon="8.42816023514461"><ele>7.5</ele><time>2026-05-02T07:47:27.998Z</time></trkpt><trkpt lat="40.02044954122584" lon="8.428295070488854"><ele>7.0</ele><time>2026-05-02T07:47:28.998Z</time></trkpt><trkpt lat="40.02053884746199" lon="8.42843118039639"><ele>7.0</ele><time>2026-05-02T07:47:29.998Z</time></trkpt><trkpt lat="40.02062770525362" lon="8.428551484494006"><ele>7.0</ele><time>2026-05-02T07:47:30.998Z</time></trkpt><trkpt lat="40.02067948189201" lon="8.428673136628682"><ele>7.0</ele><time>2026-05-02T07:47:31.998Z</time></trkpt><trkpt lat="40.020727397839146" lon="8.428757925751043"><ele>7.0</ele><time>2026-05-02T07:47:32.998Z</time></trkpt><trkpt lat="40.02079486193928" lon="8.428918499539005"><ele>7.199999999999999</ele><time>2026-05-02T07:47:34.998Z</time></trkpt><trkpt lat="40.02081659133818" lon="8.42904745667342"><ele>7.3999999999999995</ele><time>2026-05-02T07:47:35.998Z</time></trkpt><trkpt lat="40.0208263119468" lon="8.429185652571071"><ele>7.6000000000000005</ele><time>2026-05-02T07:47:36.998Z</time></trkpt><trkpt lat="40.020852454676934" lon="8.429331329792161"><ele>7.800000000000001</ele><time>2026-05-02T07:47:37.998Z</time></trkpt><trkpt lat="40.020893527692515" lon="8.429481505854755"><ele>8.0</ele><time>2026-05-02T07:47:38.998Z</time></trkpt><trkpt lat="40.02091226270274" lon="8.429629366751067"><ele>7.75</ele><time>2026-05-02T07:47:39.998Z</time></trkpt><trkpt lat="40.02093668683875" lon="8.429761654684707"><ele>7.5</ele><time>2026-05-02T07:47:40.998Z</time></trkpt><trkpt lat="40.02098814532029" lon="8.429890406444127"><ele>7.25</ele><time>2026-05-02T07:47:41.998Z</time></trkpt><trkpt lat="40.02105058268148" lon="8.430037023842695"><ele>7.0</ele><time>2026-05-02T07:47:42.998Z</time></trkpt><trkpt lat="40.02111464230467" lon="8.430186813487923"><ele>7.0</ele><time>2026-05-02T07:47:44Z</time></trkpt><trkpt lat="40.02117897068269" lon="8.430325801125429"><ele>6.999999999999999</ele><time>2026-05-02T07:47:45Z</time></trkpt><trkpt lat="40.02123247180204" lon="8.430446154588315"><ele>6.999999999999999</ele><time>2026-05-02T07:47:46Z</time></trkpt><trkpt lat="40.02127450909246" lon="8.430567988324052"><ele>7.0</ele><time>2026-05-02T07:47:47Z</time></trkpt><trkpt lat="40.021315339431894" lon="8.430709849507295"><ele>7.0</ele><time>2026-05-02T07:47:48Z</time></trkpt><trkpt lat="40.02135648974768" lon="8.430857716255755"><ele>6.75</ele><time>2026-05-02T07:47:49Z</time></trkpt><trkpt lat="40.02139987331948" lon="8.4310119778765"><ele>6.5</ele><time>2026-05-02T07:47:50Z</time></trkpt><trkpt lat="40.02146112704374" lon="8.431167172302663"><ele>6.25</ele><time>2026-05-02T07:47:51Z</time></trkpt><trkpt lat="40.021525332597975" lon="8.431318640389271"><ele>6.0</ele><time>2026-05-02T07:47:52Z</time></trkpt><trkpt lat="40.021585066163134" lon="8.431459757505657"><ele>5.75</ele><time>2026-05-02T07:47:53Z</time></trkpt><trkpt lat="40.02164224636392" lon="8.431591861894725"><ele>5.5</ele><time>2026-05-02T07:47:54Z</time></trkpt><trkpt lat="40.021697333965044" lon="8.43173763941382"><ele>5.25</ele><time>2026-05-02T07:47:55Z</time></trkpt><trkpt lat="40.02175932184622" lon="8.431888532570909"><ele>5.0</ele><time>2026-05-02T07:47:56Z</time></trkpt><trkpt lat="40.02182935696595" lon="8.432044654651827"><ele>4.5</ele><time>2026-05-02T07:47:57Z</time></trkpt><trkpt lat="40.02189872211242" lon="8.432190396418765"><ele>4.0</ele><time>2026-05-02T07:47:58Z</time></trkpt><trkpt lat="40.021967298881634" lon="8.432316208062424"><ele>3.5</ele><time>2026-05-02T07:47:59Z</time></trkpt><trkpt lat="40.02204137216428" lon="8.432446179752185"><ele>3.0</ele><time>2026-05-02T07:48:00Z</time></trkpt><trkpt lat="40.02210558417549" lon="8.432594864478434"><ele>3.0</ele><time>2026-05-02T07:48:01Z</time></trkpt><trkpt lat="40.022196503343764" lon="8.432715184639697"><ele>3.0</ele><time>2026-05-02T07:48:02Z</time></trkpt><trkpt lat="40.02228923703245" lon="8.432837956810578"><ele>3.0</ele><time>2026-05-02T07:48:03Z</time></trkpt><trkpt lat="40.02238068314695" lon="8.432939721607985"><ele>3.0</ele><time>2026-05-02T07:48:04Z</time></trkpt><trkpt lat="40.02245343846608" lon="8.433050364555891"><ele>2.5</ele><time>2026-05-02T07:48:04.999Z</time></trkpt><trkpt lat="40.02251947054201" lon="8.433157057072629"><ele>2.0</ele><time>2026-05-02T07:48:05.999Z</time></trkpt><trkpt lat="40.022588537770496" lon="8.433279703747138"><ele>1.5</ele><time>2026-05-02T07:48:06.999Z</time></trkpt><trkpt lat="40.022665014354814" lon="8.433402162965775"><ele>1.0</ele><time>2026-05-02T07:48:07.999Z</time></trkpt><trkpt lat="40.02274335394534" lon="8.433523895819643"><ele>1.0</ele><time>2026-05-02T07:48:08.999Z</time></trkpt><trkpt lat="40.02281981089135" lon="8.43364173804073"><ele>1.0</ele><time>2026-05-02T07:48:09.999Z</time></trkpt><trkpt lat="40.02290273317369" lon="8.433766311913535"><ele>1.0</ele><time>2026-05-02T07:48:10.999Z</time></trkpt><trkpt lat="40.02299597185246" lon="8.433901610668071"><ele>1.0</ele><time>2026-05-02T07:48:11.999Z</time></trkpt><trkpt lat="40.02308516760947" lon="8.4340233288882"><ele>1.0</ele><time>2026-05-02T07:48:12.999Z</time></trkpt><trkpt lat="40.023172412839976" lon="8.43413373103382"><ele>1.0</ele><time>2026-05-02T07:48:13.999Z</time></trkpt><trkpt lat="40.02326735661221" lon="8.434244815020387"><ele>1.0</ele><time>2026-05-02T07:48:14.999Z</time></trkpt><trkpt lat="40.02337550277161" lon="8.4343496945356"><ele>1.0</ele><time>2026-05-02T07:48:15.999Z</time></trkpt><trkpt lat="40.02349684474029" lon="8.434424221829044"><ele>1.0</ele><time>2026-05-02T07:48:16.999Z</time></trkpt><trkpt lat="40.02360693847825" lon="8.434533654302633"><ele>1.0</ele><time>2026-05-02T07:48:17.999Z</time></trkpt><trkpt lat="40.023701358583196" lon="8.434634335939988"><ele>1.0</ele><time>2026-05-02T07:48:18.999Z</time></trkpt><trkpt lat="40.02379465672" lon="8.434763787702645"><ele>1.0</ele><time>2026-05-02T07:48:19.999Z</time></trkpt><trkpt lat="40.02390111700926" lon="8.434880556356653"><ele>1.0</ele><time>2026-05-02T07:48:20.999Z</time></trkpt><trkpt lat="40.024004497899696" lon="8.434990938577423"><ele>1.0</ele><time>2026-05-02T07:48:21.999Z</time></trkpt><trkpt lat="40.02410078620412" lon="8.435083528578286"><ele>1.0</ele><time>2026-05-02T07:48:22.999Z</time></trkpt><trkpt lat="40.02420309826385" lon="8.435135003860223"><ele>1.0</ele><time>2026-05-02T07:48:23.999Z</time></trkpt><trkpt lat="40.02428324294021" lon="8.435196322450654"><ele>0.8333333333333333</ele><time>2026-05-02T07:48:24.999Z</time></trkpt><trkpt lat="40.02434322256301" lon="8.43523921092307"><ele>0.6666666666666666</ele><time>2026-05-02T07:48:25.999Z</time></trkpt><trkpt lat="40.024422078886374" lon="8.435326357106417"><ele>0.5</ele><time>2026-05-02T07:48:27.999Z</time></trkpt><trkpt lat="40.02443627862436" lon="8.435413999247569"><ele>0.3333333333333333</ele><time>2026-05-02T07:48:28.999Z</time></trkpt><trkpt lat="40.024486274871684" lon="8.43548604079753"><ele>0.16666666666666666</ele><time>2026-05-02T07:48:29.999Z</time></trkpt><trkpt lat="40.02454519355417" lon="8.435560376233457"><ele>0.0</ele><time>2026-05-02T07:48:31.999Z</time></trkpt><trkpt lat="40.02461601914028" lon="8.435634485840625"><ele>0.0</ele><time>2026-05-02T07:48:33.999Z</time></trkpt><trkpt lat="40.0247050606008" lon="8.435725995383555"><ele>0.0</ele><time>2026-05-02T07:48:35.999Z</time></trkpt><trkpt lat="40.02476751748481" lon="8.43579866448618"><ele>0.0</ele><time>2026-05-02T07:48:36.999Z</time></trkpt><trkpt lat="40.02482825317679" lon="8.435904482594355"><ele>0.0</ele><time>2026-05-02T07:48:37.999Z</time></trkpt><trkpt lat="40.024898713780296" lon="8.43601367594629"><ele>0.0</ele><time>2026-05-02T07:48:38.999Z</time></trkpt><trkpt lat="40.024979045466466" lon="8.436128787684543"><ele>0.0</ele><time>2026-05-02T07:48:39.999Z</time></trkpt><trkpt lat="40.02504881549759" lon="8.436208083112327"><ele>0.0</ele><time>2026-05-02T07:48:40.999Z</time></trkpt><trkpt lat="40.02510097139433" lon="8.436309191841023"><ele>0.0</ele><time>2026-05-02T07:48:41.999Z</time></trkpt><trkpt lat="40.025170324451736" lon="8.436360614432875"><ele>0.0</ele><time>2026-05-02T07:48:42.999Z</time></trkpt><trkpt lat="40.02533677489791" lon="8.436507069473766"><ele>0.2</ele><time>2026-05-02T07:48:44.999Z</time></trkpt><trkpt lat="40.02534424356238" lon="8.436607674989464"><ele>0.4</ele><time>2026-05-02T07:48:46.999Z</time></trkpt><trkpt lat="40.02542650862414" lon="8.436471110082545"><ele>0.6000000000000001</ele><time>2026-05-02T07:48:50.999Z</time></trkpt><trkpt lat="40.02533501226037" lon="8.436429098884693"><ele>0.8</ele><time>2026-05-02T07:48:53.999Z</time></trkpt><trkpt lat="40.02539669909643" lon="8.436487692896355"><ele>1.0</ele><time>2026-05-02T07:48:55.999Z</time></trkpt><trkpt lat="40.02539370809918" lon="8.436592563095413"><ele>1.0</ele><time>2026-05-02T07:48:56.999Z</time></trkpt><trkpt lat="40.0254115949251" lon="8.436690390847168"><ele>1.0</ele><time>2026-05-02T07:48:57.999Z</time></trkpt><trkpt lat="40.025420729070866" lon="8.436839413227297"><ele>1.0</ele><time>2026-05-02T07:48:58.999Z</time></trkpt><trkpt lat="40.02541303135056" lon="8.437015875380336"><ele>1.0</ele><time>2026-05-02T07:48:59.999Z</time></trkpt><trkpt lat="40.025401302834005" lon="8.437203262022368"><ele>0.6666666666666666</ele><time>2026-05-02T07:49:00.999Z</time></trkpt><trkpt lat="40.02538681255324" lon="8.437408499136428"><ele>0.3333333333333333</ele><time>2026-05-02T07:49:01.999Z</time></trkpt><trkpt lat="40.025366224370586" lon="8.437623744822005"><ele>0.0</ele><time>2026-05-02T07:49:02.999Z</time></trkpt><trkpt lat="40.02534051401021" lon="8.43784562714932"><ele>0.3333333333333333</ele><time>2026-05-02T07:49:03.999Z</time></trkpt><trkpt lat="40.02531568152096" lon="8.438078055079894"><ele>0.6666666666666666</ele><time>2026-05-02T07:49:04.999Z</time></trkpt><trkpt lat="40.02529216560976" lon="8.438310419562104"><ele>1.0</ele><time>2026-05-02T07:49:05.999Z</time></trkpt><trkpt lat="40.025268701101695" lon="8.438546285209991"><ele>1.0</ele><time>2026-05-02T07:49:06.998Z</time></trkpt><trkpt lat="40.025238557270676" lon="8.438791698777148"><ele>1.0</ele><time>2026-05-02T07:49:07.998Z</time></trkpt><trkpt lat="40.02521213139758" lon="8.439039086070645"><ele>1.0</ele><time>2026-05-02T07:49:08.998Z</time></trkpt><trkpt lat="40.02518664656236" lon="8.439289609046327"><ele>1.0</ele><time>2026-05-02T07:49:09.998Z</time></trkpt><trkpt lat="40.02515818743903" lon="8.439536513138243"><ele>1.0</ele><time>2026-05-02T07:49:10.998Z</time></trkpt><trkpt lat="40.02511694729968" lon="8.439780675130233"><ele>1.0</ele><time>2026-05-02T07:49:11.998Z</time></trkpt><trkpt lat="40.02506020805785" lon="8.440017691794251"><ele>2.0</ele><time>2026-05-02T07:49:12.998Z</time></trkpt><trkpt lat="40.024995161500094" lon="8.440248816743749"><ele>3.0</ele><time>2026-05-02T07:49:13.998Z</time></trkpt><trkpt lat="40.024925408917106" lon="8.440477038927083"><ele>4.0</ele><time>2026-05-02T07:49:14.998Z</time></trkpt><trkpt lat="40.02486003686923" lon="8.440707880052809"><ele>4.333333333333333</ele><time>2026-05-02T07:49:15.998Z</time></trkpt><trkpt lat="40.024799532507366" lon="8.440937551450892"><ele>4.666666666666667</ele><time>2026-05-02T07:49:16.998Z</time></trkpt><trkpt lat="40.024740265092646" lon="8.441168161282839"><ele>5.0</ele><time>2026-05-02T07:49:17.998Z</time></trkpt><trkpt lat="40.02467783635051" lon="8.441397290794683"><ele>4.333333333333334</ele><time>2026-05-02T07:49:18.998Z</time></trkpt><trkpt lat="40.02461672843521" lon="8.44162695592525"><ele>3.666666666666667</ele><time>2026-05-02T07:49:19.998Z</time></trkpt><trkpt lat="40.024557209702905" lon="8.441855694539633"><ele>3.0</ele><time>2026-05-02T07:49:20.998Z</time></trkpt><trkpt lat="40.024496097323734" lon="8.442084969087263"><ele>2.6666666666666665</ele><time>2026-05-02T07:49:21.998Z</time></trkpt><trkpt lat="40.02443674393165" lon="8.442312111063517"><ele>2.333333333333333</ele><time>2026-05-02T07:49:22.998Z</time></trkpt><trkpt lat="40.02437518764986" lon="8.442537726565293"><ele>2.0</ele><time>2026-05-02T07:49:23.998Z</time></trkpt><trkpt lat="40.02431287899666" lon="8.44276220033261"><ele>2.0</ele><time>2026-05-02T07:49:24.998Z</time></trkpt><trkpt lat="40.024251520752586" lon="8.442989310044016"><ele>2.0</ele><time>2026-05-02T07:49:25.998Z</time></trkpt><trkpt lat="40.02419180896776" lon="8.443218755077417"><ele>2.0</ele><time>2026-05-02T07:49:26.998Z</time></trkpt><trkpt lat="40.02413352697371" lon="8.443447669348188"><ele>2.0</ele><time>2026-05-02T07:49:27.998Z</time></trkpt><trkpt lat="40.024075075010735" lon="8.443677042291206"><ele>2.0</ele><time>2026-05-02T07:49:28.998Z</time></trkpt><trkpt lat="40.024015226445776" lon="8.443905855454071"><ele>2.0</ele><time>2026-05-02T07:49:29.998Z</time></trkpt><trkpt lat="40.02395383105641" lon="8.444135044255287"><ele>2.6666666666666665</ele><time>2026-05-02T07:49:30.998Z</time></trkpt><trkpt lat="40.023891887630995" lon="8.444364755530774"><ele>3.333333333333333</ele><time>2026-05-02T07:49:31.998Z</time></trkpt><trkpt lat="40.02383057239068" lon="8.444594535025848"><ele>4.0</ele><time>2026-05-02T07:49:32.998Z</time></trkpt><trkpt lat="40.02376929272901" lon="8.444823676660903"><ele>4.333333333333333</ele><time>2026-05-02T07:49:33.998Z</time></trkpt><trkpt lat="40.02370586569821" lon="8.44505212021754"><ele>4.666666666666667</ele><time>2026-05-02T07:49:34.998Z</time></trkpt><trkpt lat="40.02364281134598" lon="8.445283630929097"><ele>5.0</ele><time>2026-05-02T07:49:35.998Z</time></trkpt><trkpt lat="40.023582100269536" lon="8.44551408738666"><ele>5.0</ele><time>2026-05-02T07:49:36.998Z</time></trkpt><trkpt lat="40.02352005231183" lon="8.445744512081836"><ele>5.0</ele><time>2026-05-02T07:49:37.998Z</time></trkpt><trkpt lat="40.02346089773657" lon="8.44597382984672"><ele>5.0</ele><time>2026-05-02T07:49:38.998Z</time></trkpt><trkpt lat="40.02339799168597" lon="8.446205625398939"><ele>5.0</ele><time>2026-05-02T07:49:39.998Z</time></trkpt><trkpt lat="40.02333776745725" lon="8.446437430027169"><ele>5.0</ele><time>2026-05-02T07:49:40.998Z</time></trkpt><trkpt lat="40.02327688666837" lon="8.446670496356731"><ele>5.0</ele><time>2026-05-02T07:49:41.998Z</time></trkpt><trkpt lat="40.02321518038961" lon="8.446902188191816"><ele>5.0</ele><time>2026-05-02T07:49:42.998Z</time></trkpt><trkpt lat="40.02315411138174" lon="8.447134526911917"><ele>5.0</ele><time>2026-05-02T07:49:43.998Z</time></trkpt><trkpt lat="40.02309217789168" lon="8.447367674258064"><ele>5.0</ele><time>2026-05-02T07:49:44.998Z</time></trkpt><trkpt lat="40.02302979141838" lon="8.447600972361153"><ele>5.0</ele><time>2026-05-02T07:49:45.998Z</time></trkpt><trkpt lat="40.02296723856085" lon="8.44783545635169"><ele>5.0</ele><time>2026-05-02T07:49:46.998Z</time></trkpt><trkpt lat="40.022905424111144" lon="8.44806947215626"><ele>5.0</ele><time>2026-05-02T07:49:47.998Z</time></trkpt><trkpt lat="40.022844003531524" lon="8.44830413767752"><ele>5.0</ele><time>2026-05-02T07:49:48.998Z</time></trkpt><trkpt lat="40.02278062700333" lon="8.448539774972646"><ele>5.0</ele><time>2026-05-02T07:49:50Z</time></trkpt><trkpt lat="40.02272240577436" lon="8.448775045410404"><ele>5.0</ele><time>2026-05-02T07:49:51Z</time></trkpt><trkpt lat="40.022667077134145" lon="8.449006927082362"><ele>5.333333333333334</ele><time>2026-05-02T07:49:52Z</time></trkpt><trkpt lat="40.02260529529431" lon="8.449235103404355"><ele>5.666666666666667</ele><time>2026-05-02T07:49:53Z</time></trkpt><trkpt lat="40.02254394979383" lon="8.449461988430038"><ele>6.0</ele><time>2026-05-02T07:49:54Z</time></trkpt><trkpt lat="40.022482993797304" lon="8.449690228937373"><ele>6.333333333333334</ele><time>2026-05-02T07:49:55Z</time></trkpt><trkpt lat="40.02242365003109" lon="8.449915296633485"><ele>6.666666666666667</ele><time>2026-05-02T07:49:56Z</time></trkpt><trkpt lat="40.02236264410819" lon="8.450138203619332"><ele>7.0</ele><time>2026-05-02T07:49:57Z</time></trkpt><trkpt lat="40.02230330650367" lon="8.450365939657848"><ele>6.666666666666667</ele><time>2026-05-02T07:49:58Z</time></trkpt><trkpt lat="40.022245929567696" lon="8.450593573508755"><ele>6.333333333333334</ele><time>2026-05-02T07:49:59Z</time></trkpt><trkpt lat="40.022189686037464" lon="8.450827433602813"><ele>6.0</ele><time>2026-05-02T07:50:00Z</time></trkpt><trkpt lat="40.02211225579719" lon="8.451053953036732"><ele>6.0</ele><time>2026-05-02T07:50:01Z</time></trkpt><trkpt lat="40.02206300356927" lon="8.451295706165935"><ele>6.0</ele><time>2026-05-02T07:50:02Z</time></trkpt><trkpt lat="40.02199862214347" lon="8.451533278809164"><ele>6.0</ele><time>2026-05-02T07:50:03Z</time></trkpt><trkpt lat="40.02191927490587" lon="8.451766758625807"><ele>6.0</ele><time>2026-05-02T07:50:04Z</time></trkpt><trkpt lat="40.0218540954801" lon="8.45200750917375"><ele>6.0</ele><time>2026-05-02T07:50:05Z</time></trkpt><trkpt lat="40.0218027839217" lon="8.452255675501842"><ele>6.0</ele><time>2026-05-02T07:50:06Z</time></trkpt><trkpt lat="40.021735797382966" lon="8.452493758166005"><ele>6.333333333333334</ele><time>2026-05-02T07:50:07Z</time></trkpt><trkpt lat="40.02167167066943" lon="8.45273368171625"><ele>6.666666666666667</ele><time>2026-05-02T07:50:08Z</time></trkpt><trkpt lat="40.021616797841595" lon="8.452976638379694"><ele>7.0</ele><time>2026-05-02T07:50:08.999Z</time></trkpt><trkpt lat="40.02157398645973" lon="8.453222522580267"><ele>7.0</ele><time>2026-05-02T07:50:09.999Z</time></trkpt><trkpt lat="40.0215379552376" lon="8.453469642502787"><ele>7.0</ele><time>2026-05-02T07:50:10.999Z</time></trkpt><trkpt lat="40.02150303530183" lon="8.453715046214946"><ele>7.0</ele><time>2026-05-02T07:50:11.999Z</time></trkpt><trkpt lat="40.021473019213374" lon="8.45396133153026"><ele>6.666666666666667</ele><time>2026-05-02T07:50:12.999Z</time></trkpt><trkpt lat="40.0214505636297" lon="8.454209246207471"><ele>6.333333333333334</ele><time>2026-05-02T07:50:13.999Z</time></trkpt><trkpt lat="40.02143360864661" lon="8.454456436492949"><ele>6.0</ele><time>2026-05-02T07:50:14.999Z</time></trkpt><trkpt lat="40.02142597225432" lon="8.454705365718391"><ele>6.0</ele><time>2026-05-02T07:50:15.999Z</time></trkpt><trkpt lat="40.02142462420874" lon="8.454956821573465"><ele>6.0</ele><time>2026-05-02T07:50:16.999Z</time></trkpt><trkpt lat="40.02142902702394" lon="8.45520777493223"><ele>6.0</ele><time>2026-05-02T07:50:17.999Z</time></trkpt><trkpt lat="40.02143357864376" lon="8.455459299032452"><ele>6.0</ele><time>2026-05-02T07:50:18.999Z</time></trkpt><trkpt lat="40.02144214524659" lon="8.455709680750925"><ele>6.0</ele><time>2026-05-02T07:50:19.999Z</time></trkpt><trkpt lat="40.02144908836245" lon="8.45596054948754"><ele>6.0</ele><time>2026-05-02T07:50:20.999Z</time></trkpt><trkpt lat="40.02145380252974" lon="8.456210706640388"><ele>6.0</ele><time>2026-05-02T07:50:21.999Z</time></trkpt><trkpt lat="40.02145859465751" lon="8.456460422840118"><ele>6.0</ele><time>2026-05-02T07:50:22.999Z</time></trkpt><trkpt lat="40.0214652574705" lon="8.45671269830947"><ele>6.0</ele><time>2026-05-02T07:50:23.999Z</time></trkpt><trkpt lat="40.021472396006274" lon="8.456965145917712"><ele>6.333333333333334</ele><time>2026-05-02T07:50:24.999Z</time></trkpt><trkpt lat="40.02148094920137" lon="8.457218495149954"><ele>6.666666666666667</ele><time>2026-05-02T07:50:25.999Z</time></trkpt><trkpt lat="40.02148986180073" lon="8.457471472803315"><ele>7.0</ele><time>2026-05-02T07:50:26.999Z</time></trkpt><trkpt lat="40.02149614856282" lon="8.45772768088144"><ele>6.666666666666667</ele><time>2026-05-02T07:50:27.999Z</time></trkpt><trkpt lat="40.02150307735344" lon="8.457983821667366"><ele>6.333333333333334</ele><time>2026-05-02T07:50:28.999Z</time></trkpt><trkpt lat="40.02151058432345" lon="8.458240391504438"><ele>6.0</ele><time>2026-05-02T07:50:29.999Z</time></trkpt><trkpt lat="40.02152073384054" lon="8.458493865593363"><ele>6.0</ele><time>2026-05-02T07:50:30.999Z</time></trkpt><trkpt lat="40.021526628072074" lon="8.458749079204763"><ele>6.0</ele><time>2026-05-02T07:50:31.999Z</time></trkpt><trkpt lat="40.021531150434285" lon="8.459004167799629"><ele>6.0</ele><time>2026-05-02T07:50:32.999Z</time></trkpt><trkpt lat="40.02153640459197" lon="8.459258320656861"><ele>6.333333333333334</ele><time>2026-05-02T07:50:33.999Z</time></trkpt><trkpt lat="40.021542874424874" lon="8.459512777611911"><ele>6.666666666666667</ele><time>2026-05-02T07:50:34.999Z</time></trkpt><trkpt lat="40.021549482581406" lon="8.459769249926463"><ele>7.0</ele><time>2026-05-02T07:50:35.999Z</time></trkpt><trkpt lat="40.02155575166137" lon="8.460021827341176"><ele>7.0</ele><time>2026-05-02T07:50:36.999Z</time></trkpt><trkpt lat="40.02156173211841" lon="8.460276881803132"><ele>7.0</ele><time>2026-05-02T07:50:37.999Z</time></trkpt><trkpt lat="40.02157637103626" lon="8.460532803012049"><ele>7.0</ele><time>2026-05-02T07:50:38.999Z</time></trkpt><trkpt lat="40.02160308453508" lon="8.460784060476882"><ele>6.333333333333334</ele><time>2026-05-02T07:50:39.999Z</time></trkpt><trkpt lat="40.021643414105" lon="8.461035412056338"><ele>5.666666666666667</ele><time>2026-05-02T07:50:40.999Z</time></trkpt><trkpt lat="40.02169481593923" lon="8.46128440581882"><ele>5.0</ele><time>2026-05-02T07:50:41.999Z</time></trkpt><trkpt lat="40.021748533349836" lon="8.461535106320028"><ele>5.0</ele><time>2026-05-02T07:50:42.999Z</time></trkpt><trkpt lat="40.021798555211156" lon="8.461785044233437"><ele>5.0</ele><time>2026-05-02T07:50:43.999Z</time></trkpt><trkpt lat="40.02184747568587" lon="8.462035092168986"><ele>5.0</ele><time>2026-05-02T07:50:44.999Z</time></trkpt><trkpt lat="40.021899105771666" lon="8.46228573551604"><ele>5.0</ele><time>2026-05-02T07:50:45.999Z</time></trkpt><trkpt lat="40.02194698773754" lon="8.462537828989623"><ele>5.0</ele><time>2026-05-02T07:50:46.999Z</time></trkpt><trkpt lat="40.02198627579559" lon="8.462792698653042"><ele>5.0</ele><time>2026-05-02T07:50:47.999Z</time></trkpt><trkpt lat="40.02200766168182" lon="8.463048099548049"><ele>5.0</ele><time>2026-05-02T07:50:48.999Z</time></trkpt><trkpt lat="40.022014827635466" lon="8.463308889225114"><ele>5.0</ele><time>2026-05-02T07:50:49.999Z</time></trkpt><trkpt lat="40.02201912788756" lon="8.463568665581798"><ele>5.0</ele><time>2026-05-02T07:50:50.999Z</time></trkpt><trkpt lat="40.02202683091041" lon="8.463825609159535"><ele>5.333333333333334</ele><time>2026-05-02T07:50:51.999Z</time></trkpt><trkpt lat="40.02203599723464" lon="8.464086890508261"><ele>5.666666666666667</ele><time>2026-05-02T07:50:52.999Z</time></trkpt><trkpt lat="40.02204297876515" lon="8.464346797073846"><ele>6.0</ele><time>2026-05-02T07:50:53.999Z</time></trkpt><trkpt lat="40.022049882798086" lon="8.464605547652448"><ele>5.333333333333333</ele><time>2026-05-02T07:50:54.999Z</time></trkpt><trkpt lat="40.022059083327086" lon="8.464864689369614"><ele>4.666666666666666</ele><time>2026-05-02T07:50:55.999Z</time></trkpt><trkpt lat="40.02206970681713" lon="8.465122798562195"><ele>4.0</ele><time>2026-05-02T07:50:56.999Z</time></trkpt><trkpt lat="40.022078808026" lon="8.465381380751285"><ele>4.0</ele><time>2026-05-02T07:50:57.999Z</time></trkpt><trkpt lat="40.02208702982812" lon="8.465639251412211"><ele>4.0</ele><time>2026-05-02T07:50:58.999Z</time></trkpt><trkpt lat="40.02209515537269" lon="8.465897406501853"><ele>4.0</ele><time>2026-05-02T07:50:59.999Z</time></trkpt><trkpt lat="40.022103955493506" lon="8.46615527420636"><ele>4.666666666666666</ele><time>2026-05-02T07:51:00.999Z</time></trkpt><trkpt lat="40.022114790329965" lon="8.46641354986885"><ele>5.333333333333333</ele><time>2026-05-02T07:51:01.999Z</time></trkpt><trkpt lat="40.02212464251582" lon="8.46667189053357"><ele>6.0</ele><time>2026-05-02T07:51:02.999Z</time></trkpt><trkpt lat="40.02213221327287" lon="8.466928098938553"><ele>6.0</ele><time>2026-05-02T07:51:03.999Z</time></trkpt><trkpt lat="40.02214161743113" lon="8.467189062755782"><ele>6.0</ele><time>2026-05-02T07:51:04.999Z</time></trkpt><trkpt lat="40.0221479871746" lon="8.467443569465756"><ele>6.0</ele><time>2026-05-02T07:51:05.999Z</time></trkpt><trkpt lat="40.02215823774971" lon="8.467701415102026"><ele>5.333333333333333</ele><time>2026-05-02T07:51:06.999Z</time></trkpt><trkpt lat="40.02216729609382" lon="8.467958838828716"><ele>4.666666666666666</ele><time>2026-05-02T07:51:07.999Z</time></trkpt><trkpt lat="40.02217499315943" lon="8.468215344060122"><ele>4.0</ele><time>2026-05-02T07:51:08.999Z</time></trkpt><trkpt lat="40.02218337925973" lon="8.46847155702278"><ele>4.0</ele><time>2026-05-02T07:51:09.999Z</time></trkpt><trkpt lat="40.02219037602604" lon="8.468728743020684"><ele>4.0</ele><time>2026-05-02T07:51:10.999Z</time></trkpt><trkpt lat="40.02219909426716" lon="8.46898751444129"><ele>4.0</ele><time>2026-05-02T07:51:11.998Z</time></trkpt><trkpt lat="40.022207650808824" lon="8.469246753120562"><ele>4.333333333333333</ele><time>2026-05-02T07:51:12.998Z</time></trkpt><trkpt lat="40.022215519210235" lon="8.46950733178851"><ele>4.666666666666667</ele><time>2026-05-02T07:51:13.998Z</time></trkpt><trkpt lat="40.022225491850556" lon="8.46976697862631"><ele>5.0</ele><time>2026-05-02T07:51:14.998Z</time></trkpt><trkpt lat="40.02223526648845" lon="8.470026849937986"><ele>5.0</ele><time>2026-05-02T07:51:15.998Z</time></trkpt><trkpt lat="40.022242944229504" lon="8.470285793350355"><ele>5.0</ele><time>2026-05-02T07:51:16.998Z</time></trkpt><trkpt lat="40.02225035945984" lon="8.470544686419744"><ele>5.0</ele><time>2026-05-02T07:51:17.998Z</time></trkpt><trkpt lat="40.02225898115587" lon="8.47080262624545"><ele>5.0</ele><time>2026-05-02T07:51:18.998Z</time></trkpt><trkpt lat="40.022268507200536" lon="8.471060289167374"><ele>5.0</ele><time>2026-05-02T07:51:19.998Z</time></trkpt><trkpt lat="40.022278366626665" lon="8.471317146568257"><ele>5.0</ele><time>2026-05-02T07:51:20.998Z</time></trkpt><trkpt lat="40.022289462653234" lon="8.471573674785002"><ele>5.0</ele><time>2026-05-02T07:51:21.998Z</time></trkpt><trkpt lat="40.02229702216163" lon="8.471830248589496"><ele>5.0</ele><time>2026-05-02T07:51:22.998Z</time></trkpt><trkpt lat="40.02230271820557" lon="8.47208594206369"><ele>5.0</ele><time>2026-05-02T07:51:23.998Z</time></trkpt><trkpt lat="40.02230964381846" lon="8.47233960893664"><ele>5.0</ele><time>2026-05-02T07:51:24.998Z</time></trkpt><trkpt lat="40.02231648461432" lon="8.472592098554498"><ele>5.0</ele><time>2026-05-02T07:51:25.998Z</time></trkpt><trkpt lat="40.02232450976936" lon="8.472846258118068"><ele>5.0</ele><time>2026-05-02T07:51:26.998Z</time></trkpt><trkpt lat="40.02233432436017" lon="8.473101493853509"><ele>5.333333333333334</ele><time>2026-05-02T07:51:27.998Z</time></trkpt><trkpt lat="40.022344408709756" lon="8.473356756184872"><ele>5.666666666666667</ele><time>2026-05-02T07:51:28.998Z</time></trkpt><trkpt lat="40.02235340240679" lon="8.473613081260043"><ele>6.0</ele><time>2026-05-02T07:51:29.998Z</time></trkpt><trkpt lat="40.022361924200645" lon="8.473869206477127"><ele>6.666666666666666</ele><time>2026-05-02T07:51:30.998Z</time></trkpt><trkpt lat="40.02237051983098" lon="8.47412704849738"><ele>7.333333333333333</ele><time>2026-05-02T07:51:31.998Z</time></trkpt><trkpt lat="40.0223752043672" lon="8.474386618180862"><ele>8.0</ele><time>2026-05-02T07:51:32.998Z</time></trkpt><trkpt lat="40.02236877024564" lon="8.474645591111061"><ele>8.666666666666666</ele><time>2026-05-02T07:51:33.998Z</time></trkpt><trkpt lat="40.022351026955306" lon="8.474902762157141"><ele>9.333333333333334</ele><time>2026-05-02T07:51:34.998Z</time></trkpt><trkpt lat="40.022325088832254" lon="8.475160121760647"><ele>10.0</ele><time>2026-05-02T07:51:35.998Z</time></trkpt><trkpt lat="40.022297407730036" lon="8.475418940692387"><ele>10.333333333333334</ele><time>2026-05-02T07:51:36.998Z</time></trkpt><trkpt lat="40.022269806680335" lon="8.47567787584578"><ele>10.666666666666666</ele><time>2026-05-02T07:51:37.998Z</time></trkpt><trkpt lat="40.02224268691452" lon="8.475938436084196"><ele>11.0</ele><time>2026-05-02T07:51:38.998Z</time></trkpt><trkpt lat="40.02221914173778" lon="8.47619982938776"><ele>10.666666666666666</ele><time>2026-05-02T07:51:39.998Z</time></trkpt><trkpt lat="40.02219437005204" lon="8.47646140213299"><ele>10.333333333333334</ele><time>2026-05-02T07:51:40.998Z</time></trkpt><trkpt lat="40.022168541428265" lon="8.47672256866071"><ele>10.0</ele><time>2026-05-02T07:51:41.998Z</time></trkpt><trkpt lat="40.02214214623573" lon="8.476982884885452"><ele>9.666666666666668</ele><time>2026-05-02T07:51:42.998Z</time></trkpt><trkpt lat="40.02211686090707" lon="8.477242139487396"><ele>9.333333333333334</ele><time>2026-05-02T07:51:43.998Z</time></trkpt><trkpt lat="40.02209288622966" lon="8.477498917035865"><ele>9.0</ele><time>2026-05-02T07:51:44.998Z</time></trkpt><trkpt lat="40.0220702410544" lon="8.477753598063579"><ele>9.0</ele><time>2026-05-02T07:51:45.998Z</time></trkpt><trkpt lat="40.02204742212072" lon="8.478007974955839"><ele>9.0</ele><time>2026-05-02T07:51:46.998Z</time></trkpt><trkpt lat="40.02202343174944" lon="8.478260896904809"><ele>9.0</ele><time>2026-05-02T07:51:47.998Z</time></trkpt><trkpt lat="40.021998108997934" lon="8.478512698392725"><ele>9.0</ele><time>2026-05-02T07:51:48.998Z</time></trkpt><trkpt lat="40.021968873442866" lon="8.478764145882938"><ele>9.0</ele><time>2026-05-02T07:51:49.998Z</time></trkpt><trkpt lat="40.02193039502161" lon="8.479012602146708"><ele>9.0</ele><time>2026-05-02T07:51:50.998Z</time></trkpt><trkpt lat="40.021858687900725" lon="8.479245641921414"><ele>8.666666666666666</ele><time>2026-05-02T07:51:51.998Z</time></trkpt><trkpt lat="40.02179861939606" lon="8.479486623055074"><ele>8.333333333333332</ele><time>2026-05-02T07:51:52.998Z</time></trkpt><trkpt lat="40.02172263335941" lon="8.479717175093727"><ele>8.0</ele><time>2026-05-02T07:51:53.998Z</time></trkpt><trkpt lat="40.02165003249056" lon="8.479951605687178"><ele>8.0</ele><time>2026-05-02T07:51:54.998Z</time></trkpt><trkpt lat="40.02157327217001" lon="8.48018470632221"><ele>8.0</ele><time>2026-05-02T07:51:56Z</time></trkpt><trkpt lat="40.02149849885726" lon="8.48041724518047"><ele>8.0</ele><time>2026-05-02T07:51:57Z</time></trkpt><trkpt lat="40.02142685487219" lon="8.480653136348572"><ele>7.666666666666666</ele><time>2026-05-02T07:51:58Z</time></trkpt><trkpt lat="40.02135590440512" lon="8.480888971925058"><ele>7.333333333333334</ele><time>2026-05-02T07:51:59Z</time></trkpt><trkpt lat="40.02128236568929" lon="8.481121676173634"><ele>7.0</ele><time>2026-05-02T07:52:00Z</time></trkpt><trkpt lat="40.02120949451926" lon="8.481353046602425"><ele>6.666666666666667</ele><time>2026-05-02T07:52:01Z</time></trkpt><trkpt lat="40.02113783885788" lon="8.481586442293798"><ele>6.333333333333334</ele><time>2026-05-02T07:52:02Z</time></trkpt><trkpt lat="40.02106485773956" lon="8.481820221041968"><ele>6.0</ele><time>2026-05-02T07:52:03Z</time></trkpt><trkpt lat="40.02099169146542" lon="8.482054654707719"><ele>6.666666666666666</ele><time>2026-05-02T07:52:04Z</time></trkpt><trkpt lat="40.020919040622104" lon="8.482290502268107"><ele>7.333333333333333</ele><time>2026-05-02T07:52:05Z</time></trkpt><trkpt lat="40.02084488657011" lon="8.482526551134496"><ele>8.0</ele><time>2026-05-02T07:52:06Z</time></trkpt><trkpt lat="40.02077290029625" lon="8.482763439232082"><ele>8.333333333333332</ele><time>2026-05-02T07:52:07Z</time></trkpt><trkpt lat="40.02070367619716" lon="8.48300328324474"><ele>8.666666666666666</ele><time>2026-05-02T07:52:08Z</time></trkpt><trkpt lat="40.020637160846114" lon="8.483244985306296"><ele>9.0</ele><time>2026-05-02T07:52:09Z</time></trkpt><trkpt lat="40.020572880967734" lon="8.483488222089775"><ele>9.0</ele><time>2026-05-02T07:52:10Z</time></trkpt><trkpt lat="40.02051164173344" lon="8.483734140786071"><ele>9.0</ele><time>2026-05-02T07:52:11Z</time></trkpt><trkpt lat="40.02044999407536" lon="8.483980394263968"><ele>9.0</ele><time>2026-05-02T07:52:12Z</time></trkpt><trkpt lat="40.020387375655986" lon="8.484227242747265"><ele>8.666666666666666</ele><time>2026-05-02T07:52:13Z</time></trkpt><trkpt lat="40.02032866131213" lon="8.484474970855642"><ele>8.333333333333332</ele><time>2026-05-02T07:52:13.999Z</time></trkpt><trkpt lat="40.02027021953902" lon="8.484723423801524"><ele>8.0</ele><time>2026-05-02T07:52:14.999Z</time></trkpt><trkpt lat="40.02021080023993" lon="8.484970452402735"><ele>7.666666666666666</ele><time>2026-05-02T07:52:15.999Z</time></trkpt><trkpt lat="40.02015276596789" lon="8.485218192117914"><ele>7.333333333333334</ele><time>2026-05-02T07:52:16.999Z</time></trkpt><trkpt lat="40.02009522320618" lon="8.485465787805678"><ele>7.0</ele><time>2026-05-02T07:52:17.999Z</time></trkpt><trkpt lat="40.02003508343208" lon="8.485712606779693"><ele>7.333333333333334</ele><time>2026-05-02T07:52:18.999Z</time></trkpt><trkpt lat="40.01997476552255" lon="8.48595961069225"><ele>7.666666666666666</ele><time>2026-05-02T07:52:19.999Z</time></trkpt><trkpt lat="40.019916498937306" lon="8.486207143206972"><ele>8.0</ele><time>2026-05-02T07:52:20.999Z</time></trkpt><trkpt lat="40.01985731333616" lon="8.48645432585978"><ele>8.0</ele><time>2026-05-02T07:52:21.999Z</time></trkpt><trkpt lat="40.01979644027114" lon="8.486699887271474"><ele>8.0</ele><time>2026-05-02T07:52:22.999Z</time></trkpt><trkpt lat="40.019736502633215" lon="8.486944463283809"><ele>8.0</ele><time>2026-05-02T07:52:23.999Z</time></trkpt><trkpt lat="40.019676337843656" lon="8.487189252713364"><ele>8.666666666666666</ele><time>2026-05-02T07:52:24.999Z</time></trkpt><trkpt lat="40.01961698026861" lon="8.487431890639604"><ele>9.333333333333334</ele><time>2026-05-02T07:52:25.999Z</time></trkpt><trkpt lat="40.019557230589676" lon="8.487675555816848"><ele>10.0</ele><time>2026-05-02T07:52:26.999Z</time></trkpt><trkpt lat="40.019497563604084" lon="8.487919553338154"><ele>10.666666666666668</ele><time>2026-05-02T07:52:27.999Z</time></trkpt><trkpt lat="40.01943890782621" lon="8.488162758169732"><ele>11.333333333333334</ele><time>2026-05-02T07:52:28.999Z</time></trkpt><trkpt lat="40.01937998364568" lon="8.488407651763561"><ele>12.0</ele><time>2026-05-02T07:52:29.999Z</time></trkpt><trkpt lat="40.01932037484723" lon="8.48865328371617"><ele>12.0</ele><time>2026-05-02T07:52:30.999Z</time></trkpt><trkpt lat="40.01925989581883" lon="8.488896242298797"><ele>12.0</ele><time>2026-05-02T07:52:31.999Z</time></trkpt><trkpt lat="40.019198581506586" lon="8.489137387434425"><ele>12.0</ele><time>2026-05-02T07:52:32.999Z</time></trkpt><trkpt lat="40.01913640164152" lon="8.489378783057152"><ele>12.666666666666668</ele><time>2026-05-02T07:52:33.999Z</time></trkpt><trkpt lat="40.01907329994189" lon="8.489623270091762"><ele>13.333333333333334</ele><time>2026-05-02T07:52:34.999Z</time></trkpt><trkpt lat="40.01900770691318" lon="8.489869672896127"><ele>14.0</ele><time>2026-05-02T07:52:35.999Z</time></trkpt><trkpt lat="40.0189432113201" lon="8.490117161171726"><ele>14.0</ele><time>2026-05-02T07:52:36.999Z</time></trkpt><trkpt lat="40.01887831521886" lon="8.490366808640063"><ele>14.0</ele><time>2026-05-02T07:52:37.999Z</time></trkpt><trkpt lat="40.01881325709586" lon="8.49061732550632"><ele>14.0</ele><time>2026-05-02T07:52:38.999Z</time></trkpt><trkpt lat="40.01874753682011" lon="8.490865482914723"><ele>13.666666666666668</ele><time>2026-05-02T07:52:39.999Z</time></trkpt><trkpt lat="40.0186811546554" lon="8.491115170002706"><ele>13.333333333333332</ele><time>2026-05-02T07:52:40.999Z</time></trkpt><trkpt lat="40.01861440387076" lon="8.491363399534519"><ele>13.0</ele><time>2026-05-02T07:52:41.999Z</time></trkpt><trkpt lat="40.018550910055154" lon="8.491611927146367"><ele>12.666666666666666</ele><time>2026-05-02T07:52:42.999Z</time></trkpt><trkpt lat="40.01848579648845" lon="8.49186019073529"><ele>12.333333333333332</ele><time>2026-05-02T07:52:43.999Z</time></trkpt><trkpt lat="40.01842248003618" lon="8.492108648745393"><ele>12.0</ele><time>2026-05-02T07:52:44.999Z</time></trkpt><trkpt lat="40.01835740013798" lon="8.492358099436057"><ele>12.0</ele><time>2026-05-02T07:52:45.999Z</time></trkpt><trkpt lat="40.01829259857826" lon="8.492607975238785"><ele>12.0</ele><time>2026-05-02T07:52:46.999Z</time></trkpt><trkpt lat="40.018226460743705" lon="8.492855871557166"><ele>12.0</ele><time>2026-05-02T07:52:47.999Z</time></trkpt><trkpt lat="40.0181571171256" lon="8.493101240578897"><ele>12.0</ele><time>2026-05-02T07:52:48.999Z</time></trkpt><trkpt lat="40.018081761341094" lon="8.493343495041282"><ele>12.0</ele><time>2026-05-02T07:52:49.999Z</time></trkpt><trkpt lat="40.018000882456505" lon="8.493582174854582"><ele>12.0</ele><time>2026-05-02T07:52:50.999Z</time></trkpt><trkpt lat="40.01791809304376" lon="8.493820639341857"><ele>12.0</ele><time>2026-05-02T07:52:51.999Z</time></trkpt><trkpt lat="40.01783524981531" lon="8.49405968584446"><ele>12.0</ele><time>2026-05-02T07:52:52.999Z</time></trkpt><trkpt lat="40.01775298511087" lon="8.494300551165571"><ele>12.0</ele><time>2026-05-02T07:52:53.999Z</time></trkpt><trkpt lat="40.01766874249012" lon="8.494541199449271"><ele>11.666666666666666</ele><time>2026-05-02T07:52:54.999Z</time></trkpt><trkpt lat="40.01758564286175" lon="8.494782688170485"><ele>11.333333333333332</ele><time>2026-05-02T07:52:55.999Z</time></trkpt><trkpt lat="40.01750494743483" lon="8.495026013137439"><ele>11.0</ele><time>2026-05-02T07:52:56.999Z</time></trkpt><trkpt lat="40.01742431711391" lon="8.49526673221453"><ele>11.0</ele><time>2026-05-02T07:52:57.999Z</time></trkpt><trkpt lat="40.01734289009725" lon="8.495508187340324"><ele>11.0</ele><time>2026-05-02T07:52:58.999Z</time></trkpt><trkpt lat="40.01726043847046" lon="8.495748588062648"><ele>11.0</ele><time>2026-05-02T07:52:59.999Z</time></trkpt><trkpt lat="40.01717666610593" lon="8.495987707960689"><ele>11.0</ele><time>2026-05-02T07:53:00.999Z</time></trkpt><trkpt lat="40.017093165439015" lon="8.496227751991665"><ele>11.0</ele><time>2026-05-02T07:53:01.999Z</time></trkpt><trkpt lat="40.017010821428464" lon="8.49646767278881"><ele>11.0</ele><time>2026-05-02T07:53:02.999Z</time></trkpt><trkpt lat="40.01693000299793" lon="8.496707667494457"><ele>11.333333333333332</ele><time>2026-05-02T07:53:03.999Z</time></trkpt><trkpt lat="40.016848879459886" lon="8.496948603813138"><ele>11.666666666666666</ele><time>2026-05-02T07:53:04.999Z</time></trkpt><trkpt lat="40.01676621330837" lon="8.497190017291647"><ele>12.0</ele><time>2026-05-02T07:53:05.999Z</time></trkpt><trkpt lat="40.0166829342487" lon="8.497431697382986"><ele>12.0</ele><time>2026-05-02T07:53:06.999Z</time></trkpt><trkpt lat="40.01660009575377" lon="8.497674075225351"><ele>12.0</ele><time>2026-05-02T07:53:07.999Z</time></trkpt><trkpt lat="40.0165167016626" lon="8.497915201605382"><ele>12.0</ele><time>2026-05-02T07:53:08.999Z</time></trkpt><trkpt lat="40.01643596745644" lon="8.49815773591861"><ele>12.0</ele><time>2026-05-02T07:53:09.999Z</time></trkpt><trkpt lat="40.01635460992348" lon="8.498400185161325"><ele>12.0</ele><time>2026-05-02T07:53:10.999Z</time></trkpt><trkpt lat="40.016272095222526" lon="8.498643219876493"><ele>12.0</ele><time>2026-05-02T07:53:11.999Z</time></trkpt><trkpt lat="40.016189349736514" lon="8.498886684784216"><ele>11.666666666666666</ele><time>2026-05-02T07:53:12.999Z</time></trkpt><trkpt lat="40.01610664789315" lon="8.499130422007276"><ele>11.333333333333332</ele><time>2026-05-02T07:53:13.999Z</time></trkpt><trkpt lat="40.016026352613025" lon="8.499375546190715"><ele>11.0</ele><time>2026-05-02T07:53:14.999Z</time></trkpt><trkpt lat="40.01595110268386" lon="8.49962560412857"><ele>11.0</ele><time>2026-05-02T07:53:15.999Z</time></trkpt><trkpt lat="40.01587994770979" lon="8.499880166055375"><ele>11.0</ele><time>2026-05-02T07:53:16.999Z</time></trkpt><trkpt lat="40.01581514884837" lon="8.500139639319656"><ele>11.0</ele><time>2026-05-02T07:53:17.998Z</time></trkpt><trkpt lat="40.015748580091724" lon="8.500398176712643"><ele>11.333333333333332</ele><time>2026-05-02T07:53:18.999Z</time></trkpt><trkpt lat="40.01568095565755" lon="8.500656449247249"><ele>11.666666666666666</ele><time>2026-05-02T07:53:19.998Z</time></trkpt><trkpt lat="40.01561434268171" lon="8.500915378993112"><ele>12.0</ele><time>2026-05-02T07:53:20.998Z</time></trkpt><trkpt lat="40.015548409213025" lon="8.50117330795647"><ele>12.666666666666668</ele><time>2026-05-02T07:53:21.998Z</time></trkpt><trkpt lat="40.01548310123128" lon="8.501431059752678"><ele>13.333333333333334</ele><time>2026-05-02T07:53:22.998Z</time></trkpt><trkpt lat="40.01541551014176" lon="8.501686245032019"><ele>14.0</ele><time>2026-05-02T07:53:23.998Z</time></trkpt><trkpt lat="40.01534393688282" lon="8.501942257707235"><ele>14.0</ele><time>2026-05-02T07:53:24.998Z</time></trkpt><trkpt lat="40.01526814540053" lon="8.502193832308404"><ele>14.0</ele><time>2026-05-02T07:53:25.998Z</time></trkpt><trkpt lat="40.01518460119671" lon="8.502439254730744"><ele>14.0</ele><time>2026-05-02T07:53:26.998Z</time></trkpt><trkpt lat="40.01509781244677" lon="8.502680269602179"><ele>14.0</ele><time>2026-05-02T07:53:27.998Z</time></trkpt><trkpt lat="40.01500986070074" lon="8.502920302868667"><ele>14.0</ele><time>2026-05-02T07:53:28.998Z</time></trkpt><trkpt lat="40.014925041490535" lon="8.503159749633546"><ele>14.0</ele><time>2026-05-02T07:53:29.998Z</time></trkpt><trkpt lat="40.014843067198356" lon="8.503400838495077"><ele>14.333333333333334</ele><time>2026-05-02T07:53:30.998Z</time></trkpt><trkpt lat="40.01476079840934" lon="8.503638948749014"><ele>14.666666666666668</ele><time>2026-05-02T07:53:31.998Z</time></trkpt><trkpt lat="40.01467599573304" lon="8.503876314248085"><ele>15.0</ele><time>2026-05-02T07:53:32.998Z</time></trkpt><trkpt lat="40.014591517753985" lon="8.504111368804711"><ele>15.0</ele><time>2026-05-02T07:53:33.998Z</time></trkpt><trkpt lat="40.01450861638753" lon="8.504345965573172"><ele>15.0</ele><time>2026-05-02T07:53:34.998Z</time></trkpt><trkpt lat="40.014426923933385" lon="8.504579133117444"><ele>15.0</ele><time>2026-05-02T07:53:35.998Z</time></trkpt><trkpt lat="40.01434571224999" lon="8.504814373111035"><ele>15.333333333333332</ele><time>2026-05-02T07:53:36.998Z</time></trkpt><trkpt lat="40.01426400085079" lon="8.505051261660434"><ele>15.666666666666666</ele><time>2026-05-02T07:53:37.998Z</time></trkpt><trkpt lat="40.01418084310075" lon="8.50528830782237"><ele>16.0</ele><time>2026-05-02T07:53:38.998Z</time></trkpt><trkpt lat="40.014095570762386" lon="8.505525735216073"><ele>16.0</ele><time>2026-05-02T07:53:39.998Z</time></trkpt><trkpt lat="40.01400777201075" lon="8.505761968524581"><ele>16.0</ele><time>2026-05-02T07:53:40.998Z</time></trkpt><trkpt lat="40.0139222003029" lon="8.506002619042738"><ele>16.0</ele><time>2026-05-02T07:53:41.998Z</time></trkpt><trkpt lat="40.013838127667576" lon="8.506243087107258"><ele>15.666666666666666</ele><time>2026-05-02T07:53:42.998Z</time></trkpt><trkpt lat="40.01375067097955" lon="8.506471967699296"><ele>15.333333333333332</ele><time>2026-05-02T07:53:43.998Z</time></trkpt><trkpt lat="40.013676771251625" lon="8.506705638526133"><ele>15.0</ele><time>2026-05-02T07:53:44.998Z</time></trkpt><trkpt lat="40.01359436879429" lon="8.506939263606247"><ele>14.333333333333332</ele><time>2026-05-02T07:53:45.998Z</time></trkpt><trkpt lat="40.013513915408744" lon="8.50716722251016"><ele>13.666666666666666</ele><time>2026-05-02T07:53:46.998Z</time></trkpt><trkpt lat="40.013433730646184" lon="8.50739216879647"><ele>13.0</ele><time>2026-05-02T07:53:47.998Z</time></trkpt><trkpt lat="40.013345538853706" lon="8.507616502460815"><ele>12.666666666666666</ele><time>2026-05-02T07:53:48.998Z</time></trkpt><trkpt lat="40.01326009152671" lon="8.507844930299111"><ele>12.333333333333332</ele><time>2026-05-02T07:53:49.998Z</time></trkpt><trkpt lat="40.0131788460798" lon="8.508082033189751"><ele>12.0</ele><time>2026-05-02T07:53:50.998Z</time></trkpt><trkpt lat="40.01309379954058" lon="8.508316569107672"><ele>11.333333333333334</ele><time>2026-05-02T07:53:51.998Z</time></trkpt><trkpt lat="40.013011616198604" lon="8.508553763259743"><ele>10.666666666666668</ele><time>2026-05-02T07:53:52.998Z</time></trkpt><trkpt lat="40.01292979613039" lon="8.508793631296227"><ele>10.0</ele><time>2026-05-02T07:53:53.998Z</time></trkpt><trkpt lat="40.012848215405164" lon="8.50903094622126"><ele>10.0</ele><time>2026-05-02T07:53:54.998Z</time></trkpt><trkpt lat="40.012768887850065" lon="8.509255176249257"><ele>10.0</ele><time>2026-05-02T07:53:55.998Z</time></trkpt><trkpt lat="40.01269535755017" lon="8.509463876261915"><ele>10.0</ele><time>2026-05-02T07:53:56.998Z</time></trkpt><trkpt lat="40.01262970253835" lon="8.509656933338567"><ele>10.0</ele><time>2026-05-02T07:53:57.998Z</time></trkpt><trkpt lat="40.01256218032859" lon="8.509839883716237"><ele>10.0</ele><time>2026-05-02T07:53:58.998Z</time></trkpt><trkpt lat="40.01250088584531" lon="8.510011780788655"><ele>10.0</ele><time>2026-05-02T07:53:59.998Z</time></trkpt><trkpt lat="40.012450338492854" lon="8.51017321552845"><ele>10.0</ele><time>2026-05-02T07:54:00.998Z</time></trkpt><trkpt lat="40.01241176776958" lon="8.510329871949207"><ele>9.8</ele><time>2026-05-02T07:54:02Z</time></trkpt><trkpt lat="40.012385511332894" lon="8.510481317138144"><ele>9.6</ele><time>2026-05-02T07:54:03Z</time></trkpt><trkpt lat="40.01237284775085" lon="8.510625823669072"><ele>9.4</ele><time>2026-05-02T07:54:04Z</time></trkpt><trkpt lat="40.01236527084911" lon="8.510755924516893"><ele>9.2</ele><time>2026-05-02T07:54:05Z</time></trkpt><trkpt lat="40.01237074403764" lon="8.510858409691679"><ele>9.0</ele><time>2026-05-02T07:54:06Z</time></trkpt><trkpt lat="40.01240585122097" lon="8.510931069509212"><ele>9.0</ele><time>2026-05-02T07:54:07Z</time></trkpt><trkpt lat="40.01246492019616" lon="8.510979862836725"><ele>9.0</ele><time>2026-05-02T07:54:08Z</time></trkpt><trkpt lat="40.01254388650508" lon="8.511006093129906"><ele>9.0</ele><time>2026-05-02T07:54:09Z</time></trkpt><trkpt lat="40.01264148366911" lon="8.510998919340924"><ele>9.0</ele><time>2026-05-02T07:54:10Z</time></trkpt><trkpt lat="40.012753119026186" lon="8.510986291870715"><ele>9.0</ele><time>2026-05-02T07:54:11Z</time></trkpt><trkpt lat="40.01287648085926" lon="8.51101255244755"><ele>9.5</ele><time>2026-05-02T07:54:12Z</time></trkpt><trkpt lat="40.013011008928366" lon="8.511074050605334"><ele>10.0</ele><time>2026-05-02T07:54:13Z</time></trkpt><trkpt lat="40.013151695896276" lon="8.511139878075415"><ele>10.5</ele><time>2026-05-02T07:54:14Z</time></trkpt><trkpt lat="40.01329258456337" lon="8.511200310762257"><ele>11.0</ele><time>2026-05-02T07:54:15Z</time></trkpt><trkpt lat="40.01345180724214" lon="8.51125515855629"><ele>11.0</ele><time>2026-05-02T07:54:16Z</time></trkpt><trkpt lat="40.01360411629056" lon="8.511301068695724"><ele>11.0</ele><time>2026-05-02T07:54:17Z</time></trkpt><trkpt lat="40.01373829045578" lon="8.51135242728751"><ele>11.0</ele><time>2026-05-02T07:54:17.999Z</time></trkpt><trkpt lat="40.013875864134455" lon="8.511417219112342"><ele>11.0</ele><time>2026-05-02T07:54:18.999Z</time></trkpt><trkpt lat="40.014031284649086" lon="8.511492799661138"><ele>11.666666666666666</ele><time>2026-05-02T07:54:19.999Z</time></trkpt><trkpt lat="40.01419370788751" lon="8.511553611480233"><ele>12.333333333333332</ele><time>2026-05-02T07:54:20.999Z</time></trkpt><trkpt lat="40.014357180992334" lon="8.511616385306532"><ele>13.0</ele><time>2026-05-02T07:54:21.999Z</time></trkpt><trkpt lat="40.01451875136865" lon="8.511678087522867"><ele>13.0</ele><time>2026-05-02T07:54:22.999Z</time></trkpt><trkpt lat="40.01467600862671" lon="8.511740477994225"><ele>13.0</ele><time>2026-05-02T07:54:23.999Z</time></trkpt><trkpt lat="40.01482970957864" lon="8.511801530781353"><ele>13.0</ele><time>2026-05-02T07:54:24.999Z</time></trkpt><trkpt lat="40.014983059731165" lon="8.511861578281124"><ele>13.666666666666666</ele><time>2026-05-02T07:54:25.999Z</time></trkpt><trkpt lat="40.01513624671112" lon="8.51192678311813"><ele>14.333333333333332</ele><time>2026-05-02T07:54:26.999Z</time></trkpt><trkpt lat="40.01528857665957" lon="8.511994332222189"><ele>15.0</ele><time>2026-05-02T07:54:27.999Z</time></trkpt><trkpt lat="40.01544509394311" lon="8.51206543883567"><ele>14.333333333333332</ele><time>2026-05-02T07:54:28.999Z</time></trkpt><trkpt lat="40.01559823387361" lon="8.512128394367474"><ele>13.666666666666666</ele><time>2026-05-02T07:54:29.999Z</time></trkpt><trkpt lat="40.01575444927646" lon="8.512181591749245"><ele>13.0</ele><time>2026-05-02T07:54:30.999Z</time></trkpt><trkpt lat="40.01590444571711" lon="8.512239841978122"><ele>14.0</ele><time>2026-05-02T07:54:31.999Z</time></trkpt><trkpt lat="40.01605077922728" lon="8.51230028710587"><ele>15.0</ele><time>2026-05-02T07:54:32.999Z</time></trkpt><trkpt lat="40.01618877400152" lon="8.51235699825625"><ele>16.0</ele><time>2026-05-02T07:54:33.999Z</time></trkpt><trkpt lat="40.01631695018433" lon="8.512406182767268"><ele>17.0</ele><time>2026-05-02T07:54:34.999Z</time></trkpt><trkpt lat="40.01645005307722" lon="8.512455944255079"><ele>17.0</ele><time>2026-05-02T07:54:35.999Z</time></trkpt><trkpt lat="40.016570682714104" lon="8.51250715402729"><ele>17.0</ele><time>2026-05-02T07:54:36.999Z</time></trkpt><trkpt lat="40.016693641848356" lon="8.512552466863363"><ele>17.0</ele><time>2026-05-02T07:54:37.999Z</time></trkpt><trkpt lat="40.01682222008491" lon="8.512570673938463"><ele>17.0</ele><time>2026-05-02T07:54:38.999Z</time></trkpt><trkpt lat="40.01695124500886" lon="8.512563530265348"><ele>16.75</ele><time>2026-05-02T07:54:39.999Z</time></trkpt><trkpt lat="40.017082796513904" lon="8.512548120045496"><ele>16.5</ele><time>2026-05-02T07:54:40.999Z</time></trkpt><trkpt lat="40.0172171719481" lon="8.512527633489471"><ele>16.25</ele><time>2026-05-02T07:54:41.999Z</time></trkpt><trkpt lat="40.01734324554757" lon="8.512491684865397"><ele>16.0</ele><time>2026-05-02T07:54:42.999Z</time></trkpt><trkpt lat="40.0174503838674" lon="8.51244875172449"><ele>16.25</ele><time>2026-05-02T07:54:43.999Z</time></trkpt><trkpt lat="40.01755483532878" lon="8.512396667116208"><ele>16.5</ele><time>2026-05-02T07:54:44.999Z</time></trkpt><trkpt lat="40.01766475198357" lon="8.512346093924872"><ele>16.75</ele><time>2026-05-02T07:54:45.999Z</time></trkpt><trkpt lat="40.01777809512265" lon="8.512300909654481"><ele>17.0</ele><time>2026-05-02T07:54:46.999Z</time></trkpt><trkpt lat="40.017887218722855" lon="8.512267870942045"><ele>17.0</ele><time>2026-05-02T07:54:47.999Z</time></trkpt><trkpt lat="40.017985067537" lon="8.512249245322142"><ele>17.0</ele><time>2026-05-02T07:54:48.999Z</time></trkpt><trkpt lat="40.01807240581367" lon="8.512245233532058"><ele>17.0</ele><time>2026-05-02T07:54:49.999Z</time></trkpt><trkpt lat="40.018154009211216" lon="8.512249061598256"><ele>17.0</ele><time>2026-05-02T07:54:50.999Z</time></trkpt><trkpt lat="40.01822875182599" lon="8.512262270801868"><ele>17.0</ele><time>2026-05-02T07:54:51.999Z</time></trkpt><trkpt lat="40.01831057313717" lon="8.512284879521319"><ele>17.0</ele><time>2026-05-02T07:54:52.999Z</time></trkpt><trkpt lat="40.018421616559394" lon="8.512322817753425"><ele>17.0</ele><time>2026-05-02T07:54:53.999Z</time></trkpt><trkpt lat="40.01854950776642" lon="8.512361323028594"><ele>17.0</ele><time>2026-05-02T07:54:54.999Z</time></trkpt><trkpt lat="40.01868799011698" lon="8.512397186741088"><ele>17.0</ele><time>2026-05-02T07:54:55.999Z</time></trkpt><trkpt lat="40.0188351594909" lon="8.512432020671262"><ele>17.0</ele><time>2026-05-02T07:54:56.999Z</time></trkpt><trkpt lat="40.01898072904537" lon="8.512469870783026"><ele>17.0</ele><time>2026-05-02T07:54:57.999Z</time></trkpt><trkpt lat="40.019130900337316" lon="8.5125028597776"><ele>17.0</ele><time>2026-05-02T07:54:58.999Z</time></trkpt><trkpt lat="40.0192868495704" lon="8.512522177775738"><ele>17.0</ele><time>2026-05-02T07:54:59.999Z</time></trkpt><trkpt lat="40.01945041286268" lon="8.512526522632465"><ele>17.666666666666668</ele><time>2026-05-02T07:55:00.999Z</time></trkpt><trkpt lat="40.01961309007362" lon="8.51251584743637"><ele>18.333333333333332</ele><time>2026-05-02T07:55:02Z</time></trkpt><trkpt lat="40.01977679114699" lon="8.512485587592224"><ele>19.0</ele><time>2026-05-02T07:55:03Z</time></trkpt><trkpt lat="40.01994422474569" lon="8.51244804249857"><ele>19.333333333333332</ele><time>2026-05-02T07:55:04Z</time></trkpt><trkpt lat="40.02011657233338" lon="8.512399275416659"><ele>19.666666666666668</ele><time>2026-05-02T07:55:05Z</time></trkpt><trkpt lat="40.0202907088652" lon="8.512325578632685"><ele>20.0</ele><time>2026-05-02T07:55:06Z</time></trkpt><trkpt lat="40.020465195060694" lon="8.51225252826107"><ele>20.0</ele><time>2026-05-02T07:55:07Z</time></trkpt><trkpt lat="40.02064312851441" lon="8.512181177889415"><ele>20.0</ele><time>2026-05-02T07:55:08Z</time></trkpt><trkpt lat="40.02083269756736" lon="8.51210486665279"><ele>20.0</ele><time>2026-05-02T07:55:09Z</time></trkpt><trkpt lat="40.021023585068995" lon="8.512024859015384"><ele>21.0</ele><time>2026-05-02T07:55:10Z</time></trkpt><trkpt lat="40.02120949191284" lon="8.511936056771912"><ele>22.0</ele><time>2026-05-02T07:55:11Z</time></trkpt><trkpt lat="40.02139333292757" lon="8.511861028165482"><ele>23.0</ele><time>2026-05-02T07:55:12Z</time></trkpt><trkpt lat="40.02157578004218" lon="8.511790265015492"><ele>22.666666666666668</ele><time>2026-05-02T07:55:13Z</time></trkpt><trkpt lat="40.021756482221086" lon="8.511720375448625"><ele>22.333333333333332</ele><time>2026-05-02T07:55:14Z</time></trkpt><trkpt lat="40.02193697374706" lon="8.511649978014075"><ele>22.0</ele><time>2026-05-02T07:55:15Z</time></trkpt><trkpt lat="40.02211753989625" lon="8.511583506178"><ele>22.0</ele><time>2026-05-02T07:55:16Z</time></trkpt><trkpt lat="40.02230271028502" lon="8.511526365160107"><ele>22.0</ele><time>2026-05-02T07:55:17Z</time></trkpt><trkpt lat="40.02249452306208" lon="8.511485296326045"><ele>22.0</ele><time>2026-05-02T07:55:18Z</time></trkpt><trkpt lat="40.02269151703148" lon="8.511454195201141"><ele>22.666666666666664</ele><time>2026-05-02T07:55:18.999Z</time></trkpt><trkpt lat="40.02289155162553" lon="8.51143074528168"><ele>23.333333333333332</ele><time>2026-05-02T07:55:19.999Z</time></trkpt><trkpt lat="40.02309316841204" lon="8.511415155935962"><ele>24.0</ele><time>2026-05-02T07:55:20.999Z</time></trkpt><trkpt lat="40.02329101310032" lon="8.511440897303649"><ele>23.666666666666668</ele><time>2026-05-02T07:55:21.999Z</time></trkpt><trkpt lat="40.02348781697528" lon="8.511441022165984"><ele>23.333333333333336</ele><time>2026-05-02T07:55:22.999Z</time></trkpt><trkpt lat="40.023677221334054" lon="8.51146130345838"><ele>23.0</ele><time>2026-05-02T07:55:23.999Z</time></trkpt><trkpt lat="40.02386296574333" lon="8.51146330298605"><ele>23.0</ele><time>2026-05-02T07:55:24.999Z</time></trkpt><trkpt lat="40.0240465765942" lon="8.511430657924546"><ele>23.0</ele><time>2026-05-02T07:55:25.999Z</time></trkpt><trkpt lat="40.02423213214126" lon="8.5113942688295"><ele>23.0</ele><time>2026-05-02T07:55:26.999Z</time></trkpt><trkpt lat="40.02441383728719" lon="8.511338674459912"><ele>23.333333333333336</ele><time>2026-05-02T07:55:27.999Z</time></trkpt><trkpt lat="40.02459593818986" lon="8.511274422532633"><ele>23.666666666666668</ele><time>2026-05-02T07:55:28.999Z</time></trkpt><trkpt lat="40.02477658319058" lon="8.511200038940071"><ele>24.0</ele><time>2026-05-02T07:55:29.999Z</time></trkpt><trkpt lat="40.024955245975065" lon="8.511118981149078"><ele>25.333333333333336</ele><time>2026-05-02T07:55:30.999Z</time></trkpt><trkpt lat="40.02513284535696" lon="8.511035118641358"><ele>26.666666666666668</ele><time>2026-05-02T07:55:31.999Z</time></trkpt><trkpt lat="40.025309096369526" lon="8.510952257470919"><ele>28.0</ele><time>2026-05-02T07:55:32.999Z</time></trkpt><trkpt lat="40.02548044543181" lon="8.51086876883508"><ele>28.0</ele><time>2026-05-02T07:55:33.999Z</time></trkpt><trkpt lat="40.02564244751" lon="8.51079920898985"><ele>28.0</ele><time>2026-05-02T07:55:34.999Z</time></trkpt><trkpt lat="40.025796380259095" lon="8.510763805393463"><ele>28.0</ele><time>2026-05-02T07:55:35.999Z</time></trkpt><trkpt lat="40.02594148615984" lon="8.510782260602353"><ele>27.666666666666668</ele><time>2026-05-02T07:55:36.999Z</time></trkpt><trkpt lat="40.02608099466339" lon="8.510859302459462"><ele>27.333333333333336</ele><time>2026-05-02T07:55:37.999Z</time></trkpt><trkpt lat="40.026200069784515" lon="8.510982562083308"><ele>27.0</ele><time>2026-05-02T07:55:38.999Z</time></trkpt><trkpt lat="40.02629286072384" lon="8.51114624354897"><ele>27.0</ele><time>2026-05-02T07:55:39.999Z</time></trkpt><trkpt lat="40.02637213298296" lon="8.511326701568857"><ele>27.0</ele><time>2026-05-02T07:55:40.999Z</time></trkpt><trkpt lat="40.02644005496285" lon="8.511523845086808"><ele>27.0</ele><time>2026-05-02T07:55:41.999Z</time></trkpt><trkpt lat="40.02646897190868" lon="8.511744727245373"><ele>27.0</ele><time>2026-05-02T07:55:42.999Z</time></trkpt><trkpt lat="40.02647608387555" lon="8.511972093727882"><ele>27.0</ele><time>2026-05-02T07:55:43.999Z</time></trkpt><trkpt lat="40.02645388829547" lon="8.512208432240415"><ele>27.0</ele><time>2026-05-02T07:55:44.999Z</time></trkpt><trkpt lat="40.02643620001216" lon="8.512455045869368"><ele>26.666666666666664</ele><time>2026-05-02T07:55:45.999Z</time></trkpt><trkpt lat="40.02640341697244" lon="8.512704923892718"><ele>26.333333333333332</ele><time>2026-05-02T07:55:46.999Z</time></trkpt><trkpt lat="40.026354365352056" lon="8.512968005905432"><ele>26.0</ele><time>2026-05-02T07:55:47.999Z</time></trkpt><trkpt lat="40.026322449324134" lon="8.513237586818573"><ele>25.666666666666664</ele><time>2026-05-02T07:55:48.999Z</time></trkpt><trkpt lat="40.0263048274235" lon="8.513508114899706"><ele>25.333333333333336</ele><time>2026-05-02T07:55:49.999Z</time></trkpt><trkpt lat="40.02626911327345" lon="8.513771870829789"><ele>25.0</ele><time>2026-05-02T07:55:50.999Z</time></trkpt><trkpt lat="40.026236894598696" lon="8.51403588881428"><ele>24.333333333333336</ele><time>2026-05-02T07:55:51.999Z</time></trkpt><trkpt lat="40.02620536725091" lon="8.514299161241876"><ele>23.666666666666668</ele><time>2026-05-02T07:55:52.999Z</time></trkpt><trkpt lat="40.026170339170676" lon="8.514562384985735"><ele>23.0</ele><time>2026-05-02T07:55:53.999Z</time></trkpt><trkpt lat="40.026137272200856" lon="8.51482551354956"><ele>23.0</ele><time>2026-05-02T07:55:54.999Z</time></trkpt><trkpt lat="40.02610683786209" lon="8.515088568119793"><ele>23.0</ele><time>2026-05-02T07:55:55.999Z</time></trkpt><trkpt lat="40.02608133083768" lon="8.515354882182775"><ele>23.0</ele><time>2026-05-02T07:55:56.999Z</time></trkpt><trkpt lat="40.02606602145518" lon="8.515620059664434"><ele>23.333333333333336</ele><time>2026-05-02T07:55:57.999Z</time></trkpt><trkpt lat="40.02605624657684" lon="8.515884826074144"><ele>23.666666666666668</ele><time>2026-05-02T07:55:58.999Z</time></trkpt><trkpt lat="40.02604524578216" lon="8.516147818791893"><ele>24.0</ele><time>2026-05-02T07:55:59.999Z</time></trkpt><trkpt lat="40.026038029453765" lon="8.516409702395029"><ele>24.0</ele><time>2026-05-02T07:56:00.999Z</time></trkpt><trkpt lat="40.02603964933023" lon="8.516669654240477"><ele>24.0</ele><time>2026-05-02T07:56:01.999Z</time></trkpt><trkpt lat="40.026042661884034" lon="8.516923583178697"><ele>24.0</ele><time>2026-05-02T07:56:02.999Z</time></trkpt><trkpt lat="40.02604427255493" lon="8.51717539138307"><ele>24.666666666666664</ele><time>2026-05-02T07:56:03.999Z</time></trkpt><trkpt lat="40.02604655611902" lon="8.517411920878427"><ele>25.333333333333332</ele><time>2026-05-02T07:56:04.999Z</time></trkpt><trkpt lat="40.02604883270852" lon="8.517633764677512"><ele>26.0</ele><time>2026-05-02T07:56:05.999Z</time></trkpt><trkpt lat="40.02603081562838" lon="8.517841306271789"><ele>25.75</ele><time>2026-05-02T07:56:06.999Z</time></trkpt><trkpt lat="40.02602757906544" lon="8.51803776853558"><ele>25.5</ele><time>2026-05-02T07:56:08Z</time></trkpt><trkpt lat="40.025975545434136" lon="8.518202501620532"><ele>25.25</ele><time>2026-05-02T07:56:09Z</time></trkpt><trkpt lat="40.02593285201372" lon="8.518321430536094"><ele>25.0</ele><time>2026-05-02T07:56:10Z</time></trkpt><trkpt lat="40.025938485261584" lon="8.518407915621566"><ele>25.0</ele><time>2026-05-02T07:56:11Z</time></trkpt><trkpt lat="40.02597627612328" lon="8.518478369963534"><ele>25.0</ele><time>2026-05-02T07:56:13Z</time></trkpt><trkpt lat="40.026109405656506" lon="8.518523011509389"><ele>25.0</ele><time>2026-05-02T07:56:20Z</time></trkpt><trkpt lat="40.0262076918052" lon="8.518464077548623"><ele>25.0</ele><time>2026-05-02T07:56:21Z</time></trkpt><trkpt lat="40.0263123143587" lon="8.51837815859367"><ele>25.0</ele><time>2026-05-02T07:56:22Z</time></trkpt><trkpt lat="40.02643287286907" lon="8.518299240270611"><ele>25.0</ele><time>2026-05-02T07:56:23Z</time></trkpt><trkpt lat="40.02658373423838" lon="8.518242975898191"><ele>25.0</ele><time>2026-05-02T07:56:24Z</time></trkpt><trkpt lat="40.02675392448654" lon="8.518203337773024"><ele>25.0</ele><time>2026-05-02T07:56:25Z</time></trkpt><trkpt lat="40.026936367386696" lon="8.518159974395264"><ele>25.0</ele><time>2026-05-02T07:56:26Z</time></trkpt><trkpt lat="40.027130909750646" lon="8.518107440074475"><ele>25.0</ele><time>2026-05-02T07:56:27Z</time></trkpt><trkpt lat="40.02732494202196" lon="8.518049484601026"><ele>25.0</ele><time>2026-05-02T07:56:28Z</time></trkpt><trkpt lat="40.02753176994624" lon="8.517994824076819"><ele>25.666666666666668</ele><time>2026-05-02T07:56:29Z</time></trkpt><trkpt lat="40.02774620153975" lon="8.517943844992914"><ele>26.333333333333336</ele><time>2026-05-02T07:56:30Z</time></trkpt><trkpt lat="40.02795785032802" lon="8.517893834571757"><ele>27.0</ele><time>2026-05-02T07:56:31Z</time></trkpt><trkpt lat="40.02816595316219" lon="8.517845104356253"><ele>28.0</ele><time>2026-05-02T07:56:32Z</time></trkpt><trkpt lat="40.02836978038559" lon="8.517793662360143"><ele>29.0</ele><time>2026-05-02T07:56:33Z</time></trkpt><trkpt lat="40.02857051130125" lon="8.51774234697136"><ele>30.0</ele><time>2026-05-02T07:56:34Z</time></trkpt><trkpt lat="40.02876877704564" lon="8.517695047693593"><ele>30.0</ele><time>2026-05-02T07:56:35Z</time></trkpt><trkpt lat="40.02895991154147" lon="8.517644848107741"><ele>30.0</ele><time>2026-05-02T07:56:36Z</time></trkpt><trkpt lat="40.029150404293105" lon="8.517594431999301"><ele>30.0</ele><time>2026-05-02T07:56:37Z</time></trkpt><trkpt lat="40.02934319884832" lon="8.517542952464114"><ele>31.666666666666664</ele><time>2026-05-02T07:56:38Z</time></trkpt><trkpt lat="40.02953528571844" lon="8.517488794837229"><ele>33.33333333333333</ele><time>2026-05-02T07:56:39Z</time></trkpt><trkpt lat="40.02972727427861" lon="8.517423141840176"><ele>35.0</ele><time>2026-05-02T07:56:40Z</time></trkpt><trkpt lat="40.02991816726792" lon="8.51734190663774"><ele>37.0</ele><time>2026-05-02T07:56:41Z</time></trkpt><trkpt lat="40.03010802308026" lon="8.517245871391518"><ele>39.0</ele><time>2026-05-02T07:56:42Z</time></trkpt><trkpt lat="40.030302134055944" lon="8.517143310631557"><ele>41.0</ele><time>2026-05-02T07:56:43Z</time></trkpt><trkpt lat="40.030492432795164" lon="8.517044104565752"><ele>41.0</ele><time>2026-05-02T07:56:44Z</time></trkpt><trkpt lat="40.030677981717695" lon="8.516939304247327"><ele>41.0</ele><time>2026-05-02T07:56:45Z</time></trkpt><trkpt lat="40.03086446392297" lon="8.516834927766899"><ele>41.0</ele><time>2026-05-02T07:56:46Z</time></trkpt><trkpt lat="40.031060625432204" lon="8.516732132795735"><ele>41.33333333333333</ele><time>2026-05-02T07:56:47Z</time></trkpt><trkpt lat="40.03125648142779" lon="8.516622627075915"><ele>41.666666666666664</ele><time>2026-05-02T07:56:48Z</time></trkpt><trkpt lat="40.031449169584036" lon="8.516509921456159"><ele>42.0</ele><time>2026-05-02T07:56:49Z</time></trkpt><trkpt lat="40.03164556869231" lon="8.51639764510576"><ele>42.333333333333336</ele><time>2026-05-02T07:56:50Z</time></trkpt><trkpt lat="40.03184513950036" lon="8.516284543414947"><ele>42.66666666666667</ele><time>2026-05-02T07:56:51Z</time></trkpt><trkpt lat="40.03205234897119" lon="8.516169009737192"><ele>43.0</ele><time>2026-05-02T07:56:52Z</time></trkpt><trkpt lat="40.032261650656906" lon="8.5160470651304"><ele>43.5</ele><time>2026-05-02T07:56:53Z</time></trkpt><trkpt lat="40.032474927817965" lon="8.515924153428719"><ele>44.0</ele><time>2026-05-02T07:56:54Z</time></trkpt><trkpt lat="40.03269132867265" lon="8.515800640082556"><ele>44.0</ele><time>2026-05-02T07:56:55Z</time></trkpt><trkpt lat="40.032907734372465" lon="8.515680046209882"><ele>44.0</ele><time>2026-05-02T07:56:56Z</time></trkpt><trkpt lat="40.03312287251356" lon="8.515560736719847"><ele>44.0</ele><time>2026-05-02T07:56:57Z</time></trkpt><trkpt lat="40.03333706890304" lon="8.515442728718172"><ele>44.0</ele><time>2026-05-02T07:56:58Z</time></trkpt><trkpt lat="40.033547584584845" lon="8.515325258307854"><ele>44.0</ele><time>2026-05-02T07:56:59Z</time></trkpt><trkpt lat="40.0337540852472" lon="8.515210960271517"><ele>44.0</ele><time>2026-05-02T07:57:00Z</time></trkpt><trkpt lat="40.033954285546855" lon="8.515095646979942"><ele>44.0</ele><time>2026-05-02T07:57:01Z</time></trkpt><trkpt lat="40.034154453657806" lon="8.51497674801714"><ele>44.666666666666664</ele><time>2026-05-02T07:57:02Z</time></trkpt><trkpt lat="40.034365657123494" lon="8.514878212412412"><ele>45.333333333333336</ele><time>2026-05-02T07:57:03Z</time></trkpt><trkpt lat="40.03456583866197" lon="8.514745976522772"><ele>46.0</ele><time>2026-05-02T07:57:04Z</time></trkpt><trkpt lat="40.03477407841042" lon="8.514637490706635"><ele>45.0</ele><time>2026-05-02T07:57:05Z</time></trkpt><trkpt lat="40.034983561433485" lon="8.514519281260146"><ele>44.0</ele><time>2026-05-02T07:57:06Z</time></trkpt><trkpt lat="40.03519248199416" lon="8.514402173220434"><ele>44.0</ele><time>2026-05-02T07:57:07Z</time></trkpt><trkpt lat="40.03540281928302" lon="8.514297566874173"><ele>44.0</ele><time>2026-05-02T07:57:08Z</time></trkpt><trkpt lat="40.03561203166804" lon="8.51420139121711"><ele>44.0</ele><time>2026-05-02T07:57:09Z</time></trkpt><trkpt lat="40.03581792209816" lon="8.514083149077301"><ele>44.33333333333333</ele><time>2026-05-02T07:57:10Z</time></trkpt><trkpt lat="40.03602294782519" lon="8.513970988412423"><ele>44.666666666666664</ele><time>2026-05-02T07:57:11Z</time></trkpt><trkpt lat="40.036228107955615" lon="8.513865796218711"><ele>45.0</ele><time>2026-05-02T07:57:12Z</time></trkpt><trkpt lat="40.03643449691487" lon="8.513762328661775"><ele>46.5</ele><time>2026-05-02T07:57:13Z</time></trkpt><trkpt lat="40.03664671154609" lon="8.513666440480716"><ele>48.0</ele><time>2026-05-02T07:57:14Z</time></trkpt><trkpt lat="40.03686549703968" lon="8.51358165925781"><ele>48.0</ele><time>2026-05-02T07:57:15Z</time></trkpt><trkpt lat="40.03708664811609" lon="8.513499178237314"><ele>48.0</ele><time>2026-05-02T07:57:16Z</time></trkpt><trkpt lat="40.03730701046185" lon="8.513410341395472"><ele>48.5</ele><time>2026-05-02T07:57:17Z</time></trkpt><trkpt lat="40.03752566190663" lon="8.513319803725622"><ele>49.0</ele><time>2026-05-02T07:57:17.999Z</time></trkpt><trkpt lat="40.03774888895666" lon="8.513234218235574"><ele>49.0</ele><time>2026-05-02T07:57:18.999Z</time></trkpt><trkpt lat="40.037971411783005" lon="8.5131501351928"><ele>49.0</ele><time>2026-05-02T07:57:19.999Z</time></trkpt><trkpt lat="40.038173092821154" lon="8.513067042733041"><ele>49.0</ele><time>2026-05-02T07:57:20.999Z</time></trkpt><trkpt lat="40.03835676043446" lon="8.51299662117345"><ele>49.33333333333333</ele><time>2026-05-02T07:57:21.999Z</time></trkpt><trkpt lat="40.038524987867845" lon="8.512943256435394"><ele>49.66666666666667</ele><time>2026-05-02T07:57:22.999Z</time></trkpt><trkpt lat="40.038679815089665" lon="8.51287473660243"><ele>50.0</ele><time>2026-05-02T07:57:23.999Z</time></trkpt><trkpt lat="40.038818695339394" lon="8.512803692652788"><ele>50.0</ele><time>2026-05-02T07:57:24.999Z</time></trkpt><trkpt lat="40.038941700717004" lon="8.51276339399047"><ele>50.0</ele><time>2026-05-02T07:57:25.999Z</time></trkpt><trkpt lat="40.03906846866916" lon="8.512720625654353"><ele>50.0</ele><time>2026-05-02T07:57:26.999Z</time></trkpt><trkpt lat="40.03917759741859" lon="8.512668014597228"><ele>50.0</ele><time>2026-05-02T07:57:27.999Z</time></trkpt><trkpt lat="40.03927158846055" lon="8.512628091974124"><ele>50.2</ele><time>2026-05-02T07:57:28.999Z</time></trkpt><trkpt lat="40.039338618421766" lon="8.51262439691879"><ele>50.4</ele><time>2026-05-02T07:57:29.999Z</time></trkpt><trkpt lat="40.039423226464464" lon="8.512734769691605"><ele>50.599999999999994</ele><time>2026-05-02T07:57:31.999Z</time></trkpt><trkpt lat="40.03944601967397" lon="8.51285005087597"><ele>50.8</ele><time>2026-05-02T07:57:32.999Z</time></trkpt><trkpt lat="40.03947841640557" lon="8.51299803097091"><ele>51.0</ele><time>2026-05-02T07:57:33.999Z</time></trkpt><trkpt lat="40.03950946935211" lon="8.513148786008419"><ele>51.199999999999996</ele><time>2026-05-02T07:57:34.999Z</time></trkpt><trkpt lat="40.03952916727329" lon="8.513303292201186"><ele>51.4</ele><time>2026-05-02T07:57:35.999Z</time></trkpt><trkpt lat="40.03953796602457" lon="8.513448784300762"><ele>51.6</ele><time>2026-05-02T07:57:36.999Z</time></trkpt><trkpt lat="40.03953057686482" lon="8.513586698258301"><ele>51.8</ele><time>2026-05-02T07:57:37.999Z</time></trkpt><trkpt lat="40.039514632198845" lon="8.513717590758054"><ele>52.0</ele><time>2026-05-02T07:57:38.999Z</time></trkpt><trkpt lat="40.0395049932881" lon="8.51383645247846"><ele>52.5</ele><time>2026-05-02T07:57:39.999Z</time></trkpt><trkpt lat="40.039482470722206" lon="8.513952740881614"><ele>53.0</ele><time>2026-05-02T07:57:40.999Z</time></trkpt><trkpt lat="40.03943392377074" lon="8.514074211971634"><ele>53.5</ele><time>2026-05-02T07:57:41.999Z</time></trkpt><trkpt lat="40.039368330184196" lon="8.51420470914384"><ele>54.0</ele><time>2026-05-02T07:57:42.999Z</time></trkpt><trkpt lat="40.03929460018879" lon="8.514351825958633"><ele>54.0</ele><time>2026-05-02T07:57:43.999Z</time></trkpt><trkpt lat="40.03921332179156" lon="8.51451728225258"><ele>54.0</ele><time>2026-05-02T07:57:44.999Z</time></trkpt><trkpt lat="40.03912813089217" lon="8.51470219564837"><ele>54.0</ele><time>2026-05-02T07:57:45.999Z</time></trkpt><trkpt lat="40.03903911032503" lon="8.514897812246595"><ele>53.66666666666667</ele><time>2026-05-02T07:57:46.999Z</time></trkpt><trkpt lat="40.03894715246212" lon="8.515103835968393"><ele>53.333333333333336</ele><time>2026-05-02T07:57:47.999Z</time></trkpt><trkpt lat="40.0388563977289" lon="8.515307006407346"><ele>53.0</ele><time>2026-05-02T07:57:48.999Z</time></trkpt><trkpt lat="40.03877436938935" lon="8.515485190790645"><ele>53.0</ele><time>2026-05-02T07:57:49.999Z</time></trkpt><trkpt lat="40.03869210617646" lon="8.515654406724902"><ele>53.0</ele><time>2026-05-02T07:57:50.999Z</time></trkpt><trkpt lat="40.038605771684935" lon="8.515819946155641"><ele>53.0</ele><time>2026-05-02T07:57:51.999Z</time></trkpt><trkpt lat="40.03851255238894" lon="8.515975309682865"><ele>53.0</ele><time>2026-05-02T07:57:52.999Z</time></trkpt><trkpt lat="40.03841975822472" lon="8.516139410920823"><ele>53.0</ele><time>2026-05-02T07:57:53.999Z</time></trkpt><trkpt lat="40.0383219866486" lon="8.516301735860964"><ele>53.0</ele><time>2026-05-02T07:57:54.999Z</time></trkpt><trkpt lat="40.03822591418487" lon="8.51645593697401"><ele>52.333333333333336</ele><time>2026-05-02T07:57:55.999Z</time></trkpt><trkpt lat="40.03813135347769" lon="8.516609701212797"><ele>51.66666666666667</ele><time>2026-05-02T07:57:56.999Z</time></trkpt><trkpt lat="40.03803340517217" lon="8.51676218435776"><ele>51.0</ele><time>2026-05-02T07:57:57.999Z</time></trkpt><trkpt lat="40.037938968113416" lon="8.51691154561146"><ele>51.0</ele><time>2026-05-02T07:57:58.999Z</time></trkpt><trkpt lat="40.03785914388144" lon="8.517045715008058"><ele>51.0</ele><time>2026-05-02T07:57:59.999Z</time></trkpt><trkpt lat="40.037779402996335" lon="8.51715797757666"><ele>51.0</ele><time>2026-05-02T07:58:00.999Z</time></trkpt><trkpt lat="40.03768757598243" lon="8.517261079657661"><ele>51.0</ele><time>2026-05-02T07:58:01.999Z</time></trkpt><trkpt lat="40.03757111480138" lon="8.517367391672765"><ele>51.66666666666667</ele><time>2026-05-02T07:58:02.999Z</time></trkpt><trkpt lat="40.03744323411713" lon="8.51748899932223"><ele>52.333333333333336</ele><time>2026-05-02T07:58:03.999Z</time></trkpt><trkpt lat="40.03731537139636" lon="8.51762835722967"><ele>53.0</ele><time>2026-05-02T07:58:04.999Z</time></trkpt><trkpt lat="40.037196004149095" lon="8.517791446442844"><ele>53.66666666666667</ele><time>2026-05-02T07:58:05.999Z</time></trkpt><trkpt lat="40.03708922507985" lon="8.517964651080012"><ele>54.33333333333333</ele><time>2026-05-02T07:58:06.999Z</time></trkpt><trkpt lat="40.036984337672735" lon="8.518150415093023"><ele>55.0</ele><time>2026-05-02T07:58:07.999Z</time></trkpt><trkpt lat="40.0368659800757" lon="8.518330274749243"><ele>55.0</ele><time>2026-05-02T07:58:08.999Z</time></trkpt><trkpt lat="40.03673529814012" lon="8.51851526727838"><ele>55.0</ele><time>2026-05-02T07:58:09.999Z</time></trkpt><trkpt lat="40.036606298298544" lon="8.518701085557625"><ele>55.0</ele><time>2026-05-02T07:58:10.999Z</time></trkpt><trkpt lat="40.03647844035486" lon="8.518883132804515"><ele>56.666666666666664</ele><time>2026-05-02T07:58:11.999Z</time></trkpt><trkpt lat="40.0363638147949" lon="8.519073525183039"><ele>58.33333333333333</ele><time>2026-05-02T07:58:12.999Z</time></trkpt><trkpt lat="40.03626002835056" lon="8.519261278369779"><ele>60.0</ele><time>2026-05-02T07:58:14Z</time></trkpt><trkpt lat="40.03613266552241" lon="8.519409860022703"><ele>60.66666666666667</ele><time>2026-05-02T07:58:15Z</time></trkpt><trkpt lat="40.036026611950376" lon="8.519588205666134"><ele>61.333333333333336</ele><time>2026-05-02T07:58:16Z</time></trkpt><trkpt lat="40.03592419982053" lon="8.51976873670612"><ele>62.0</ele><time>2026-05-02T07:58:17Z</time></trkpt><trkpt lat="40.03581625685228" lon="8.519954301763276"><ele>61.66666666666667</ele><time>2026-05-02T07:58:18Z</time></trkpt><trkpt lat="40.035705004279826" lon="8.520140246545099"><ele>61.33333333333333</ele><time>2026-05-02T07:58:19Z</time></trkpt><trkpt lat="40.03560507536216" lon="8.52031657503152"><ele>61.0</ele><time>2026-05-02T07:58:20Z</time></trkpt><trkpt lat="40.03551421314759" lon="8.520492347204446"><ele>60.666666666666664</ele><time>2026-05-02T07:58:21Z</time></trkpt><trkpt lat="40.0354438984423" lon="8.520684812856416"><ele>60.33333333333333</ele><time>2026-05-02T07:58:22Z</time></trkpt><trkpt lat="40.03536395884332" lon="8.520866701766545"><ele>60.0</ele><time>2026-05-02T07:58:23Z</time></trkpt><trkpt lat="40.035303852161604" lon="8.521056696440196"><ele>60.66666666666667</ele><time>2026-05-02T07:58:24Z</time></trkpt><trkpt lat="40.03527329282262" lon="8.521262526043433"><ele>61.333333333333336</ele><time>2026-05-02T07:58:25Z</time></trkpt><trkpt lat="40.035211569182486" lon="8.521444064621996"><ele>62.0</ele><time>2026-05-02T07:58:26Z</time></trkpt><trkpt lat="40.03515396921829" lon="8.521620621128688"><ele>62.0</ele><time>2026-05-02T07:58:27Z</time></trkpt><trkpt lat="40.03508750507826" lon="8.521791729958268"><ele>62.0</ele><time>2026-05-02T07:58:28Z</time></trkpt><trkpt lat="40.03501098417457" lon="8.521969238659235"><ele>62.0</ele><time>2026-05-02T07:58:29Z</time></trkpt><trkpt lat="40.034932488690735" lon="8.522149562507456"><ele>63.0</ele><time>2026-05-02T07:58:30Z</time></trkpt><trkpt lat="40.034861276427606" lon="8.522311316806444"><ele>64.0</ele><time>2026-05-02T07:58:31Z</time></trkpt><trkpt lat="40.03482107983962" lon="8.522479768160773"><ele>65.0</ele><time>2026-05-02T07:58:32Z</time></trkpt><trkpt lat="40.03477949584444" lon="8.522660175462203"><ele>66.0</ele><time>2026-05-02T07:58:33Z</time></trkpt><trkpt lat="40.03475232118769" lon="8.522849956316989"><ele>66.0</ele><time>2026-05-02T07:58:34Z</time></trkpt><trkpt lat="40.0347327638751" lon="8.523043898554782"><ele>66.0</ele><time>2026-05-02T07:58:35Z</time></trkpt><trkpt lat="40.03470953996771" lon="8.523241908765236"><ele>66.0</ele><time>2026-05-02T07:58:36Z</time></trkpt><trkpt lat="40.03468783970318" lon="8.523425773694202"><ele>66.0</ele><time>2026-05-02T07:58:37Z</time></trkpt><trkpt lat="40.03467435181552" lon="8.523574435280118"><ele>66.0</ele><time>2026-05-02T07:58:38Z</time></trkpt><trkpt lat="40.03467131469817" lon="8.523709352585016"><ele>66.0</ele><time>2026-05-02T07:58:39Z</time></trkpt><trkpt lat="40.03467950025528" lon="8.523849873624743"><ele>66.0</ele><time>2026-05-02T07:58:40Z</time></trkpt><trkpt lat="40.034704135338075" lon="8.523999129783325"><ele>66.0</ele><time>2026-05-02T07:58:41Z</time></trkpt><trkpt lat="40.03474273993145" lon="8.52416479637768"><ele>66.5</ele><time>2026-05-02T07:58:42Z</time></trkpt><trkpt lat="40.034787205657494" lon="8.524339566470289"><ele>67.0</ele><time>2026-05-02T07:58:43Z</time></trkpt><trkpt lat="40.03482930890489" lon="8.524519448308684"><ele>67.5</ele><time>2026-05-02T07:58:44Z</time></trkpt><trkpt lat="40.03486461904751" lon="8.52471608197679"><ele>68.0</ele><time>2026-05-02T07:58:45Z</time></trkpt><trkpt lat="40.034888943650785" lon="8.524931736123946"><ele>68.33333333333334</ele><time>2026-05-02T07:58:46Z</time></trkpt><trkpt lat="40.03491375734759" lon="8.525150620672878"><ele>68.66666666666667</ele><time>2026-05-02T07:58:47Z</time></trkpt><trkpt lat="40.03494437535528" lon="8.525352156263152"><ele>69.0</ele><time>2026-05-02T07:58:48Z</time></trkpt><trkpt lat="40.03497205548039" lon="8.525535541014413"><ele>68.0</ele><time>2026-05-02T07:58:49Z</time></trkpt><trkpt lat="40.03500987210777" lon="8.525697014729985"><ele>67.0</ele><time>2026-05-02T07:58:50Z</time></trkpt><trkpt lat="40.035069197594694" lon="8.525848435866621"><ele>66.0</ele><time>2026-05-02T07:58:51Z</time></trkpt><trkpt lat="40.035146921606945" lon="8.525988218587099"><ele>65.0</ele><time>2026-05-02T07:58:52Z</time></trkpt><trkpt lat="40.035231200484574" lon="8.526132206031637"><ele>64.5</ele><time>2026-05-02T07:58:53Z</time></trkpt><trkpt lat="40.035328092349125" lon="8.526274339740997"><ele>64.0</ele><time>2026-05-02T07:58:54Z</time></trkpt><trkpt lat="40.03542919603362" lon="8.526405999330072"><ele>63.5</ele><time>2026-05-02T07:58:55Z</time></trkpt><trkpt lat="40.03549649403471" lon="8.526502673179342"><ele>63.0</ele><time>2026-05-02T07:58:56Z</time></trkpt><trkpt lat="40.03552103441515" lon="8.526587296989689"><ele>63.0</ele><time>2026-05-02T07:58:58Z</time></trkpt><trkpt lat="40.03545563010557" lon="8.526450709898935"><ele>63.0</ele><time>2026-05-02T07:59:03Z</time></trkpt><trkpt lat="40.03537885765758" lon="8.526584493036799"><ele>63.0</ele><time>2026-05-02T07:59:05Z</time></trkpt><trkpt lat="40.03531324362411" lon="8.526656869729578"><ele>63.0</ele><time>2026-05-02T07:59:06Z</time></trkpt><trkpt lat="40.03525110049644" lon="8.526750428367752"><ele>63.0</ele><time>2026-05-02T07:59:07Z</time></trkpt><trkpt lat="40.03517798858727" lon="8.526862590303859"><ele>63.0</ele><time>2026-05-02T07:59:08Z</time></trkpt><trkpt lat="40.03511029316317" lon="8.527002853163358"><ele>63.0</ele><time>2026-05-02T07:59:09Z</time></trkpt><trkpt lat="40.035023546235784" lon="8.527146419275793"><ele>63.0</ele><time>2026-05-02T07:59:10Z</time></trkpt><trkpt lat="40.03493902138412" lon="8.527302150781338"><ele>63.0</ele><time>2026-05-02T07:59:11Z</time></trkpt><trkpt lat="40.03485390898814" lon="8.527470032241425"><ele>62.0</ele><time>2026-05-02T07:59:12Z</time></trkpt><trkpt lat="40.034782067659776" lon="8.52762986489254"><ele>61.0</ele><time>2026-05-02T07:59:13Z</time></trkpt><trkpt lat="40.034694254511905" lon="8.527779688835084"><ele>60.0</ele><time>2026-05-02T07:59:14Z</time></trkpt><trkpt lat="40.03460775805412" lon="8.527927371514398"><ele>59.0</ele><time>2026-05-02T07:59:15Z</time></trkpt><trkpt lat="40.034506453238606" lon="8.528083541856986"><ele>58.333333333333336</ele><time>2026-05-02T07:59:16Z</time></trkpt><trkpt lat="40.03441805581755" lon="8.528262412512072"><ele>57.66666666666667</ele><time>2026-05-02T07:59:17Z</time></trkpt><trkpt lat="40.03431315028612" lon="8.528436086659672"><ele>57.0</ele><time>2026-05-02T07:59:18Z</time></trkpt><trkpt lat="40.034213131983215" lon="8.52860640321023"><ele>56.5</ele><time>2026-05-02T07:59:19Z</time></trkpt><trkpt lat="40.03412470309752" lon="8.528762961909656"><ele>56.0</ele><time>2026-05-02T07:59:20Z</time></trkpt><trkpt lat="40.034051349462814" lon="8.528895807181796"><ele>55.5</ele><time>2026-05-02T07:59:21Z</time></trkpt><trkpt lat="40.03400123616306" lon="8.529005553014137"><ele>55.0</ele><time>2026-05-02T07:59:22Z</time></trkpt><trkpt lat="40.03397585644946" lon="8.529107313703362"><ele>55.0</ele><time>2026-05-02T07:59:23Z</time></trkpt><trkpt lat="40.0339773581208" lon="8.529215565727082"><ele>55.0</ele><time>2026-05-02T07:59:24Z</time></trkpt><trkpt lat="40.03397959700584" lon="8.529343857990128"><ele>55.0</ele><time>2026-05-02T07:59:25Z</time></trkpt><trkpt lat="40.03396782362402" lon="8.529503537009909"><ele>55.0</ele><time>2026-05-02T07:59:25.999Z</time></trkpt><trkpt lat="40.033945468787046" lon="8.529686012719004"><ele>55.0</ele><time>2026-05-02T07:59:26.999Z</time></trkpt><trkpt lat="40.03391738261433" lon="8.52986619766483"><ele>55.0</ele><time>2026-05-02T07:59:27.999Z</time></trkpt><trkpt lat="40.03388876193061" lon="8.530036872770092"><ele>55.0</ele><time>2026-05-02T07:59:28.999Z</time></trkpt><trkpt lat="40.0338666620959" lon="8.530204426172427"><ele>55.0</ele><time>2026-05-02T07:59:29.999Z</time></trkpt><trkpt lat="40.033860430287724" lon="8.53037469880841"><ele>55.0</ele><time>2026-05-02T07:59:30.999Z</time></trkpt><trkpt lat="40.03387280221333" lon="8.530544092442645"><ele>55.0</ele><time>2026-05-02T07:59:31.999Z</time></trkpt><trkpt lat="40.03389577193786" lon="8.53070104770107"><ele>55.0</ele><time>2026-05-02T07:59:32.999Z</time></trkpt><trkpt lat="40.03389546259262" lon="8.530840693452468"><ele>55.0</ele><time>2026-05-02T07:59:33.999Z</time></trkpt><trkpt lat="40.03386418676019" lon="8.53096975514329"><ele>55.0</ele><time>2026-05-02T07:59:34.999Z</time></trkpt><trkpt lat="40.03381711115708" lon="8.53110688505266"><ele>55.0</ele><time>2026-05-02T07:59:35.999Z</time></trkpt><trkpt lat="40.03376505849309" lon="8.531255794063034"><ele>55.75</ele><time>2026-05-02T07:59:36.999Z</time></trkpt><trkpt lat="40.03372198073409" lon="8.531406657912319"><ele>56.5</ele><time>2026-05-02T07:59:37.999Z</time></trkpt><trkpt lat="40.03368315076715" lon="8.531531838989649"><ele>57.25</ele><time>2026-05-02T07:59:38.999Z</time></trkpt><trkpt lat="40.03362108009729" lon="8.531635988807215"><ele>58.0</ele><time>2026-05-02T07:59:39.999Z</time></trkpt><trkpt lat="40.03351198292503" lon="8.531709763524141"><ele>58.0</ele><time>2026-05-02T07:59:40.999Z</time></trkpt><trkpt lat="40.033398351426925" lon="8.531810686556286"><ele>58.0</ele><time>2026-05-02T07:59:41.999Z</time></trkpt><trkpt lat="40.033266824592125" lon="8.531901316578237"><ele>58.0</ele><time>2026-05-02T07:59:42.999Z</time></trkpt><trkpt lat="40.033127178039486" lon="8.531966454060383"><ele>58.0</ele><time>2026-05-02T07:59:43.999Z</time></trkpt><trkpt lat="40.03296692618004" lon="8.53202917017551"><ele>58.33333333333333</ele><time>2026-05-02T07:59:44.999Z</time></trkpt><trkpt lat="40.03280005580858" lon="8.532107464403234"><ele>58.66666666666667</ele><time>2026-05-02T07:59:45.999Z</time></trkpt><trkpt lat="40.03264021659728" lon="8.532185038820712"><ele>59.0</ele><time>2026-05-02T07:59:46.999Z</time></trkpt><trkpt lat="40.03250557963748" lon="8.532255774522833"><ele>58.75</ele><time>2026-05-02T07:59:47.999Z</time></trkpt><trkpt lat="40.03239041110037" lon="8.532326341720237"><ele>58.5</ele><time>2026-05-02T07:59:48.999Z</time></trkpt><trkpt lat="40.03228851406875" lon="8.532442100768593"><ele>58.25</ele><time>2026-05-02T07:59:49.999Z</time></trkpt><trkpt lat="40.03216434465277" lon="8.532556289339505"><ele>58.0</ele><time>2026-05-02T07:59:50.999Z</time></trkpt><trkpt lat="40.03204080892681" lon="8.532694806351154"><ele>58.0</ele><time>2026-05-02T07:59:51.999Z</time></trkpt><trkpt lat="40.031920893653826" lon="8.532814501383307"><ele>58.0</ele><time>2026-05-02T07:59:52.999Z</time></trkpt><trkpt lat="40.03180895981139" lon="8.532914333085472"><ele>58.0</ele><time>2026-05-02T07:59:53.999Z</time></trkpt><trkpt lat="40.031708557931566" lon="8.532996541517734"><ele>58.0</ele><time>2026-05-02T07:59:54.999Z</time></trkpt><trkpt lat="40.031626844702586" lon="8.533053038669056"><ele>58.75</ele><time>2026-05-02T07:59:55.999Z</time></trkpt><trkpt lat="40.03155730026114" lon="8.533132312507668"><ele>59.5</ele><time>2026-05-02T07:59:57.999Z</time></trkpt><trkpt lat="40.0316302335878" lon="8.533052236054303"><ele>60.25</ele><time>2026-05-02T08:00:02.999Z</time></trkpt><trkpt lat="40.03158742472072" lon="8.533120598729315"><ele>61.0</ele><time>2026-05-02T08:00:05.999Z</time></trkpt><trkpt lat="40.031691155670046" lon="8.533366961683049"><ele>60.99999999999999</ele><time>2026-05-02T08:00:06.999Z</time></trkpt><trkpt lat="40.031694412487234" lon="8.533458354050799"><ele>61.0</ele><time>2026-05-02T08:00:07.999Z</time></trkpt><trkpt lat="40.03170088576207" lon="8.533562947150024"><ele>61.0</ele><time>2026-05-02T08:00:08.999Z</time></trkpt><trkpt lat="40.03171402743711" lon="8.533670442631065"><ele>61.0</ele><time>2026-05-02T08:00:09.999Z</time></trkpt><trkpt lat="40.03173227641189" lon="8.533785994170755"><ele>60.99999999999999</ele><time>2026-05-02T08:00:10.999Z</time></trkpt><trkpt lat="40.03174852913384" lon="8.533904070849449"><ele>61.0</ele><time>2026-05-02T08:00:11.999Z</time></trkpt><trkpt lat="40.031755638415014" lon="8.534024106913044"><ele>61.99999999999999</ele><time>2026-05-02T08:00:12.999Z</time></trkpt><trkpt lat="40.0317524650123" lon="8.5341432951358"><ele>63.0</ele><time>2026-05-02T08:00:13.999Z</time></trkpt><trkpt lat="40.03175332447567" lon="8.534254487887807"><ele>64.0</ele><time>2026-05-02T08:00:14.999Z</time></trkpt><trkpt lat="40.031757376567064" lon="8.53437073423522"><ele>65.0</ele><time>2026-05-02T08:00:15.999Z</time></trkpt><trkpt lat="40.0317657531486" lon="8.534490529636344"><ele>66.0</ele><time>2026-05-02T08:00:16.999Z</time></trkpt><trkpt lat="40.031769766274344" lon="8.534595700256386"><ele>67.0</ele><time>2026-05-02T08:00:17.999Z</time></trkpt><trkpt lat="40.031774790962025" lon="8.534694136084969"><ele>67.83333333333333</ele><time>2026-05-02T08:00:18.999Z</time></trkpt><trkpt lat="40.0317697366479" lon="8.534785955860267"><ele>68.66666666666666</ele><time>2026-05-02T08:00:20Z</time></trkpt><trkpt lat="40.031762623841345" lon="8.534877902496518"><ele>69.5</ele><time>2026-05-02T08:00:21Z</time></trkpt><trkpt lat="40.03177829778534" lon="8.534972872742522"><ele>70.33333333333333</ele><time>2026-05-02T08:00:22Z</time></trkpt><trkpt lat="40.03182071491435" lon="8.535066538683001"><ele>71.16666666666667</ele><time>2026-05-02T08:00:23Z</time></trkpt><trkpt lat="40.03186767462629" lon="8.53516518344003"><ele>72.0</ele><time>2026-05-02T08:00:24Z</time></trkpt><trkpt lat="40.03189673762828" lon="8.535271918621694"><ele>72.0</ele><time>2026-05-02T08:00:25Z</time></trkpt><trkpt lat="40.031927519579284" lon="8.535381738380668"><ele>72.0</ele><time>2026-05-02T08:00:26Z</time></trkpt><trkpt lat="40.031958006093504" lon="8.535485151174862"><ele>72.0</ele><time>2026-05-02T08:00:27Z</time></trkpt><trkpt lat="40.0319907525898" lon="8.535586512563816"><ele>72.0</ele><time>2026-05-02T08:00:28Z</time></trkpt><trkpt lat="40.03203048024256" lon="8.535681551109626"><ele>72.0</ele><time>2026-05-02T08:00:29Z</time></trkpt><trkpt lat="40.032070569069894" lon="8.53577815887118"><ele>72.0</ele><time>2026-05-02T08:00:30Z</time></trkpt><trkpt lat="40.03209988777519" lon="8.535865860473603"><ele>73.33333333333333</ele><time>2026-05-02T08:00:31Z</time></trkpt><trkpt lat="40.03212792038603" lon="8.535954520255405"><ele>74.66666666666667</ele><time>2026-05-02T08:00:32Z</time></trkpt><trkpt lat="40.03216101958713" lon="8.536053795851059"><ele>76.0</ele><time>2026-05-02T08:00:33Z</time></trkpt><trkpt lat="40.032200521770285" lon="8.536151397069787"><ele>77.33333333333334</ele><time>2026-05-02T08:00:34Z</time></trkpt><trkpt lat="40.032240879217355" lon="8.536254062803131"><ele>78.66666666666667</ele><time>2026-05-02T08:00:35Z</time></trkpt><trkpt lat="40.03227783997769" lon="8.536363649703715"><ele>80.0</ele><time>2026-05-02T08:00:36Z</time></trkpt><trkpt lat="40.032314075548776" lon="8.53647948466646"><ele>80.16666666666667</ele><time>2026-05-02T08:00:37Z</time></trkpt><trkpt lat="40.03234628538576" lon="8.53659187644671"><ele>80.33333333333334</ele><time>2026-05-02T08:00:38Z</time></trkpt><trkpt lat="40.03237271916071" lon="8.536701463523382"><ele>80.5</ele><time>2026-05-02T08:00:39Z</time></trkpt><trkpt lat="40.03239777530541" lon="8.536809193562755"><ele>80.66666666666667</ele><time>2026-05-02T08:00:40Z</time></trkpt><trkpt lat="40.03242412085541" lon="8.536897997767214"><ele>80.83333333333333</ele><time>2026-05-02T08:00:41Z</time></trkpt><trkpt lat="40.0325097368348" lon="8.536972056516792"><ele>81.0</ele><time>2026-05-02T08:00:43Z</time></trkpt><trkpt lat="40.0325774602359" lon="8.537074037916867"><ele>81.0</ele><time>2026-05-02T08:00:45Z</time></trkpt><trkpt lat="40.03265206387064" lon="8.537200303220269"><ele>81.0</ele><time>2026-05-02T08:00:47Z</time></trkpt><trkpt lat="40.032701131310205" lon="8.53725680091809"><ele>81.0</ele><time>2026-05-02T08:00:48Z</time></trkpt><trkpt lat="40.03275320131465" lon="8.537311421212388"><ele>81.0</ele><time>2026-05-02T08:00:49Z</time></trkpt><trkpt lat="40.032807469779506" lon="8.53736354055188"><ele>81.0</ele><time>2026-05-02T08:00:50Z</time></trkpt><trkpt lat="40.03286578131066" lon="8.537406798668377"><ele>81.0</ele><time>2026-05-02T08:00:51Z</time></trkpt><trkpt lat="40.03294204446586" lon="8.537443060591803"><ele>81.0</ele><time>2026-05-02T08:00:52Z</time></trkpt><trkpt lat="40.03303096047101" lon="8.537469472552056"><ele>81.0</ele><time>2026-05-02T08:00:53Z</time></trkpt><trkpt lat="40.033115047889666" lon="8.537508320726142"><ele>81.0</ele><time>2026-05-02T08:00:54Z</time></trkpt><trkpt lat="40.03319506002954" lon="8.537578989374877"><ele>81.0</ele><time>2026-05-02T08:00:55Z</time></trkpt><trkpt lat="40.03326726332028" lon="8.537640657117741"><ele>81.0</ele><time>2026-05-02T08:00:56Z</time></trkpt><trkpt lat="40.03336775694475" lon="8.537684334922071"><ele>81.19999999999999</ele><time>2026-05-02T08:00:57Z</time></trkpt><trkpt lat="40.03346813541966" lon="8.53772160055433"><ele>81.39999999999999</ele><time>2026-05-02T08:00:58Z</time></trkpt><trkpt lat="40.03355927069005" lon="8.537740655444955"><ele>81.6</ele><time>2026-05-02T08:00:59Z</time></trkpt><trkpt lat="40.033641374864686" lon="8.537742459417705"><ele>81.8</ele><time>2026-05-02T08:01:00Z</time></trkpt><trkpt lat="40.03372428185614" lon="8.537727940480123"><ele>82.0</ele><time>2026-05-02T08:01:01Z</time></trkpt><trkpt lat="40.033811317891015" lon="8.537715217647785"><ele>82.0</ele><time>2026-05-02T08:01:02Z</time></trkpt><trkpt lat="40.0338916725204" lon="8.537708242539166"><ele>82.0</ele><time>2026-05-02T08:01:03Z</time></trkpt><trkpt lat="40.03395609021177" lon="8.537701017764096"><ele>82.0</ele><time>2026-05-02T08:01:04Z</time></trkpt><trkpt lat="40.03407305017988" lon="8.537706392711376"><ele>82.0</ele><time>2026-05-02T08:01:06Z</time></trkpt><trkpt lat="40.03416069186264" lon="8.53776515010854"><ele>82.0</ele><time>2026-05-02T08:01:08Z</time></trkpt><trkpt lat="40.034211413566474" lon="8.53782758125524"><ele>82.0</ele><time>2026-05-02T08:01:11Z</time></trkpt><trkpt lat="40.03426385841776" lon="8.537873466546246"><ele>78.25</ele><time>2026-05-02T08:01:14Z</time></trkpt><trkpt lat="40.03431358852758" lon="8.53792527177705"><ele>74.5</ele><time>2026-05-02T08:01:16Z</time></trkpt><trkpt lat="40.034403017848966" lon="8.538003122995027"><ele>70.75</ele><time>2026-05-02T08:01:18Z</time></trkpt><trkpt lat="40.034546607026556" lon="8.538160546551447"><ele>67.0</ele><time>2026-05-02T08:01:20Z</time></trkpt><trkpt lat="40.03463360532066" lon="8.538266667919311"><ele>67.0</ele><time>2026-05-02T08:01:21Z</time></trkpt><trkpt lat="40.034726058545104" lon="8.538380519844646"><ele>67.0</ele><time>2026-05-02T08:01:22Z</time></trkpt><trkpt lat="40.03480421400399" lon="8.538474886915585"><ele>67.0</ele><time>2026-05-02T08:01:23Z</time></trkpt><trkpt lat="40.03486200581135" lon="8.538549117365678"><ele>67.0</ele><time>2026-05-02T08:01:24Z</time></trkpt><trkpt lat="40.03490728165536" lon="8.538608680246128"><ele>67.0</ele><time>2026-05-02T08:01:25Z</time></trkpt><trkpt lat="40.03494534235068" lon="8.538676655699305"><ele>67.0</ele><time>2026-05-02T08:01:26Z</time></trkpt><trkpt lat="40.03500519418488" lon="8.538720614196485"><ele>66.0</ele><time>2026-05-02T08:01:27Z</time></trkpt><trkpt lat="40.03509818798954" lon="8.53875147728139"><ele>65.0</ele><time>2026-05-02T08:01:28Z</time></trkpt><trkpt lat="40.03519323085431" lon="8.53881227581875"><ele>64.0</ele><time>2026-05-02T08:01:29Z</time></trkpt><trkpt lat="40.0352575847601" lon="8.53888836753879"><ele>63.0</ele><time>2026-05-02T08:01:29.999Z</time></trkpt><trkpt lat="40.035339409617094" lon="8.538958080783699"><ele>62.0</ele><time>2026-05-02T08:01:31.999Z</time></trkpt><trkpt lat="40.03543274506105" lon="8.539042868737521"><ele>62.0</ele><time>2026-05-02T08:01:33.999Z</time></trkpt><trkpt lat="40.035464503526654" lon="8.539126461880148"><ele>62.00000000000001</ele><time>2026-05-02T08:01:34.999Z</time></trkpt><trkpt lat="40.03549356248728" lon="8.539206021849033"><ele>62.0</ele><time>2026-05-02T08:01:35.999Z</time></trkpt><trkpt lat="40.035529263402374" lon="8.539284992605433"><ele>62.0</ele><time>2026-05-02T08:01:36.999Z</time></trkpt><trkpt lat="40.03556522183284" lon="8.539372973310378"><ele>62.00000000000001</ele><time>2026-05-02T08:01:37.999Z</time></trkpt><trkpt lat="40.03562310940231" lon="8.539459465136106"><ele>62.0</ele><time>2026-05-02T08:01:38.999Z</time></trkpt><trkpt lat="40.03562958773886" lon="8.539551581524954"><ele>62.0</ele><time>2026-05-02T08:01:39.999Z</time></trkpt><trkpt lat="40.035635712871816" lon="8.539638675282538"><ele>60.25</ele><time>2026-05-02T08:01:40.999Z</time></trkpt><trkpt lat="40.03555178289055" lon="8.539744475824119"><ele>58.5</ele><time>2026-05-02T08:01:41.999Z</time></trkpt><trkpt lat="40.0355014566034" lon="8.53986606424165"><ele>56.75</ele><time>2026-05-02T08:01:42.999Z</time></trkpt><trkpt lat="40.03543845233958" lon="8.540012226027775"><ele>55.0</ele><time>2026-05-02T08:01:43.999Z</time></trkpt><trkpt lat="40.03536923481658" lon="8.540182375442873"><ele>55.0</ele><time>2026-05-02T08:01:44.999Z</time></trkpt><trkpt lat="40.03525415105892" lon="8.540318399283832"><ele>55.0</ele><time>2026-05-02T08:01:45.999Z</time></trkpt><trkpt lat="40.03515968498474" lon="8.540461140876822"><ele>55.0</ele><time>2026-05-02T08:01:46.999Z</time></trkpt><trkpt lat="40.035102784655024" lon="8.540610010671825"><ele>55.0</ele><time>2026-05-02T08:01:47.999Z</time></trkpt><trkpt lat="40.035048940637914" lon="8.540754980760008"><ele>53.0</ele><time>2026-05-02T08:01:48.999Z</time></trkpt><trkpt lat="40.035016030801884" lon="8.540933343880521"><ele>51.0</ele><time>2026-05-02T08:01:49.999Z</time></trkpt><trkpt lat="40.03498677554423" lon="8.541143811359648"><ele>49.0</ele><time>2026-05-02T08:01:50.999Z</time></trkpt><trkpt lat="40.034917525251615" lon="8.541337902909683"><ele>47.75</ele><time>2026-05-02T08:01:51.999Z</time></trkpt><trkpt lat="40.03485732464861" lon="8.541523816267427"><ele>46.5</ele><time>2026-05-02T08:01:52.999Z</time></trkpt><trkpt lat="40.034818790631775" lon="8.541698228125968"><ele>45.25</ele><time>2026-05-02T08:01:53.999Z</time></trkpt><trkpt lat="40.034781985220654" lon="8.541867412660919"><ele>44.0</ele><time>2026-05-02T08:01:54.999Z</time></trkpt><trkpt lat="40.03475759983572" lon="8.542032921010664"><ele>43.5</ele><time>2026-05-02T08:01:55.999Z</time></trkpt><trkpt lat="40.03469404610474" lon="8.542168992841425"><ele>43.0</ele><time>2026-05-02T08:01:56.999Z</time></trkpt><trkpt lat="40.0346252024239" lon="8.542325104526705"><ele>42.5</ele><time>2026-05-02T08:01:57.999Z</time></trkpt><trkpt lat="40.03454555678705" lon="8.542497532619844"><ele>42.0</ele><time>2026-05-02T08:01:58.999Z</time></trkpt><trkpt lat="40.03445734016682" lon="8.542682479999236"><ele>42.0</ele><time>2026-05-02T08:01:59.999Z</time></trkpt><trkpt lat="40.03436894499474" lon="8.54286054122"><ele>42.0</ele><time>2026-05-02T08:02:00.999Z</time></trkpt><trkpt lat="40.034285153421486" lon="8.543021298730945"><ele>42.0</ele><time>2026-05-02T08:02:01.999Z</time></trkpt><trkpt lat="40.03420046688856" lon="8.543175508465236"><ele>40.333333333333336</ele><time>2026-05-02T08:02:02.999Z</time></trkpt><trkpt lat="40.034108049208506" lon="8.543336754748395"><ele>38.66666666666667</ele><time>2026-05-02T08:02:03.999Z</time></trkpt><trkpt lat="40.034010973304746" lon="8.543505377870733"><ele>37.0</ele><time>2026-05-02T08:02:04.999Z</time></trkpt><trkpt lat="40.03391701694004" lon="8.543664629308648"><ele>36.25</ele><time>2026-05-02T08:02:05.999Z</time></trkpt><trkpt lat="40.03382888610636" lon="8.543813559361805"><ele>35.5</ele><time>2026-05-02T08:02:06.999Z</time></trkpt><trkpt lat="40.03376271036329" lon="8.54397785186195"><ele>34.75</ele><time>2026-05-02T08:02:07.999Z</time></trkpt><trkpt lat="40.03369033373703" lon="8.544148232614022"><ele>34.0</ele><time>2026-05-02T08:02:08.999Z</time></trkpt><trkpt lat="40.033632176097235" lon="8.544335228481676"><ele>34.0</ele><time>2026-05-02T08:02:09.999Z</time></trkpt><trkpt lat="40.03358727505146" lon="8.54451117382873"><ele>34.0</ele><time>2026-05-02T08:02:10.999Z</time></trkpt><trkpt lat="40.03352271839775" lon="8.54465069857483"><ele>34.0</ele><time>2026-05-02T08:02:11.999Z</time></trkpt><trkpt lat="40.03345487568182" lon="8.544775286012513"><ele>34.0</ele><time>2026-05-02T08:02:12.999Z</time></trkpt><trkpt lat="40.03336341432925" lon="8.54490361912107"><ele>33.333333333333336</ele><time>2026-05-02T08:02:13.999Z</time></trkpt><trkpt lat="40.033263518538966" lon="8.545050471383185"><ele>32.666666666666664</ele><time>2026-05-02T08:02:14.999Z</time></trkpt><trkpt lat="40.033162523600595" lon="8.545207159227836"><ele>32.0</ele><time>2026-05-02T08:02:15.999Z</time></trkpt><trkpt lat="40.03305956090082" lon="8.545357402176649"><ele>31.5</ele><time>2026-05-02T08:02:16.999Z</time></trkpt><trkpt lat="40.032956420412134" lon="8.54548313290069"><ele>31.0</ele><time>2026-05-02T08:02:17.999Z</time></trkpt><trkpt lat="40.03284072571931" lon="8.545594550067886"><ele>30.5</ele><time>2026-05-02T08:02:18.999Z</time></trkpt><trkpt lat="40.03270655937757" lon="8.54569889280688"><ele>30.0</ele><time>2026-05-02T08:02:19.999Z</time></trkpt><trkpt lat="40.03255900948694" lon="8.545803466425912"><ele>29.75</ele><time>2026-05-02T08:02:20.999Z</time></trkpt><trkpt lat="40.0324206889111" lon="8.545901378744944"><ele>29.5</ele><time>2026-05-02T08:02:21.999Z</time></trkpt><trkpt lat="40.03229462185036" lon="8.545984354708017"><ele>29.25</ele><time>2026-05-02T08:02:22.999Z</time></trkpt><trkpt lat="40.03217513290371" lon="8.54604828632349"><ele>29.0</ele><time>2026-05-02T08:02:23.999Z</time></trkpt><trkpt lat="40.03204420082766" lon="8.546088956976375"><ele>29.0</ele><time>2026-05-02T08:02:24.999Z</time></trkpt><trkpt lat="40.03190021970426" lon="8.54612780196582"><ele>29.0</ele><time>2026-05-02T08:02:26Z</time></trkpt><trkpt lat="40.031755926871476" lon="8.546173077538784"><ele>29.0</ele><time>2026-05-02T08:02:27Z</time></trkpt><trkpt lat="40.03160599802671" lon="8.546223734289105"><ele>28.333333333333332</ele><time>2026-05-02T08:02:28Z</time></trkpt><trkpt lat="40.03145126520679" lon="8.54628305143569"><ele>27.666666666666664</ele><time>2026-05-02T08:02:29Z</time></trkpt><trkpt lat="40.03129855633588" lon="8.546344095630111"><ele>27.0</ele><time>2026-05-02T08:02:30Z</time></trkpt><trkpt lat="40.03115449654666" lon="8.546410243948502"><ele>27.0</ele><time>2026-05-02T08:02:31Z</time></trkpt><trkpt lat="40.03101890157924" lon="8.546498878929711"><ele>27.0</ele><time>2026-05-02T08:02:32Z</time></trkpt><trkpt lat="40.03089679435267" lon="8.546609134493382"><ele>27.0</ele><time>2026-05-02T08:02:33Z</time></trkpt><trkpt lat="40.0307715566787" lon="8.546725836294323"><ele>26.333333333333336</ele><time>2026-05-02T08:02:34Z</time></trkpt><trkpt lat="40.03063246362594" lon="8.546823412268862"><ele>25.666666666666668</ele><time>2026-05-02T08:02:35Z</time></trkpt><trkpt lat="40.030500051001376" lon="8.546942596036809"><ele>25.0</ele><time>2026-05-02T08:02:36Z</time></trkpt><trkpt lat="40.03037393004065" lon="8.547067461706412"><ele>24.666666666666668</ele><time>2026-05-02T08:02:37Z</time></trkpt><trkpt lat="40.03024814380392" lon="8.547188275730091"><ele>24.333333333333336</ele><time>2026-05-02T08:02:38Z</time></trkpt><trkpt lat="40.0301182596556" lon="8.54730759128896"><ele>24.0</ele><time>2026-05-02T08:02:39Z</time></trkpt><trkpt lat="40.0299899335593" lon="8.547431377485436"><ele>23.666666666666668</ele><time>2026-05-02T08:02:40Z</time></trkpt><trkpt lat="40.02986474501386" lon="8.547558534614943"><ele>23.333333333333336</ele><time>2026-05-02T08:02:41Z</time></trkpt><trkpt lat="40.02975775041213" lon="8.547704941453308"><ele>23.0</ele><time>2026-05-02T08:02:42Z</time></trkpt><trkpt lat="40.029649186527514" lon="8.547847368512016"><ele>22.666666666666668</ele><time>2026-05-02T08:02:43Z</time></trkpt><trkpt lat="40.02953693259728" lon="8.54798087085034"><ele>22.333333333333332</ele><time>2026-05-02T08:02:44Z</time></trkpt><trkpt lat="40.0294316287948" lon="8.548125458837232"><ele>22.0</ele><time>2026-05-02T08:02:45Z</time></trkpt><trkpt lat="40.02932457401547" lon="8.548268604599286"><ele>22.0</ele><time>2026-05-02T08:02:46Z</time></trkpt><trkpt lat="40.02922471572861" lon="8.548391786109548"><ele>22.0</ele><time>2026-05-02T08:02:47Z</time></trkpt><trkpt lat="40.029125075877374" lon="8.548499295680019"><ele>22.0</ele><time>2026-05-02T08:02:48Z</time></trkpt><trkpt lat="40.02901560142238" lon="8.548605737337418"><ele>22.0</ele><time>2026-05-02T08:02:49Z</time></trkpt><trkpt lat="40.02890511303358" lon="8.548696380056143"><ele>21.75</ele><time>2026-05-02T08:02:50Z</time></trkpt><trkpt lat="40.028780538735305" lon="8.548780305231634"><ele>21.5</ele><time>2026-05-02T08:02:51Z</time></trkpt><trkpt lat="40.028637372009875" lon="8.548867888890815"><ele>21.25</ele><time>2026-05-02T08:02:52Z</time></trkpt><trkpt lat="40.028501829635246" lon="8.54894622610899"><ele>21.0</ele><time>2026-05-02T08:02:53Z</time></trkpt><trkpt lat="40.02838374126284" lon="8.549012179757469"><ele>21.0</ele><time>2026-05-02T08:02:54Z</time></trkpt><trkpt lat="40.02828571091186" lon="8.549066930725973"><ele>21.0</ele><time>2026-05-02T08:02:55Z</time></trkpt><trkpt lat="40.02821489320678" lon="8.549106483188156"><ele>21.0</ele><time>2026-05-02T08:02:56Z</time></trkpt><trkpt lat="40.028145570292374" lon="8.549145200807235"><ele>21.0</ele><time>2026-05-02T08:02:58Z</time></trkpt><trkpt lat="40.02817640826333" lon="8.549370175057101"><ele>21.0</ele><time>2026-05-02T08:03:02Z</time></trkpt><trkpt lat="40.02824521132192" lon="8.549468758577389"><ele>21.0</ele><time>2026-05-02T08:03:03Z</time></trkpt><trkpt lat="40.02830051401582" lon="8.549585156206941"><ele>21.0</ele><time>2026-05-02T08:03:04Z</time></trkpt><trkpt lat="40.02836308166884" lon="8.549719127825233"><ele>21.0</ele><time>2026-05-02T08:03:05Z</time></trkpt><trkpt lat="40.02843328154082" lon="8.549856297112878"><ele>21.0</ele><time>2026-05-02T08:03:06Z</time></trkpt><trkpt lat="40.02850306482695" lon="8.550005656785823"><ele>21.0</ele><time>2026-05-02T08:03:07Z</time></trkpt><trkpt lat="40.028590059163356" lon="8.550160594112288"><ele>21.0</ele><time>2026-05-02T08:03:08Z</time></trkpt><trkpt lat="40.02869393384199" lon="8.550307222528895"><ele>21.0</ele><time>2026-05-02T08:03:09Z</time></trkpt><trkpt lat="40.028809180828375" lon="8.55046463865609"><ele>21.0</ele><time>2026-05-02T08:03:10Z</time></trkpt><trkpt lat="40.028921843788574" lon="8.550637625308738"><ele>21.0</ele><time>2026-05-02T08:03:11Z</time></trkpt><trkpt lat="40.0290245411874" lon="8.550817511412749"><ele>21.0</ele><time>2026-05-02T08:03:12Z</time></trkpt><trkpt lat="40.029131866989395" lon="8.550990347840317"><ele>21.0</ele><time>2026-05-02T08:03:13Z</time></trkpt><trkpt lat="40.029240526817055" lon="8.551149810271742"><ele>21.0</ele><time>2026-05-02T08:03:14Z</time></trkpt><trkpt lat="40.02935680164167" lon="8.551300254016951"><ele>21.0</ele><time>2026-05-02T08:03:15Z</time></trkpt><trkpt lat="40.0294869671022" lon="8.551439056254281"><ele>21.333333333333332</ele><time>2026-05-02T08:03:16Z</time></trkpt><trkpt lat="40.02962738483817" lon="8.551574705849069"><ele>21.666666666666664</ele><time>2026-05-02T08:03:17Z</time></trkpt><trkpt lat="40.029763883483675" lon="8.551720956520173"><ele>22.0</ele><time>2026-05-02T08:03:18Z</time></trkpt><trkpt lat="40.02989883324062" lon="8.55186460982063"><ele>23.333333333333332</ele><time>2026-05-02T08:03:19Z</time></trkpt><trkpt lat="40.03003647692483" lon="8.55201476132884"><ele>24.666666666666664</ele><time>2026-05-02T08:03:20Z</time></trkpt><trkpt lat="40.03015388629662" lon="8.552160249051742"><ele>26.0</ele><time>2026-05-02T08:03:21Z</time></trkpt><trkpt lat="40.030258930765406" lon="8.552298436788204"><ele>26.333333333333332</ele><time>2026-05-02T08:03:22Z</time></trkpt><trkpt lat="40.03037584263212" lon="8.552414137537605"><ele>26.666666666666664</ele><time>2026-05-02T08:03:23Z</time></trkpt><trkpt lat="40.03051332303053" lon="8.552503761807968"><ele>27.0</ele><time>2026-05-02T08:03:24Z</time></trkpt><trkpt lat="40.03065988719538" lon="8.552590965563706"><ele>27.0</ele><time>2026-05-02T08:03:25Z</time></trkpt><trkpt lat="40.03078784902024" lon="8.55270073404588"><ele>27.0</ele><time>2026-05-02T08:03:26Z</time></trkpt><trkpt lat="40.03088963105514" lon="8.552840025128255"><ele>27.0</ele><time>2026-05-02T08:03:27Z</time></trkpt><trkpt lat="40.03099386422701" lon="8.55300535133446"><ele>27.0</ele><time>2026-05-02T08:03:28Z</time></trkpt><trkpt lat="40.03109607063284" lon="8.55318363734859"><ele>27.0</ele><time>2026-05-02T08:03:29Z</time></trkpt><trkpt lat="40.03120143402111" lon="8.553361969893249"><ele>27.0</ele><time>2026-05-02T08:03:30Z</time></trkpt><trkpt lat="40.03130716198497" lon="8.553529738230699"><ele>27.0</ele><time>2026-05-02T08:03:31Z</time></trkpt><trkpt lat="40.03142167553703" lon="8.553688257321083"><ele>27.0</ele><time>2026-05-02T08:03:32Z</time></trkpt><trkpt lat="40.031534118276795" lon="8.553839669937373"><ele>27.0</ele><time>2026-05-02T08:03:33Z</time></trkpt><trkpt lat="40.03164674722456" lon="8.553990242285634"><ele>27.0</ele><time>2026-05-02T08:03:33.999Z</time></trkpt><trkpt lat="40.03175811555559" lon="8.554137931190521"><ele>27.0</ele><time>2026-05-02T08:03:34.999Z</time></trkpt><trkpt lat="40.03186769439361" lon="8.554294105995014"><ele>27.0</ele><time>2026-05-02T08:03:35.999Z</time></trkpt><trkpt lat="40.03197940033877" lon="8.554450917800688"><ele>27.0</ele><time>2026-05-02T08:03:36.999Z</time></trkpt><trkpt lat="40.03210017471313" lon="8.554603497338292"><ele>27.0</ele><time>2026-05-02T08:03:37.999Z</time></trkpt><trkpt lat="40.03222691289074" lon="8.554762094593281"><ele>27.0</ele><time>2026-05-02T08:03:38.999Z</time></trkpt><trkpt lat="40.03234788382555" lon="8.554912913650101"><ele>27.0</ele><time>2026-05-02T08:03:39.999Z</time></trkpt><trkpt lat="40.032459796601806" lon="8.55504383273698"><ele>27.0</ele><time>2026-05-02T08:03:40.999Z</time></trkpt><trkpt lat="40.032562549548665" lon="8.555163681728962"><ele>27.0</ele><time>2026-05-02T08:03:41.999Z</time></trkpt><trkpt lat="40.032666633803956" lon="8.555293021105534"><ele>27.0</ele><time>2026-05-02T08:03:42.999Z</time></trkpt><trkpt lat="40.03277188250175" lon="8.555442469560882"><ele>26.666666666666664</ele><time>2026-05-02T08:03:43.999Z</time></trkpt><trkpt lat="40.032870675173456" lon="8.555611994577006"><ele>26.333333333333332</ele><time>2026-05-02T08:03:44.999Z</time></trkpt><trkpt lat="40.03296674573256" lon="8.555774614847001"><ele>26.0</ele><time>2026-05-02T08:03:45.999Z</time></trkpt><trkpt lat="40.03307692166826" lon="8.555912978068134"><ele>26.0</ele><time>2026-05-02T08:03:46.999Z</time></trkpt><trkpt lat="40.03320490102657" lon="8.556035792585018"><ele>26.0</ele><time>2026-05-02T08:03:47.999Z</time></trkpt><trkpt lat="40.03333444031305" lon="8.556143699166622"><ele>26.0</ele><time>2026-05-02T08:03:48.999Z</time></trkpt><trkpt lat="40.03346628168888" lon="8.556257969504705"><ele>25.333333333333332</ele><time>2026-05-02T08:03:49.999Z</time></trkpt><trkpt lat="40.03359682746118" lon="8.556384523097789"><ele>24.666666666666664</ele><time>2026-05-02T08:03:50.999Z</time></trkpt><trkpt lat="40.03372571189855" lon="8.556520041314858"><ele>24.0</ele><time>2026-05-02T08:03:51.999Z</time></trkpt><trkpt lat="40.033859005178826" lon="8.556658905879766"><ele>24.0</ele><time>2026-05-02T08:03:52.999Z</time></trkpt><trkpt lat="40.03398668708273" lon="8.556797229725948"><ele>24.0</ele><time>2026-05-02T08:03:53.999Z</time></trkpt><trkpt lat="40.03411919876239" lon="8.5569304554776"><ele>24.0</ele><time>2026-05-02T08:03:54.999Z</time></trkpt><trkpt lat="40.034249606857735" lon="8.557058867497089"><ele>23.333333333333332</ele><time>2026-05-02T08:03:55.999Z</time></trkpt><trkpt lat="40.0343778422856" lon="8.557189921991709"><ele>22.666666666666664</ele><time>2026-05-02T08:03:56.999Z</time></trkpt><trkpt lat="40.03450219095009" lon="8.557327293639801"><ele>22.0</ele><time>2026-05-02T08:03:57.999Z</time></trkpt><trkpt lat="40.03462121108415" lon="8.557475525605572"><ele>22.0</ele><time>2026-05-02T08:03:58.999Z</time></trkpt><trkpt lat="40.03473322523932" lon="8.557635326818852"><ele>22.0</ele><time>2026-05-02T08:03:59.999Z</time></trkpt><trkpt lat="40.03484614250234" lon="8.557794437502587"><ele>22.0</ele><time>2026-05-02T08:04:00.999Z</time></trkpt><trkpt lat="40.034957916727635" lon="8.557940023640853"><ele>21.5</ele><time>2026-05-02T08:04:01.999Z</time></trkpt><trkpt lat="40.035066367544495" lon="8.558056265331647"><ele>21.0</ele><time>2026-05-02T08:04:02.999Z</time></trkpt><trkpt lat="40.035187321629685" lon="8.558156536414568"><ele>20.5</ele><time>2026-05-02T08:04:03.999Z</time></trkpt><trkpt lat="40.03531141686956" lon="8.558237771017305"><ele>20.0</ele><time>2026-05-02T08:04:04.999Z</time></trkpt><trkpt lat="40.03542087599121" lon="8.558300953211116"><ele>20.0</ele><time>2026-05-02T08:04:05.999Z</time></trkpt><trkpt lat="40.03550897203198" lon="8.558366871536597"><ele>20.0</ele><time>2026-05-02T08:04:06.999Z</time></trkpt><trkpt lat="40.035556607160274" lon="8.558461739873053"><ele>20.0</ele><time>2026-05-02T08:04:07.999Z</time></trkpt><trkpt lat="40.03563502717919" lon="8.55854498334947"><ele>20.0</ele><time>2026-05-02T08:04:08.999Z</time></trkpt><trkpt lat="40.03571943310285" lon="8.558692228742153"><ele>20.0</ele><time>2026-05-02T08:04:09.999Z</time></trkpt><trkpt lat="40.035824198593865" lon="8.558831833202172"><ele>20.5</ele><time>2026-05-02T08:04:10.999Z</time></trkpt><trkpt lat="40.035926493041615" lon="8.558953549681673"><ele>21.0</ele><time>2026-05-02T08:04:11.999Z</time></trkpt><trkpt lat="40.036016575295065" lon="8.559046849583153"><ele>21.5</ele><time>2026-05-02T08:04:12.999Z</time></trkpt><trkpt lat="40.036110566885235" lon="8.559132411754847"><ele>22.0</ele><time>2026-05-02T08:04:13.999Z</time></trkpt><trkpt lat="40.03622871607248" lon="8.559206698416103"><ele>22.0</ele><time>2026-05-02T08:04:14.999Z</time></trkpt><trkpt lat="40.036368124124714" lon="8.559274016239165"><ele>22.0</ele><time>2026-05-02T08:04:15.999Z</time></trkpt><trkpt lat="40.03649716174151" lon="8.55936877636317"><ele>22.0</ele><time>2026-05-02T08:04:16.999Z</time></trkpt><trkpt lat="40.036608855199276" lon="8.559493493853626"><ele>22.0</ele><time>2026-05-02T08:04:17.999Z</time></trkpt><trkpt lat="40.036718218591176" lon="8.55962477273311"><ele>22.333333333333332</ele><time>2026-05-02T08:04:18.999Z</time></trkpt><trkpt lat="40.036832195844525" lon="8.559750287535792"><ele>22.666666666666668</ele><time>2026-05-02T08:04:19.999Z</time></trkpt><trkpt lat="40.03693989453712" lon="8.5598887413721"><ele>23.0</ele><time>2026-05-02T08:04:20.999Z</time></trkpt><trkpt lat="40.037044584578126" lon="8.560041367303374"><ele>23.0</ele><time>2026-05-02T08:04:21.999Z</time></trkpt><trkpt lat="40.03714176601485" lon="8.56020804077895"><ele>23.0</ele><time>2026-05-02T08:04:22.999Z</time></trkpt><trkpt lat="40.03724091388145" lon="8.560381896036933"><ele>23.0</ele><time>2026-05-02T08:04:23.999Z</time></trkpt><trkpt lat="40.03735580245265" lon="8.56055350269816"><ele>22.333333333333336</ele><time>2026-05-02T08:04:24.999Z</time></trkpt><trkpt lat="40.03748113705305" lon="8.560722044323143"><ele>21.666666666666668</ele><time>2026-05-02T08:04:25.999Z</time></trkpt><trkpt lat="40.0376022522928" lon="8.560890843564113"><ele>21.0</ele><time>2026-05-02T08:04:26.999Z</time></trkpt><trkpt lat="40.03772473159905" lon="8.56105380454954"><ele>20.333333333333332</ele><time>2026-05-02T08:04:27.999Z</time></trkpt><trkpt lat="40.037845145138185" lon="8.56120573666336"><ele>19.666666666666664</ele><time>2026-05-02T08:04:28.999Z</time></trkpt><trkpt lat="40.037961764950985" lon="8.561337130522034"><ele>19.0</ele><time>2026-05-02T08:04:29.999Z</time></trkpt><trkpt lat="40.038084569073774" lon="8.561452643078546"><ele>19.0</ele><time>2026-05-02T08:04:30.999Z</time></trkpt><trkpt lat="40.038215130990224" lon="8.561566788447886"><ele>19.0</ele><time>2026-05-02T08:04:32Z</time></trkpt><trkpt lat="40.03834911615835" lon="8.561686786691673"><ele>19.0</ele><time>2026-05-02T08:04:33Z</time></trkpt><trkpt lat="40.03848514076214" lon="8.561806936457133"><ele>19.0</ele><time>2026-05-02T08:04:34Z</time></trkpt><trkpt lat="40.038623465711815" lon="8.561929056643983"><ele>19.0</ele><time>2026-05-02T08:04:35Z</time></trkpt><trkpt lat="40.03876569571713" lon="8.562049055469922"><ele>19.0</ele><time>2026-05-02T08:04:36Z</time></trkpt><trkpt lat="40.03889471014241" lon="8.562158713543893"><ele>19.0</ele><time>2026-05-02T08:04:37Z</time></trkpt><trkpt lat="40.0390041651985" lon="8.562274449967651"><ele>19.0</ele><time>2026-05-02T08:04:38Z</time></trkpt><trkpt lat="40.03907548210219" lon="8.562398297208377"><ele>19.0</ele><time>2026-05-02T08:04:39Z</time></trkpt><trkpt lat="40.03914477819653" lon="8.562535873853856"><ele>19.0</ele><time>2026-05-02T08:04:40Z</time></trkpt><trkpt lat="40.03922981088026" lon="8.562685738734197"><ele>19.5</ele><time>2026-05-02T08:04:41Z</time></trkpt><trkpt lat="40.039310875377566" lon="8.56282926155692"><ele>20.0</ele><time>2026-05-02T08:04:42Z</time></trkpt><trkpt lat="40.03939491892766" lon="8.562952102700319"><ele>20.5</ele><time>2026-05-02T08:04:43Z</time></trkpt><trkpt lat="40.03949588082624" lon="8.56307277078007"><ele>21.0</ele><time>2026-05-02T08:04:44Z</time></trkpt><trkpt lat="40.039601493956795" lon="8.563185876868078"><ele>21.25</ele><time>2026-05-02T08:04:45Z</time></trkpt><trkpt lat="40.0397072459935" lon="8.563286821665391"><ele>21.5</ele><time>2026-05-02T08:04:46Z</time></trkpt><trkpt lat="40.03981361992704" lon="8.563363822915594"><ele>21.75</ele><time>2026-05-02T08:04:47Z</time></trkpt><trkpt lat="40.03991869297464" lon="8.56341128316669"><ele>22.0</ele><time>2026-05-02T08:04:48Z</time></trkpt><trkpt lat="40.04000432541867" lon="8.563452884570427"><ele>22.0</ele><time>2026-05-02T08:04:49Z</time></trkpt><trkpt lat="40.040062916505164" lon="8.563489665581523"><ele>22.0</ele><time>2026-05-02T08:04:50Z</time></trkpt><trkpt lat="40.040126227580245" lon="8.563526999675195"><ele>22.0</ele><time>2026-05-02T08:04:53Z</time></trkpt><trkpt lat="40.040199565091655" lon="8.563557272649525"><ele>22.0</ele><time>2026-05-02T08:04:55Z</time></trkpt><trkpt lat="40.04023751746686" lon="8.563642791720952"><ele>22.0</ele><time>2026-05-02T08:04:56Z</time></trkpt><trkpt lat="40.04036772786731" lon="8.563679940354591"><ele>22.0</ele><time>2026-05-02T08:04:57Z</time></trkpt><trkpt lat="40.04048438853972" lon="8.563738283376795"><ele>22.0</ele><time>2026-05-02T08:04:58Z</time></trkpt><trkpt lat="40.040603165843876" lon="8.563796500039658"><ele>22.0</ele><time>2026-05-02T08:04:59Z</time></trkpt><trkpt lat="40.04073110485012" lon="8.563888956298728"><ele>22.0</ele><time>2026-05-02T08:05:00Z</time></trkpt><trkpt lat="40.04086194730034" lon="8.563995249986588"><ele>22.0</ele><time>2026-05-02T08:05:01Z</time></trkpt><trkpt lat="40.04100422729365" lon="8.564096005055923"><ele>22.333333333333332</ele><time>2026-05-02T08:05:02Z</time></trkpt><trkpt lat="40.04115792299578" lon="8.564194732312862"><ele>22.666666666666668</ele><time>2026-05-02T08:05:03Z</time></trkpt><trkpt lat="40.041322302811864" lon="8.564285361755482"><ele>23.0</ele><time>2026-05-02T08:05:04Z</time></trkpt><trkpt lat="40.04148903003613" lon="8.564377014363613"><ele>23.666666666666668</ele><time>2026-05-02T08:05:05Z</time></trkpt><trkpt lat="40.04166358849649" lon="8.564472411228913"><ele>24.333333333333336</ele><time>2026-05-02T08:05:06Z</time></trkpt><trkpt lat="40.04183423663956" lon="8.564576221080827"><ele>25.0</ele><time>2026-05-02T08:05:07Z</time></trkpt><trkpt lat="40.04199597700821" lon="8.564675340613245"><ele>25.0</ele><time>2026-05-02T08:05:08Z</time></trkpt><trkpt lat="40.0421391258852" lon="8.56476304640727"><ele>25.0</ele><time>2026-05-02T08:05:09Z</time></trkpt><trkpt lat="40.04226398473348" lon="8.564825877687204"><ele>25.0</ele><time>2026-05-02T08:05:10Z</time></trkpt><trkpt lat="40.04237055723261" lon="8.56487144797392"><ele>25.0</ele><time>2026-05-02T08:05:11Z</time></trkpt><trkpt lat="40.04245725054311" lon="8.56489987782391"><ele>25.4</ele><time>2026-05-02T08:05:12Z</time></trkpt><trkpt lat="40.042542429686556" lon="8.564927826535989"><ele>25.8</ele><time>2026-05-02T08:05:13Z</time></trkpt><trkpt lat="40.042634034853805" lon="8.564960773639275"><ele>26.200000000000003</ele><time>2026-05-02T08:05:14Z</time></trkpt><trkpt lat="40.04273947420238" lon="8.56501064927869"><ele>26.6</ele><time>2026-05-02T08:05:15Z</time></trkpt><trkpt lat="40.04285679873271" lon="8.565079045733649"><ele>27.0</ele><time>2026-05-02T08:05:16Z</time></trkpt><trkpt lat="40.042980893337464" lon="8.565160360366086"><ele>27.0</ele><time>2026-05-02T08:05:17Z</time></trkpt><trkpt lat="40.043108444937985" lon="8.565234435931409"><ele>27.0</ele><time>2026-05-02T08:05:18Z</time></trkpt><trkpt lat="40.04321976829368" lon="8.565306470783682"><ele>27.0</ele><time>2026-05-02T08:05:19Z</time></trkpt><trkpt lat="40.04330881143553" lon="8.565394269195734"><ele>27.0</ele><time>2026-05-02T08:05:20Z</time></trkpt><trkpt lat="40.04337600425103" lon="8.565511280750433"><ele>27.25</ele><time>2026-05-02T08:05:21Z</time></trkpt><trkpt lat="40.04342266417857" lon="8.56566089472368"><ele>27.5</ele><time>2026-05-02T08:05:22Z</time></trkpt><trkpt lat="40.04345507845096" lon="8.565822557850822"><ele>27.75</ele><time>2026-05-02T08:05:23Z</time></trkpt><trkpt lat="40.0435069573702" lon="8.565981654433998"><ele>28.0</ele><time>2026-05-02T08:05:24Z</time></trkpt><trkpt lat="40.0435865298325" lon="8.566128430813611"><ele>28.0</ele><time>2026-05-02T08:05:25Z</time></trkpt><trkpt lat="40.0436864925787" lon="8.566266975440454"><ele>28.0</ele><time>2026-05-02T08:05:26Z</time></trkpt><trkpt lat="40.04379383505166" lon="8.566402464792498"><ele>28.0</ele><time>2026-05-02T08:05:27Z</time></trkpt><trkpt lat="40.043905352637665" lon="8.566540268964422"><ele>28.0</ele><time>2026-05-02T08:05:28Z</time></trkpt><trkpt lat="40.04401917812394" lon="8.566673819829433"><ele>28.333333333333336</ele><time>2026-05-02T08:05:29Z</time></trkpt><trkpt lat="40.04413596774386" lon="8.566806278497966"><ele>28.666666666666664</ele><time>2026-05-02T08:05:30Z</time></trkpt><trkpt lat="40.044259014131676" lon="8.566930987206813"><ele>29.0</ele><time>2026-05-02T08:05:31Z</time></trkpt><trkpt lat="40.04438351375693" lon="8.567024745792091"><ele>29.2</ele><time>2026-05-02T08:05:32Z</time></trkpt><trkpt lat="40.04450535994295" lon="8.567075315988607"><ele>29.4</ele><time>2026-05-02T08:05:33Z</time></trkpt><trkpt lat="40.044622743160446" lon="8.567098671219625"><ele>29.6</ele><time>2026-05-02T08:05:34Z</time></trkpt><trkpt lat="40.044725302968466" lon="8.56712896486508"><ele>29.8</ele><time>2026-05-02T08:05:35Z</time></trkpt><trkpt lat="40.044815992813724" lon="8.567170816084529"><ele>30.0</ele><time>2026-05-02T08:05:36Z</time></trkpt><trkpt lat="40.04489804899012" lon="8.567210323636322"><ele>30.2</ele><time>2026-05-02T08:05:36.999Z</time></trkpt><trkpt lat="40.04497507109023" lon="8.567247771666157"><ele>30.4</ele><time>2026-05-02T08:05:37.999Z</time></trkpt><trkpt lat="40.045053795103" lon="8.567294710485474"><ele>30.6</ele><time>2026-05-02T08:05:38.999Z</time></trkpt><trkpt lat="40.04514860870425" lon="8.567364477482062"><ele>30.8</ele><time>2026-05-02T08:05:39.999Z</time></trkpt><trkpt lat="40.04525865963511" lon="8.567460483852692"><ele>31.0</ele><time>2026-05-02T08:05:40.999Z</time></trkpt><trkpt lat="40.045364716873834" lon="8.56758623515213"><ele>31.0</ele><time>2026-05-02T08:05:41.999Z</time></trkpt><trkpt lat="40.045452891372335" lon="8.567746518426661"><ele>31.0</ele><time>2026-05-02T08:05:42.999Z</time></trkpt><trkpt lat="40.04553434737636" lon="8.567904803698703"><ele>31.0</ele><time>2026-05-02T08:05:43.999Z</time></trkpt><trkpt lat="40.04561505296001" lon="8.568058415850198"><ele>31.0</ele><time>2026-05-02T08:05:44.999Z</time></trkpt><trkpt lat="40.0456885439042" lon="8.56821524523475"><ele>31.25</ele><time>2026-05-02T08:05:45.999Z</time></trkpt><trkpt lat="40.04575747875703" lon="8.568381819401422"><ele>31.5</ele><time>2026-05-02T08:05:46.999Z</time></trkpt><trkpt lat="40.04582511625377" lon="8.568533652380141"><ele>31.75</ele><time>2026-05-02T08:05:47.999Z</time></trkpt><trkpt lat="40.04590352901984" lon="8.568654253436915"><ele>32.0</ele><time>2026-05-02T08:05:48.999Z</time></trkpt><trkpt lat="40.04600821764067" lon="8.568739982025749"><ele>32.5</ele><time>2026-05-02T08:05:49.999Z</time></trkpt><trkpt lat="40.04613057340496" lon="8.568795763170327"><ele>33.0</ele><time>2026-05-02T08:05:50.999Z</time></trkpt><trkpt lat="40.04625092426145" lon="8.568858128670316"><ele>33.5</ele><time>2026-05-02T08:05:51.999Z</time></trkpt><trkpt lat="40.04637230309797" lon="8.56893862885947"><ele>34.0</ele><time>2026-05-02T08:05:52.999Z</time></trkpt><trkpt lat="40.04649864520609" lon="8.569015553741876"><ele>34.5</ele><time>2026-05-02T08:05:53.999Z</time></trkpt><trkpt lat="40.04663071369505" lon="8.569087746895473"><ele>35.0</ele><time>2026-05-02T08:05:54.999Z</time></trkpt><trkpt lat="40.046766533903735" lon="8.569156507275071"><ele>35.5</ele><time>2026-05-02T08:05:55.999Z</time></trkpt><trkpt lat="40.04690751688259" lon="8.5692085911353"><ele>36.0</ele><time>2026-05-02T08:05:56.999Z</time></trkpt><trkpt lat="40.0470486521356" lon="8.569239738465113"><ele>36.0</ele><time>2026-05-02T08:05:57.999Z</time></trkpt><trkpt lat="40.04717147164525" lon="8.569271537678917"><ele>36.0</ele><time>2026-05-02T08:05:58.999Z</time></trkpt><trkpt lat="40.04727848948339" lon="8.569315165519116"><ele>36.0</ele><time>2026-05-02T08:05:59.999Z</time></trkpt><trkpt lat="40.04737292011374" lon="8.569367794134035"><ele>36.0</ele><time>2026-05-02T08:06:00.999Z</time></trkpt><trkpt lat="40.04745461762054" lon="8.569421368020604"><ele>36.0</ele><time>2026-05-02T08:06:01.999Z</time></trkpt><trkpt lat="40.04752755358836" lon="8.569463301100711"><ele>36.4</ele><time>2026-05-02T08:06:02.999Z</time></trkpt><trkpt lat="40.0475951372437" lon="8.56950234561018"><ele>36.8</ele><time>2026-05-02T08:06:03.999Z</time></trkpt><trkpt lat="40.04770787901897" lon="8.569566925215808"><ele>37.199999999999996</ele><time>2026-05-02T08:06:05.999Z</time></trkpt><trkpt lat="40.04781816381846" lon="8.569599855175621"><ele>37.6</ele><time>2026-05-02T08:06:07.999Z</time></trkpt><trkpt lat="40.047885913518" lon="8.569620641680102"><ele>38.0</ele><time>2026-05-02T08:06:08.999Z</time></trkpt><trkpt lat="40.0479836033286" lon="8.569648128050531"><ele>38.0</ele><time>2026-05-02T08:06:09.999Z</time></trkpt><trkpt lat="40.04810010293183" lon="8.569682042217018"><ele>38.0</ele><time>2026-05-02T08:06:10.999Z</time></trkpt><trkpt lat="40.04822261919313" lon="8.569717264208782"><ele>38.0</ele><time>2026-05-02T08:06:11.999Z</time></trkpt><trkpt lat="40.04835277791846" lon="8.569752623979884"><ele>38.0</ele><time>2026-05-02T08:06:12.999Z</time></trkpt><trkpt lat="40.04848852005704" lon="8.56978033652976"><ele>38.75</ele><time>2026-05-02T08:06:13.999Z</time></trkpt><trkpt lat="40.048632794188144" lon="8.569801010324234"><ele>39.5</ele><time>2026-05-02T08:06:14.999Z</time></trkpt><trkpt lat="40.04877593314574" lon="8.56982600005924"><ele>40.25</ele><time>2026-05-02T08:06:15.999Z</time></trkpt><trkpt lat="40.04892118188517" lon="8.569860959776735"><ele>41.0</ele><time>2026-05-02T08:06:16.999Z</time></trkpt><trkpt lat="40.04906156159213" lon="8.56992218144032"><ele>42.25</ele><time>2026-05-02T08:06:17.999Z</time></trkpt><trkpt lat="40.049187883803626" lon="8.569992946091036"><ele>43.5</ele><time>2026-05-02T08:06:18.999Z</time></trkpt><trkpt lat="40.04929117895756" lon="8.570069985970806"><ele>44.75</ele><time>2026-05-02T08:06:19.999Z</time></trkpt><trkpt lat="40.04935164233405" lon="8.570199052140989"><ele>46.0</ele><time>2026-05-02T08:06:20.999Z</time></trkpt><trkpt lat="40.04940325470209" lon="8.57035733850752"><ele>45.75</ele><time>2026-05-02T08:06:21.999Z</time></trkpt><trkpt lat="40.049478582065866" lon="8.570511209292139"><ele>45.5</ele><time>2026-05-02T08:06:22.999Z</time></trkpt><trkpt lat="40.04954659505939" lon="8.570673845747425"><ele>45.25</ele><time>2026-05-02T08:06:23.999Z</time></trkpt><trkpt lat="40.049637877100416" lon="8.57082180947971"><ele>45.0</ele><time>2026-05-02T08:06:24.999Z</time></trkpt><trkpt lat="40.04974178238286" lon="8.570960574267104"><ele>45.0</ele><time>2026-05-02T08:06:25.999Z</time></trkpt><trkpt lat="40.049848811141715" lon="8.571094531283542"><ele>45.0</ele><time>2026-05-02T08:06:26.999Z</time></trkpt><trkpt lat="40.049959674447585" lon="8.571226700729254"><ele>45.0</ele><time>2026-05-02T08:06:27.999Z</time></trkpt><trkpt lat="40.0500651776181" lon="8.57136354297992"><ele>45.0</ele><time>2026-05-02T08:06:28.999Z</time></trkpt><trkpt lat="40.05015901923477" lon="8.57149207979724"><ele>45.5</ele><time>2026-05-02T08:06:29.999Z</time></trkpt><trkpt lat="40.05022161544892" lon="8.571640532091402"><ele>46.0</ele><time>2026-05-02T08:06:30.999Z</time></trkpt><trkpt lat="40.050304237567175" lon="8.571791562834951"><ele>46.5</ele><time>2026-05-02T08:06:31.999Z</time></trkpt><trkpt lat="40.050370372011244" lon="8.571957430571251"><ele>47.0</ele><time>2026-05-02T08:06:32.999Z</time></trkpt><trkpt lat="40.050429943268476" lon="8.572111790952425"><ele>47.0</ele><time>2026-05-02T08:06:33.999Z</time></trkpt><trkpt lat="40.0504768104175" lon="8.572260431908184"><ele>47.0</ele><time>2026-05-02T08:06:34.999Z</time></trkpt><trkpt lat="40.050524948293855" lon="8.572399083489639"><ele>47.0</ele><time>2026-05-02T08:06:35.999Z</time></trkpt><trkpt lat="40.05059947441864" lon="8.572522863962742"><ele>47.0</ele><time>2026-05-02T08:06:36.999Z</time></trkpt><trkpt lat="40.05070796474125" lon="8.572614251419106"><ele>48.25</ele><time>2026-05-02T08:06:38Z</time></trkpt><trkpt lat="40.05083006308726" lon="8.572678932462722"><ele>49.5</ele><time>2026-05-02T08:06:39Z</time></trkpt><trkpt lat="40.05096077444675" lon="8.572730354197073"><ele>50.75</ele><time>2026-05-02T08:06:40Z</time></trkpt><trkpt lat="40.05110197018856" lon="8.572770852109668"><ele>52.0</ele><time>2026-05-02T08:06:41Z</time></trkpt><trkpt lat="40.051244155379024" lon="8.572808228610786"><ele>52.0</ele><time>2026-05-02T08:06:42Z</time></trkpt><trkpt lat="40.05138250269197" lon="8.572855712832444"><ele>52.0</ele><time>2026-05-02T08:06:43Z</time></trkpt><trkpt lat="40.05152049331992" lon="8.572917555138716"><ele>52.0</ele><time>2026-05-02T08:06:44Z</time></trkpt><trkpt lat="40.051661330105915" lon="8.572980815544417"><ele>52.0</ele><time>2026-05-02T08:06:45Z</time></trkpt><trkpt lat="40.0518037810448" lon="8.573041705776072"><ele>52.666666666666664</ele><time>2026-05-02T08:06:46Z</time></trkpt><trkpt lat="40.05194907783693" lon="8.573093401545526"><ele>53.33333333333333</ele><time>2026-05-02T08:06:47Z</time></trkpt><trkpt lat="40.05210192272306" lon="8.573129921711644"><ele>54.0</ele><time>2026-05-02T08:06:48Z</time></trkpt><trkpt lat="40.05225639357604" lon="8.573139017570815"><ele>54.0</ele><time>2026-05-02T08:06:49Z</time></trkpt><trkpt lat="40.05241293841416" lon="8.573133165941549"><ele>54.0</ele><time>2026-05-02T08:06:50Z</time></trkpt><trkpt lat="40.05256680911665" lon="8.573130716016584"><ele>54.0</ele><time>2026-05-02T08:06:51Z</time></trkpt><trkpt lat="40.05272368668363" lon="8.57313101686452"><ele>55.66666666666667</ele><time>2026-05-02T08:06:52Z</time></trkpt><trkpt lat="40.052883578651866" lon="8.57312588236197"><ele>57.333333333333336</ele><time>2026-05-02T08:06:53Z</time></trkpt><trkpt lat="40.05304921502879" lon="8.573109872126107"><ele>59.0</ele><time>2026-05-02T08:06:54Z</time></trkpt><trkpt lat="40.05321408841944" lon="8.573083688645905"><ele>58.25</ele><time>2026-05-02T08:06:55Z</time></trkpt><trkpt lat="40.05336711887591" lon="8.573048651438116"><ele>57.5</ele><time>2026-05-02T08:06:56Z</time></trkpt><trkpt lat="40.05350433382928" lon="8.573037424588927"><ele>56.75</ele><time>2026-05-02T08:06:57Z</time></trkpt><trkpt lat="40.05364688573753" lon="8.573071507555232"><ele>56.0</ele><time>2026-05-02T08:06:58Z</time></trkpt><trkpt lat="40.05379366723693" lon="8.57313151476197"><ele>56.0</ele><time>2026-05-02T08:06:59Z</time></trkpt><trkpt lat="40.05394322315023" lon="8.573181389606356"><ele>56.0</ele><time>2026-05-02T08:07:00Z</time></trkpt><trkpt lat="40.054096103525794" lon="8.573229791529752"><ele>56.0</ele><time>2026-05-02T08:07:01Z</time></trkpt><trkpt lat="40.05424696144864" lon="8.573287454859122"><ele>57.0</ele><time>2026-05-02T08:07:02Z</time></trkpt><trkpt lat="40.05438046137491" lon="8.57340972716286"><ele>58.0</ele><time>2026-05-02T08:07:03Z</time></trkpt><trkpt lat="40.05451151390351" lon="8.573552412862995"><ele>59.0</ele><time>2026-05-02T08:07:04Z</time></trkpt><trkpt lat="40.054647142597275" lon="8.573703361272045"><ele>59.0</ele><time>2026-05-02T08:07:05Z</time></trkpt><trkpt lat="40.05478989953466" lon="8.573841184950188"><ele>59.0</ele><time>2026-05-02T08:07:06Z</time></trkpt><trkpt lat="40.054919112425154" lon="8.574002511785007"><ele>59.0</ele><time>2026-05-02T08:07:07Z</time></trkpt><trkpt lat="40.055043661570366" lon="8.574169332169982"><ele>58.66666666666667</ele><time>2026-05-02T08:07:08Z</time></trkpt><trkpt lat="40.055166476259295" lon="8.574335967999748"><ele>58.33333333333333</ele><time>2026-05-02T08:07:09Z</time></trkpt><trkpt lat="40.055282699488224" lon="8.574491702002918"><ele>58.0</ele><time>2026-05-02T08:07:10Z</time></trkpt><trkpt lat="40.05539307993756" lon="8.574625038677738"><ele>58.666666666666664</ele><time>2026-05-02T08:07:11Z</time></trkpt><trkpt lat="40.0555178111267" lon="8.574710600590631"><ele>59.33333333333333</ele><time>2026-05-02T08:07:12Z</time></trkpt><trkpt lat="40.05566896354739" lon="8.574748768119756"><ele>60.0</ele><time>2026-05-02T08:07:13Z</time></trkpt><trkpt lat="40.055822704463345" lon="8.574808250533085"><ele>60.75</ele><time>2026-05-02T08:07:14Z</time></trkpt><trkpt lat="40.05598262444925" lon="8.574881627344807"><ele>61.5</ele><time>2026-05-02T08:07:15Z</time></trkpt><trkpt lat="40.05611821221717" lon="8.574977830337899"><ele>62.25</ele><time>2026-05-02T08:07:16Z</time></trkpt><trkpt lat="40.0562243467737" lon="8.575046281555345"><ele>63.0</ele><time>2026-05-02T08:07:17Z</time></trkpt><trkpt lat="40.05628048465806" lon="8.575151428874248"><ele>63.0</ele><time>2026-05-02T08:07:18Z</time></trkpt><trkpt lat="40.05632419436221" lon="8.57525671455905"><ele>63.0</ele><time>2026-05-02T08:07:19Z</time></trkpt><trkpt lat="40.0562836538626" lon="8.575415043503986"><ele>63.0</ele><time>2026-05-02T08:07:20Z</time></trkpt><trkpt lat="40.05629414417275" lon="8.575579841169592"><ele>63.0</ele><time>2026-05-02T08:07:21Z</time></trkpt><trkpt lat="40.056290272996414" lon="8.575748705907369"><ele>63.0</ele><time>2026-05-02T08:07:22Z</time></trkpt><trkpt lat="40.056312415487085" lon="8.575921866900925"><ele>63.0</ele><time>2026-05-02T08:07:23Z</time></trkpt><trkpt lat="40.05630075277469" lon="8.576085425176842"><ele>63.0</ele><time>2026-05-02T08:07:24Z</time></trkpt><trkpt lat="40.05625559706721" lon="8.576213263736044"><ele>63.0</ele><time>2026-05-02T08:07:25Z</time></trkpt><trkpt lat="40.056209891285214" lon="8.576309039857165"><ele>63.2</ele><time>2026-05-02T08:07:26Z</time></trkpt><trkpt lat="40.05616895436848" lon="8.576380801714482"><ele>63.4</ele><time>2026-05-02T08:07:27Z</time></trkpt><trkpt lat="40.056122310245954" lon="8.576450026441703"><ele>63.60000000000001</ele><time>2026-05-02T08:07:28Z</time></trkpt><trkpt lat="40.05600834687169" lon="8.57645493182357"><ele>63.800000000000004</ele><time>2026-05-02T08:07:29Z</time></trkpt><trkpt lat="40.055917953136486" lon="8.576516572632833"><ele>64.0</ele><time>2026-05-02T08:07:30Z</time></trkpt><trkpt lat="40.055823111148676" lon="8.576581246759362"><ele>65.0</ele><time>2026-05-02T08:07:31Z</time></trkpt><trkpt lat="40.05572786858811" lon="8.576646135209941"><ele>66.0</ele><time>2026-05-02T08:07:32Z</time></trkpt><trkpt lat="40.055635713056525" lon="8.576705144883784"><ele>67.0</ele><time>2026-05-02T08:07:33Z</time></trkpt><trkpt lat="40.05553186909711" lon="8.576717861836274"><ele>68.0</ele><time>2026-05-02T08:07:34Z</time></trkpt><trkpt lat="40.05541453661155" lon="8.576702051333518"><ele>69.0</ele><time>2026-05-02T08:07:35Z</time></trkpt><trkpt lat="40.055294714690724" lon="8.576694313729032"><ele>69.0</ele><time>2026-05-02T08:07:36Z</time></trkpt><trkpt lat="40.05517017132403" lon="8.576681635667155"><ele>69.0</ele><time>2026-05-02T08:07:37Z</time></trkpt><trkpt lat="40.0550425801668" lon="8.576670303254012"><ele>69.0</ele><time>2026-05-02T08:07:38Z</time></trkpt><trkpt lat="40.05492071594555" lon="8.576667575402528"><ele>69.0</ele><time>2026-05-02T08:07:39Z</time></trkpt><trkpt lat="40.054802624903765" lon="8.57667031071401"><ele>70.60000000000001</ele><time>2026-05-02T08:07:40Z</time></trkpt><trkpt lat="40.05468708544254" lon="8.576677393227751"><ele>72.2</ele><time>2026-05-02T08:07:41Z</time></trkpt><trkpt lat="40.05457372395446" lon="8.576711693208846"><ele>73.80000000000001</ele><time>2026-05-02T08:07:41.999Z</time></trkpt><trkpt lat="40.05447029107844" lon="8.576723315280663"><ele>75.4</ele><time>2026-05-02T08:07:42.999Z</time></trkpt><trkpt lat="40.05438863184857" lon="8.576744949293118"><ele>77.0</ele><time>2026-05-02T08:07:43.999Z</time></trkpt><trkpt lat="40.054288188834086" lon="8.576800009340195"><ele>77.0</ele><time>2026-05-02T08:07:45.999Z</time></trkpt><trkpt lat="40.05428868425804" lon="8.57699319496772"><ele>77.0</ele><time>2026-05-02T08:07:47.999Z</time></trkpt><trkpt lat="40.05431240939648" lon="8.577122225361204"><ele>77.0</ele><time>2026-05-02T08:07:48.999Z</time></trkpt><trkpt lat="40.054318580567994" lon="8.577249250067718"><ele>77.0</ele><time>2026-05-02T08:07:49.999Z</time></trkpt><trkpt lat="40.054316665425766" lon="8.577338661927978"><ele>77.0</ele><time>2026-05-02T08:07:50.999Z</time></trkpt><trkpt lat="40.05428691879218" lon="8.577419223509237"><ele>77.2</ele><time>2026-05-02T08:07:52.999Z</time></trkpt><trkpt lat="40.054367526847585" lon="8.577548451208141"><ele>77.4</ele><time>2026-05-02T08:07:54.999Z</time></trkpt><trkpt lat="40.05442966831321" lon="8.577642521298186"><ele>77.6</ele><time>2026-05-02T08:07:55.999Z</time></trkpt><trkpt lat="40.054484666153435" lon="8.577738811350425"><ele>77.8</ele><time>2026-05-02T08:07:56.999Z</time></trkpt><trkpt lat="40.054522351742555" lon="8.577859570947643"><ele>78.0</ele><time>2026-05-02T08:07:58.999Z</time></trkpt><trkpt lat="40.05449677728194" lon="8.57772870304395"><ele>78.0</ele><time>2026-05-02T08:08:03.999Z</time></trkpt><trkpt lat="40.05442311021089" lon="8.577631509811456"><ele>78.0</ele><time>2026-05-02T08:08:04.999Z</time></trkpt><trkpt lat="40.0543666643426" lon="8.57753591760922"><ele>78.0</ele><time>2026-05-02T08:08:05.999Z</time></trkpt><trkpt lat="40.054322925217946" lon="8.577452347014185"><ele>78.0</ele><time>2026-05-02T08:08:06.999Z</time></trkpt><trkpt lat="40.05426721026493" lon="8.57736628518693"><ele>78.0</ele><time>2026-05-02T08:08:08.999Z</time></trkpt><trkpt lat="40.054209286976786" lon="8.577318925890932"><ele>78.0</ele><time>2026-05-02T08:08:11.999Z</time></trkpt><trkpt lat="40.05416017319042" lon="8.577222580095382"><ele>77.25</ele><time>2026-05-02T08:08:14.999Z</time></trkpt><trkpt lat="40.05411546742153" lon="8.577164118034373"><ele>76.5</ele><time>2026-05-02T08:08:16.999Z</time></trkpt><trkpt lat="40.05402775340357" lon="8.5771182324837"><ele>75.75</ele><time>2026-05-02T08:08:18.999Z</time></trkpt><trkpt lat="40.053961498893266" lon="8.57706098783554"><ele>75.0</ele><time>2026-05-02T08:08:20.999Z</time></trkpt><trkpt lat="40.05361928700833" lon="8.577257866146985"><ele>78.0</ele><time>2026-05-02T08:08:24.999Z</time></trkpt><trkpt lat="40.05423997669012" lon="8.577630960881525"><ele>78.0</ele><time>2026-05-02T08:08:27.999Z</time></trkpt><trkpt lat="40.05407772299221" lon="8.577465633691396"><ele>78.0</ele><time>2026-05-02T08:08:30.999Z</time></trkpt><trkpt lat="40.054103045820796" lon="8.577561260182874"><ele>78.0</ele><time>2026-05-02T08:08:32.999Z</time></trkpt><trkpt lat="40.05415076498779" lon="8.577656458954406"><ele>78.0</ele><time>2026-05-02T08:08:34.999Z</time></trkpt><trkpt lat="40.05416395305211" lon="8.577768838923229"><ele>78.8</ele><time>2026-05-02T08:08:36.999Z</time></trkpt><trkpt lat="40.05418643893931" lon="8.577941289298813"><ele>79.6</ele><time>2026-05-02T08:08:38.999Z</time></trkpt><trkpt lat="40.05419947940464" lon="8.578039682928184"><ele>80.39999999999999</ele><time>2026-05-02T08:08:39.999Z</time></trkpt><trkpt lat="40.05422731207187" lon="8.578167975805767"><ele>81.19999999999999</ele><time>2026-05-02T08:08:40.999Z</time></trkpt><trkpt lat="40.05423244752656" lon="8.578294496254333"><ele>82.0</ele><time>2026-05-02T08:08:41.999Z</time></trkpt><trkpt lat="40.05423571713181" lon="8.57842646399553"><ele>82.0</ele><time>2026-05-02T08:08:42.999Z</time></trkpt><trkpt lat="40.05423742265673" lon="8.578557890591785"><ele>82.0</ele><time>2026-05-02T08:08:44Z</time></trkpt><trkpt lat="40.05424664955544" lon="8.57868634185377"><ele>82.0</ele><time>2026-05-02T08:08:45Z</time></trkpt><trkpt lat="40.05425639048708" lon="8.57881448207242"><ele>82.0</ele><time>2026-05-02T08:08:46Z</time></trkpt><trkpt lat="40.05426246885572" lon="8.578948817327191"><ele>82.0</ele><time>2026-05-02T08:08:47Z</time></trkpt><trkpt lat="40.05427413084882" lon="8.579061146276503"><ele>82.5</ele><time>2026-05-02T08:08:48Z</time></trkpt><trkpt lat="40.054292773752636" lon="8.57915902691922"><ele>83.0</ele><time>2026-05-02T08:08:49Z</time></trkpt><trkpt lat="40.05431987107233" lon="8.57926268689391"><ele>83.5</ele><time>2026-05-02T08:08:50Z</time></trkpt><trkpt lat="40.05434554937363" lon="8.579367264642816"><ele>84.0</ele><time>2026-05-02T08:08:51Z</time></trkpt><trkpt lat="40.05437288798401" lon="8.579473369773982"><ele>84.5</ele><time>2026-05-02T08:08:52Z</time></trkpt><trkpt lat="40.05440223427831" lon="8.579579011736241"><ele>85.0</ele><time>2026-05-02T08:08:53Z</time></trkpt><trkpt lat="40.05442995037725" lon="8.579690900050974"><ele>85.75</ele><time>2026-05-02T08:08:54Z</time></trkpt><trkpt lat="40.05445534155207" lon="8.579814664801606"><ele>86.5</ele><time>2026-05-02T08:08:55Z</time></trkpt><trkpt lat="40.054481985712805" lon="8.579948723615306"><ele>87.25</ele><time>2026-05-02T08:08:56Z</time></trkpt><trkpt lat="40.05451094929185" lon="8.580101429061989"><ele>88.0</ele><time>2026-05-02T08:08:57Z</time></trkpt><trkpt lat="40.05455293271307" lon="8.580270713915573"><ele>89.33333333333333</ele><time>2026-05-02T08:08:58Z</time></trkpt><trkpt lat="40.054611212424575" lon="8.58046017252942"><ele>90.66666666666667</ele><time>2026-05-02T08:08:59Z</time></trkpt><trkpt lat="40.05467571092644" lon="8.580674882733959"><ele>92.0</ele><time>2026-05-02T08:09:00Z</time></trkpt><trkpt lat="40.0547546996194" lon="8.58091647458061"><ele>92.0</ele><time>2026-05-02T08:09:01Z</time></trkpt><trkpt lat="40.05483546670662" lon="8.581141598367209"><ele>92.0</ele><time>2026-05-02T08:09:02Z</time></trkpt><trkpt lat="40.05487529771177" lon="8.581348960061218"><ele>92.0</ele><time>2026-05-02T08:09:03Z</time></trkpt><trkpt lat="40.05492624404354" lon="8.581574063068565"><ele>95.0</ele><time>2026-05-02T08:09:04Z</time></trkpt><trkpt lat="40.05499621095814" lon="8.581809663545975"><ele>98.0</ele><time>2026-05-02T08:09:05Z</time></trkpt><trkpt lat="40.05505667948176" lon="8.582019131199534"><ele>101.0</ele><time>2026-05-02T08:09:06Z</time></trkpt><trkpt lat="40.055116809187865" lon="8.58219221385643"><ele>102.0</ele><time>2026-05-02T08:09:07Z</time></trkpt><trkpt lat="40.055169676253435" lon="8.582366446909543"><ele>103.0</ele><time>2026-05-02T08:09:08Z</time></trkpt><trkpt lat="40.05521063915398" lon="8.582552057583502"><ele>104.0</ele><time>2026-05-02T08:09:09Z</time></trkpt><trkpt lat="40.055242615797496" lon="8.582746134441493"><ele>105.0</ele><time>2026-05-02T08:09:10Z</time></trkpt><trkpt lat="40.05527612851768" lon="8.582920408339438"><ele>105.66666666666667</ele><time>2026-05-02T08:09:11Z</time></trkpt><trkpt lat="40.05530622119772" lon="8.583065568385004"><ele>106.33333333333334</ele><time>2026-05-02T08:09:12Z</time></trkpt><trkpt lat="40.05532470543193" lon="8.583191469208348"><ele>107.0</ele><time>2026-05-02T08:09:13Z</time></trkpt><trkpt lat="40.05530056434446" lon="8.58330058866433"><ele>107.66666666666667</ele><time>2026-05-02T08:09:14Z</time></trkpt><trkpt lat="40.05528317589123" lon="8.583392530319651"><ele>108.33333333333334</ele><time>2026-05-02T08:09:15Z</time></trkpt><trkpt lat="40.05526672191479" lon="8.583488936073412"><ele>109.0</ele><time>2026-05-02T08:09:16Z</time></trkpt><trkpt lat="40.05537929873747" lon="8.583615119113908"><ele>110.0</ele><time>2026-05-02T08:09:17Z</time></trkpt><trkpt lat="40.055423417964874" lon="8.583727945116552"><ele>111.0</ele><time>2026-05-02T08:09:18Z</time></trkpt><trkpt lat="40.055475542711434" lon="8.583859482007615"><ele>112.0</ele><time>2026-05-02T08:09:19Z</time></trkpt><trkpt lat="40.05554187124753" lon="8.583997119726064"><ele>113.0</ele><time>2026-05-02T08:09:20Z</time></trkpt><trkpt lat="40.055621484195754" lon="8.584132123401895"><ele>113.0</ele><time>2026-05-02T08:09:21Z</time></trkpt><trkpt lat="40.05570060593174" lon="8.584291825593038"><ele>113.0</ele><time>2026-05-02T08:09:22Z</time></trkpt><trkpt lat="40.05573711081925" lon="8.58446101952553"><ele>113.0</ele><time>2026-05-02T08:09:23Z</time></trkpt><trkpt lat="40.05579460655187" lon="8.584623548031296"><ele>113.0</ele><time>2026-05-02T08:09:24Z</time></trkpt><trkpt lat="40.0558365735491" lon="8.584779930190988"><ele>113.75</ele><time>2026-05-02T08:09:25Z</time></trkpt><trkpt lat="40.0559010512769" lon="8.584918288100189"><ele>114.5</ele><time>2026-05-02T08:09:26Z</time></trkpt><trkpt lat="40.05597861598773" lon="8.585032658561532"><ele>115.25</ele><time>2026-05-02T08:09:27Z</time></trkpt><trkpt lat="40.05605304160888" lon="8.585128416520188"><ele>116.0</ele><time>2026-05-02T08:09:28Z</time></trkpt><trkpt lat="40.056123803339005" lon="8.585229981152423"><ele>117.25</ele><time>2026-05-02T08:09:29Z</time></trkpt><trkpt lat="40.05619339858788" lon="8.585381456668616"><ele>118.5</ele><time>2026-05-02T08:09:30Z</time></trkpt><trkpt lat="40.056268820231466" lon="8.585557960691085"><ele>119.75</ele><time>2026-05-02T08:09:31Z</time></trkpt><trkpt lat="40.056349860480566" lon="8.5857293650587"><ele>121.0</ele><time>2026-05-02T08:09:32Z</time></trkpt><trkpt lat="40.056423022000345" lon="8.585882217907605"><ele>121.0</ele><time>2026-05-02T08:09:33Z</time></trkpt><trkpt lat="40.05649079889389" lon="8.586010574638381"><ele>121.0</ele><time>2026-05-02T08:09:34Z</time></trkpt><trkpt lat="40.05654205084183" lon="8.586105001013"><ele>121.0</ele><time>2026-05-02T08:09:35Z</time></trkpt><trkpt lat="40.056597829484105" lon="8.586183920301803"><ele>121.0</ele><time>2026-05-02T08:09:36Z</time></trkpt><trkpt lat="40.056664633612044" lon="8.586252124119994"><ele>121.0</ele><time>2026-05-02T08:09:37Z</time></trkpt><trkpt lat="40.056741057167194" lon="8.586310232406884"><ele>121.0</ele><time>2026-05-02T08:09:38Z</time></trkpt><trkpt lat="40.05681874260093" lon="8.58635026565985"><ele>121.0</ele><time>2026-05-02T08:09:39Z</time></trkpt><trkpt lat="40.05692169964017" lon="8.58637140199749"><ele>121.0</ele><time>2026-05-02T08:09:40Z</time></trkpt><trkpt lat="40.05704685602734" lon="8.586401012897404"><ele>121.0</ele><time>2026-05-02T08:09:41Z</time></trkpt><trkpt lat="40.05717302432784" lon="8.58645161044832"><ele>121.0</ele><time>2026-05-02T08:09:42Z</time></trkpt><trkpt lat="40.05728687660848" lon="8.58650293433893"><ele>121.0</ele><time>2026-05-02T08:09:43Z</time></trkpt><trkpt lat="40.0573976319818" lon="8.586546032641165"><ele>121.0</ele><time>2026-05-02T08:09:44Z</time></trkpt><trkpt lat="40.05750832199923" lon="8.58660349613061"><ele>121.0</ele><time>2026-05-02T08:09:45Z</time></trkpt><trkpt lat="40.0576014697151" lon="8.586659144465406"><ele>121.0</ele><time>2026-05-02T08:09:45.999Z</time></trkpt><trkpt lat="40.057677367173405" lon="8.586725136162746"><ele>121.0</ele><time>2026-05-02T08:09:46.999Z</time></trkpt><trkpt lat="40.0577290572838" lon="8.586799467394558"><ele>121.0</ele><time>2026-05-02T08:09:47.999Z</time></trkpt><trkpt lat="40.05773355046844" lon="8.586892858636176"><ele>121.0</ele><time>2026-05-02T08:09:48.999Z</time></trkpt><trkpt lat="40.05775994413849" lon="8.586975153353686"><ele>121.0</ele><time>2026-05-02T08:09:49.999Z</time></trkpt><trkpt lat="40.05780102388114" lon="8.587081416782468"><ele>121.0</ele><time>2026-05-02T08:09:50.999Z</time></trkpt><trkpt lat="40.05783579244323" lon="8.587228260031704"><ele>121.0</ele><time>2026-05-02T08:09:51.999Z</time></trkpt><trkpt lat="40.057887058369374" lon="8.587359691382538"><ele>122.25</ele><time>2026-05-02T08:09:52.999Z</time></trkpt><trkpt lat="40.057950730863105" lon="8.587473115052665"><ele>123.5</ele><time>2026-05-02T08:09:53.999Z</time></trkpt><trkpt lat="40.058025466406626" lon="8.58757847194627"><ele>124.75</ele><time>2026-05-02T08:09:54.999Z</time></trkpt><trkpt lat="40.058126399222935" lon="8.587692881494718"><ele>126.0</ele><time>2026-05-02T08:09:55.999Z</time></trkpt><trkpt lat="40.0582367693132" lon="8.587819932942248"><ele>126.4</ele><time>2026-05-02T08:09:56.999Z</time></trkpt><trkpt lat="40.058326353165995" lon="8.587941147824939"><ele>126.8</ele><time>2026-05-02T08:09:57.999Z</time></trkpt><trkpt lat="40.0583974066311" lon="8.588020380272546"><ele>127.20000000000002</ele><time>2026-05-02T08:09:58.999Z</time></trkpt><trkpt lat="40.05847280846924" lon="8.588058954846595"><ele>127.60000000000001</ele><time>2026-05-02T08:09:59.999Z</time></trkpt><trkpt lat="40.0585863232501" lon="8.588109722505253"><ele>128.0</ele><time>2026-05-02T08:10:00.999Z</time></trkpt><trkpt lat="40.05866940890976" lon="8.588160204386375"><ele>128.0</ele><time>2026-05-02T08:10:01.999Z</time></trkpt><trkpt lat="40.05874964870189" lon="8.588271253426912"><ele>128.0</ele><time>2026-05-02T08:10:02.999Z</time></trkpt><trkpt lat="40.05884001831655" lon="8.588413522263515"><ele>128.0</ele><time>2026-05-02T08:10:03.999Z</time></trkpt><trkpt lat="40.058943903838184" lon="8.588545043447226"><ele>128.0</ele><time>2026-05-02T08:10:04.999Z</time></trkpt><trkpt lat="40.0590439952198" lon="8.588649587303154"><ele>128.25</ele><time>2026-05-02T08:10:05.999Z</time></trkpt><trkpt lat="40.059125861956794" lon="8.588748982053144"><ele>128.5</ele><time>2026-05-02T08:10:06.999Z</time></trkpt><trkpt lat="40.05920608341015" lon="8.588874607894198"><ele>128.75</ele><time>2026-05-02T08:10:07.999Z</time></trkpt><trkpt lat="40.05929506556109" lon="8.589012282610717"><ele>129.0</ele><time>2026-05-02T08:10:08.999Z</time></trkpt><trkpt lat="40.0593875110138" lon="8.589129117570362"><ele>129.0</ele><time>2026-05-02T08:10:09.999Z</time></trkpt><trkpt lat="40.05947741699804" lon="8.58922185178358"><ele>129.0</ele><time>2026-05-02T08:10:10.999Z</time></trkpt><trkpt lat="40.059546577180136" lon="8.589319464080676"><ele>129.0</ele><time>2026-05-02T08:10:11.999Z</time></trkpt><trkpt lat="40.05958778310669" lon="8.589446049569908"><ele>129.0</ele><time>2026-05-02T08:10:12.999Z</time></trkpt><trkpt lat="40.05961455306584" lon="8.58959803155995"><ele>129.0</ele><time>2026-05-02T08:10:13.999Z</time></trkpt><trkpt lat="40.05963832446115" lon="8.589743360847265"><ele>129.25</ele><time>2026-05-02T08:10:14.999Z</time></trkpt><trkpt lat="40.05968787412269" lon="8.589871267364499"><ele>129.5</ele><time>2026-05-02T08:10:15.999Z</time></trkpt><trkpt lat="40.05976737807319" lon="8.589985654903694"><ele>129.75</ele><time>2026-05-02T08:10:16.999Z</time></trkpt><trkpt lat="40.05987157629259" lon="8.590092328240003"><ele>130.0</ele><time>2026-05-02T08:10:17.999Z</time></trkpt><trkpt lat="40.06000163776511" lon="8.590198861145963"><ele>130.0</ele><time>2026-05-02T08:10:18.999Z</time></trkpt><trkpt lat="40.060135269197744" lon="8.590320978093498"><ele>130.0</ele><time>2026-05-02T08:10:19.999Z</time></trkpt><trkpt lat="40.06026200948091" lon="8.590453366150609"><ele>130.0</ele><time>2026-05-02T08:10:20.999Z</time></trkpt><trkpt lat="40.06038190540831" lon="8.590561517768661"><ele>130.0</ele><time>2026-05-02T08:10:21.999Z</time></trkpt><trkpt lat="40.06047834358371" lon="8.590627666836808"><ele>130.0</ele><time>2026-05-02T08:10:22.999Z</time></trkpt><trkpt lat="40.06055992473887" lon="8.590662436249614"><ele>130.0</ele><time>2026-05-02T08:10:23.999Z</time></trkpt><trkpt lat="40.06062484931555" lon="8.59069106062593"><ele>130.0</ele><time>2026-05-02T08:10:24.999Z</time></trkpt><trkpt lat="40.06069625929653" lon="8.590752391715737"><ele>130.0</ele><time>2026-05-02T08:10:25.999Z</time></trkpt><trkpt lat="40.060786851972736" lon="8.590853130044861"><ele>131.33333333333334</ele><time>2026-05-02T08:10:26.999Z</time></trkpt><trkpt lat="40.06089052290339" lon="8.590989686298736"><ele>132.66666666666666</ele><time>2026-05-02T08:10:27.999Z</time></trkpt><trkpt lat="40.06100977743014" lon="8.591134580245981"><ele>134.0</ele><time>2026-05-02T08:10:28.999Z</time></trkpt><trkpt lat="40.061147973371966" lon="8.59128172280763"><ele>134.66666666666666</ele><time>2026-05-02T08:10:29.999Z</time></trkpt><trkpt lat="40.06128713521578" lon="8.591432269999904"><ele>135.33333333333334</ele><time>2026-05-02T08:10:30.999Z</time></trkpt><trkpt lat="40.06142991866475" lon="8.591596639192801"><ele>136.0</ele><time>2026-05-02T08:10:31.999Z</time></trkpt><trkpt lat="40.061576975959426" lon="8.591768898200405"><ele>136.33333333333334</ele><time>2026-05-02T08:10:32.999Z</time></trkpt><trkpt lat="40.06172526546945" lon="8.591939167010455"><ele>136.66666666666666</ele><time>2026-05-02T08:10:33.999Z</time></trkpt><trkpt lat="40.06187538848967" lon="8.592124652080662"><ele>137.0</ele><time>2026-05-02T08:10:34.999Z</time></trkpt><trkpt lat="40.06202102192542" lon="8.59232823726258"><ele>137.0</ele><time>2026-05-02T08:10:35.999Z</time></trkpt><trkpt lat="40.0621648962358" lon="8.59254200587748"><ele>137.0</ele><time>2026-05-02T08:10:36.999Z</time></trkpt><trkpt lat="40.06231264608698" lon="8.592753271574484"><ele>137.0</ele><time>2026-05-02T08:10:37.999Z</time></trkpt><trkpt lat="40.06245946266666" lon="8.59295991502363"><ele>138.0</ele><time>2026-05-02T08:10:38.999Z</time></trkpt><trkpt lat="40.062603611982155" lon="8.593165627444167"><ele>139.0</ele><time>2026-05-02T08:10:39.999Z</time></trkpt><trkpt lat="40.06274433292397" lon="8.593367844024721"><ele>140.0</ele><time>2026-05-02T08:10:40.999Z</time></trkpt><trkpt lat="40.062881871843025" lon="8.593565255408821"><ele>140.0</ele><time>2026-05-02T08:10:41.999Z</time></trkpt><trkpt lat="40.063015839362585" lon="8.593759450701924"><ele>140.0</ele><time>2026-05-02T08:10:42.999Z</time></trkpt><trkpt lat="40.0631494805538" lon="8.593952250685737"><ele>140.0</ele><time>2026-05-02T08:10:43.999Z</time></trkpt><trkpt lat="40.06328366569135" lon="8.594147012056512"><ele>141.0</ele><time>2026-05-02T08:10:44.999Z</time></trkpt><trkpt lat="40.06341946062629" lon="8.59434284859326"><ele>142.0</ele><time>2026-05-02T08:10:45.999Z</time></trkpt><trkpt lat="40.06355707132412" lon="8.594535048844987"><ele>143.0</ele><time>2026-05-02T08:10:46.999Z</time></trkpt><trkpt lat="40.063695148037596" lon="8.594727090312626"><ele>143.66666666666666</ele><time>2026-05-02T08:10:47.999Z</time></trkpt><trkpt lat="40.063835177036026" lon="8.594923124585971"><ele>144.33333333333334</ele><time>2026-05-02T08:10:48.999Z</time></trkpt><trkpt lat="40.06397512699871" lon="8.595120323579927"><ele>145.0</ele><time>2026-05-02T08:10:50Z</time></trkpt><trkpt lat="40.06411468164098" lon="8.595320054452431"><ele>146.0</ele><time>2026-05-02T08:10:51Z</time></trkpt><trkpt lat="40.064247427905926" lon="8.595526633619366"><ele>147.0</ele><time>2026-05-02T08:10:52Z</time></trkpt><trkpt lat="40.06434183782925" lon="8.595749695903928"><ele>148.0</ele><time>2026-05-02T08:10:53Z</time></trkpt><trkpt lat="40.064420005523026" lon="8.596012716082315"><ele>148.33333333333334</ele><time>2026-05-02T08:10:54Z</time></trkpt><trkpt lat="40.06449128675268" lon="8.596270368148735"><ele>148.66666666666666</ele><time>2026-05-02T08:10:55Z</time></trkpt><trkpt lat="40.064566519923" lon="8.596522712337924"><ele>149.0</ele><time>2026-05-02T08:10:56Z</time></trkpt><trkpt lat="40.06464350240262" lon="8.596772981914038"><ele>149.0</ele><time>2026-05-02T08:10:57Z</time></trkpt><trkpt lat="40.06471962693764" lon="8.597020910636603"><ele>149.0</ele><time>2026-05-02T08:10:58Z</time></trkpt><trkpt lat="40.06479672928062" lon="8.59726633812824"><ele>149.0</ele><time>2026-05-02T08:10:59Z</time></trkpt><trkpt lat="40.064872980531426" lon="8.597508999561084"><ele>149.0</ele><time>2026-05-02T08:11:00Z</time></trkpt><trkpt lat="40.06494162086287" lon="8.597750154064661"><ele>149.0</ele><time>2026-05-02T08:11:01Z</time></trkpt><trkpt lat="40.064990149785345" lon="8.597991523229396"><ele>149.0</ele><time>2026-05-02T08:11:02Z</time></trkpt><trkpt lat="40.06500751205105" lon="8.598243357235159"><ele>151.33333333333331</ele><time>2026-05-02T08:11:03Z</time></trkpt><trkpt lat="40.06500099049717" lon="8.598496461978767"><ele>153.66666666666666</ele><time>2026-05-02T08:11:04Z</time></trkpt><trkpt lat="40.06499497944945" lon="8.598741011634182"><ele>156.0</ele><time>2026-05-02T08:11:05Z</time></trkpt><trkpt lat="40.06498091432966" lon="8.59895840281038"><ele>155.33333333333334</ele><time>2026-05-02T08:11:06Z</time></trkpt><trkpt lat="40.06492861502429" lon="8.599161704769969"><ele>154.66666666666669</ele><time>2026-05-02T08:11:07Z</time></trkpt><trkpt lat="40.06481061501652" lon="8.599317366196779"><ele>154.0</ele><time>2026-05-02T08:11:08Z</time></trkpt><trkpt lat="40.06470486241226" lon="8.599477426905114"><ele>155.0</ele><time>2026-05-02T08:11:09Z</time></trkpt><trkpt lat="40.064595773565294" lon="8.599611320145767"><ele>156.0</ele><time>2026-05-02T08:11:10Z</time></trkpt><trkpt lat="40.064524382033596" lon="8.599768813358756"><ele>157.0</ele><time>2026-05-02T08:11:11Z</time></trkpt><trkpt lat="40.06451289487636" lon="8.599953426093451"><ele>158.0</ele><time>2026-05-02T08:11:12Z</time></trkpt><trkpt lat="40.06455684390998" lon="8.60015287445646"><ele>159.33333333333331</ele><time>2026-05-02T08:11:13Z</time></trkpt><trkpt lat="40.06461231487477" lon="8.60036131570226"><ele>160.66666666666666</ele><time>2026-05-02T08:11:14Z</time></trkpt><trkpt lat="40.064646681018466" lon="8.600580005365199"><ele>162.0</ele><time>2026-05-02T08:11:15Z</time></trkpt><trkpt lat="40.06467149985451" lon="8.600811750594438"><ele>162.0</ele><time>2026-05-02T08:11:16Z</time></trkpt><trkpt lat="40.064701696358775" lon="8.601047478066835"><ele>162.0</ele><time>2026-05-02T08:11:17Z</time></trkpt><trkpt lat="40.06473885970835" lon="8.601281588104287"><ele>162.0</ele><time>2026-05-02T08:11:18Z</time></trkpt><trkpt lat="40.064772068878796" lon="8.601510044244705"><ele>162.25</ele><time>2026-05-02T08:11:19Z</time></trkpt><trkpt lat="40.06480076592933" lon="8.601718197094142"><ele>162.5</ele><time>2026-05-02T08:11:20Z</time></trkpt><trkpt lat="40.06482586037496" lon="8.601905177106858"><ele>162.75</ele><time>2026-05-02T08:11:21Z</time></trkpt><trkpt lat="40.06485769112389" lon="8.602048814838998"><ele>163.0</ele><time>2026-05-02T08:11:22Z</time></trkpt><trkpt lat="40.06489121289901" lon="8.60213420338297"><ele>163.0</ele><time>2026-05-02T08:11:23Z</time></trkpt><trkpt lat="40.06477802303266" lon="8.60217607093177"><ele>163.0</ele><time>2026-05-02T08:11:26Z</time></trkpt><trkpt lat="40.0647022124655" lon="8.60214813830067"><ele>163.0</ele><time>2026-05-02T08:11:27Z</time></trkpt><trkpt lat="40.0646200480633" lon="8.602096644762048"><ele>163.0</ele><time>2026-05-02T08:11:28Z</time></trkpt><trkpt lat="40.06450397632365" lon="8.602056178066192"><ele>163.0</ele><time>2026-05-02T08:11:29Z</time></trkpt><trkpt lat="40.06441565309712" lon="8.6020237183674"><ele>163.2</ele><time>2026-05-02T08:11:30Z</time></trkpt><trkpt lat="40.064319207695775" lon="8.601990506468058"><ele>163.4</ele><time>2026-05-02T08:11:31Z</time></trkpt><trkpt lat="40.06422123163912" lon="8.601953018564565"><ele>163.6</ele><time>2026-05-02T08:11:32Z</time></trkpt><trkpt lat="40.06411021000528" lon="8.601911810047858"><ele>163.79999999999998</ele><time>2026-05-02T08:11:33Z</time></trkpt><trkpt lat="40.06399818040195" lon="8.601877291143778"><ele>164.0</ele><time>2026-05-02T08:11:34Z</time></trkpt><trkpt lat="40.06389693387296" lon="8.60186240004746"><ele>163.5</ele><time>2026-05-02T08:11:35Z</time></trkpt><trkpt lat="40.06379556312967" lon="8.601868398797434"><ele>163.0</ele><time>2026-05-02T08:11:36Z</time></trkpt><trkpt lat="40.06367662199346" lon="8.601876548540618"><ele>162.5</ele><time>2026-05-02T08:11:37Z</time></trkpt><trkpt lat="40.063549843792416" lon="8.601886028977443"><ele>162.0</ele><time>2026-05-02T08:11:38Z</time></trkpt><trkpt lat="40.063416640006835" lon="8.601913757974847"><ele>162.0</ele><time>2026-05-02T08:11:39Z</time></trkpt><trkpt lat="40.06328290308717" lon="8.601946837546505"><ele>162.0</ele><time>2026-05-02T08:11:40Z</time></trkpt><trkpt lat="40.063151468880726" lon="8.601975542169601"><ele>162.0</ele><time>2026-05-02T08:11:41Z</time></trkpt><trkpt lat="40.063021349769095" lon="8.601999171413002"><ele>162.0</ele><time>2026-05-02T08:11:42Z</time></trkpt><trkpt lat="40.06288968082097" lon="8.602014219324847"><ele>160.75</ele><time>2026-05-02T08:11:43Z</time></trkpt><trkpt lat="40.062750993090596" lon="8.602009371903877"><ele>159.5</ele><time>2026-05-02T08:11:44Z</time></trkpt><trkpt lat="40.06262525828859" lon="8.601992375022725"><ele>158.25</ele><time>2026-05-02T08:11:45Z</time></trkpt><trkpt lat="40.06249925557269" lon="8.601977553767728"><ele>157.0</ele><time>2026-05-02T08:11:46Z</time></trkpt><trkpt lat="40.06237595554053" lon="8.60195882296995"><ele>155.6</ele><time>2026-05-02T08:11:47Z</time></trkpt><trkpt lat="40.06226577208341" lon="8.601942342789837"><ele>154.2</ele><time>2026-05-02T08:11:48Z</time></trkpt><trkpt lat="40.062178463627355" lon="8.601927736732716"><ele>152.8</ele><time>2026-05-02T08:11:48.999Z</time></trkpt><trkpt lat="40.06210118383502" lon="8.601909161419133"><ele>151.4</ele><time>2026-05-02T08:11:49.999Z</time></trkpt><trkpt lat="40.0620228053415" lon="8.60185852889484"><ele>150.0</ele><time>2026-05-02T08:11:50.999Z</time></trkpt><trkpt lat="40.06193316849937" lon="8.601778054899643"><ele>150.0</ele><time>2026-05-02T08:11:51.999Z</time></trkpt><trkpt lat="40.06183429958817" lon="8.601684959943778"><ele>150.0</ele><time>2026-05-02T08:11:52.999Z</time></trkpt><trkpt lat="40.06172829319148" lon="8.60159802822413"><ele>150.0</ele><time>2026-05-02T08:11:53.999Z</time></trkpt><trkpt lat="40.06162892407131" lon="8.601518504544515"><ele>150.0</ele><time>2026-05-02T08:11:54.999Z</time></trkpt><trkpt lat="40.061536769661885" lon="8.601454024066383"><ele>149.33333333333334</ele><time>2026-05-02T08:11:55.999Z</time></trkpt><trkpt lat="40.061445123716666" lon="8.601407537814461"><ele>148.66666666666666</ele><time>2026-05-02T08:11:56.999Z</time></trkpt><trkpt lat="40.061352962087156" lon="8.601377984996535"><ele>148.0</ele><time>2026-05-02T08:11:57.999Z</time></trkpt><trkpt lat="40.06126653795284" lon="8.601359559414421"><ele>147.33333333333331</ele><time>2026-05-02T08:11:58.999Z</time></trkpt><trkpt lat="40.06118423058395" lon="8.601331451636332"><ele>146.66666666666666</ele><time>2026-05-02T08:11:59.999Z</time></trkpt><trkpt lat="40.06111709926662" lon="8.601301217943618"><ele>146.0</ele><time>2026-05-02T08:12:00.999Z</time></trkpt><trkpt lat="40.06102713669966" lon="8.601296559131834"><ele>146.0</ele><time>2026-05-02T08:12:02.999Z</time></trkpt><trkpt lat="40.06098343349271" lon="8.601403692411205"><ele>146.0</ele><time>2026-05-02T08:12:04.999Z</time></trkpt><trkpt lat="40.06097766658136" lon="8.601493815373166"><ele>146.0</ele><time>2026-05-02T08:12:05.999Z</time></trkpt><trkpt lat="40.06099332861112" lon="8.601613780917623"><ele>146.0</ele><time>2026-05-02T08:12:06.999Z</time></trkpt><trkpt lat="40.06100621287483" lon="8.601747948774985"><ele>146.0</ele><time>2026-05-02T08:12:07.999Z</time></trkpt><trkpt lat="40.061006091116965" lon="8.601906664203879"><ele>146.4</ele><time>2026-05-02T08:12:08.999Z</time></trkpt><trkpt lat="40.06100458618995" lon="8.602057211895497"><ele>146.8</ele><time>2026-05-02T08:12:09.999Z</time></trkpt><trkpt lat="40.06099255375556" lon="8.602188654958486"><ele>147.20000000000002</ele><time>2026-05-02T08:12:10.999Z</time></trkpt><trkpt lat="40.06095613391829" lon="8.602332068485078"><ele>147.6</ele><time>2026-05-02T08:12:11.999Z</time></trkpt><trkpt lat="40.06091355974221" lon="8.602467862988005"><ele>148.0</ele><time>2026-05-02T08:12:12.999Z</time></trkpt><trkpt lat="40.0608716680828" lon="8.602588548969994"><ele>148.0</ele><time>2026-05-02T08:12:13.999Z</time></trkpt><trkpt lat="40.0608186360629" lon="8.60268704970351"><ele>148.0</ele><time>2026-05-02T08:12:14.999Z</time></trkpt><trkpt lat="40.06076645928775" lon="8.602775592119254"><ele>148.0</ele><time>2026-05-02T08:12:15.999Z</time></trkpt><trkpt lat="40.06071841563142" lon="8.602848417954654"><ele>148.0</ele><time>2026-05-02T08:12:16.999Z</time></trkpt><trkpt lat="40.060662178158736" lon="8.602894029818703"><ele>148.0</ele><time>2026-05-02T08:12:17.999Z</time></trkpt><trkpt lat="40.06058959674496" lon="8.6029491756863"><ele>148.0</ele><time>2026-05-02T08:12:18.999Z</time></trkpt><trkpt lat="40.06052143770843" lon="8.60301983584394"><ele>148.28571428571428</ele><time>2026-05-02T08:12:19.999Z</time></trkpt><trkpt lat="40.0604816338366" lon="8.603097112106418"><ele>148.57142857142856</ele><time>2026-05-02T08:12:20.999Z</time></trkpt><trkpt lat="40.06046869118291" lon="8.60318550386906"><ele>148.85714285714283</ele><time>2026-05-02T08:12:21.999Z</time></trkpt><trkpt lat="40.060463387272236" lon="8.603287258829399"><ele>149.14285714285714</ele><time>2026-05-02T08:12:22.999Z</time></trkpt><trkpt lat="40.06047027508217" lon="8.603381459000431"><ele>149.42857142857142</ele><time>2026-05-02T08:12:23.999Z</time></trkpt><trkpt lat="40.06049687065234" lon="8.603468202806571"><ele>149.7142857142857</ele><time>2026-05-02T08:12:24.999Z</time></trkpt><trkpt lat="40.06054180362507" lon="8.603542777766075"><ele>150.0</ele><time>2026-05-02T08:12:25.999Z</time></trkpt><trkpt lat="40.06058904897835" lon="8.60361655879025"><ele>150.4</ele><time>2026-05-02T08:12:26.999Z</time></trkpt><trkpt lat="40.06061012324538" lon="8.603727009803208"><ele>150.8</ele><time>2026-05-02T08:12:27.999Z</time></trkpt><trkpt lat="40.06066692110727" lon="8.603821281767942"><ele>151.2</ele><time>2026-05-02T08:12:28.999Z</time></trkpt><trkpt lat="40.06071936545393" lon="8.60391794832805"><ele>151.6</ele><time>2026-05-02T08:12:29.999Z</time></trkpt><trkpt lat="40.06078575631325" lon="8.604003984392985"><ele>152.0</ele><time>2026-05-02T08:12:30.999Z</time></trkpt><trkpt lat="40.06085647269271" lon="8.604106553871741"><ele>152.79999999999998</ele><time>2026-05-02T08:12:31.999Z</time></trkpt><trkpt lat="40.060911944848634" lon="8.604212040033802"><ele>153.6</ele><time>2026-05-02T08:12:32.999Z</time></trkpt><trkpt lat="40.06097702614818" lon="8.604294774738591"><ele>154.39999999999998</ele><time>2026-05-02T08:12:33.999Z</time></trkpt><trkpt lat="40.061055163679846" lon="8.604372609468202"><ele>155.2</ele><time>2026-05-02T08:12:34.999Z</time></trkpt><trkpt lat="40.06113452903208" lon="8.604447078051171"><ele>156.0</ele><time>2026-05-02T08:12:35.999Z</time></trkpt><trkpt lat="40.061202030808275" lon="8.604518243633157"><ele>156.6</ele><time>2026-05-02T08:12:36.999Z</time></trkpt><trkpt lat="40.061254888469605" lon="8.604595696521688"><ele>157.2</ele><time>2026-05-02T08:12:37.999Z</time></trkpt><trkpt lat="40.061310614300595" lon="8.60473609319026"><ele>157.8</ele><time>2026-05-02T08:12:39.999Z</time></trkpt><trkpt lat="40.06132892044378" lon="8.604842317730458"><ele>158.4</ele><time>2026-05-02T08:12:40.999Z</time></trkpt><trkpt lat="40.06134716147269" lon="8.604958738395668"><ele>159.0</ele><time>2026-05-02T08:12:41.999Z</time></trkpt><trkpt lat="40.06135995636259" lon="8.60506778751667"><ele>159.0</ele><time>2026-05-02T08:12:42.999Z</time></trkpt><trkpt lat="40.06141302375914" lon="8.605158828848545"><ele>159.0</ele><time>2026-05-02T08:12:44.999Z</time></trkpt><trkpt lat="40.06149118821779" lon="8.605173992091112"><ele>159.0</ele><time>2026-05-02T08:12:46.999Z</time></trkpt><trkpt lat="40.06156256981179" lon="8.605160153086276"><ele>159.0</ele><time>2026-05-02T08:12:47.999Z</time></trkpt><trkpt lat="40.06163171483006" lon="8.605185373388217"><ele>159.0</ele><time>2026-05-02T08:12:48.999Z</time></trkpt><trkpt lat="40.06169478105385" lon="8.605254588592814"><ele>159.0</ele><time>2026-05-02T08:12:49.999Z</time></trkpt><trkpt lat="40.061768200967165" lon="8.605334197570103"><ele>160.2</ele><time>2026-05-02T08:12:50.999Z</time></trkpt><trkpt lat="40.06185149751262" lon="8.605397824854085"><ele>161.4</ele><time>2026-05-02T08:12:51.998Z</time></trkpt><trkpt lat="40.061941201701316" lon="8.605468545536848"><ele>162.6</ele><time>2026-05-02T08:12:52.998Z</time></trkpt><trkpt lat="40.06203202750426" lon="8.605548997635141"><ele>163.8</ele><time>2026-05-02T08:12:53.998Z</time></trkpt><trkpt lat="40.06209835563335" lon="8.60563931363644"><ele>165.0</ele><time>2026-05-02T08:12:54.998Z</time></trkpt><trkpt lat="40.062115070137445" lon="8.60577166843423"><ele>165.0</ele><time>2026-05-02T08:12:56Z</time></trkpt><trkpt lat="40.062164231125976" lon="8.605913420699778"><ele>165.0</ele><time>2026-05-02T08:12:57Z</time></trkpt><trkpt lat="40.06222509637417" lon="8.606049614736545"><ele>165.0</ele><time>2026-05-02T08:12:58Z</time></trkpt><trkpt lat="40.0622810852091" lon="8.606184290109018"><ele>165.0</ele><time>2026-05-02T08:12:59Z</time></trkpt><trkpt lat="40.06234156278029" lon="8.606308308105811"><ele>165.66666666666666</ele><time>2026-05-02T08:13:00Z</time></trkpt><trkpt lat="40.062400504579166" lon="8.606424621215938"><ele>166.33333333333334</ele><time>2026-05-02T08:13:01Z</time></trkpt><trkpt lat="40.062451766181276" lon="8.606533171521955"><ele>167.0</ele><time>2026-05-02T08:13:02Z</time></trkpt><trkpt lat="40.06249824712253" lon="8.60662764375512"><ele>167.66666666666669</ele><time>2026-05-02T08:13:03Z</time></trkpt><trkpt lat="40.06252984896116" lon="8.606721247350842"><ele>168.33333333333334</ele><time>2026-05-02T08:13:04Z</time></trkpt><trkpt lat="40.06251829830528" lon="8.606815582756296"><ele>169.0</ele><time>2026-05-02T08:13:05Z</time></trkpt><trkpt lat="40.06246909539553" lon="8.606882753019605"><ele>170.6</ele><time>2026-05-02T08:13:06Z</time></trkpt><trkpt lat="40.06246493458211" lon="8.60706138251358"><ele>172.2</ele><time>2026-05-02T08:13:08Z</time></trkpt><trkpt lat="40.06249998705879" lon="8.607175914157297"><ele>173.79999999999998</ele><time>2026-05-02T08:13:09Z</time></trkpt><trkpt lat="40.06256326965655" lon="8.60726061961513"><ele>175.39999999999998</ele><time>2026-05-02T08:13:10Z</time></trkpt><trkpt lat="40.06260529154295" lon="8.607350694930512"><ele>177.0</ele><time>2026-05-02T08:13:11Z</time></trkpt><trkpt lat="40.06273377614422" lon="8.607378433072846"><ele>177.0</ele><time>2026-05-02T08:13:12Z</time></trkpt><trkpt lat="40.062811300631175" lon="8.607457842159679"><ele>177.0</ele><time>2026-05-02T08:13:13Z</time></trkpt><trkpt lat="40.06287580334446" lon="8.607545988192623"><ele>177.0</ele><time>2026-05-02T08:13:14Z</time></trkpt><trkpt lat="40.06293236327799" lon="8.607640828735402"><ele>177.0</ele><time>2026-05-02T08:13:15Z</time></trkpt><trkpt lat="40.06298504330604" lon="8.607726975821897"><ele>177.0</ele><time>2026-05-02T08:13:16Z</time></trkpt><trkpt lat="40.063037287708774" lon="8.607790361755868"><ele>177.0</ele><time>2026-05-02T08:13:17Z</time></trkpt><trkpt lat="40.06312463720807" lon="8.607892252058786"><ele>176.8</ele><time>2026-05-02T08:13:19Z</time></trkpt><trkpt lat="40.06322241918216" lon="8.607953263679086"><ele>176.6</ele><time>2026-05-02T08:13:21Z</time></trkpt><trkpt lat="40.06329202723385" lon="8.607984529581389"><ele>176.4</ele><time>2026-05-02T08:13:22Z</time></trkpt><trkpt lat="40.06336253285391" lon="8.608011021917118"><ele>176.20000000000002</ele><time>2026-05-02T08:13:23Z</time></trkpt><trkpt lat="40.06344811905429" lon="8.608089762063104"><ele>176.0</ele><time>2026-05-02T08:13:25Z</time></trkpt><trkpt lat="40.06351020529962" lon="8.608219965899208"><ele>177.16666666666666</ele><time>2026-05-02T08:13:27Z</time></trkpt><trkpt lat="40.063561264196224" lon="8.60829125591956"><ele>178.33333333333331</ele><time>2026-05-02T08:13:28Z</time></trkpt><trkpt lat="40.06361830518378" lon="8.608368341484235"><ele>179.5</ele><time>2026-05-02T08:13:29Z</time></trkpt><trkpt lat="40.06367998033517" lon="8.608442617063904"><ele>180.66666666666666</ele><time>2026-05-02T08:13:30Z</time></trkpt><trkpt lat="40.06374593462187" lon="8.6085299273413"><ele>181.83333333333334</ele><time>2026-05-02T08:13:31Z</time></trkpt><trkpt lat="40.06380177325914" lon="8.608621702932954"><ele>183.0</ele><time>2026-05-02T08:13:32Z</time></trkpt><trkpt lat="40.063855101612496" lon="8.608706461087877"><ele>183.4</ele><time>2026-05-02T08:13:33Z</time></trkpt><trkpt lat="40.06389564711754" lon="8.608804535546499"><ele>183.8</ele><time>2026-05-02T08:13:34Z</time></trkpt><trkpt lat="40.06394232723697" lon="8.608906122636778"><ele>184.2</ele><time>2026-05-02T08:13:35Z</time></trkpt><trkpt lat="40.063992731975084" lon="8.609006451077796"><ele>184.6</ele><time>2026-05-02T08:13:36Z</time></trkpt><trkpt lat="40.06405037293531" lon="8.609122046096072"><ele>185.0</ele><time>2026-05-02T08:13:37Z</time></trkpt><trkpt lat="40.064103542705645" lon="8.609229058698197"><ele>186.16666666666666</ele><time>2026-05-02T08:13:38Z</time></trkpt><trkpt lat="40.064154722541396" lon="8.609319106436041"><ele>187.33333333333331</ele><time>2026-05-02T08:13:39Z</time></trkpt><trkpt lat="40.06420612163606" lon="8.60939112867493"><ele>188.5</ele><time>2026-05-02T08:13:40Z</time></trkpt><trkpt lat="40.06428713518695" lon="8.60950783225494"><ele>189.66666666666666</ele><time>2026-05-02T08:13:42Z</time></trkpt><trkpt lat="40.06434083617128" lon="8.609562614302646"><ele>190.83333333333334</ele><time>2026-05-02T08:13:43Z</time></trkpt><trkpt lat="40.0643836365705" lon="8.60967459792956"><ele>192.0</ele><time>2026-05-02T08:13:45Z</time></trkpt><trkpt lat="40.06436305356713" lon="8.609752908736391"><ele>192.66666666666666</ele><time>2026-05-02T08:13:47Z</time></trkpt><trkpt lat="40.06429913570619" lon="8.609881342127837"><ele>193.33333333333331</ele><time>2026-05-02T08:13:49Z</time></trkpt><trkpt lat="40.064302449508574" lon="8.609979947787505"><ele>194.0</ele><time>2026-05-02T08:13:50Z</time></trkpt><trkpt lat="40.064317881805394" lon="8.610071877946371"><ele>194.66666666666666</ele><time>2026-05-02T08:13:50.999Z</time></trkpt><trkpt lat="40.064319290128495" lon="8.610160538578862"><ele>195.33333333333331</ele><time>2026-05-02T08:13:51.999Z</time></trkpt><trkpt lat="40.064310159870544" lon="8.610298706157872"><ele>196.0</ele><time>2026-05-02T08:13:53.999Z</time></trkpt><trkpt lat="40.064362495330045" lon="8.610365101800726"><ele>196.20000000000002</ele><time>2026-05-02T08:13:55.999Z</time></trkpt><trkpt lat="40.064496471928344" lon="8.610396247465033"><ele>196.4</ele><time>2026-05-02T08:13:57.999Z</time></trkpt><trkpt lat="40.064589572827856" lon="8.61042265780592"><ele>196.6</ele><time>2026-05-02T08:13:58.999Z</time></trkpt><trkpt lat="40.06469682820452" lon="8.61043500647508"><ele>196.8</ele><time>2026-05-02T08:13:59.999Z</time></trkpt><trkpt lat="40.06477670545135" lon="8.610466298811504"><ele>197.0</ele><time>2026-05-02T08:14:00.999Z</time></trkpt><trkpt lat="40.0648466482943" lon="8.61049175292569"><ele>197.00000000000003</ele><time>2026-05-02T08:14:01.999Z</time></trkpt><trkpt lat="40.06490560866188" lon="8.610531464432675"><ele>197.0</ele><time>2026-05-02T08:14:02.999Z</time></trkpt><trkpt lat="40.06497989679441" lon="8.610555334346591"><ele>197.0</ele><time>2026-05-02T08:14:03.999Z</time></trkpt><trkpt lat="40.065062327514035" lon="8.610578295242751"><ele>197.0</ele><time>2026-05-02T08:14:04.999Z</time></trkpt><trkpt lat="40.06514773179507" lon="8.610579085546647"><ele>197.00000000000003</ele><time>2026-05-02T08:14:05.999Z</time></trkpt><trkpt lat="40.065227839436204" lon="8.610566369620141"><ele>197.0</ele><time>2026-05-02T08:14:06.999Z</time></trkpt><trkpt lat="40.06528860397737" lon="8.610537365458315"><ele>197.8</ele><time>2026-05-02T08:14:07.999Z</time></trkpt><trkpt lat="40.06538500513075" lon="8.610466012134415"><ele>198.6</ele><time>2026-05-02T08:14:09.999Z</time></trkpt><trkpt lat="40.065498043317575" lon="8.610523929848348"><ele>199.4</ele><time>2026-05-02T08:14:11.999Z</time></trkpt><trkpt lat="40.065589801331505" lon="8.610568220839138"><ele>200.20000000000002</ele><time>2026-05-02T08:14:12.999Z</time></trkpt><trkpt lat="40.06567870131773" lon="8.610610729789366"><ele>201.0</ele><time>2026-05-02T08:14:13.999Z</time></trkpt><trkpt lat="40.065763742932766" lon="8.610645818267335"><ele>201.4</ele><time>2026-05-02T08:14:14.999Z</time></trkpt><trkpt lat="40.06583291740476" lon="8.610685234163332"><ele>201.8</ele><time>2026-05-02T08:14:15.999Z</time></trkpt><trkpt lat="40.06591324657712" lon="8.61074278820911"><ele>202.20000000000002</ele><time>2026-05-02T08:14:17.999Z</time></trkpt><trkpt lat="40.065936738193024" lon="8.610916681248963"><ele>202.60000000000002</ele><time>2026-05-02T08:14:19.999Z</time></trkpt><trkpt lat="40.06597014717304" lon="8.611005140900408"><ele>203.0</ele><time>2026-05-02T08:14:20.999Z</time></trkpt><trkpt lat="40.06600647569907" lon="8.61110057026525"><ele>203.8</ele><time>2026-05-02T08:14:21.999Z</time></trkpt><trkpt lat="40.066039545062516" lon="8.611194969016656"><ele>204.60000000000002</ele><time>2026-05-02T08:14:22.999Z</time></trkpt><trkpt lat="40.06606404406241" lon="8.611295201712789"><ele>205.39999999999998</ele><time>2026-05-02T08:14:23.999Z</time></trkpt><trkpt lat="40.06607572827661" lon="8.611393479224851"><ele>206.2</ele><time>2026-05-02T08:14:24.999Z</time></trkpt><trkpt lat="40.06604552983961" lon="8.611547261632465"><ele>207.0</ele><time>2026-05-02T08:14:26.999Z</time></trkpt><trkpt lat="40.0660628497993" lon="8.6116947746805"><ele>207.0</ele><time>2026-05-02T08:14:28.999Z</time></trkpt><trkpt lat="40.06611041484411" lon="8.61176276226318"><ele>207.0</ele><time>2026-05-02T08:14:29.999Z</time></trkpt><trkpt lat="40.06615857881015" lon="8.611823942197798"><ele>207.0</ele><time>2026-05-02T08:14:30.999Z</time></trkpt><trkpt lat="40.06620649862588" lon="8.611880029910992"><ele>207.0</ele><time>2026-05-02T08:14:31.999Z</time></trkpt><trkpt lat="40.06626858925611" lon="8.611948523257695"><ele>207.0</ele><time>2026-05-02T08:14:32.999Z</time></trkpt><trkpt lat="40.06633712903815" lon="8.612020598513753"><ele>207.0</ele><time>2026-05-02T08:14:33.999Z</time></trkpt><trkpt lat="40.06639479554497" lon="8.612092993159752"><ele>207.6</ele><time>2026-05-02T08:14:34.999Z</time></trkpt><trkpt lat="40.06644553880217" lon="8.612147231244625"><ele>208.2</ele><time>2026-05-02T08:14:35.999Z</time></trkpt><trkpt lat="40.06657631143316" lon="8.612172466395942"><ele>208.8</ele><time>2026-05-02T08:14:37.999Z</time></trkpt><trkpt lat="40.06668245560062" lon="8.612168877570177"><ele>209.4</ele><time>2026-05-02T08:14:38.999Z</time></trkpt><trkpt lat="40.066773059798464" lon="8.612172346578602"><ele>210.0</ele><time>2026-05-02T08:14:39.999Z</time></trkpt><trkpt lat="40.06683801304533" lon="8.612165866993006"><ele>210.5</ele><time>2026-05-02T08:14:40.999Z</time></trkpt><trkpt lat="40.06690263934145" lon="8.61214430130198"><ele>211.0</ele><time>2026-05-02T08:14:41.999Z</time></trkpt><trkpt lat="40.067011674570345" lon="8.612215607015473"><ele>211.5</ele><time>2026-05-02T08:14:43.999Z</time></trkpt><trkpt lat="40.067062106072505" lon="8.612289229999368"><ele>212.0</ele><time>2026-05-02T08:14:44.999Z</time></trkpt><trkpt lat="40.06708790418695" lon="8.612371944244568"><ele>212.5</ele><time>2026-05-02T08:14:45.999Z</time></trkpt><trkpt lat="40.06710396341524" lon="8.612469672774656"><ele>213.0</ele><time>2026-05-02T08:14:46.999Z</time></trkpt><trkpt lat="40.067105744653276" lon="8.612569147948609"><ele>213.0</ele><time>2026-05-02T08:14:47.999Z</time></trkpt><trkpt lat="40.06707390189442" lon="8.612659463745354"><ele>213.0</ele><time>2026-05-02T08:14:48.999Z</time></trkpt><trkpt lat="40.06704760125543" lon="8.612736254102822"><ele>213.0</ele><time>2026-05-02T08:14:49.999Z</time></trkpt><trkpt lat="40.067038149890514" lon="8.6128307771565"><ele>213.0</ele><time>2026-05-02T08:14:50.999Z</time></trkpt><trkpt lat="40.06704608228236" lon="8.612932060815188"><ele>213.0</ele><time>2026-05-02T08:14:51.999Z</time></trkpt><trkpt lat="40.067081935182394" lon="8.613035098024609"><ele>213.0</ele><time>2026-05-02T08:14:52.999Z</time></trkpt><trkpt lat="40.067119798301455" lon="8.613148407548985"><ele>213.33333333333334</ele><time>2026-05-02T08:14:53.999Z</time></trkpt><trkpt lat="40.067156391934724" lon="8.613236266262305"><ele>213.66666666666669</ele><time>2026-05-02T08:14:54.998Z</time></trkpt><trkpt lat="40.06717786381792" lon="8.613317830768455"><ele>214.0</ele><time>2026-05-02T08:14:55.998Z</time></trkpt><trkpt lat="40.06717079930533" lon="8.613453535790656"><ele>214.33333333333334</ele><time>2026-05-02T08:14:57.998Z</time></trkpt><trkpt lat="40.06715782615788" lon="8.61357786904344"><ele>214.66666666666669</ele><time>2026-05-02T08:14:59.998Z</time></trkpt><trkpt lat="40.06720120110778" lon="8.613642933823874"><ele>215.0</ele><time>2026-05-02T08:15:01Z</time></trkpt><trkpt lat="40.06727335349068" lon="8.61372495525418"><ele>215.6</ele><time>2026-05-02T08:15:02Z</time></trkpt><trkpt lat="40.06736511215853" lon="8.61380256030973"><ele>216.2</ele><time>2026-05-02T08:15:03Z</time></trkpt><trkpt lat="40.06745713465622" lon="8.613871668567876"><ele>216.8</ele><time>2026-05-02T08:15:04Z</time></trkpt><trkpt lat="40.06754508114557" lon="8.61394760630373"><ele>217.4</ele><time>2026-05-02T08:15:05Z</time></trkpt><trkpt lat="40.06760458971728" lon="8.614030285063999"><ele>218.0</ele><time>2026-05-02T08:15:06Z</time></trkpt><trkpt lat="40.067648783654654" lon="8.614137643510842"><ele>219.25</ele><time>2026-05-02T08:15:07Z</time></trkpt><trkpt lat="40.067697902021436" lon="8.614254314626066"><ele>220.5</ele><time>2026-05-02T08:15:08Z</time></trkpt><trkpt lat="40.06778884229229" lon="8.61439088563867"><ele>221.75</ele><time>2026-05-02T08:15:09Z</time></trkpt><trkpt lat="40.06787492316357" lon="8.614532995550242"><ele>223.0</ele><time>2026-05-02T08:15:10Z</time></trkpt><trkpt lat="40.06795486351841" lon="8.614669251512282"><ele>223.49999999999997</ele><time>2026-05-02T08:15:11Z</time></trkpt><trkpt lat="40.068016409324045" lon="8.614790672107153"><ele>224.0</ele><time>2026-05-02T08:15:12Z</time></trkpt><trkpt lat="40.068084327320534" lon="8.614878691022618"><ele>224.5</ele><time>2026-05-02T08:15:13Z</time></trkpt><trkpt lat="40.068151614249075" lon="8.614926721325954"><ele>225.0</ele><time>2026-05-02T08:15:14Z</time></trkpt><trkpt lat="40.06822626125665" lon="8.61494953756852"><ele>225.49999999999997</ele><time>2026-05-02T08:15:15Z</time></trkpt><trkpt lat="40.06831221826338" lon="8.614964757282943"><ele>226.0</ele><time>2026-05-02T08:15:16Z</time></trkpt><trkpt lat="40.06840207144373" lon="8.614973725670579"><ele>226.60000000000002</ele><time>2026-05-02T08:15:17Z</time></trkpt><trkpt lat="40.06849973482797" lon="8.614974256423595"><ele>227.20000000000002</ele><time>2026-05-02T08:15:18Z</time></trkpt><trkpt lat="40.068602078074804" lon="8.61497337557141"><ele>227.79999999999998</ele><time>2026-05-02T08:15:19Z</time></trkpt><trkpt lat="40.0687113752261" lon="8.614979606073012"><ele>228.39999999999998</ele><time>2026-05-02T08:15:20Z</time></trkpt><trkpt lat="40.06881401554868" lon="8.615008043615607"><ele>229.0</ele><time>2026-05-02T08:15:21Z</time></trkpt><trkpt lat="40.06889687092263" lon="8.615045069740416"><ele>229.0</ele><time>2026-05-02T08:15:22Z</time></trkpt><trkpt lat="40.06895790864282" lon="8.615093457774227"><ele>228.99999999999997</ele><time>2026-05-02T08:15:23Z</time></trkpt><trkpt lat="40.06901708524429" lon="8.615140538197501"><ele>228.99999999999997</ele><time>2026-05-02T08:15:24Z</time></trkpt><trkpt lat="40.069081819011785" lon="8.615203047079303"><ele>229.0</ele><time>2026-05-02T08:15:25Z</time></trkpt><trkpt lat="40.069160039525514" lon="8.615319998579551"><ele>229.0</ele><time>2026-05-02T08:15:26Z</time></trkpt><trkpt lat="40.06926808591339" lon="8.615402550238246"><ele>230.5</ele><time>2026-05-02T08:15:27Z</time></trkpt><trkpt lat="40.069383394436215" lon="8.615471594928103"><ele>232.0</ele><time>2026-05-02T08:15:28Z</time></trkpt><trkpt lat="40.06949050918809" lon="8.615576080976089"><ele>233.5</ele><time>2026-05-02T08:15:29Z</time></trkpt><trkpt lat="40.06957762793483" lon="8.615664842117003"><ele>235.0</ele><time>2026-05-02T08:15:30Z</time></trkpt><trkpt lat="40.069636089713505" lon="8.615754929554594"><ele>235.0</ele><time>2026-05-02T08:15:31Z</time></trkpt><trkpt lat="40.06967817625165" lon="8.615854933928022"><ele>235.0</ele><time>2026-05-02T08:15:32Z</time></trkpt><trkpt lat="40.06971108463362" lon="8.615978564902246"><ele>235.0</ele><time>2026-05-02T08:15:33Z</time></trkpt><trkpt lat="40.06976956734481" lon="8.616126925614815"><ele>235.0</ele><time>2026-05-02T08:15:34Z</time></trkpt><trkpt lat="40.06985119178676" lon="8.616258474108147"><ele>235.0</ele><time>2026-05-02T08:15:35Z</time></trkpt><trkpt lat="40.069922154457366" lon="8.616364216833086"><ele>236.6</ele><time>2026-05-02T08:15:36Z</time></trkpt><trkpt lat="40.0699709423768" lon="8.616446347253792"><ele>238.2</ele><time>2026-05-02T08:15:37Z</time></trkpt><trkpt lat="40.069984394720905" lon="8.616534054291082"><ele>239.8</ele><time>2026-05-02T08:15:38Z</time></trkpt><trkpt lat="40.06998819329843" lon="8.616697367485076"><ele>241.4</ele><time>2026-05-02T08:15:40Z</time></trkpt><trkpt lat="40.07003371693295" lon="8.616783091801997"><ele>243.0</ele><time>2026-05-02T08:15:41Z</time></trkpt><trkpt lat="40.07010577195183" lon="8.61687576653771"><ele>243.0</ele><time>2026-05-02T08:15:42Z</time></trkpt><trkpt lat="40.070151383579955" lon="8.616965166432069"><ele>243.0</ele><time>2026-05-02T08:15:43Z</time></trkpt><trkpt lat="40.07016714559043" lon="8.617065999988442"><ele>243.0</ele><time>2026-05-02T08:15:44Z</time></trkpt><trkpt lat="40.0701636490795" lon="8.617176236721205"><ele>243.0</ele><time>2026-05-02T08:15:45Z</time></trkpt><trkpt lat="40.070168398467786" lon="8.617276465595397"><ele>243.0</ele><time>2026-05-02T08:15:46Z</time></trkpt><trkpt lat="40.070207148565586" lon="8.617381249531865"><ele>243.0</ele><time>2026-05-02T08:15:47Z</time></trkpt><trkpt lat="40.070254555974365" lon="8.617498436631305"><ele>243.0</ele><time>2026-05-02T08:15:48Z</time></trkpt><trkpt lat="40.07027145665563" lon="8.617639183086622"><ele>243.0</ele><time>2026-05-02T08:15:49Z</time></trkpt><trkpt lat="40.07027812213708" lon="8.6177642688734"><ele>243.0</ele><time>2026-05-02T08:15:50Z</time></trkpt><trkpt lat="40.070293116851815" lon="8.617850753973626"><ele>243.0</ele><time>2026-05-02T08:15:51Z</time></trkpt><trkpt lat="40.07037919793103" lon="8.617919348127769"><ele>243.0</ele><time>2026-05-02T08:15:52.999Z</time></trkpt><trkpt lat="40.0704514066261" lon="8.617912094372455"><ele>243.0</ele><time>2026-05-02T08:15:53.999Z</time></trkpt><trkpt lat="40.070547600235805" lon="8.617904142223672"><ele>243.0</ele><time>2026-05-02T08:15:54.999Z</time></trkpt><trkpt lat="40.0706339320606" lon="8.61792334706783"><ele>243.0</ele><time>2026-05-02T08:15:55.999Z</time></trkpt><trkpt lat="40.07069985760661" lon="8.617933222541588"><ele>243.0</ele><time>2026-05-02T08:15:56.999Z</time></trkpt><trkpt lat="40.07080753212987" lon="8.617844153599357"><ele>243.0</ele><time>2026-05-02T08:15:58.999Z</time></trkpt><trkpt lat="40.070872201814794" lon="8.617797668313777"><ele>243.0</ele><time>2026-05-02T08:15:59.999Z</time></trkpt><trkpt lat="40.07094797884537" lon="8.617799836553923"><ele>243.0</ele><time>2026-05-02T08:16:00.999Z</time></trkpt><trkpt lat="40.07103463159522" lon="8.61784386372383"><ele>242.75</ele><time>2026-05-02T08:16:01.999Z</time></trkpt><trkpt lat="40.071135959534175" lon="8.617906277515042"><ele>242.5</ele><time>2026-05-02T08:16:02.999Z</time></trkpt><trkpt lat="40.07126311993057" lon="8.617960478565502"><ele>242.25</ele><time>2026-05-02T08:16:03.999Z</time></trkpt><trkpt lat="40.07138875623692" lon="8.61801197666961"><ele>242.0</ele><time>2026-05-02T08:16:04.999Z</time></trkpt><trkpt lat="40.07152993955709" lon="8.618069527298225"><ele>242.75</ele><time>2026-05-02T08:16:05.999Z</time></trkpt><trkpt lat="40.07167587578871" lon="8.618143180213748"><ele>243.5</ele><time>2026-05-02T08:16:06.999Z</time></trkpt><trkpt lat="40.07181367163644" lon="8.618213497023334"><ele>244.25</ele><time>2026-05-02T08:16:07.999Z</time></trkpt><trkpt lat="40.07192915469947" lon="8.618265970469933"><ele>245.0</ele><time>2026-05-02T08:16:08.999Z</time></trkpt><trkpt lat="40.0720466300389" lon="8.618325531709882"><ele>245.0</ele><time>2026-05-02T08:16:09.999Z</time></trkpt><trkpt lat="40.07217827051008" lon="8.61837581530493"><ele>245.0</ele><time>2026-05-02T08:16:10.999Z</time></trkpt><trkpt lat="40.07230527704962" lon="8.61842784949193"><ele>245.0</ele><time>2026-05-02T08:16:11.999Z</time></trkpt><trkpt lat="40.07241376107113" lon="8.6184836672424"><ele>245.0</ele><time>2026-05-02T08:16:12.999Z</time></trkpt><trkpt lat="40.07251538123674" lon="8.618560329548462"><ele>245.2</ele><time>2026-05-02T08:16:13.999Z</time></trkpt><trkpt lat="40.07260638845287" lon="8.618630145668057"><ele>245.4</ele><time>2026-05-02T08:16:14.999Z</time></trkpt><trkpt lat="40.07270288459088" lon="8.618673096435884"><ele>245.60000000000002</ele><time>2026-05-02T08:16:15.999Z</time></trkpt><trkpt lat="40.07281425150707" lon="8.61868976610855"><ele>245.8</ele><time>2026-05-02T08:16:16.999Z</time></trkpt><trkpt lat="40.072918311759096" lon="8.618699910994186"><ele>246.0</ele><time>2026-05-02T08:16:17.999Z</time></trkpt><trkpt lat="40.07300197893164" lon="8.618716353796612"><ele>245.60000000000002</ele><time>2026-05-02T08:16:18.999Z</time></trkpt><trkpt lat="40.073069570273354" lon="8.618747201757607"><ele>245.20000000000002</ele><time>2026-05-02T08:16:19.999Z</time></trkpt><trkpt lat="40.073155780093515" lon="8.61878197549419"><ele>244.79999999999998</ele><time>2026-05-02T08:16:20.999Z</time></trkpt><trkpt lat="40.073253337719756" lon="8.618864169160053"><ele>244.39999999999998</ele><time>2026-05-02T08:16:21.999Z</time></trkpt><trkpt lat="40.07336897646627" lon="8.618916732571588"><ele>244.0</ele><time>2026-05-02T08:16:22.999Z</time></trkpt><trkpt lat="40.07349040438606" lon="8.618964043041172"><ele>244.0</ele><time>2026-05-02T08:16:23.999Z</time></trkpt><trkpt lat="40.073622820247" lon="8.61898773608864"><ele>244.0</ele><time>2026-05-02T08:16:24.999Z</time></trkpt><trkpt lat="40.07376286429371" lon="8.619010309754374"><ele>244.0</ele><time>2026-05-02T08:16:25.999Z</time></trkpt><trkpt lat="40.073906256642296" lon="8.619050280884872"><ele>244.0</ele><time>2026-05-02T08:16:26.999Z</time></trkpt><trkpt lat="40.07405240653053" lon="8.619096313482757"><ele>244.25</ele><time>2026-05-02T08:16:27.999Z</time></trkpt><trkpt lat="40.074203405661294" lon="8.619135851688107"><ele>244.5</ele><time>2026-05-02T08:16:28.999Z</time></trkpt><trkpt lat="40.074338385694524" lon="8.619168294818413"><ele>244.75</ele><time>2026-05-02T08:16:29.999Z</time></trkpt><trkpt lat="40.07445337073655" lon="8.619208312155823"><ele>245.0</ele><time>2026-05-02T08:16:30.999Z</time></trkpt><trkpt lat="40.074544468298434" lon="8.619280650105015"><ele>245.0</ele><time>2026-05-02T08:16:31.999Z</time></trkpt><trkpt lat="40.0747273441511" lon="8.619199135247417"><ele>245.0</ele><time>2026-05-02T08:16:32.999Z</time></trkpt><trkpt lat="40.07489444826432" lon="8.619208694262628"><ele>245.0</ele><time>2026-05-02T08:16:33.999Z</time></trkpt><trkpt lat="40.07507039614598" lon="8.6192320847756"><ele>245.66666666666669</ele><time>2026-05-02T08:16:34.999Z</time></trkpt><trkpt lat="40.075252907047236" lon="8.619273947546134"><ele>246.33333333333331</ele><time>2026-05-02T08:16:35.999Z</time></trkpt><trkpt lat="40.075439287100316" lon="8.619322782170368"><ele>247.0</ele><time>2026-05-02T08:16:36.999Z</time></trkpt><trkpt lat="40.075624853588025" lon="8.619368806730334"><ele>247.33333333333331</ele><time>2026-05-02T08:16:37.999Z</time></trkpt><trkpt lat="40.07581770326588" lon="8.619413042761535"><ele>247.66666666666669</ele><time>2026-05-02T08:16:38.999Z</time></trkpt><trkpt lat="40.076016963322154" lon="8.619462069534954"><ele>248.0</ele><time>2026-05-02T08:16:39.999Z</time></trkpt><trkpt lat="40.07622075810007" lon="8.619507388835755"><ele>248.0</ele><time>2026-05-02T08:16:40.999Z</time></trkpt><trkpt lat="40.076428799185685" lon="8.619531792571184"><ele>248.0</ele><time>2026-05-02T08:16:41.999Z</time></trkpt><trkpt lat="40.07663976797005" lon="8.619522504409268"><ele>248.0</ele><time>2026-05-02T08:16:42.999Z</time></trkpt><trkpt lat="40.07684796111922" lon="8.619470521797464"><ele>250.0</ele><time>2026-05-02T08:16:43.999Z</time></trkpt><trkpt lat="40.07704875373758" lon="8.619396058369102"><ele>252.0</ele><time>2026-05-02T08:16:44.999Z</time></trkpt><trkpt lat="40.07724681824451" lon="8.619322183547634"><ele>254.0</ele><time>2026-05-02T08:16:45.999Z</time></trkpt><trkpt lat="40.077446275384105" lon="8.619255915308356"><ele>255.66666666666669</ele><time>2026-05-02T08:16:46.999Z</time></trkpt><trkpt lat="40.07764604384685" lon="8.61919356657691"><ele>257.3333333333333</ele><time>2026-05-02T08:16:47.999Z</time></trkpt><trkpt lat="40.07784374116315" lon="8.619130504726778"><ele>259.0</ele><time>2026-05-02T08:16:48.999Z</time></trkpt><trkpt lat="40.078040843642036" lon="8.619066989881308"><ele>259.0</ele><time>2026-05-02T08:16:49.999Z</time></trkpt><trkpt lat="40.07823676684352" lon="8.619003803178469"><ele>259.0</ele><time>2026-05-02T08:16:50.999Z</time></trkpt><trkpt lat="40.0784300342054" lon="8.61894065375728"><ele>259.0</ele><time>2026-05-02T08:16:51.999Z</time></trkpt><trkpt lat="40.07862180485649" lon="8.618878913492058"><ele>261.0</ele><time>2026-05-02T08:16:52.999Z</time></trkpt><trkpt lat="40.07881228594381" lon="8.618823945289764"><ele>263.0</ele><time>2026-05-02T08:16:53.999Z</time></trkpt><trkpt lat="40.079004906966496" lon="8.618810908329495"><ele>265.0</ele><time>2026-05-02T08:16:54.999Z</time></trkpt><trkpt lat="40.07919120302721" lon="8.618845491479085"><ele>267.0</ele><time>2026-05-02T08:16:55.999Z</time></trkpt><trkpt lat="40.07935738040638" lon="8.618908444158015"><ele>269.0</ele><time>2026-05-02T08:16:56.999Z</time></trkpt><trkpt lat="40.079505178829784" lon="8.618962901705494"><ele>271.0</ele><time>2026-05-02T08:16:57.998Z</time></trkpt><trkpt lat="40.07964217478014" lon="8.619006409800447"><ele>271.0</ele><time>2026-05-02T08:16:58.998Z</time></trkpt><trkpt lat="40.07976539978657" lon="8.619051935770399"><ele>271.0</ele><time>2026-05-02T08:16:59.998Z</time></trkpt><trkpt lat="40.079877367752914" lon="8.61909221945333"><ele>271.0</ele><time>2026-05-02T08:17:00.998Z</time></trkpt><trkpt lat="40.07997951517091" lon="8.619127849012273"><ele>271.0</ele><time>2026-05-02T08:17:01.998Z</time></trkpt><trkpt lat="40.08005657011835" lon="8.619174667275125"><ele>271.0</ele><time>2026-05-02T08:17:02.998Z</time></trkpt><trkpt lat="40.08012504656314" lon="8.619271669207794"><ele>271.75</ele><time>2026-05-02T08:17:03.998Z</time></trkpt><trkpt lat="40.08017825941548" lon="8.619416110322524"><ele>272.5</ele><time>2026-05-02T08:17:04.998Z</time></trkpt><trkpt lat="40.08022338629797" lon="8.6195845210107"><ele>273.25</ele><time>2026-05-02T08:17:05.998Z</time></trkpt><trkpt lat="40.080277016102684" lon="8.619764019567794"><ele>274.0</ele><time>2026-05-02T08:17:07Z</time></trkpt><trkpt lat="40.08033609572245" lon="8.61995382436515"><ele>274.0</ele><time>2026-05-02T08:17:08Z</time></trkpt><trkpt lat="40.08039549217264" lon="8.620151577003131"><ele>274.0</ele><time>2026-05-02T08:17:09Z</time></trkpt><trkpt lat="40.08046196259955" lon="8.620355518393158"><ele>274.0</ele><time>2026-05-02T08:17:10Z</time></trkpt><trkpt lat="40.08053832741131" lon="8.620553524193049"><ele>273.75</ele><time>2026-05-02T08:17:11Z</time></trkpt><trkpt lat="40.080608950716766" lon="8.620729295066457"><ele>273.5</ele><time>2026-05-02T08:17:12Z</time></trkpt><trkpt lat="40.080670357651535" lon="8.620876333340169"><ele>273.25</ele><time>2026-05-02T08:17:13Z</time></trkpt><trkpt lat="40.080732759729" lon="8.620991866872417"><ele>273.0</ele><time>2026-05-02T08:17:14Z</time></trkpt><trkpt lat="40.08077335762087" lon="8.621072903718677"><ele>273.4</ele><time>2026-05-02T08:17:15Z</time></trkpt><trkpt lat="40.080803967611295" lon="8.621207440964795"><ele>273.8</ele><time>2026-05-02T08:17:17Z</time></trkpt><trkpt lat="40.08087105467519" lon="8.621332881151616"><ele>274.2</ele><time>2026-05-02T08:17:19Z</time></trkpt><trkpt lat="40.08093140836122" lon="8.621446573290417"><ele>274.6</ele><time>2026-05-02T08:17:21Z</time></trkpt><trkpt lat="40.0809927064837" lon="8.621546761574628"><ele>275.0</ele><time>2026-05-02T08:17:23Z</time></trkpt><trkpt lat="40.08103357748574" lon="8.621631800521358"><ele>275.0</ele><time>2026-05-02T08:17:25Z</time></trkpt><trkpt lat="40.08107222030624" lon="8.621712554854188"><ele>275.0</ele><time>2026-05-02T08:17:27Z</time></trkpt><trkpt lat="40.081102548252915" lon="8.621806331195316"><ele>275.0</ele><time>2026-05-02T08:17:31Z</time></trkpt><trkpt lat="40.08113696202373" lon="8.62196905769589"><ele>275.0</ele><time>2026-05-02T08:17:33Z</time></trkpt><trkpt lat="40.08116110091767" lon="8.6220568642355"><ele>275.0</ele><time>2026-05-02T08:17:34Z</time></trkpt><trkpt lat="40.081187233180124" lon="8.622151154283122"><ele>275.0</ele><time>2026-05-02T08:17:35Z</time></trkpt><trkpt lat="40.08121841899113" lon="8.62226029711262"><ele>274.4</ele><time>2026-05-02T08:17:36Z</time></trkpt><trkpt lat="40.081254518647306" lon="8.622373594447506"><ele>273.8</ele><time>2026-05-02T08:17:37Z</time></trkpt><trkpt lat="40.08129732863869" lon="8.622492409930771"><ele>273.2</ele><time>2026-05-02T08:17:38Z</time></trkpt><trkpt lat="40.081339796809125" lon="8.6226047346474"><ele>272.6</ele><time>2026-05-02T08:17:39Z</time></trkpt><trkpt lat="40.08139600536875" lon="8.622722496633102"><ele>272.0</ele><time>2026-05-02T08:17:40Z</time></trkpt><trkpt lat="40.081461020552545" lon="8.622852094907472"><ele>272.25</ele><time>2026-05-02T08:17:41Z</time></trkpt><trkpt lat="40.08150023023973" lon="8.623007426956729"><ele>272.5</ele><time>2026-05-02T08:17:42Z</time></trkpt><trkpt lat="40.08157156477866" lon="8.623167898022219"><ele>272.75</ele><time>2026-05-02T08:17:43Z</time></trkpt><trkpt lat="40.081628015605496" lon="8.623351495776607"><ele>273.0</ele><time>2026-05-02T08:17:44Z</time></trkpt><trkpt lat="40.08167753993574" lon="8.623511083602603"><ele>272.75</ele><time>2026-05-02T08:17:45Z</time></trkpt><trkpt lat="40.08173149108191" lon="8.623674590107132"><ele>272.5</ele><time>2026-05-02T08:17:46Z</time></trkpt><trkpt lat="40.08179214765312" lon="8.623851793139721"><ele>272.25</ele><time>2026-05-02T08:17:47Z</time></trkpt><trkpt lat="40.08184118574319" lon="8.624013896786519"><ele>272.0</ele><time>2026-05-02T08:17:48Z</time></trkpt><trkpt lat="40.08188597590144" lon="8.624161480598302"><ele>272.0</ele><time>2026-05-02T08:17:49Z</time></trkpt><trkpt lat="40.08195086218382" lon="8.62429238622043"><ele>272.0</ele><time>2026-05-02T08:17:50Z</time></trkpt><trkpt lat="40.08199852420145" lon="8.62444570886459"><ele>272.0</ele><time>2026-05-02T08:17:51Z</time></trkpt><trkpt lat="40.08207456395212" lon="8.624599636942913"><ele>272.0</ele><time>2026-05-02T08:17:52Z</time></trkpt><trkpt lat="40.082133717569256" lon="8.624756407106743"><ele>271.6</ele><time>2026-05-02T08:17:53Z</time></trkpt><trkpt lat="40.082170141772245" lon="8.624871044140145"><ele>271.2</ele><time>2026-05-02T08:17:54Z</time></trkpt><trkpt lat="40.082196752138046" lon="8.624952113733123"><ele>270.8</ele><time>2026-05-02T08:17:55Z</time></trkpt><trkpt lat="40.0821848361874" lon="8.625082164042434"><ele>270.4</ele><time>2026-05-02T08:17:56Z</time></trkpt><trkpt lat="40.08221263343189" lon="8.625253143810776"><ele>270.0</ele><time>2026-05-02T08:17:57Z</time></trkpt><trkpt lat="40.082241570898326" lon="8.625408927988305"><ele>269.8</ele><time>2026-05-02T08:17:57.999Z</time></trkpt><trkpt lat="40.08228677304967" lon="8.625528249815181"><ele>269.6</ele><time>2026-05-02T08:17:58.999Z</time></trkpt><trkpt lat="40.082342523797855" lon="8.625625716480052"><ele>269.4</ele><time>2026-05-02T08:17:59.999Z</time></trkpt><trkpt lat="40.08241337994541" lon="8.625702943062215"><ele>269.2</ele><time>2026-05-02T08:18:00.999Z</time></trkpt><trkpt lat="40.08248113390852" lon="8.625797216457485"><ele>269.0</ele><time>2026-05-02T08:18:01.999Z</time></trkpt><trkpt lat="40.08257243903323" lon="8.625880330937019"><ele>268.59999999999997</ele><time>2026-05-02T08:18:02.999Z</time></trkpt><trkpt lat="40.08265381227209" lon="8.625960385264444"><ele>268.2</ele><time>2026-05-02T08:18:03.999Z</time></trkpt><trkpt lat="40.0827169674561" lon="8.626063657009993"><ele>267.79999999999995</ele><time>2026-05-02T08:18:04.999Z</time></trkpt><trkpt lat="40.082786191220364" lon="8.62618772023492"><ele>267.4</ele><time>2026-05-02T08:18:05.999Z</time></trkpt><trkpt lat="40.082842665434306" lon="8.626313346903506"><ele>267.0</ele><time>2026-05-02T08:18:06.999Z</time></trkpt><trkpt lat="40.082885196175056" lon="8.626466449136633"><ele>266.25</ele><time>2026-05-02T08:18:07.999Z</time></trkpt><trkpt lat="40.08292770571083" lon="8.626628307568534"><ele>265.5</ele><time>2026-05-02T08:18:08.999Z</time></trkpt><trkpt lat="40.082956108975516" lon="8.626807649506926"><ele>264.75</ele><time>2026-05-02T08:18:09.999Z</time></trkpt><trkpt lat="40.08299159336673" lon="8.626980633102415"><ele>264.0</ele><time>2026-05-02T08:18:10.999Z</time></trkpt><trkpt lat="40.083034685720826" lon="8.627147690288647"><ele>262.3333333333333</ele><time>2026-05-02T08:18:11.999Z</time></trkpt><trkpt lat="40.08309565379664" lon="8.627328794183375"><ele>260.66666666666663</ele><time>2026-05-02T08:18:12.999Z</time></trkpt><trkpt lat="40.083139836787744" lon="8.627520955804625"><ele>259.0</ele><time>2026-05-02T08:18:13.999Z</time></trkpt><trkpt lat="40.083176134314925" lon="8.627717207919845"><ele>259.2</ele><time>2026-05-02T08:18:14.999Z</time></trkpt><trkpt lat="40.08321379358428" lon="8.627892797649974"><ele>259.4</ele><time>2026-05-02T08:18:15.999Z</time></trkpt><trkpt lat="40.08323858323231" lon="8.628015076335313"><ele>259.6</ele><time>2026-05-02T08:18:16.999Z</time></trkpt><trkpt lat="40.08327074661403" lon="8.628105228084433"><ele>259.8</ele><time>2026-05-02T08:18:17.999Z</time></trkpt><trkpt lat="40.083329232065246" lon="8.628202574025083"><ele>260.0</ele><time>2026-05-02T08:18:18.999Z</time></trkpt><trkpt lat="40.08339988790268" lon="8.628322330403012"><ele>260.0</ele><time>2026-05-02T08:18:19.999Z</time></trkpt><trkpt lat="40.08346358684365" lon="8.628453661361153"><ele>260.0</ele><time>2026-05-02T08:18:20.999Z</time></trkpt><trkpt lat="40.083533448194224" lon="8.628569540289744"><ele>260.0</ele><time>2026-05-02T08:18:21.999Z</time></trkpt><trkpt lat="40.08360612294266" lon="8.628671210617966"><ele>260.0</ele><time>2026-05-02T08:18:22.999Z</time></trkpt><trkpt lat="40.083673636470934" lon="8.628786541099165"><ele>260.0</ele><time>2026-05-02T08:18:23.999Z</time></trkpt><trkpt lat="40.08372168746731" lon="8.628897602441224"><ele>259.8</ele><time>2026-05-02T08:18:24.999Z</time></trkpt><trkpt lat="40.08375594189688" lon="8.62900425717392"><ele>259.6</ele><time>2026-05-02T08:18:25.999Z</time></trkpt><trkpt lat="40.08379119967639" lon="8.629092209290377"><ele>259.4</ele><time>2026-05-02T08:18:26.999Z</time></trkpt><trkpt lat="40.08387193767535" lon="8.629165033874619"><ele>259.2</ele><time>2026-05-02T08:18:27.999Z</time></trkpt><trkpt lat="40.08397536580598" lon="8.629236184779952"><ele>259.0</ele><time>2026-05-02T08:18:28.999Z</time></trkpt><trkpt lat="40.08406402616428" lon="8.629337223206248"><ele>260.75</ele><time>2026-05-02T08:18:29.999Z</time></trkpt><trkpt lat="40.08415082918375" lon="8.629451581127393"><ele>262.5</ele><time>2026-05-02T08:18:30.999Z</time></trkpt><trkpt lat="40.08423960068504" lon="8.62952843186591"><ele>264.25</ele><time>2026-05-02T08:18:31.999Z</time></trkpt><trkpt lat="40.08432585085807" lon="8.629615084386932"><ele>266.0</ele><time>2026-05-02T08:18:32.999Z</time></trkpt><trkpt lat="40.08442286804331" lon="8.62971810910012"><ele>266.0</ele><time>2026-05-02T08:18:33.999Z</time></trkpt><trkpt lat="40.08451036474016" lon="8.629801659953"><ele>266.0</ele><time>2026-05-02T08:18:34.999Z</time></trkpt><trkpt lat="40.0846120004184" lon="8.629875776662368"><ele>266.0</ele><time>2026-05-02T08:18:35.999Z</time></trkpt><trkpt lat="40.08470214288141" lon="8.62995888835226"><ele>266.0</ele><time>2026-05-02T08:18:36.999Z</time></trkpt><trkpt lat="40.08479657392149" lon="8.630030264533278"><ele>266.0</ele><time>2026-05-02T08:18:37.999Z</time></trkpt><trkpt lat="40.08489338388732" lon="8.630093065487394"><ele>265.6</ele><time>2026-05-02T08:18:38.999Z</time></trkpt><trkpt lat="40.084970392787866" lon="8.630187912177735"><ele>265.20000000000005</ele><time>2026-05-02T08:18:39.999Z</time></trkpt><trkpt lat="40.085056171513536" lon="8.630279422267304"><ele>264.79999999999995</ele><time>2026-05-02T08:18:40.999Z</time></trkpt><trkpt lat="40.085149880338385" lon="8.630341270698699"><ele>264.4</ele><time>2026-05-02T08:18:41.999Z</time></trkpt><trkpt lat="40.085257054299184" lon="8.630415363173913"><ele>264.0</ele><time>2026-05-02T08:18:42.999Z</time></trkpt><trkpt lat="40.085350776274154" lon="8.630519813566137"><ele>264.0</ele><time>2026-05-02T08:18:43.999Z</time></trkpt><trkpt lat="40.08542751620493" lon="8.630586207042525"><ele>264.0</ele><time>2026-05-02T08:18:44.999Z</time></trkpt><trkpt lat="40.08550558058694" lon="8.63063398998983"><ele>264.0</ele><time>2026-05-02T08:18:45.999Z</time></trkpt><trkpt lat="40.08562479115951" lon="8.630675539201594"><ele>264.0</ele><time>2026-05-02T08:18:46.999Z</time></trkpt><trkpt lat="40.0857585570006" lon="8.630742609509156"><ele>264.0</ele><time>2026-05-02T08:18:47.999Z</time></trkpt><trkpt lat="40.08587731718965" lon="8.630816506526894"><ele>264.2</ele><time>2026-05-02T08:18:48.999Z</time></trkpt><trkpt lat="40.08597007399981" lon="8.630852279491863"><ele>264.4</ele><time>2026-05-02T08:18:49.999Z</time></trkpt><trkpt lat="40.08604839088416" lon="8.630878094627287"><ele>264.6</ele><time>2026-05-02T08:18:50.999Z</time></trkpt><trkpt lat="40.08612841920769" lon="8.630958025444427"><ele>264.8</ele><time>2026-05-02T08:18:52.999Z</time></trkpt><trkpt lat="40.08619381538438" lon="8.631044183003862"><ele>265.0</ele><time>2026-05-02T08:18:54.999Z</time></trkpt><trkpt lat="40.086244465036316" lon="8.631143547901576"><ele>264.25</ele><time>2026-05-02T08:18:56.999Z</time></trkpt><trkpt lat="40.0863484417029" lon="8.631322492705973"><ele>263.5</ele><time>2026-05-02T08:18:59.999Z</time></trkpt><trkpt lat="40.08631534813216" lon="8.6314590454928"><ele>262.75</ele><time>2026-05-02T08:19:00.999Z</time></trkpt><trkpt lat="40.086316910513574" lon="8.631575140233709"><ele>262.0</ele><time>2026-05-02T08:19:01.999Z</time></trkpt><trkpt lat="40.086345210459626" lon="8.631754417356886"><ele>262.0</ele><time>2026-05-02T08:19:02.998Z</time></trkpt><trkpt lat="40.08634873944923" lon="8.631916063107946"><ele>262.0</ele><time>2026-05-02T08:19:03.998Z</time></trkpt><trkpt lat="40.086344039017604" lon="8.632083164401555"><ele>262.0</ele><time>2026-05-02T08:19:04.998Z</time></trkpt><trkpt lat="40.08634309841743" lon="8.63224433301576"><ele>262.0</ele><time>2026-05-02T08:19:05.998Z</time></trkpt><trkpt lat="40.086354050981285" lon="8.632340023853933"><ele>262.0</ele><time>2026-05-02T08:19:06.998Z</time></trkpt><trkpt lat="40.08624691074839" lon="8.632460510857513"><ele>260.3333333333333</ele><time>2026-05-02T08:19:13Z</time></trkpt><trkpt lat="40.08608994101579" lon="8.632523810855071"><ele>258.6666666666667</ele><time>2026-05-02T08:19:14Z</time></trkpt><trkpt lat="40.085926077866205" lon="8.632562140507744"><ele>257.0</ele><time>2026-05-02T08:19:15Z</time></trkpt><trkpt lat="40.0857698511135" lon="8.632592520720541"><ele>257.0</ele><time>2026-05-02T08:19:16Z</time></trkpt><trkpt lat="40.085622400665905" lon="8.632611476633338"><ele>257.0</ele><time>2026-05-02T08:19:17Z</time></trkpt><trkpt lat="40.085535985773404" lon="8.632618959727724"><ele>257.0</ele><time>2026-05-02T08:19:18Z</time></trkpt><trkpt lat="40.08545589268629" lon="8.63264591244285"><ele>257.0</ele><time>2026-05-02T08:19:19Z</time></trkpt><trkpt lat="40.085536747068076" lon="8.632734943259937"><ele>257.0</ele><time>2026-05-02T08:19:22Z</time></trkpt><trkpt lat="40.0855466372952" lon="8.632881488976729"><ele>256.0</ele><time>2026-05-02T08:19:24Z</time></trkpt><trkpt lat="40.08560601756861" lon="8.632953612910988"><ele>255.0</ele><time>2026-05-02T08:19:25Z</time></trkpt><trkpt lat="40.085699522551955" lon="8.633042921282991"><ele>254.0</ele><time>2026-05-02T08:19:26Z</time></trkpt><trkpt lat="40.085813968530424" lon="8.633176411001267"><ele>253.0</ele><time>2026-05-02T08:19:27Z</time></trkpt><trkpt lat="40.08592916981361" lon="8.633330164569523"><ele>252.66666666666666</ele><time>2026-05-02T08:19:28Z</time></trkpt><trkpt lat="40.08602331603604" lon="8.633500105579841"><ele>252.33333333333331</ele><time>2026-05-02T08:19:29Z</time></trkpt><trkpt lat="40.0861114156072" lon="8.633658014940007"><ele>252.0</ele><time>2026-05-02T08:19:30Z</time></trkpt><trkpt lat="40.08620069060899" lon="8.633832302589301"><ele>251.6</ele><time>2026-05-02T08:19:31Z</time></trkpt><trkpt lat="40.0863023497794" lon="8.633969443299886"><ele>251.2</ele><time>2026-05-02T08:19:32Z</time></trkpt><trkpt lat="40.08638037482577" lon="8.63404799632228"><ele>250.8</ele><time>2026-05-02T08:19:33Z</time></trkpt><trkpt lat="40.08646604161206" lon="8.634130939135908"><ele>250.4</ele><time>2026-05-02T08:19:34Z</time></trkpt><trkpt lat="40.086521023863796" lon="8.634234648481684"><ele>250.0</ele><time>2026-05-02T08:19:35Z</time></trkpt><trkpt lat="40.086553707333465" lon="8.634340440883964"><ele>250.0</ele><time>2026-05-02T08:19:36Z</time></trkpt><trkpt lat="40.08655367994003" lon="8.634431691129803"><ele>250.0</ele><time>2026-05-02T08:19:37Z</time></trkpt><trkpt lat="40.086544767377504" lon="8.634529564826195"><ele>250.0</ele><time>2026-05-02T08:19:38Z</time></trkpt><trkpt lat="40.08653352773995" lon="8.634652780321336"><ele>250.0</ele><time>2026-05-02T08:19:39Z</time></trkpt><trkpt lat="40.086511037533114" lon="8.634789114435982"><ele>250.0</ele><time>2026-05-02T08:19:40Z</time></trkpt><trkpt lat="40.08647430238089" lon="8.634973017247756"><ele>249.0</ele><time>2026-05-02T08:19:41Z</time></trkpt><trkpt lat="40.0864393382072" lon="8.635127410588552"><ele>248.0</ele><time>2026-05-02T08:19:42Z</time></trkpt><trkpt lat="40.0864243195562" lon="8.635297085627638"><ele>247.0</ele><time>2026-05-02T08:19:43Z</time></trkpt><trkpt lat="40.08641305943597" lon="8.635534574836699"><ele>246.0</ele><time>2026-05-02T08:19:44Z</time></trkpt><trkpt lat="40.08639171463521" lon="8.635779604503986"><ele>245.0</ele><time>2026-05-02T08:19:45Z</time></trkpt><trkpt lat="40.08637189624805" lon="8.635988598303701"><ele>244.0</ele><time>2026-05-02T08:19:46Z</time></trkpt><trkpt lat="40.0863475220832" lon="8.63615392685926"><ele>243.0</ele><time>2026-05-02T08:19:47Z</time></trkpt><trkpt lat="40.08631891863995" lon="8.636277642685291"><ele>242.0</ele><time>2026-05-02T08:19:48Z</time></trkpt><trkpt lat="40.08629415052419" lon="8.63639183015734"><ele>242.0</ele><time>2026-05-02T08:19:49Z</time></trkpt><trkpt lat="40.08628472473735" lon="8.636531936825376"><ele>242.0</ele><time>2026-05-02T08:19:50Z</time></trkpt><trkpt lat="40.08629280881786" lon="8.636691252384315"><ele>242.0</ele><time>2026-05-02T08:19:51Z</time></trkpt><trkpt lat="40.08630227800921" lon="8.636846105137613"><ele>242.0</ele><time>2026-05-02T08:19:52Z</time></trkpt><trkpt lat="40.086311226174466" lon="8.636991178711611"><ele>242.39999999999998</ele><time>2026-05-02T08:19:53Z</time></trkpt><trkpt lat="40.08630847302109" lon="8.63711289973114"><ele>242.79999999999998</ele><time>2026-05-02T08:19:54Z</time></trkpt><trkpt lat="40.08628502202949" lon="8.637229312756736"><ele>243.2</ele><time>2026-05-02T08:19:55Z</time></trkpt><trkpt lat="40.08624666902815" lon="8.637349104898671"><ele>243.6</ele><time>2026-05-02T08:19:56Z</time></trkpt><trkpt lat="40.086222268742034" lon="8.63748968103096"><ele>244.0</ele><time>2026-05-02T08:19:57Z</time></trkpt><trkpt lat="40.086203258971295" lon="8.637621178086471"><ele>244.0</ele><time>2026-05-02T08:19:58Z</time></trkpt><trkpt lat="40.08616562509277" lon="8.637736483862566"><ele>243.99999999999997</ele><time>2026-05-02T08:19:59Z</time></trkpt><trkpt lat="40.086106115955204" lon="8.637827072958578"><ele>243.99999999999997</ele><time>2026-05-02T08:20:00Z</time></trkpt><trkpt lat="40.08604105678523" lon="8.637910472422028"><ele>244.0</ele><time>2026-05-02T08:20:01Z</time></trkpt><trkpt lat="40.08597172924155" lon="8.63797863103437"><ele>244.0</ele><time>2026-05-02T08:20:02Z</time></trkpt><trkpt lat="40.08589267611862" lon="8.63804129701807"><ele>244.16666666666666</ele><time>2026-05-02T08:20:02.999Z</time></trkpt><trkpt lat="40.085831046530686" lon="8.638105137816433"><ele>244.33333333333331</ele><time>2026-05-02T08:20:03.999Z</time></trkpt><trkpt lat="40.08578940495256" lon="8.63825689567555"><ele>244.5</ele><time>2026-05-02T08:20:05.999Z</time></trkpt><trkpt lat="40.08579308640951" lon="8.638356507003476"><ele>244.66666666666669</ele><time>2026-05-02T08:20:06.999Z</time></trkpt><trkpt lat="40.08581526126561" lon="8.63846030470755"><ele>244.83333333333334</ele><time>2026-05-02T08:20:07.999Z</time></trkpt><trkpt lat="40.085832467639435" lon="8.638550396075415"><ele>245.0</ele><time>2026-05-02T08:20:08.999Z</time></trkpt><trkpt lat="40.08580504282265" lon="8.638660023534982"><ele>245.0</ele><time>2026-05-02T08:20:09.999Z</time></trkpt><trkpt lat="40.085782468606865" lon="8.63878571413734"><ele>245.0</ele><time>2026-05-02T08:20:10.999Z</time></trkpt><trkpt lat="40.085794381434596" lon="8.63889652889634"><ele>245.0</ele><time>2026-05-02T08:20:11.999Z</time></trkpt><trkpt lat="40.08580501580738" lon="8.63899930722957"><ele>245.0</ele><time>2026-05-02T08:20:13.999Z</time></trkpt><trkpt lat="40.08580445194349" lon="8.639162641545658"><ele>245.0</ele><time>2026-05-02T08:20:15.999Z</time></trkpt><trkpt lat="40.08578877253484" lon="8.639264897943193"><ele>244.33333333333334</ele><time>2026-05-02T08:20:16.999Z</time></trkpt><trkpt lat="40.08571990483506" lon="8.639389301939955"><ele>243.66666666666669</ele><time>2026-05-02T08:20:18.999Z</time></trkpt><trkpt lat="40.08566669614754" lon="8.639455024104874"><ele>243.0</ele><time>2026-05-02T08:20:19.999Z</time></trkpt><trkpt lat="40.08563066800725" lon="8.639524913981779"><ele>242.33333333333331</ele><time>2026-05-02T08:20:20.999Z</time></trkpt><trkpt lat="40.085597400628636" lon="8.639603323647782"><ele>241.66666666666666</ele><time>2026-05-02T08:20:22.999Z</time></trkpt><trkpt lat="40.085585041797394" lon="8.63973005431617"><ele>241.0</ele><time>2026-05-02T08:20:25.999Z</time></trkpt><trkpt lat="40.08554606587226" lon="8.639811024519776"><ele>241.0</ele><time>2026-05-02T08:20:28.999Z</time></trkpt><trkpt lat="40.08549827008651" lon="8.640026513839745"><ele>241.00000000000003</ele><time>2026-05-02T08:20:30.999Z</time></trkpt><trkpt lat="40.08544460955217" lon="8.640168892170811"><ele>241.00000000000003</ele><time>2026-05-02T08:20:32.999Z</time></trkpt><trkpt lat="40.0854214388336" lon="8.64025926585327"><ele>241.0</ele><time>2026-05-02T08:20:33.999Z</time></trkpt><trkpt lat="40.08541200301048" lon="8.640354316583421"><ele>241.0</ele><time>2026-05-02T08:20:34.999Z</time></trkpt><trkpt lat="40.08538638651321" lon="8.640467476806979"><ele>240.8</ele><time>2026-05-02T08:20:35.999Z</time></trkpt><trkpt lat="40.08535586092502" lon="8.640589494188768"><ele>240.60000000000002</ele><time>2026-05-02T08:20:36.999Z</time></trkpt><trkpt lat="40.085303072981624" lon="8.640717747643736"><ele>240.4</ele><time>2026-05-02T08:20:37.999Z</time></trkpt><trkpt lat="40.08524880805589" lon="8.640846696209675"><ele>240.2</ele><time>2026-05-02T08:20:38.999Z</time></trkpt><trkpt lat="40.08520298925904" lon="8.640968299139685"><ele>240.0</ele><time>2026-05-02T08:20:39.999Z</time></trkpt><trkpt lat="40.08518286330121" lon="8.641099969897551"><ele>239.8</ele><time>2026-05-02T08:20:40.999Z</time></trkpt><trkpt lat="40.08518542931559" lon="8.641234170488595"><ele>239.6</ele><time>2026-05-02T08:20:41.999Z</time></trkpt><trkpt lat="40.085178695779064" lon="8.641396340464146"><ele>239.39999999999998</ele><time>2026-05-02T08:20:42.999Z</time></trkpt><trkpt lat="40.0851664852178" lon="8.641543232694032"><ele>239.2</ele><time>2026-05-02T08:20:43.999Z</time></trkpt><trkpt lat="40.08515248411769" lon="8.641627992397602"><ele>239.0</ele><time>2026-05-02T08:20:44.999Z</time></trkpt><trkpt lat="40.08514445834547" lon="8.641719833366292"><ele>239.0</ele><time>2026-05-02T08:20:45.999Z</time></trkpt><trkpt lat="40.085131139360335" lon="8.64182010221117"><ele>238.99999999999997</ele><time>2026-05-02T08:20:46.999Z</time></trkpt><trkpt lat="40.08516450909837" lon="8.641952931305472"><ele>238.99999999999997</ele><time>2026-05-02T08:20:48.999Z</time></trkpt><trkpt lat="40.08523232517286" lon="8.642060669697202"><ele>239.0</ele><time>2026-05-02T08:20:50.999Z</time></trkpt><trkpt lat="40.08533630614312" lon="8.64211829798292"><ele>239.0</ele><time>2026-05-02T08:20:52.999Z</time></trkpt><trkpt lat="40.085386424238216" lon="8.642195334351058"><ele>239.6</ele><time>2026-05-02T08:20:53.999Z</time></trkpt><trkpt lat="40.08543160510347" lon="8.642300005904385"><ele>240.2</ele><time>2026-05-02T08:20:54.999Z</time></trkpt><trkpt lat="40.085471347476776" lon="8.642413315288302"><ele>240.79999999999998</ele><time>2026-05-02T08:20:55.999Z</time></trkpt><trkpt lat="40.085527019201976" lon="8.642521462251482"><ele>241.39999999999998</ele><time>2026-05-02T08:20:56.999Z</time></trkpt><trkpt lat="40.08559258862026" lon="8.642614159843255"><ele>242.0</ele><time>2026-05-02T08:20:57.999Z</time></trkpt><trkpt lat="40.085655191729785" lon="8.642696838380266"><ele>242.00000000000003</ele><time>2026-05-02T08:20:58.999Z</time></trkpt><trkpt lat="40.08570194513764" lon="8.642762082790652"><ele>242.0</ele><time>2026-05-02T08:20:59.999Z</time></trkpt><trkpt lat="40.0857569930037" lon="8.642817544762613"><ele>242.0</ele><time>2026-05-02T08:21:00.999Z</time></trkpt><trkpt lat="40.085813017219095" lon="8.642863054211073"><ele>242.0</ele><time>2026-05-02T08:21:01.999Z</time></trkpt><trkpt lat="40.08586949650302" lon="8.642914250438011"><ele>242.00000000000003</ele><time>2026-05-02T08:21:02.999Z</time></trkpt><trkpt lat="40.08594402222528" lon="8.64297768967189"><ele>242.0</ele><time>2026-05-02T08:21:03.999Z</time></trkpt><trkpt lat="40.08602041220299" lon="8.643051308558336"><ele>242.5</ele><time>2026-05-02T08:21:04.999Z</time></trkpt><trkpt lat="40.086101793212386" lon="8.643141556512067"><ele>243.0</ele><time>2026-05-02T08:21:05.999Z</time></trkpt><trkpt lat="40.08619404380768" lon="8.643262976638562"><ele>243.5</ele><time>2026-05-02T08:21:06.999Z</time></trkpt><trkpt lat="40.086302127251244" lon="8.643416363655449"><ele>244.0</ele><time>2026-05-02T08:21:07.998Z</time></trkpt><trkpt lat="40.08641320462875" lon="8.64358203429301"><ele>244.0</ele><time>2026-05-02T08:21:08.998Z</time></trkpt><trkpt lat="40.08649333111057" lon="8.64374570095446"><ele>244.0</ele><time>2026-05-02T08:21:09.998Z</time></trkpt><trkpt lat="40.08655377344305" lon="8.643900670491023"><ele>244.0</ele><time>2026-05-02T08:21:10.998Z</time></trkpt><trkpt lat="40.086637282133594" lon="8.64404237058694"><ele>244.0</ele><time>2026-05-02T08:21:11.998Z</time></trkpt><trkpt lat="40.086734560034714" lon="8.644155585922272"><ele>244.2</ele><time>2026-05-02T08:21:12.998Z</time></trkpt><trkpt lat="40.08682139179291" lon="8.6442370406615"><ele>244.39999999999998</ele><time>2026-05-02T08:21:13.998Z</time></trkpt><trkpt lat="40.08690723719389" lon="8.64429349046757"><ele>244.6</ele><time>2026-05-02T08:21:14.998Z</time></trkpt><trkpt lat="40.087010679754435" lon="8.644325610679358"><ele>244.8</ele><time>2026-05-02T08:21:15.998Z</time></trkpt><trkpt lat="40.087120147097274" lon="8.644348381960892"><ele>245.0</ele><time>2026-05-02T08:21:16.998Z</time></trkpt><trkpt lat="40.08719278023499" lon="8.64439902860213"><ele>245.00000000000003</ele><time>2026-05-02T08:21:18Z</time></trkpt><trkpt lat="40.08726095594534" lon="8.644446925713684"><ele>245.0</ele><time>2026-05-02T08:21:19Z</time></trkpt><trkpt lat="40.087315341507725" lon="8.644516770290798"><ele>245.0</ele><time>2026-05-02T08:21:20Z</time></trkpt><trkpt lat="40.08736752331195" lon="8.644602188857156"><ele>245.0</ele><time>2026-05-02T08:21:21Z</time></trkpt><trkpt lat="40.087407244505194" lon="8.644684038289013"><ele>245.00000000000003</ele><time>2026-05-02T08:21:22Z</time></trkpt><trkpt lat="40.087439311223704" lon="8.644758972874534"><ele>245.0</ele><time>2026-05-02T08:21:23Z</time></trkpt><trkpt lat="40.08747320329889" lon="8.64485001780273"><ele>244.83333333333334</ele><time>2026-05-02T08:21:24Z</time></trkpt><trkpt lat="40.087519616456724" lon="8.6449400046062"><ele>244.66666666666669</ele><time>2026-05-02T08:21:25Z</time></trkpt><trkpt lat="40.08754757945768" lon="8.645033907287472"><ele>244.5</ele><time>2026-05-02T08:21:26Z</time></trkpt><trkpt lat="40.087582505281866" lon="8.645119869985864"><ele>244.33333333333331</ele><time>2026-05-02T08:21:27Z</time></trkpt><trkpt lat="40.087629780859835" lon="8.645197693560059"><ele>244.16666666666666</ele><time>2026-05-02T08:21:28Z</time></trkpt><trkpt lat="40.08770068292239" lon="8.645268299954989"><ele>244.0</ele><time>2026-05-02T08:21:29Z</time></trkpt><trkpt lat="40.08778567639158" lon="8.645335818759525"><ele>242.99999999999997</ele><time>2026-05-02T08:21:30Z</time></trkpt><trkpt lat="40.08785154663999" lon="8.645388696494056"><ele>242.0</ele><time>2026-05-02T08:21:31Z</time></trkpt><trkpt lat="40.08790898609832" lon="8.645446375911812"><ele>241.0</ele><time>2026-05-02T08:21:32Z</time></trkpt><trkpt lat="40.08796443434554" lon="8.645522116929163"><ele>240.0</ele><time>2026-05-02T08:21:33Z</time></trkpt><trkpt lat="40.088011041672175" lon="8.645609580363473"><ele>238.99999999999997</ele><time>2026-05-02T08:21:34Z</time></trkpt><trkpt lat="40.08803810048212" lon="8.645710813421983"><ele>238.0</ele><time>2026-05-02T08:21:35Z</time></trkpt><trkpt lat="40.088027760215944" lon="8.645816986970928"><ele>237.99999999999997</ele><time>2026-05-02T08:21:36Z</time></trkpt><trkpt lat="40.08803064626155" lon="8.645924386261415"><ele>238.0</ele><time>2026-05-02T08:21:37Z</time></trkpt><trkpt lat="40.08803876237994" lon="8.646030951635858"><ele>238.0</ele><time>2026-05-02T08:21:38Z</time></trkpt><trkpt lat="40.087991136138314" lon="8.646133165442313"><ele>238.0</ele><time>2026-05-02T08:21:39Z</time></trkpt><trkpt lat="40.08798462724453" lon="8.646252604821123"><ele>237.99999999999997</ele><time>2026-05-02T08:21:40Z</time></trkpt><trkpt lat="40.08796248361849" lon="8.646377368044455"><ele>238.0</ele><time>2026-05-02T08:21:41Z</time></trkpt><trkpt lat="40.08795970614916" lon="8.646504862077508"><ele>239.16666666666666</ele><time>2026-05-02T08:21:42Z</time></trkpt><trkpt lat="40.08795103565839" lon="8.646620619282533"><ele>240.33333333333331</ele><time>2026-05-02T08:21:43Z</time></trkpt><trkpt lat="40.0879464967838" lon="8.646730607777593"><ele>241.5</ele><time>2026-05-02T08:21:44Z</time></trkpt><trkpt lat="40.087937962829415" lon="8.646838263663055"><ele>242.66666666666669</ele><time>2026-05-02T08:21:45Z</time></trkpt><trkpt lat="40.08793469534638" lon="8.646942750254345"><ele>243.83333333333334</ele><time>2026-05-02T08:21:46Z</time></trkpt><trkpt lat="40.087941887458285" lon="8.647042465501862"><ele>245.0</ele><time>2026-05-02T08:21:47Z</time></trkpt><trkpt lat="40.087963361690015" lon="8.647136227325882"><ele>246.83333333333334</ele><time>2026-05-02T08:21:48Z</time></trkpt><trkpt lat="40.08799821104247" lon="8.647224204500814"><ele>248.66666666666669</ele><time>2026-05-02T08:21:49Z</time></trkpt><trkpt lat="40.08803555291089" lon="8.647298619959827"><ele>250.5</ele><time>2026-05-02T08:21:50Z</time></trkpt><trkpt lat="40.08806889896651" lon="8.64737535718389"><ele>252.33333333333331</ele><time>2026-05-02T08:21:51Z</time></trkpt><trkpt lat="40.088046875064535" lon="8.647476896081491"><ele>254.16666666666666</ele><time>2026-05-02T08:21:52Z</time></trkpt><trkpt lat="40.08801969691705" lon="8.647589373336206"><ele>256.0</ele><time>2026-05-02T08:21:53Z</time></trkpt><trkpt lat="40.08798987821756" lon="8.647714375591464"><ele>256.16666666666663</ele><time>2026-05-02T08:21:54Z</time></trkpt><trkpt lat="40.08797975622325" lon="8.647821978321907"><ele>256.3333333333333</ele><time>2026-05-02T08:21:55Z</time></trkpt><trkpt lat="40.08793895134025" lon="8.647910178612797"><ele>256.5</ele><time>2026-05-02T08:21:56Z</time></trkpt><trkpt lat="40.08792650685832" lon="8.648016305486482"><ele>256.6666666666667</ele><time>2026-05-02T08:21:57Z</time></trkpt><trkpt lat="40.087896334474735" lon="8.648128577447766"><ele>256.83333333333337</ele><time>2026-05-02T08:21:58Z</time></trkpt><trkpt lat="40.08788882907768" lon="8.648251735433265"><ele>257.0</ele><time>2026-05-02T08:21:59Z</time></trkpt><trkpt lat="40.08789236430136" lon="8.64835401331893"><ele>257.0</ele><time>2026-05-02T08:22:00Z</time></trkpt><trkpt lat="40.08790861398951" lon="8.648444438649102"><ele>257.0</ele><time>2026-05-02T08:22:01Z</time></trkpt><trkpt lat="40.087929478880184" lon="8.64853681529818"><ele>257.0</ele><time>2026-05-02T08:22:02Z</time></trkpt><trkpt lat="40.087949705717875" lon="8.648621098259714"><ele>257.0</ele><time>2026-05-02T08:22:03Z</time></trkpt><trkpt lat="40.087977601242514" lon="8.648766798159176"><ele>257.0</ele><time>2026-05-02T08:22:05Z</time></trkpt><trkpt lat="40.088015401014026" lon="8.64884713385519"><ele>257.0</ele><time>2026-05-02T08:22:06Z</time></trkpt><trkpt lat="40.088085859867675" lon="8.648918775690797"><ele>256.83333333333337</ele><time>2026-05-02T08:22:06.999Z</time></trkpt><trkpt lat="40.08816736669021" lon="8.648996355609832"><ele>256.6666666666667</ele><time>2026-05-02T08:22:07.999Z</time></trkpt><trkpt lat="40.08823241428812" lon="8.649084973593254"><ele>256.5</ele><time>2026-05-02T08:22:08.999Z</time></trkpt><trkpt lat="40.088263223206496" lon="8.64917992043168"><ele>256.3333333333333</ele><time>2026-05-02T08:22:09.999Z</time></trkpt><trkpt lat="40.088275557628684" lon="8.649265263759517"><ele>256.16666666666663</ele><time>2026-05-02T08:22:10.999Z</time></trkpt><trkpt lat="40.08832307048395" lon="8.64939205068194"><ele>256.0</ele><time>2026-05-02T08:22:12.999Z</time></trkpt><trkpt lat="40.08834955942532" lon="8.649491727100314"><ele>256.0</ele><time>2026-05-02T08:22:13.999Z</time></trkpt><trkpt lat="40.08843857269835" lon="8.649568779531597"><ele>256.0</ele><time>2026-05-02T08:22:14.999Z</time></trkpt><trkpt lat="40.088474159669076" lon="8.649706144176129"><ele>256.0</ele><time>2026-05-02T08:22:15.999Z</time></trkpt><trkpt lat="40.08858340056132" lon="8.649796115904488"><ele>256.0</ele><time>2026-05-02T08:22:16.999Z</time></trkpt><trkpt lat="40.088652403201394" lon="8.649905052613516"><ele>256.0</ele><time>2026-05-02T08:22:17.999Z</time></trkpt><trkpt lat="40.08873011511076" lon="8.650008574004541"><ele>256.0</ele><time>2026-05-02T08:22:18.999Z</time></trkpt><trkpt lat="40.088772875455064" lon="8.65013356792162"><ele>256.0</ele><time>2026-05-02T08:22:19.999Z</time></trkpt><trkpt lat="40.08879284313011" lon="8.650287565589398"><ele>256.0</ele><time>2026-05-02T08:22:20.999Z</time></trkpt><trkpt lat="40.08881784728949" lon="8.65043161958509"><ele>256.0</ele><time>2026-05-02T08:22:21.999Z</time></trkpt><trkpt lat="40.08883622006782" lon="8.650575864877316"><ele>254.20000000000002</ele><time>2026-05-02T08:22:22.999Z</time></trkpt><trkpt lat="40.08884461995664" lon="8.650695427030223"><ele>252.40000000000003</ele><time>2026-05-02T08:22:23.999Z</time></trkpt><trkpt lat="40.08889080265313" lon="8.650825184786633"><ele>250.6</ele><time>2026-05-02T08:22:25.999Z</time></trkpt><trkpt lat="40.088947798919364" lon="8.650877676507902"><ele>248.8</ele><time>2026-05-02T08:22:26.999Z</time></trkpt><trkpt lat="40.08897731618896" lon="8.651019345397362"><ele>247.0</ele><time>2026-05-02T08:22:27.999Z</time></trkpt><trkpt lat="40.089035922801195" lon="8.651210833319547"><ele>246.0</ele><time>2026-05-02T08:22:28.999Z</time></trkpt><trkpt lat="40.08910676415848" lon="8.651398020700622"><ele>245.0</ele><time>2026-05-02T08:22:29.999Z</time></trkpt><trkpt lat="40.08920714212734" lon="8.65155136555767"><ele>244.0</ele><time>2026-05-02T08:22:30.999Z</time></trkpt><trkpt lat="40.08926127623544" lon="8.651645500175412"><ele>243.0</ele><time>2026-05-02T08:22:31.999Z</time></trkpt><trkpt lat="40.089347768917094" lon="8.651733932720013"><ele>243.0</ele><time>2026-05-02T08:22:32.999Z</time></trkpt><trkpt lat="40.089456283499366" lon="8.651822218619994"><ele>243.0</ele><time>2026-05-02T08:22:33.999Z</time></trkpt><trkpt lat="40.08956201548018" lon="8.651897394495451"><ele>243.0</ele><time>2026-05-02T08:22:34.999Z</time></trkpt><trkpt lat="40.089678837843586" lon="8.651994878871172"><ele>243.0</ele><time>2026-05-02T08:22:35.999Z</time></trkpt><trkpt lat="40.08983120227415" lon="8.652098054268489"><ele>241.5</ele><time>2026-05-02T08:22:36.999Z</time></trkpt><trkpt lat="40.089986667853815" lon="8.652191968399501"><ele>240.0</ele><time>2026-05-02T08:22:37.999Z</time></trkpt><trkpt lat="40.09009637064895" lon="8.652248862870934"><ele>238.5</ele><time>2026-05-02T08:22:38.999Z</time></trkpt><trkpt lat="40.09019087316593" lon="8.65229396810801"><ele>237.0</ele><time>2026-05-02T08:22:39.999Z</time></trkpt><trkpt lat="40.09026392703302" lon="8.652365534719586"><ele>237.0</ele><time>2026-05-02T08:22:40.999Z</time></trkpt><trkpt lat="40.090333984480644" lon="8.652441539097198"><ele>237.0</ele><time>2026-05-02T08:22:41.999Z</time></trkpt><trkpt lat="40.09044570375919" lon="8.652544420841888"><ele>237.0</ele><time>2026-05-02T08:22:42.999Z</time></trkpt><trkpt lat="40.09056029766436" lon="8.652686595783507"><ele>237.0</ele><time>2026-05-02T08:22:43.999Z</time></trkpt><trkpt lat="40.09067721209981" lon="8.652823152442558"><ele>236.33333333333331</ele><time>2026-05-02T08:22:44.999Z</time></trkpt><trkpt lat="40.09081192876354" lon="8.652952357368774"><ele>235.66666666666666</ele><time>2026-05-02T08:22:45.999Z</time></trkpt><trkpt lat="40.09096872779956" lon="8.653078204809551"><ele>235.0</ele><time>2026-05-02T08:22:46.999Z</time></trkpt><trkpt lat="40.091127502900584" lon="8.653205676915519"><ele>235.0</ele><time>2026-05-02T08:22:47.999Z</time></trkpt><trkpt lat="40.0912517583822" lon="8.653365379883452"><ele>235.0</ele><time>2026-05-02T08:22:48.999Z</time></trkpt><trkpt lat="40.09139902444232" lon="8.653501077695601"><ele>235.0</ele><time>2026-05-02T08:22:49.999Z</time></trkpt><trkpt lat="40.091535030433505" lon="8.65365298043994"><ele>236.0</ele><time>2026-05-02T08:22:50.999Z</time></trkpt><trkpt lat="40.09167794719529" lon="8.653800977649537"><ele>237.0</ele><time>2026-05-02T08:22:51.999Z</time></trkpt><trkpt lat="40.091818248885" lon="8.653936093604223"><ele>238.0</ele><time>2026-05-02T08:22:52.999Z</time></trkpt><trkpt lat="40.0919434189343" lon="8.654045409159645"><ele>238.0</ele><time>2026-05-02T08:22:53.999Z</time></trkpt><trkpt lat="40.09203585449772" lon="8.654183946502949"><ele>238.0</ele><time>2026-05-02T08:22:54.999Z</time></trkpt><trkpt lat="40.092155264982374" lon="8.654315373064872"><ele>238.0</ele><time>2026-05-02T08:22:55.999Z</time></trkpt><trkpt lat="40.0922615846699" lon="8.65445806164403"><ele>238.0</ele><time>2026-05-02T08:22:56.999Z</time></trkpt><trkpt lat="40.09236079235037" lon="8.654566541222245"><ele>238.2</ele><time>2026-05-02T08:22:57.999Z</time></trkpt><trkpt lat="40.0924324972984" lon="8.654691828092092"><ele>238.4</ele><time>2026-05-02T08:22:58.999Z</time></trkpt><trkpt lat="40.09250234013754" lon="8.654789989264177"><ele>238.59999999999997</ele><time>2026-05-02T08:22:59.999Z</time></trkpt><trkpt lat="40.0925494586944" lon="8.654885183167925"><ele>238.79999999999998</ele><time>2026-05-02T08:23:00.999Z</time></trkpt><trkpt lat="40.09259975512253" lon="8.65497491479306"><ele>239.0</ele><time>2026-05-02T08:23:01.999Z</time></trkpt><trkpt lat="40.09262454543966" lon="8.655092169226936"><ele>239.0</ele><time>2026-05-02T08:23:02.999Z</time></trkpt><trkpt lat="40.09272122224403" lon="8.655182309957748"><ele>239.0</ele><time>2026-05-02T08:23:03.999Z</time></trkpt><trkpt lat="40.09279395699946" lon="8.655290244238124"><ele>239.0</ele><time>2026-05-02T08:23:04.999Z</time></trkpt><trkpt lat="40.09286925203087" lon="8.655407498273435"><ele>239.0</ele><time>2026-05-02T08:23:05.999Z</time></trkpt><trkpt lat="40.092945685391335" lon="8.655523619202327"><ele>238.6</ele><time>2026-05-02T08:23:06.999Z</time></trkpt><trkpt lat="40.093021580492135" lon="8.65561997954077"><ele>238.2</ele><time>2026-05-02T08:23:07.999Z</time></trkpt><trkpt lat="40.093094579184594" lon="8.655699098412638"><ele>237.79999999999998</ele><time>2026-05-02T08:23:08.999Z</time></trkpt><trkpt lat="40.09315321371669" lon="8.655791211572868"><ele>237.39999999999998</ele><time>2026-05-02T08:23:10.998Z</time></trkpt><trkpt lat="40.09305549889803" lon="8.655851339172196"><ele>237.0</ele><time>2026-05-02T08:23:17.998Z</time></trkpt><trkpt lat="40.092994751403126" lon="8.655820655890455"><ele>237.0</ele><time>2026-05-02T08:23:18.998Z</time></trkpt><trkpt lat="40.09291953301863" lon="8.655816933305857"><ele>237.0</ele><time>2026-05-02T08:23:19.998Z</time></trkpt><trkpt lat="40.09283204922833" lon="8.655812629926423"><ele>237.0</ele><time>2026-05-02T08:23:20.998Z</time></trkpt><trkpt lat="40.09273488363398" lon="8.655807850301048"><ele>237.0</ele><time>2026-05-02T08:23:21.998Z</time></trkpt><trkpt lat="40.09262630672556" lon="8.655816845723015"><ele>237.0</ele><time>2026-05-02T08:23:22.998Z</time></trkpt><trkpt lat="40.09252074141751" lon="8.655810003908908"><ele>237.0</ele><time>2026-05-02T08:23:24Z</time></trkpt><trkpt lat="40.092424947138376" lon="8.655810292649397"><ele>237.0</ele><time>2026-05-02T08:23:25Z</time></trkpt><trkpt lat="40.09233272297593" lon="8.655808687031774"><ele>237.0</ele><time>2026-05-02T08:23:26Z</time></trkpt><trkpt lat="40.09224243768534" lon="8.655804696249014"><ele>237.0</ele><time>2026-05-02T08:23:27Z</time></trkpt><trkpt lat="40.09215434959552" lon="8.65579694206853"><ele>237.0</ele><time>2026-05-02T08:23:28Z</time></trkpt><trkpt lat="40.09208166909271" lon="8.655795431188588"><ele>237.0</ele><time>2026-05-02T08:23:29Z</time></trkpt><trkpt lat="40.09195962698729" lon="8.655789395473429"><ele>235.39999999999998</ele><time>2026-05-02T08:23:31Z</time></trkpt><trkpt lat="40.09189435511338" lon="8.655787406401377"><ele>233.79999999999998</ele><time>2026-05-02T08:23:32Z</time></trkpt><trkpt lat="40.09183129107704" lon="8.655763611219973"><ele>232.2</ele><time>2026-05-02T08:23:33Z</time></trkpt><trkpt lat="40.09171787567311" lon="8.655800983649623"><ele>230.6</ele><time>2026-05-02T08:23:35Z</time></trkpt><trkpt lat="40.091709282856556" lon="8.655916083597376"><ele>229.0</ele><time>2026-05-02T08:23:37Z</time></trkpt><trkpt lat="40.09178610326434" lon="8.656027313386339"><ele>228.99999999999997</ele><time>2026-05-02T08:23:39Z</time></trkpt><trkpt lat="40.09187213066809" lon="8.65598508552452"><ele>229.0</ele><time>2026-05-02T08:23:40Z</time></trkpt><trkpt lat="40.09193884382853" lon="8.655990774363563"><ele>229.0</ele><time>2026-05-02T08:23:43Z</time></trkpt><trkpt lat="40.09185767893789" lon="8.65596540010045"><ele>229.0</ele><time>2026-05-02T08:23:57Z</time></trkpt><trkpt lat="40.09178986636856" lon="8.655918750357602"><ele>228.99999999999997</ele><time>2026-05-02T08:23:58Z</time></trkpt><trkpt lat="40.091699788050875" lon="8.65587103241628"><ele>229.0</ele><time>2026-05-02T08:23:59Z</time></trkpt><trkpt lat="40.09164251885249" lon="8.655823492623917"><ele>228.0</ele><time>2026-05-02T08:24:01Z</time></trkpt><trkpt lat="40.09156392431851" lon="8.655786349893132"><ele>227.0</ele><time>2026-05-02T08:24:02Z</time></trkpt><trkpt lat="40.09143615220045" lon="8.655767669468341"><ele>226.0</ele><time>2026-05-02T08:24:03Z</time></trkpt><trkpt lat="40.09129321980976" lon="8.655773758720283"><ele>225.0</ele><time>2026-05-02T08:24:04Z</time></trkpt><trkpt lat="40.09115989597548" lon="8.655737057729354"><ele>225.0</ele><time>2026-05-02T08:24:05Z</time></trkpt><trkpt lat="40.091041878977656" lon="8.65574432141424"><ele>225.0</ele><time>2026-05-02T08:24:06Z</time></trkpt><trkpt lat="40.09094377714816" lon="8.655768592841996"><ele>225.0</ele><time>2026-05-02T08:24:07Z</time></trkpt><trkpt lat="40.09085688566281" lon="8.655788936283733"><ele>225.0</ele><time>2026-05-02T08:24:08Z</time></trkpt><trkpt lat="40.09078391107619" lon="8.655828985077898"><ele>225.0</ele><time>2026-05-02T08:24:09Z</time></trkpt><trkpt lat="40.09073723366808" lon="8.655953140474296"><ele>225.0</ele><time>2026-05-02T08:24:10.999Z</time></trkpt><trkpt lat="40.09077912453717" lon="8.656061768641324"><ele>225.0</ele><time>2026-05-02T08:24:11.999Z</time></trkpt><trkpt lat="40.09086904333829" lon="8.656157658112308"><ele>225.0</ele><time>2026-05-02T08:24:12.999Z</time></trkpt><trkpt lat="40.09097119758425" lon="8.656259528576847"><ele>225.0</ele><time>2026-05-02T08:24:13.999Z</time></trkpt><trkpt lat="40.091053007291606" lon="8.656427123761107"><ele>224.0</ele><time>2026-05-02T08:24:14.999Z</time></trkpt><trkpt lat="40.091148269572365" lon="8.65659456736522"><ele>223.0</ele><time>2026-05-02T08:24:15.999Z</time></trkpt><trkpt lat="40.09127093809208" lon="8.65675646172478"><ele>222.0</ele><time>2026-05-02T08:24:16.999Z</time></trkpt><trkpt lat="40.09138093389656" lon="8.656931635117626"><ele>222.0</ele><time>2026-05-02T08:24:17.999Z</time></trkpt><trkpt lat="40.091465788426206" lon="8.657109018405587"><ele>222.0</ele><time>2026-05-02T08:24:18.999Z</time></trkpt><trkpt lat="40.09151239592687" lon="8.657252144971341"><ele>222.0</ele><time>2026-05-02T08:24:19.999Z</time></trkpt><trkpt lat="40.091518738908356" lon="8.657368228019385"><ele>222.0</ele><time>2026-05-02T08:24:20.999Z</time></trkpt><trkpt lat="40.09148147330174" lon="8.657478338582864"><ele>222.0</ele><time>2026-05-02T08:24:21.999Z</time></trkpt><trkpt lat="40.09142663538337" lon="8.657582193544899"><ele>222.0</ele><time>2026-05-02T08:24:22.999Z</time></trkpt><trkpt lat="40.09140491382965" lon="8.65767421275792"><ele>222.0</ele><time>2026-05-02T08:24:23.999Z</time></trkpt><trkpt lat="40.09140733693626" lon="8.657836192028562"><ele>222.0</ele><time>2026-05-02T08:24:25.999Z</time></trkpt><trkpt lat="40.09153769117194" lon="8.657975271967528"><ele>223.33333333333331</ele><time>2026-05-02T08:24:26.999Z</time></trkpt><trkpt lat="40.0916646593752" lon="8.658087406806564"><ele>224.66666666666666</ele><time>2026-05-02T08:24:27.999Z</time></trkpt><trkpt lat="40.09180702629323" lon="8.658204004274587"><ele>226.0</ele><time>2026-05-02T08:24:28.999Z</time></trkpt><trkpt lat="40.0919512020579" lon="8.658325096135043"><ele>226.0</ele><time>2026-05-02T08:24:29.999Z</time></trkpt><trkpt lat="40.09209930087705" lon="8.658444014579857"><ele>226.0</ele><time>2026-05-02T08:24:30.999Z</time></trkpt><trkpt lat="40.09225534984938" lon="8.658570900520136"><ele>226.0</ele><time>2026-05-02T08:24:31.999Z</time></trkpt><trkpt lat="40.092416170083574" lon="8.658713360341014"><ele>226.66666666666666</ele><time>2026-05-02T08:24:32.999Z</time></trkpt><trkpt lat="40.092576626711995" lon="8.658861902548212"><ele>227.33333333333331</ele><time>2026-05-02T08:24:33.999Z</time></trkpt><trkpt lat="40.09273706864354" lon="8.659012636581679"><ele>228.0</ele><time>2026-05-02T08:24:34.999Z</time></trkpt><trkpt lat="40.092905380888816" lon="8.659167932880017"><ele>228.0</ele><time>2026-05-02T08:24:35.999Z</time></trkpt><trkpt lat="40.09307674263488" lon="8.65932766498235"><ele>228.0</ele><time>2026-05-02T08:24:36.999Z</time></trkpt><trkpt lat="40.09324548563441" lon="8.659500052396645"><ele>228.0</ele><time>2026-05-02T08:24:37.999Z</time></trkpt><trkpt lat="40.09339425984742" lon="8.65970084712485"><ele>228.0</ele><time>2026-05-02T08:24:38.999Z</time></trkpt><trkpt lat="40.09352245101209" lon="8.659935896091788"><ele>228.0</ele><time>2026-05-02T08:24:39.999Z</time></trkpt><trkpt lat="40.0936488815245" lon="8.660169129558653"><ele>228.0</ele><time>2026-05-02T08:24:40.999Z</time></trkpt><trkpt lat="40.09378822505864" lon="8.660387092201157"><ele>227.66666666666669</ele><time>2026-05-02T08:24:41.999Z</time></trkpt><trkpt lat="40.09392616263309" lon="8.660594951802233"><ele>227.33333333333334</ele><time>2026-05-02T08:24:42.999Z</time></trkpt><trkpt lat="40.094055965131936" lon="8.66080763901069"><ele>227.0</ele><time>2026-05-02T08:24:43.999Z</time></trkpt><trkpt lat="40.094182847302555" lon="8.661015947699454"><ele>226.33333333333334</ele><time>2026-05-02T08:24:44.999Z</time></trkpt><trkpt lat="40.094312453551716" lon="8.661216175101499"><ele>225.66666666666669</ele><time>2026-05-02T08:24:45.999Z</time></trkpt><trkpt lat="40.09444472742605" lon="8.661408731969363"><ele>225.0</ele><time>2026-05-02T08:24:46.999Z</time></trkpt><trkpt lat="40.09458394100458" lon="8.661591378708389"><ele>225.0</ele><time>2026-05-02T08:24:47.999Z</time></trkpt><trkpt lat="40.09472554522809" lon="8.66175891003836"><ele>225.0</ele><time>2026-05-02T08:24:48.999Z</time></trkpt><trkpt lat="40.09486014885082" lon="8.661913968054119"><ele>225.0</ele><time>2026-05-02T08:24:49.999Z</time></trkpt><trkpt lat="40.09498081216602" lon="8.662054925594795"><ele>225.75</ele><time>2026-05-02T08:24:50.999Z</time></trkpt><trkpt lat="40.09509622602557" lon="8.662189411526386"><ele>226.5</ele><time>2026-05-02T08:24:51.999Z</time></trkpt><trkpt lat="40.09520104853025" lon="8.66231384570052"><ele>227.25</ele><time>2026-05-02T08:24:52.999Z</time></trkpt><trkpt lat="40.09528703182497" lon="8.662445959038772"><ele>228.0</ele><time>2026-05-02T08:24:53.999Z</time></trkpt><trkpt lat="40.09534573494491" lon="8.662563596101847"><ele>228.0</ele><time>2026-05-02T08:24:54.999Z</time></trkpt><trkpt lat="40.095350814855486" lon="8.662706486851533"><ele>228.0</ele><time>2026-05-02T08:24:55.999Z</time></trkpt><trkpt lat="40.095344902579406" lon="8.662809791904532"><ele>228.0</ele><time>2026-05-02T08:24:56.999Z</time></trkpt><trkpt lat="40.095315720775034" lon="8.662920336653025"><ele>228.0</ele><time>2026-05-02T08:24:57.999Z</time></trkpt><trkpt lat="40.09523508136938" lon="8.663034857450691"><ele>228.0</ele><time>2026-05-02T08:24:58.999Z</time></trkpt><trkpt lat="40.09515395286964" lon="8.663178388780167"><ele>228.25</ele><time>2026-05-02T08:24:59.999Z</time></trkpt><trkpt lat="40.09507906353898" lon="8.663341687837168"><ele>228.5</ele><time>2026-05-02T08:25:00.999Z</time></trkpt><trkpt lat="40.094990506214025" lon="8.663489162174903"><ele>228.75</ele><time>2026-05-02T08:25:01.999Z</time></trkpt><trkpt lat="40.094906832150606" lon="8.663644528071414"><ele>229.0</ele><time>2026-05-02T08:25:02.999Z</time></trkpt><trkpt lat="40.09482140672229" lon="8.66380967097401"><ele>228.0</ele><time>2026-05-02T08:25:03.999Z</time></trkpt><trkpt lat="40.09472932039283" lon="8.663982066346046"><ele>227.0</ele><time>2026-05-02T08:25:04.999Z</time></trkpt><trkpt lat="40.09463313465888" lon="8.664159977561907"><ele>226.0</ele><time>2026-05-02T08:25:05.999Z</time></trkpt><trkpt lat="40.09454633111581" lon="8.664346672103964"><ele>225.33333333333331</ele><time>2026-05-02T08:25:06.999Z</time></trkpt><trkpt lat="40.094496005309765" lon="8.664542854998102"><ele>224.66666666666669</ele><time>2026-05-02T08:25:07.999Z</time></trkpt><trkpt lat="40.09450078806102" lon="8.664747161902723"><ele>224.0</ele><time>2026-05-02T08:25:08.999Z</time></trkpt><trkpt lat="40.094515904140934" lon="8.664948959590308"><ele>224.0</ele><time>2026-05-02T08:25:09.999Z</time></trkpt><trkpt lat="40.09452267794271" lon="8.66516051065344"><ele>224.0</ele><time>2026-05-02T08:25:10.999Z</time></trkpt><trkpt lat="40.09452026054477" lon="8.665383311952583"><ele>224.0</ele><time>2026-05-02T08:25:11.999Z</time></trkpt><trkpt lat="40.09451698585074" lon="8.66560579908856"><ele>222.66666666666669</ele><time>2026-05-02T08:25:12.998Z</time></trkpt><trkpt lat="40.09451261468994" lon="8.665834368233979"><ele>221.33333333333331</ele><time>2026-05-02T08:25:13.998Z</time></trkpt><trkpt lat="40.09450237432006" lon="8.66606838158631"><ele>220.0</ele><time>2026-05-02T08:25:14.998Z</time></trkpt><trkpt lat="40.094479925851154" lon="8.666310648802154"><ele>221.0</ele><time>2026-05-02T08:25:15.998Z</time></trkpt><trkpt lat="40.09444929312617" lon="8.666558871217935"><ele>222.0</ele><time>2026-05-02T08:25:16.998Z</time></trkpt><trkpt lat="40.094417076285715" lon="8.666809324592826"><ele>223.0</ele><time>2026-05-02T08:25:17.998Z</time></trkpt><trkpt lat="40.094354109624476" lon="8.667020517242836"><ele>223.0</ele><time>2026-05-02T08:25:18.998Z</time></trkpt><trkpt lat="40.0942870439713" lon="8.667183350504502"><ele>223.0</ele><time>2026-05-02T08:25:19.998Z</time></trkpt><trkpt lat="40.094213777366285" lon="8.667322339194055"><ele>223.0</ele><time>2026-05-02T08:25:20.998Z</time></trkpt><trkpt lat="40.09415262723131" lon="8.667469651896699"><ele>223.0</ele><time>2026-05-02T08:25:21.998Z</time></trkpt><trkpt lat="40.09406722388766" lon="8.66760815781545"><ele>222.25</ele><time>2026-05-02T08:25:22.998Z</time></trkpt><trkpt lat="40.09398256682977" lon="8.667762149974193"><ele>221.5</ele><time>2026-05-02T08:25:23.998Z</time></trkpt><trkpt lat="40.09390862451445" lon="8.667899536005269"><ele>220.75</ele><time>2026-05-02T08:25:24.998Z</time></trkpt><trkpt lat="40.09384879483375" lon="8.668008134365275"><ele>220.0</ele><time>2026-05-02T08:25:25.998Z</time></trkpt><trkpt lat="40.093802507353985" lon="8.668087515519927"><ele>220.0</ele><time>2026-05-02T08:25:26.998Z</time></trkpt><trkpt lat="40.093760816933056" lon="8.668163663917811"><ele>220.0</ele><time>2026-05-02T08:25:28.998Z</time></trkpt><trkpt lat="40.093861847887" lon="8.668270755118506"><ele>220.0</ele><time>2026-05-02T08:25:32Z</time></trkpt><trkpt lat="40.09397385872371" lon="8.668292337420235"><ele>220.0</ele><time>2026-05-02T08:25:33Z</time></trkpt><trkpt lat="40.09408000956435" lon="8.668356069950997"><ele>220.0</ele><time>2026-05-02T08:25:34Z</time></trkpt><trkpt lat="40.09416842605468" lon="8.668395340918899"><ele>221.5</ele><time>2026-05-02T08:25:35Z</time></trkpt><trkpt lat="40.09426489962543" lon="8.668457065755911"><ele>223.0</ele><time>2026-05-02T08:25:36Z</time></trkpt><trkpt lat="40.094377902380195" lon="8.668517658982662"><ele>224.5</ele><time>2026-05-02T08:25:37Z</time></trkpt><trkpt lat="40.09449630664668" lon="8.668598117423041"><ele>226.0</ele><time>2026-05-02T08:25:38Z</time></trkpt><trkpt lat="40.09461704245653" lon="8.668663546473175"><ele>226.5</ele><time>2026-05-02T08:25:39Z</time></trkpt><trkpt lat="40.09474162742288" lon="8.6687298203355"><ele>227.0</ele><time>2026-05-02T08:25:40Z</time></trkpt><trkpt lat="40.09487031322494" lon="8.668795076352993"><ele>227.5</ele><time>2026-05-02T08:25:41Z</time></trkpt><trkpt lat="40.09499438873891" lon="8.66887650106857"><ele>228.0</ele><time>2026-05-02T08:25:42Z</time></trkpt><trkpt lat="40.095126350214414" lon="8.668921520036454"><ele>229.75</ele><time>2026-05-02T08:25:43Z</time></trkpt><trkpt lat="40.09527304166549" lon="8.668917713083205"><ele>231.5</ele><time>2026-05-02T08:25:44Z</time></trkpt><trkpt lat="40.095420703628896" lon="8.668909585943009"><ele>233.25</ele><time>2026-05-02T08:25:45Z</time></trkpt><trkpt lat="40.09557019259727" lon="8.66892308392746"><ele>235.0</ele><time>2026-05-02T08:25:46Z</time></trkpt><trkpt lat="40.09571916734816" lon="8.668933112143929"><ele>236.66666666666666</ele><time>2026-05-02T08:25:47Z</time></trkpt><trkpt lat="40.09587690249457" lon="8.668936778299539"><ele>238.33333333333331</ele><time>2026-05-02T08:25:48Z</time></trkpt><trkpt lat="40.096041112256025" lon="8.668944016314866"><ele>240.0</ele><time>2026-05-02T08:25:49Z</time></trkpt><trkpt lat="40.09620937790607" lon="8.668953674001354"><ele>240.0</ele><time>2026-05-02T08:25:50Z</time></trkpt><trkpt lat="40.096379345800415" lon="8.668961224889545"><ele>240.0</ele><time>2026-05-02T08:25:51Z</time></trkpt><trkpt lat="40.096552455160285" lon="8.668974571828219"><ele>240.0</ele><time>2026-05-02T08:25:52Z</time></trkpt><trkpt lat="40.09672809185969" lon="8.668986853951667"><ele>241.33333333333331</ele><time>2026-05-02T08:25:53Z</time></trkpt><trkpt lat="40.09690400350665" lon="8.668992782063697"><ele>242.66666666666666</ele><time>2026-05-02T08:25:54Z</time></trkpt><trkpt lat="40.09707787612054" lon="8.668993202194"><ele>244.0</ele><time>2026-05-02T08:25:55Z</time></trkpt><trkpt lat="40.09725226703673" lon="8.668995762552152"><ele>244.66666666666666</ele><time>2026-05-02T08:25:56Z</time></trkpt><trkpt lat="40.097429443385565" lon="8.668990201356236"><ele>245.33333333333331</ele><time>2026-05-02T08:25:57Z</time></trkpt><trkpt lat="40.09760117553736" lon="8.668960836463349"><ele>246.0</ele><time>2026-05-02T08:25:58Z</time></trkpt><trkpt lat="40.09777492145119" lon="8.668929887552556"><ele>246.0</ele><time>2026-05-02T08:25:59Z</time></trkpt><trkpt lat="40.097950996211885" lon="8.668910445562174"><ele>246.0</ele><time>2026-05-02T08:26:00Z</time></trkpt><trkpt lat="40.09812882884749" lon="8.66888589736567"><ele>246.0</ele><time>2026-05-02T08:26:01Z</time></trkpt><trkpt lat="40.098292841828595" lon="8.668855318403539"><ele>247.0</ele><time>2026-05-02T08:26:02Z</time></trkpt><trkpt lat="40.09841624241765" lon="8.668835128481652"><ele>248.00000000000003</ele><time>2026-05-02T08:26:03Z</time></trkpt><trkpt lat="40.098491529725976" lon="8.668828346201307"><ele>249.00000000000003</ele><time>2026-05-02T08:26:04Z</time></trkpt><trkpt lat="40.098555683705776" lon="8.668915002901212"><ele>250.0</ele><time>2026-05-02T08:26:09Z</time></trkpt><trkpt lat="40.09858718805141" lon="8.669032629662539"><ele>251.0</ele><time>2026-05-02T08:26:10Z</time></trkpt><trkpt lat="40.09858901178107" lon="8.669168633030214"><ele>251.0</ele><time>2026-05-02T08:26:11Z</time></trkpt><trkpt lat="40.098623447180756" lon="8.669328475474584"><ele>251.00000000000003</ele><time>2026-05-02T08:26:12Z</time></trkpt><trkpt lat="40.098632719496514" lon="8.669449774657133"><ele>251.00000000000003</ele><time>2026-05-02T08:26:12.999Z</time></trkpt><trkpt lat="40.098644848685794" lon="8.669551367826553"><ele>251.0</ele><time>2026-05-02T08:26:14.999Z</time></trkpt><trkpt lat="40.09862304953846" lon="8.669405167465625"><ele>251.0</ele><time>2026-05-02T08:26:18.999Z</time></trkpt><trkpt lat="40.098603830956726" lon="8.66925723926348"><ele>251.0</ele><time>2026-05-02T08:26:19.999Z</time></trkpt><trkpt lat="40.09859067367888" lon="8.66909519825347"><ele>251.00000000000003</ele><time>2026-05-02T08:26:20.999Z</time></trkpt><trkpt lat="40.098563829763144" lon="8.668952079263011"><ele>251.00000000000003</ele><time>2026-05-02T08:26:21.999Z</time></trkpt><trkpt lat="40.09852551751586" lon="8.668866940643362"><ele>251.0</ele><time>2026-05-02T08:26:22.999Z</time></trkpt><trkpt lat="40.09855303099359" lon="8.668733789113201"><ele>251.0</ele><time>2026-05-02T08:26:25.999Z</time></trkpt><trkpt lat="40.09863067032786" lon="8.668666147031372"><ele>251.0</ele><time>2026-05-02T08:26:26.999Z</time></trkpt><trkpt lat="40.098727078446636" lon="8.668628000554964"><ele>251.00000000000003</ele><time>2026-05-02T08:26:27.999Z</time></trkpt><trkpt lat="40.098825507301044" lon="8.668597384703308"><ele>251.00000000000003</ele><time>2026-05-02T08:26:28.999Z</time></trkpt><trkpt lat="40.09893301903239" lon="8.668556735635422"><ele>251.0</ele><time>2026-05-02T08:26:29.999Z</time></trkpt><trkpt lat="40.09903451885962" lon="8.668561183907654"><ele>251.0</ele><time>2026-05-02T08:26:30.999Z</time></trkpt><trkpt lat="40.09914984715156" lon="8.668539837491107"><ele>251.75</ele><time>2026-05-02T08:26:31.999Z</time></trkpt><trkpt lat="40.09926066377054" lon="8.668550913568382"><ele>252.5</ele><time>2026-05-02T08:26:32.999Z</time></trkpt><trkpt lat="40.099373756817705" lon="8.668526857080048"><ele>253.25</ele><time>2026-05-02T08:26:33.999Z</time></trkpt><trkpt lat="40.09948575365326" lon="8.668473126370786"><ele>254.0</ele><time>2026-05-02T08:26:34.999Z</time></trkpt><trkpt lat="40.09960087950769" lon="8.66841802864217"><ele>254.0</ele><time>2026-05-02T08:26:35.999Z</time></trkpt><trkpt lat="40.09971599325518" lon="8.668370273725698"><ele>254.0</ele><time>2026-05-02T08:26:36.999Z</time></trkpt><trkpt lat="40.09982924961022" lon="8.66831048993437"><ele>254.0</ele><time>2026-05-02T08:26:37.999Z</time></trkpt><trkpt lat="40.09993087713065" lon="8.668227153795282"><ele>254.0</ele><time>2026-05-02T08:26:38.999Z</time></trkpt><trkpt lat="40.100023582255226" lon="8.668135543002043"><ele>255.0</ele><time>2026-05-02T08:26:39.999Z</time></trkpt><trkpt lat="40.10012021169227" lon="8.668092529366602"><ele>256.0</ele><time>2026-05-02T08:26:40.999Z</time></trkpt><trkpt lat="40.100238781013644" lon="8.668028399796356"><ele>257.0</ele><time>2026-05-02T08:26:41.999Z</time></trkpt><trkpt lat="40.10038007738934" lon="8.667983275962019"><ele>258.0</ele><time>2026-05-02T08:26:42.999Z</time></trkpt><trkpt lat="40.10051636330697" lon="8.667916881881867"><ele>258.0</ele><time>2026-05-02T08:26:43.999Z</time></trkpt><trkpt lat="40.10064229240397" lon="8.667825321126593"><ele>258.0</ele><time>2026-05-02T08:26:44.999Z</time></trkpt><trkpt lat="40.1007644883691" lon="8.667740008412464"><ele>258.0</ele><time>2026-05-02T08:26:45.999Z</time></trkpt><trkpt lat="40.10088605688186" lon="8.667666618977695"><ele>258.0</ele><time>2026-05-02T08:26:46.999Z</time></trkpt><trkpt lat="40.101003801528435" lon="8.667594324770656"><ele>258.0</ele><time>2026-05-02T08:26:47.999Z</time></trkpt><trkpt lat="40.1011129987691" lon="8.66752540902265"><ele>258.0</ele><time>2026-05-02T08:26:48.999Z</time></trkpt><trkpt lat="40.10120848739309" lon="8.667463264157016"><ele>258.0</ele><time>2026-05-02T08:26:49.999Z</time></trkpt><trkpt lat="40.10130345244885" lon="8.667423679891444"><ele>258.0</ele><time>2026-05-02T08:26:50.999Z</time></trkpt><trkpt lat="40.10141917077887" lon="8.667439621905281"><ele>258.0</ele><time>2026-05-02T08:26:51.999Z</time></trkpt><trkpt lat="40.10154021340324" lon="8.667407793879054"><ele>259.5</ele><time>2026-05-02T08:26:52.999Z</time></trkpt><trkpt lat="40.1016620336741" lon="8.667391291991024"><ele>261.0</ele><time>2026-05-02T08:26:53.999Z</time></trkpt><trkpt lat="40.101800863815605" lon="8.667358730726926"><ele>262.5</ele><time>2026-05-02T08:26:54.999Z</time></trkpt><trkpt lat="40.10194357514283" lon="8.667321800855296"><ele>264.0</ele><time>2026-05-02T08:26:55.999Z</time></trkpt><trkpt lat="40.10207806843918" lon="8.66728945932183"><ele>264.0</ele><time>2026-05-02T08:26:56.999Z</time></trkpt><trkpt lat="40.102193078485996" lon="8.667264760149555"><ele>264.0</ele><time>2026-05-02T08:26:57.999Z</time></trkpt><trkpt lat="40.10229460737597" lon="8.667239491543624"><ele>264.0</ele><time>2026-05-02T08:26:58.999Z</time></trkpt><trkpt lat="40.102404249645154" lon="8.66722013138503"><ele>264.0</ele><time>2026-05-02T08:26:59.999Z</time></trkpt><trkpt lat="40.10254042293264" lon="8.66718516294244"><ele>265.0</ele><time>2026-05-02T08:27:00.999Z</time></trkpt><trkpt lat="40.102682809492954" lon="8.66716115683335"><ele>266.0</ele><time>2026-05-02T08:27:01.999Z</time></trkpt><trkpt lat="40.10281825770721" lon="8.667140396717755"><ele>267.0</ele><time>2026-05-02T08:27:02.999Z</time></trkpt><trkpt lat="40.10295428226255" lon="8.667122278309225"><ele>268.0</ele><time>2026-05-02T08:27:03.999Z</time></trkpt><trkpt lat="40.103094906343934" lon="8.667099836311056"><ele>268.0</ele><time>2026-05-02T08:27:04.999Z</time></trkpt><trkpt lat="40.10323998040845" lon="8.667083094911936"><ele>268.0</ele><time>2026-05-02T08:27:05.999Z</time></trkpt><trkpt lat="40.10338901286055" lon="8.667061396377335"><ele>268.0</ele><time>2026-05-02T08:27:06.999Z</time></trkpt><trkpt lat="40.10352770518081" lon="8.667042099451807"><ele>268.0</ele><time>2026-05-02T08:27:07.999Z</time></trkpt><trkpt lat="40.103642084193474" lon="8.667007675063369"><ele>268.75</ele><time>2026-05-02T08:27:08.999Z</time></trkpt><trkpt lat="40.10376711153194" lon="8.66695239142737"><ele>269.5</ele><time>2026-05-02T08:27:09.999Z</time></trkpt><trkpt lat="40.10390525830276" lon="8.666923797459729"><ele>270.25</ele><time>2026-05-02T08:27:10.999Z</time></trkpt><trkpt lat="40.1040422439741" lon="8.666917707458284"><ele>271.0</ele><time>2026-05-02T08:27:11.999Z</time></trkpt><trkpt lat="40.10417030185479" lon="8.666901064268812"><ele>271.25</ele><time>2026-05-02T08:27:12.999Z</time></trkpt><trkpt lat="40.104303654516535" lon="8.666889541069661"><ele>271.5</ele><time>2026-05-02T08:27:13.999Z</time></trkpt><trkpt lat="40.104432370037905" lon="8.66688686088113"><ele>271.75</ele><time>2026-05-02T08:27:14.999Z</time></trkpt><trkpt lat="40.10456093547484" lon="8.666883604693242"><ele>272.0</ele><time>2026-05-02T08:27:15.998Z</time></trkpt><trkpt lat="40.104689558662116" lon="8.666886856835617"><ele>272.0</ele><time>2026-05-02T08:27:16.998Z</time></trkpt><trkpt lat="40.104829853381986" lon="8.666914223489066"><ele>272.0</ele><time>2026-05-02T08:27:17.998Z</time></trkpt><trkpt lat="40.10496055123347" lon="8.66693097119909"><ele>272.0</ele><time>2026-05-02T08:27:18.998Z</time></trkpt><trkpt lat="40.10507128091655" lon="8.66693090025712"><ele>272.0</ele><time>2026-05-02T08:27:19.998Z</time></trkpt><trkpt lat="40.105164244792974" lon="8.666943388498547"><ele>273.5</ele><time>2026-05-02T08:27:20.998Z</time></trkpt><trkpt lat="40.10525267505507" lon="8.666979708149416"><ele>275.0</ele><time>2026-05-02T08:27:21.998Z</time></trkpt><trkpt lat="40.1053271591292" lon="8.667016376560346"><ele>276.5</ele><time>2026-05-02T08:27:22.998Z</time></trkpt><trkpt lat="40.10538550647874" lon="8.66706169959713"><ele>278.0</ele><time>2026-05-02T08:27:23.998Z</time></trkpt><trkpt lat="40.1055165987578" lon="8.667106110796396"><ele>279.5</ele><time>2026-05-02T08:27:25.998Z</time></trkpt><trkpt lat="40.10558927073971" lon="8.667109093095267"><ele>281.0</ele><time>2026-05-02T08:27:26.998Z</time></trkpt><trkpt lat="40.105658965835595" lon="8.667124107109968"><ele>281.0</ele><time>2026-05-02T08:27:27.998Z</time></trkpt><trkpt lat="40.105728275460265" lon="8.667218663341316"><ele>281.0</ele><time>2026-05-02T08:27:28.998Z</time></trkpt><trkpt lat="40.10583203738757" lon="8.66726548772941"><ele>281.0</ele><time>2026-05-02T08:27:29.998Z</time></trkpt><trkpt lat="40.10592599788262" lon="8.66732316476298"><ele>281.0</ele><time>2026-05-02T08:27:30.998Z</time></trkpt><trkpt lat="40.10601557327029" lon="8.667365006359393"><ele>281.0</ele><time>2026-05-02T08:27:31.998Z</time></trkpt><trkpt lat="40.10609836616356" lon="8.667391108193565"><ele>282.0</ele><time>2026-05-02T08:27:32.998Z</time></trkpt><trkpt lat="40.106188281953735" lon="8.667392300349642"><ele>283.0</ele><time>2026-05-02T08:27:33.998Z</time></trkpt><trkpt lat="40.10628515887978" lon="8.667381981599394"><ele>284.0</ele><time>2026-05-02T08:27:34.998Z</time></trkpt><trkpt lat="40.106358564252275" lon="8.667359369654761"><ele>285.0</ele><time>2026-05-02T08:27:36Z</time></trkpt><trkpt lat="40.10643008782546" lon="8.667361725395702"><ele>286.0</ele><time>2026-05-02T08:27:37Z</time></trkpt><trkpt lat="40.10649691937838" lon="8.667386351745764"><ele>287.0</ele><time>2026-05-02T08:27:38Z</time></trkpt><trkpt lat="40.10658465457384" lon="8.667406942609924"><ele>287.6666666666667</ele><time>2026-05-02T08:27:39Z</time></trkpt><trkpt lat="40.10667274842259" lon="8.667451788961205"><ele>288.33333333333337</ele><time>2026-05-02T08:27:40Z</time></trkpt><trkpt lat="40.106761732838635" lon="8.667465411740265"><ele>289.0</ele><time>2026-05-02T08:27:41Z</time></trkpt><trkpt lat="40.10684164383064" lon="8.667491308494014"><ele>289.6666666666667</ele><time>2026-05-02T08:27:42Z</time></trkpt><trkpt lat="40.1069118766538" lon="8.667518970919778"><ele>290.3333333333333</ele><time>2026-05-02T08:27:43Z</time></trkpt><trkpt lat="40.10695705224133" lon="8.667596571098407"><ele>291.0</ele><time>2026-05-02T08:27:44Z</time></trkpt><trkpt lat="40.107002251217494" lon="8.667679053195709"><ele>291.0</ele><time>2026-05-02T08:27:45Z</time></trkpt><trkpt lat="40.10706035917946" lon="8.667765136206617"><ele>291.0</ele><time>2026-05-02T08:27:46Z</time></trkpt><trkpt lat="40.10713457971143" lon="8.66783303031183"><ele>291.0</ele><time>2026-05-02T08:27:47Z</time></trkpt><trkpt lat="40.10720918946571" lon="8.667902589701944"><ele>291.0</ele><time>2026-05-02T08:27:48Z</time></trkpt><trkpt lat="40.10729346785184" lon="8.667955076416048"><ele>291.0</ele><time>2026-05-02T08:27:49Z</time></trkpt><trkpt lat="40.10736587781454" lon="8.668034887329336"><ele>292.1666666666667</ele><time>2026-05-02T08:27:50Z</time></trkpt><trkpt lat="40.10745264773247" lon="8.6680712848047"><ele>293.3333333333333</ele><time>2026-05-02T08:27:51Z</time></trkpt><trkpt lat="40.107532916626354" lon="8.668114674214479"><ele>294.5</ele><time>2026-05-02T08:27:52Z</time></trkpt><trkpt lat="40.107623274040336" lon="8.668142079047893"><ele>295.66666666666663</ele><time>2026-05-02T08:27:53Z</time></trkpt><trkpt lat="40.10770001627063" lon="8.66816148714969"><ele>296.8333333333333</ele><time>2026-05-02T08:27:54Z</time></trkpt><trkpt lat="40.107778337886614" lon="8.668151626742176"><ele>298.0</ele><time>2026-05-02T08:27:55Z</time></trkpt><trkpt lat="40.10786961053148" lon="8.66811653794856"><ele>298.0</ele><time>2026-05-02T08:27:56Z</time></trkpt><trkpt lat="40.1079877792906" lon="8.668111807735754"><ele>298.0</ele><time>2026-05-02T08:27:57Z</time></trkpt><trkpt lat="40.10809832534224" lon="8.668071259773402"><ele>298.0</ele><time>2026-05-02T08:27:58Z</time></trkpt><trkpt lat="40.10821202492759" lon="8.668054025627749"><ele>298.0</ele><time>2026-05-02T08:27:59Z</time></trkpt><trkpt lat="40.10831338986285" lon="8.668025764876468"><ele>298.8</ele><time>2026-05-02T08:28:00Z</time></trkpt><trkpt lat="40.108402214702835" lon="8.667992103333361"><ele>299.6</ele><time>2026-05-02T08:28:01Z</time></trkpt><trkpt lat="40.10848702920706" lon="8.66794131923546"><ele>300.4</ele><time>2026-05-02T08:28:02Z</time></trkpt><trkpt lat="40.10856589559109" lon="8.667891379579512"><ele>301.2</ele><time>2026-05-02T08:28:03Z</time></trkpt><trkpt lat="40.10865282383923" lon="8.667831359122316"><ele>302.0</ele><time>2026-05-02T08:28:04Z</time></trkpt><trkpt lat="40.108738294242336" lon="8.667765861432226"><ele>302.0</ele><time>2026-05-02T08:28:05Z</time></trkpt><trkpt lat="40.10882583831291" lon="8.667697466513985"><ele>302.0</ele><time>2026-05-02T08:28:06Z</time></trkpt><trkpt lat="40.10890891255288" lon="8.66762399283727"><ele>302.0</ele><time>2026-05-02T08:28:07Z</time></trkpt><trkpt lat="40.1089821707802" lon="8.667540943558238"><ele>302.0</ele><time>2026-05-02T08:28:08Z</time></trkpt><trkpt lat="40.109057533338564" lon="8.66744440149206"><ele>302.0</ele><time>2026-05-02T08:28:09Z</time></trkpt><trkpt lat="40.10913573080603" lon="8.667349737874178"><ele>303.6</ele><time>2026-05-02T08:28:10Z</time></trkpt><trkpt lat="40.10922026153647" lon="8.66727418585483"><ele>305.2</ele><time>2026-05-02T08:28:11Z</time></trkpt><trkpt lat="40.10931407110723" lon="8.667198664213776"><ele>306.8</ele><time>2026-05-02T08:28:12Z</time></trkpt><trkpt lat="40.10941803989351" lon="8.66712789058521"><ele>308.4</ele><time>2026-05-02T08:28:13Z</time></trkpt><trkpt lat="40.10951231096891" lon="8.667058442065803"><ele>310.0</ele><time>2026-05-02T08:28:14Z</time></trkpt><trkpt lat="40.109588717277425" lon="8.667003123694396"><ele>310.0</ele><time>2026-05-02T08:28:15Z</time></trkpt><trkpt lat="40.10967105768829" lon="8.666984362537818"><ele>310.0</ele><time>2026-05-02T08:28:16Z</time></trkpt><trkpt lat="40.109758263059746" lon="8.666965030304304"><ele>310.0</ele><time>2026-05-02T08:28:17Z</time></trkpt><trkpt lat="40.10984891960231" lon="8.666916920144963"><ele>310.0</ele><time>2026-05-02T08:28:17.999Z</time></trkpt><trkpt lat="40.10994538267433" lon="8.666858520549068"><ele>310.0</ele><time>2026-05-02T08:28:18.999Z</time></trkpt><trkpt lat="40.1100296674534" lon="8.66681049061336"><ele>310.4</ele><time>2026-05-02T08:28:19.999Z</time></trkpt><trkpt lat="40.11011379459304" lon="8.666790093088505"><ele>310.8</ele><time>2026-05-02T08:28:20.999Z</time></trkpt><trkpt lat="40.11021164825634" lon="8.666797743049834"><ele>311.2</ele><time>2026-05-02T08:28:21.999Z</time></trkpt><trkpt lat="40.11030616126547" lon="8.666802841475814"><ele>311.6</ele><time>2026-05-02T08:28:22.999Z</time></trkpt><trkpt lat="40.11039176696979" lon="8.666832642287016"><ele>312.0</ele><time>2026-05-02T08:28:23.999Z</time></trkpt><trkpt lat="40.110488570466174" lon="8.666827711988832"><ele>312.0</ele><time>2026-05-02T08:28:24.999Z</time></trkpt><trkpt lat="40.11059834784394" lon="8.666843373847962"><ele>312.0</ele><time>2026-05-02T08:28:25.999Z</time></trkpt><trkpt lat="40.11069098256219" lon="8.666846149966544"><ele>312.0</ele><time>2026-05-02T08:28:26.999Z</time></trkpt><trkpt lat="40.110762889206285" lon="8.666847904042989"><ele>312.0</ele><time>2026-05-02T08:28:27.999Z</time></trkpt><trkpt lat="40.11089296428738" lon="8.666857277919009"><ele>312.0</ele><time>2026-05-02T08:28:29.999Z</time></trkpt><trkpt lat="40.110966849741985" lon="8.666855577240199"><ele>311.3333333333333</ele><time>2026-05-02T08:28:30.999Z</time></trkpt><trkpt lat="40.11103832363359" lon="8.666853252839552"><ele>310.6666666666667</ele><time>2026-05-02T08:28:31.999Z</time></trkpt><trkpt lat="40.11112020647846" lon="8.666857983679266"><ele>310.0</ele><time>2026-05-02T08:28:32.999Z</time></trkpt><trkpt lat="40.11120909324178" lon="8.666874109230509"><ele>309.33333333333337</ele><time>2026-05-02T08:28:33.999Z</time></trkpt><trkpt lat="40.111296470063124" lon="8.666895809521272"><ele>308.6666666666667</ele><time>2026-05-02T08:28:34.999Z</time></trkpt><trkpt lat="40.111383258573" lon="8.666920222931703"><ele>308.0</ele><time>2026-05-02T08:28:35.999Z</time></trkpt><trkpt lat="40.111467517882076" lon="8.666945861185399"><ele>308.0</ele><time>2026-05-02T08:28:36.999Z</time></trkpt><trkpt lat="40.11153954623713" lon="8.666953715355152"><ele>308.0</ele><time>2026-05-02T08:28:37.999Z</time></trkpt><trkpt lat="40.11164845760596" lon="8.66695247207418"><ele>308.0</ele><time>2026-05-02T08:28:39.999Z</time></trkpt><trkpt lat="40.111758293697164" lon="8.667074873051225"><ele>308.0</ele><time>2026-05-02T08:28:41.999Z</time></trkpt><trkpt lat="40.11184006099583" lon="8.667140135712309"><ele>308.0</ele><time>2026-05-02T08:28:42.999Z</time></trkpt><trkpt lat="40.1119031668451" lon="8.667182518397215"><ele>309.0</ele><time>2026-05-02T08:28:43.999Z</time></trkpt><trkpt lat="40.111964279314755" lon="8.667221382287321"><ele>310.0</ele><time>2026-05-02T08:28:44.999Z</time></trkpt><trkpt lat="40.11202903425987" lon="8.667263368411804"><ele>311.0</ele><time>2026-05-02T08:28:45.999Z</time></trkpt><trkpt lat="40.112120942032846" lon="8.667308444646235"><ele>312.0</ele><time>2026-05-02T08:28:46.999Z</time></trkpt><trkpt lat="40.11220498928521" lon="8.667361219575604"><ele>313.0</ele><time>2026-05-02T08:28:47.999Z</time></trkpt><trkpt lat="40.112270556722805" lon="8.667412889470237"><ele>314.0</ele><time>2026-05-02T08:28:48.999Z</time></trkpt><trkpt lat="40.112334975441215" lon="8.667444867258322"><ele>313.99999999999994</ele><time>2026-05-02T08:28:49.999Z</time></trkpt><trkpt lat="40.112400956952705" lon="8.667467274544613"><ele>314.0</ele><time>2026-05-02T08:28:50.999Z</time></trkpt><trkpt lat="40.11247159269639" lon="8.667491622195882"><ele>314.0</ele><time>2026-05-02T08:28:51.999Z</time></trkpt><trkpt lat="40.1125437418281" lon="8.667512006989886"><ele>314.0</ele><time>2026-05-02T08:28:52.999Z</time></trkpt><trkpt lat="40.112609890410326" lon="8.667513877082571"><ele>314.0</ele><time>2026-05-02T08:28:53.999Z</time></trkpt><trkpt lat="40.11268519065895" lon="8.667512098737468"><ele>313.99999999999994</ele><time>2026-05-02T08:28:54.999Z</time></trkpt><trkpt lat="40.11276215869038" lon="8.667508844296883"><ele>314.0</ele><time>2026-05-02T08:28:55.999Z</time></trkpt><trkpt lat="40.112834302818804" lon="8.667478625045883"><ele>315.0</ele><time>2026-05-02T08:28:56.999Z</time></trkpt><trkpt lat="40.11291076852305" lon="8.667412970417715"><ele>316.0</ele><time>2026-05-02T08:28:57.999Z</time></trkpt><trkpt lat="40.113008393709286" lon="8.667361362689334"><ele>317.0</ele><time>2026-05-02T08:28:58.999Z</time></trkpt><trkpt lat="40.11309500549849" lon="8.667278211650133"><ele>318.0</ele><time>2026-05-02T08:28:59.999Z</time></trkpt><trkpt lat="40.113195545584816" lon="8.667208202306346"><ele>319.0</ele><time>2026-05-02T08:29:00.999Z</time></trkpt><trkpt lat="40.113287243724415" lon="8.667138643105297"><ele>319.0</ele><time>2026-05-02T08:29:01.999Z</time></trkpt><trkpt lat="40.113375249272295" lon="8.667066399876317"><ele>319.0</ele><time>2026-05-02T08:29:02.999Z</time></trkpt><trkpt lat="40.1134616393903" lon="8.667003136080028"><ele>319.0</ele><time>2026-05-02T08:29:03.999Z</time></trkpt><trkpt lat="40.11355495958723" lon="8.666940528383748"><ele>319.0</ele><time>2026-05-02T08:29:04.999Z</time></trkpt><trkpt lat="40.11364925626622" lon="8.666886692540434"><ele>319.0</ele><time>2026-05-02T08:29:05.999Z</time></trkpt><trkpt lat="40.113732270546" lon="8.666851343724922"><ele>321.0</ele><time>2026-05-02T08:29:06.999Z</time></trkpt><trkpt lat="40.11380746269287" lon="8.666831193850786"><ele>323.0</ele><time>2026-05-02T08:29:07.999Z</time></trkpt><trkpt lat="40.11388899180173" lon="8.666827167040386"><ele>325.0</ele><time>2026-05-02T08:29:08.999Z</time></trkpt><trkpt lat="40.11397939948701" lon="8.666820579027188"><ele>327.0</ele><time>2026-05-02T08:29:09.999Z</time></trkpt><trkpt lat="40.114083672585195" lon="8.666807420776816"><ele>329.0</ele><time>2026-05-02T08:29:10.999Z</time></trkpt><trkpt lat="40.11419108818765" lon="8.666779238727647"><ele>329.0</ele><time>2026-05-02T08:29:11.999Z</time></trkpt><trkpt lat="40.11426863893416" lon="8.666752519143618"><ele>329.0</ele><time>2026-05-02T08:29:12.999Z</time></trkpt><trkpt lat="40.11435810727108" lon="8.666716167615482"><ele>329.0</ele><time>2026-05-02T08:29:14.999Z</time></trkpt><trkpt lat="40.11446786983479" lon="8.666686040054634"><ele>329.0</ele><time>2026-05-02T08:29:39.998Z</time></trkpt><trkpt lat="40.114535707966276" lon="8.666667268198998"><ele>329.0</ele><time>2026-05-02T08:29:40.998Z</time></trkpt><trkpt lat="40.11460074545929" lon="8.666675979709703"><ele>329.0</ele><time>2026-05-02T08:29:42Z</time></trkpt><trkpt lat="40.114709548782606" lon="8.66665128988722"><ele>329.0</ele><time>2026-05-02T08:29:44Z</time></trkpt><trkpt lat="40.114778812036356" lon="8.666638181439799"><ele>329.0</ele><time>2026-05-02T08:29:45Z</time></trkpt><trkpt lat="40.11484399136974" lon="8.666664242149395"><ele>329.0</ele><time>2026-05-02T08:29:46Z</time></trkpt><trkpt lat="40.11493086739497" lon="8.666591135163166"><ele>329.0</ele><time>2026-05-02T08:29:48Z</time></trkpt><trkpt lat="40.115017928074764" lon="8.666549487769615"><ele>329.0</ele><time>2026-05-02T08:29:50Z</time></trkpt><trkpt lat="40.115156319620226" lon="8.666516445052066"><ele>330.0</ele><time>2026-05-02T08:29:52Z</time></trkpt><trkpt lat="40.11525558904084" lon="8.666537938874374"><ele>331.0</ele><time>2026-05-02T08:29:53Z</time></trkpt><trkpt lat="40.115355908854916" lon="8.666558810814763"><ele>332.0</ele><time>2026-05-02T08:29:54Z</time></trkpt><trkpt lat="40.11545077069459" lon="8.6665634450197"><ele>333.0</ele><time>2026-05-02T08:29:55Z</time></trkpt><trkpt lat="40.11554859198586" lon="8.666571186697999"><ele>334.0</ele><time>2026-05-02T08:29:56Z</time></trkpt><trkpt lat="40.115629428638" lon="8.666558600272966"><ele>334.0</ele><time>2026-05-02T08:29:57Z</time></trkpt><trkpt lat="40.115695046956176" lon="8.666540361560322"><ele>334.0</ele><time>2026-05-02T08:29:58Z</time></trkpt><trkpt lat="40.1157756293911" lon="8.66652908137977"><ele>334.0</ele><time>2026-05-02T08:29:59Z</time></trkpt><trkpt lat="40.11584824763943" lon="8.666520193510326"><ele>334.0</ele><time>2026-05-02T08:30:00Z</time></trkpt><trkpt lat="40.11591199632577" lon="8.666552692432344"><ele>334.0</ele><time>2026-05-02T08:30:01Z</time></trkpt><trkpt lat="40.11597739804491" lon="8.666579416565838"><ele>334.0</ele><time>2026-05-02T08:30:02Z</time></trkpt><trkpt lat="40.116073088976236" lon="8.666610419497086"><ele>335.79999999999995</ele><time>2026-05-02T08:30:04Z</time></trkpt><trkpt lat="40.11620416148946" lon="8.66667438606891"><ele>337.59999999999997</ele><time>2026-05-02T08:30:06Z</time></trkpt><trkpt lat="40.11631170323643" lon="8.666713065347121"><ele>339.4</ele><time>2026-05-02T08:30:07Z</time></trkpt><trkpt lat="40.116416238468446" lon="8.666737896364774"><ele>341.2</ele><time>2026-05-02T08:30:08Z</time></trkpt><trkpt lat="40.11649480922519" lon="8.66674181184199"><ele>343.0</ele><time>2026-05-02T08:30:09Z</time></trkpt><trkpt lat="40.116570041681236" lon="8.666736462728618"><ele>344.4</ele><time>2026-05-02T08:30:10Z</time></trkpt><trkpt lat="40.116643943583284" lon="8.666759525258376"><ele>345.79999999999995</ele><time>2026-05-02T08:30:11Z</time></trkpt><trkpt lat="40.11672615903067" lon="8.666779036696033"><ele>347.2</ele><time>2026-05-02T08:30:12Z</time></trkpt><trkpt lat="40.11681531347194" lon="8.666812714076896"><ele>348.6</ele><time>2026-05-02T08:30:13Z</time></trkpt><trkpt lat="40.11688820347068" lon="8.66686907589203"><ele>350.0</ele><time>2026-05-02T08:30:14Z</time></trkpt><trkpt lat="40.11700887954054" lon="8.66690546658369"><ele>350.0</ele><time>2026-05-02T08:30:16Z</time></trkpt><trkpt lat="40.11708245285041" lon="8.666902387907129"><ele>350.0</ele><time>2026-05-02T08:30:17Z</time></trkpt><trkpt lat="40.1171799427531" lon="8.666928779538178"><ele>350.0</ele><time>2026-05-02T08:30:18Z</time></trkpt><trkpt lat="40.117287241684565" lon="8.666922091326526"><ele>350.0</ele><time>2026-05-02T08:30:18.999Z</time></trkpt><trkpt lat="40.11737526112234" lon="8.666918128595709"><ele>350.0</ele><time>2026-05-02T08:30:19.999Z</time></trkpt><trkpt lat="40.117465749997415" lon="8.666930143227791"><ele>351.4</ele><time>2026-05-02T08:30:20.999Z</time></trkpt><trkpt lat="40.11755273809979" lon="8.666925113461641"><ele>352.8</ele><time>2026-05-02T08:30:21.999Z</time></trkpt><trkpt lat="40.117650823979986" lon="8.66690605187448"><ele>354.20000000000005</ele><time>2026-05-02T08:30:22.999Z</time></trkpt><trkpt lat="40.11774575810588" lon="8.666841196644"><ele>355.6</ele><time>2026-05-02T08:30:23.999Z</time></trkpt><trkpt lat="40.117849903018985" lon="8.666797842600024"><ele>357.0</ele><time>2026-05-02T08:30:24.999Z</time></trkpt><trkpt lat="40.1179507130192" lon="8.666756692868587"><ele>357.0</ele><time>2026-05-02T08:30:25.999Z</time></trkpt><trkpt lat="40.118052366584834" lon="8.666714368423577"><ele>357.0</ele><time>2026-05-02T08:30:26.999Z</time></trkpt><trkpt lat="40.11814674326008" lon="8.666665024745399"><ele>357.0</ele><time>2026-05-02T08:30:27.999Z</time></trkpt><trkpt lat="40.118238322203084" lon="8.666617256927115"><ele>357.0</ele><time>2026-05-02T08:30:28.999Z</time></trkpt><trkpt lat="40.11833743240079" lon="8.666583969248421"><ele>357.0</ele><time>2026-05-02T08:30:29.999Z</time></trkpt><trkpt lat="40.11845076430301" lon="8.66656173528282"><ele>357.40000000000003</ele><time>2026-05-02T08:30:30.999Z</time></trkpt><trkpt lat="40.11855670052315" lon="8.666572479099127"><ele>357.8</ele><time>2026-05-02T08:30:31.999Z</time></trkpt><trkpt lat="40.11864628178099" lon="8.666556965941785"><ele>358.2</ele><time>2026-05-02T08:30:32.999Z</time></trkpt><trkpt lat="40.11871756642817" lon="8.66650205932626"><ele>358.6</ele><time>2026-05-02T08:30:33.999Z</time></trkpt><trkpt lat="40.11878934780624" lon="8.66647339862102"><ele>359.0</ele><time>2026-05-02T08:30:34.999Z</time></trkpt><trkpt lat="40.1188851098179" lon="8.666445351346658"><ele>359.0</ele><time>2026-05-02T08:30:35.999Z</time></trkpt><trkpt lat="40.118964665704794" lon="8.66643588796485"><ele>359.0</ele><time>2026-05-02T08:30:36.999Z</time></trkpt><trkpt lat="40.11902546613273" lon="8.66646794273156"><ele>359.0</ele><time>2026-05-02T08:30:45.999Z</time></trkpt><trkpt lat="40.11909604505464" lon="8.66648169277223"><ele>359.0</ele><time>2026-05-02T08:30:46.999Z</time></trkpt><trkpt lat="40.11917348584722" lon="8.666497039503097"><ele>359.0</ele><time>2026-05-02T08:30:47.999Z</time></trkpt><trkpt lat="40.119254244868394" lon="8.666488833851082"><ele>359.0</ele><time>2026-05-02T08:30:48.999Z</time></trkpt><trkpt lat="40.11935320208344" lon="8.666510604760187"><ele>359.2</ele><time>2026-05-02T08:30:49.999Z</time></trkpt><trkpt lat="40.119454590682246" lon="8.666517647587128"><ele>359.4</ele><time>2026-05-02T08:30:50.999Z</time></trkpt><trkpt lat="40.11955888397169" lon="8.666496940712786"><ele>359.6</ele><time>2026-05-02T08:30:51.999Z</time></trkpt><trkpt lat="40.119655852545314" lon="8.666463184970457"><ele>359.8</ele><time>2026-05-02T08:30:52.999Z</time></trkpt><trkpt lat="40.11975078733989" lon="8.66642469924455"><ele>360.0</ele><time>2026-05-02T08:30:53.999Z</time></trkpt><trkpt lat="40.11984542640784" lon="8.666374849815936"><ele>360.6</ele><time>2026-05-02T08:30:54.999Z</time></trkpt><trkpt lat="40.11994425288617" lon="8.666323355356283"><ele>361.2</ele><time>2026-05-02T08:30:55.999Z</time></trkpt><trkpt lat="40.120039355562824" lon="8.666268241036944"><ele>361.79999999999995</ele><time>2026-05-02T08:30:56.999Z</time></trkpt><trkpt lat="40.12012307760805" lon="8.666232982935203"><ele>362.4</ele><time>2026-05-02T08:30:57.999Z</time></trkpt><trkpt lat="40.1202179688329" lon="8.666201232086031"><ele>363.0</ele><time>2026-05-02T08:30:58.999Z</time></trkpt><trkpt lat="40.12030110986669" lon="8.666145713545474"><ele>364.75</ele><time>2026-05-02T08:30:59.999Z</time></trkpt><trkpt lat="40.12037711162376" lon="8.666070531698164"><ele>366.5</ele><time>2026-05-02T08:31:00.999Z</time></trkpt><trkpt lat="40.1204719156352" lon="8.665978238746254"><ele>368.25</ele><time>2026-05-02T08:31:01.999Z</time></trkpt><trkpt lat="40.120576273473475" lon="8.665895199848975"><ele>370.0</ele><time>2026-05-02T08:31:02.999Z</time></trkpt><trkpt lat="40.12068069164354" lon="8.66580102187584"><ele>371.2</ele><time>2026-05-02T08:31:03.999Z</time></trkpt><trkpt lat="40.120781732338095" lon="8.665706251213638"><ele>372.4</ele><time>2026-05-02T08:31:04.999Z</time></trkpt><trkpt lat="40.12087015835133" lon="8.665635146712413"><ele>373.6</ele><time>2026-05-02T08:31:05.999Z</time></trkpt><trkpt lat="40.12095547689757" lon="8.66559342096765"><ele>374.8</ele><time>2026-05-02T08:31:06.999Z</time></trkpt><trkpt lat="40.121035333086525" lon="8.665578848350204"><ele>376.0</ele><time>2026-05-02T08:31:07.999Z</time></trkpt><trkpt lat="40.121111713639515" lon="8.665632713618896"><ele>376.0</ele><time>2026-05-02T08:31:08.999Z</time></trkpt><trkpt lat="40.121196475947684" lon="8.665692437857574"><ele>376.0</ele><time>2026-05-02T08:31:09.999Z</time></trkpt><trkpt lat="40.121295597105245" lon="8.665758495976833"><ele>376.0</ele><time>2026-05-02T08:31:10.999Z</time></trkpt><trkpt lat="40.12140370315607" lon="8.66582593809814"><ele>376.0</ele><time>2026-05-02T08:31:11.999Z</time></trkpt><trkpt lat="40.12152548742106" lon="8.665871084079605"><ele>377.5</ele><time>2026-05-02T08:31:12.999Z</time></trkpt><trkpt lat="40.12166406563114" lon="8.665924173478604"><ele>379.0</ele><time>2026-05-02T08:31:13.999Z</time></trkpt><trkpt lat="40.121819564536274" lon="8.665998111885422"><ele>380.5</ele><time>2026-05-02T08:31:14.999Z</time></trkpt><trkpt lat="40.12194190439125" lon="8.666072112851227"><ele>382.0</ele><time>2026-05-02T08:31:15.999Z</time></trkpt><trkpt lat="40.12202965356622" lon="8.666174549026872"><ele>382.0</ele><time>2026-05-02T08:31:16.999Z</time></trkpt><trkpt lat="40.12214848772147" lon="8.666294153326618"><ele>382.0</ele><time>2026-05-02T08:31:17.999Z</time></trkpt><trkpt lat="40.12228737553265" lon="8.666416605296199"><ele>382.0</ele><time>2026-05-02T08:31:18.999Z</time></trkpt><trkpt lat="40.122419279933396" lon="8.666546587537342"><ele>385.66666666666663</ele><time>2026-05-02T08:31:19.999Z</time></trkpt><trkpt lat="40.12253880766837" lon="8.666675541609763"><ele>389.3333333333333</ele><time>2026-05-02T08:31:20.999Z</time></trkpt><trkpt lat="40.12265048761934" lon="8.666809637099647"><ele>393.0</ele><time>2026-05-02T08:31:21.998Z</time></trkpt><trkpt lat="40.122763239621996" lon="8.666942489393994"><ele>393.0</ele><time>2026-05-02T08:31:22.998Z</time></trkpt><trkpt lat="40.12288017099151" lon="8.667070047353516"><ele>393.0</ele><time>2026-05-02T08:31:23.998Z</time></trkpt><trkpt lat="40.1229948328016" lon="8.667188622968865"><ele>393.0</ele><time>2026-05-02T08:31:24.998Z</time></trkpt><trkpt lat="40.12311334231474" lon="8.667310499302957"><ele>393.0</ele><time>2026-05-02T08:31:25.998Z</time></trkpt><trkpt lat="40.12322821281746" lon="8.667433730466474"><ele>397.33333333333337</ele><time>2026-05-02T08:31:26.998Z</time></trkpt><trkpt lat="40.123342172786586" lon="8.667568353163173"><ele>401.6666666666667</ele><time>2026-05-02T08:31:27.998Z</time></trkpt><trkpt lat="40.123477552860756" lon="8.667655831411448"><ele>406.0</ele><time>2026-05-02T08:31:28.998Z</time></trkpt><trkpt lat="40.12362568284847" lon="8.667745899707755"><ele>405.5</ele><time>2026-05-02T08:31:29.998Z</time></trkpt><trkpt lat="40.1237553414252" lon="8.667814827846753"><ele>405.0</ele><time>2026-05-02T08:31:30.998Z</time></trkpt><trkpt lat="40.12386219010862" lon="8.66785345228371"><ele>404.5</ele><time>2026-05-02T08:31:31.998Z</time></trkpt><trkpt lat="40.123962074505" lon="8.66787623282487"><ele>404.0</ele><time>2026-05-02T08:31:32.998Z</time></trkpt><trkpt lat="40.124073805295104" lon="8.66788427996391"><ele>405.6</ele><time>2026-05-02T08:31:33.998Z</time></trkpt><trkpt lat="40.12418728338481" lon="8.667897195309177"><ele>407.2</ele><time>2026-05-02T08:31:34.998Z</time></trkpt><trkpt lat="40.124300098939045" lon="8.667919865484976"><ele>408.8</ele><time>2026-05-02T08:31:35.998Z</time></trkpt><trkpt lat="40.12439694071249" lon="8.667935097977516"><ele>410.40000000000003</ele><time>2026-05-02T08:31:36.998Z</time></trkpt><trkpt lat="40.12449487477526" lon="8.66795497978481"><ele>412.0</ele><time>2026-05-02T08:31:37.998Z</time></trkpt><trkpt lat="40.124594131187635" lon="8.667955977087903"><ele>412.0</ele><time>2026-05-02T08:31:38.998Z</time></trkpt><trkpt lat="40.1246967618824" lon="8.667998856920308"><ele>412.0</ele><time>2026-05-02T08:31:39.998Z</time></trkpt><trkpt lat="40.12481299984592" lon="8.668003077304212"><ele>412.0</ele><time>2026-05-02T08:31:40.998Z</time></trkpt><trkpt lat="40.12493177224449" lon="8.668027369797139"><ele>412.0</ele><time>2026-05-02T08:31:41.998Z</time></trkpt><trkpt lat="40.125039231499535" lon="8.668045735076106"><ele>413.25</ele><time>2026-05-02T08:31:42.998Z</time></trkpt><trkpt lat="40.1251508309028" lon="8.668087666928772"><ele>414.5</ele><time>2026-05-02T08:31:43.998Z</time></trkpt><trkpt lat="40.12526573553033" lon="8.668109164117979"><ele>415.75</ele><time>2026-05-02T08:31:44.998Z</time></trkpt><trkpt lat="40.12538169961853" lon="8.66811654266612"><ele>417.0</ele><time>2026-05-02T08:31:45.998Z</time></trkpt><trkpt lat="40.125496330888566" lon="8.668132527520392"><ele>417.0</ele><time>2026-05-02T08:31:47Z</time></trkpt><trkpt lat="40.125620477724816" lon="8.668149351252548"><ele>417.0</ele><time>2026-05-02T08:31:48Z</time></trkpt><trkpt lat="40.125760793586615" lon="8.66817016201743"><ele>417.0</ele><time>2026-05-02T08:31:49Z</time></trkpt><trkpt lat="40.125888728524885" lon="8.668223297378162"><ele>417.0</ele><time>2026-05-02T08:31:50Z</time></trkpt><trkpt lat="40.12600386374094" lon="8.668257398971383"><ele>418.20000000000005</ele><time>2026-05-02T08:31:51Z</time></trkpt><trkpt lat="40.126124478158744" lon="8.668272267121004"><ele>419.4</ele><time>2026-05-02T08:31:52Z</time></trkpt><trkpt lat="40.12623143441527" lon="8.668308358712236"><ele>420.6</ele><time>2026-05-02T08:31:53Z</time></trkpt><trkpt lat="40.12632001383796" lon="8.668343898111718"><ele>421.79999999999995</ele><time>2026-05-02T08:31:54Z</time></trkpt><trkpt lat="40.12642238206302" lon="8.668360213208945"><ele>423.0</ele><time>2026-05-02T08:31:55Z</time></trkpt><trkpt lat="40.12655741811197" lon="8.668350394833865"><ele>424.25</ele><time>2026-05-02T08:31:56Z</time></trkpt><trkpt lat="40.126711529996285" lon="8.66833875107561"><ele>425.5</ele><time>2026-05-02T08:31:57Z</time></trkpt><trkpt lat="40.12685794936115" lon="8.668327311056657"><ele>426.75</ele><time>2026-05-02T08:31:58Z</time></trkpt><trkpt lat="40.12698503575342" lon="8.668311168541507"><ele>428.0</ele><time>2026-05-02T08:31:59Z</time></trkpt><trkpt lat="40.127096856023584" lon="8.668314242359349"><ele>428.0</ele><time>2026-05-02T08:32:00Z</time></trkpt><trkpt lat="40.12721046258011" lon="8.668358414499691"><ele>427.99999999999994</ele><time>2026-05-02T08:32:01Z</time></trkpt><trkpt lat="40.127304763909564" lon="8.668370773972967"><ele>427.99999999999994</ele><time>2026-05-02T08:32:02Z</time></trkpt><trkpt lat="40.12736782796788" lon="8.668392033530068"><ele>428.0</ele><time>2026-05-02T08:32:03Z</time></trkpt><trkpt lat="40.12745849704157" lon="8.668307249838152"><ele>428.0</ele><time>2026-05-02T08:32:05Z</time></trkpt><trkpt lat="40.12746337315957" lon="8.668214486498112"><ele>428.49999999999994</ele><time>2026-05-02T08:32:06Z</time></trkpt><trkpt lat="40.127467522047304" lon="8.668113282766372"><ele>429.0</ele><time>2026-05-02T08:32:07Z</time></trkpt><trkpt lat="40.12755908769722" lon="8.668040661824394"><ele>429.5</ele><time>2026-05-02T08:32:09Z</time></trkpt><trkpt lat="40.12762304998776" lon="8.66804080122096"><ele>430.0</ele><time>2026-05-02T08:32:10Z</time></trkpt><trkpt lat="40.12771175027629" lon="8.668058824678752"><ele>430.49999999999994</ele><time>2026-05-02T08:32:11Z</time></trkpt><trkpt lat="40.12782043770511" lon="8.668059276509531"><ele>431.0</ele><time>2026-05-02T08:32:12Z</time></trkpt><trkpt lat="40.127936261756865" lon="8.66807266076129"><ele>431.0</ele><time>2026-05-02T08:32:13Z</time></trkpt><trkpt lat="40.12803404631917" lon="8.668050378341599"><ele>431.0</ele><time>2026-05-02T08:32:14Z</time></trkpt><trkpt lat="40.128104991819924" lon="8.668038164774982"><ele>431.0</ele><time>2026-05-02T08:32:15Z</time></trkpt><trkpt lat="40.128194099830615" lon="8.66812541556747"><ele>431.0</ele><time>2026-05-02T08:32:17Z</time></trkpt><trkpt lat="40.128258849006286" lon="8.668196221740885"><ele>431.0</ele><time>2026-05-02T08:32:18Z</time></trkpt><trkpt lat="40.128328476626486" lon="8.668289753445453"><ele>431.49999999999994</ele><time>2026-05-02T08:32:19Z</time></trkpt><trkpt lat="40.128383139767806" lon="8.668372743484653"><ele>432.0</ele><time>2026-05-02T08:32:20Z</time></trkpt><trkpt lat="40.12843163560859" lon="8.668427757155031"><ele>432.5</ele><time>2026-05-02T08:32:21Z</time></trkpt><trkpt lat="40.12849929982596" lon="8.66844505058951"><ele>433.0</ele><time>2026-05-02T08:32:21.999Z</time></trkpt><trkpt lat="40.12858560230247" lon="8.668429395583116"><ele>433.49999999999994</ele><time>2026-05-02T08:32:22.999Z</time></trkpt><trkpt lat="40.12866047436876" lon="8.668413748020301"><ele>434.0</ele><time>2026-05-02T08:32:23.999Z</time></trkpt><trkpt lat="40.12876505439477" lon="8.668467030016895"><ele>433.99999999999994</ele><time>2026-05-02T08:32:25.999Z</time></trkpt><trkpt lat="40.128761371823316" lon="8.66856364292482"><ele>434.0</ele><time>2026-05-02T08:32:26.999Z</time></trkpt><trkpt lat="40.12879473120177" lon="8.66863768566136"><ele>434.0</ele><time>2026-05-02T08:32:27.999Z</time></trkpt><trkpt lat="40.12881361581986" lon="8.66871770867945"><ele>434.0</ele><time>2026-05-02T08:32:28.999Z</time></trkpt><trkpt lat="40.12891296899414" lon="8.668781241036626"><ele>433.99999999999994</ele><time>2026-05-02T08:32:30.999Z</time></trkpt><trkpt lat="40.12899344187827" lon="8.668800094576424"><ele>434.0</ele><time>2026-05-02T08:32:31.999Z</time></trkpt><trkpt lat="40.12908183177067" lon="8.668827191135899"><ele>434.2</ele><time>2026-05-02T08:32:32.999Z</time></trkpt><trkpt lat="40.12916632470027" lon="8.668838373933331"><ele>434.4</ele><time>2026-05-02T08:32:33.999Z</time></trkpt><trkpt lat="40.12926436343627" lon="8.668830946554014"><ele>434.6</ele><time>2026-05-02T08:32:34.999Z</time></trkpt><trkpt lat="40.12937201029092" lon="8.668817094174235"><ele>434.8</ele><time>2026-05-02T08:32:35.999Z</time></trkpt><trkpt lat="40.12948143270463" lon="8.668841343487271"><ele>435.0</ele><time>2026-05-02T08:32:36.999Z</time></trkpt><trkpt lat="40.12959633877071" lon="8.668858498118382"><ele>435.0</ele><time>2026-05-02T08:32:37.999Z</time></trkpt><trkpt lat="40.129725794748175" lon="8.66886952758914"><ele>435.0</ele><time>2026-05-02T08:32:38.999Z</time></trkpt><trkpt lat="40.129861516125764" lon="8.668914212023207"><ele>435.0</ele><time>2026-05-02T08:32:39.999Z</time></trkpt><trkpt lat="40.130002351649956" lon="8.66895170967818"><ele>435.0</ele><time>2026-05-02T08:32:40.999Z</time></trkpt><trkpt lat="40.1301445546048" lon="8.668970102771313"><ele>436.75</ele><time>2026-05-02T08:32:41.999Z</time></trkpt><trkpt lat="40.13028500523363" lon="8.669008561859531"><ele>438.5</ele><time>2026-05-02T08:32:42.999Z</time></trkpt><trkpt lat="40.130400720142106" lon="8.669093792864022"><ele>440.25</ele><time>2026-05-02T08:32:43.999Z</time></trkpt><trkpt lat="40.13050811985562" lon="8.669133650345922"><ele>442.0</ele><time>2026-05-02T08:32:44.999Z</time></trkpt><trkpt lat="40.130599573960716" lon="8.669176010449867"><ele>442.00000000000006</ele><time>2026-05-02T08:32:45.999Z</time></trkpt><trkpt lat="40.13069565553473" lon="8.669214510722043"><ele>442.0</ele><time>2026-05-02T08:32:46.999Z</time></trkpt><trkpt lat="40.130769986585655" lon="8.669252751422922"><ele>442.0</ele><time>2026-05-02T08:32:47.999Z</time></trkpt><trkpt lat="40.13082628808956" lon="8.669304954200227"><ele>442.0</ele><time>2026-05-02T08:32:48.999Z</time></trkpt><trkpt lat="40.13085442097134" lon="8.669408629124502"><ele>442.00000000000006</ele><time>2026-05-02T08:32:49.999Z</time></trkpt><trkpt lat="40.13092623131685" lon="8.669490328243326"><ele>442.0</ele><time>2026-05-02T08:32:50.999Z</time></trkpt><trkpt lat="40.131003187892894" lon="8.669587134772678"><ele>443.25</ele><time>2026-05-02T08:32:51.999Z</time></trkpt><trkpt lat="40.13110002890966" lon="8.669677773021679"><ele>444.5</ele><time>2026-05-02T08:32:52.999Z</time></trkpt><trkpt lat="40.13120105604729" lon="8.66975569243033"><ele>445.75</ele><time>2026-05-02T08:32:53.999Z</time></trkpt><trkpt lat="40.13131265512711" lon="8.669825200105313"><ele>447.0</ele><time>2026-05-02T08:32:54.999Z</time></trkpt><trkpt lat="40.1314284422813" lon="8.66989056922552"><ele>447.0</ele><time>2026-05-02T08:32:55.999Z</time></trkpt><trkpt lat="40.13154060755186" lon="8.669966261669398"><ele>447.0</ele><time>2026-05-02T08:32:56.999Z</time></trkpt><trkpt lat="40.1316475412013" lon="8.670053975167018"><ele>447.0</ele><time>2026-05-02T08:32:57.999Z</time></trkpt><trkpt lat="40.131744509952945" lon="8.670161258535586"><ele>447.0</ele><time>2026-05-02T08:32:58.999Z</time></trkpt><trkpt lat="40.131863823270585" lon="8.670231990964117"><ele>448.20000000000005</ele><time>2026-05-02T08:32:59.999Z</time></trkpt><trkpt lat="40.13198414366853" lon="8.67030806309277"><ele>449.40000000000003</ele><time>2026-05-02T08:33:00.999Z</time></trkpt><trkpt lat="40.13210273905301" lon="8.670382984356628"><ele>450.59999999999997</ele><time>2026-05-02T08:33:01.999Z</time></trkpt><trkpt lat="40.13217281695228" lon="8.670465867464076"><ele>451.79999999999995</ele><time>2026-05-02T08:33:02.999Z</time></trkpt><trkpt lat="40.13223646957469" lon="8.670483616837613"><ele>453.0</ele><time>2026-05-02T08:33:03.999Z</time></trkpt><trkpt lat="40.132335393745386" lon="8.670414536623515"><ele>453.0</ele><time>2026-05-02T08:33:05.999Z</time></trkpt><trkpt lat="40.13235871769748" lon="8.670305114226514"><ele>452.99999999999994</ele><time>2026-05-02T08:33:06.999Z</time></trkpt><trkpt lat="40.13237632690326" lon="8.670161468331726"><ele>452.99999999999994</ele><time>2026-05-02T08:33:07.999Z</time></trkpt><trkpt lat="40.132432171165824" lon="8.670029468923396"><ele>453.0</ele><time>2026-05-02T08:33:08.999Z</time></trkpt><trkpt lat="40.13246422627134" lon="8.66990234606722"><ele>453.0</ele><time>2026-05-02T08:33:09.999Z</time></trkpt><trkpt lat="40.13252376833509" lon="8.669822278095525"><ele>456.75</ele><time>2026-05-02T08:33:10.999Z</time></trkpt><trkpt lat="40.13262976384593" lon="8.669788670628304"><ele>460.5</ele><time>2026-05-02T08:33:11.999Z</time></trkpt><trkpt lat="40.132737408787015" lon="8.669700704033161"><ele>464.25</ele><time>2026-05-02T08:33:12.999Z</time></trkpt><trkpt lat="40.132865740346205" lon="8.669647770668476"><ele>468.0</ele><time>2026-05-02T08:33:13.999Z</time></trkpt><trkpt lat="40.133009013338246" lon="8.669616136937192"><ele>468.0</ele><time>2026-05-02T08:33:14.999Z</time></trkpt><trkpt lat="40.13317536284507" lon="8.66958719790008"><ele>468.0</ele><time>2026-05-02T08:33:15.999Z</time></trkpt><trkpt lat="40.133347765347914" lon="8.669591296794115"><ele>468.0</ele><time>2026-05-02T08:33:16.999Z</time></trkpt><trkpt lat="40.13351631729232" lon="8.66957927679877"><ele>471.0</ele><time>2026-05-02T08:33:17.999Z</time></trkpt><trkpt lat="40.133679486220615" lon="8.669596757936226"><ele>474.0</ele><time>2026-05-02T08:33:18.999Z</time></trkpt><trkpt lat="40.133842881938854" lon="8.669607127498923"><ele>477.0</ele><time>2026-05-02T08:33:19.999Z</time></trkpt><trkpt lat="40.13397279350905" lon="8.669634141827794"><ele>479.5</ele><time>2026-05-02T08:33:20.999Z</time></trkpt><trkpt lat="40.13407068845522" lon="8.66973698456036"><ele>482.0</ele><time>2026-05-02T08:33:21.999Z</time></trkpt><trkpt lat="40.13418780689662" lon="8.669808069220249"><ele>484.5</ele><time>2026-05-02T08:33:22.999Z</time></trkpt><trkpt lat="40.13428355104848" lon="8.669890600320006"><ele>487.0</ele><time>2026-05-02T08:33:23.999Z</time></trkpt><trkpt lat="40.134392127692664" lon="8.669909117157"><ele>487.0</ele><time>2026-05-02T08:33:24.999Z</time></trkpt><trkpt lat="40.13452063058258" lon="8.669880106970009"><ele>487.0</ele><time>2026-05-02T08:33:25.998Z</time></trkpt><trkpt lat="40.1346586636133" lon="8.66984208957815"><ele>487.0</ele><time>2026-05-02T08:33:26.998Z</time></trkpt><trkpt lat="40.13478159945436" lon="8.669869991879674"><ele>487.0</ele><time>2026-05-02T08:33:27.998Z</time></trkpt><trkpt lat="40.1348684641376" lon="8.669878681975895"><ele>489.0</ele><time>2026-05-02T08:33:28.998Z</time></trkpt><trkpt lat="40.134956873803624" lon="8.669885190322379"><ele>491.0</ele><time>2026-05-02T08:33:30.998Z</time></trkpt><trkpt lat="40.135091711512956" lon="8.669768962805763"><ele>493.0</ele><time>2026-05-02T08:33:32.998Z</time></trkpt><trkpt lat="40.13517687299748" lon="8.669650198073118"><ele>495.0</ele><time>2026-05-02T08:33:33.998Z</time></trkpt><trkpt lat="40.13527113324902" lon="8.669514153814294"><ele>494.75</ele><time>2026-05-02T08:33:34.998Z</time></trkpt><trkpt lat="40.13537568778135" lon="8.669393414586983"><ele>494.5</ele><time>2026-05-02T08:33:35.998Z</time></trkpt><trkpt lat="40.13550703688778" lon="8.669329667605211"><ele>494.25</ele><time>2026-05-02T08:33:36.998Z</time></trkpt><trkpt lat="40.13566579744257" lon="8.66929174148693"><ele>494.0</ele><time>2026-05-02T08:33:37.998Z</time></trkpt><trkpt lat="40.135839515478736" lon="8.669278333078099"><ele>495.5</ele><time>2026-05-02T08:33:38.998Z</time></trkpt><trkpt lat="40.135998838881235" lon="8.669272292248024"><ele>497.0</ele><time>2026-05-02T08:33:39.998Z</time></trkpt><trkpt lat="40.13613474904183" lon="8.669292572824558"><ele>498.5</ele><time>2026-05-02T08:33:40.998Z</time></trkpt><trkpt lat="40.13624676475445" lon="8.669320370692839"><ele>500.0</ele><time>2026-05-02T08:33:41.998Z</time></trkpt><trkpt lat="40.136318923631045" lon="8.669378465149503"><ele>500.0</ele><time>2026-05-02T08:33:42.998Z</time></trkpt><trkpt lat="40.136381878898895" lon="8.669439763812742"><ele>500.0</ele><time>2026-05-02T08:33:44.998Z</time></trkpt><trkpt lat="40.13644506142078" lon="8.669443803484798"><ele>500.0</ele><time>2026-05-02T08:33:47.998Z</time></trkpt><trkpt lat="40.13651496521294" lon="8.669381568840208"><ele>500.0</ele><time>2026-05-02T08:33:48.998Z</time></trkpt><trkpt lat="40.13657643536497" lon="8.669245352671801"><ele>500.0</ele><time>2026-05-02T08:33:49.998Z</time></trkpt><trkpt lat="40.136642090112645" lon="8.669102088538372"><ele>503.0</ele><time>2026-05-02T08:33:50.998Z</time></trkpt><trkpt lat="40.136725403694925" lon="8.668945906243888"><ele>506.0</ele><time>2026-05-02T08:33:52Z</time></trkpt><trkpt lat="40.13681440756991" lon="8.668785528672139"><ele>509.0</ele><time>2026-05-02T08:33:53Z</time></trkpt><trkpt lat="40.13691339677218" lon="8.668612051199633"><ele>508.66666666666663</ele><time>2026-05-02T08:33:54Z</time></trkpt><trkpt lat="40.1370209837214" lon="8.66843005579427"><ele>508.33333333333337</ele><time>2026-05-02T08:33:55Z</time></trkpt><trkpt lat="40.137128938463455" lon="8.668246870690423"><ele>508.0</ele><time>2026-05-02T08:33:56Z</time></trkpt><trkpt lat="40.137240517160244" lon="8.668053917450797"><ele>508.0</ele><time>2026-05-02T08:33:57Z</time></trkpt><trkpt lat="40.137354577828035" lon="8.667848768151787"><ele>508.0</ele><time>2026-05-02T08:33:58Z</time></trkpt><trkpt lat="40.13746808880875" lon="8.667643978711828"><ele>508.0</ele><time>2026-05-02T08:33:59Z</time></trkpt><trkpt lat="40.137581603097864" lon="8.667431990053245"><ele>507.6666666666667</ele><time>2026-05-02T08:34:00Z</time></trkpt><trkpt lat="40.137699825616636" lon="8.667215253256769"><ele>507.33333333333337</ele><time>2026-05-02T08:34:01Z</time></trkpt><trkpt lat="40.13782574550611" lon="8.6669961657118"><ele>507.0</ele><time>2026-05-02T08:34:02Z</time></trkpt><trkpt lat="40.13795309898174" lon="8.666778746228564"><ele>507.0</ele><time>2026-05-02T08:34:03Z</time></trkpt><trkpt lat="40.138078443337136" lon="8.666555807007017"><ele>507.0</ele><time>2026-05-02T08:34:04Z</time></trkpt><trkpt lat="40.13820863147691" lon="8.666337637108997"><ele>507.0</ele><time>2026-05-02T08:34:05Z</time></trkpt><trkpt lat="40.13837087165506" lon="8.666161665183761"><ele>508.0</ele><time>2026-05-02T08:34:06Z</time></trkpt><trkpt lat="40.138537887629894" lon="8.66599123709055"><ele>509.0</ele><time>2026-05-02T08:34:07Z</time></trkpt><trkpt lat="40.13871211561938" lon="8.665833470063523"><ele>510.0</ele><time>2026-05-02T08:34:08Z</time></trkpt><trkpt lat="40.13887236185693" lon="8.665679080642755"><ele>510.0</ele><time>2026-05-02T08:34:09Z</time></trkpt><trkpt lat="40.13903240489845" lon="8.665573729987273"><ele>510.0</ele><time>2026-05-02T08:34:10Z</time></trkpt><trkpt lat="40.139198448824054" lon="8.66554009695846"><ele>510.0</ele><time>2026-05-02T08:34:11Z</time></trkpt><trkpt lat="40.13934664829531" lon="8.665570145966006"><ele>513.25</ele><time>2026-05-02T08:34:12Z</time></trkpt><trkpt lat="40.13945394519135" lon="8.665665658632618"><ele>516.5</ele><time>2026-05-02T08:34:13Z</time></trkpt><trkpt lat="40.13957250812685" lon="8.66578866754478"><ele>519.75</ele><time>2026-05-02T08:34:14Z</time></trkpt><trkpt lat="40.139699570592356" lon="8.66593146045278"><ele>523.0</ele><time>2026-05-02T08:34:15Z</time></trkpt><trkpt lat="40.13984223504038" lon="8.666055757225008"><ele>526.6666666666667</ele><time>2026-05-02T08:34:16Z</time></trkpt><trkpt lat="40.14001447845336" lon="8.66613831767554"><ele>530.3333333333334</ele><time>2026-05-02T08:34:17Z</time></trkpt><trkpt lat="40.14019096608794" lon="8.666198951867404"><ele>534.0</ele><time>2026-05-02T08:34:18Z</time></trkpt><trkpt lat="40.14035791575888" lon="8.66623801003498"><ele>534.0</ele><time>2026-05-02T08:34:19Z</time></trkpt><trkpt lat="40.14050527597938" lon="8.666237888821787"><ele>534.0</ele><time>2026-05-02T08:34:20Z</time></trkpt><trkpt lat="40.140620025192966" lon="8.66620191823151"><ele>534.0</ele><time>2026-05-02T08:34:21Z</time></trkpt><trkpt lat="40.140698811660236" lon="8.666099180755799"><ele>534.0</ele><time>2026-05-02T08:34:22Z</time></trkpt><trkpt lat="40.140743364116005" lon="8.665935804244556"><ele>533.0</ele><time>2026-05-02T08:34:22.999Z</time></trkpt><trkpt lat="40.14075214212422" lon="8.665732743138602"><ele>532.0</ele><time>2026-05-02T08:34:23.999Z</time></trkpt><trkpt lat="40.140752068516676" lon="8.665511365869518"><ele>531.0</ele><time>2026-05-02T08:34:24.999Z</time></trkpt><trkpt lat="40.14075392624438" lon="8.665289015160935"><ele>531.0</ele><time>2026-05-02T08:34:25.999Z</time></trkpt><trkpt lat="40.14076326726258" lon="8.665060944376313"><ele>531.0</ele><time>2026-05-02T08:34:26.999Z</time></trkpt><trkpt lat="40.14077003277598" lon="8.664831638295349"><ele>531.0</ele><time>2026-05-02T08:34:27.999Z</time></trkpt><trkpt lat="40.14077054510286" lon="8.664600266045044"><ele>531.3333333333334</ele><time>2026-05-02T08:34:28.999Z</time></trkpt><trkpt lat="40.1407612010545" lon="8.664369158560541"><ele>531.6666666666667</ele><time>2026-05-02T08:34:29.999Z</time></trkpt><trkpt lat="40.14078242635921" lon="8.664143858488453"><ele>532.0</ele><time>2026-05-02T08:34:30.999Z</time></trkpt><trkpt lat="40.14082074375897" lon="8.663911540274192"><ele>532.0</ele><time>2026-05-02T08:34:31.999Z</time></trkpt><trkpt lat="40.14086164215331" lon="8.663682805981791"><ele>532.0</ele><time>2026-05-02T08:34:32.999Z</time></trkpt><trkpt lat="40.14089307443339" lon="8.66344183907794"><ele>532.0</ele><time>2026-05-02T08:34:33.999Z</time></trkpt><trkpt lat="40.14093875794278" lon="8.663198806427117"><ele>531.3333333333334</ele><time>2026-05-02T08:34:34.999Z</time></trkpt><trkpt lat="40.14098183278151" lon="8.662955144765363"><ele>530.6666666666666</ele><time>2026-05-02T08:34:35.999Z</time></trkpt><trkpt lat="40.14102777842542" lon="8.66271800915973"><ele>530.0</ele><time>2026-05-02T08:34:36.999Z</time></trkpt><trkpt lat="40.14107496939447" lon="8.662484564615"><ele>529.6666666666666</ele><time>2026-05-02T08:34:37.999Z</time></trkpt><trkpt lat="40.14112167039369" lon="8.662254754516612"><ele>529.3333333333334</ele><time>2026-05-02T08:34:38.999Z</time></trkpt><trkpt lat="40.14116545651478" lon="8.662029463713225"><ele>529.0</ele><time>2026-05-02T08:34:39.999Z</time></trkpt><trkpt lat="40.14120947102335" lon="8.66180927195693"><ele>531.3333333333334</ele><time>2026-05-02T08:34:40.999Z</time></trkpt><trkpt lat="40.1412536486364" lon="8.661597196388518"><ele>533.6666666666666</ele><time>2026-05-02T08:34:41.999Z</time></trkpt><trkpt lat="40.14129528590409" lon="8.661392992882913"><ele>536.0</ele><time>2026-05-02T08:34:42.999Z</time></trkpt><trkpt lat="40.14133475429774" lon="8.66119801721665"><ele>537.25</ele><time>2026-05-02T08:34:43.999Z</time></trkpt><trkpt lat="40.1413717873029" lon="8.661005309357918"><ele>538.5</ele><time>2026-05-02T08:34:44.999Z</time></trkpt><trkpt lat="40.14140650102758" lon="8.66081695985928"><ele>539.75</ele><time>2026-05-02T08:34:45.999Z</time></trkpt><trkpt lat="40.14144074195784" lon="8.660642628168146"><ele>541.0</ele><time>2026-05-02T08:34:46.999Z</time></trkpt><trkpt lat="40.14147652585673" lon="8.66047973938614"><ele>541.0</ele><time>2026-05-02T08:34:47.999Z</time></trkpt><trkpt lat="40.141503321033035" lon="8.66034100400709"><ele>541.0</ele><time>2026-05-02T08:34:48.999Z</time></trkpt><trkpt lat="40.14152239615662" lon="8.660234357469243"><ele>541.0</ele><time>2026-05-02T08:34:49.999Z</time></trkpt><trkpt lat="40.141539653291" lon="8.66014855685021"><ele>541.0</ele><time>2026-05-02T08:34:50.999Z</time></trkpt><trkpt lat="40.14155990840645" lon="8.660021851367953"><ele>541.0</ele><time>2026-05-02T08:34:52.999Z</time></trkpt><trkpt lat="40.14157671435321" lon="8.659935993370073"><ele>541.0</ele><time>2026-05-02T08:34:54.999Z</time></trkpt><trkpt lat="40.141606316173934" lon="8.659856447035423"><ele>541.8</ele><time>2026-05-02T08:34:55.999Z</time></trkpt><trkpt lat="40.14161181245917" lon="8.659731127672128"><ele>542.6</ele><time>2026-05-02T08:34:56.999Z</time></trkpt><trkpt lat="40.141616867750784" lon="8.659572687796485"><ele>543.4</ele><time>2026-05-02T08:34:57.999Z</time></trkpt><trkpt lat="40.14166023510938" lon="8.659443481180958"><ele>544.2</ele><time>2026-05-02T08:34:58.999Z</time></trkpt><trkpt lat="40.14172618839071" lon="8.659334224955291"><ele>545.0</ele><time>2026-05-02T08:34:59.999Z</time></trkpt><trkpt lat="40.14181684597834" lon="8.659259948444248"><ele>546.25</ele><time>2026-05-02T08:35:00.999Z</time></trkpt><trkpt lat="40.14193836829437" lon="8.659238524275638"><ele>547.5</ele><time>2026-05-02T08:35:01.999Z</time></trkpt><trkpt lat="40.14207701502051" lon="8.659251199667045"><ele>548.75</ele><time>2026-05-02T08:35:02.999Z</time></trkpt><trkpt lat="40.14222615045511" lon="8.659266626589176"><ele>550.0</ele><time>2026-05-02T08:35:03.999Z</time></trkpt><trkpt lat="40.142390229084896" lon="8.65928885187553"><ele>550.6666666666667</ele><time>2026-05-02T08:35:04.999Z</time></trkpt><trkpt lat="40.14256180976815" lon="8.65932529379344"><ele>551.3333333333334</ele><time>2026-05-02T08:35:05.999Z</time></trkpt><trkpt lat="40.142732977405196" lon="8.659393619163177"><ele>552.0</ele><time>2026-05-02T08:35:06.999Z</time></trkpt><trkpt lat="40.14288238070528" lon="8.659557574068534"><ele>552.0</ele><time>2026-05-02T08:35:07.999Z</time></trkpt><trkpt lat="40.14305300735521" lon="8.65972065235292"><ele>552.0</ele><time>2026-05-02T08:35:08.999Z</time></trkpt><trkpt lat="40.14320878709621" lon="8.659854744764022"><ele>552.0</ele><time>2026-05-02T08:35:09.999Z</time></trkpt><trkpt lat="40.143373516179494" lon="8.659948006509971"><ele>552.0</ele><time>2026-05-02T08:35:10.999Z</time></trkpt><trkpt lat="40.14355898357504" lon="8.660024042842586"><ele>552.0</ele><time>2026-05-02T08:35:11.999Z</time></trkpt><trkpt lat="40.143754744903504" lon="8.66010058904975"><ele>552.0</ele><time>2026-05-02T08:35:12.999Z</time></trkpt><trkpt lat="40.1439490607893" lon="8.660165437464116"><ele>555.6666666666666</ele><time>2026-05-02T08:35:13.999Z</time></trkpt><trkpt lat="40.14415489271212" lon="8.660200836430898"><ele>559.3333333333333</ele><time>2026-05-02T08:35:14.999Z</time></trkpt><trkpt lat="40.14436254250214" lon="8.660199005260473"><ele>563.0</ele><time>2026-05-02T08:35:15.999Z</time></trkpt><trkpt lat="40.14453639910829" lon="8.660168110586888"><ele>563.0</ele><time>2026-05-02T08:35:16.999Z</time></trkpt><trkpt lat="40.14467861826602" lon="8.660107518861265"><ele>563.0</ele><time>2026-05-02T08:35:17.999Z</time></trkpt><trkpt lat="40.14480760228432" lon="8.659982589838208"><ele>563.0</ele><time>2026-05-02T08:35:18.999Z</time></trkpt><trkpt lat="40.14492078380945" lon="8.65980097468763"><ele>562.0</ele><time>2026-05-02T08:35:19.999Z</time></trkpt><trkpt lat="40.145015680577494" lon="8.659580684195012"><ele>561.0</ele><time>2026-05-02T08:35:20.999Z</time></trkpt><trkpt lat="40.14509608222781" lon="8.659367927547734"><ele>560.0</ele><time>2026-05-02T08:35:21.999Z</time></trkpt><trkpt lat="40.14518747328943" lon="8.65918286071707"><ele>562.5</ele><time>2026-05-02T08:35:22.999Z</time></trkpt><trkpt lat="40.1452517257691" lon="8.659016181851177"><ele>565.0</ele><time>2026-05-02T08:35:23.999Z</time></trkpt><trkpt lat="40.14535784793518" lon="8.658864545944986"><ele>567.5</ele><time>2026-05-02T08:35:24.999Z</time></trkpt><trkpt lat="40.14546299065092" lon="8.658726796798703"><ele>570.0</ele><time>2026-05-02T08:35:25.998Z</time></trkpt><trkpt lat="40.14558979648514" lon="8.658595686133062"><ele>572.3333333333334</ele><time>2026-05-02T08:35:26.998Z</time></trkpt><trkpt lat="40.1457225380421" lon="8.658487706839225"><ele>574.6666666666667</ele><time>2026-05-02T08:35:27.998Z</time></trkpt><trkpt lat="40.145856443312205" lon="8.658378640762347"><ele>577.0</ele><time>2026-05-02T08:35:28.998Z</time></trkpt><trkpt lat="40.14598894455319" lon="8.658245169991114"><ele>577.0</ele><time>2026-05-02T08:35:29.998Z</time></trkpt><trkpt lat="40.146122434438084" lon="8.658108882835352"><ele>577.0</ele><time>2026-05-02T08:35:30.998Z</time></trkpt><trkpt lat="40.146246298623325" lon="8.657949101187361"><ele>577.0</ele><time>2026-05-02T08:35:31.998Z</time></trkpt><trkpt lat="40.14636049513452" lon="8.657775284786936"><ele>577.6666666666667</ele><time>2026-05-02T08:35:32.998Z</time></trkpt><trkpt lat="40.14646754782191" lon="8.657601299208375"><ele>578.3333333333334</ele><time>2026-05-02T08:35:33.998Z</time></trkpt><trkpt lat="40.1465722728561" lon="8.657421830730074"><ele>579.0</ele><time>2026-05-02T08:35:34.998Z</time></trkpt><trkpt lat="40.14665564354025" lon="8.657229468415885"><ele>579.0</ele><time>2026-05-02T08:35:35.998Z</time></trkpt><trkpt lat="40.14672113730367" lon="8.657020878871402"><ele>579.0</ele><time>2026-05-02T08:35:36.998Z</time></trkpt><trkpt lat="40.14678744190851" lon="8.656811227424841"><ele>579.0</ele><time>2026-05-02T08:35:37.998Z</time></trkpt><trkpt lat="40.14685721699349" lon="8.656600543603913"><ele>582.6666666666666</ele><time>2026-05-02T08:35:38.998Z</time></trkpt><trkpt lat="40.14695294619403" lon="8.656415634683237"><ele>586.3333333333333</ele><time>2026-05-02T08:35:39.998Z</time></trkpt><trkpt lat="40.14701631216804" lon="8.65621480933421"><ele>590.0</ele><time>2026-05-02T08:35:40.998Z</time></trkpt><trkpt lat="40.147054772835105" lon="8.656009193596626"><ele>594.0</ele><time>2026-05-02T08:35:41.998Z</time></trkpt><trkpt lat="40.147047988924264" lon="8.655772135322641"><ele>598.0</ele><time>2026-05-02T08:35:42.998Z</time></trkpt><trkpt lat="40.147068294605376" lon="8.655544249624514"><ele>602.0</ele><time>2026-05-02T08:35:43.998Z</time></trkpt><trkpt lat="40.14711404618541" lon="8.655346625237751"><ele>601.8000000000001</ele><time>2026-05-02T08:35:44.998Z</time></trkpt><trkpt lat="40.14716960040759" lon="8.655205977849064"><ele>601.6</ele><time>2026-05-02T08:35:45.998Z</time></trkpt><trkpt lat="40.14722328622307" lon="8.65513566021066"><ele>601.4000000000001</ele><time>2026-05-02T08:35:46.998Z</time></trkpt><trkpt lat="40.14729965504413" lon="8.6551140163637"><ele>601.2</ele><time>2026-05-02T08:35:47.998Z</time></trkpt><trkpt lat="40.14738885061003" lon="8.655167160122657"><ele>601.0</ele><time>2026-05-02T08:35:48.998Z</time></trkpt><trkpt lat="40.14746064395234" lon="8.655294022680847"><ele>600.6666666666667</ele><time>2026-05-02T08:35:49.998Z</time></trkpt><trkpt lat="40.14745243160697" lon="8.655493624371084"><ele>600.3333333333334</ele><time>2026-05-02T08:35:50.998Z</time></trkpt><trkpt lat="40.14748777918221" lon="8.65569226164378"><ele>600.0</ele><time>2026-05-02T08:35:51.998Z</time></trkpt><trkpt lat="40.14751208696596" lon="8.65589151782691"><ele>600.0</ele><time>2026-05-02T08:35:52.998Z</time></trkpt><trkpt lat="40.147561544797895" lon="8.656105816666539"><ele>600.0</ele><time>2026-05-02T08:35:53.998Z</time></trkpt><trkpt lat="40.14761262019288" lon="8.656325938599425"><ele>600.0</ele><time>2026-05-02T08:35:54.998Z</time></trkpt><trkpt lat="40.14765118445467" lon="8.656551240967572"><ele>599.3333333333334</ele><time>2026-05-02T08:35:55.998Z</time></trkpt><trkpt lat="40.147680801416804" lon="8.656793644814995"><ele>598.6666666666667</ele><time>2026-05-02T08:35:56.998Z</time></trkpt><trkpt lat="40.1476980025401" lon="8.657048084033013"><ele>598.0</ele><time>2026-05-02T08:35:58Z</time></trkpt><trkpt lat="40.14770322148324" lon="8.657299261108784"><ele>598.0</ele><time>2026-05-02T08:35:59Z</time></trkpt><trkpt lat="40.147697980992966" lon="8.657549727956113"><ele>598.0</ele><time>2026-05-02T08:36:00Z</time></trkpt><trkpt lat="40.147689352241635" lon="8.65780818717453"><ele>598.0</ele><time>2026-05-02T08:36:01Z</time></trkpt><trkpt lat="40.14768529192672" lon="8.658060290240803"><ele>599.3333333333334</ele><time>2026-05-02T08:36:02Z</time></trkpt><trkpt lat="40.14768249924028" lon="8.65829545709662"><ele>600.6666666666666</ele><time>2026-05-02T08:36:03Z</time></trkpt><trkpt lat="40.14768011466129" lon="8.658513844653179"><ele>602.0</ele><time>2026-05-02T08:36:04Z</time></trkpt><trkpt lat="40.14769171982379" lon="8.658708624922243"><ele>602.75</ele><time>2026-05-02T08:36:05Z</time></trkpt><trkpt lat="40.14773780844555" lon="8.658854923328212"><ele>603.5</ele><time>2026-05-02T08:36:06Z</time></trkpt><trkpt lat="40.14784012219956" lon="8.658961885863684"><ele>604.25</ele><time>2026-05-02T08:36:07Z</time></trkpt><trkpt lat="40.14798064841158" lon="8.659027805481202"><ele>605.0</ele><time>2026-05-02T08:36:08Z</time></trkpt><trkpt lat="40.14814101853338" lon="8.659054061903234"><ele>607.75</ele><time>2026-05-02T08:36:09Z</time></trkpt><trkpt lat="40.14829193897687" lon="8.659084720237248"><ele>610.5</ele><time>2026-05-02T08:36:10Z</time></trkpt><trkpt lat="40.14838615595237" lon="8.659217101347947"><ele>613.25</ele><time>2026-05-02T08:36:11Z</time></trkpt><trkpt lat="40.14842038529793" lon="8.659387101343324"><ele>616.0</ele><time>2026-05-02T08:36:12Z</time></trkpt><trkpt lat="40.14841628880062" lon="8.659584386902363"><ele>616.0</ele><time>2026-05-02T08:36:13Z</time></trkpt><trkpt lat="40.14841602515568" lon="8.659808481048627"><ele>616.0</ele><time>2026-05-02T08:36:14Z</time></trkpt><trkpt lat="40.14842384871603" lon="8.660024843498105"><ele>616.0</ele><time>2026-05-02T08:36:15Z</time></trkpt><trkpt lat="40.148489167068" lon="8.660237447415206"><ele>614.6666666666667</ele><time>2026-05-02T08:36:16Z</time></trkpt><trkpt lat="40.14857021135887" lon="8.660447579004824"><ele>613.3333333333334</ele><time>2026-05-02T08:36:17Z</time></trkpt><trkpt lat="40.14866739430485" lon="8.66065184802448"><ele>612.0</ele><time>2026-05-02T08:36:18Z</time></trkpt><trkpt lat="40.14878481492718" lon="8.660840963839908"><ele>612.0</ele><time>2026-05-02T08:36:19Z</time></trkpt><trkpt lat="40.14892055387197" lon="8.6610139207512"><ele>612.0</ele><time>2026-05-02T08:36:20Z</time></trkpt><trkpt lat="40.14906871573925" lon="8.661169472306732"><ele>612.0</ele><time>2026-05-02T08:36:21Z</time></trkpt><trkpt lat="40.14922587105981" lon="8.661311194382682"><ele>613.6666666666666</ele><time>2026-05-02T08:36:22Z</time></trkpt><trkpt lat="40.14938775614544" lon="8.66143181122743"><ele>615.3333333333333</ele><time>2026-05-02T08:36:23Z</time></trkpt><trkpt lat="40.149558172767556" lon="8.661518560982383"><ele>617.0</ele><time>2026-05-02T08:36:24Z</time></trkpt><trkpt lat="40.149742085176705" lon="8.66156949998701"><ele>620.6666666666666</ele><time>2026-05-02T08:36:25Z</time></trkpt><trkpt lat="40.14993330995738" lon="8.66159438783103"><ele>624.3333333333334</ele><time>2026-05-02T08:36:26Z</time></trkpt><trkpt lat="40.150123245592994" lon="8.661608779234358"><ele>628.0</ele><time>2026-05-02T08:36:26.999Z</time></trkpt><trkpt lat="40.1503075850702" lon="8.661603284640137"><ele>628.0</ele><time>2026-05-02T08:36:27.999Z</time></trkpt><trkpt lat="40.15048882954014" lon="8.661545109727113"><ele>628.0</ele><time>2026-05-02T08:36:28.999Z</time></trkpt><trkpt lat="40.15066560701819" lon="8.661446662800206"><ele>628.0</ele><time>2026-05-02T08:36:29.999Z</time></trkpt><trkpt lat="40.150837433484305" lon="8.661327974413766"><ele>629.6666666666667</ele><time>2026-05-02T08:36:30.999Z</time></trkpt><trkpt lat="40.15100573123396" lon="8.66119869171381"><ele>631.3333333333334</ele><time>2026-05-02T08:36:31.999Z</time></trkpt><trkpt lat="40.15117496698824" lon="8.661072166603146"><ele>633.0</ele><time>2026-05-02T08:36:32.999Z</time></trkpt><trkpt lat="40.15133576276708" lon="8.66092673449579"><ele>635.6666666666666</ele><time>2026-05-02T08:36:33.999Z</time></trkpt><trkpt lat="40.15148190579351" lon="8.660751017380177"><ele>638.3333333333333</ele><time>2026-05-02T08:36:34.999Z</time></trkpt><trkpt lat="40.15163462228212" lon="8.660598884293464"><ele>641.0</ele><time>2026-05-02T08:36:35.999Z</time></trkpt><trkpt lat="40.15180782733316" lon="8.66050265033297"><ele>641.0</ele><time>2026-05-02T08:36:36.999Z</time></trkpt><trkpt lat="40.15199445727515" lon="8.660422719463481"><ele>641.0</ele><time>2026-05-02T08:36:37.999Z</time></trkpt><trkpt lat="40.15218084814346" lon="8.660335652346175"><ele>641.0</ele><time>2026-05-02T08:36:38.999Z</time></trkpt><trkpt lat="40.15237786838991" lon="8.660327428225168"><ele>641.3333333333333</ele><time>2026-05-02T08:36:39.999Z</time></trkpt><trkpt lat="40.15257111099807" lon="8.660344653728298"><ele>641.6666666666666</ele><time>2026-05-02T08:36:40.999Z</time></trkpt><trkpt lat="40.15275183125567" lon="8.660421771516146"><ele>642.0</ele><time>2026-05-02T08:36:41.999Z</time></trkpt><trkpt lat="40.152907793374155" lon="8.66053550914077"><ele>642.0</ele><time>2026-05-02T08:36:42.999Z</time></trkpt><trkpt lat="40.153067048766516" lon="8.660647245715651"><ele>642.0</ele><time>2026-05-02T08:36:43.999Z</time></trkpt><trkpt lat="40.153202105715636" lon="8.660748695892504"><ele>642.0</ele><time>2026-05-02T08:36:44.999Z</time></trkpt><trkpt lat="40.153347783263754" lon="8.660761331336591"><ele>644.3333333333334</ele><time>2026-05-02T08:36:45.999Z</time></trkpt><trkpt lat="40.153493787536156" lon="8.660699125514482"><ele>646.6666666666667</ele><time>2026-05-02T08:36:46.999Z</time></trkpt><trkpt lat="40.15362510775602" lon="8.660566338255478"><ele>649.0</ele><time>2026-05-02T08:36:47.999Z</time></trkpt><trkpt lat="40.15373283067998" lon="8.660382505374834"><ele>652.6666666666667</ele><time>2026-05-02T08:36:48.999Z</time></trkpt><trkpt lat="40.15382640796632" lon="8.66018469060007"><ele>656.3333333333334</ele><time>2026-05-02T08:36:49.999Z</time></trkpt><trkpt lat="40.153906785547846" lon="8.65998491756767"><ele>660.0</ele><time>2026-05-02T08:36:50.999Z</time></trkpt><trkpt lat="40.15397447238543" lon="8.659763542999606"><ele>660.0</ele><time>2026-05-02T08:36:51.999Z</time></trkpt><trkpt lat="40.15403483371848" lon="8.659533861234038"><ele>660.0</ele><time>2026-05-02T08:36:52.999Z</time></trkpt><trkpt lat="40.15411137877757" lon="8.659312474658122"><ele>660.0</ele><time>2026-05-02T08:36:53.999Z</time></trkpt><trkpt lat="40.15420237052401" lon="8.659101791004467"><ele>661.0</ele><time>2026-05-02T08:36:54.999Z</time></trkpt><trkpt lat="40.154321403607725" lon="8.658926208003248"><ele>662.0</ele><time>2026-05-02T08:36:55.999Z</time></trkpt><trkpt lat="40.154443659969495" lon="8.658738240460043"><ele>663.0</ele><time>2026-05-02T08:36:56.999Z</time></trkpt><trkpt lat="40.15457238384314" lon="8.658544752131482"><ele>663.6666666666666</ele><time>2026-05-02T08:36:57.999Z</time></trkpt><trkpt lat="40.154734680515226" lon="8.658398396222704"><ele>664.3333333333333</ele><time>2026-05-02T08:36:58.999Z</time></trkpt><trkpt lat="40.15488220127777" lon="8.658232810448224"><ele>665.0</ele><time>2026-05-02T08:36:59.999Z</time></trkpt><trkpt lat="40.15504382112699" lon="8.658096256763775"><ele>665.0</ele><time>2026-05-02T08:37:00.999Z</time></trkpt><trkpt lat="40.15520029517469" lon="8.657947003725596"><ele>665.0</ele><time>2026-05-02T08:37:01.999Z</time></trkpt><trkpt lat="40.15535273296338" lon="8.657789873324889"><ele>665.0</ele><time>2026-05-02T08:37:02.999Z</time></trkpt><trkpt lat="40.15550575547952" lon="8.65762796324434"><ele>666.6666666666666</ele><time>2026-05-02T08:37:03.999Z</time></trkpt><trkpt lat="40.1556592830937" lon="8.657466285615588"><ele>668.3333333333334</ele><time>2026-05-02T08:37:04.999Z</time></trkpt><trkpt lat="40.15580581397546" lon="8.657288814434763"><ele>670.0</ele><time>2026-05-02T08:37:05.999Z</time></trkpt><trkpt lat="40.155945438529415" lon="8.657100551424165"><ele>677.3333333333334</ele><time>2026-05-02T08:37:06.999Z</time></trkpt><trkpt lat="40.15610663780605" lon="8.656949427572057"><ele>684.6666666666666</ele><time>2026-05-02T08:37:07.999Z</time></trkpt><trkpt lat="40.15626013224618" lon="8.656776890129487"><ele>692.0</ele><time>2026-05-02T08:37:08.999Z</time></trkpt><trkpt lat="40.156426476755385" lon="8.656628782941958"><ele>688.3333333333333</ele><time>2026-05-02T08:37:09.999Z</time></trkpt><trkpt lat="40.156593748932536" lon="8.656480039600037"><ele>684.6666666666666</ele><time>2026-05-02T08:37:10.999Z</time></trkpt><trkpt lat="40.1567794893857" lon="8.65637722763624"><ele>681.0</ele><time>2026-05-02T08:37:11.999Z</time></trkpt><trkpt lat="40.15694756368007" lon="8.656234728457168"><ele>684.6666666666666</ele><time>2026-05-02T08:37:12.999Z</time></trkpt><trkpt lat="40.1571173752868" lon="8.656096757706957"><ele>688.3333333333333</ele><time>2026-05-02T08:37:13.999Z</time></trkpt><trkpt lat="40.157277075895415" lon="8.655940404258558"><ele>692.0</ele><time>2026-05-02T08:37:14.999Z</time></trkpt><trkpt lat="40.15742902969786" lon="8.655768366774948"><ele>692.0</ele><time>2026-05-02T08:37:15.999Z</time></trkpt><trkpt lat="40.15756775025424" lon="8.655591048782544"><ele>692.0</ele><time>2026-05-02T08:37:16.999Z</time></trkpt><trkpt lat="40.157688136473915" lon="8.655428538412984"><ele>692.0</ele><time>2026-05-02T08:37:17.999Z</time></trkpt><trkpt lat="40.15781165136115" lon="8.655314549410427"><ele>692.0</ele><time>2026-05-02T08:37:18.999Z</time></trkpt><trkpt lat="40.15790248218287" lon="8.655212497235208"><ele>692.0</ele><time>2026-05-02T08:37:19.999Z</time></trkpt><trkpt lat="40.15800236692175" lon="8.65523409227204"><ele>692.0</ele><time>2026-05-02T08:37:20.999Z</time></trkpt><trkpt lat="40.15807271961708" lon="8.655364553677783"><ele>692.0</ele><time>2026-05-02T08:37:21.999Z</time></trkpt><trkpt lat="40.15812714341047" lon="8.65551056419517"><ele>692.0</ele><time>2026-05-02T08:37:22.999Z</time></trkpt><trkpt lat="40.158147449163614" lon="8.655685574916173"><ele>692.0</ele><time>2026-05-02T08:37:23.999Z</time></trkpt><trkpt lat="40.15810774686347" lon="8.65588338529114"><ele>692.0</ele><time>2026-05-02T08:37:24.999Z</time></trkpt><trkpt lat="40.15807746737352" lon="8.65609794039027"><ele>689.3333333333333</ele><time>2026-05-02T08:37:25.999Z</time></trkpt><trkpt lat="40.1580477376266" lon="8.656294074452118"><ele>686.6666666666666</ele><time>2026-05-02T08:37:26.999Z</time></trkpt><trkpt lat="40.15802608663919" lon="8.656518515382425"><ele>684.0</ele><time>2026-05-02T08:37:27.999Z</time></trkpt><trkpt lat="40.15798412940467" lon="8.656759296162981"><ele>684.3333333333334</ele><time>2026-05-02T08:37:28.999Z</time></trkpt><trkpt lat="40.15795886870287" lon="8.657018048511452"><ele>684.6666666666667</ele><time>2026-05-02T08:37:29.999Z</time></trkpt><trkpt lat="40.15791899343538" lon="8.657276841814129"><ele>685.0</ele><time>2026-05-02T08:37:30.999Z</time></trkpt><trkpt lat="40.15788156738517" lon="8.657536533063988"><ele>686.6666666666667</ele><time>2026-05-02T08:37:31.998Z</time></trkpt><trkpt lat="40.15784810206455" lon="8.65780535426271"><ele>688.3333333333334</ele><time>2026-05-02T08:37:32.998Z</time></trkpt><trkpt lat="40.15781149493738" lon="8.658080584572021"><ele>690.0</ele><time>2026-05-02T08:37:33.998Z</time></trkpt><trkpt lat="40.157771459606735" lon="8.658359787061622"><ele>692.3333333333334</ele><time>2026-05-02T08:37:34.998Z</time></trkpt><trkpt lat="40.15772914875841" lon="8.658633535519058"><ele>694.6666666666667</ele><time>2026-05-02T08:37:35.998Z</time></trkpt><trkpt lat="40.15769475716893" lon="8.658879447115115"><ele>697.0</ele><time>2026-05-02T08:37:36.998Z</time></trkpt><trkpt lat="40.15766360453576" lon="8.659101034261058"><ele>697.0</ele><time>2026-05-02T08:37:37.998Z</time></trkpt><trkpt lat="40.157658960732434" lon="8.659318160524021"><ele>697.0</ele><time>2026-05-02T08:37:38.998Z</time></trkpt><trkpt lat="40.157702336650836" lon="8.659526445225348"><ele>697.0</ele><time>2026-05-02T08:37:39.998Z</time></trkpt><trkpt lat="40.15779391167987" lon="8.659715919912708"><ele>695.6666666666667</ele><time>2026-05-02T08:37:40.998Z</time></trkpt><trkpt lat="40.15790665929541" lon="8.659879122469885"><ele>694.3333333333334</ele><time>2026-05-02T08:37:41.998Z</time></trkpt><trkpt lat="40.158047684253134" lon="8.660011430388806"><ele>693.0</ele><time>2026-05-02T08:37:42.998Z</time></trkpt><trkpt lat="40.158198792962565" lon="8.660130386447097"><ele>696.3333333333334</ele><time>2026-05-02T08:37:43.998Z</time></trkpt><trkpt lat="40.15834924541214" lon="8.66026064248532"><ele>699.6666666666667</ele><time>2026-05-02T08:37:44.998Z</time></trkpt><trkpt lat="40.158498739179954" lon="8.66039086279017"><ele>703.0</ele><time>2026-05-02T08:37:45.998Z</time></trkpt><trkpt lat="40.158643404170846" lon="8.660488744600459"><ele>703.0</ele><time>2026-05-02T08:37:46.998Z</time></trkpt><trkpt lat="40.15879163859046" lon="8.660528736311534"><ele>703.0</ele><time>2026-05-02T08:37:47.998Z</time></trkpt><trkpt lat="40.15894661602762" lon="8.660495567391862"><ele>703.0</ele><time>2026-05-02T08:37:48.998Z</time></trkpt><trkpt lat="40.1590930779563" lon="8.66040087015977"><ele>705.0</ele><time>2026-05-02T08:37:49.998Z</time></trkpt><trkpt lat="40.15923755161813" lon="8.660283115273273"><ele>707.0</ele><time>2026-05-02T08:37:50.998Z</time></trkpt><trkpt lat="40.15938240401812" lon="8.660160784233986"><ele>709.0</ele><time>2026-05-02T08:37:51.998Z</time></trkpt><trkpt lat="40.159524907362865" lon="8.66003137036061"><ele>711.0</ele><time>2026-05-02T08:37:52.998Z</time></trkpt><trkpt lat="40.159670659041126" lon="8.659899102912291"><ele>713.0</ele><time>2026-05-02T08:37:53.998Z</time></trkpt><trkpt lat="40.159835814930844" lon="8.65981473556094"><ele>715.0</ele><time>2026-05-02T08:37:54.998Z</time></trkpt><trkpt lat="40.159992014994785" lon="8.65969953606147"><ele>715.0</ele><time>2026-05-02T08:37:55.998Z</time></trkpt><trkpt lat="40.16015228953535" lon="8.659615026022236"><ele>715.0</ele><time>2026-05-02T08:37:56.998Z</time></trkpt><trkpt lat="40.1603193285241" lon="8.659584798025518"><ele>715.0</ele><time>2026-05-02T08:37:57.998Z</time></trkpt><trkpt lat="40.16048370461766" lon="8.659588799312731"><ele>715.0</ele><time>2026-05-02T08:37:58.998Z</time></trkpt><trkpt lat="40.16064579035337" lon="8.659642448503728"><ele>715.0</ele><time>2026-05-02T08:37:59.998Z</time></trkpt><trkpt lat="40.16079875390526" lon="8.659738817133237"><ele>715.0</ele><time>2026-05-02T08:38:00.998Z</time></trkpt><trkpt lat="40.160927977175064" lon="8.65988026047264"><ele>715.75</ele><time>2026-05-02T08:38:01.998Z</time></trkpt><trkpt lat="40.161031093188406" lon="8.660027206374654"><ele>716.5</ele><time>2026-05-02T08:38:02.998Z</time></trkpt><trkpt lat="40.16111298921162" lon="8.660178023477595"><ele>717.25</ele><time>2026-05-02T08:38:04Z</time></trkpt><trkpt lat="40.16119350772994" lon="8.6603174692594"><ele>718.0</ele><time>2026-05-02T08:38:05Z</time></trkpt><trkpt lat="40.16127268857548" lon="8.660457954129733"><ele>718.0</ele><time>2026-05-02T08:38:06Z</time></trkpt><trkpt lat="40.16137510905174" lon="8.66057935549031"><ele>718.0</ele><time>2026-05-02T08:38:07Z</time></trkpt><trkpt lat="40.1614909322616" lon="8.660682449162419"><ele>718.0</ele><time>2026-05-02T08:38:08Z</time></trkpt><trkpt lat="40.16160621983363" lon="8.660774968212317"><ele>718.0</ele><time>2026-05-02T08:38:09Z</time></trkpt><trkpt lat="40.16172073716295" lon="8.66086482733227"><ele>718.25</ele><time>2026-05-02T08:38:10Z</time></trkpt><trkpt lat="40.16183532092962" lon="8.660948014204871"><ele>718.5</ele><time>2026-05-02T08:38:11Z</time></trkpt><trkpt lat="40.16195092949334" lon="8.661031641549854"><ele>718.75</ele><time>2026-05-02T08:38:12Z</time></trkpt><trkpt lat="40.16206248420406" lon="8.661112479407599"><ele>719.0</ele><time>2026-05-02T08:38:13Z</time></trkpt><trkpt lat="40.16218011467807" lon="8.661173611412309"><ele>719.0</ele><time>2026-05-02T08:38:14Z</time></trkpt><trkpt lat="40.1623089280768" lon="8.661190465510668"><ele>719.0</ele><time>2026-05-02T08:38:15Z</time></trkpt><trkpt lat="40.16244066425283" lon="8.661149804900932"><ele>719.0</ele><time>2026-05-02T08:38:16Z</time></trkpt><trkpt lat="40.16256182322914" lon="8.661076593417125"><ele>719.0</ele><time>2026-05-02T08:38:17Z</time></trkpt><trkpt lat="40.162677498352195" lon="8.660989736208206"><ele>723.25</ele><time>2026-05-02T08:38:18Z</time></trkpt><trkpt lat="40.16278438796591" lon="8.660926036401193"><ele>727.5</ele><time>2026-05-02T08:38:19Z</time></trkpt><trkpt lat="40.162897681095615" lon="8.66083335341063"><ele>731.75</ele><time>2026-05-02T08:38:20Z</time></trkpt><trkpt lat="40.16297437202785" lon="8.660705281087656"><ele>736.0</ele><time>2026-05-02T08:38:21Z</time></trkpt><trkpt lat="40.1630117729849" lon="8.660541535026923"><ele>736.0</ele><time>2026-05-02T08:38:22Z</time></trkpt><trkpt lat="40.16306683587546" lon="8.660401898694484"><ele>736.0</ele><time>2026-05-02T08:38:23Z</time></trkpt><trkpt lat="40.16313857738658" lon="8.660280294855998"><ele>736.0</ele><time>2026-05-02T08:38:24Z</time></trkpt><trkpt lat="40.16320864658034" lon="8.660145239186402"><ele>736.0</ele><time>2026-05-02T08:38:25Z</time></trkpt><trkpt lat="40.16329251967045" lon="8.660023785429752"><ele>736.0</ele><time>2026-05-02T08:38:26Z</time></trkpt><trkpt lat="40.163356711478826" lon="8.659891924080398"><ele>736.0</ele><time>2026-05-02T08:38:27Z</time></trkpt><trkpt lat="40.163383174334776" lon="8.659736039657687"><ele>736.0</ele><time>2026-05-02T08:38:28Z</time></trkpt><trkpt lat="40.163367764119336" lon="8.65957362958614"><ele>736.0</ele><time>2026-05-02T08:38:29Z</time></trkpt><trkpt lat="40.16330872191993" lon="8.659422891743018"><ele>736.0</ele><time>2026-05-02T08:38:30Z</time></trkpt><trkpt lat="40.16325515307421" lon="8.659242839927847"><ele>736.0</ele><time>2026-05-02T08:38:30.999Z</time></trkpt><trkpt lat="40.163195371023946" lon="8.65904559316493"><ele>736.0</ele><time>2026-05-02T08:38:31.999Z</time></trkpt><trkpt lat="40.16313342753621" lon="8.658841214956281"><ele>739.6666666666667</ele><time>2026-05-02T08:38:32.999Z</time></trkpt><trkpt lat="40.16306546656488" lon="8.658632945741454"><ele>743.3333333333334</ele><time>2026-05-02T08:38:33.999Z</time></trkpt><trkpt lat="40.16300671260134" lon="8.6584180642901"><ele>747.0</ele><time>2026-05-02T08:38:34.999Z</time></trkpt><trkpt lat="40.16294713399608" lon="8.658203988708228"><ele>747.0</ele><time>2026-05-02T08:38:35.999Z</time></trkpt><trkpt lat="40.162880009994176" lon="8.658000210250037"><ele>747.0</ele><time>2026-05-02T08:38:36.999Z</time></trkpt><trkpt lat="40.162783127410584" lon="8.657826428438412"><ele>747.0</ele><time>2026-05-02T08:38:37.999Z</time></trkpt><trkpt lat="40.162630780104045" lon="8.657714553722544"><ele>746.3333333333334</ele><time>2026-05-02T08:38:38.999Z</time></trkpt><trkpt lat="40.16244570167136" lon="8.657653491469226"><ele>745.6666666666667</ele><time>2026-05-02T08:38:39.999Z</time></trkpt><trkpt lat="40.16227038777265" lon="8.6575669264616"><ele>745.0</ele><time>2026-05-02T08:38:40.999Z</time></trkpt><trkpt lat="40.16211602686498" lon="8.657475848127827"><ele>745.0</ele><time>2026-05-02T08:38:41.999Z</time></trkpt><trkpt lat="40.1620070485493" lon="8.65734811236489"><ele>745.0</ele><time>2026-05-02T08:38:42.999Z</time></trkpt><trkpt lat="40.16195476376276" lon="8.657189589291306"><ele>745.0</ele><time>2026-05-02T08:38:43.999Z</time></trkpt><trkpt lat="40.161931557402724" lon="8.657028095420545"><ele>745.0</ele><time>2026-05-02T08:38:44.999Z</time></trkpt><trkpt lat="40.161941388554105" lon="8.656867365583652"><ele>745.5</ele><time>2026-05-02T08:38:45.999Z</time></trkpt><trkpt lat="40.161975516905265" lon="8.656710508858906"><ele>746.0</ele><time>2026-05-02T08:38:46.999Z</time></trkpt><trkpt lat="40.16200972642712" lon="8.65652725563034"><ele>746.5</ele><time>2026-05-02T08:38:47.999Z</time></trkpt><trkpt lat="40.162033677916554" lon="8.656328643839005"><ele>747.0</ele><time>2026-05-02T08:38:48.999Z</time></trkpt><trkpt lat="40.16207679666229" lon="8.65612449600586"><ele>748.6666666666666</ele><time>2026-05-02T08:38:49.999Z</time></trkpt><trkpt lat="40.16210915089697" lon="8.655917034163345"><ele>750.3333333333333</ele><time>2026-05-02T08:38:50.999Z</time></trkpt><trkpt lat="40.16216659457736" lon="8.655708319979846"><ele>752.0</ele><time>2026-05-02T08:38:51.999Z</time></trkpt><trkpt lat="40.16222616743952" lon="8.65550775882685"><ele>752.0</ele><time>2026-05-02T08:38:52.999Z</time></trkpt><trkpt lat="40.162321383231074" lon="8.655343448003665"><ele>752.0</ele><time>2026-05-02T08:38:53.999Z</time></trkpt><trkpt lat="40.16245321550432" lon="8.655215904287274"><ele>752.0</ele><time>2026-05-02T08:38:54.999Z</time></trkpt><trkpt lat="40.162612746375196" lon="8.655147028250976"><ele>754.0</ele><time>2026-05-02T08:38:55.999Z</time></trkpt><trkpt lat="40.162787139041384" lon="8.655122835744843"><ele>756.0</ele><time>2026-05-02T08:38:56.999Z</time></trkpt><trkpt lat="40.162967658944616" lon="8.655113253075559"><ele>758.0</ele><time>2026-05-02T08:38:57.999Z</time></trkpt><trkpt lat="40.163146789891805" lon="8.655144434563535"><ele>756.3333333333333</ele><time>2026-05-02T08:38:58.999Z</time></trkpt><trkpt lat="40.16332071406043" lon="8.655223092666594"><ele>754.6666666666666</ele><time>2026-05-02T08:38:59.999Z</time></trkpt><trkpt lat="40.163498066017" lon="8.655297997998035"><ele>753.0</ele><time>2026-05-02T08:39:00.999Z</time></trkpt><trkpt lat="40.16367932872345" lon="8.655355070731327"><ele>753.0</ele><time>2026-05-02T08:39:01.999Z</time></trkpt><trkpt lat="40.163856437012925" lon="8.65542338944644"><ele>753.0</ele><time>2026-05-02T08:39:02.999Z</time></trkpt><trkpt lat="40.16403895740169" lon="8.655460706971242"><ele>753.0</ele><time>2026-05-02T08:39:03.999Z</time></trkpt><trkpt lat="40.16422451725796" lon="8.655476165231926"><ele>754.6666666666666</ele><time>2026-05-02T08:39:04.999Z</time></trkpt><trkpt lat="40.16440667119294" lon="8.655491550361102"><ele>756.3333333333333</ele><time>2026-05-02T08:39:05.999Z</time></trkpt><trkpt lat="40.16458871402971" lon="8.655521965747804"><ele>758.0</ele><time>2026-05-02T08:39:06.999Z</time></trkpt><trkpt lat="40.164767149105366" lon="8.65555127810723"><ele>761.6666666666666</ele><time>2026-05-02T08:39:07.999Z</time></trkpt><trkpt lat="40.16493056850715" lon="8.655629541214491"><ele>765.3333333333333</ele><time>2026-05-02T08:39:08.999Z</time></trkpt><trkpt lat="40.16507921345037" lon="8.655749260682905"><ele>769.0</ele><time>2026-05-02T08:39:09.999Z</time></trkpt><trkpt lat="40.16523534805466" lon="8.655863722842001"><ele>769.0</ele><time>2026-05-02T08:39:10.999Z</time></trkpt><trkpt lat="40.16537476222814" lon="8.656011237916573"><ele>769.0</ele><time>2026-05-02T08:39:11.999Z</time></trkpt><trkpt lat="40.16547212272307" lon="8.656197037738995"><ele>769.0</ele><time>2026-05-02T08:39:12.999Z</time></trkpt><trkpt lat="40.16555037459138" lon="8.656397474472593"><ele>766.6666666666666</ele><time>2026-05-02T08:39:13.999Z</time></trkpt><trkpt lat="40.16561809874291" lon="8.656610365678926"><ele>764.3333333333333</ele><time>2026-05-02T08:39:14.999Z</time></trkpt><trkpt lat="40.165688646789356" lon="8.65680013336269"><ele>762.0</ele><time>2026-05-02T08:39:15.999Z</time></trkpt><trkpt lat="40.16576395297824" lon="8.656958251307353"><ele>762.0</ele><time>2026-05-02T08:39:16.999Z</time></trkpt><trkpt lat="40.16588043459804" lon="8.657050278526045"><ele>762.0</ele><time>2026-05-02T08:39:17.999Z</time></trkpt><trkpt lat="40.166012683373154" lon="8.657066482830507"><ele>762.0</ele><time>2026-05-02T08:39:18.999Z</time></trkpt><trkpt lat="40.166162561687564" lon="8.657014235740215"><ele>762.0</ele><time>2026-05-02T08:39:19.999Z</time></trkpt><trkpt lat="40.166313831403215" lon="8.656938733545266"><ele>767.3333333333333</ele><time>2026-05-02T08:39:20.999Z</time></trkpt><trkpt lat="40.16646623529562" lon="8.656881595669041"><ele>772.6666666666666</ele><time>2026-05-02T08:39:21.999Z</time></trkpt><trkpt lat="40.1666221047991" lon="8.656831411908101"><ele>778.0</ele><time>2026-05-02T08:39:22.999Z</time></trkpt><trkpt lat="40.16678724576734" lon="8.656824799784147"><ele>780.3333333333333</ele><time>2026-05-02T08:39:23.999Z</time></trkpt><trkpt lat="40.16695017955143" lon="8.656778370693512"><ele>782.6666666666667</ele><time>2026-05-02T08:39:24.999Z</time></trkpt><trkpt lat="40.1671163830516" lon="8.656757642082056"><ele>785.0</ele><time>2026-05-02T08:39:25.999Z</time></trkpt><trkpt lat="40.16728393704761" lon="8.65673318705644"><ele>786.0</ele><time>2026-05-02T08:39:26.999Z</time></trkpt><trkpt lat="40.167453190202096" lon="8.656722521693185"><ele>787.0</ele><time>2026-05-02T08:39:27.999Z</time></trkpt><trkpt lat="40.16762254720935" lon="8.656756513950315"><ele>788.0</ele><time>2026-05-02T08:39:28.999Z</time></trkpt><trkpt lat="40.16779550469476" lon="8.656763440760967"><ele>788.0</ele><time>2026-05-02T08:39:29.999Z</time></trkpt><trkpt lat="40.16796443086236" lon="8.656764258823927"><ele>788.0</ele><time>2026-05-02T08:39:30.999Z</time></trkpt><trkpt lat="40.168139978596045" lon="8.656723338922177"><ele>788.0</ele><time>2026-05-02T08:39:31.999Z</time></trkpt><trkpt lat="40.16831855911404" lon="8.656671589261938"><ele>788.3333333333334</ele><time>2026-05-02T08:39:32.999Z</time></trkpt><trkpt lat="40.16849829980025" lon="8.656603915850091"><ele>788.6666666666667</ele><time>2026-05-02T08:39:33.999Z</time></trkpt><trkpt lat="40.16866975206952" lon="8.656501150704395"><ele>789.0</ele><time>2026-05-02T08:39:34.998Z</time></trkpt><trkpt lat="40.168833109089235" lon="8.656380674902511"><ele>789.0</ele><time>2026-05-02T08:39:35.998Z</time></trkpt><trkpt lat="40.16899033679619" lon="8.656250315385233"><ele>789.0</ele><time>2026-05-02T08:39:36.998Z</time></trkpt><trkpt lat="40.169145757042834" lon="8.656117716141313"><ele>789.0</ele><time>2026-05-02T08:39:37.998Z</time></trkpt><trkpt lat="40.16929746437172" lon="8.655977735787607"><ele>793.3333333333333</ele><time>2026-05-02T08:39:38.998Z</time></trkpt><trkpt lat="40.16944238569675" lon="8.655825382954163"><ele>797.6666666666666</ele><time>2026-05-02T08:39:39.998Z</time></trkpt><trkpt lat="40.1695843134623" lon="8.65566655852978"><ele>802.0</ele><time>2026-05-02T08:39:40.998Z</time></trkpt><trkpt lat="40.169728759901986" lon="8.65551057986275"><ele>803.6666666666666</ele><time>2026-05-02T08:39:41.998Z</time></trkpt><trkpt lat="40.16987974859295" lon="8.655364839593057"><ele>805.3333333333333</ele><time>2026-05-02T08:39:42.998Z</time></trkpt><trkpt lat="40.17003643634374" lon="8.655231862779639"><ele>807.0</ele><time>2026-05-02T08:39:43.998Z</time></trkpt><trkpt lat="40.170202035391235" lon="8.655111530521975"><ele>807.0</ele><time>2026-05-02T08:39:44.998Z</time></trkpt><trkpt lat="40.170369705281914" lon="8.65500053248289"><ele>807.0</ele><time>2026-05-02T08:39:45.998Z</time></trkpt><trkpt lat="40.170540384469" lon="8.654896271038531"><ele>807.0</ele><time>2026-05-02T08:39:46.998Z</time></trkpt><trkpt lat="40.17072501120433" lon="8.654836525191893"><ele>804.6666666666667</ele><time>2026-05-02T08:39:47.998Z</time></trkpt><trkpt lat="40.170905456797016" lon="8.654749941046688"><ele>802.3333333333334</ele><time>2026-05-02T08:39:48.998Z</time></trkpt><trkpt lat="40.17108917825147" lon="8.654682837360998"><ele>800.0</ele><time>2026-05-02T08:39:49.998Z</time></trkpt><trkpt lat="40.17126271281375" lon="8.654576464513076"><ele>800.0</ele><time>2026-05-02T08:39:50.998Z</time></trkpt><trkpt lat="40.17144063778386" lon="8.654476821527775"><ele>800.0</ele><time>2026-05-02T08:39:51.998Z</time></trkpt><trkpt lat="40.171621912096015" lon="8.654395420523727"><ele>800.0</ele><time>2026-05-02T08:39:52.998Z</time></trkpt><trkpt lat="40.17180186966403" lon="8.654311508327371"><ele>804.6666666666667</ele><time>2026-05-02T08:39:53.998Z</time></trkpt><trkpt lat="40.17196753041129" lon="8.65418849766783"><ele>809.3333333333333</ele><time>2026-05-02T08:39:54.998Z</time></trkpt><trkpt lat="40.17210559883452" lon="8.65401836098071"><ele>814.0</ele><time>2026-05-02T08:39:55.998Z</time></trkpt><trkpt lat="40.17220814990055" lon="8.653805080910672"><ele>816.6666666666666</ele><time>2026-05-02T08:39:56.998Z</time></trkpt><trkpt lat="40.17227104583345" lon="8.653562104691698"><ele>819.3333333333333</ele><time>2026-05-02T08:39:57.998Z</time></trkpt><trkpt lat="40.17229442755637" lon="8.653311395884133"><ele>822.0</ele><time>2026-05-02T08:39:58.998Z</time></trkpt><trkpt lat="40.172278280289895" lon="8.653063699761349"><ele>822.0</ele><time>2026-05-02T08:39:59.998Z</time></trkpt><trkpt lat="40.17222855000434" lon="8.652820239866072"><ele>822.0</ele><time>2026-05-02T08:40:00.998Z</time></trkpt><trkpt lat="40.17216536744364" lon="8.652588407440742"><ele>822.0</ele><time>2026-05-02T08:40:01.998Z</time></trkpt><trkpt lat="40.17210091414867" lon="8.652359858471963"><ele>822.6666666666667</ele><time>2026-05-02T08:40:02.998Z</time></trkpt><trkpt lat="40.1720249342958" lon="8.652133266039034"><ele>823.3333333333334</ele><time>2026-05-02T08:40:03.998Z</time></trkpt><trkpt lat="40.17194328479967" lon="8.65190680018908"><ele>824.0</ele><time>2026-05-02T08:40:04.998Z</time></trkpt><trkpt lat="40.171869687912455" lon="8.651674649842612"><ele>824.0</ele><time>2026-05-02T08:40:05.998Z</time></trkpt><trkpt lat="40.171794933953024" lon="8.651438654532392"><ele>824.0</ele><time>2026-05-02T08:40:06.998Z</time></trkpt><trkpt lat="40.171714559345844" lon="8.65120263918757"><ele>824.0</ele><time>2026-05-02T08:40:07.998Z</time></trkpt><trkpt lat="40.1716339868052" lon="8.650954793565003"><ele>823.0</ele><time>2026-05-02T08:40:08.998Z</time></trkpt><trkpt lat="40.1715508224976" lon="8.650706646908485"><ele>822.0</ele><time>2026-05-02T08:40:10Z</time></trkpt><trkpt lat="40.171468788847285" lon="8.650458158537774"><ele>821.0</ele><time>2026-05-02T08:40:11Z</time></trkpt><trkpt lat="40.17138734609183" lon="8.650198105747053"><ele>822.6666666666667</ele><time>2026-05-02T08:40:12Z</time></trkpt><trkpt lat="40.17130876726485" lon="8.649948054932013"><ele>824.3333333333333</ele><time>2026-05-02T08:40:13Z</time></trkpt><trkpt lat="40.171230790112375" lon="8.649697159255766"><ele>826.0</ele><time>2026-05-02T08:40:14Z</time></trkpt><trkpt lat="40.17115163152487" lon="8.649450454962226"><ele>826.0</ele><time>2026-05-02T08:40:15Z</time></trkpt><trkpt lat="40.17106629667589" lon="8.649210727786668"><ele>826.0</ele><time>2026-05-02T08:40:16Z</time></trkpt><trkpt lat="40.17098787267478" lon="8.64896961875999"><ele>826.0</ele><time>2026-05-02T08:40:17Z</time></trkpt><trkpt lat="40.170912574272556" lon="8.648724346642688"><ele>827.0</ele><time>2026-05-02T08:40:18Z</time></trkpt><trkpt lat="40.17084948548784" lon="8.648485851183258"><ele>828.0</ele><time>2026-05-02T08:40:19Z</time></trkpt><trkpt lat="40.17079324251312" lon="8.648241997589881"><ele>829.0</ele><time>2026-05-02T08:40:20Z</time></trkpt><trkpt lat="40.17075883376638" lon="8.64798747838945"><ele>829.0</ele><time>2026-05-02T08:40:21Z</time></trkpt><trkpt lat="40.17073440351631" lon="8.647735450225762"><ele>829.0</ele><time>2026-05-02T08:40:22Z</time></trkpt><trkpt lat="40.170705873412544" lon="8.647479046954022"><ele>829.0</ele><time>2026-05-02T08:40:23Z</time></trkpt><trkpt lat="40.17067229441653" lon="8.647224580372727"><ele>832.0</ele><time>2026-05-02T08:40:24Z</time></trkpt><trkpt lat="40.170646087815804" lon="8.646971451851277"><ele>835.0</ele><time>2026-05-02T08:40:25Z</time></trkpt><trkpt lat="40.17062863881327" lon="8.64671625742387"><ele>838.0</ele><time>2026-05-02T08:40:26Z</time></trkpt><trkpt lat="40.170630628455214" lon="8.646464052138116"><ele>838.0</ele><time>2026-05-02T08:40:27Z</time></trkpt><trkpt lat="40.17066821564104" lon="8.646217262733941"><ele>838.0</ele><time>2026-05-02T08:40:28Z</time></trkpt><trkpt lat="40.17069450350677" lon="8.6459639105743"><ele>838.0</ele><time>2026-05-02T08:40:29Z</time></trkpt><trkpt lat="40.17075413313349" lon="8.645720428745834"><ele>838.3333333333333</ele><time>2026-05-02T08:40:30Z</time></trkpt><trkpt lat="40.17079989805314" lon="8.645471340391358"><ele>838.6666666666667</ele><time>2026-05-02T08:40:31Z</time></trkpt><trkpt lat="40.170844567707626" lon="8.64523195763432"><ele>839.0</ele><time>2026-05-02T08:40:32Z</time></trkpt><trkpt lat="40.17088226786662" lon="8.645014512299733"><ele>839.0</ele><time>2026-05-02T08:40:33Z</time></trkpt><trkpt lat="40.17089622380927" lon="8.644793572116955"><ele>839.0</ele><time>2026-05-02T08:40:33.999Z</time></trkpt><trkpt lat="40.17088957430686" lon="8.644572492031466"><ele>839.0</ele><time>2026-05-02T08:40:34.999Z</time></trkpt><trkpt lat="40.17087391210853" lon="8.644373294409126"><ele>839.8000000000001</ele><time>2026-05-02T08:40:35.999Z</time></trkpt><trkpt lat="40.17085581203134" lon="8.644200112294094"><ele>840.6</ele><time>2026-05-02T08:40:36.999Z</time></trkpt><trkpt lat="40.170849488065265" lon="8.644051412641995"><ele>841.4</ele><time>2026-05-02T08:40:37.999Z</time></trkpt><trkpt lat="40.170847108212044" lon="8.643948992893735"><ele>842.2</ele><time>2026-05-02T08:40:38.999Z</time></trkpt><trkpt lat="40.17073080069063" lon="8.643909014359137"><ele>843.0</ele><time>2026-05-02T08:40:41.999Z</time></trkpt><trkpt lat="40.170665698575526" lon="8.643967120985797"><ele>844.4</ele><time>2026-05-02T08:40:42.999Z</time></trkpt><trkpt lat="40.170578212089296" lon="8.644015628435637"><ele>845.8</ele><time>2026-05-02T08:40:43.999Z</time></trkpt><trkpt lat="40.170487007755" lon="8.644081320285423"><ele>847.2</ele><time>2026-05-02T08:40:44.999Z</time></trkpt><trkpt lat="40.17038248644997" lon="8.64413507609203"><ele>848.6</ele><time>2026-05-02T08:40:45.999Z</time></trkpt><trkpt lat="40.17027166664291" lon="8.644168645100788"><ele>850.0</ele><time>2026-05-02T08:40:46.999Z</time></trkpt><trkpt lat="40.17015401211191" lon="8.644186300227105"><ele>850.0</ele><time>2026-05-02T08:40:47.999Z</time></trkpt><trkpt lat="40.17003125326402" lon="8.644198155872292"><ele>850.0</ele><time>2026-05-02T08:40:48.999Z</time></trkpt><trkpt lat="40.16991105661687" lon="8.644207610396613"><ele>850.0</ele><time>2026-05-02T08:40:49.999Z</time></trkpt><trkpt lat="40.1697791821773" lon="8.644215296280718"><ele>850.0</ele><time>2026-05-02T08:40:50.999Z</time></trkpt><trkpt lat="40.16964652817752" lon="8.64422106430843"><ele>852.0</ele><time>2026-05-02T08:40:51.999Z</time></trkpt><trkpt lat="40.169510241122495" lon="8.644225868390633"><ele>854.0</ele><time>2026-05-02T08:40:52.999Z</time></trkpt><trkpt lat="40.16936712986428" lon="8.644230913020378"><ele>856.0</ele><time>2026-05-02T08:40:53.999Z</time></trkpt><trkpt lat="40.16922041340083" lon="8.644236084734066"><ele>858.0</ele><time>2026-05-02T08:40:54.999Z</time></trkpt><trkpt lat="40.16906993032515" lon="8.644241389221829"><ele>860.25</ele><time>2026-05-02T08:40:55.999Z</time></trkpt><trkpt lat="40.168920389550415" lon="8.64424666049298"><ele>862.5</ele><time>2026-05-02T08:40:56.999Z</time></trkpt><trkpt lat="40.16877551844785" lon="8.64425176715964"><ele>864.75</ele><time>2026-05-02T08:40:57.999Z</time></trkpt><trkpt lat="40.168634793195494" lon="8.64425480248265"><ele>867.0</ele><time>2026-05-02T08:40:58.999Z</time></trkpt><trkpt lat="40.16849280795773" lon="8.644249918980817"><ele>867.0</ele><time>2026-05-02T08:40:59.999Z</time></trkpt><trkpt lat="40.168352367895814" lon="8.644234509216565"><ele>867.0</ele><time>2026-05-02T08:41:00.999Z</time></trkpt><trkpt lat="40.16820994797311" lon="8.644213517046886"><ele>867.0</ele><time>2026-05-02T08:41:01.999Z</time></trkpt><trkpt lat="40.16806842322703" lon="8.644209101840618"><ele>867.0</ele><time>2026-05-02T08:41:02.999Z</time></trkpt><trkpt lat="40.16792988178681" lon="8.644217335119144"><ele>868.75</ele><time>2026-05-02T08:41:03.999Z</time></trkpt><trkpt lat="40.167796271509275" lon="8.644243665900952"><ele>870.5</ele><time>2026-05-02T08:41:04.999Z</time></trkpt><trkpt lat="40.16766172677948" lon="8.644280803208444"><ele>872.25</ele><time>2026-05-02T08:41:05.999Z</time></trkpt><trkpt lat="40.16752378175066" lon="8.644324942507533"><ele>874.0</ele><time>2026-05-02T08:41:06.999Z</time></trkpt><trkpt lat="40.16738119140242" lon="8.644370413396963"><ele>874.0</ele><time>2026-05-02T08:41:07.999Z</time></trkpt><trkpt lat="40.167237340257074" lon="8.644416717438515"><ele>874.0</ele><time>2026-05-02T08:41:08.999Z</time></trkpt><trkpt lat="40.16709965156542" lon="8.644466706129574"><ele>874.0</ele><time>2026-05-02T08:41:09.999Z</time></trkpt><trkpt lat="40.16697371638652" lon="8.644504604928741"><ele>874.0</ele><time>2026-05-02T08:41:10.999Z</time></trkpt><trkpt lat="40.16684593654317" lon="8.644521315430813"><ele>874.0</ele><time>2026-05-02T08:41:11.999Z</time></trkpt><trkpt lat="40.166714763984146" lon="8.644510602720427"><ele>874.0</ele><time>2026-05-02T08:41:12.999Z</time></trkpt><trkpt lat="40.1665756856087" lon="8.644489270352402"><ele>874.0</ele><time>2026-05-02T08:41:13.999Z</time></trkpt><trkpt lat="40.16643079419881" lon="8.644469076499377"><ele>874.0</ele><time>2026-05-02T08:41:14.999Z</time></trkpt><trkpt lat="40.16628108841536" lon="8.644457317076544"><ele>876.25</ele><time>2026-05-02T08:41:15.999Z</time></trkpt><trkpt lat="40.166150068119435" lon="8.644449274603595"><ele>878.5</ele><time>2026-05-02T08:41:16.999Z</time></trkpt><trkpt lat="40.16603311299507" lon="8.644440992358918"><ele>880.75</ele><time>2026-05-02T08:41:17.999Z</time></trkpt><trkpt lat="40.16591904933056" lon="8.644422741044298"><ele>883.0</ele><time>2026-05-02T08:41:18.999Z</time></trkpt><trkpt lat="40.165809440460386" lon="8.644404057658456"><ele>883.0</ele><time>2026-05-02T08:41:19.999Z</time></trkpt><trkpt lat="40.16572199582703" lon="8.644383793485792"><ele>883.0</ele><time>2026-05-02T08:41:20.999Z</time></trkpt><trkpt lat="40.165621166544746" lon="8.644345216977685"><ele>883.0</ele><time>2026-05-02T08:41:22.999Z</time></trkpt><trkpt lat="40.165580841651135" lon="8.644240375623841"><ele>883.0</ele><time>2026-05-02T08:41:24.999Z</time></trkpt><trkpt lat="40.16565648382318" lon="8.644146373742768"><ele>883.0</ele><time>2026-05-02T08:41:26.999Z</time></trkpt><trkpt lat="40.16569935273589" lon="8.644083686351763"><ele>883.0</ele><time>2026-05-02T08:41:27.999Z</time></trkpt><trkpt lat="40.16576856560275" lon="8.644007136852716"><ele>883.0</ele><time>2026-05-02T08:41:28.999Z</time></trkpt><trkpt lat="40.16585514335997" lon="8.643927603642794"><ele>883.0</ele><time>2026-05-02T08:41:29.999Z</time></trkpt><trkpt lat="40.16593865774648" lon="8.643821515637514"><ele>883.0</ele><time>2026-05-02T08:41:30.999Z</time></trkpt><trkpt lat="40.16601693682863" lon="8.643713597117769"><ele>883.0</ele><time>2026-05-02T08:41:31.999Z</time></trkpt><trkpt lat="40.166103402443724" lon="8.643654964508514"><ele>884.8</ele><time>2026-05-02T08:41:32.999Z</time></trkpt><trkpt lat="40.16616600794147" lon="8.643583154937362"><ele>886.5999999999999</ele><time>2026-05-02T08:41:33.999Z</time></trkpt><trkpt lat="40.16622503388883" lon="8.643510211578345"><ele>888.4000000000001</ele><time>2026-05-02T08:41:34.999Z</time></trkpt><trkpt lat="40.16626476640544" lon="8.643380905461415"><ele>890.2</ele><time>2026-05-02T08:41:35.999Z</time></trkpt><trkpt lat="40.16628527994049" lon="8.64322682274589"><ele>892.0</ele><time>2026-05-02T08:41:36.999Z</time></trkpt><trkpt lat="40.16628242506221" lon="8.6430784579133"><ele>892.0</ele><time>2026-05-02T08:41:37.999Z</time></trkpt><trkpt lat="40.166229214879266" lon="8.642948079747358"><ele>892.0</ele><time>2026-05-02T08:41:38.998Z</time></trkpt><trkpt lat="40.16614624479052" lon="8.642836718954602"><ele>892.0</ele><time>2026-05-02T08:41:39.998Z</time></trkpt><trkpt lat="40.1660633882284" lon="8.642722802903766"><ele>892.0</ele><time>2026-05-02T08:41:40.998Z</time></trkpt><trkpt lat="40.16596468622015" lon="8.64260113521972"><ele>893.0</ele><time>2026-05-02T08:41:41.998Z</time></trkpt><trkpt lat="40.16585109508776" lon="8.642471007292228"><ele>894.0</ele><time>2026-05-02T08:41:42.998Z</time></trkpt><trkpt lat="40.16572922988839" lon="8.64233385405095"><ele>895.0</ele><time>2026-05-02T08:41:43.998Z</time></trkpt><trkpt lat="40.16560278846685" lon="8.64219225315768"><ele>896.3333333333333</ele><time>2026-05-02T08:41:44.998Z</time></trkpt><trkpt lat="40.16547415597111" lon="8.642048198604561"><ele>897.6666666666667</ele><time>2026-05-02T08:41:45.998Z</time></trkpt><trkpt lat="40.16535319142158" lon="8.641912976866413"><ele>899.0</ele><time>2026-05-02T08:41:46.998Z</time></trkpt><trkpt lat="40.16523620173208" lon="8.641783658631082"><ele>899.6666666666667</ele><time>2026-05-02T08:41:47.998Z</time></trkpt><trkpt lat="40.1651092739169" lon="8.641644429588077"><ele>900.3333333333333</ele><time>2026-05-02T08:41:48.998Z</time></trkpt><trkpt lat="40.16498351702693" lon="8.641507061034767"><ele>901.0</ele><time>2026-05-02T08:41:49.998Z</time></trkpt><trkpt lat="40.16485940636702" lon="8.641378491905169"><ele>902.1999999999999</ele><time>2026-05-02T08:41:50.998Z</time></trkpt><trkpt lat="40.164749392511915" lon="8.641267081093698"><ele>903.3999999999999</ele><time>2026-05-02T08:41:51.998Z</time></trkpt><trkpt lat="40.16465640402844" lon="8.641173022801402"><ele>904.6</ele><time>2026-05-02T08:41:52.998Z</time></trkpt><trkpt lat="40.16457585484426" lon="8.641090015921236"><ele>905.8</ele><time>2026-05-02T08:41:53.998Z</time></trkpt><trkpt lat="40.16450746946901" lon="8.64101811595781"><ele>907.0</ele><time>2026-05-02T08:41:54.998Z</time></trkpt><trkpt lat="40.1644511834666" lon="8.640956851279059"><ele>907.5</ele><time>2026-05-02T08:41:55.998Z</time></trkpt><trkpt lat="40.16438464518586" lon="8.640881030241273"><ele>908.0</ele><time>2026-05-02T08:41:56.998Z</time></trkpt><trkpt lat="40.16429812287896" lon="8.640780370368844"><ele>908.5</ele><time>2026-05-02T08:41:57.998Z</time></trkpt><trkpt lat="40.164197667626894" lon="8.640661869588184"><ele>909.0</ele><time>2026-05-02T08:41:58.998Z</time></trkpt><trkpt lat="40.164087136228254" lon="8.640530655675452"><ele>910.25</ele><time>2026-05-02T08:41:59.998Z</time></trkpt><trkpt lat="40.16398822362093" lon="8.640412624408972"><ele>911.5</ele><time>2026-05-02T08:42:00.998Z</time></trkpt><trkpt lat="40.163889450452125" lon="8.640294759501108"><ele>912.75</ele><time>2026-05-02T08:42:01.998Z</time></trkpt><trkpt lat="40.16378997322508" lon="8.640176054530112"><ele>914.0</ele><time>2026-05-02T08:42:02.998Z</time></trkpt><trkpt lat="40.16369012806371" lon="8.640057995784282"><ele>914.0</ele><time>2026-05-02T08:42:03.998Z</time></trkpt><trkpt lat="40.16359358138012" lon="8.639944219610598"><ele>914.0</ele><time>2026-05-02T08:42:04.998Z</time></trkpt><trkpt lat="40.163493921951044" lon="8.63982677506662"><ele>914.0</ele><time>2026-05-02T08:42:05.998Z</time></trkpt><trkpt lat="40.16339191415395" lon="8.639706563119862"><ele>914.0</ele><time>2026-05-02T08:42:06.998Z</time></trkpt><trkpt lat="40.163284286295806" lon="8.639579926967967"><ele>914.6666666666667</ele><time>2026-05-02T08:42:07.998Z</time></trkpt><trkpt lat="40.16317171993439" lon="8.639451425862548"><ele>915.3333333333333</ele><time>2026-05-02T08:42:08.998Z</time></trkpt><trkpt lat="40.163052884606344" lon="8.63931720836928"><ele>916.0</ele><time>2026-05-02T08:42:09.998Z</time></trkpt><trkpt lat="40.16292819028337" lon="8.639181405279967"><ele>916.0</ele><time>2026-05-02T08:42:10.998Z</time></trkpt><trkpt lat="40.16280295550745" lon="8.639048304936582"><ele>916.0</ele><time>2026-05-02T08:42:11.998Z</time></trkpt><trkpt lat="40.16267496214102" lon="8.638913727989463"><ele>916.0</ele><time>2026-05-02T08:42:12.998Z</time></trkpt><trkpt lat="40.162547584789564" lon="8.638779373357261"><ele>916.0</ele><time>2026-05-02T08:42:13.998Z</time></trkpt><trkpt lat="40.16241975913127" lon="8.638643639635761"><ele>916.0</ele><time>2026-05-02T08:42:15Z</time></trkpt><trkpt lat="40.16229021632549" lon="8.638504023359776"><ele>916.0</ele><time>2026-05-02T08:42:16Z</time></trkpt><trkpt lat="40.162161168784436" lon="8.638364942215674"><ele>918.0</ele><time>2026-05-02T08:42:17Z</time></trkpt><trkpt lat="40.162042488903744" lon="8.638224752126224"><ele>920.0</ele><time>2026-05-02T08:42:18Z</time></trkpt><trkpt lat="40.16191809707564" lon="8.638073733375188"><ele>922.0</ele><time>2026-05-02T08:42:19Z</time></trkpt><trkpt lat="40.161786161979975" lon="8.637933711572133"><ele>922.0</ele><time>2026-05-02T08:42:20Z</time></trkpt><trkpt lat="40.16164850555962" lon="8.63778922381805"><ele>922.0</ele><time>2026-05-02T08:42:21Z</time></trkpt><trkpt lat="40.161521483038" lon="8.637650506965667"><ele>922.0</ele><time>2026-05-02T08:42:22Z</time></trkpt><trkpt lat="40.16141498666136" lon="8.637528283170568"><ele>923.25</ele><time>2026-05-02T08:42:23Z</time></trkpt><trkpt lat="40.161321017223266" lon="8.637417698386267"><ele>924.5</ele><time>2026-05-02T08:42:24Z</time></trkpt><trkpt lat="40.161229040428125" lon="8.637313838717311"><ele>925.75</ele><time>2026-05-02T08:42:25Z</time></trkpt><trkpt lat="40.161125765641884" lon="8.637205394637117"><ele>927.0</ele><time>2026-05-02T08:42:26Z</time></trkpt><trkpt lat="40.16101807774656" lon="8.637097038969488"><ele>927.0</ele><time>2026-05-02T08:42:27Z</time></trkpt><trkpt lat="40.16091410432692" lon="8.636993218148959"><ele>927.0</ele><time>2026-05-02T08:42:28Z</time></trkpt><trkpt lat="40.16080574599002" lon="8.63688413882338"><ele>927.0</ele><time>2026-05-02T08:42:29Z</time></trkpt><trkpt lat="40.160703056292164" lon="8.636774726564427"><ele>927.0</ele><time>2026-05-02T08:42:30Z</time></trkpt><trkpt lat="40.160599647123796" lon="8.636648680687665"><ele>929.6666666666667</ele><time>2026-05-02T08:42:31Z</time></trkpt><trkpt lat="40.160491063590854" lon="8.63650861166901"><ele>932.3333333333334</ele><time>2026-05-02T08:42:32Z</time></trkpt><trkpt lat="40.160376367340334" lon="8.636376802670634"><ele>935.0</ele><time>2026-05-02T08:42:33Z</time></trkpt><trkpt lat="40.16026209594676" lon="8.636259028400792"><ele>935.0</ele><time>2026-05-02T08:42:34Z</time></trkpt><trkpt lat="40.16014474858772" lon="8.63614480730223"><ele>935.0</ele><time>2026-05-02T08:42:35Z</time></trkpt><trkpt lat="40.16001618015861" lon="8.636025997222626"><ele>935.0</ele><time>2026-05-02T08:42:36Z</time></trkpt><trkpt lat="40.15986619156758" lon="8.635906502745025"><ele>935.25</ele><time>2026-05-02T08:42:36.999Z</time></trkpt><trkpt lat="40.15972447044485" lon="8.635798543867004"><ele>935.5</ele><time>2026-05-02T08:42:37.999Z</time></trkpt><trkpt lat="40.15960672843718" lon="8.635698352513586"><ele>935.75</ele><time>2026-05-02T08:42:38.999Z</time></trkpt><trkpt lat="40.15950195913678" lon="8.63559164133645"><ele>936.0</ele><time>2026-05-02T08:42:39.999Z</time></trkpt><trkpt lat="40.15940340755674" lon="8.635479953448723"><ele>936.0</ele><time>2026-05-02T08:42:40.999Z</time></trkpt><trkpt lat="40.159305302795325" lon="8.635358218652277"><ele>936.0</ele><time>2026-05-02T08:42:41.999Z</time></trkpt><trkpt lat="40.159205930611876" lon="8.635223447958255"><ele>936.0</ele><time>2026-05-02T08:42:42.999Z</time></trkpt><trkpt lat="40.15910602894553" lon="8.63507653768597"><ele>936.0</ele><time>2026-05-02T08:42:43.999Z</time></trkpt><trkpt lat="40.159005668987845" lon="8.634917182555695"><ele>937.0</ele><time>2026-05-02T08:42:44.999Z</time></trkpt><trkpt lat="40.158905749596855" lon="8.63475677516417"><ele>938.0</ele><time>2026-05-02T08:42:45.999Z</time></trkpt><trkpt lat="40.15879863618287" lon="8.634586287919216"><ele>939.0</ele><time>2026-05-02T08:42:46.999Z</time></trkpt><trkpt lat="40.1586882177021" lon="8.634426752730002"><ele>940.3333333333333</ele><time>2026-05-02T08:42:47.999Z</time></trkpt><trkpt lat="40.158574800749555" lon="8.634259912764158"><ele>941.6666666666666</ele><time>2026-05-02T08:42:48.999Z</time></trkpt><trkpt lat="40.158479905128985" lon="8.634088772280627"><ele>943.0</ele><time>2026-05-02T08:42:49.999Z</time></trkpt><trkpt lat="40.15839350900758" lon="8.63391867118145"><ele>943.0</ele><time>2026-05-02T08:42:50.999Z</time></trkpt><trkpt lat="40.15831896046315" lon="8.633764468548272"><ele>943.0</ele><time>2026-05-02T08:42:51.999Z</time></trkpt><trkpt lat="40.15825036781714" lon="8.633618146575595"><ele>943.0</ele><time>2026-05-02T08:42:52.999Z</time></trkpt><trkpt lat="40.158175113121175" lon="8.633449699010704"><ele>943.0</ele><time>2026-05-02T08:42:53.999Z</time></trkpt><trkpt lat="40.15809582170822" lon="8.63326587082458"><ele>942.6666666666666</ele><time>2026-05-02T08:42:54.999Z</time></trkpt><trkpt lat="40.15801336114303" lon="8.63307459783133"><ele>942.3333333333333</ele><time>2026-05-02T08:42:55.999Z</time></trkpt><trkpt lat="40.15793191941374" lon="8.632881434907816"><ele>942.0</ele><time>2026-05-02T08:42:56.999Z</time></trkpt><trkpt lat="40.157847986282185" lon="8.632682293298696"><ele>944.0</ele><time>2026-05-02T08:42:57.999Z</time></trkpt><trkpt lat="40.1577600267735" lon="8.632483287454178"><ele>946.0</ele><time>2026-05-02T08:42:58.999Z</time></trkpt><trkpt lat="40.157666241262646" lon="8.632293344458406"><ele>948.0</ele><time>2026-05-02T08:42:59.999Z</time></trkpt><trkpt lat="40.15757191371167" lon="8.63210475525458"><ele>948.6666666666667</ele><time>2026-05-02T08:43:00.999Z</time></trkpt><trkpt lat="40.15749182581273" lon="8.631896046682323"><ele>949.3333333333334</ele><time>2026-05-02T08:43:01.999Z</time></trkpt><trkpt lat="40.15743253204307" lon="8.631674608083394"><ele>950.0</ele><time>2026-05-02T08:43:02.999Z</time></trkpt><trkpt lat="40.157355522498676" lon="8.631469341520733"><ele>949.25</ele><time>2026-05-02T08:43:03.999Z</time></trkpt><trkpt lat="40.15728189443756" lon="8.631301669835105"><ele>948.5</ele><time>2026-05-02T08:43:04.999Z</time></trkpt><trkpt lat="40.15721451898361" lon="8.63114526770563"><ele>947.75</ele><time>2026-05-02T08:43:05.999Z</time></trkpt><trkpt lat="40.157154605309344" lon="8.630994363885677"><ele>947.0</ele><time>2026-05-02T08:43:06.999Z</time></trkpt><trkpt lat="40.157106459643536" lon="8.63084141389707"><ele>947.0</ele><time>2026-05-02T08:43:07.999Z</time></trkpt><trkpt lat="40.15706519149139" lon="8.630680362571367"><ele>947.0</ele><time>2026-05-02T08:43:08.999Z</time></trkpt><trkpt lat="40.157032637703054" lon="8.630510769949606"><ele>947.0</ele><time>2026-05-02T08:43:09.999Z</time></trkpt><trkpt lat="40.15701023190407" lon="8.630361194415233"><ele>947.0</ele><time>2026-05-02T08:43:10.999Z</time></trkpt><trkpt lat="40.156997194469774" lon="8.630229163181482"><ele>948.0</ele><time>2026-05-02T08:43:11.999Z</time></trkpt><trkpt lat="40.156989231177114" lon="8.630091905055716"><ele>949.0</ele><time>2026-05-02T08:43:12.999Z</time></trkpt><trkpt lat="40.15698908982561" lon="8.62994093823448"><ele>950.0</ele><time>2026-05-02T08:43:13.999Z</time></trkpt><trkpt lat="40.15699519948021" lon="8.629816940890718"><ele>951.0</ele><time>2026-05-02T08:43:14.999Z</time></trkpt><trkpt lat="40.15700599760756" lon="8.629734286631102"><ele>952.0</ele><time>2026-05-02T08:43:15.999Z</time></trkpt><trkpt lat="40.15678795238406" lon="8.62977791828587"><ele>951.9999999999999</ele><time>2026-05-02T08:43:21.999Z</time></trkpt><trkpt lat="40.156732365938495" lon="8.629826208122966"><ele>952.0</ele><time>2026-05-02T08:43:22.999Z</time></trkpt><trkpt lat="40.156664260069284" lon="8.629883505603766"><ele>952.0</ele><time>2026-05-02T08:43:23.999Z</time></trkpt><trkpt lat="40.156597863643384" lon="8.629934143949761"><ele>952.0</ele><time>2026-05-02T08:43:24.999Z</time></trkpt><trkpt lat="40.15652544369899" lon="8.62998951145669"><ele>951.9999999999999</ele><time>2026-05-02T08:43:25.999Z</time></trkpt><trkpt lat="40.15645446357209" lon="8.630042583100929"><ele>952.0</ele><time>2026-05-02T08:43:26.999Z</time></trkpt><trkpt lat="40.156388209955985" lon="8.63009698952345"><ele>950.4000000000001</ele><time>2026-05-02T08:43:27.999Z</time></trkpt><trkpt lat="40.15630844204798" lon="8.63015643388936"><ele>948.8000000000001</ele><time>2026-05-02T08:43:28.999Z</time></trkpt><trkpt lat="40.15623081468219" lon="8.630214000253995"><ele>947.2</ele><time>2026-05-02T08:43:29.999Z</time></trkpt><trkpt lat="40.1561378773809" lon="8.630295725331008"><ele>945.6</ele><time>2026-05-02T08:43:30.999Z</time></trkpt><trkpt lat="40.156054415889926" lon="8.630373776627199"><ele>944.0</ele><time>2026-05-02T08:43:31.999Z</time></trkpt><trkpt lat="40.15597223810381" lon="8.63045098067558"><ele>943.25</ele><time>2026-05-02T08:43:32.999Z</time></trkpt><trkpt lat="40.15587337805655" lon="8.630520331551853"><ele>942.5</ele><time>2026-05-02T08:43:33.999Z</time></trkpt><trkpt lat="40.15576465754741" lon="8.630595234928258"><ele>941.75</ele><time>2026-05-02T08:43:34.999Z</time></trkpt><trkpt lat="40.15564811419318" lon="8.630690008973204"><ele>941.0</ele><time>2026-05-02T08:43:35.999Z</time></trkpt><trkpt lat="40.15553200309503" lon="8.630780951391268"><ele>940.0</ele><time>2026-05-02T08:43:36.999Z</time></trkpt><trkpt lat="40.15541562276608" lon="8.630857288436072"><ele>939.0</ele><time>2026-05-02T08:43:37.999Z</time></trkpt><trkpt lat="40.155312652291805" lon="8.630937240392297"><ele>938.0</ele><time>2026-05-02T08:43:38.999Z</time></trkpt><trkpt lat="40.155220942757516" lon="8.631013607728189"><ele>937.0</ele><time>2026-05-02T08:43:39.999Z</time></trkpt><trkpt lat="40.15509512381978" lon="8.631095836802631"><ele>936.4000000000001</ele><time>2026-05-02T08:43:40.999Z</time></trkpt><trkpt lat="40.154992736574826" lon="8.631166577623059"><ele>935.8000000000001</ele><time>2026-05-02T08:43:41.998Z</time></trkpt><trkpt lat="40.15489701643305" lon="8.631235185667517"><ele>935.2</ele><time>2026-05-02T08:43:42.998Z</time></trkpt><trkpt lat="40.1548000819541" lon="8.631308369303273"><ele>934.6</ele><time>2026-05-02T08:43:43.998Z</time></trkpt><trkpt lat="40.154726965446834" lon="8.631377246341719"><ele>934.0</ele><time>2026-05-02T08:43:44.998Z</time></trkpt><trkpt lat="40.15464070659308" lon="8.631448602623347"><ele>932.5</ele><time>2026-05-02T08:43:45.998Z</time></trkpt><trkpt lat="40.15454344958072" lon="8.631524325840061"><ele>931.0</ele><time>2026-05-02T08:43:46.998Z</time></trkpt><trkpt lat="40.154441808363046" lon="8.631609035641064"><ele>929.5</ele><time>2026-05-02T08:43:47.998Z</time></trkpt><trkpt lat="40.15434714778289" lon="8.631694130050011"><ele>928.0</ele><time>2026-05-02T08:43:48.998Z</time></trkpt><trkpt lat="40.154256422695525" lon="8.63177327621023"><ele>928.0</ele><time>2026-05-02T08:43:49.998Z</time></trkpt><trkpt lat="40.15416268241972" lon="8.631846593616778"><ele>928.0</ele><time>2026-05-02T08:43:50.998Z</time></trkpt><trkpt lat="40.15406304498225" lon="8.631921015178117"><ele>928.0</ele><time>2026-05-02T08:43:51.998Z</time></trkpt><trkpt lat="40.153966804536" lon="8.631990744137722"><ele>928.0</ele><time>2026-05-02T08:43:52.998Z</time></trkpt><trkpt lat="40.15388414789296" lon="8.632064864538528"><ele>928.0</ele><time>2026-05-02T08:43:53.998Z</time></trkpt><trkpt lat="40.153808254811906" lon="8.632141365625605"><ele>926.5999999999999</ele><time>2026-05-02T08:43:54.998Z</time></trkpt><trkpt lat="40.15373356233075" lon="8.632207968959506"><ele>925.1999999999999</ele><time>2026-05-02T08:43:55.998Z</time></trkpt><trkpt lat="40.15365697672933" lon="8.632265850069679"><ele>923.8</ele><time>2026-05-02T08:43:57.998Z</time></trkpt><trkpt lat="40.15373553439018" lon="8.632228737823889"><ele>922.4</ele><time>2026-05-02T08:44:02.998Z</time></trkpt><trkpt lat="40.15373246945943" lon="8.632115852204086"><ele>921.0</ele><time>2026-05-02T08:44:04.998Z</time></trkpt><trkpt lat="40.153628233624076" lon="8.632017443681828"><ele>920.8</ele><time>2026-05-02T08:44:06.998Z</time></trkpt><trkpt lat="40.15357525652375" lon="8.631949129843585"><ele>920.5999999999999</ele><time>2026-05-02T08:44:07.998Z</time></trkpt><trkpt lat="40.153515598549575" lon="8.631858276524705"><ele>920.4</ele><time>2026-05-02T08:44:08.998Z</time></trkpt><trkpt lat="40.15345110674516" lon="8.63175741279936"><ele>920.2</ele><time>2026-05-02T08:44:09.998Z</time></trkpt><trkpt lat="40.153393234206405" lon="8.631658214565977"><ele>920.0</ele><time>2026-05-02T08:44:10.998Z</time></trkpt><trkpt lat="40.15334745512313" lon="8.631559145707065"><ele>920.0000000000001</ele><time>2026-05-02T08:44:11.998Z</time></trkpt><trkpt lat="40.15332309306549" lon="8.631447957661294"><ele>920.0</ele><time>2026-05-02T08:44:13.998Z</time></trkpt><trkpt lat="40.15336236635746" lon="8.631288783172762"><ele>920.0</ele><time>2026-05-02T08:44:15.998Z</time></trkpt><trkpt lat="40.15338919287171" lon="8.631211688584763"><ele>920.0</ele><time>2026-05-02T08:44:16.998Z</time></trkpt><trkpt lat="40.15340141420053" lon="8.631121474143265"><ele>920.0000000000001</ele><time>2026-05-02T08:44:17.998Z</time></trkpt><trkpt lat="40.15340408447207" lon="8.631020133107475"><ele>920.0</ele><time>2026-05-02T08:44:18.998Z</time></trkpt><trkpt lat="40.15339174394661" lon="8.630922151045944"><ele>920.4</ele><time>2026-05-02T08:44:20Z</time></trkpt><trkpt lat="40.153334129649366" lon="8.630782615267892"><ele>920.8</ele><time>2026-05-02T08:44:22Z</time></trkpt><trkpt lat="40.15327061937706" lon="8.630657567854733"><ele>921.2</ele><time>2026-05-02T08:44:24Z</time></trkpt><trkpt lat="40.15322462655647" lon="8.630598922158953"><ele>921.6</ele><time>2026-05-02T08:44:25Z</time></trkpt><trkpt lat="40.15316706171386" lon="8.630539242232706"><ele>922.0</ele><time>2026-05-02T08:44:26Z</time></trkpt><trkpt lat="40.15310356572847" lon="8.63047753779204"><ele>921.8333333333333</ele><time>2026-05-02T08:44:27Z</time></trkpt><trkpt lat="40.153039695245106" lon="8.630423442781193"><ele>921.6666666666666</ele><time>2026-05-02T08:44:28Z</time></trkpt><trkpt lat="40.15295237692845" lon="8.630319264182752"><ele>921.5</ele><time>2026-05-02T08:44:30Z</time></trkpt><trkpt lat="40.15290702101426" lon="8.630236650564909"><ele>921.3333333333333</ele><time>2026-05-02T08:44:31Z</time></trkpt><trkpt lat="40.152851274847286" lon="8.630148626451398"><ele>921.1666666666666</ele><time>2026-05-02T08:44:32Z</time></trkpt><trkpt lat="40.15279574026866" lon="8.63006342683053"><ele>921.0</ele><time>2026-05-02T08:44:33Z</time></trkpt><trkpt lat="40.152746940052396" lon="8.629977513895698"><ele>921.0</ele><time>2026-05-02T08:44:34Z</time></trkpt><trkpt lat="40.15270186056553" lon="8.62989028984734"><ele>921.0</ele><time>2026-05-02T08:44:35Z</time></trkpt><trkpt lat="40.15265404619653" lon="8.629799052198567"><ele>921.0</ele><time>2026-05-02T08:44:36Z</time></trkpt><trkpt lat="40.15260650916987" lon="8.629723742935424"><ele>921.0</ele><time>2026-05-02T08:44:37Z</time></trkpt><trkpt lat="40.152554004784456" lon="8.629665779552626"><ele>921.0</ele><time>2026-05-02T08:44:38Z</time></trkpt><trkpt lat="40.15247619389771" lon="8.629547554109257"><ele>921.0</ele><time>2026-05-02T08:44:40Z</time></trkpt><trkpt lat="40.15244431803716" lon="8.629445137160886"><ele>920.1999999999999</ele><time>2026-05-02T08:44:41Z</time></trkpt><trkpt lat="40.15240062452471" lon="8.62931406096352"><ele>919.3999999999999</ele><time>2026-05-02T08:44:41.999Z</time></trkpt><trkpt lat="40.152333771959825" lon="8.629185325494214"><ele>918.6</ele><time>2026-05-02T08:44:42.999Z</time></trkpt><trkpt lat="40.15227022608318" lon="8.62907526872086"><ele>917.8</ele><time>2026-05-02T08:44:43.999Z</time></trkpt><trkpt lat="40.152217742482705" lon="8.628984472062262"><ele>917.0</ele><time>2026-05-02T08:44:44.999Z</time></trkpt><trkpt lat="40.15218211488259" lon="8.628892292087189"><ele>917.0000000000001</ele><time>2026-05-02T08:44:46.999Z</time></trkpt><trkpt lat="40.15220779134934" lon="8.628776656736209"><ele>917.0</ele><time>2026-05-02T08:44:48.999Z</time></trkpt><trkpt lat="40.15223042576305" lon="8.628696164071767"><ele>917.0</ele><time>2026-05-02T08:44:49.999Z</time></trkpt><trkpt lat="40.15224432332071" lon="8.628606277525492"><ele>917.0</ele><time>2026-05-02T08:44:50.999Z</time></trkpt><trkpt lat="40.152259565907784" lon="8.628524508458963"><ele>917.0000000000001</ele><time>2026-05-02T08:44:51.999Z</time></trkpt><trkpt lat="40.15230320268215" lon="8.62839285470301"><ele>917.0</ele><time>2026-05-02T08:44:53.999Z</time></trkpt><trkpt lat="40.15231181295136" lon="8.628305781055136"><ele>917.7142857142858</ele><time>2026-05-02T08:44:54.999Z</time></trkpt><trkpt lat="40.152327107156694" lon="8.628197478230213"><ele>918.4285714285714</ele><time>2026-05-02T08:44:55.999Z</time></trkpt><trkpt lat="40.15234112155065" lon="8.628110503444042"><ele>919.1428571428571</ele><time>2026-05-02T08:44:56.999Z</time></trkpt><trkpt lat="40.15235304511534" lon="8.628028681602249"><ele>919.8571428571429</ele><time>2026-05-02T08:44:57.999Z</time></trkpt><trkpt lat="40.15236232628465" lon="8.62794335994478"><ele>920.5714285714287</ele><time>2026-05-02T08:44:58.999Z</time></trkpt><trkpt lat="40.1523594000165" lon="8.627846064138984"><ele>921.2857142857143</ele><time>2026-05-02T08:44:59.999Z</time></trkpt><trkpt lat="40.152359593595094" lon="8.627747212977768"><ele>922.0</ele><time>2026-05-02T08:45:00.999Z</time></trkpt><trkpt lat="40.15236549179809" lon="8.627647288402155"><ele>923.0</ele><time>2026-05-02T08:45:01.999Z</time></trkpt><trkpt lat="40.15235725457875" lon="8.627531199564899"><ele>924.0</ele><time>2026-05-02T08:45:02.999Z</time></trkpt><trkpt lat="40.15233740166542" lon="8.62738675216811"><ele>925.0</ele><time>2026-05-02T08:45:03.999Z</time></trkpt><trkpt lat="40.1523201618753" lon="8.627256945811238"><ele>926.0</ele><time>2026-05-02T08:45:04.999Z</time></trkpt><trkpt lat="40.15229353905275" lon="8.627137844841796"><ele>927.0</ele><time>2026-05-02T08:45:05.999Z</time></trkpt><trkpt lat="40.15225434975325" lon="8.627015080060449"><ele>927.4000000000001</ele><time>2026-05-02T08:45:06.999Z</time></trkpt><trkpt lat="40.15221831233727" lon="8.62689867511435"><ele>927.8000000000001</ele><time>2026-05-02T08:45:07.999Z</time></trkpt><trkpt lat="40.1522062756509" lon="8.62679218410885"><ele>928.2</ele><time>2026-05-02T08:45:08.999Z</time></trkpt><trkpt lat="40.15220832565694" lon="8.626677274509353"><ele>928.6</ele><time>2026-05-02T08:45:09.999Z</time></trkpt><trkpt lat="40.15222338768963" lon="8.62658811770921"><ele>929.0</ele><time>2026-05-02T08:45:10.999Z</time></trkpt><trkpt lat="40.15222367721333" lon="8.626424908014457"><ele>929.0</ele><time>2026-05-02T08:45:12.999Z</time></trkpt><trkpt lat="40.15221942715362" lon="8.626284176632328"><ele>929.0000000000001</ele><time>2026-05-02T08:45:14.999Z</time></trkpt><trkpt lat="40.15222086005757" lon="8.626123491250206"><ele>929.0000000000001</ele><time>2026-05-02T08:45:16.999Z</time></trkpt><trkpt lat="40.15223933134321" lon="8.625965705588849"><ele>929.0</ele><time>2026-05-02T08:45:18.999Z</time></trkpt><trkpt lat="40.15225490301442" lon="8.62588500045675"><ele>929.0</ele><time>2026-05-02T08:45:19.999Z</time></trkpt><trkpt lat="40.15230174687383" lon="8.625743578467985"><ele>928.3333333333334</ele><time>2026-05-02T08:45:21.999Z</time></trkpt><trkpt lat="40.152345933250224" lon="8.625673796308796"><ele>927.6666666666667</ele><time>2026-05-02T08:45:23.999Z</time></trkpt><trkpt lat="40.1523801818908" lon="8.62557457140915"><ele>927.0</ele><time>2026-05-02T08:45:26.999Z</time></trkpt><trkpt lat="40.15238845888957" lon="8.625482494561531"><ele>926.3333333333333</ele><time>2026-05-02T08:45:28.999Z</time></trkpt><trkpt lat="40.15239731268914" lon="8.625376141082146"><ele>925.6666666666666</ele><time>2026-05-02T08:45:29.999Z</time></trkpt><trkpt lat="40.152382362664966" lon="8.62521946089684"><ele>925.0</ele><time>2026-05-02T08:45:31.999Z</time></trkpt><trkpt lat="40.15238537690101" lon="8.625101392495782"><ele>925.8333333333333</ele><time>2026-05-02T08:45:33.999Z</time></trkpt><trkpt lat="40.15239307545332" lon="8.624995058415694"><ele>926.6666666666666</ele><time>2026-05-02T08:45:35.999Z</time></trkpt><trkpt lat="40.15238473032847" lon="8.624901566040464"><ele>927.5</ele><time>2026-05-02T08:45:37.999Z</time></trkpt><trkpt lat="40.15236996580636" lon="8.624801397703953"><ele>928.3333333333333</ele><time>2026-05-02T08:45:39.999Z</time></trkpt><trkpt lat="40.152361632222615" lon="8.624662649130315"><ele>929.1666666666666</ele><time>2026-05-02T08:45:41.999Z</time></trkpt><trkpt lat="40.152338215829595" lon="8.62458412202841"><ele>930.0</ele><time>2026-05-02T08:45:42.999Z</time></trkpt><trkpt lat="40.15233658104158" lon="8.624462281088075"><ele>930.0</ele><time>2026-05-02T08:45:44.998Z</time></trkpt><trkpt lat="40.1523620882515" lon="8.624385299174456"><ele>930.0</ele><time>2026-05-02T08:45:45.998Z</time></trkpt><trkpt lat="40.15238551845567" lon="8.624300179077508"><ele>930.0</ele><time>2026-05-02T08:45:46.998Z</time></trkpt><trkpt lat="40.15241437812052" lon="8.624211649404069"><ele>930.0</ele><time>2026-05-02T08:45:47.998Z</time></trkpt><trkpt lat="40.15247140837938" lon="8.624074132021612"><ele>930.0</ele><time>2026-05-02T08:45:49.998Z</time></trkpt><trkpt lat="40.1525133165401" lon="8.624007463353848"><ele>930.0</ele><time>2026-05-02T08:45:50.998Z</time></trkpt><trkpt lat="40.152562432477936" lon="8.623942329476481"><ele>932.5</ele><time>2026-05-02T08:45:51.998Z</time></trkpt><trkpt lat="40.15261836770958" lon="8.623887302053737"><ele>935.0</ele><time>2026-05-02T08:45:52.998Z</time></trkpt><trkpt lat="40.15267848874988" lon="8.623834495689874"><ele>937.5</ele><time>2026-05-02T08:45:53.998Z</time></trkpt><trkpt lat="40.15274851438222" lon="8.623769727423394"><ele>940.0</ele><time>2026-05-02T08:45:54.998Z</time></trkpt><trkpt lat="40.152804275511286" lon="8.623694146238025"><ele>942.5</ele><time>2026-05-02T08:45:55.998Z</time></trkpt><trkpt lat="40.15285375093847" lon="8.623637292497282"><ele>945.0</ele><time>2026-05-02T08:45:56.998Z</time></trkpt><trkpt lat="40.15295023871713" lon="8.62352900214273"><ele>945.0</ele><time>2026-05-02T08:45:58.998Z</time></trkpt><trkpt lat="40.15299844777763" lon="8.623453891237551"><ele>945.0</ele><time>2026-05-02T08:45:59.998Z</time></trkpt><trkpt lat="40.15303933903439" lon="8.623359873161645"><ele>945.0</ele><time>2026-05-02T08:46:00.998Z</time></trkpt><trkpt lat="40.15307670864339" lon="8.623254325807608"><ele>945.0</ele><time>2026-05-02T08:46:01.998Z</time></trkpt><trkpt lat="40.15311427607137" lon="8.623148109738258"><ele>945.0</ele><time>2026-05-02T08:46:02.998Z</time></trkpt><trkpt lat="40.15315528057954" lon="8.62304382132366"><ele>945.0</ele><time>2026-05-02T08:46:03.998Z</time></trkpt><trkpt lat="40.153197289728695" lon="8.622944779345344"><ele>945.8333333333334</ele><time>2026-05-02T08:46:04.998Z</time></trkpt><trkpt lat="40.15323543515443" lon="8.62284724931622"><ele>946.6666666666667</ele><time>2026-05-02T08:46:05.998Z</time></trkpt><trkpt lat="40.15326542934082" lon="8.622763859569785"><ele>947.5</ele><time>2026-05-02T08:46:06.998Z</time></trkpt><trkpt lat="40.15329392378664" lon="8.622684521922816"><ele>948.3333333333334</ele><time>2026-05-02T08:46:07.998Z</time></trkpt><trkpt lat="40.15332277532269" lon="8.622601866169058"><ele>949.1666666666667</ele><time>2026-05-02T08:46:08.998Z</time></trkpt><trkpt lat="40.15338334610927" lon="8.622448218147342"><ele>950.0</ele><time>2026-05-02T08:46:10.998Z</time></trkpt><trkpt lat="40.15341418467174" lon="8.622355418254518"><ele>950.0000000000001</ele><time>2026-05-02T08:46:11.998Z</time></trkpt><trkpt lat="40.1534431200687" lon="8.62227086789118"><ele>950.0</ele><time>2026-05-02T08:46:12.998Z</time></trkpt><trkpt lat="40.153480304991476" lon="8.622172704291403"><ele>950.0</ele><time>2026-05-02T08:46:13.998Z</time></trkpt><trkpt lat="40.153525460821996" lon="8.622078281872447"><ele>950.0</ele><time>2026-05-02T08:46:14.998Z</time></trkpt><trkpt lat="40.15357232376312" lon="8.621997537186672"><ele>950.0000000000001</ele><time>2026-05-02T08:46:15.998Z</time></trkpt><trkpt lat="40.15361602816908" lon="8.62192554129555"><ele>950.0</ele><time>2026-05-02T08:46:16.998Z</time></trkpt><trkpt lat="40.153652837016715" lon="8.621856491307307"><ele>949.4285714285714</ele><time>2026-05-02T08:46:17.998Z</time></trkpt><trkpt lat="40.15368860148732" lon="8.62178729043363"><ele>948.8571428571429</ele><time>2026-05-02T08:46:18.998Z</time></trkpt><trkpt lat="40.15370474105842" lon="8.621699322589588"><ele>948.2857142857143</ele><time>2026-05-02T08:46:19.998Z</time></trkpt><trkpt lat="40.15369815948442" lon="8.621608534902393"><ele>947.7142857142858</ele><time>2026-05-02T08:46:20.998Z</time></trkpt><trkpt lat="40.15368337110302" lon="8.621513583607099"><ele>947.1428571428571</ele><time>2026-05-02T08:46:21.998Z</time></trkpt><trkpt lat="40.15367699172511" lon="8.621421186264456"><ele>946.5714285714287</ele><time>2026-05-02T08:46:22.998Z</time></trkpt><trkpt lat="40.153681445814215" lon="8.621332939104638"><ele>946.0</ele><time>2026-05-02T08:46:23.998Z</time></trkpt><trkpt lat="40.15369024179589" lon="8.621233384894044"><ele>945.3333333333333</ele><time>2026-05-02T08:46:24.998Z</time></trkpt><trkpt lat="40.153693637965596" lon="8.62112020059854"><ele>944.6666666666666</ele><time>2026-05-02T08:46:26Z</time></trkpt><trkpt lat="40.153690477372194" lon="8.620996114388076"><ele>944.0</ele><time>2026-05-02T08:46:27Z</time></trkpt><trkpt lat="40.15370437091056" lon="8.62088608779216"><ele>943.3333333333333</ele><time>2026-05-02T08:46:28Z</time></trkpt><trkpt lat="40.15371447864358" lon="8.62078504436602"><ele>942.6666666666666</ele><time>2026-05-02T08:46:29Z</time></trkpt><trkpt lat="40.15372491809231" lon="8.620669058514526"><ele>942.0</ele><time>2026-05-02T08:46:30Z</time></trkpt><trkpt lat="40.15373635222955" lon="8.620557458238498"><ele>942.0</ele><time>2026-05-02T08:46:31Z</time></trkpt><trkpt lat="40.1537487468846" lon="8.620450696607406"><ele>942.0</ele><time>2026-05-02T08:46:32Z</time></trkpt><trkpt lat="40.153768356595734" lon="8.62032339893674"><ele>942.0</ele><time>2026-05-02T08:46:33Z</time></trkpt><trkpt lat="40.15380306083342" lon="8.620213156621478"><ele>942.0</ele><time>2026-05-02T08:46:34Z</time></trkpt><trkpt lat="40.15382422835485" lon="8.620109504147775"><ele>942.0</ele><time>2026-05-02T08:46:35Z</time></trkpt><trkpt lat="40.15384262775448" lon="8.620019983040706"><ele>942.0</ele><time>2026-05-02T08:46:36Z</time></trkpt><trkpt lat="40.15386018273373" lon="8.61993049519422"><ele>942.3333333333334</ele><time>2026-05-02T08:46:37Z</time></trkpt><trkpt lat="40.15388396658596" lon="8.619843810169856"><ele>942.6666666666667</ele><time>2026-05-02T08:46:38Z</time></trkpt><trkpt lat="40.15390934923355" lon="8.619726626482986"><ele>943.0</ele><time>2026-05-02T08:46:40Z</time></trkpt><trkpt lat="40.153936948239895" lon="8.619621171969643"><ele>943.3333333333334</ele><time>2026-05-02T08:46:42Z</time></trkpt><trkpt lat="40.15397025944645" lon="8.619538772085827"><ele>943.6666666666667</ele><time>2026-05-02T08:46:44Z</time></trkpt><trkpt lat="40.1540279598826" lon="8.619476406835773"><ele>944.0</ele><time>2026-05-02T08:46:46.999Z</time></trkpt><trkpt lat="40.15404454560703" lon="8.61937468273509"><ele>943.3333333333334</ele><time>2026-05-02T08:46:48.999Z</time></trkpt><trkpt lat="40.15408494355672" lon="8.619301878871445"><ele>942.6666666666667</ele><time>2026-05-02T08:46:49.999Z</time></trkpt><trkpt lat="40.15407055856179" lon="8.619158621638446"><ele>942.0</ele><time>2026-05-02T08:46:51.999Z</time></trkpt><trkpt lat="40.15407783893021" lon="8.619055385995486"><ele>941.3333333333333</ele><time>2026-05-02T08:46:52.999Z</time></trkpt><trkpt lat="40.15409324820243" lon="8.618938152983723"><ele>940.6666666666666</ele><time>2026-05-02T08:46:53.999Z</time></trkpt><trkpt lat="40.15410890025667" lon="8.618834965324655"><ele>940.0</ele><time>2026-05-02T08:46:54.999Z</time></trkpt><trkpt lat="40.15412688007004" lon="8.618725134409791"><ele>940.8333333333333</ele><time>2026-05-02T08:46:55.999Z</time></trkpt><trkpt lat="40.15413883372477" lon="8.618613373869552"><ele>941.6666666666666</ele><time>2026-05-02T08:46:56.999Z</time></trkpt><trkpt lat="40.15414969600277" lon="8.618495540302053"><ele>942.5</ele><time>2026-05-02T08:46:57.999Z</time></trkpt><trkpt lat="40.15415950305208" lon="8.618372783906732"><ele>943.3333333333333</ele><time>2026-05-02T08:46:58.999Z</time></trkpt><trkpt lat="40.15417605133337" lon="8.618260745594682"><ele>944.1666666666666</ele><time>2026-05-02T08:46:59.999Z</time></trkpt><trkpt lat="40.154204974642" lon="8.618181119292498"><ele>945.0</ele><time>2026-05-02T08:47:00.999Z</time></trkpt><trkpt lat="40.154261447413326" lon="8.618125138718481"><ele>945.0</ele><time>2026-05-02T08:47:01.999Z</time></trkpt><trkpt lat="40.154327036044634" lon="8.618057874413156"><ele>945.0</ele><time>2026-05-02T08:47:02.999Z</time></trkpt><trkpt lat="40.15438696843798" lon="8.617964563158312"><ele>945.0</ele><time>2026-05-02T08:47:03.999Z</time></trkpt><trkpt lat="40.154467557169156" lon="8.617888633489706"><ele>945.0</ele><time>2026-05-02T08:47:04.999Z</time></trkpt><trkpt lat="40.154543046164676" lon="8.617800682410245"><ele>945.0</ele><time>2026-05-02T08:47:05.999Z</time></trkpt><trkpt lat="40.15461639125913" lon="8.617712471564328"><ele>945.6</ele><time>2026-05-02T08:47:06.999Z</time></trkpt><trkpt lat="40.1546880403605" lon="8.61762818878187"><ele>946.2</ele><time>2026-05-02T08:47:07.999Z</time></trkpt><trkpt lat="40.1547611694496" lon="8.617532950651057"><ele>946.8</ele><time>2026-05-02T08:47:08.999Z</time></trkpt><trkpt lat="40.154834698602116" lon="8.617428404193685"><ele>947.4</ele><time>2026-05-02T08:47:09.999Z</time></trkpt><trkpt lat="40.15491259609228" lon="8.617324739406087"><ele>948.0</ele><time>2026-05-02T08:47:10.999Z</time></trkpt><trkpt lat="40.155003724742855" lon="8.617211497629093"><ele>948.0</ele><time>2026-05-02T08:47:11.999Z</time></trkpt><trkpt lat="40.15509889980681" lon="8.617088583264668"><ele>948.0</ele><time>2026-05-02T08:47:12.999Z</time></trkpt><trkpt lat="40.15519340398142" lon="8.616975835052472"><ele>948.0</ele><time>2026-05-02T08:47:13.999Z</time></trkpt><trkpt lat="40.1552810787676" lon="8.61686269089806"><ele>948.0</ele><time>2026-05-02T08:47:14.999Z</time></trkpt><trkpt lat="40.155361803842254" lon="8.61674401700189"><ele>950.5999999999999</ele><time>2026-05-02T08:47:15.999Z</time></trkpt><trkpt lat="40.155433197637414" lon="8.616647075156505"><ele>953.1999999999999</ele><time>2026-05-02T08:47:16.999Z</time></trkpt><trkpt lat="40.155491080620386" lon="8.616583275679075"><ele>955.8</ele><time>2026-05-02T08:47:17.999Z</time></trkpt><trkpt lat="40.15554099362296" lon="8.61647750981092"><ele>958.4</ele><time>2026-05-02T08:47:19.999Z</time></trkpt><trkpt lat="40.15549566146168" lon="8.616358275509509"><ele>961.0</ele><time>2026-05-02T08:47:21.999Z</time></trkpt><trkpt lat="40.15545558109395" lon="8.616273372977108"><ele>961.0</ele><time>2026-05-02T08:47:22.999Z</time></trkpt><trkpt lat="40.15537958849069" lon="8.616205005559346"><ele>960.9999999999999</ele><time>2026-05-02T08:47:23.999Z</time></trkpt><trkpt lat="40.15529994388081" lon="8.61614687803481"><ele>960.9999999999999</ele><time>2026-05-02T08:47:24.999Z</time></trkpt><trkpt lat="40.155198705141316" lon="8.616105625659026"><ele>961.0</ele><time>2026-05-02T08:47:25.999Z</time></trkpt><trkpt lat="40.15509585066737" lon="8.616079431034947"><ele>961.0</ele><time>2026-05-02T08:47:26.999Z</time></trkpt><trkpt lat="40.15500112655756" lon="8.616047730952916"><ele>963.6666666666666</ele><time>2026-05-02T08:47:27.999Z</time></trkpt><trkpt lat="40.15491124828372" lon="8.616015564522508"><ele>966.3333333333333</ele><time>2026-05-02T08:47:28.999Z</time></trkpt><trkpt lat="40.154836039538615" lon="8.615983567226111"><ele>969.0</ele><time>2026-05-02T08:47:29.999Z</time></trkpt><trkpt lat="40.15476199958274" lon="8.615949400583702"><ele>971.6666666666667</ele><time>2026-05-02T08:47:30.999Z</time></trkpt><trkpt lat="40.15469017449668" lon="8.615913874207507"><ele>974.3333333333334</ele><time>2026-05-02T08:47:31.999Z</time></trkpt><trkpt lat="40.15461468058371" lon="8.615875366782165"><ele>977.0</ele><time>2026-05-02T08:47:32.999Z</time></trkpt><trkpt lat="40.15453138674816" lon="8.615875974126835"><ele>977.0</ele><time>2026-05-02T08:47:33.999Z</time></trkpt><trkpt lat="40.154465673068934" lon="8.615838760614837"><ele>977.0</ele><time>2026-05-02T08:47:34.999Z</time></trkpt><trkpt lat="40.15438941251496" lon="8.61578900707128"><ele>977.0</ele><time>2026-05-02T08:47:36.999Z</time></trkpt><trkpt lat="40.154327720648126" lon="8.615753398494727"><ele>977.0</ele><time>2026-05-02T08:47:43.999Z</time></trkpt><trkpt lat="40.15431695954403" lon="8.615613886466681"><ele>977.0</ele><time>2026-05-02T08:47:45.999Z</time></trkpt><trkpt lat="40.15432495049198" lon="8.615430533070098"><ele>978.2</ele><time>2026-05-02T08:47:47.999Z</time></trkpt><trkpt lat="40.15435039895615" lon="8.615303129918159"><ele>979.4000000000001</ele><time>2026-05-02T08:47:48.999Z</time></trkpt><trkpt lat="40.15433813864136" lon="8.61515879776134"><ele>980.5999999999999</ele><time>2026-05-02T08:47:49.999Z</time></trkpt><trkpt lat="40.1543113425671" lon="8.615009162700405"><ele>981.8</ele><time>2026-05-02T08:47:50.998Z</time></trkpt><trkpt lat="40.15426702127561" lon="8.614925003380236"><ele>983.0</ele><time>2026-05-02T08:47:51.998Z</time></trkpt><trkpt lat="40.15414987099032" lon="8.614850449377789"><ele>983.0</ele><time>2026-05-02T08:47:54.998Z</time></trkpt><trkpt lat="40.154078308417624" lon="8.614809709677386"><ele>983.0</ele><time>2026-05-02T08:47:55.998Z</time></trkpt><trkpt lat="40.15400796379886" lon="8.614756226089483"><ele>983.0</ele><time>2026-05-02T08:47:56.998Z</time></trkpt><trkpt lat="40.153938308876455" lon="8.614657029130424"><ele>983.0</ele><time>2026-05-02T08:47:57.998Z</time></trkpt><trkpt lat="40.15385911220968" lon="8.614533941074205"><ele>983.0</ele><time>2026-05-02T08:47:58.998Z</time></trkpt><trkpt lat="40.153765643677005" lon="8.614413428758986"><ele>978.25</ele><time>2026-05-02T08:47:59.998Z</time></trkpt><trkpt lat="40.153681126443544" lon="8.614300724472745"><ele>973.5</ele><time>2026-05-02T08:48:00.998Z</time></trkpt><trkpt lat="40.15360155746773" lon="8.614184854399895"><ele>968.75</ele><time>2026-05-02T08:48:01.998Z</time></trkpt><trkpt lat="40.1535252685521" lon="8.614071189029728"><ele>964.0</ele><time>2026-05-02T08:48:02.998Z</time></trkpt><trkpt lat="40.15344274309161" lon="8.613947955673614"><ele>964.0</ele><time>2026-05-02T08:48:03.998Z</time></trkpt><trkpt lat="40.15336057403288" lon="8.613810647227881"><ele>964.0</ele><time>2026-05-02T08:48:04.998Z</time></trkpt><trkpt lat="40.15328274636631" lon="8.613645473600712"><ele>964.0</ele><time>2026-05-02T08:48:05.998Z</time></trkpt><trkpt lat="40.1531966029731" lon="8.613447568757287"><ele>961.6666666666666</ele><time>2026-05-02T08:48:06.998Z</time></trkpt><trkpt lat="40.15310038222334" lon="8.613255930344081"><ele>959.3333333333333</ele><time>2026-05-02T08:48:07.998Z</time></trkpt><trkpt lat="40.15300460048331" lon="8.613071677408453"><ele>957.0</ele><time>2026-05-02T08:48:08.998Z</time></trkpt><trkpt lat="40.15287627683808" lon="8.612915548329308"><ele>960.25</ele><time>2026-05-02T08:48:09.998Z</time></trkpt><trkpt lat="40.152746265393944" lon="8.612781679008496"><ele>963.5</ele><time>2026-05-02T08:48:10.998Z</time></trkpt><trkpt lat="40.15262385596332" lon="8.612703473556861"><ele>966.75</ele><time>2026-05-02T08:48:11.998Z</time></trkpt><trkpt lat="40.15250167886854" lon="8.612682196622396"><ele>970.0</ele><time>2026-05-02T08:48:12.998Z</time></trkpt><trkpt lat="40.152361738206295" lon="8.612637158355183"><ele>970.3333333333333</ele><time>2026-05-02T08:48:13.998Z</time></trkpt><trkpt lat="40.152192904695625" lon="8.612617004778068"><ele>970.6666666666667</ele><time>2026-05-02T08:48:14.998Z</time></trkpt><trkpt lat="40.152017087060514" lon="8.612637044196855"><ele>971.0</ele><time>2026-05-02T08:48:15.998Z</time></trkpt><trkpt lat="40.15183498240576" lon="8.612631361366462"><ele>971.0</ele><time>2026-05-02T08:48:16.998Z</time></trkpt><trkpt lat="40.15162952754405" lon="8.612635217769347"><ele>971.0</ele><time>2026-05-02T08:48:17.998Z</time></trkpt><trkpt lat="40.15143068715862" lon="8.612630543280144"><ele>971.0</ele><time>2026-05-02T08:48:18.998Z</time></trkpt><trkpt lat="40.15127635428462" lon="8.612627166612258"><ele>971.1999999999999</ele><time>2026-05-02T08:48:19.998Z</time></trkpt><trkpt lat="40.15114349174332" lon="8.61262203384511"><ele>971.3999999999999</ele><time>2026-05-02T08:48:20.998Z</time></trkpt><trkpt lat="40.151042664545585" lon="8.61260745188621"><ele>971.6</ele><time>2026-05-02T08:48:21.998Z</time></trkpt><trkpt lat="40.15098792293154" lon="8.612556509587376"><ele>971.8</ele><time>2026-05-02T08:48:22.998Z</time></trkpt><trkpt lat="40.15092488067015" lon="8.612475577206814"><ele>972.0</ele><time>2026-05-02T08:48:23.998Z</time></trkpt><trkpt lat="40.150883141297406" lon="8.61234207417683"><ele>972.0</ele><time>2026-05-02T08:48:24.998Z</time></trkpt><trkpt lat="40.1508827836146" lon="8.612200096023367"><ele>972.0</ele><time>2026-05-02T08:48:25.998Z</time></trkpt><trkpt lat="40.150886278677966" lon="8.612043803169456"><ele>972.0</ele><time>2026-05-02T08:48:26.998Z</time></trkpt><trkpt lat="40.1508814494813" lon="8.611925845427052"><ele>972.0</ele><time>2026-05-02T08:48:27.998Z</time></trkpt><trkpt lat="40.150858596748456" lon="8.611846534426856"><ele>972.0</ele><time>2026-05-02T08:48:28.998Z</time></trkpt><trkpt lat="40.1507950516742" lon="8.611775106479724"><ele>969.6</ele><time>2026-05-02T08:48:29.998Z</time></trkpt><trkpt lat="40.15068387152718" lon="8.611751642489118"><ele>967.2</ele><time>2026-05-02T08:48:30.998Z</time></trkpt><trkpt lat="40.15063037561192" lon="8.61168111074088"><ele>964.8</ele><time>2026-05-02T08:48:32Z</time></trkpt><trkpt lat="40.15055702687823" lon="8.611542154431714"><ele>962.4</ele><time>2026-05-02T08:48:34Z</time></trkpt><trkpt lat="40.15052884114521" lon="8.611436603231109"><ele>960.0</ele><time>2026-05-02T08:48:35Z</time></trkpt><trkpt lat="40.15051083033796" lon="8.611302991665678"><ele>959.75</ele><time>2026-05-02T08:48:36Z</time></trkpt><trkpt lat="40.15049114591864" lon="8.611125389103126"><ele>959.5</ele><time>2026-05-02T08:48:37Z</time></trkpt><trkpt lat="40.150471730835534" lon="8.610941943553787"><ele>959.25</ele><time>2026-05-02T08:48:38Z</time></trkpt><trkpt lat="40.15045179112194" lon="8.610757196312676"><ele>959.0</ele><time>2026-05-02T08:48:39Z</time></trkpt><trkpt lat="40.15041708748378" lon="8.610592651263033"><ele>959.0</ele><time>2026-05-02T08:48:40Z</time></trkpt><trkpt lat="40.15033226814518" lon="8.610453560196207"><ele>959.0</ele><time>2026-05-02T08:48:41Z</time></trkpt><trkpt lat="40.15025568054247" lon="8.610293476765833"><ele>959.0</ele><time>2026-05-02T08:48:42Z</time></trkpt><trkpt lat="40.15015709153312" lon="8.610149885014842"><ele>959.0</ele><time>2026-05-02T08:48:43Z</time></trkpt><trkpt lat="40.15006595014709" lon="8.610015858760635"><ele>960.75</ele><time>2026-05-02T08:48:44Z</time></trkpt><trkpt lat="40.14997285682449" lon="8.60988196798962"><ele>962.5</ele><time>2026-05-02T08:48:45Z</time></trkpt><trkpt lat="40.149875917216406" lon="8.609761363821912"><ele>964.25</ele><time>2026-05-02T08:48:46Z</time></trkpt><trkpt lat="40.14975924751123" lon="8.609663620405215"><ele>966.0</ele><time>2026-05-02T08:48:47Z</time></trkpt><trkpt lat="40.149628718624015" lon="8.609575429881977"><ele>966.0</ele><time>2026-05-02T08:48:48Z</time></trkpt><trkpt lat="40.14948936016321" lon="8.609495048324732"><ele>966.0</ele><time>2026-05-02T08:48:49Z</time></trkpt><trkpt lat="40.14936114714925" lon="8.609432331542695"><ele>966.0</ele><time>2026-05-02T08:48:50Z</time></trkpt><trkpt lat="40.149257993313526" lon="8.609380747775717"><ele>966.0</ele><time>2026-05-02T08:48:50.999Z</time></trkpt><trkpt lat="40.14916820741134" lon="8.609333781765834"><ele>966.0</ele><time>2026-05-02T08:48:51.999Z</time></trkpt><trkpt lat="40.149095011446505" lon="8.609295493725808"><ele>965.9999999999999</ele><time>2026-05-02T08:48:52.999Z</time></trkpt><trkpt lat="40.1490111431203" lon="8.609253053769793"><ele>965.9999999999999</ele><time>2026-05-02T08:48:53.999Z</time></trkpt><trkpt lat="40.14891418546269" lon="8.609208766929177"><ele>966.0</ele><time>2026-05-02T08:48:54.999Z</time></trkpt><trkpt lat="40.14882728470194" lon="8.609170642439647"><ele>966.0</ele><time>2026-05-02T08:48:55.999Z</time></trkpt><trkpt lat="40.14874008321516" lon="8.609131460907625"><ele>963.1999999999999</ele><time>2026-05-02T08:48:56.999Z</time></trkpt><trkpt lat="40.148658033874945" lon="8.609093383513013"><ele>960.3999999999999</ele><time>2026-05-02T08:48:57.999Z</time></trkpt><trkpt lat="40.148574878865105" lon="8.609054779497837"><ele>957.6</ele><time>2026-05-02T08:48:58.999Z</time></trkpt><trkpt lat="40.148475488852725" lon="8.609008534558495"><ele>954.8</ele><time>2026-05-02T08:48:59.999Z</time></trkpt><trkpt lat="40.14838363608387" lon="8.608962088876222"><ele>952.0</ele><time>2026-05-02T08:49:00.999Z</time></trkpt><trkpt lat="40.14828538554505" lon="8.608912363812365"><ele>952.25</ele><time>2026-05-02T08:49:01.999Z</time></trkpt><trkpt lat="40.148170274989354" lon="8.60886903523263"><ele>952.5</ele><time>2026-05-02T08:49:02.999Z</time></trkpt><trkpt lat="40.14805332062764" lon="8.608837162358652"><ele>952.75</ele><time>2026-05-02T08:49:03.999Z</time></trkpt><trkpt lat="40.14794906700952" lon="8.608813914040528"><ele>953.0</ele><time>2026-05-02T08:49:04.999Z</time></trkpt><trkpt lat="40.14783311661836" lon="8.608780725336805"><ele>953.0</ele><time>2026-05-02T08:49:05.999Z</time></trkpt><trkpt lat="40.14770171516264" lon="8.608747019555672"><ele>953.0</ele><time>2026-05-02T08:49:06.999Z</time></trkpt><trkpt lat="40.14758403504324" lon="8.608779298823308"><ele>953.0</ele><time>2026-05-02T08:49:07.999Z</time></trkpt><trkpt lat="40.147473573828336" lon="8.60884253848927"><ele>953.0</ele><time>2026-05-02T08:49:08.999Z</time></trkpt><trkpt lat="40.14734601082724" lon="8.608945867158004"><ele>956.3333333333334</ele><time>2026-05-02T08:49:09.999Z</time></trkpt><trkpt lat="40.147203371365265" lon="8.609079849375691"><ele>959.6666666666667</ele><time>2026-05-02T08:49:10.999Z</time></trkpt><trkpt lat="40.1470659923124" lon="8.609223371677485"><ele>963.0</ele><time>2026-05-02T08:49:11.999Z</time></trkpt><trkpt lat="40.1469536339339" lon="8.609378030872264"><ele>961.75</ele><time>2026-05-02T08:49:12.999Z</time></trkpt><trkpt lat="40.146841902502004" lon="8.609510840904447"><ele>960.5</ele><time>2026-05-02T08:49:13.999Z</time></trkpt><trkpt lat="40.146731403330136" lon="8.609602847504657"><ele>959.25</ele><time>2026-05-02T08:49:14.999Z</time></trkpt><trkpt lat="40.14662582233759" lon="8.609674929376427"><ele>958.0</ele><time>2026-05-02T08:49:15.999Z</time></trkpt><trkpt lat="40.146538283406045" lon="8.609736221676082"><ele>958.0</ele><time>2026-05-02T08:49:16.999Z</time></trkpt><trkpt lat="40.14644438885677" lon="8.60976358859433"><ele>958.0</ele><time>2026-05-02T08:49:17.999Z</time></trkpt><trkpt lat="40.14632064008037" lon="8.609766979704446"><ele>958.0</ele><time>2026-05-02T08:49:18.999Z</time></trkpt><trkpt lat="40.14617873171799" lon="8.609779778550893"><ele>958.0</ele><time>2026-05-02T08:49:19.999Z</time></trkpt><trkpt lat="40.14603775725218" lon="8.609843301169956"><ele>958.0</ele><time>2026-05-02T08:49:20.999Z</time></trkpt><trkpt lat="40.1459022426918" lon="8.609947459468675"><ele>958.0</ele><time>2026-05-02T08:49:21.999Z</time></trkpt><trkpt lat="40.14576267414343" lon="8.610051722681618"><ele>958.0</ele><time>2026-05-02T08:49:22.999Z</time></trkpt><trkpt lat="40.145610364205865" lon="8.610149052610893"><ele>956.6666666666666</ele><time>2026-05-02T08:49:23.999Z</time></trkpt><trkpt lat="40.145472054255386" lon="8.610301583964583"><ele>955.3333333333333</ele><time>2026-05-02T08:49:24.999Z</time></trkpt><trkpt lat="40.14535899473696" lon="8.610431338422199"><ele>954.0</ele><time>2026-05-02T08:49:25.999Z</time></trkpt><trkpt lat="40.14527700856356" lon="8.61055950581077"><ele>954.0</ele><time>2026-05-02T08:49:26.999Z</time></trkpt><trkpt lat="40.14521809164431" lon="8.610650914555666"><ele>954.0000000000001</ele><time>2026-05-02T08:49:27.999Z</time></trkpt><trkpt lat="40.14516578060332" lon="8.610722256953032"><ele>954.0000000000001</ele><time>2026-05-02T08:49:28.999Z</time></trkpt><trkpt lat="40.14510346884122" lon="8.610774870581952"><ele>954.0</ele><time>2026-05-02T08:49:29.999Z</time></trkpt><trkpt lat="40.145005762229225" lon="8.610746231991053"><ele>954.0</ele><time>2026-05-02T08:49:30.999Z</time></trkpt><trkpt lat="40.14489460587322" lon="8.610740720521452"><ele>954.5</ele><time>2026-05-02T08:49:31.999Z</time></trkpt><trkpt lat="40.144761537921234" lon="8.610712669416072"><ele>955.0</ele><time>2026-05-02T08:49:32.999Z</time></trkpt><trkpt lat="40.144620423982765" lon="8.610681556864458"><ele>955.5</ele><time>2026-05-02T08:49:33.999Z</time></trkpt><trkpt lat="40.1444767574103" lon="8.61064484095309"><ele>956.0</ele><time>2026-05-02T08:49:34.999Z</time></trkpt><trkpt lat="40.144332209023155" lon="8.610607760624987"><ele>956.0</ele><time>2026-05-02T08:49:35.999Z</time></trkpt><trkpt lat="40.14419599817006" lon="8.61058110468274"><ele>956.0</ele><time>2026-05-02T08:49:36.999Z</time></trkpt><trkpt lat="40.14405985453372" lon="8.61058112286737"><ele>956.0</ele><time>2026-05-02T08:49:37.999Z</time></trkpt><trkpt lat="40.1439435775191" lon="8.61059880129759"><ele>956.0</ele><time>2026-05-02T08:49:38.999Z</time></trkpt><trkpt lat="40.14382944044132" lon="8.610633867439725"><ele>959.25</ele><time>2026-05-02T08:49:39.999Z</time></trkpt><trkpt lat="40.1437159056419" lon="8.610696275917583"><ele>962.5</ele><time>2026-05-02T08:49:40.999Z</time></trkpt><trkpt lat="40.14360471708624" lon="8.610783860281797"><ele>965.75</ele><time>2026-05-02T08:49:41.999Z</time></trkpt><trkpt lat="40.14349454670363" lon="8.610896103845265"><ele>969.0</ele><time>2026-05-02T08:49:42.999Z</time></trkpt><trkpt lat="40.14339429341899" lon="8.611016650346675"><ele>969.0</ele><time>2026-05-02T08:49:43.999Z</time></trkpt><trkpt lat="40.14332395681027" lon="8.611146298822607"><ele>969.0</ele><time>2026-05-02T08:49:44.999Z</time></trkpt><trkpt lat="40.14325392584393" lon="8.611260339012096"><ele>969.0</ele><time>2026-05-02T08:49:45.999Z</time></trkpt><trkpt lat="40.14318276313024" lon="8.611384310611362"><ele>969.0</ele><time>2026-05-02T08:49:46.999Z</time></trkpt><trkpt lat="40.14309271793776" lon="8.611513627392721"><ele>970.25</ele><time>2026-05-02T08:49:47.999Z</time></trkpt><trkpt lat="40.143019754365234" lon="8.611655309943648"><ele>971.5</ele><time>2026-05-02T08:49:48.999Z</time></trkpt><trkpt lat="40.14294913160145" lon="8.611805504268077"><ele>972.75</ele><time>2026-05-02T08:49:49.999Z</time></trkpt><trkpt lat="40.14288961128517" lon="8.611943396541598"><ele>974.0</ele><time>2026-05-02T08:49:50.999Z</time></trkpt><trkpt lat="40.142836834408385" lon="8.612072472416"><ele>970.2</ele><time>2026-05-02T08:49:51.999Z</time></trkpt><trkpt lat="40.14279128620397" lon="8.612193566147686"><ele>966.4000000000001</ele><time>2026-05-02T08:49:52.998Z</time></trkpt><trkpt lat="40.14275628447749" lon="8.61232213156253"><ele>962.6</ele><time>2026-05-02T08:49:53.998Z</time></trkpt><trkpt lat="40.14273317561166" lon="8.61244781707868"><ele>958.8</ele><time>2026-05-02T08:49:54.998Z</time></trkpt><trkpt lat="40.14268813540288" lon="8.61256244064446"><ele>955.0</ele><time>2026-05-02T08:49:55.998Z</time></trkpt><trkpt lat="40.142632289650464" lon="8.612670106332885"><ele>955.0</ele><time>2026-05-02T08:49:56.998Z</time></trkpt><trkpt lat="40.14255992658182" lon="8.612764104319872"><ele>955.0</ele><time>2026-05-02T08:49:57.998Z</time></trkpt><trkpt lat="40.14246099192577" lon="8.612857419640964"><ele>955.0</ele><time>2026-05-02T08:49:58.998Z</time></trkpt><trkpt lat="40.14237384751087" lon="8.612916564356025"><ele>955.0</ele><time>2026-05-02T08:49:59.998Z</time></trkpt><trkpt lat="40.14227581227774" lon="8.612990246160598"><ele>955.0</ele><time>2026-05-02T08:50:00.998Z</time></trkpt><trkpt lat="40.14215621225462" lon="8.613021564435792"><ele>949.75</ele><time>2026-05-02T08:50:01.998Z</time></trkpt><trkpt lat="40.14203713069547" lon="8.613065576544384"><ele>944.5</ele><time>2026-05-02T08:50:02.998Z</time></trkpt><trkpt lat="40.14192924057225" lon="8.613087700333802"><ele>939.25</ele><time>2026-05-02T08:50:03.998Z</time></trkpt><trkpt lat="40.14181591245638" lon="8.613077661278155"><ele>934.0</ele><time>2026-05-02T08:50:04.998Z</time></trkpt><trkpt lat="40.14170445133265" lon="8.613051581647069"><ele>934.0</ele><time>2026-05-02T08:50:05.998Z</time></trkpt><trkpt lat="40.14157271612641" lon="8.61303684225014"><ele>934.0</ele><time>2026-05-02T08:50:06.998Z</time></trkpt><trkpt lat="40.141430253438706" lon="8.612964962244932"><ele>934.0</ele><time>2026-05-02T08:50:07.998Z</time></trkpt><trkpt lat="40.141281052165986" lon="8.612885937841401"><ele>934.0</ele><time>2026-05-02T08:50:08.998Z</time></trkpt><trkpt lat="40.141123971612004" lon="8.612801810970437"><ele>938.3333333333333</ele><time>2026-05-02T08:50:09.998Z</time></trkpt><trkpt lat="40.14097489155871" lon="8.612723861170604"><ele>942.6666666666667</ele><time>2026-05-02T08:50:10.998Z</time></trkpt><trkpt lat="40.140824702239286" lon="8.612646659101893"><ele>947.0</ele><time>2026-05-02T08:50:11.998Z</time></trkpt><trkpt lat="40.14068540680835" lon="8.61257250131131"><ele>947.0</ele><time>2026-05-02T08:50:12.998Z</time></trkpt><trkpt lat="40.14057004019383" lon="8.612507864051295"><ele>947.0</ele><time>2026-05-02T08:50:13.998Z</time></trkpt><trkpt lat="40.140476712833674" lon="8.612452350339845"><ele>947.0</ele><time>2026-05-02T08:50:14.998Z</time></trkpt><trkpt lat="40.14038343762741" lon="8.61239543351041"><ele>947.0</ele><time>2026-05-02T08:50:15.998Z</time></trkpt><trkpt lat="40.14028847932428" lon="8.612329485586082"><ele>947.0</ele><time>2026-05-02T08:50:16.998Z</time></trkpt><trkpt lat="40.14021447629171" lon="8.61227808051482"><ele>947.0</ele><time>2026-05-02T08:50:17.998Z</time></trkpt><trkpt lat="40.14013242417476" lon="8.61221887430735"><ele>947.0</ele><time>2026-05-02T08:50:18.998Z</time></trkpt><trkpt lat="40.14002911973823" lon="8.612140765690057"><ele>947.0</ele><time>2026-05-02T08:50:19.998Z</time></trkpt><trkpt lat="40.13993019178364" lon="8.612064089443676"><ele>947.0</ele><time>2026-05-02T08:50:20.998Z</time></trkpt><trkpt lat="40.139840476650605" lon="8.611992397088956"><ele>947.0</ele><time>2026-05-02T08:50:21.998Z</time></trkpt><trkpt lat="40.139741118571145" lon="8.611911692571665"><ele>949.5</ele><time>2026-05-02T08:50:22.998Z</time></trkpt><trkpt lat="40.1396302804404" lon="8.611821118417732"><ele>952.0</ele><time>2026-05-02T08:50:23.998Z</time></trkpt><trkpt lat="40.13950794783177" lon="8.611717830112518"><ele>954.5</ele><time>2026-05-02T08:50:24.998Z</time></trkpt><trkpt lat="40.13937711439911" lon="8.611606813887533"><ele>957.0</ele><time>2026-05-02T08:50:25.998Z</time></trkpt><trkpt lat="40.139249260858065" lon="8.61149629139473"><ele>957.0</ele><time>2026-05-02T08:50:26.998Z</time></trkpt><trkpt lat="40.139114354602796" lon="8.611377564661387"><ele>957.0</ele><time>2026-05-02T08:50:27.998Z</time></trkpt><trkpt lat="40.13896957912776" lon="8.611248966846585"><ele>957.0</ele><time>2026-05-02T08:50:28.998Z</time></trkpt><trkpt lat="40.138819181645495" lon="8.611114093916935"><ele>957.3333333333333</ele><time>2026-05-02T08:50:29.998Z</time></trkpt><trkpt lat="40.13867235793808" lon="8.610982165976061"><ele>957.6666666666666</ele><time>2026-05-02T08:50:30.998Z</time></trkpt><trkpt lat="40.13853632581197" lon="8.61085993481976"><ele>958.0</ele><time>2026-05-02T08:50:31.998Z</time></trkpt><trkpt lat="40.138404195607244" lon="8.610741209832787"><ele>958.0</ele><time>2026-05-02T08:50:32.998Z</time></trkpt><trkpt lat="40.13828911912366" lon="8.610635825576617"><ele>958.0</ele><time>2026-05-02T08:50:33.999Z</time></trkpt><trkpt lat="40.13818755780753" lon="8.610538391910293"><ele>958.0</ele><time>2026-05-02T08:50:34.999Z</time></trkpt><trkpt lat="40.13808866858526" lon="8.610441431566727"><ele>958.0</ele><time>2026-05-02T08:50:35.999Z</time></trkpt><trkpt lat="40.137980600568895" lon="8.610345813942148"><ele>956.5</ele><time>2026-05-02T08:50:36.999Z</time></trkpt><trkpt lat="40.13788214823011" lon="8.610265357401163"><ele>955.0</ele><time>2026-05-02T08:50:38.001Z</time></trkpt><trkpt lat="40.137784098383705" lon="8.610189303479075"><ele>953.5</ele><time>2026-05-02T08:50:39.001Z</time></trkpt><trkpt lat="40.13768446335864" lon="8.61011288163692"><ele>952.0</ele><time>2026-05-02T08:50:40.001Z</time></trkpt><trkpt lat="40.13756852590179" lon="8.610023672359983"><ele>952.0</ele><time>2026-05-02T08:50:41.001Z</time></trkpt><trkpt lat="40.137450902052066" lon="8.609927322618203"><ele>952.0</ele><time>2026-05-02T08:50:42.001Z</time></trkpt><trkpt lat="40.137343277365574" lon="8.609824321609254"><ele>952.0</ele><time>2026-05-02T08:50:43.001Z</time></trkpt><trkpt lat="40.1372351730076" lon="8.609727158327102"><ele>952.0</ele><time>2026-05-02T08:50:44.001Z</time></trkpt><trkpt lat="40.13711593700958" lon="8.60964196489134"><ele>951.5</ele><time>2026-05-02T08:50:45.001Z</time></trkpt><trkpt lat="40.13699104879952" lon="8.609561097223128"><ele>951.0</ele><time>2026-05-02T08:50:46.001Z</time></trkpt><trkpt lat="40.136879672804525" lon="8.609488177869144"><ele>950.5</ele><time>2026-05-02T08:50:47.001Z</time></trkpt><trkpt lat="40.13675770368996" lon="8.609400914938018"><ele>950.0</ele><time>2026-05-02T08:50:48.001Z</time></trkpt><trkpt lat="40.136628182252196" lon="8.609300525677332"><ele>949.25</ele><time>2026-05-02T08:50:49.001Z</time></trkpt><trkpt lat="40.13650006375988" lon="8.609192898499288"><ele>948.5</ele><time>2026-05-02T08:50:50.001Z</time></trkpt><trkpt lat="40.13637858885829" lon="8.60908461982784"><ele>947.75</ele><time>2026-05-02T08:50:51.001Z</time></trkpt><trkpt lat="40.13626738300345" lon="8.608978780554821"><ele>947.0</ele><time>2026-05-02T08:50:52.001Z</time></trkpt><trkpt lat="40.13617326171854" lon="8.608867263288431"><ele>947.0</ele><time>2026-05-02T08:50:53Z</time></trkpt><trkpt lat="40.13610323466157" lon="8.608740834616064"><ele>947.0</ele><time>2026-05-02T08:50:54Z</time></trkpt><trkpt lat="40.136039319659815" lon="8.608599434933101"><ele>947.0</ele><time>2026-05-02T08:50:55Z</time></trkpt><trkpt lat="40.13596330625575" lon="8.608460079861372"><ele>947.0</ele><time>2026-05-02T08:50:56Z</time></trkpt><trkpt lat="40.135908089428874" lon="8.608302586127532"><ele>947.5</ele><time>2026-05-02T08:50:57Z</time></trkpt><trkpt lat="40.13584555501515" lon="8.608137051410608"><ele>948.0</ele><time>2026-05-02T08:50:58Z</time></trkpt><trkpt lat="40.135786944102094" lon="8.607967366791494"><ele>948.5</ele><time>2026-05-02T08:50:59Z</time></trkpt><trkpt lat="40.13573401352904" lon="8.60779121805619"><ele>949.0</ele><time>2026-05-02T08:51:00Z</time></trkpt><trkpt lat="40.13568788671341" lon="8.607607952384413"><ele>950.25</ele><time>2026-05-02T08:51:01Z</time></trkpt><trkpt lat="40.13563448833769" lon="8.607431250966552"><ele>951.5</ele><time>2026-05-02T08:51:02Z</time></trkpt><trkpt lat="40.135567756372716" lon="8.607260818989635"><ele>952.75</ele><time>2026-05-02T08:51:03Z</time></trkpt><trkpt lat="40.135492855548165" lon="8.607089290671919"><ele>954.0</ele><time>2026-05-02T08:51:04Z</time></trkpt><trkpt lat="40.13540187654899" lon="8.606929844391946"><ele>954.0</ele><time>2026-05-02T08:51:05Z</time></trkpt><trkpt lat="40.13530753002484" lon="8.606781992219945"><ele>954.0</ele><time>2026-05-02T08:51:06Z</time></trkpt><trkpt lat="40.13520902639421" lon="8.606661996883746"><ele>954.0</ele><time>2026-05-02T08:51:07Z</time></trkpt><trkpt lat="40.13510479288367" lon="8.606565157733602"><ele>954.0</ele><time>2026-05-02T08:51:08Z</time></trkpt><trkpt lat="40.13498649532354" lon="8.606503774244361"><ele>956.3333333333333</ele><time>2026-05-02T08:51:09Z</time></trkpt><trkpt lat="40.13483280788846" lon="8.606442378587337"><ele>958.6666666666666</ele><time>2026-05-02T08:51:10Z</time></trkpt><trkpt lat="40.13467984491648" lon="8.606338855704909"><ele>961.0</ele><time>2026-05-02T08:51:11Z</time></trkpt><trkpt lat="40.13452016744522" lon="8.606242311822239"><ele>961.0</ele><time>2026-05-02T08:51:12Z</time></trkpt><trkpt lat="40.13438323670674" lon="8.606163882058063"><ele>961.0</ele><time>2026-05-02T08:51:13Z</time></trkpt><trkpt lat="40.13424903535835" lon="8.606091605336372"><ele>961.0</ele><time>2026-05-02T08:51:14Z</time></trkpt><trkpt lat="40.134108182504896" lon="8.606017254888966"><ele>961.0</ele><time>2026-05-02T08:51:15Z</time></trkpt><trkpt lat="40.13394540748149" lon="8.605954198885925"><ele>957.0</ele><time>2026-05-02T08:51:16Z</time></trkpt><trkpt lat="40.1337782395375" lon="8.60587457922138"><ele>953.0</ele><time>2026-05-02T08:51:17Z</time></trkpt><trkpt lat="40.133623249313004" lon="8.60577433542278"><ele>949.0</ele><time>2026-05-02T08:51:18Z</time></trkpt><trkpt lat="40.133482537456466" lon="8.605686976510409"><ele>949.0</ele><time>2026-05-02T08:51:19Z</time></trkpt><trkpt lat="40.13337035817883" lon="8.605605691006708"><ele>949.0</ele><time>2026-05-02T08:51:20Z</time></trkpt><trkpt lat="40.133284882103645" lon="8.605523418156903"><ele>949.0</ele><time>2026-05-02T08:51:21Z</time></trkpt><trkpt lat="40.1331958233994" lon="8.605408240904676"><ele>949.0</ele><time>2026-05-02T08:51:22Z</time></trkpt><trkpt lat="40.13307879400056" lon="8.605297961495513"><ele>945.5</ele><time>2026-05-02T08:51:23Z</time></trkpt><trkpt lat="40.13297450232971" lon="8.605180631394123"><ele>942.0</ele><time>2026-05-02T08:51:24Z</time></trkpt><trkpt lat="40.13288105733313" lon="8.605058967518767"><ele>938.5</ele><time>2026-05-02T08:51:25Z</time></trkpt><trkpt lat="40.13277785295864" lon="8.604952378113907"><ele>935.0</ele><time>2026-05-02T08:51:26Z</time></trkpt><trkpt lat="40.13267005544755" lon="8.60485155423182"><ele>935.0</ele><time>2026-05-02T08:51:27Z</time></trkpt><trkpt lat="40.13256733367428" lon="8.604754545312735"><ele>935.0</ele><time>2026-05-02T08:51:28Z</time></trkpt><trkpt lat="40.13246960554583" lon="8.60465550875393"><ele>935.0</ele><time>2026-05-02T08:51:29Z</time></trkpt><trkpt lat="40.1323651039538" lon="8.604546282506984"><ele>935.0</ele><time>2026-05-02T08:51:30Z</time></trkpt><trkpt lat="40.132259631249454" lon="8.60443005792584"><ele>932.25</ele><time>2026-05-02T08:51:31Z</time></trkpt><trkpt lat="40.13215582361256" lon="8.60431240452791"><ele>929.5</ele><time>2026-05-02T08:51:32Z</time></trkpt><trkpt lat="40.13204518714709" lon="8.604182862800288"><ele>926.75</ele><time>2026-05-02T08:51:33Z</time></trkpt><trkpt lat="40.13192271246334" lon="8.604061630840615"><ele>924.0</ele><time>2026-05-02T08:51:34Z</time></trkpt><trkpt lat="40.13181508494456" lon="8.603918972687138"><ele>924.0</ele><time>2026-05-02T08:51:35Z</time></trkpt><trkpt lat="40.13171015912628" lon="8.603785202229224"><ele>924.0</ele><time>2026-05-02T08:51:36Z</time></trkpt><trkpt lat="40.13161094124219" lon="8.603658620169755"><ele>924.0</ele><time>2026-05-02T08:51:37Z</time></trkpt><trkpt lat="40.1315114206846" lon="8.603539830410789"><ele>924.0</ele><time>2026-05-02T08:51:38Z</time></trkpt><trkpt lat="40.13140670199014" lon="8.603417610307671"><ele>922.0</ele><time>2026-05-02T08:51:39Z</time></trkpt><trkpt lat="40.13130262180184" lon="8.603293330510319"><ele>920.0</ele><time>2026-05-02T08:51:40Z</time></trkpt><trkpt lat="40.13121811897926" lon="8.60314979527633"><ele>918.0</ele><time>2026-05-02T08:51:41Z</time></trkpt><trkpt lat="40.131122229460885" lon="8.603018144008919"><ele>916.0</ele><time>2026-05-02T08:51:42Z</time></trkpt><trkpt lat="40.13101024953909" lon="8.602901817126464"><ele>915.0</ele><time>2026-05-02T08:51:43Z</time></trkpt><trkpt lat="40.13090148905794" lon="8.602786652725595"><ele>914.0</ele><time>2026-05-02T08:51:44Z</time></trkpt><trkpt lat="40.130784068905285" lon="8.602678257745406"><ele>913.0</ele><time>2026-05-02T08:51:45Z</time></trkpt><trkpt lat="40.13064763452392" lon="8.60259839950458"><ele>912.0</ele><time>2026-05-02T08:51:46Z</time></trkpt><trkpt lat="40.13050347380248" lon="8.602537291283054"><ele>912.0</ele><time>2026-05-02T08:51:47Z</time></trkpt><trkpt lat="40.130357058398026" lon="8.602509318663442"><ele>912.0</ele><time>2026-05-02T08:51:48Z</time></trkpt><trkpt lat="40.13022761279328" lon="8.60247432270255"><ele>912.0</ele><time>2026-05-02T08:51:49Z</time></trkpt><trkpt lat="40.13012627735188" lon="8.602447474393031"><ele>912.0</ele><time>2026-05-02T08:51:50Z</time></trkpt><trkpt lat="40.13000073454708" lon="8.602441116335934"><ele>910.8</ele><time>2026-05-02T08:51:51Z</time></trkpt><trkpt lat="40.12989173922159" lon="8.602428923659696"><ele>909.6</ele><time>2026-05-02T08:51:52Z</time></trkpt><trkpt lat="40.129791805212555" lon="8.60241637015017"><ele>908.3999999999999</ele><time>2026-05-02T08:51:53Z</time></trkpt><trkpt lat="40.12969097402834" lon="8.602408161607373"><ele>907.1999999999999</ele><time>2026-05-02T08:51:54Z</time></trkpt><trkpt lat="40.129595684486475" lon="8.60246069168656"><ele>906.0</ele><time>2026-05-02T08:51:55Z</time></trkpt><trkpt lat="40.129488573528974" lon="8.602480619474088"><ele>906.0</ele><time>2026-05-02T08:51:55.999Z</time></trkpt><trkpt lat="40.129396873861914" lon="8.602476326858392"><ele>906.0</ele><time>2026-05-02T08:51:56.999Z</time></trkpt><trkpt lat="40.12930349229777" lon="8.602415210895046"><ele>906.0</ele><time>2026-05-02T08:51:57.999Z</time></trkpt><trkpt lat="40.12918872566184" lon="8.602359783194343"><ele>906.0</ele><time>2026-05-02T08:51:58.999Z</time></trkpt><trkpt lat="40.12904003555722" lon="8.602361186786947"><ele>934.0</ele><time>2026-05-02T08:51:59.999Z</time></trkpt><trkpt lat="40.1323651039538" lon="8.604546282506984"><ele>931.5</ele><time>2026-05-02T08:51:30Z</time></trkpt><trkpt lat="40.132259631249454" lon="8.60443005792584"><ele>929.0</ele><time>2026-05-02T08:51:31Z</time></trkpt><trkpt lat="40.13215582361256" lon="8.60431240452791"><ele>926.5</ele><time>2026-05-02T08:51:32Z</time></trkpt><trkpt lat="40.13204518714709" lon="8.604182862800288"><ele>924.0</ele><time>2026-05-02T08:51:33Z</time></trkpt><trkpt lat="40.13192271246334" lon="8.604061630840615"><ele>924.0</ele><time>2026-05-02T08:51:34Z</time></trkpt><trkpt lat="40.13181508494456" lon="8.603918972687138"><ele>924.0</ele><time>2026-05-02T08:51:35Z</time></trkpt><trkpt lat="40.13171015912628" lon="8.603785202229224"><ele>924.0</ele><time>2026-05-02T08:51:36Z</time></trkpt><trkpt lat="40.13161094124219" lon="8.603658620169755"><ele>924.0</ele><time>2026-05-02T08:51:37Z</time></trkpt><trkpt lat="40.1315114206846" lon="8.603539830410789"><ele>922.0</ele><time>2026-05-02T08:51:38Z</time></trkpt><trkpt lat="40.13140670199014" lon="8.603417610307671"><ele>920.0</ele><time>2026-05-02T08:51:39Z</time></trkpt><trkpt lat="40.13130262180184" lon="8.603293330510319"><ele>918.0</ele><time>2026-05-02T08:51:40Z</time></trkpt><trkpt lat="40.13121811897926" lon="8.60314979527633"><ele>916.0</ele><time>2026-05-02T08:51:41Z</time></trkpt><trkpt lat="40.131122229460885" lon="8.603018144008919"><ele>916.0</ele><time>2026-05-02T08:51:42Z</time></trkpt><trkpt lat="40.13101024953909" lon="8.602901817126464"><ele>916.0</ele><time>2026-05-02T08:51:43Z</time></trkpt><trkpt lat="40.13090148905794" lon="8.602786652725595"><ele>916.0</ele><time>2026-05-02T08:51:44Z</time></trkpt><trkpt lat="40.130784068905285" lon="8.602678257745406"><ele>916.0</ele><time>2026-05-02T08:51:45Z</time></trkpt><trkpt lat="40.13064763452392" lon="8.60259839950458"><ele>915.0</ele><time>2026-05-02T08:51:46Z</time></trkpt><trkpt lat="40.13050347380248" lon="8.602537291283054"><ele>914.0</ele><time>2026-05-02T08:51:47Z</time></trkpt><trkpt lat="40.130357058398026" lon="8.602509318663442"><ele>913.0</ele><time>2026-05-02T08:51:48Z</time></trkpt><trkpt lat="40.13022761279328" lon="8.60247432270255"><ele>912.0</ele><time>2026-05-02T08:51:49Z</time></trkpt><trkpt lat="40.13012627735188" lon="8.602447474393031"><ele>912.0</ele><time>2026-05-02T08:51:50Z</time></trkpt><trkpt lat="40.13000073454708" lon="8.602441116335934"><ele>912.0</ele><time>2026-05-02T08:51:51Z</time></trkpt><trkpt lat="40.12989173922159" lon="8.602428923659696"><ele>912.0</ele><time>2026-05-02T08:51:52Z</time></trkpt><trkpt lat="40.129791805212555" lon="8.60241637015017"><ele>912.0</ele><time>2026-05-02T08:51:53Z</time></trkpt><trkpt lat="40.12969097402834" lon="8.602408161607373"><ele>912.0</ele><time>2026-05-02T08:51:54Z</time></trkpt><trkpt lat="40.129595684486475" lon="8.60246069168656"><ele>910.8</ele><time>2026-05-02T08:51:55Z</time></trkpt><trkpt lat="40.129488573528974" lon="8.602480619474088"><ele>909.6</ele><time>2026-05-02T08:51:55.999Z</time></trkpt><trkpt lat="40.129396873861914" lon="8.602476326858392"><ele>908.3999999999999</ele><time>2026-05-02T08:51:56.999Z</time></trkpt><trkpt lat="40.12930349229777" lon="8.602415210895046"><ele>907.1999999999999</ele><time>2026-05-02T08:51:57.999Z</time></trkpt><trkpt lat="40.12918872566184" lon="8.602359783194343"><ele>906.0</ele><time>2026-05-02T08:51:58.999Z</time></trkpt><trkpt lat="40.12904003555722" lon="8.602361186786947"><ele>904.0</ele><time>2026-05-02T08:51:59.999Z</time></trkpt><trkpt lat="40.12890932286272" lon="8.602347362411935"><ele>902.0</ele><time>2026-05-02T08:52:00.999Z</time></trkpt><trkpt lat="40.12877050617113" lon="8.602340792908517"><ele>900.0</ele><time>2026-05-02T08:52:01.999Z</time></trkpt><trkpt lat="40.12864046142573" lon="8.602291979374348"><ele>898.0</ele><time>2026-05-02T08:52:02.999Z</time></trkpt><trkpt lat="40.12849617169936" lon="8.602246073437179"><ele>898.0</ele><time>2026-05-02T08:52:03.999Z</time></trkpt><trkpt lat="40.12832974363951" lon="8.602205985589443"><ele>898.0</ele><time>2026-05-02T08:52:04.999Z</time></trkpt><trkpt lat="40.12815866129564" lon="8.602166214555432"><ele>898.0</ele><time>2026-05-02T08:52:05.999Z</time></trkpt><trkpt lat="40.1279972291683" lon="8.602126891813555"><ele>896.3333333333333</ele><time>2026-05-02T08:52:06.999Z</time></trkpt><trkpt lat="40.12784281202173" lon="8.602087478633226"><ele>894.6666666666667</ele><time>2026-05-02T08:52:07.999Z</time></trkpt><trkpt lat="40.12768026368453" lon="8.602045438014072"><ele>893.0</ele><time>2026-05-02T08:52:08.999Z</time></trkpt><trkpt lat="40.12751315073517" lon="8.602002216834"><ele>891.0</ele><time>2026-05-02T08:52:09.999Z</time></trkpt><trkpt lat="40.12734827369137" lon="8.601959573928243"><ele>889.0</ele><time>2026-05-02T08:52:10.999Z</time></trkpt><trkpt lat="40.127182841920074" lon="8.601916748361191"><ele>887.0</ele><time>2026-05-02T08:52:11.999Z</time></trkpt><trkpt lat="40.127001089371575" lon="8.601869693535768"><ele>887.0</ele><time>2026-05-02T08:52:12.999Z</time></trkpt><trkpt lat="40.126816684852024" lon="8.601821952134344"><ele>887.0</ele><time>2026-05-02T08:52:13.999Z</time></trkpt><trkpt lat="40.126643382501854" lon="8.601777085021833"><ele>887.0</ele><time>2026-05-02T08:52:14.999Z</time></trkpt><trkpt lat="40.126493804490785" lon="8.601738106278594"><ele>886.5000000000001</ele><time>2026-05-02T08:52:15.999Z</time></trkpt><trkpt lat="40.1263704233329" lon="8.601704212204977"><ele>886.0</ele><time>2026-05-02T08:52:16.999Z</time></trkpt><trkpt lat="40.12627678947455" lon="8.601678490126595"><ele>885.5</ele><time>2026-05-02T08:52:17.999Z</time></trkpt><trkpt lat="40.12619956399149" lon="8.601652371244539"><ele>885.0</ele><time>2026-05-02T08:52:18.999Z</time></trkpt><trkpt lat="40.126126489296254" lon="8.60161972411517"><ele>884.5000000000001</ele><time>2026-05-02T08:52:20.999Z</time></trkpt><trkpt lat="40.12606577769506" lon="8.601587727340434"><ele>884.0</ele><time>2026-05-02T08:52:26.999Z</time></trkpt><trkpt lat="40.126018776897396" lon="8.60165942857273"><ele>884.0000000000001</ele><time>2026-05-02T08:53:17Z</time></trkpt><trkpt lat="40.12596008202368" lon="8.6016201101122"><ele>884.0</ele><time>2026-05-02T08:53:21Z</time></trkpt><trkpt lat="40.12586123411478" lon="8.601579888633703"><ele>884.0</ele><time>2026-05-02T08:53:33Z</time></trkpt><trkpt lat="40.125788163938154" lon="8.601573774703006"><ele>884.0</ele><time>2026-05-02T08:53:34Z</time></trkpt><trkpt lat="40.12570358728344" lon="8.601548934496638"><ele>884.0000000000001</ele><time>2026-05-02T08:53:35Z</time></trkpt><trkpt lat="40.1256090087377" lon="8.601524833355029"><ele>884.0</ele><time>2026-05-02T08:53:36Z</time></trkpt><trkpt lat="40.125529093828035" lon="8.60152236778759"><ele>882.8000000000001</ele><time>2026-05-02T08:53:37Z</time></trkpt><trkpt lat="40.125445264973756" lon="8.601529477583886"><ele>881.6000000000001</ele><time>2026-05-02T08:53:38Z</time></trkpt><trkpt lat="40.125360711587284" lon="8.601496363644129"><ele>880.4</ele><time>2026-05-02T08:53:39Z</time></trkpt><trkpt lat="40.125251691741475" lon="8.601474827760788"><ele>879.2</ele><time>2026-05-02T08:53:40Z</time></trkpt><trkpt lat="40.125140825149685" lon="8.601451702823972"><ele>878.0</ele><time>2026-05-02T08:53:41Z</time></trkpt><trkpt lat="40.12503202434533" lon="8.601425820351349"><ele>878.0</ele><time>2026-05-02T08:53:42Z</time></trkpt><trkpt lat="40.124922798724086" lon="8.601398200096382"><ele>878.0</ele><time>2026-05-02T08:53:43Z</time></trkpt><trkpt lat="40.124810408985084" lon="8.601370685848984"><ele>878.0</ele><time>2026-05-02T08:53:44Z</time></trkpt><trkpt lat="40.12469700028526" lon="8.601345494132225"><ele>878.0</ele><time>2026-05-02T08:53:45Z</time></trkpt><trkpt lat="40.12459764985128" lon="8.60132502279816"><ele>878.0</ele><time>2026-05-02T08:53:46Z</time></trkpt><trkpt lat="40.124506228748785" lon="8.601305080554477"><ele>876.4</ele><time>2026-05-02T08:53:47Z</time></trkpt><trkpt lat="40.12441569512938" lon="8.601283332213095"><ele>874.8</ele><time>2026-05-02T08:53:48Z</time></trkpt><trkpt lat="40.1243149653872" lon="8.601278462062757"><ele>873.2</ele><time>2026-05-02T08:53:49Z</time></trkpt><trkpt lat="40.12422500895305" lon="8.60124627327452"><ele>871.6</ele><time>2026-05-02T08:53:50Z</time></trkpt><trkpt lat="40.12413846413792" lon="8.60122518419539"><ele>870.0</ele><time>2026-05-02T08:53:51Z</time></trkpt><trkpt lat="40.1240539855134" lon="8.6011923350994"><ele>868.2</ele><time>2026-05-02T08:53:52Z</time></trkpt><trkpt lat="40.12396216488189" lon="8.601169235316307"><ele>866.4</ele><time>2026-05-02T08:53:53Z</time></trkpt><trkpt lat="40.12385835752586" lon="8.601143119977216"><ele>864.5999999999999</ele><time>2026-05-02T08:53:54Z</time></trkpt><trkpt lat="40.123750351966514" lon="8.601133475042248"><ele>862.8</ele><time>2026-05-02T08:53:55Z</time></trkpt><trkpt lat="40.12365381143279" lon="8.601097783319553"><ele>861.0</ele><time>2026-05-02T08:53:56Z</time></trkpt><trkpt lat="40.12355398375263" lon="8.601078913681382"><ele>861.0</ele><time>2026-05-02T08:53:57Z</time></trkpt><trkpt lat="40.12346213635442" lon="8.601061190103843"><ele>860.9999999999999</ele><time>2026-05-02T08:53:57.999Z</time></trkpt><trkpt lat="40.123377404796145" lon="8.601021304313855"><ele>860.9999999999999</ele><time>2026-05-02T08:53:58.999Z</time></trkpt><trkpt lat="40.12330126377444" lon="8.600993777134464"><ele>861.0</ele><time>2026-05-02T08:53:59.999Z</time></trkpt><trkpt lat="40.123240764817304" lon="8.600963038283112"><ele>861.0</ele><time>2026-05-02T08:54:00.999Z</time></trkpt><trkpt lat="40.12317893896089" lon="8.6008226192218"><ele>859.8</ele><time>2026-05-02T08:54:02.999Z</time></trkpt><trkpt lat="40.12315114673422" lon="8.60070582468282"><ele>858.5999999999999</ele><time>2026-05-02T08:54:03.999Z</time></trkpt><trkpt lat="40.12311907293198" lon="8.600580358214435"><ele>857.4</ele><time>2026-05-02T08:54:04.999Z</time></trkpt><trkpt lat="40.123076606573434" lon="8.600448971907996"><ele>856.2</ele><time>2026-05-02T08:54:05.999Z</time></trkpt><trkpt lat="40.12303282005979" lon="8.60034608787668"><ele>855.0</ele><time>2026-05-02T08:54:06.999Z</time></trkpt><trkpt lat="40.122967189639034" lon="8.600268065540863"><ele>855.0</ele><time>2026-05-02T08:54:07.999Z</time></trkpt><trkpt lat="40.12286504302976" lon="8.60023627324153"><ele>855.0</ele><time>2026-05-02T08:54:08.999Z</time></trkpt><trkpt lat="40.122750072998855" lon="8.60030055256615"><ele>855.0</ele><time>2026-05-02T08:54:09.999Z</time></trkpt><trkpt lat="40.12266245879173" lon="8.600339825881582"><ele>855.0</ele><time>2026-05-02T08:54:10.999Z</time></trkpt><trkpt lat="40.122575212931864" lon="8.600380041529238"><ele>855.0</ele><time>2026-05-02T08:54:11.999Z</time></trkpt><trkpt lat="40.12248174493916" lon="8.60040474488571"><ele>853.2</ele><time>2026-05-02T08:54:12.999Z</time></trkpt><trkpt lat="40.122371677979615" lon="8.600435901605064"><ele>851.4</ele><time>2026-05-02T08:54:13.999Z</time></trkpt><trkpt lat="40.12227446123742" lon="8.600477795453441"><ele>849.5999999999999</ele><time>2026-05-02T08:54:14.999Z</time></trkpt><trkpt lat="40.122184005092585" lon="8.600517380888755"><ele>847.8</ele><time>2026-05-02T08:54:15.999Z</time></trkpt><trkpt lat="40.12208633513567" lon="8.600560125491441"><ele>846.0</ele><time>2026-05-02T08:54:16.999Z</time></trkpt><trkpt lat="40.121993390381284" lon="8.600598051551282"><ele>846.0</ele><time>2026-05-02T08:54:17.999Z</time></trkpt><trkpt lat="40.1219010631565" lon="8.600628630463147"><ele>846.0</ele><time>2026-05-02T08:54:18.999Z</time></trkpt><trkpt lat="40.12182436875203" lon="8.600631417191735"><ele>846.0</ele><time>2026-05-02T08:54:19.999Z</time></trkpt><trkpt lat="40.12175678909398" lon="8.600625495104834"><ele>846.0</ele><time>2026-05-02T08:54:20.999Z</time></trkpt><trkpt lat="40.12166640288481" lon="8.600608118811694"><ele>846.0</ele><time>2026-05-02T08:54:21.999Z</time></trkpt><trkpt lat="40.12155562124822" lon="8.600583028345735"><ele>846.0</ele><time>2026-05-02T08:54:22.999Z</time></trkpt><trkpt lat="40.12143185350294" lon="8.600553664229274"><ele>844.25</ele><time>2026-05-02T08:54:23.999Z</time></trkpt><trkpt lat="40.121306538228524" lon="8.600523932886752"><ele>842.5</ele><time>2026-05-02T08:54:24.999Z</time></trkpt><trkpt lat="40.121167433525876" lon="8.600493149496783"><ele>840.75</ele><time>2026-05-02T08:54:25.999Z</time></trkpt><trkpt lat="40.12104829130772" lon="8.600466765769754"><ele>839.0</ele><time>2026-05-02T08:54:26.999Z</time></trkpt><trkpt lat="40.1209108948304" lon="8.600435960813892"><ele>839.0</ele><time>2026-05-02T08:54:27.999Z</time></trkpt><trkpt lat="40.12078334550448" lon="8.600405390182754"><ele>839.0</ele><time>2026-05-02T08:54:28.999Z</time></trkpt><trkpt lat="40.12065966318883" lon="8.600375570934892"><ele>839.0</ele><time>2026-05-02T08:54:29.999Z</time></trkpt><trkpt lat="40.120543493753964" lon="8.600347203361098"><ele>839.0</ele><time>2026-05-02T08:54:30.999Z</time></trkpt><trkpt lat="40.12043111317506" lon="8.600318716998435"><ele>837.4000000000001</ele><time>2026-05-02T08:54:31.999Z</time></trkpt><trkpt lat="40.120323411873215" lon="8.600290078998608"><ele>835.8</ele><time>2026-05-02T08:54:32.999Z</time></trkpt><trkpt lat="40.12023682584773" lon="8.600261363247142"><ele>834.2</ele><time>2026-05-02T08:54:33.999Z</time></trkpt><trkpt lat="40.120181541985986" lon="8.600221775040012"><ele>832.5999999999999</ele><time>2026-05-02T08:54:34.999Z</time></trkpt><trkpt lat="40.12014807733218" lon="8.600109129397712"><ele>831.0</ele><time>2026-05-02T08:54:36.999Z</time></trkpt><trkpt lat="40.12017620827509" lon="8.599905345351933"><ele>831.0</ele><time>2026-05-02T08:54:38.999Z</time></trkpt><trkpt lat="40.12018488013327" lon="8.599749805440299"><ele>831.0</ele><time>2026-05-02T08:54:39.999Z</time></trkpt><trkpt lat="40.12021108005559" lon="8.59957438891515"><ele>831.0</ele><time>2026-05-02T08:54:40.999Z</time></trkpt><trkpt lat="40.12023862023882" lon="8.599394801431297"><ele>831.0</ele><time>2026-05-02T08:54:41.999Z</time></trkpt><trkpt lat="40.12027173005837" lon="8.599210160273438"><ele>830.3333333333333</ele><time>2026-05-02T08:54:42.999Z</time></trkpt><trkpt lat="40.120298960998774" lon="8.599009795800084"><ele>829.6666666666666</ele><time>2026-05-02T08:54:43.999Z</time></trkpt><trkpt lat="40.12031599762848" lon="8.598810446281973"><ele>829.0</ele><time>2026-05-02T08:54:44.999Z</time></trkpt><trkpt lat="40.120339769417136" lon="8.598626327298927"><ele>828.8000000000001</ele><time>2026-05-02T08:54:45.999Z</time></trkpt><trkpt lat="40.12035756643912" lon="8.59846709538898"><ele>828.6</ele><time>2026-05-02T08:54:46.999Z</time></trkpt><trkpt lat="40.12040636297243" lon="8.59834155534354"><ele>828.4</ele><time>2026-05-02T08:54:47.999Z</time></trkpt><trkpt lat="40.12041819937266" lon="8.598202598312225"><ele>828.2</ele><time>2026-05-02T08:54:49Z</time></trkpt><trkpt lat="40.12043768014395" lon="8.598067161717994"><ele>828.0</ele><time>2026-05-02T08:54:50Z</time></trkpt><trkpt lat="40.1204671693356" lon="8.597954247368687"><ele>828.0</ele><time>2026-05-02T08:54:51Z</time></trkpt><trkpt lat="40.12049802366927" lon="8.597864793438614"><ele>828.0</ele><time>2026-05-02T08:54:52Z</time></trkpt><trkpt lat="40.120532954902174" lon="8.597789811434673"><ele>828.0</ele><time>2026-05-02T08:54:53Z</time></trkpt><trkpt lat="40.120553268884706" lon="8.597709024563814"><ele>828.0</ele><time>2026-05-02T08:54:54Z</time></trkpt><trkpt lat="40.12053043936653" lon="8.597519580053527"><ele>828.0</ele><time>2026-05-02T08:54:56Z</time></trkpt><trkpt lat="40.12047802725278" lon="8.59739818543098"><ele>828.25</ele><time>2026-05-02T08:54:57Z</time></trkpt><trkpt lat="40.12042483645063" lon="8.597271570871008"><ele>828.5</ele><time>2026-05-02T08:54:58Z</time></trkpt><trkpt lat="40.12037215576194" lon="8.597134615696962"><ele>828.75</ele><time>2026-05-02T08:54:59Z</time></trkpt><trkpt lat="40.12032228626281" lon="8.59698248978834"><ele>829.0</ele><time>2026-05-02T08:55:00Z</time></trkpt><trkpt lat="40.120277664026304" lon="8.596833752227953"><ele>830.0</ele><time>2026-05-02T08:55:01Z</time></trkpt><trkpt lat="40.120228300201475" lon="8.596682124073242"><ele>831.0</ele><time>2026-05-02T08:55:02Z</time></trkpt><trkpt lat="40.120162061834364" lon="8.596551445042232"><ele>832.0</ele><time>2026-05-02T08:55:03Z</time></trkpt><trkpt lat="40.12007343826419" lon="8.596466297646826"><ele>833.0</ele><time>2026-05-02T08:55:04Z</time></trkpt><trkpt lat="40.11999870713407" lon="8.596350630366214"><ele>833.0</ele><time>2026-05-02T08:55:05Z</time></trkpt><trkpt lat="40.11990908311067" lon="8.596219691142053"><ele>833.0</ele><time>2026-05-02T08:55:06Z</time></trkpt><trkpt lat="40.1198380242843" lon="8.596063866244542"><ele>833.0</ele><time>2026-05-02T08:55:07Z</time></trkpt><trkpt lat="40.11978002100817" lon="8.595931590845154"><ele>833.0</ele><time>2026-05-02T08:55:08Z</time></trkpt><trkpt lat="40.119736530500504" lon="8.595798348759986"><ele>830.75</ele><time>2026-05-02T08:55:09Z</time></trkpt><trkpt lat="40.11971309348295" lon="8.595679811255238"><ele>828.5</ele><time>2026-05-02T08:55:10Z</time></trkpt><trkpt lat="40.119689306714776" lon="8.595545858856697"><ele>826.25</ele><time>2026-05-02T08:55:11Z</time></trkpt><trkpt lat="40.119670825694236" lon="8.595388301024713"><ele>824.0</ele><time>2026-05-02T08:55:12Z</time></trkpt><trkpt lat="40.11967893679461" lon="8.595208879308771"><ele>824.0</ele><time>2026-05-02T08:55:13Z</time></trkpt><trkpt lat="40.11965471419458" lon="8.595034414735679"><ele>824.0</ele><time>2026-05-02T08:55:14Z</time></trkpt><trkpt lat="40.11962112189166" lon="8.594866647698705"><ele>824.0</ele><time>2026-05-02T08:55:15Z</time></trkpt><trkpt lat="40.11961615890883" lon="8.594684454994402"><ele>824.0</ele><time>2026-05-02T08:55:16Z</time></trkpt><trkpt lat="40.120339769417136" lon="8.598626327298927"><ele>824.8000000000001</ele><time>2026-05-02T08:54:45.999Z</time></trkpt><trkpt lat="40.12035756643912" lon="8.59846709538898"><ele>825.6</ele><time>2026-05-02T08:54:46.999Z</time></trkpt><trkpt lat="40.12040636297243" lon="8.59834155534354"><ele>826.4</ele><time>2026-05-02T08:54:47.999Z</time></trkpt><trkpt lat="40.12041819937266" lon="8.598202598312225"><ele>827.2</ele><time>2026-05-02T08:54:49Z</time></trkpt><trkpt lat="40.12043768014395" lon="8.598067161717994"><ele>828.0</ele><time>2026-05-02T08:54:50Z</time></trkpt><trkpt lat="40.1204671693356" lon="8.597954247368687"><ele>828.0</ele><time>2026-05-02T08:54:51Z</time></trkpt><trkpt lat="40.12049802366927" lon="8.597864793438614"><ele>828.0</ele><time>2026-05-02T08:54:52Z</time></trkpt><trkpt lat="40.120532954902174" lon="8.597789811434673"><ele>828.0</ele><time>2026-05-02T08:54:53Z</time></trkpt><trkpt lat="40.120553268884706" lon="8.597709024563814"><ele>828.0</ele><time>2026-05-02T08:54:54Z</time></trkpt><trkpt lat="40.12053043936653" lon="8.597519580053527"><ele>828.0</ele><time>2026-05-02T08:54:56Z</time></trkpt><trkpt lat="40.12047802725278" lon="8.59739818543098"><ele>828.25</ele><time>2026-05-02T08:54:57Z</time></trkpt><trkpt lat="40.12042483645063" lon="8.597271570871008"><ele>828.5</ele><time>2026-05-02T08:54:58Z</time></trkpt><trkpt lat="40.12037215576194" lon="8.597134615696962"><ele>828.75</ele><time>2026-05-02T08:54:59Z</time></trkpt><trkpt lat="40.12032228626281" lon="8.59698248978834"><ele>829.0</ele><time>2026-05-02T08:55:00Z</time></trkpt><trkpt lat="40.120277664026304" lon="8.596833752227953"><ele>830.0</ele><time>2026-05-02T08:55:01Z</time></trkpt><trkpt lat="40.120228300201475" lon="8.596682124073242"><ele>831.0</ele><time>2026-05-02T08:55:02Z</time></trkpt><trkpt lat="40.120162061834364" lon="8.596551445042232"><ele>832.0</ele><time>2026-05-02T08:55:03Z</time></trkpt><trkpt lat="40.12007343826419" lon="8.596466297646826"><ele>833.0</ele><time>2026-05-02T08:55:04Z</time></trkpt><trkpt lat="40.11999870713407" lon="8.596350630366214"><ele>833.0</ele><time>2026-05-02T08:55:05Z</time></trkpt><trkpt lat="40.11990908311067" lon="8.596219691142053"><ele>833.0</ele><time>2026-05-02T08:55:06Z</time></trkpt><trkpt lat="40.1198380242843" lon="8.596063866244542"><ele>833.0</ele><time>2026-05-02T08:55:07Z</time></trkpt><trkpt lat="40.11978002100817" lon="8.595931590845154"><ele>833.0</ele><time>2026-05-02T08:55:08Z</time></trkpt><trkpt lat="40.119736530500504" lon="8.595798348759986"><ele>830.75</ele><time>2026-05-02T08:55:09Z</time></trkpt><trkpt lat="40.11971309348295" lon="8.595679811255238"><ele>828.5</ele><time>2026-05-02T08:55:10Z</time></trkpt><trkpt lat="40.119689306714776" lon="8.595545858856697"><ele>826.25</ele><time>2026-05-02T08:55:11Z</time></trkpt><trkpt lat="40.119670825694236" lon="8.595388301024713"><ele>824.0</ele><time>2026-05-02T08:55:12Z</time></trkpt><trkpt lat="40.11967893679461" lon="8.595208879308771"><ele>824.0</ele><time>2026-05-02T08:55:13Z</time></trkpt><trkpt lat="40.11965471419458" lon="8.595034414735679"><ele>824.0</ele><time>2026-05-02T08:55:14Z</time></trkpt><trkpt lat="40.11962112189166" lon="8.594866647698705"><ele>824.0</ele><time>2026-05-02T08:55:15Z</time></trkpt><trkpt lat="40.11961615890883" lon="8.594684454994402"><ele>824.0</ele><time>2026-05-02T08:55:16Z</time></trkpt><trkpt lat="40.11961061229602" lon="8.59450980971976"><ele>824.25</ele><time>2026-05-02T08:55:17Z</time></trkpt><trkpt lat="40.11959760301807" lon="8.594352958970665"><ele>824.5</ele><time>2026-05-02T08:55:18Z</time></trkpt><trkpt lat="40.11955316783339" lon="8.594177512415678"><ele>824.75</ele><time>2026-05-02T08:55:19Z</time></trkpt><trkpt lat="40.119479324234554" lon="8.594020136098264"><ele>825.0</ele><time>2026-05-02T08:55:20Z</time></trkpt><trkpt lat="40.11941193424041" lon="8.593855126610103"><ele>825.0</ele><time>2026-05-02T08:55:21Z</time></trkpt><trkpt lat="40.11934312224554" lon="8.593686635232247"><ele>825.0</ele><time>2026-05-02T08:55:22Z</time></trkpt><trkpt lat="40.119272026389346" lon="8.593512551711706"><ele>825.0</ele><time>2026-05-02T08:55:23Z</time></trkpt><trkpt lat="40.11920899042797" lon="8.593357395689372"><ele>825.0</ele><time>2026-05-02T08:55:24Z</time></trkpt><trkpt lat="40.11915341623196" lon="8.593220501654198"><ele>825.6</ele><time>2026-05-02T08:55:25Z</time></trkpt><trkpt lat="40.11910111999325" lon="8.593094710069156"><ele>826.2</ele><time>2026-05-02T08:55:26Z</time></trkpt><trkpt lat="40.119052791469045" lon="8.592972520540687"><ele>826.8</ele><time>2026-05-02T08:55:27Z</time></trkpt><trkpt lat="40.119013415182295" lon="8.592841002777513"><ele>827.4</ele><time>2026-05-02T08:55:28Z</time></trkpt><trkpt lat="40.11898534266559" lon="8.592700374171763"><ele>828.0</ele><time>2026-05-02T08:55:29Z</time></trkpt><trkpt lat="40.11895871297486" lon="8.59254538534899"><ele>827.0</ele><time>2026-05-02T08:55:30Z</time></trkpt><trkpt lat="40.118933823880354" lon="8.592390707336996"><ele>826.0</ele><time>2026-05-02T08:55:31Z</time></trkpt><trkpt lat="40.11891003071807" lon="8.592242840268034"><ele>825.0</ele><time>2026-05-02T08:55:32Z</time></trkpt><trkpt lat="40.118872056456105" lon="8.592095365009431"><ele>824.0</ele><time>2026-05-02T08:55:33Z</time></trkpt><trkpt lat="40.11884903760222" lon="8.59195053026148"><ele>824.0</ele><time>2026-05-02T08:55:34Z</time></trkpt><trkpt lat="40.11882014490753" lon="8.591821422662512"><ele>824.0</ele><time>2026-05-02T08:55:35Z</time></trkpt><trkpt lat="40.11877145842083" lon="8.591675943849793"><ele>824.0</ele><time>2026-05-02T08:55:36Z</time></trkpt><trkpt lat="40.11871472192023" lon="8.59149453621213"><ele>824.0</ele><time>2026-05-02T08:55:37Z</time></trkpt><trkpt lat="40.1186870621318" lon="8.591337502248335"><ele>824.0</ele><time>2026-05-02T08:55:38Z</time></trkpt><trkpt lat="40.11863537226631" lon="8.591203241519821"><ele>824.0</ele><time>2026-05-02T08:55:39Z</time></trkpt><trkpt lat="40.1185962132595" lon="8.591056155549444"><ele>824.0</ele><time>2026-05-02T08:55:40Z</time></trkpt><trkpt lat="40.11855764483663" lon="8.590923038917516"><ele>824.0</ele><time>2026-05-02T08:55:41Z</time></trkpt><trkpt lat="40.11852708835415" lon="8.590798332158323"><ele>824.0</ele><time>2026-05-02T08:55:42Z</time></trkpt><trkpt lat="40.11853492636728" lon="8.590665186612606"><ele>824.0</ele><time>2026-05-02T08:55:43Z</time></trkpt><trkpt lat="40.1185212425336" lon="8.59050030595893"><ele>824.0</ele><time>2026-05-02T08:55:44Z</time></trkpt><trkpt lat="40.11852715816067" lon="8.590300929755243"><ele>824.0</ele><time>2026-05-02T08:55:45Z</time></trkpt><trkpt lat="40.11852968160396" lon="8.590079146953741"><ele>824.0</ele><time>2026-05-02T08:55:46Z</time></trkpt><trkpt lat="40.118534265428416" lon="8.589876189820176"><ele>824.0</ele><time>2026-05-02T08:55:47Z</time></trkpt><trkpt lat="40.11853304647617" lon="8.589700541702065"><ele>824.0</ele><time>2026-05-02T08:55:48Z</time></trkpt><trkpt lat="40.1185380739872" lon="8.58953843200943"><ele>824.0</ele><time>2026-05-02T08:55:49Z</time></trkpt><trkpt lat="40.11853796313651" lon="8.589357890182866"><ele>824.0</ele><time>2026-05-02T08:55:50Z</time></trkpt><trkpt lat="40.11855026394969" lon="8.589172765476018"><ele>824.0</ele><time>2026-05-02T08:55:51Z</time></trkpt><trkpt lat="40.118556684879756" lon="8.58899097790202"><ele>824.0</ele><time>2026-05-02T08:55:52Z</time></trkpt><trkpt lat="40.118562609172734" lon="8.588807641776391"><ele>824.0</ele><time>2026-05-02T08:55:53Z</time></trkpt><trkpt lat="40.11856134558347" lon="8.588630105923498"><ele>824.0</ele><time>2026-05-02T08:55:54Z</time></trkpt><trkpt lat="40.11855679133622" lon="8.588457818293678"><ele>824.0</ele><time>2026-05-02T08:55:55Z</time></trkpt><trkpt lat="40.11856581307022" lon="8.588287254609574"><ele>824.0</ele><time>2026-05-02T08:55:56Z</time></trkpt><trkpt lat="40.11856795261112" lon="8.58814375919714"><ele>824.0</ele><time>2026-05-02T08:55:57Z</time></trkpt><trkpt lat="40.118560262274414" lon="8.588027332843671"><ele>824.0</ele><time>2026-05-02T08:55:58Z</time></trkpt><trkpt lat="40.11853391345492" lon="8.5879285107998"><ele>824.0</ele><time>2026-05-02T08:55:59Z</time></trkpt><trkpt lat="40.1184845272286" lon="8.587876111957842"><ele>823.3333333333334</ele><time>2026-05-02T08:56:00Z</time></trkpt><trkpt lat="40.11841478665341" lon="8.587826347002576"><ele>822.6666666666667</ele><time>2026-05-02T08:56:00.999Z</time></trkpt><trkpt lat="40.118341196484344" lon="8.587743431175577"><ele>822.0</ele><time>2026-05-02T08:56:01.999Z</time></trkpt><trkpt lat="40.118250316758065" lon="8.587690542933908"><ele>821.3333333333333</ele><time>2026-05-02T08:56:02.999Z</time></trkpt><trkpt lat="40.11818492716153" lon="8.587643163809245"><ele>820.6666666666666</ele><time>2026-05-02T08:56:03.999Z</time></trkpt><trkpt lat="40.118155929062546" lon="8.587560491596662"><ele>820.0</ele><time>2026-05-02T08:56:04.999Z</time></trkpt><trkpt lat="40.118159004537056" lon="8.587475634360741"><ele>818.8333333333333</ele><time>2026-05-02T08:56:05.999Z</time></trkpt><trkpt lat="40.11816327480059" lon="8.587382591618212"><ele>817.6666666666666</ele><time>2026-05-02T08:56:06.999Z</time></trkpt><trkpt lat="40.118109763386656" lon="8.587306574496782"><ele>816.5</ele><time>2026-05-02T08:56:08.999Z</time></trkpt><trkpt lat="40.11801532251836" lon="8.587294414070026"><ele>815.3333333333333</ele><time>2026-05-02T08:56:10.999Z</time></trkpt><trkpt lat="40.11793909478932" lon="8.587330099957592"><ele>814.1666666666666</ele><time>2026-05-02T08:56:11.999Z</time></trkpt><trkpt lat="40.11787435899078" lon="8.587346220884816"><ele>813.0</ele><time>2026-05-02T08:56:12.999Z</time></trkpt><trkpt lat="40.117796201931334" lon="8.587310312334223"><ele>813.0</ele><time>2026-05-02T08:56:13.999Z</time></trkpt><trkpt lat="40.11771838484927" lon="8.587262534311634"><ele>813.0</ele><time>2026-05-02T08:56:14.999Z</time></trkpt><trkpt lat="40.11761403838509" lon="8.587234365677126"><ele>813.0</ele><time>2026-05-02T08:56:15.999Z</time></trkpt><trkpt lat="40.11751998745688" lon="8.587221036141665"><ele>813.0</ele><time>2026-05-02T08:56:16.999Z</time></trkpt><trkpt lat="40.11744559934027" lon="8.5872051870622"><ele>813.0</ele><time>2026-05-02T08:56:17.999Z</time></trkpt><trkpt lat="40.11735177805123" lon="8.587216950435803"><ele>812.1666666666666</ele><time>2026-05-02T08:56:18.999Z</time></trkpt><trkpt lat="40.11727687594838" lon="8.58723324809001"><ele>811.3333333333333</ele><time>2026-05-02T08:56:19.999Z</time></trkpt><trkpt lat="40.11720517485543" lon="8.587282071339414"><ele>810.5</ele><time>2026-05-02T08:56:20.999Z</time></trkpt><trkpt lat="40.11715132506922" lon="8.587330114743056"><ele>809.6666666666666</ele><time>2026-05-02T08:56:21.999Z</time></trkpt><trkpt lat="40.11708015501675" lon="8.587344396797569"><ele>808.8333333333333</ele><time>2026-05-02T08:56:22.999Z</time></trkpt><trkpt lat="40.11698866300825" lon="8.587342395951719"><ele>808.0</ele><time>2026-05-02T08:56:23.999Z</time></trkpt><trkpt lat="40.116886039676274" lon="8.58735899694611"><ele>808.0</ele><time>2026-05-02T08:56:24.999Z</time></trkpt><trkpt lat="40.11676891933185" lon="8.587352241772296"><ele>808.0</ele><time>2026-05-02T08:56:25.999Z</time></trkpt><trkpt lat="40.11667014879201" lon="8.587308757425228"><ele>808.0</ele><time>2026-05-02T08:56:26.999Z</time></trkpt><trkpt lat="40.11657361940554" lon="8.587278040649588"><ele>808.0</ele><time>2026-05-02T08:56:27.999Z</time></trkpt><trkpt lat="40.116487078808305" lon="8.587247468102985"><ele>808.0</ele><time>2026-05-02T08:56:28.999Z</time></trkpt><trkpt lat="40.116405119469334" lon="8.587233570403916"><ele>807.4285714285714</ele><time>2026-05-02T08:56:29.999Z</time></trkpt><trkpt lat="40.116333530827596" lon="8.587224917306152"><ele>806.8571428571429</ele><time>2026-05-02T08:56:30.999Z</time></trkpt><trkpt lat="40.11627144290762" lon="8.58717923554835"><ele>806.2857142857142</ele><time>2026-05-02T08:56:32.999Z</time></trkpt><trkpt lat="40.116254398347856" lon="8.587098172895493"><ele>805.7142857142858</ele><time>2026-05-02T08:56:33.999Z</time></trkpt><trkpt lat="40.116241730752314" lon="8.586993128781266"><ele>805.1428571428572</ele><time>2026-05-02T08:56:34.999Z</time></trkpt><trkpt lat="40.11621311636081" lon="8.58691357221091"><ele>804.5714285714286</ele><time>2026-05-02T08:56:35.999Z</time></trkpt><trkpt lat="40.1161499752201" lon="8.58684204543996"><ele>804.0</ele><time>2026-05-02T08:56:36.999Z</time></trkpt><trkpt lat="40.11610213744175" lon="8.58676788511097"><ele>802.8000000000001</ele><time>2026-05-02T08:56:37.999Z</time></trkpt><trkpt lat="40.116024764855474" lon="8.586645122496673"><ele>801.6</ele><time>2026-05-02T08:56:39.999Z</time></trkpt><trkpt lat="40.11588543371215" lon="8.586619172400118"><ele>800.4</ele><time>2026-05-02T08:56:41.999Z</time></trkpt><trkpt lat="40.11580736099895" lon="8.586590133162323"><ele>799.2</ele><time>2026-05-02T08:56:42.999Z</time></trkpt><trkpt lat="40.11573268381546" lon="8.586554501530326"><ele>798.0</ele><time>2026-05-02T08:56:43.999Z</time></trkpt><trkpt lat="40.11564464596908" lon="8.586525715291733"><ele>797.0</ele><time>2026-05-02T08:56:44.999Z</time></trkpt><trkpt lat="40.11555825091669" lon="8.586495817319932"><ele>796.0</ele><time>2026-05-02T08:56:45.999Z</time></trkpt><trkpt lat="40.1154843010513" lon="8.586450804577513"><ele>795.0</ele><time>2026-05-02T08:56:46.999Z</time></trkpt><trkpt lat="40.11541380296853" lon="8.586393731612379"><ele>794.0</ele><time>2026-05-02T08:56:47.999Z</time></trkpt><trkpt lat="40.11533707137255" lon="8.586363953194073"><ele>793.0</ele><time>2026-05-02T08:56:48.999Z</time></trkpt><trkpt lat="40.11526540321464" lon="8.586359387461075"><ele>792.0</ele><time>2026-05-02T08:56:49.999Z</time></trkpt><trkpt lat="40.11518967817506" lon="8.586366480811783"><ele>792.0</ele><time>2026-05-02T08:56:50.999Z</time></trkpt><trkpt lat="40.11512513511633" lon="8.586364429366595"><ele>792.0</ele><time>2026-05-02T08:56:51.999Z</time></trkpt><trkpt lat="40.11505949295731" lon="8.586369809096222"><ele>792.0</ele><time>2026-05-02T08:56:52.999Z</time></trkpt><trkpt lat="40.114949167376395" lon="8.586388766886142"><ele>792.0</ele><time>2026-05-02T08:56:55Z</time></trkpt><trkpt lat="40.11487662711184" lon="8.586322771633885"><ele>792.0</ele><time>2026-05-02T08:56:57Z</time></trkpt><trkpt lat="40.11483156282938" lon="8.586232215194038"><ele>792.0</ele><time>2026-05-02T08:56:59Z</time></trkpt><trkpt lat="40.11477391409508" lon="8.586169781202482"><ele>788.3333333333333</ele><time>2026-05-02T08:57:03Z</time></trkpt><trkpt lat="40.11452465309374" lon="8.585855200100223"><ele>784.6666666666666</ele><time>2026-05-02T08:57:05Z</time></trkpt><trkpt lat="40.11447277848461" lon="8.585806882483643"><ele>781.0</ele><time>2026-05-02T08:57:06Z</time></trkpt><trkpt lat="40.1143924059472" lon="8.585675414212641"><ele>780.9999999999999</ele><time>2026-05-02T08:57:08Z</time></trkpt><trkpt lat="40.11434974156963" lon="8.585605842782396"><ele>781.0</ele><time>2026-05-02T08:57:09Z</time></trkpt><trkpt lat="40.114295814147944" lon="8.58554368802976"><ele>781.0</ele><time>2026-05-02T08:57:10Z</time></trkpt><trkpt lat="40.114232088441724" lon="8.585495396289987"><ele>781.0</ele><time>2026-05-02T08:57:11Z</time></trkpt><trkpt lat="40.114124891302424" lon="8.585465270925772"><ele>780.9999999999999</ele><time>2026-05-02T08:57:13Z</time></trkpt><trkpt lat="40.11400697678012" lon="8.585420516053627"><ele>781.0</ele><time>2026-05-02T08:57:15Z</time></trkpt><trkpt lat="40.11392634663349" lon="8.585401881074384"><ele>778.9999999999999</ele><time>2026-05-02T08:57:16Z</time></trkpt><trkpt lat="40.11386146813532" lon="8.585373128656485"><ele>777.0</ele><time>2026-05-02T08:57:17Z</time></trkpt><trkpt lat="40.11380007685171" lon="8.58529498024154"><ele>775.0</ele><time>2026-05-02T08:57:19Z</time></trkpt><trkpt lat="40.11371611984447" lon="8.585168347607087"><ele>773.0</ele><time>2026-05-02T08:57:21Z</time></trkpt><trkpt lat="40.113661033739156" lon="8.58511592827911"><ele>770.9999999999999</ele><time>2026-05-02T08:57:22Z</time></trkpt><trkpt lat="40.113608824323514" lon="8.585066501517021"><ele>769.0</ele><time>2026-05-02T08:57:23Z</time></trkpt><trkpt lat="40.11352743575304" lon="8.58499779792045"><ele>768.6666666666666</ele><time>2026-05-02T08:57:25Z</time></trkpt><trkpt lat="40.11347892142162" lon="8.584943726623292"><ele>768.3333333333333</ele><time>2026-05-02T08:57:26Z</time></trkpt><trkpt lat="40.11341147178817" lon="8.584914469530611"><ele>768.0</ele><time>2026-05-02T08:57:27Z</time></trkpt><trkpt lat="40.11335587332187" lon="8.584868397598553"><ele>767.6666666666666</ele><time>2026-05-02T08:57:28Z</time></trkpt><trkpt lat="40.113279603649765" lon="8.5847900763566"><ele>767.3333333333333</ele><time>2026-05-02T08:57:29Z</time></trkpt><trkpt lat="40.11320643550752" lon="8.584725834164278"><ele>767.0</ele><time>2026-05-02T08:57:30Z</time></trkpt><trkpt lat="40.1131519192888" lon="8.584675964893606"><ele>765.2</ele><time>2026-05-02T08:57:31Z</time></trkpt><trkpt lat="40.11304507489267" lon="8.584588811099522"><ele>763.4000000000001</ele><time>2026-05-02T08:57:33Z</time></trkpt><trkpt lat="40.112984631399" lon="8.58455342108764"><ele>761.5999999999999</ele><time>2026-05-02T08:57:34Z</time></trkpt><trkpt lat="40.112893454413985" lon="8.584483525503275"><ele>759.8</ele><time>2026-05-02T08:57:36Z</time></trkpt><trkpt lat="40.11281440680288" lon="8.584399413905665"><ele>758.0</ele><time>2026-05-02T08:57:38Z</time></trkpt><trkpt lat="40.11272395586151" lon="8.58435683913145"><ele>756.8</ele><time>2026-05-02T08:57:40Z</time></trkpt><trkpt lat="40.112653779421116" lon="8.584333841880284"><ele>755.5999999999999</ele><time>2026-05-02T08:57:41Z</time></trkpt><trkpt lat="40.11255391322661" lon="8.584261949155616"><ele>754.4000000000001</ele><time>2026-05-02T08:57:43Z</time></trkpt><trkpt lat="40.11254491973739" lon="8.584125414303903"><ele>753.2</ele><time>2026-05-02T08:57:45Z</time></trkpt><trkpt lat="40.112575306058964" lon="8.58401334135203"><ele>752.0</ele><time>2026-05-02T08:57:46Z</time></trkpt><trkpt lat="40.11264572968581" lon="8.583839621713505"><ele>750.6666666666666</ele><time>2026-05-02T08:57:47Z</time></trkpt><trkpt lat="40.112710226289146" lon="8.583639334751583"><ele>749.3333333333334</ele><time>2026-05-02T08:57:48Z</time></trkpt><trkpt lat="40.1127801478577" lon="8.583412992133658"><ele>748.0</ele><time>2026-05-02T08:57:49Z</time></trkpt><trkpt lat="40.11284092123081" lon="8.583155910862088"><ele>748.0</ele><time>2026-05-02T08:57:50Z</time></trkpt><trkpt lat="40.11285557209862" lon="8.582862834477769"><ele>748.0</ele><time>2026-05-02T08:57:51Z</time></trkpt><trkpt lat="40.1128444258882" lon="8.58262553349169"><ele>748.0</ele><time>2026-05-02T08:57:52Z</time></trkpt><trkpt lat="40.11287036581214" lon="8.582427744122763"><ele>747.3333333333334</ele><time>2026-05-02T08:57:53Z</time></trkpt><trkpt lat="40.11293663806057" lon="8.582259816749835"><ele>746.6666666666666</ele><time>2026-05-02T08:57:54Z</time></trkpt><trkpt lat="40.113041137864904" lon="8.582081247044176"><ele>746.0</ele><time>2026-05-02T08:57:55Z</time></trkpt><trkpt lat="40.113165413994025" lon="8.581897316410684"><ele>747.6666666666666</ele><time>2026-05-02T08:57:56Z</time></trkpt><trkpt lat="40.11328860153033" lon="8.581697218969081"><ele>749.3333333333334</ele><time>2026-05-02T08:57:57Z</time></trkpt><trkpt lat="40.1134170684659" lon="8.581484232149565"><ele>751.0</ele><time>2026-05-02T08:57:58Z</time></trkpt><trkpt lat="40.113562798521734" lon="8.581278456464132"><ele>750.3333333333334</ele><time>2026-05-02T08:57:59Z</time></trkpt><trkpt lat="40.11369740367302" lon="8.581104279961965"><ele>749.6666666666666</ele><time>2026-05-02T08:58:00Z</time></trkpt><trkpt lat="40.11380860470055" lon="8.580934050554845"><ele>749.0</ele><time>2026-05-02T08:58:01Z</time></trkpt><trkpt lat="40.11389033502896" lon="8.580715511853528"><ele>749.0</ele><time>2026-05-02T08:58:02Z</time></trkpt><trkpt lat="40.11396460605253" lon="8.580479997593205"><ele>749.0</ele><time>2026-05-02T08:58:02.999Z</time></trkpt><trkpt lat="40.11402879613242" lon="8.580239268436493"><ele>749.0</ele><time>2026-05-02T08:58:03.999Z</time></trkpt><trkpt lat="40.11409658506383" lon="8.579984256191837"><ele>750.3333333333333</ele><time>2026-05-02T08:58:04.999Z</time></trkpt><trkpt lat="40.114133619660855" lon="8.579706655884769"><ele>751.6666666666666</ele><time>2026-05-02T08:58:05.999Z</time></trkpt><trkpt lat="40.11416588530134" lon="8.579435204849972"><ele>753.0</ele><time>2026-05-02T08:58:06.999Z</time></trkpt><trkpt lat="40.114194544250154" lon="8.579178941051298"><ele>753.0</ele><time>2026-05-02T08:58:07.999Z</time></trkpt><trkpt lat="40.114220024193706" lon="8.578932206507217"><ele>753.0</ele><time>2026-05-02T08:58:08.999Z</time></trkpt><trkpt lat="40.11424540394257" lon="8.578730105627908"><ele>753.0</ele><time>2026-05-02T08:58:09.999Z</time></trkpt><trkpt lat="40.114256184786676" lon="8.578532238449583"><ele>753.0</ele><time>2026-05-02T08:58:10.999Z</time></trkpt><trkpt lat="40.114259974771684" lon="8.57832063383258"><ele>753.0</ele><time>2026-05-02T08:58:11.999Z</time></trkpt><trkpt lat="40.11424597929257" lon="8.57811803957418"><ele>753.0</ele><time>2026-05-02T08:58:12.999Z</time></trkpt><trkpt lat="40.11423700305302" lon="8.577908011274518"><ele>752.25</ele><time>2026-05-02T08:58:13.999Z</time></trkpt><trkpt lat="40.114217261363294" lon="8.577702324842251"><ele>751.5</ele><time>2026-05-02T08:58:14.999Z</time></trkpt><trkpt lat="40.11422177019212" lon="8.577516645657836"><ele>750.75</ele><time>2026-05-02T08:58:15.999Z</time></trkpt><trkpt lat="40.1142188288177" lon="8.577353046446493"><ele>750.0</ele><time>2026-05-02T08:58:16.999Z</time></trkpt><trkpt lat="40.11422987371028" lon="8.57720921657902"><ele>750.0</ele><time>2026-05-02T08:58:17.999Z</time></trkpt><trkpt lat="40.11425267207352" lon="8.577092200240454"><ele>750.0</ele><time>2026-05-02T08:58:18.999Z</time></trkpt><trkpt lat="40.11426309352169" lon="8.577007030277008"><ele>744.0</ele><time>2026-05-02T08:58:19.999Z</time></trkpt><trkpt lat="40.11426757944165" lon="8.576918817834956"><ele>744.0</ele><time>2026-05-02T08:58:25.999Z</time></trkpt></trkseg><trkseg><trkpt lat="40.11425363611941" lon="8.576447323071026"><ele>744.0</ele><time>2026-05-02T09:56:47.415Z</time></trkpt><trkpt lat="40.11428622512628" lon="8.57677627620981"><ele>744.0</ele><time>2026-05-02T09:56:50.415Z</time></trkpt><trkpt lat="40.11429970195956" lon="8.576858566321418"><ele>744.0</ele><time>2026-05-02T09:57:04Z</time></trkpt><trkpt lat="40.11434846164572" lon="8.576794209886817"><ele>744.0</ele><time>2026-05-02T09:59:40.999Z</time></trkpt><trkpt lat="40.11440002479444" lon="8.576668956234814"><ele>744.0</ele><time>2026-05-02T09:59:44.999Z</time></trkpt><trkpt lat="40.114474896648495" lon="8.576547804998812"><ele>744.0</ele><time>2026-05-02T09:59:46.999Z</time></trkpt><trkpt lat="40.11451380393879" lon="8.576472447784573"><ele>744.0</ele><time>2026-05-02T09:59:47.999Z</time></trkpt><trkpt lat="40.11456184541192" lon="8.576391598902298"><ele>744.0</ele><time>2026-05-02T09:59:48.999Z</time></trkpt><trkpt lat="40.114606343491225" lon="8.5763065875426"><ele>744.0</ele><time>2026-05-02T09:59:49.999Z</time></trkpt><trkpt lat="40.11465726492895" lon="8.576212573111944"><ele>744.0</ele><time>2026-05-02T09:59:50.999Z</time></trkpt><trkpt lat="40.11471772694716" lon="8.57610869196661"><ele>744.8000000000001</ele><time>2026-05-02T09:59:51.999Z</time></trkpt><trkpt lat="40.11477367841636" lon="8.576012842571616"><ele>745.6</ele><time>2026-05-02T09:59:52.999Z</time></trkpt><trkpt lat="40.114835669195585" lon="8.575896854644121"><ele>746.4</ele><time>2026-05-02T09:59:53.999Z</time></trkpt><trkpt lat="40.11490494428887" lon="8.575778121015173"><ele>747.2</ele><time>2026-05-02T09:59:54.999Z</time></trkpt><trkpt lat="40.114970703739466" lon="8.575661620926052"><ele>748.0</ele><time>2026-05-02T09:59:55.999Z</time></trkpt><trkpt lat="40.11503467066076" lon="8.575540831255896"><ele>748.0</ele><time>2026-05-02T09:59:56.999Z</time></trkpt><trkpt lat="40.11509988322336" lon="8.575422297216264"><ele>748.0</ele><time>2026-05-02T09:59:57.999Z</time></trkpt><trkpt lat="40.115171184993564" lon="8.575299717482757"><ele>748.0</ele><time>2026-05-02T09:59:58.999Z</time></trkpt><trkpt lat="40.11524296224261" lon="8.57518258631892"><ele>748.0</ele><time>2026-05-02T09:59:59.999Z</time></trkpt><trkpt lat="40.115320195278926" lon="8.575076274007678"><ele>746.5</ele><time>2026-05-02T10:00:00.999Z</time></trkpt><trkpt lat="40.11540253759857" lon="8.57497576024621"><ele>745.0</ele><time>2026-05-02T10:00:01.999Z</time></trkpt><trkpt lat="40.11549428814513" lon="8.574873998074413"><ele>743.5</ele><time>2026-05-02T10:00:02.999Z</time></trkpt><trkpt lat="40.11559043532391" lon="8.574769378806671"><ele>742.0</ele><time>2026-05-02T10:00:03.999Z</time></trkpt><trkpt lat="40.11569628043293" lon="8.574664768172283"><ele>741.75</ele><time>2026-05-02T10:00:04.999Z</time></trkpt><trkpt lat="40.11580721301238" lon="8.57456119516215"><ele>741.5</ele><time>2026-05-02T10:00:05.999Z</time></trkpt><trkpt lat="40.115918974659195" lon="8.574460838692719"><ele>741.25</ele><time>2026-05-02T10:00:06.999Z</time></trkpt><trkpt lat="40.11603684054343" lon="8.574367998991063"><ele>741.0</ele><time>2026-05-02T10:00:07.999Z</time></trkpt><trkpt lat="40.116139398973" lon="8.57425039583367"><ele>741.0</ele><time>2026-05-02T10:00:08.999Z</time></trkpt><trkpt lat="40.116244118746955" lon="8.574125697452795"><ele>741.0</ele><time>2026-05-02T10:00:09.999Z</time></trkpt><trkpt lat="40.11635006291403" lon="8.573999540954398"><ele>741.0</ele><time>2026-05-02T10:00:10.999Z</time></trkpt><trkpt lat="40.11646123964368" lon="8.573871384035552"><ele>741.0</ele><time>2026-05-02T10:00:11.999Z</time></trkpt><trkpt lat="40.11657693845664" lon="8.573743869040998"><ele>740.25</ele><time>2026-05-02T10:00:12.999Z</time></trkpt><trkpt lat="40.116682607497765" lon="8.573627408027521"><ele>739.5</ele><time>2026-05-02T10:00:13.999Z</time></trkpt><trkpt lat="40.116780209621695" lon="8.573518035281923"><ele>738.75</ele><time>2026-05-02T10:00:14.999Z</time></trkpt><trkpt lat="40.11687400055794" lon="8.573377458249242"><ele>738.0</ele><time>2026-05-02T10:00:15.999Z</time></trkpt><trkpt lat="40.11697338486222" lon="8.573239598604781"><ele>738.0</ele><time>2026-05-02T10:00:16.999Z</time></trkpt><trkpt lat="40.11705111467165" lon="8.573068132586169"><ele>738.0</ele><time>2026-05-02T10:00:17.999Z</time></trkpt><trkpt lat="40.117098225086416" lon="8.572878770057144"><ele>738.0</ele><time>2026-05-02T10:00:18.999Z</time></trkpt><trkpt lat="40.11714341979883" lon="8.572686911510274"><ele>734.0</ele><time>2026-05-02T10:00:19.999Z</time></trkpt><trkpt lat="40.1171886940855" lon="8.572493206005262"><ele>730.0</ele><time>2026-05-02T10:00:20.999Z</time></trkpt><trkpt lat="40.117235903383076" lon="8.572309991192725"><ele>726.0</ele><time>2026-05-02T10:00:21.999Z</time></trkpt><trkpt lat="40.117314399807526" lon="8.572190720866883"><ele>722.0</ele><time>2026-05-02T10:00:22.999Z</time></trkpt><trkpt lat="40.11739836363937" lon="8.572091842642951"><ele>721.4000000000001</ele><time>2026-05-02T10:00:23.999Z</time></trkpt><trkpt lat="40.11750453365534" lon="8.572020728633259"><ele>720.8000000000001</ele><time>2026-05-02T10:00:24.999Z</time></trkpt><trkpt lat="40.11761050315888" lon="8.571964318173816"><ele>720.2</ele><time>2026-05-02T10:00:25.999Z</time></trkpt><trkpt lat="40.11767889277934" lon="8.571886560142023"><ele>719.6</ele><time>2026-05-02T10:00:26.999Z</time></trkpt><trkpt lat="40.117746078140634" lon="8.571825007985192"><ele>719.0</ele><time>2026-05-02T10:00:27.999Z</time></trkpt><trkpt lat="40.11777281539566" lon="8.571695633174263"><ele>719.0</ele><time>2026-05-02T10:00:28.999Z</time></trkpt><trkpt lat="40.117733712051646" lon="8.571546620642062"><ele>719.0</ele><time>2026-05-02T10:00:29.999Z</time></trkpt><trkpt lat="40.117680298323705" lon="8.571402120047132"><ele>719.0</ele><time>2026-05-02T10:00:30.999Z</time></trkpt><trkpt lat="40.11760360203785" lon="8.57125962447392"><ele>719.0</ele><time>2026-05-02T10:00:31.999Z</time></trkpt><trkpt lat="40.1175311036069" lon="8.57111632882236"><ele>716.75</ele><time>2026-05-02T10:00:32.998Z</time></trkpt><trkpt lat="40.1174684103708" lon="8.570955651480116"><ele>714.5</ele><time>2026-05-02T10:00:33.998Z</time></trkpt><trkpt lat="40.11743714061957" lon="8.570771948120116"><ele>712.25</ele><time>2026-05-02T10:00:34.998Z</time></trkpt><trkpt lat="40.11745504178642" lon="8.570577276967915"><ele>710.0</ele><time>2026-05-02T10:00:35.998Z</time></trkpt><trkpt lat="40.11744822548418" lon="8.570394285502967"><ele>710.25</ele><time>2026-05-02T10:00:36.998Z</time></trkpt><trkpt lat="40.11744366484259" lon="8.570209808135909"><ele>710.5</ele><time>2026-05-02T10:00:37.998Z</time></trkpt><trkpt lat="40.11743973498163" lon="8.570028270425686"><ele>710.75</ele><time>2026-05-02T10:00:38.998Z</time></trkpt><trkpt lat="40.117434106219406" lon="8.569846138943628"><ele>711.0</ele><time>2026-05-02T10:00:39.998Z</time></trkpt><trkpt lat="40.11742823498342" lon="8.569663831600947"><ele>713.0</ele><time>2026-05-02T10:00:40.998Z</time></trkpt><trkpt lat="40.11742240757222" lon="8.56948288526321"><ele>715.0</ele><time>2026-05-02T10:00:41.998Z</time></trkpt><trkpt lat="40.11741695458619" lon="8.569302755504507"><ele>717.0</ele><time>2026-05-02T10:00:42.998Z</time></trkpt><trkpt lat="40.11741306459772" lon="8.569121456682202"><ele>719.0</ele><time>2026-05-02T10:00:43.998Z</time></trkpt><trkpt lat="40.11740230329887" lon="8.568941742467958"><ele>719.0</ele><time>2026-05-02T10:00:44.998Z</time></trkpt><trkpt lat="40.11741926294293" lon="8.568761657302776"><ele>719.0</ele><time>2026-05-02T10:00:45.998Z</time></trkpt><trkpt lat="40.11744628543539" lon="8.568581765891752"><ele>719.0</ele><time>2026-05-02T10:00:46.998Z</time></trkpt><trkpt lat="40.11748649026789" lon="8.56842608207352"><ele>719.0</ele><time>2026-05-02T10:00:47.998Z</time></trkpt><trkpt lat="40.11752919362082" lon="8.568305652814836"><ele>720.6666666666666</ele><time>2026-05-02T10:00:48.998Z</time></trkpt><trkpt lat="40.11756820647463" lon="8.568214884375362"><ele>722.3333333333333</ele><time>2026-05-02T10:00:49.998Z</time></trkpt><trkpt lat="40.11758147475332" lon="8.568114329350918"><ele>724.0</ele><time>2026-05-02T10:00:50.998Z</time></trkpt><trkpt lat="40.11757430246368" lon="8.568012703888435"><ele>725.6666666666666</ele><time>2026-05-02T10:00:51.998Z</time></trkpt><trkpt lat="40.11756515960306" lon="8.567896094146345"><ele>727.3333333333334</ele><time>2026-05-02T10:00:52.998Z</time></trkpt><trkpt lat="40.11754177746631" lon="8.567783116905984"><ele>729.0</ele><time>2026-05-02T10:00:53.998Z</time></trkpt><trkpt lat="40.11752200057699" lon="8.567690953526066"><ele>730.8000000000001</ele><time>2026-05-02T10:00:54.998Z</time></trkpt><trkpt lat="40.11749098121737" lon="8.56759227398746"><ele>732.6</ele><time>2026-05-02T10:00:55.998Z</time></trkpt><trkpt lat="40.11743301257883" lon="8.567508797034407"><ele>734.4</ele><time>2026-05-02T10:00:56.998Z</time></trkpt><trkpt lat="40.11733365653378" lon="8.567480151506068"><ele>736.2</ele><time>2026-05-02T10:00:57.998Z</time></trkpt><trkpt lat="40.11728872603806" lon="8.567352972355309"><ele>738.0</ele><time>2026-05-02T10:00:59.998Z</time></trkpt><trkpt lat="40.11725718238338" lon="8.56725450062955"><ele>738.0</ele><time>2026-05-02T10:01:00.998Z</time></trkpt><trkpt lat="40.117226942230126" lon="8.567144481623737"><ele>738.0</ele><time>2026-05-02T10:01:01.998Z</time></trkpt><trkpt lat="40.11721503923752" lon="8.567009915967812"><ele>738.0</ele><time>2026-05-02T10:01:02.998Z</time></trkpt><trkpt lat="40.11718112123904" lon="8.566864838965236"><ele>738.0</ele><time>2026-05-02T10:01:03.998Z</time></trkpt><trkpt lat="40.11714698653925" lon="8.566745963794668"><ele>738.0</ele><time>2026-05-02T10:01:05Z</time></trkpt><trkpt lat="40.11710214210978" lon="8.566633492512025"><ele>739.3333333333334</ele><time>2026-05-02T10:01:07Z</time></trkpt><trkpt lat="40.117074420354015" lon="8.566552834898317"><ele>740.6666666666666</ele><time>2026-05-02T10:01:08Z</time></trkpt><trkpt lat="40.11700019069468" lon="8.56647709124382"><ele>742.0</ele><time>2026-05-02T10:01:09Z</time></trkpt><trkpt lat="40.11693015224235" lon="8.566435346477464"><ele>743.3333333333333</ele><time>2026-05-02T10:01:10Z</time></trkpt><trkpt lat="40.116816049656066" lon="8.566372563276243"><ele>744.6666666666666</ele><time>2026-05-02T10:01:12Z</time></trkpt><trkpt lat="40.116743513395434" lon="8.566325896000306"><ele>746.0</ele><time>2026-05-02T10:01:13Z</time></trkpt><trkpt lat="40.116666821047794" lon="8.56627403592109"><ele>746.0</ele><time>2026-05-02T10:01:14Z</time></trkpt><trkpt lat="40.1166064060022" lon="8.566193952709533"><ele>746.0</ele><time>2026-05-02T10:01:15Z</time></trkpt><trkpt lat="40.116528801269475" lon="8.566105326099233"><ele>746.0</ele><time>2026-05-02T10:01:16Z</time></trkpt><trkpt lat="40.11644892478324" lon="8.566008889047898"><ele>746.0</ele><time>2026-05-02T10:01:17Z</time></trkpt><trkpt lat="40.11636584884343" lon="8.565911083119502"><ele>746.0</ele><time>2026-05-02T10:01:18Z</time></trkpt><trkpt lat="40.11628316158874" lon="8.565813150387102"><ele>744.8333333333333</ele><time>2026-05-02T10:01:19Z</time></trkpt><trkpt lat="40.116215614659836" lon="8.565733149429986"><ele>743.6666666666666</ele><time>2026-05-02T10:01:20Z</time></trkpt><trkpt lat="40.11616504140141" lon="8.565671036483952"><ele>742.5</ele><time>2026-05-02T10:01:21Z</time></trkpt><trkpt lat="40.116118888919615" lon="8.565613455762298"><ele>741.3333333333334</ele><time>2026-05-02T10:01:22Z</time></trkpt><trkpt lat="40.116055370992505" lon="8.565540432908016"><ele>740.1666666666667</ele><time>2026-05-02T10:01:23Z</time></trkpt><trkpt lat="40.11599036626614" lon="8.56541698713442"><ele>739.0</ele><time>2026-05-02T10:01:24Z</time></trkpt><trkpt lat="40.11590579450618" lon="8.565317003718715"><ele>739.0</ele><time>2026-05-02T10:01:25Z</time></trkpt><trkpt lat="40.11585817927728" lon="8.565214390613237"><ele>739.0</ele><time>2026-05-02T10:01:26Z</time></trkpt><trkpt lat="40.11579616923375" lon="8.56509719049449"><ele>739.0</ele><time>2026-05-02T10:01:27Z</time></trkpt><trkpt lat="40.11572728519765" lon="8.565011724332026"><ele>739.0</ele><time>2026-05-02T10:01:28Z</time></trkpt><trkpt lat="40.115660406297025" lon="8.56496753454562"><ele>739.0</ele><time>2026-05-02T10:01:29Z</time></trkpt><trkpt lat="40.11561100699186" lon="8.564903288561176"><ele>739.0</ele><time>2026-05-02T10:01:30Z</time></trkpt><trkpt lat="40.11557907784687" lon="8.564831699844035"><ele>737.1428571428571</ele><time>2026-05-02T10:01:31Z</time></trkpt><trkpt lat="40.11553818608436" lon="8.564758145465202"><ele>735.2857142857143</ele><time>2026-05-02T10:01:32Z</time></trkpt><trkpt lat="40.11549694902465" lon="8.564687062489678"><ele>733.4285714285713</ele><time>2026-05-02T10:01:32.999Z</time></trkpt><trkpt lat="40.11545270494954" lon="8.564620223899645"><ele>731.5714285714286</ele><time>2026-05-02T10:01:33.999Z</time></trkpt><trkpt lat="40.11540690777007" lon="8.564552796303493"><ele>729.7142857142857</ele><time>2026-05-02T10:01:34.999Z</time></trkpt><trkpt lat="40.11535135381046" lon="8.564471706380195"><ele>727.8571428571428</ele><time>2026-05-02T10:01:35.999Z</time></trkpt><trkpt lat="40.115305448760346" lon="8.5644055917472"><ele>726.0</ele><time>2026-05-02T10:01:36.999Z</time></trkpt><trkpt lat="40.11525888909548" lon="8.564339457752332"><ele>726.0</ele><time>2026-05-02T10:01:37.999Z</time></trkpt><trkpt lat="40.115204418735125" lon="8.564262087501701"><ele>726.0</ele><time>2026-05-02T10:01:38.999Z</time></trkpt><trkpt lat="40.1151451990298" lon="8.564178863015236"><ele>726.0</ele><time>2026-05-02T10:01:39.999Z</time></trkpt><trkpt lat="40.11509069096222" lon="8.564102908782077"><ele>726.0</ele><time>2026-05-02T10:01:40.999Z</time></trkpt><trkpt lat="40.115012754734856" lon="8.563997919328685"><ele>726.0</ele><time>2026-05-02T10:01:42.999Z</time></trkpt><trkpt lat="40.11495315242161" lon="8.563917149587148"><ele>726.0</ele><time>2026-05-02T10:01:43.999Z</time></trkpt><trkpt lat="40.114873735356916" lon="8.563802458535884"><ele>722.4</ele><time>2026-05-02T10:01:44.999Z</time></trkpt><trkpt lat="40.114807085102875" lon="8.56369788236805"><ele>718.8</ele><time>2026-05-02T10:01:45.999Z</time></trkpt><trkpt lat="40.11478050402266" lon="8.563570551117822"><ele>715.1999999999999</ele><time>2026-05-02T10:01:46.999Z</time></trkpt><trkpt lat="40.11475636814194" lon="8.563463323452636"><ele>711.5999999999999</ele><time>2026-05-02T10:01:47.999Z</time></trkpt><trkpt lat="40.11473859805508" lon="8.56335860490461"><ele>708.0</ele><time>2026-05-02T10:01:48.999Z</time></trkpt><trkpt lat="40.11472672765455" lon="8.563234284019044"><ele>708.0</ele><time>2026-05-02T10:01:49.999Z</time></trkpt><trkpt lat="40.114723884837396" lon="8.563112890814827"><ele>708.0</ele><time>2026-05-02T10:01:50.999Z</time></trkpt><trkpt lat="40.114726341865484" lon="8.562993789686168"><ele>708.0</ele><time>2026-05-02T10:01:51.999Z</time></trkpt><trkpt lat="40.11473500880848" lon="8.562867567124991"><ele>708.0</ele><time>2026-05-02T10:01:52.999Z</time></trkpt><trkpt lat="40.11474989598894" lon="8.56277192722152"><ele>708.0</ele><time>2026-05-02T10:01:53.999Z</time></trkpt><trkpt lat="40.114805481320495" lon="8.562669511046181"><ele>706.8</ele><time>2026-05-02T10:01:54.999Z</time></trkpt><trkpt lat="40.11485095312314" lon="8.562588759512472"><ele>705.5999999999999</ele><time>2026-05-02T10:01:55.999Z</time></trkpt><trkpt lat="40.11488482354126" lon="8.562422850873602"><ele>704.4000000000001</ele><time>2026-05-02T10:01:57.999Z</time></trkpt><trkpt lat="40.11488105925506" lon="8.562294772199786"><ele>703.2</ele><time>2026-05-02T10:01:58.999Z</time></trkpt><trkpt lat="40.11488491908558" lon="8.562170453017574"><ele>702.0</ele><time>2026-05-02T10:01:59.999Z</time></trkpt><trkpt lat="40.11489460793774" lon="8.562036059159526"><ele>701.0</ele><time>2026-05-02T10:02:00.999Z</time></trkpt><trkpt lat="40.11489276212353" lon="8.561898737215397"><ele>700.0</ele><time>2026-05-02T10:02:01.999Z</time></trkpt><trkpt lat="40.114910369319624" lon="8.561772306471267"><ele>699.0</ele><time>2026-05-02T10:02:02.999Z</time></trkpt><trkpt lat="40.114905759273206" lon="8.561667330293927"><ele>698.0</ele><time>2026-05-02T10:02:03.999Z</time></trkpt><trkpt lat="40.11492075340315" lon="8.561519095947093"><ele>697.0</ele><time>2026-05-02T10:02:05.999Z</time></trkpt><trkpt lat="40.114887093180364" lon="8.561432374076837"><ele>697.0</ele><time>2026-05-02T10:02:06.999Z</time></trkpt><trkpt lat="40.114775648322556" lon="8.56143778676092"><ele>697.0</ele><time>2026-05-02T10:02:07.999Z</time></trkpt><trkpt lat="40.114640917214416" lon="8.561433434741236"><ele>697.0</ele><time>2026-05-02T10:02:09.999Z</time></trkpt><trkpt lat="40.11456868311399" lon="8.561425040343666"><ele>697.0</ele><time>2026-05-02T10:02:10.999Z</time></trkpt><trkpt lat="40.11450279202442" lon="8.561341595394495"><ele>697.0</ele><time>2026-05-02T10:02:12.999Z</time></trkpt><trkpt lat="40.114464478971676" lon="8.56126604560222"><ele>695.3333333333334</ele><time>2026-05-02T10:02:14.999Z</time></trkpt><trkpt lat="40.11450453876427" lon="8.561169736182155"><ele>693.6666666666667</ele><time>2026-05-02T10:02:15.999Z</time></trkpt><trkpt lat="40.11457354391613" lon="8.561070898374929"><ele>692.0</ele><time>2026-05-02T10:02:16.999Z</time></trkpt><trkpt lat="40.114662454240545" lon="8.561012313120967"><ele>690.3333333333334</ele><time>2026-05-02T10:02:17.999Z</time></trkpt><trkpt lat="40.11473392841972" lon="8.56094909745092"><ele>688.6666666666666</ele><time>2026-05-02T10:02:18.999Z</time></trkpt><trkpt lat="40.11479193644551" lon="8.560900331201776"><ele>687.0</ele><time>2026-05-02T10:02:19.999Z</time></trkpt><trkpt lat="40.11485909210718" lon="8.560797579502532"><ele>687.0</ele><time>2026-05-02T10:02:21.999Z</time></trkpt><trkpt lat="40.11490388241329" lon="8.560723726103703"><ele>687.0</ele><time>2026-05-02T10:02:22.999Z</time></trkpt><trkpt lat="40.11495032798784" lon="8.56063188585682"><ele>687.0</ele><time>2026-05-02T10:02:23.999Z</time></trkpt><trkpt lat="40.114992179435234" lon="8.560538370784213"><ele>687.0</ele><time>2026-05-02T10:02:24.999Z</time></trkpt><trkpt lat="40.11502664792846" lon="8.560456817360482"><ele>687.0</ele><time>2026-05-02T10:02:25.999Z</time></trkpt><trkpt lat="40.11505774705078" lon="8.560341738997732"><ele>687.0</ele><time>2026-05-02T10:02:27.999Z</time></trkpt><trkpt lat="40.11505154005918" lon="8.560253745617826"><ele>686.6</ele><time>2026-05-02T10:02:28.999Z</time></trkpt><trkpt lat="40.11502419176283" lon="8.560166767612307"><ele>686.2</ele><time>2026-05-02T10:02:29.999Z</time></trkpt><trkpt lat="40.11499083770371" lon="8.560077445281712"><ele>685.8</ele><time>2026-05-02T10:02:30.999Z</time></trkpt><trkpt lat="40.114958588806964" lon="8.5599685825649"><ele>685.4</ele><time>2026-05-02T10:02:32.999Z</time></trkpt><trkpt lat="40.11490487026458" lon="8.559787767552011"><ele>685.0</ele><time>2026-05-02T10:02:34.999Z</time></trkpt><trkpt lat="40.11488813373022" lon="8.559638674773508"><ele>682.1666666666667</ele><time>2026-05-02T10:02:35.999Z</time></trkpt><trkpt lat="40.11488313470229" lon="8.559503211003934"><ele>679.3333333333334</ele><time>2026-05-02T10:02:36.999Z</time></trkpt><trkpt lat="40.11487100874114" lon="8.559384814526982"><ele>676.5</ele><time>2026-05-02T10:02:37.999Z</time></trkpt><trkpt lat="40.11485921510301" lon="8.559278719684956"><ele>673.6666666666666</ele><time>2026-05-02T10:02:38.999Z</time></trkpt><trkpt lat="40.11485019704069" lon="8.559184059975156"><ele>670.8333333333333</ele><time>2026-05-02T10:02:39.998Z</time></trkpt><trkpt lat="40.11484157499863" lon="8.55907828326426"><ele>668.0</ele><time>2026-05-02T10:02:40.998Z</time></trkpt><trkpt lat="40.11484885907359" lon="8.558991253504125"><ele>668.0</ele><time>2026-05-02T10:02:41.998Z</time></trkpt><trkpt lat="40.11486465937728" lon="8.558889268452148"><ele>668.0</ele><time>2026-05-02T10:02:42.998Z</time></trkpt><trkpt lat="40.114859839273244" lon="8.558776624704375"><ele>668.0</ele><time>2026-05-02T10:02:43.998Z</time></trkpt><trkpt lat="40.1148471869629" lon="8.558670400071426"><ele>668.0</ele><time>2026-05-02T10:02:44.998Z</time></trkpt><trkpt lat="40.114810856329406" lon="8.558538169550415"><ele>668.0</ele><time>2026-05-02T10:02:45.998Z</time></trkpt><trkpt lat="40.11477897574527" lon="8.558430839778474"><ele>668.0</ele><time>2026-05-02T10:02:46.998Z</time></trkpt><trkpt lat="40.11475153268614" lon="8.558344266200654"><ele>666.5999999999999</ele><time>2026-05-02T10:02:47.998Z</time></trkpt><trkpt lat="40.1147033687396" lon="8.55819789193732"><ele>665.1999999999999</ele><time>2026-05-02T10:02:49.998Z</time></trkpt><trkpt lat="40.11467221988627" lon="8.558103302596226"><ele>663.8</ele><time>2026-05-02T10:02:50.998Z</time></trkpt><trkpt lat="40.11463796628509" lon="8.557990714194911"><ele>662.4</ele><time>2026-05-02T10:02:51.998Z</time></trkpt><trkpt lat="40.11460349832912" lon="8.557863847254334"><ele>661.0</ele><time>2026-05-02T10:02:52.998Z</time></trkpt><trkpt lat="40.11457590116795" lon="8.557745552378154"><ele>659.8</ele><time>2026-05-02T10:02:53.998Z</time></trkpt><trkpt lat="40.114548525036795" lon="8.557620408947278"><ele>658.5999999999999</ele><time>2026-05-02T10:02:54.998Z</time></trkpt><trkpt lat="40.11452859117709" lon="8.55752194405529"><ele>657.4</ele><time>2026-05-02T10:02:55.998Z</time></trkpt><trkpt lat="40.11449363105102" lon="8.557384479862222"><ele>656.2</ele><time>2026-05-02T10:02:57.998Z</time></trkpt><trkpt lat="40.114486029392914" lon="8.557286899954855"><ele>655.0</ele><time>2026-05-02T10:02:58.998Z</time></trkpt><trkpt lat="40.11444858381832" lon="8.55716901323006"><ele>655.0</ele><time>2026-05-02T10:02:59.998Z</time></trkpt><trkpt lat="40.114414208401506" lon="8.557083385028188"><ele>655.0</ele><time>2026-05-02T10:03:00.998Z</time></trkpt><trkpt lat="40.11437757827634" lon="8.556995681569033"><ele>655.0</ele><time>2026-05-02T10:03:01.998Z</time></trkpt><trkpt lat="40.114242930850715" lon="8.556688702782834"><ele>655.0</ele><time>2026-05-02T10:03:03.998Z</time></trkpt><trkpt lat="40.114189215535795" lon="8.556569696812337"><ele>652.8</ele><time>2026-05-02T10:03:04.998Z</time></trkpt><trkpt lat="40.11413657137851" lon="8.556453064014638"><ele>650.6</ele><time>2026-05-02T10:03:05.998Z</time></trkpt><trkpt lat="40.11408388071398" lon="8.556337805246248"><ele>648.4000000000001</ele><time>2026-05-02T10:03:06.998Z</time></trkpt><trkpt lat="40.11403141980864" lon="8.556230523530969"><ele>646.2</ele><time>2026-05-02T10:03:07.998Z</time></trkpt><trkpt lat="40.11396691944079" lon="8.556129132302823"><ele>644.0</ele><time>2026-05-02T10:03:08.998Z</time></trkpt><trkpt lat="40.11391211186298" lon="8.55602455932392"><ele>642.3333333333333</ele><time>2026-05-02T10:03:09.998Z</time></trkpt><trkpt lat="40.113879862351375" lon="8.555919265961084"><ele>640.6666666666666</ele><time>2026-05-02T10:03:11Z</time></trkpt><trkpt lat="40.11384912352239" lon="8.555807677138315"><ele>639.0</ele><time>2026-05-02T10:03:12Z</time></trkpt><trkpt lat="40.113825518427454" lon="8.555680732920997"><ele>637.3333333333334</ele><time>2026-05-02T10:03:13Z</time></trkpt><trkpt lat="40.11381073486252" lon="8.555562828377726"><ele>635.6666666666667</ele><time>2026-05-02T10:03:14Z</time></trkpt><trkpt lat="40.113771797187205" lon="8.555477717486127"><ele>634.0</ele><time>2026-05-02T10:03:15Z</time></trkpt><trkpt lat="40.113746219323254" lon="8.555321252659365"><ele>631.6</ele><time>2026-05-02T10:03:17Z</time></trkpt><trkpt lat="40.11372013137092" lon="8.555220225830187"><ele>629.2</ele><time>2026-05-02T10:03:18Z</time></trkpt><trkpt lat="40.113681435445166" lon="8.555103893871832"><ele>626.8000000000001</ele><time>2026-05-02T10:03:19Z</time></trkpt><trkpt lat="40.11361167681869" lon="8.555009620496941"><ele>624.4</ele><time>2026-05-02T10:03:20Z</time></trkpt><trkpt lat="40.11354326384156" lon="8.554960396816453"><ele>622.0</ele><time>2026-05-02T10:03:21Z</time></trkpt><trkpt lat="40.11341914090506" lon="8.554886513845991"><ele>622.0</ele><time>2026-05-02T10:03:23Z</time></trkpt><trkpt lat="40.11335340514393" lon="8.55481395923016"><ele>622.0</ele><time>2026-05-02T10:03:24Z</time></trkpt><trkpt lat="40.11332130942867" lon="8.5547204447215"><ele>622.0</ele><time>2026-05-02T10:03:26Z</time></trkpt><trkpt lat="40.11334751722663" lon="8.554604441891437"><ele>622.0</ele><time>2026-05-02T10:03:28Z</time></trkpt><trkpt lat="40.11335985538422" lon="8.554518629894423"><ele>622.0</ele><time>2026-05-02T10:03:29Z</time></trkpt><trkpt lat="40.1134042917136" lon="8.554356609089865"><ele>619.0</ele><time>2026-05-02T10:03:31Z</time></trkpt><trkpt lat="40.113425059838995" lon="8.554262798623519"><ele>616.0</ele><time>2026-05-02T10:03:32Z</time></trkpt><trkpt lat="40.11349382234016" lon="8.554154699453028"><ele>613.0</ele><time>2026-05-02T10:03:34Z</time></trkpt><trkpt lat="40.113576239961255" lon="8.554206429304866"><ele>610.0</ele><time>2026-05-02T10:03:35Z</time></trkpt><trkpt lat="40.11367447790686" lon="8.554171044228838"><ele>607.0</ele><time>2026-05-02T10:03:37Z</time></trkpt><trkpt lat="40.113703559539175" lon="8.554029324909337"><ele>607.0</ele><time>2026-05-02T10:03:38.999Z</time></trkpt><trkpt lat="40.11366866865842" lon="8.553880351617526"><ele>607.0</ele><time>2026-05-02T10:03:40.999Z</time></trkpt><trkpt lat="40.11363703668332" lon="8.553780952833563"><ele>607.0</ele><time>2026-05-02T10:03:44.999Z</time></trkpt><trkpt lat="40.11360817130272" lon="8.553696219766495"><ele>607.0</ele><time>2026-05-02T10:03:47.999Z</time></trkpt><trkpt lat="40.11349753089445" lon="8.553438417540187"><ele>604.2</ele><time>2026-05-02T10:03:48.999Z</time></trkpt><trkpt lat="40.11344399422023" lon="8.55338242068863"><ele>601.4000000000001</ele><time>2026-05-02T10:03:49.999Z</time></trkpt><trkpt lat="40.113439313048225" lon="8.55327406462101"><ele>598.5999999999999</ele><time>2026-05-02T10:03:52.999Z</time></trkpt><trkpt lat="40.11352406090849" lon="8.553154860068986"><ele>595.8</ele><time>2026-05-02T10:03:54.999Z</time></trkpt><trkpt lat="40.11359393734617" lon="8.55312742134466"><ele>593.0</ele><time>2026-05-02T10:03:55.999Z</time></trkpt><trkpt lat="40.11369994642155" lon="8.553102410197507"><ele>593.0</ele><time>2026-05-02T10:03:57.999Z</time></trkpt><trkpt lat="40.11380452528411" lon="8.55304766738658"><ele>593.0</ele><time>2026-05-02T10:03:59.999Z</time></trkpt><trkpt lat="40.11385176282385" lon="8.552975371945127"><ele>593.0</ele><time>2026-05-02T10:04:00.999Z</time></trkpt><trkpt lat="40.113947651758934" lon="8.552904341042844"><ele>593.0</ele><time>2026-05-02T10:04:02.999Z</time></trkpt><trkpt lat="40.113903373316845" lon="8.552753400078759"><ele>593.0</ele><time>2026-05-02T10:04:04.999Z</time></trkpt><trkpt lat="40.113844039637094" lon="8.552634146304854"><ele>591.1666666666666</ele><time>2026-05-02T10:04:06.999Z</time></trkpt><trkpt lat="40.11379185578522" lon="8.552579126588032"><ele>589.3333333333333</ele><time>2026-05-02T10:04:07.999Z</time></trkpt><trkpt lat="40.11372709000253" lon="8.552537478260922"><ele>587.5</ele><time>2026-05-02T10:04:08.999Z</time></trkpt><trkpt lat="40.11366162384188" lon="8.552515291264545"><ele>585.6666666666666</ele><time>2026-05-02T10:04:09.999Z</time></trkpt><trkpt lat="40.11359398966448" lon="8.552486920284489"><ele>583.8333333333334</ele><time>2026-05-02T10:04:10.999Z</time></trkpt><trkpt lat="40.113455760678555" lon="8.552417210703934"><ele>582.0</ele><time>2026-05-02T10:04:12.999Z</time></trkpt><trkpt lat="40.1133796109647" lon="8.55238202794335"><ele>582.0</ele><time>2026-05-02T10:04:13.999Z</time></trkpt><trkpt lat="40.11331910223236" lon="8.552356619675637"><ele>582.0</ele><time>2026-05-02T10:04:14.999Z</time></trkpt><trkpt lat="40.113246020683704" lon="8.552379980885823"><ele>582.0</ele><time>2026-05-02T10:04:15.999Z</time></trkpt><trkpt lat="40.11314807118935" lon="8.552475671828894"><ele>582.0</ele><time>2026-05-02T10:04:17.999Z</time></trkpt><trkpt lat="40.11303805372799" lon="8.552481400900836"><ele>582.0</ele><time>2026-05-02T10:04:19.999Z</time></trkpt><trkpt lat="40.11295794293998" lon="8.552464924819029"><ele>579.6666666666666</ele><time>2026-05-02T10:04:20.999Z</time></trkpt><trkpt lat="40.1128749888832" lon="8.552468669023446"><ele>577.3333333333334</ele><time>2026-05-02T10:04:21.999Z</time></trkpt><trkpt lat="40.11279536186816" lon="8.552446102600038"><ele>575.0</ele><time>2026-05-02T10:04:22.999Z</time></trkpt><trkpt lat="40.11271371631126" lon="8.552377725866304"><ele>572.6666666666667</ele><time>2026-05-02T10:04:23.999Z</time></trkpt><trkpt lat="40.11263175565799" lon="8.552327178065005"><ele>570.3333333333334</ele><time>2026-05-02T10:04:24.999Z</time></trkpt><trkpt lat="40.112540318664585" lon="8.55231022603756"><ele>568.0</ele><time>2026-05-02T10:04:25.999Z</time></trkpt><trkpt lat="40.112452037843376" lon="8.552327842292954"><ele>568.0</ele><time>2026-05-02T10:04:26.999Z</time></trkpt><trkpt lat="40.11240660951614" lon="8.552412010844181"><ele>568.0</ele><time>2026-05-02T10:04:27.999Z</time></trkpt><trkpt lat="40.112343518750194" lon="8.552480875612364"><ele>568.0</ele><time>2026-05-02T10:04:28.999Z</time></trkpt><trkpt lat="40.11228099191444" lon="8.552538337426459"><ele>568.0</ele><time>2026-05-02T10:04:29.999Z</time></trkpt><trkpt lat="40.112220370476514" lon="8.55259931154348"><ele>568.0</ele><time>2026-05-02T10:04:30.999Z</time></trkpt><trkpt lat="40.11218236237607" lon="8.552683844458784"><ele>568.0</ele><time>2026-05-02T10:04:31.999Z</time></trkpt><trkpt lat="40.11215279281114" lon="8.552783928421576"><ele>564.5</ele><time>2026-05-02T10:04:32.999Z</time></trkpt><trkpt lat="40.11212543344222" lon="8.552891635254943"><ele>561.0</ele><time>2026-05-02T10:04:33.999Z</time></trkpt><trkpt lat="40.112114261196254" lon="8.553009497814696"><ele>557.5</ele><time>2026-05-02T10:04:34.999Z</time></trkpt><trkpt lat="40.112128587530904" lon="8.553122806328876"><ele>554.0</ele><time>2026-05-02T10:04:35.999Z</time></trkpt><trkpt lat="40.11215079975508" lon="8.55321655606462"><ele>550.5</ele><time>2026-05-02T10:04:36.999Z</time></trkpt><trkpt lat="40.112167552838855" lon="8.553299782188954"><ele>547.0</ele><time>2026-05-02T10:04:37.999Z</time></trkpt><trkpt lat="40.11214213405946" lon="8.553461287273143"><ele>547.0</ele><time>2026-05-02T10:04:39.999Z</time></trkpt><trkpt lat="40.11210675176998" lon="8.55354023550938"><ele>547.0</ele><time>2026-05-02T10:04:40.999Z</time></trkpt><trkpt lat="40.11205197225235" lon="8.553618710620245"><ele>547.0</ele><time>2026-05-02T10:04:41.999Z</time></trkpt><trkpt lat="40.1119786931744" lon="8.553704351177467"><ele>547.0</ele><time>2026-05-02T10:04:42.999Z</time></trkpt><trkpt lat="40.111908415957835" lon="8.553786008715953"><ele>547.0</ele><time>2026-05-02T10:04:43.998Z</time></trkpt><trkpt lat="40.11186020304986" lon="8.553871232858194"><ele>547.0</ele><time>2026-05-02T10:04:44.998Z</time></trkpt><trkpt lat="40.11180921089784" lon="8.553945001890424"><ele>548.0</ele><time>2026-05-02T10:04:45.998Z</time></trkpt><trkpt lat="40.11172325788221" lon="8.553992876068433"><ele>549.0</ele><time>2026-05-02T10:04:46.998Z</time></trkpt><trkpt lat="40.111642428087514" lon="8.554038106314536"><ele>550.0</ele><time>2026-05-02T10:04:47.998Z</time></trkpt><trkpt lat="40.111551173569296" lon="8.554069006655956"><ele>551.0</ele><time>2026-05-02T10:04:48.998Z</time></trkpt><trkpt lat="40.1114668614023" lon="8.554105188216145"><ele>552.0</ele><time>2026-05-02T10:04:49.998Z</time></trkpt><trkpt lat="40.1113960621797" lon="8.554171176721663"><ele>549.5</ele><time>2026-05-02T10:04:50.998Z</time></trkpt><trkpt lat="40.11134278899743" lon="8.554244885886286"><ele>547.0</ele><time>2026-05-02T10:04:51.998Z</time></trkpt><trkpt lat="40.11128547412572" lon="8.554315491523035"><ele>544.5</ele><time>2026-05-02T10:04:52.998Z</time></trkpt><trkpt lat="40.11122199314376" lon="8.554365168306006"><ele>542.0</ele><time>2026-05-02T10:04:53.998Z</time></trkpt><trkpt lat="40.111157494969206" lon="8.554397207748519"><ele>539.5</ele><time>2026-05-02T10:04:54.998Z</time></trkpt><trkpt lat="40.11105277940267" lon="8.554493057638346"><ele>537.0</ele><time>2026-05-02T10:04:56.998Z</time></trkpt><trkpt lat="40.11099841718845" lon="8.554555324180102"><ele>536.9999999999999</ele><time>2026-05-02T10:04:57.998Z</time></trkpt><trkpt lat="40.11094164543524" lon="8.554613287797943"><ele>537.0</ele><time>2026-05-02T10:04:58.998Z</time></trkpt><trkpt lat="40.110879889390276" lon="8.554664321978809"><ele>537.0</ele><time>2026-05-02T10:04:59.998Z</time></trkpt><trkpt lat="40.110823103493914" lon="8.554725242449091"><ele>537.0</ele><time>2026-05-02T10:05:00.998Z</time></trkpt><trkpt lat="40.11076795337752" lon="8.554793926706237"><ele>537.0</ele><time>2026-05-02T10:05:01.998Z</time></trkpt><trkpt lat="40.11071963659031" lon="8.554865455761572"><ele>536.9999999999999</ele><time>2026-05-02T10:05:02.998Z</time></trkpt><trkpt lat="40.11068164083165" lon="8.554935019425463"><ele>537.0</ele><time>2026-05-02T10:05:03.998Z</time></trkpt><trkpt lat="40.11060994752004" lon="8.554989418747095"><ele>532.6</ele><time>2026-05-02T10:05:05.998Z</time></trkpt><trkpt lat="40.110528902328184" lon="8.555014780663345"><ele>528.2</ele><time>2026-05-02T10:05:07.998Z</time></trkpt><trkpt lat="40.11045005765283" lon="8.5550850496645"><ele>523.8</ele><time>2026-05-02T10:05:09.998Z</time></trkpt><trkpt lat="40.11038565564808" lon="8.555174887779117"><ele>519.4</ele><time>2026-05-02T10:05:11.998Z</time></trkpt><trkpt lat="40.110339727562085" lon="8.555298575069921"><ele>515.0</ele><time>2026-05-02T10:05:13.998Z</time></trkpt><trkpt lat="40.11033439424818" lon="8.555425179861729"><ele>514.6666666666666</ele><time>2026-05-02T10:05:15.998Z</time></trkpt><trkpt lat="40.11034462552494" lon="8.555529325437222"><ele>514.3333333333333</ele><time>2026-05-02T10:05:18Z</time></trkpt><trkpt lat="40.110346702078026" lon="8.55562151230124"><ele>514.0</ele><time>2026-05-02T10:05:19Z</time></trkpt><trkpt lat="40.11033917912446" lon="8.555729629666514"><ele>513.6666666666666</ele><time>2026-05-02T10:05:20Z</time></trkpt><trkpt lat="40.11032535084613" lon="8.5558513328141"><ele>513.3333333333334</ele><time>2026-05-02T10:05:21Z</time></trkpt><trkpt lat="40.11032686121155" lon="8.55597002261658"><ele>513.0</ele><time>2026-05-02T10:05:22Z</time></trkpt><trkpt lat="40.110342934937634" lon="8.556089265294414"><ele>513.0</ele><time>2026-05-02T10:05:23Z</time></trkpt><trkpt lat="40.11035672356688" lon="8.556202390895814"><ele>513.0</ele><time>2026-05-02T10:05:24Z</time></trkpt><trkpt lat="40.11036105593188" lon="8.556315830158347"><ele>513.0</ele><time>2026-05-02T10:05:25Z</time></trkpt><trkpt lat="40.11035154308499" lon="8.556424671596368"><ele>513.0</ele><time>2026-05-02T10:05:26Z</time></trkpt><trkpt lat="40.11033151284095" lon="8.556550571539217"><ele>513.0</ele><time>2026-05-02T10:05:27Z</time></trkpt><trkpt lat="40.11031272117268" lon="8.556672101621617"><ele>513.8</ele><time>2026-05-02T10:05:28Z</time></trkpt><trkpt lat="40.11029726116631" lon="8.55679095495887"><ele>514.5999999999999</ele><time>2026-05-02T10:05:29Z</time></trkpt><trkpt lat="40.11028787871762" lon="8.556906535980419"><ele>515.4000000000001</ele><time>2026-05-02T10:05:30Z</time></trkpt><trkpt lat="40.11029603275025" lon="8.557026751391234"><ele>516.2</ele><time>2026-05-02T10:05:31Z</time></trkpt><trkpt lat="40.11031795142042" lon="8.55714598580294"><ele>517.0</ele><time>2026-05-02T10:05:32Z</time></trkpt><trkpt lat="40.11035176714749" lon="8.557252925427408"><ele>515.3333333333334</ele><time>2026-05-02T10:05:33Z</time></trkpt><trkpt lat="40.110393904249264" lon="8.557350269026417"><ele>513.6666666666667</ele><time>2026-05-02T10:05:34Z</time></trkpt><trkpt lat="40.11044836651768" lon="8.557421485255512"><ele>512.0</ele><time>2026-05-02T10:05:35Z</time></trkpt><trkpt lat="40.11051990827335" lon="8.557474203431498"><ele>510.33333333333337</ele><time>2026-05-02T10:05:36Z</time></trkpt><trkpt lat="40.11061217548718" lon="8.557513267016226"><ele>508.6666666666667</ele><time>2026-05-02T10:05:37Z</time></trkpt><trkpt lat="40.110679229633924" lon="8.557554764473778"><ele>507.0</ele><time>2026-05-02T10:05:38Z</time></trkpt><trkpt lat="40.11071868045582" lon="8.55762636828452"><ele>507.0</ele><time>2026-05-02T10:05:39Z</time></trkpt><trkpt lat="40.11073546165904" lon="8.557721871946733"><ele>507.0</ele><time>2026-05-02T10:05:40Z</time></trkpt><trkpt lat="40.11073671216167" lon="8.557843287167335"><ele>507.0</ele><time>2026-05-02T10:05:41Z</time></trkpt><trkpt lat="40.11074610846921" lon="8.557975055964896"><ele>507.0</ele><time>2026-05-02T10:05:41.999Z</time></trkpt><trkpt lat="40.110758615506874" lon="8.558088191958657"><ele>507.0</ele><time>2026-05-02T10:05:42.999Z</time></trkpt><trkpt lat="40.110763747117794" lon="8.558185958571372"><ele>507.0</ele><time>2026-05-02T10:05:43.999Z</time></trkpt><trkpt lat="40.11075414480786" lon="8.55829543963206"><ele>506.20000000000005</ele><time>2026-05-02T10:05:44.999Z</time></trkpt><trkpt lat="40.11073641637984" lon="8.558424529952678"><ele>505.40000000000003</ele><time>2026-05-02T10:05:45.999Z</time></trkpt><trkpt lat="40.11069589295145" lon="8.558540972838836"><ele>504.59999999999997</ele><time>2026-05-02T10:05:46.999Z</time></trkpt><trkpt lat="40.1106419042885" lon="8.558652969388719"><ele>503.79999999999995</ele><time>2026-05-02T10:05:47.999Z</time></trkpt><trkpt lat="40.11058775502018" lon="8.558755431587427"><ele>503.0</ele><time>2026-05-02T10:05:48.999Z</time></trkpt><trkpt lat="40.11052581358577" lon="8.558858347645698"><ele>506.59999999999997</ele><time>2026-05-02T10:05:49.999Z</time></trkpt><trkpt lat="40.110473283830075" lon="8.558973441373501"><ele>510.19999999999993</ele><time>2026-05-02T10:05:50.999Z</time></trkpt><trkpt lat="40.1104168865551" lon="8.559091417063382"><ele>513.8</ele><time>2026-05-02T10:05:51.999Z</time></trkpt><trkpt lat="40.110368475620525" lon="8.559213818433555"><ele>517.4</ele><time>2026-05-02T10:05:52.999Z</time></trkpt><trkpt lat="40.11033092266073" lon="8.55933289061723"><ele>521.0</ele><time>2026-05-02T10:05:53.999Z</time></trkpt><trkpt lat="40.110299517552" lon="8.559431641871468"><ele>521.0</ele><time>2026-05-02T10:05:54.999Z</time></trkpt><trkpt lat="40.11023922875443" lon="8.559508985002493"><ele>521.0</ele><time>2026-05-02T10:05:55.999Z</time></trkpt><trkpt lat="40.1101738737708" lon="8.559575684392744"><ele>521.0</ele><time>2026-05-02T10:05:56.999Z</time></trkpt><trkpt lat="40.110127391373325" lon="8.559658221791791"><ele>521.0</ele><time>2026-05-02T10:05:57.999Z</time></trkpt><trkpt lat="40.11008968088859" lon="8.5597606798451"><ele>521.0</ele><time>2026-05-02T10:05:58.999Z</time></trkpt><trkpt lat="40.1100519654094" lon="8.559877406151774"><ele>521.0</ele><time>2026-05-02T10:05:59.999Z</time></trkpt><trkpt lat="40.11002869563008" lon="8.559996374455242"><ele>522.3333333333333</ele><time>2026-05-02T10:06:00.999Z</time></trkpt><trkpt lat="40.11002524516962" lon="8.560109412304062"><ele>523.6666666666666</ele><time>2026-05-02T10:06:01.999Z</time></trkpt><trkpt lat="40.110025861043795" lon="8.560210652420656"><ele>525.0</ele><time>2026-05-02T10:06:02.999Z</time></trkpt><trkpt lat="40.11003074696081" lon="8.56030806410314"><ele>526.3333333333334</ele><time>2026-05-02T10:06:03.999Z</time></trkpt><trkpt lat="40.11002429428612" lon="8.560429325091"><ele>527.6666666666667</ele><time>2026-05-02T10:06:04.999Z</time></trkpt><trkpt lat="40.110012153750304" lon="8.560566117322697"><ele>529.0</ele><time>2026-05-02T10:06:05.999Z</time></trkpt><trkpt lat="40.11000171696739" lon="8.560707810733708"><ele>529.8333333333334</ele><time>2026-05-02T10:06:06.999Z</time></trkpt><trkpt lat="40.110000274129405" lon="8.56084509316526"><ele>530.6666666666667</ele><time>2026-05-02T10:06:07.999Z</time></trkpt><trkpt lat="40.109992018544894" lon="8.560970138062721"><ele>531.5</ele><time>2026-05-02T10:06:08.999Z</time></trkpt><trkpt lat="40.10998054830508" lon="8.561068985731303"><ele>532.3333333333334</ele><time>2026-05-02T10:06:09.999Z</time></trkpt><trkpt lat="40.10995641617265" lon="8.561161741115413"><ele>533.1666666666666</ele><time>2026-05-02T10:06:10.999Z</time></trkpt><trkpt lat="40.109919890801855" lon="8.561254705074647"><ele>534.0</ele><time>2026-05-02T10:06:11.999Z</time></trkpt><trkpt lat="40.10987270336693" lon="8.56132824870434"><ele>529.4</ele><time>2026-05-02T10:06:12.999Z</time></trkpt><trkpt lat="40.10981398907142" lon="8.561472376464453"><ele>524.8</ele><time>2026-05-02T10:06:14.999Z</time></trkpt><trkpt lat="40.10975968762423" lon="8.56159063655692"><ele>520.2</ele><time>2026-05-02T10:06:15.999Z</time></trkpt><trkpt lat="40.109697688253185" lon="8.561683229794124"><ele>515.6</ele><time>2026-05-02T10:06:16.999Z</time></trkpt><trkpt lat="40.10964684058755" lon="8.561782194086579"><ele>511.0</ele><time>2026-05-02T10:06:17.999Z</time></trkpt><trkpt lat="40.10960747638603" lon="8.561868636421007"><ele>511.00000000000006</ele><time>2026-05-02T10:06:18.999Z</time></trkpt><trkpt lat="40.10956047775284" lon="8.561946140367247"><ele>511.0</ele><time>2026-05-02T10:06:19.999Z</time></trkpt><trkpt lat="40.10949161385375" lon="8.562007376085962"><ele>511.0</ele><time>2026-05-02T10:06:20.999Z</time></trkpt><trkpt lat="40.10943144224483" lon="8.562072937196007"><ele>511.0</ele><time>2026-05-02T10:06:21.999Z</time></trkpt><trkpt lat="40.10938819967412" lon="8.562160752784974"><ele>511.00000000000006</ele><time>2026-05-02T10:06:22.999Z</time></trkpt><trkpt lat="40.109366735110314" lon="8.562252512562127"><ele>511.0</ele><time>2026-05-02T10:06:23.999Z</time></trkpt><trkpt lat="40.1093557468068" lon="8.562367548711675"><ele>509.1666666666667</ele><time>2026-05-02T10:06:24.999Z</time></trkpt><trkpt lat="40.109335360706176" lon="8.562487173560719"><ele>507.33333333333337</ele><time>2026-05-02T10:06:25.999Z</time></trkpt><trkpt lat="40.109297154414016" lon="8.562565104441981"><ele>505.5</ele><time>2026-05-02T10:06:26.999Z</time></trkpt><trkpt lat="40.109234777295114" lon="8.562635748019241"><ele>503.66666666666663</ele><time>2026-05-02T10:06:27.999Z</time></trkpt><trkpt lat="40.10916220398454" lon="8.562699409832469"><ele>501.8333333333333</ele><time>2026-05-02T10:06:28.999Z</time></trkpt><trkpt lat="40.10908887728922" lon="8.562775438959545"><ele>500.0</ele><time>2026-05-02T10:06:29.999Z</time></trkpt><trkpt lat="40.10899713347565" lon="8.56285606153797"><ele>504.2</ele><time>2026-05-02T10:06:30.999Z</time></trkpt><trkpt lat="40.10889376832451" lon="8.562926695937085"><ele>508.4</ele><time>2026-05-02T10:06:31.999Z</time></trkpt><trkpt lat="40.108797294973115" lon="8.562994752761613"><ele>512.6</ele><time>2026-05-02T10:06:32.999Z</time></trkpt><trkpt lat="40.1087243940651" lon="8.563062016628356"><ele>516.8</ele><time>2026-05-02T10:06:33.999Z</time></trkpt><trkpt lat="40.108642565895586" lon="8.563121904173057"><ele>521.0</ele><time>2026-05-02T10:06:34.999Z</time></trkpt><trkpt lat="40.10854687241046" lon="8.563180063705936"><ele>521.0</ele><time>2026-05-02T10:06:35.999Z</time></trkpt><trkpt lat="40.10843859525161" lon="8.563235905434958"><ele>521.0</ele><time>2026-05-02T10:06:36.999Z</time></trkpt><trkpt lat="40.10833215980163" lon="8.563294614631152"><ele>521.0</ele><time>2026-05-02T10:06:37.999Z</time></trkpt><trkpt lat="40.10822962638867" lon="8.563349779003646"><ele>521.0</ele><time>2026-05-02T10:06:38.999Z</time></trkpt><trkpt lat="40.10813269861967" lon="8.563401076004828"><ele>521.0</ele><time>2026-05-02T10:06:39.999Z</time></trkpt><trkpt lat="40.10804204987037" lon="8.563443829999827"><ele>521.0</ele><time>2026-05-02T10:06:40.999Z</time></trkpt><trkpt lat="40.107950838868405" lon="8.563509372827498"><ele>521.0</ele><time>2026-05-02T10:06:41.999Z</time></trkpt><trkpt lat="40.107856768505904" lon="8.563572101790779"><ele>521.0</ele><time>2026-05-02T10:06:42.999Z</time></trkpt><trkpt lat="40.10773992101149" lon="8.563617745678817"><ele>521.0</ele><time>2026-05-02T10:06:43.998Z</time></trkpt><trkpt lat="40.107634275935595" lon="8.563667824373008"><ele>521.0</ele><time>2026-05-02T10:06:44.998Z</time></trkpt><trkpt lat="40.10753435298499" lon="8.563747397890541"><ele>521.0</ele><time>2026-05-02T10:06:45.998Z</time></trkpt><trkpt lat="40.1074463885904" lon="8.56383950310711"><ele>521.0</ele><time>2026-05-02T10:06:46.998Z</time></trkpt><trkpt lat="40.10736132708756" lon="8.563932993070507"><ele>521.0</ele><time>2026-05-02T10:06:47.998Z</time></trkpt><trkpt lat="40.1072951974735" lon="8.564016098950765"><ele>521.0</ele><time>2026-05-02T10:06:48.998Z</time></trkpt><trkpt lat="40.10724584642122" lon="8.564114594828952"><ele>521.0</ele><time>2026-05-02T10:06:49.998Z</time></trkpt><trkpt lat="40.10720994319644" lon="8.5642194593817"><ele>522.0</ele><time>2026-05-02T10:06:50.998Z</time></trkpt><trkpt lat="40.107186240447014" lon="8.564327947700958"><ele>523.0</ele><time>2026-05-02T10:06:51.998Z</time></trkpt><trkpt lat="40.107171907801536" lon="8.564436404892001"><ele>524.0</ele><time>2026-05-02T10:06:52.998Z</time></trkpt><trkpt lat="40.10715051491122" lon="8.564554539984869"><ele>525.0</ele><time>2026-05-02T10:06:53.998Z</time></trkpt><trkpt lat="40.10711660266641" lon="8.564671495109318"><ele>526.0</ele><time>2026-05-02T10:06:54.998Z</time></trkpt><trkpt lat="40.10708240805956" lon="8.56479253272559"><ele>526.0</ele><time>2026-05-02T10:06:55.998Z</time></trkpt><trkpt lat="40.107043458054896" lon="8.564909306624042"><ele>526.0</ele><time>2026-05-02T10:06:56.998Z</time></trkpt><trkpt lat="40.10700478899546" lon="8.565019220039211"><ele>526.0</ele><time>2026-05-02T10:06:57.998Z</time></trkpt><trkpt lat="40.10696588849543" lon="8.56512506633499"><ele>526.0</ele><time>2026-05-02T10:06:58.998Z</time></trkpt><trkpt lat="40.10692465380343" lon="8.565230483408532"><ele>526.0</ele><time>2026-05-02T10:06:59.998Z</time></trkpt><trkpt lat="40.10690132918319" lon="8.565328089983858"><ele>526.0</ele><time>2026-05-02T10:07:00.998Z</time></trkpt><trkpt lat="40.10689983392978" lon="8.565431845976715"><ele>527.0</ele><time>2026-05-02T10:07:01.998Z</time></trkpt><trkpt lat="40.106910631984306" lon="8.56556771576933"><ele>528.0</ele><time>2026-05-02T10:07:02.998Z</time></trkpt><trkpt lat="40.10690750182555" lon="8.56572888117229"><ele>529.0</ele><time>2026-05-02T10:07:03.998Z</time></trkpt><trkpt lat="40.106883497626946" lon="8.565897455415605"><ele>530.0</ele><time>2026-05-02T10:07:04.998Z</time></trkpt><trkpt lat="40.10685765052313" lon="8.566059671505874"><ele>529.6</ele><time>2026-05-02T10:07:05.998Z</time></trkpt><trkpt lat="40.10682792918192" lon="8.566245633089778"><ele>529.2</ele><time>2026-05-02T10:07:06.998Z</time></trkpt><trkpt lat="40.1068096492508" lon="8.566404190597058"><ele>528.8</ele><time>2026-05-02T10:07:07.998Z</time></trkpt><trkpt lat="40.106790446509045" lon="8.566528881496735"><ele>528.4</ele><time>2026-05-02T10:07:08.998Z</time></trkpt><trkpt lat="40.106768107986646" lon="8.566631074606303"><ele>528.0</ele><time>2026-05-02T10:07:09.998Z</time></trkpt><trkpt lat="40.106743623537035" lon="8.56672620496594"><ele>528.0</ele><time>2026-05-02T10:07:11.998Z</time></trkpt><trkpt lat="40.10671300438844" lon="8.566822928528897"><ele>528.0</ele><time>2026-05-02T10:07:15.998Z</time></trkpt><trkpt lat="40.10668195062917" lon="8.566905491346237"><ele>528.0</ele><time>2026-05-02T10:07:16.998Z</time></trkpt><trkpt lat="40.10663670171949" lon="8.566990635119655"><ele>528.0</ele><time>2026-05-02T10:07:17.998Z</time></trkpt><trkpt lat="40.10658521170739" lon="8.567083657596406"><ele>528.0</ele><time>2026-05-02T10:07:18.998Z</time></trkpt><trkpt lat="40.10652711874912" lon="8.56718224052656"><ele>528.0</ele><time>2026-05-02T10:07:19.998Z</time></trkpt><trkpt lat="40.106466166939526" lon="8.567288945057511"><ele>527.0</ele><time>2026-05-02T10:07:20.998Z</time></trkpt><trkpt lat="40.10640577045788" lon="8.567401507752168"><ele>526.0</ele><time>2026-05-02T10:07:21.998Z</time></trkpt><trkpt lat="40.10635576975769" lon="8.56751301535282"><ele>525.0</ele><time>2026-05-02T10:07:23Z</time></trkpt><trkpt lat="40.106311734109596" lon="8.567640396005078"><ele>524.0</ele><time>2026-05-02T10:07:24Z</time></trkpt><trkpt lat="40.1062793155543" lon="8.567767761067294"><ele>523.0</ele><time>2026-05-02T10:07:25Z</time></trkpt><trkpt lat="40.106224084956054" lon="8.567913916617018"><ele>522.75</ele><time>2026-05-02T10:07:26Z</time></trkpt><trkpt lat="40.10619072280919" lon="8.568072227377607"><ele>522.5</ele><time>2026-05-02T10:07:27Z</time></trkpt><trkpt lat="40.10615536174037" lon="8.56824742160203"><ele>522.25</ele><time>2026-05-02T10:07:28Z</time></trkpt><trkpt lat="40.10610910216014" lon="8.568415365935635"><ele>522.0</ele><time>2026-05-02T10:07:29Z</time></trkpt><trkpt lat="40.106066677309876" lon="8.568566106948111"><ele>523.5</ele><time>2026-05-02T10:07:30Z</time></trkpt><trkpt lat="40.10602638535284" lon="8.568715630134808"><ele>525.0</ele><time>2026-05-02T10:07:31Z</time></trkpt><trkpt lat="40.10597978612766" lon="8.56887084537332"><ele>526.5</ele><time>2026-05-02T10:07:32Z</time></trkpt><trkpt lat="40.105921531555424" lon="8.569022094099834"><ele>528.0</ele><time>2026-05-02T10:07:33Z</time></trkpt><trkpt lat="40.1058659658936" lon="8.569170497515817"><ele>528.0</ele><time>2026-05-02T10:07:34Z</time></trkpt><trkpt lat="40.10583629939952" lon="8.569318527091234"><ele>528.0</ele><time>2026-05-02T10:07:35Z</time></trkpt><trkpt lat="40.105792855061274" lon="8.569460776591736"><ele>528.0</ele><time>2026-05-02T10:07:36Z</time></trkpt><trkpt lat="40.10572772447686" lon="8.569591098691001"><ele>528.0</ele><time>2026-05-02T10:07:37Z</time></trkpt><trkpt lat="40.105672754165084" lon="8.569721315285896"><ele>526.3333333333334</ele><time>2026-05-02T10:07:38Z</time></trkpt><trkpt lat="40.10563360501705" lon="8.569814065645913"><ele>524.6666666666666</ele><time>2026-05-02T10:07:39Z</time></trkpt><trkpt lat="40.10558559582962" lon="8.569880518312607"><ele>523.0</ele><time>2026-05-02T10:07:40Z</time></trkpt><trkpt lat="40.105526591969586" lon="8.569934139516793"><ele>521.3333333333333</ele><time>2026-05-02T10:07:41Z</time></trkpt><trkpt lat="40.1054361638631" lon="8.569978469911698"><ele>519.6666666666666</ele><time>2026-05-02T10:07:42Z</time></trkpt><trkpt lat="40.10534249168113" lon="8.57005493909925"><ele>518.0</ele><time>2026-05-02T10:07:43Z</time></trkpt><trkpt lat="40.10525234775735" lon="8.570174961730592"><ele>518.0</ele><time>2026-05-02T10:07:44Z</time></trkpt><trkpt lat="40.10514778556309" lon="8.570324610085336"><ele>518.0</ele><time>2026-05-02T10:07:44.999Z</time></trkpt><trkpt lat="40.10504988960129" lon="8.570475830921511"><ele>518.0</ele><time>2026-05-02T10:07:45.999Z</time></trkpt><trkpt lat="40.104975467500374" lon="8.570639390723619"><ele>518.5</ele><time>2026-05-02T10:07:46.999Z</time></trkpt><trkpt lat="40.1049185859068" lon="8.570785098024679"><ele>519.0</ele><time>2026-05-02T10:07:47.999Z</time></trkpt><trkpt lat="40.104851483626454" lon="8.570905168253294"><ele>519.5</ele><time>2026-05-02T10:07:48.999Z</time></trkpt><trkpt lat="40.10478069352339" lon="8.571012160906228"><ele>520.0</ele><time>2026-05-02T10:07:49.999Z</time></trkpt><trkpt lat="40.10469523945521" lon="8.571117048494722"><ele>516.5</ele><time>2026-05-02T10:07:50.999Z</time></trkpt><trkpt lat="40.10458635470851" lon="8.57120544443778"><ele>513.0</ele><time>2026-05-02T10:07:51.999Z</time></trkpt><trkpt lat="40.104493050751024" lon="8.571308759442175"><ele>509.5</ele><time>2026-05-02T10:07:52.999Z</time></trkpt><trkpt lat="40.10440050152638" lon="8.571390577767756"><ele>506.0</ele><time>2026-05-02T10:07:53.999Z</time></trkpt><trkpt lat="40.10431509183193" lon="8.571492736600732"><ele>506.0</ele><time>2026-05-02T10:07:54.999Z</time></trkpt><trkpt lat="40.104216967019305" lon="8.571611709430146"><ele>506.0</ele><time>2026-05-02T10:07:55.999Z</time></trkpt><trkpt lat="40.10409757157416" lon="8.571734800960346"><ele>506.0</ele><time>2026-05-02T10:07:56.999Z</time></trkpt><trkpt lat="40.10397651814707" lon="8.571856916361423"><ele>506.0</ele><time>2026-05-02T10:07:57.999Z</time></trkpt><trkpt lat="40.1038734353033" lon="8.571965618376517"><ele>505.0</ele><time>2026-05-02T10:07:58.999Z</time></trkpt><trkpt lat="40.10376716878227" lon="8.57202678909828"><ele>504.0</ele><time>2026-05-02T10:07:59.999Z</time></trkpt><trkpt lat="40.10363926930661" lon="8.572087955176723"><ele>503.0</ele><time>2026-05-02T10:08:00.999Z</time></trkpt><trkpt lat="40.103509842744415" lon="8.572173473595017"><ele>502.0</ele><time>2026-05-02T10:08:01.999Z</time></trkpt><trkpt lat="40.103390651017754" lon="8.572263802708918"><ele>502.0</ele><time>2026-05-02T10:08:02.999Z</time></trkpt><trkpt lat="40.1032735947151" lon="8.57235433075051"><ele>502.0</ele><time>2026-05-02T10:08:03.999Z</time></trkpt><trkpt lat="40.1031580758972" lon="8.572448373806786"><ele>502.0</ele><time>2026-05-02T10:08:04.999Z</time></trkpt><trkpt lat="40.10305365126165" lon="8.57252187094875"><ele>502.0</ele><time>2026-05-02T10:08:05.999Z</time></trkpt><trkpt lat="40.10295040321342" lon="8.572585041315037"><ele>503.20000000000005</ele><time>2026-05-02T10:08:06.999Z</time></trkpt><trkpt lat="40.102846281450645" lon="8.572652757866283"><ele>504.40000000000003</ele><time>2026-05-02T10:08:07.999Z</time></trkpt><trkpt lat="40.1027467904672" lon="8.572733081646028"><ele>505.59999999999997</ele><time>2026-05-02T10:08:08.999Z</time></trkpt><trkpt lat="40.10264689549951" lon="8.57277730980288"><ele>506.79999999999995</ele><time>2026-05-02T10:08:09.999Z</time></trkpt><trkpt lat="40.10255616852711" lon="8.572804033100445"><ele>508.0</ele><time>2026-05-02T10:08:10.999Z</time></trkpt><trkpt lat="40.10245515125325" lon="8.572814988708988"><ele>509.0</ele><time>2026-05-02T10:08:11.999Z</time></trkpt><trkpt lat="40.10234113100692" lon="8.572794359445593"><ele>510.0</ele><time>2026-05-02T10:08:12.999Z</time></trkpt><trkpt lat="40.102216114992636" lon="8.572782302919023"><ele>511.0</ele><time>2026-05-02T10:08:13.999Z</time></trkpt><trkpt lat="40.10209013646605" lon="8.572768028875219"><ele>512.0</ele><time>2026-05-02T10:08:14.999Z</time></trkpt><trkpt lat="40.101965078675796" lon="8.572716807269755"><ele>512.0</ele><time>2026-05-02T10:08:15.999Z</time></trkpt><trkpt lat="40.10183664786737" lon="8.5726847678293"><ele>512.0</ele><time>2026-05-02T10:08:16.999Z</time></trkpt><trkpt lat="40.10170882767876" lon="8.572649771201313"><ele>512.0</ele><time>2026-05-02T10:08:17.999Z</time></trkpt><trkpt lat="40.10158829216711" lon="8.572610194926625"><ele>512.0</ele><time>2026-05-02T10:08:18.999Z</time></trkpt><trkpt lat="40.10148029769197" lon="8.572570837011657"><ele>512.75</ele><time>2026-05-02T10:08:19.999Z</time></trkpt><trkpt lat="40.10137297388453" lon="8.57252492083734"><ele>513.5</ele><time>2026-05-02T10:08:20.999Z</time></trkpt><trkpt lat="40.101250466091976" lon="8.572506627998084"><ele>514.25</ele><time>2026-05-02T10:08:21.999Z</time></trkpt><trkpt lat="40.10112244848498" lon="8.572489914823215"><ele>515.0</ele><time>2026-05-02T10:08:22.999Z</time></trkpt><trkpt lat="40.10097716269028" lon="8.572510574261665"><ele>515.0</ele><time>2026-05-02T10:08:23.999Z</time></trkpt><trkpt lat="40.10081850557948" lon="8.572481232409784"><ele>515.0</ele><time>2026-05-02T10:08:24.999Z</time></trkpt><trkpt lat="40.10066207606925" lon="8.572432191406545"><ele>515.0</ele><time>2026-05-02T10:08:25.999Z</time></trkpt><trkpt lat="40.100511141387166" lon="8.57235417226538"><ele>516.5</ele><time>2026-05-02T10:08:26.999Z</time></trkpt><trkpt lat="40.10035945065568" lon="8.57232513513266"><ele>518.0</ele><time>2026-05-02T10:08:27.999Z</time></trkpt><trkpt lat="40.10022631733715" lon="8.572286093216889"><ele>519.5</ele><time>2026-05-02T10:08:28.999Z</time></trkpt><trkpt lat="40.10011768820568" lon="8.572210994568119"><ele>521.0</ele><time>2026-05-02T10:08:29.999Z</time></trkpt><trkpt lat="40.100013250527944" lon="8.572204858415637"><ele>521.75</ele><time>2026-05-02T10:08:30.999Z</time></trkpt><trkpt lat="40.09989484630713" lon="8.57221443874521"><ele>522.5</ele><time>2026-05-02T10:08:31.999Z</time></trkpt><trkpt lat="40.09976148081635" lon="8.57219044716085"><ele>523.25</ele><time>2026-05-02T10:08:32.999Z</time></trkpt><trkpt lat="40.09961371123687" lon="8.572178046636878"><ele>524.0</ele><time>2026-05-02T10:08:33.999Z</time></trkpt><trkpt lat="40.09945268608596" lon="8.572160044685747"><ele>524.0</ele><time>2026-05-02T10:08:34.999Z</time></trkpt><trkpt lat="40.099288735545166" lon="8.572138354423739"><ele>524.0</ele><time>2026-05-02T10:08:35.999Z</time></trkpt><trkpt lat="40.09913219356887" lon="8.572126159442606"><ele>524.0</ele><time>2026-05-02T10:08:36.999Z</time></trkpt><trkpt lat="40.09898004729166" lon="8.572116345445254"><ele>527.75</ele><time>2026-05-02T10:08:37.999Z</time></trkpt><trkpt lat="40.098822060563364" lon="8.572090235580262"><ele>531.5</ele><time>2026-05-02T10:08:38.999Z</time></trkpt><trkpt lat="40.09868592784916" lon="8.572054568683003"><ele>535.25</ele><time>2026-05-02T10:08:39.999Z</time></trkpt><trkpt lat="40.09856302726267" lon="8.571982721372205"><ele>539.0</ele><time>2026-05-02T10:08:40.999Z</time></trkpt><trkpt lat="40.0984350348626" lon="8.571908755663195"><ele>533.5</ele><time>2026-05-02T10:08:41.999Z</time></trkpt><trkpt lat="40.09829783199266" lon="8.571888088172432"><ele>528.0</ele><time>2026-05-02T10:08:42.999Z</time></trkpt><trkpt lat="40.09816795940305" lon="8.571864443742301"><ele>522.5</ele><time>2026-05-02T10:08:43.999Z</time></trkpt><trkpt lat="40.098024962505605" lon="8.571840598021987"><ele>517.0</ele><time>2026-05-02T10:08:44.999Z</time></trkpt><trkpt lat="40.097876152988945" lon="8.571789981479855"><ele>517.0</ele><time>2026-05-02T10:08:45.999Z</time></trkpt><trkpt lat="40.09773302605522" lon="8.571743429020346"><ele>517.0</ele><time>2026-05-02T10:08:46.999Z</time></trkpt><trkpt lat="40.09758889134196" lon="8.571705600376943"><ele>517.0</ele><time>2026-05-02T10:08:47.998Z</time></trkpt><trkpt lat="40.09743738240802" lon="8.571683718309572"><ele>517.0</ele><time>2026-05-02T10:08:48.998Z</time></trkpt><trkpt lat="40.09729197832619" lon="8.571653232573"><ele>520.5</ele><time>2026-05-02T10:08:49.998Z</time></trkpt><trkpt lat="40.097165941168065" lon="8.571616520271258"><ele>524.0</ele><time>2026-05-02T10:08:50.998Z</time></trkpt><trkpt lat="40.097040278724805" lon="8.571567034093714"><ele>527.5</ele><time>2026-05-02T10:08:51.998Z</time></trkpt><trkpt lat="40.09691686629026" lon="8.571502332099262"><ele>531.0</ele><time>2026-05-02T10:08:52.998Z</time></trkpt><trkpt lat="40.09678747710287" lon="8.571435694197987"><ele>531.0</ele><time>2026-05-02T10:08:53.998Z</time></trkpt><trkpt lat="40.09664738633085" lon="8.571395335608182"><ele>531.0</ele><time>2026-05-02T10:08:54.998Z</time></trkpt><trkpt lat="40.09650011610757" lon="8.571356627041265"><ele>531.0</ele><time>2026-05-02T10:08:55.998Z</time></trkpt><trkpt lat="40.0963466060187" lon="8.57132253138539"><ele>531.0</ele><time>2026-05-02T10:08:56.998Z</time></trkpt><trkpt lat="40.09620499160533" lon="8.571329199988414"><ele>533.25</ele><time>2026-05-02T10:08:57.998Z</time></trkpt><trkpt lat="40.096069269838495" lon="8.571350495996015"><ele>535.5</ele><time>2026-05-02T10:08:58.998Z</time></trkpt><trkpt lat="40.09593476631243" lon="8.571384702302954"><ele>537.75</ele><time>2026-05-02T10:08:59.998Z</time></trkpt><trkpt lat="40.09578872169254" lon="8.571373920384147"><ele>540.0</ele><time>2026-05-02T10:09:00.998Z</time></trkpt><trkpt lat="40.0956514408341" lon="8.571414615750493"><ele>540.0</ele><time>2026-05-02T10:09:01.998Z</time></trkpt><trkpt lat="40.095512359703676" lon="8.571450348512966"><ele>540.0</ele><time>2026-05-02T10:09:02.998Z</time></trkpt><trkpt lat="40.09537078162212" lon="8.571466842113933"><ele>540.0</ele><time>2026-05-02T10:09:03.998Z</time></trkpt><trkpt lat="40.09524365373239" lon="8.571491420565275"><ele>540.0</ele><time>2026-05-02T10:09:04.998Z</time></trkpt><trkpt lat="40.09510776392778" lon="8.571506680252844"><ele>540.0</ele><time>2026-05-02T10:09:05.998Z</time></trkpt><trkpt lat="40.094966267384144" lon="8.571517459366389"><ele>540.0</ele><time>2026-05-02T10:09:06.998Z</time></trkpt><trkpt lat="40.094828019697495" lon="8.571524150980608"><ele>540.0</ele><time>2026-05-02T10:09:07.998Z</time></trkpt><trkpt lat="40.09469289946738" lon="8.571535521316386"><ele>540.0</ele><time>2026-05-02T10:09:08.998Z</time></trkpt><trkpt lat="40.09455637077505" lon="8.571471358920885"><ele>542.5</ele><time>2026-05-02T10:09:09.998Z</time></trkpt><trkpt lat="40.09442195705977" lon="8.571457322618873"><ele>545.0</ele><time>2026-05-02T10:09:10.998Z</time></trkpt><trkpt lat="40.09431930655729" lon="8.57137593978277"><ele>547.5</ele><time>2026-05-02T10:09:11.998Z</time></trkpt><trkpt lat="40.09420653657088" lon="8.571342623978222"><ele>550.0</ele><time>2026-05-02T10:09:12.998Z</time></trkpt><trkpt lat="40.09408740758463" lon="8.571320302543263"><ele>551.2</ele><time>2026-05-02T10:09:13.998Z</time></trkpt><trkpt lat="40.093976361436106" lon="8.571307618080798"><ele>552.4</ele><time>2026-05-02T10:09:14.998Z</time></trkpt><trkpt lat="40.09387788501532" lon="8.571316994328706"><ele>553.6</ele><time>2026-05-02T10:09:15.998Z</time></trkpt><trkpt lat="40.09378399333163" lon="8.571345055661794"><ele>554.8</ele><time>2026-05-02T10:09:16.998Z</time></trkpt><trkpt lat="40.09366255919072" lon="8.571355340085322"><ele>556.0</ele><time>2026-05-02T10:09:17.998Z</time></trkpt><trkpt lat="40.09353037475935" lon="8.571374170561553"><ele>556.0</ele><time>2026-05-02T10:09:18.998Z</time></trkpt><trkpt lat="40.09339519133914" lon="8.571385811159928"><ele>556.0</ele><time>2026-05-02T10:09:19.998Z</time></trkpt><trkpt lat="40.093257737004784" lon="8.571392551741583"><ele>556.0</ele><time>2026-05-02T10:09:20.998Z</time></trkpt><trkpt lat="40.09311422644681" lon="8.571392788471298"><ele>556.0</ele><time>2026-05-02T10:09:21.998Z</time></trkpt><trkpt lat="40.092962283807054" lon="8.571388068721475"><ele>554.8</ele><time>2026-05-02T10:09:22.998Z</time></trkpt><trkpt lat="40.09280991249125" lon="8.57138084414589"><ele>553.6</ele><time>2026-05-02T10:09:23.998Z</time></trkpt><trkpt lat="40.09267115422045" lon="8.571379942663624"><ele>552.4</ele><time>2026-05-02T10:09:24.998Z</time></trkpt><trkpt lat="40.09258630989393" lon="8.571375084445982"><ele>551.2</ele><time>2026-05-02T10:09:25.998Z</time></trkpt><trkpt lat="40.092519730644796" lon="8.571370348814591"><ele>550.0</ele><time>2026-05-02T10:09:26.998Z</time></trkpt><trkpt lat="40.092475338998284" lon="8.571265371969506"><ele>548.0</ele><time>2026-05-02T10:09:28Z</time></trkpt><trkpt lat="40.09238909743137" lon="8.571181479070402"><ele>546.0</ele><time>2026-05-02T10:09:29Z</time></trkpt><trkpt lat="40.09229650538891" lon="8.571083629093343"><ele>544.0</ele><time>2026-05-02T10:09:30Z</time></trkpt><trkpt lat="40.09219384093324" lon="8.570971784916157"><ele>542.0</ele><time>2026-05-02T10:09:31Z</time></trkpt><trkpt lat="40.09207866047666" lon="8.57087973022575"><ele>542.0</ele><time>2026-05-02T10:09:32Z</time></trkpt><trkpt lat="40.09194894759081" lon="8.570807782395416"><ele>542.0</ele><time>2026-05-02T10:09:33Z</time></trkpt><trkpt lat="40.091831330045494" lon="8.570760405216818"><ele>542.0</ele><time>2026-05-02T10:09:34Z</time></trkpt><trkpt lat="40.09170602020158" lon="8.570710736438269"><ele>542.0</ele><time>2026-05-02T10:09:35Z</time></trkpt><trkpt lat="40.09159867014821" lon="8.570614551920253"><ele>544.75</ele><time>2026-05-02T10:09:36Z</time></trkpt><trkpt lat="40.091488100854974" lon="8.570585509518994"><ele>547.5</ele><time>2026-05-02T10:09:37Z</time></trkpt><trkpt lat="40.09137600706167" lon="8.57061190788046"><ele>550.25</ele><time>2026-05-02T10:09:38Z</time></trkpt><trkpt lat="40.09124975519481" lon="8.570624853172871"><ele>553.0</ele><time>2026-05-02T10:09:39Z</time></trkpt><trkpt lat="40.091120598704045" lon="8.570694357130956"><ele>553.0</ele><time>2026-05-02T10:09:40Z</time></trkpt><trkpt lat="40.09099442067149" lon="8.570768924260738"><ele>553.0</ele><time>2026-05-02T10:09:41Z</time></trkpt><trkpt lat="40.09086713820179" lon="8.570846517682492"><ele>553.0</ele><time>2026-05-02T10:09:42Z</time></trkpt><trkpt lat="40.090744079035034" lon="8.570917220302603"><ele>553.0</ele><time>2026-05-02T10:09:43Z</time></trkpt><trkpt lat="40.09062327531329" lon="8.57098397489322"><ele>555.25</ele><time>2026-05-02T10:09:44Z</time></trkpt><trkpt lat="40.09050576668449" lon="8.571038698695538"><ele>557.5</ele><time>2026-05-02T10:09:45Z</time></trkpt><trkpt lat="40.09038247051052" lon="8.571031120114014"><ele>559.75</ele><time>2026-05-02T10:09:45.999Z</time></trkpt><trkpt lat="40.09024781922916" lon="8.571027008130425"><ele>562.0</ele><time>2026-05-02T10:09:46.999Z</time></trkpt><trkpt lat="40.09012264320526" lon="8.571046614661443"><ele>562.0</ele><time>2026-05-02T10:09:47.999Z</time></trkpt><trkpt lat="40.08999557984919" lon="8.571052230411297"><ele>562.0</ele><time>2026-05-02T10:09:48.999Z</time></trkpt><trkpt lat="40.08989774330824" lon="8.571057957597715"><ele>562.0</ele><time>2026-05-02T10:09:49.999Z</time></trkpt><trkpt lat="40.08983510608294" lon="8.571031557872177"><ele>562.0</ele><time>2026-05-02T10:09:50.999Z</time></trkpt><trkpt lat="40.08981369050935" lon="8.57087112275946"><ele>562.0</ele><time>2026-05-02T10:09:52.999Z</time></trkpt><trkpt lat="40.08977475700045" lon="8.570766910000453"><ele>563.6</ele><time>2026-05-02T10:09:53.999Z</time></trkpt><trkpt lat="40.0897341963902" lon="8.570656303904812"><ele>565.2</ele><time>2026-05-02T10:09:54.999Z</time></trkpt><trkpt lat="40.08964911178526" lon="8.570595116451477"><ele>566.8</ele><time>2026-05-02T10:09:55.999Z</time></trkpt><trkpt lat="40.08954657751123" lon="8.570551903118783"><ele>568.4</ele><time>2026-05-02T10:09:56.999Z</time></trkpt><trkpt lat="40.08945795445292" lon="8.570462211580784"><ele>570.0</ele><time>2026-05-02T10:09:58Z</time></trkpt><trkpt lat="40.08936632138369" lon="8.57038307124631"><ele>570.0</ele><time>2026-05-02T10:09:59Z</time></trkpt><trkpt lat="40.08925611326653" lon="8.570290566486422"><ele>570.0</ele><time>2026-05-02T10:10:00Z</time></trkpt><trkpt lat="40.08916114052224" lon="8.570207551482616"><ele>570.0</ele><time>2026-05-02T10:10:01Z</time></trkpt><trkpt lat="40.0890863433642" lon="8.570120102432824"><ele>570.0</ele><time>2026-05-02T10:10:02Z</time></trkpt><trkpt lat="40.08900463270227" lon="8.570052174923099"><ele>570.0</ele><time>2026-05-02T10:10:03Z</time></trkpt><trkpt lat="40.0889398058817" lon="8.569989637406508"><ele>569.6</ele><time>2026-05-02T10:10:04Z</time></trkpt><trkpt lat="40.08885477310681" lon="8.56998037946775"><ele>569.2</ele><time>2026-05-02T10:10:05Z</time></trkpt><trkpt lat="40.08875688234038" lon="8.570001159992552"><ele>568.8</ele><time>2026-05-02T10:10:06Z</time></trkpt><trkpt lat="40.08864335239634" lon="8.569998207752922"><ele>568.4</ele><time>2026-05-02T10:10:07Z</time></trkpt><trkpt lat="40.088513636860235" lon="8.570025015047127"><ele>568.0</ele><time>2026-05-02T10:10:08Z</time></trkpt><trkpt lat="40.08838512756305" lon="8.570062456157089"><ele>568.0</ele><time>2026-05-02T10:10:09Z</time></trkpt><trkpt lat="40.08826381905981" lon="8.570156563078923"><ele>568.0</ele><time>2026-05-02T10:10:10Z</time></trkpt><trkpt lat="40.088137672936604" lon="8.57024821501152"><ele>568.0</ele><time>2026-05-02T10:10:11Z</time></trkpt><trkpt lat="40.08800915193356" lon="8.570333184912322"><ele>568.0</ele><time>2026-05-02T10:10:12Z</time></trkpt><trkpt lat="40.08792429024791" lon="8.570458298874241"><ele>567.0</ele><time>2026-05-02T10:10:13Z</time></trkpt><trkpt lat="40.08784518752311" lon="8.57057015328862"><ele>566.0</ele><time>2026-05-02T10:10:14Z</time></trkpt><trkpt lat="40.08775458939199" lon="8.570641652859923"><ele>565.0</ele><time>2026-05-02T10:10:15Z</time></trkpt><trkpt lat="40.08764651264323" lon="8.57067897473608"><ele>564.0</ele><time>2026-05-02T10:10:16Z</time></trkpt><trkpt lat="40.08751775948824" lon="8.570730231977564"><ele>562.0</ele><time>2026-05-02T10:10:17Z</time></trkpt><trkpt lat="40.0873761493263" lon="8.570791370742587"><ele>560.0</ele><time>2026-05-02T10:10:18Z</time></trkpt><trkpt lat="40.087245651974364" lon="8.57083379287086"><ele>558.0</ele><time>2026-05-02T10:10:19Z</time></trkpt><trkpt lat="40.08711402463343" lon="8.570851405111972"><ele>556.0</ele><time>2026-05-02T10:10:20Z</time></trkpt><trkpt lat="40.08700561205143" lon="8.57089707327729"><ele>556.0</ele><time>2026-05-02T10:10:21Z</time></trkpt><trkpt lat="40.08687730784645" lon="8.570908558379042"><ele>556.0</ele><time>2026-05-02T10:10:22Z</time></trkpt><trkpt lat="40.08674868096429" lon="8.570934344385515"><ele>556.0</ele><time>2026-05-02T10:10:23Z</time></trkpt><trkpt lat="40.08662535736736" lon="8.57095028147778"><ele>556.0</ele><time>2026-05-02T10:10:24Z</time></trkpt><trkpt lat="40.08651180699231" lon="8.5709558360142"><ele>553.6666666666667</ele><time>2026-05-02T10:10:25Z</time></trkpt><trkpt lat="40.086416661224355" lon="8.57095986756706"><ele>551.3333333333334</ele><time>2026-05-02T10:10:26Z</time></trkpt><trkpt lat="40.08632761306683" lon="8.570963640728342"><ele>549.0</ele><time>2026-05-02T10:10:27Z</time></trkpt><trkpt lat="40.08623595967447" lon="8.5709675242772"><ele>546.6666666666666</ele><time>2026-05-02T10:10:28Z</time></trkpt><trkpt lat="40.08614672282716" lon="8.571017243324071"><ele>544.3333333333333</ele><time>2026-05-02T10:10:29Z</time></trkpt><trkpt lat="40.08607384425467" lon="8.571018783058935"><ele>542.0</ele><time>2026-05-02T10:10:30Z</time></trkpt><trkpt lat="40.085979547185545" lon="8.571022055785516"><ele>542.0</ele><time>2026-05-02T10:10:32Z</time></trkpt><trkpt lat="40.08589595824166" lon="8.571049551608589"><ele>542.0</ele><time>2026-05-02T10:10:34Z</time></trkpt><trkpt lat="40.085786049066634" lon="8.571069428621994"><ele>542.0</ele><time>2026-05-02T10:10:36Z</time></trkpt><trkpt lat="40.08571807976853" lon="8.571082878685898"><ele>542.0</ele><time>2026-05-02T10:10:37Z</time></trkpt><trkpt lat="40.08563410327675" lon="8.571096210920619"><ele>542.0</ele><time>2026-05-02T10:10:38Z</time></trkpt><trkpt lat="40.08554568487513" lon="8.571115469187326"><ele>542.0</ele><time>2026-05-02T10:10:39Z</time></trkpt><trkpt lat="40.08545288059858" lon="8.571135441291037"><ele>539.8000000000001</ele><time>2026-05-02T10:10:40Z</time></trkpt><trkpt lat="40.08535395116516" lon="8.571154124924277"><ele>537.6</ele><time>2026-05-02T10:10:41Z</time></trkpt><trkpt lat="40.085255034326984" lon="8.57115964860062"><ele>535.4000000000001</ele><time>2026-05-02T10:10:42Z</time></trkpt><trkpt lat="40.0851591572312" lon="8.571113619325299"><ele>533.2</ele><time>2026-05-02T10:10:43Z</time></trkpt><trkpt lat="40.085065361135534" lon="8.571066591726098"><ele>531.0</ele><time>2026-05-02T10:10:44Z</time></trkpt><trkpt lat="40.08497222859024" lon="8.571007389996577"><ele>528.6</ele><time>2026-05-02T10:10:45Z</time></trkpt><trkpt lat="40.08486629346959" lon="8.570973972962886"><ele>526.2</ele><time>2026-05-02T10:10:46Z</time></trkpt><trkpt lat="40.08476323770168" lon="8.570953837052334"><ele>523.8</ele><time>2026-05-02T10:10:47Z</time></trkpt><trkpt lat="40.08465519573504" lon="8.570934397479068"><ele>521.4</ele><time>2026-05-02T10:10:47.999Z</time></trkpt><trkpt lat="40.08454213210058" lon="8.5709107678304"><ele>519.0</ele><time>2026-05-02T10:10:48.999Z</time></trkpt><trkpt lat="40.08443327047886" lon="8.570888016413965"><ele>519.0</ele><time>2026-05-02T10:10:49.999Z</time></trkpt><trkpt lat="40.08431560541454" lon="8.570863108756726"><ele>519.0</ele><time>2026-05-02T10:10:50.999Z</time></trkpt><trkpt lat="40.08420065033097" lon="8.570838390824312"><ele>519.0</ele><time>2026-05-02T10:10:51.999Z</time></trkpt><trkpt lat="40.0840963588358" lon="8.570813956096671"><ele>519.0</ele><time>2026-05-02T10:10:52.999Z</time></trkpt><trkpt lat="40.08401331577064" lon="8.570787302814763"><ele>519.0</ele><time>2026-05-02T10:10:53.999Z</time></trkpt><trkpt lat="40.08394333472711" lon="8.57076309858528"><ele>517.2</ele><time>2026-05-02T10:10:54.999Z</time></trkpt><trkpt lat="40.08384599423321" lon="8.570759331557865"><ele>515.4</ele><time>2026-05-02T10:10:56.999Z</time></trkpt><trkpt lat="40.08380711408629" lon="8.570672346779917"><ele>513.6</ele><time>2026-05-02T10:11:33.001Z</time></trkpt><trkpt lat="40.083831212669956" lon="8.570523792329293"><ele>511.8</ele><time>2026-05-02T10:11:35Z</time></trkpt><trkpt lat="40.08384462242772" lon="8.570413559904164"><ele>510.0</ele><time>2026-05-02T10:11:36.001Z</time></trkpt><trkpt lat="40.08381676419482" lon="8.570273960590852"><ele>510.0</ele><time>2026-05-02T10:11:37.001Z</time></trkpt><trkpt lat="40.0838122448164" lon="8.570121685119204"><ele>510.0</ele><time>2026-05-02T10:11:38Z</time></trkpt><trkpt lat="40.08378537758326" lon="8.569971792869369"><ele>510.0</ele><time>2026-05-02T10:11:39.001Z</time></trkpt><trkpt lat="40.0837813992357" lon="8.56980135514826"><ele>510.0</ele><time>2026-05-02T10:11:40.001Z</time></trkpt><trkpt lat="40.083783557671104" lon="8.569617644618303"><ele>508.66666666666663</ele><time>2026-05-02T10:11:41Z</time></trkpt><trkpt lat="40.083778946062" lon="8.569429850311483"><ele>507.3333333333333</ele><time>2026-05-02T10:11:42.001Z</time></trkpt><trkpt lat="40.083757990416686" lon="8.569218472743485"><ele>506.0</ele><time>2026-05-02T10:11:43.001Z</time></trkpt><trkpt lat="40.08375270500232" lon="8.568993653465563"><ele>506.0</ele><time>2026-05-02T10:11:44Z</time></trkpt><trkpt lat="40.08371426891181" lon="8.568770693199127"><ele>506.0</ele><time>2026-05-02T10:11:45.001Z</time></trkpt><trkpt lat="40.08367025948627" lon="8.568548234825654"><ele>506.0</ele><time>2026-05-02T10:11:46.001Z</time></trkpt><trkpt lat="40.08364612988435" lon="8.568349681387138"><ele>506.5</ele><time>2026-05-02T10:11:47Z</time></trkpt><trkpt lat="40.08362762907256" lon="8.568152157930252"><ele>507.0</ele><time>2026-05-02T10:11:48Z</time></trkpt><trkpt lat="40.083628867137016" lon="8.5679891732628"><ele>507.5</ele><time>2026-05-02T10:11:49Z</time></trkpt><trkpt lat="40.08362803038629" lon="8.567821488889846"><ele>508.0</ele><time>2026-05-02T10:11:50Z</time></trkpt><trkpt lat="40.08365741309789" lon="8.567655616811866"><ele>508.5</ele><time>2026-05-02T10:11:51Z</time></trkpt><trkpt lat="40.083675631310776" lon="8.567507640093684"><ele>509.0</ele><time>2026-05-02T10:11:52Z</time></trkpt><trkpt lat="40.08366313506281" lon="8.567365943829461"><ele>509.5</ele><time>2026-05-02T10:11:53Z</time></trkpt><trkpt lat="40.08361469545649" lon="8.567221393585353"><ele>510.0</ele><time>2026-05-02T10:11:54Z</time></trkpt><trkpt lat="40.08362428704231" lon="8.56707057516119"><ele>509.25</ele><time>2026-05-02T10:11:55Z</time></trkpt><trkpt lat="40.08361948975147" lon="8.566892697567358"><ele>508.5</ele><time>2026-05-02T10:11:56Z</time></trkpt><trkpt lat="40.08360407176754" lon="8.56669981668441"><ele>507.75</ele><time>2026-05-02T10:11:57Z</time></trkpt><trkpt lat="40.083594082295036" lon="8.566530615169242"><ele>507.0</ele><time>2026-05-02T10:11:58Z</time></trkpt><trkpt lat="40.08356856142705" lon="8.566368926593531"><ele>506.0</ele><time>2026-05-02T10:11:59Z</time></trkpt><trkpt lat="40.08353806180662" lon="8.566181168028631"><ele>505.00000000000006</ele><time>2026-05-02T10:12:00Z</time></trkpt><trkpt lat="40.08351505508175" lon="8.566044760116613"><ele>504.00000000000006</ele><time>2026-05-02T10:12:01Z</time></trkpt><trkpt lat="40.0835251120758" lon="8.565938432670574"><ele>503.0</ele><time>2026-05-02T10:12:02Z</time></trkpt><trkpt lat="40.08352232690362" lon="8.565792761520978"><ele>502.0</ele><time>2026-05-02T10:12:03Z</time></trkpt><trkpt lat="40.08347954903134" lon="8.56561912698379"><ele>502.00000000000006</ele><time>2026-05-02T10:12:04Z</time></trkpt><trkpt lat="40.083476611007335" lon="8.565455345570436"><ele>502.0</ele><time>2026-05-02T10:12:05Z</time></trkpt><trkpt lat="40.08347030429667" lon="8.56532712839671"><ele>502.0</ele><time>2026-05-02T10:12:06Z</time></trkpt><trkpt lat="40.083440120878315" lon="8.565251381638273"><ele>502.0</ele><time>2026-05-02T10:12:07Z</time></trkpt><trkpt lat="40.08342091212841" lon="8.565168093245038"><ele>502.00000000000006</ele><time>2026-05-02T10:12:08Z</time></trkpt><trkpt lat="40.083361588483115" lon="8.565127036398788"><ele>502.0</ele><time>2026-05-02T10:12:09Z</time></trkpt><trkpt lat="40.08325448152744" lon="8.565155536181317"><ele>500.00000000000006</ele><time>2026-05-02T10:12:10Z</time></trkpt><trkpt lat="40.08316791492325" lon="8.565141777284595"><ele>498.0</ele><time>2026-05-02T10:12:11Z</time></trkpt><trkpt lat="40.08308437719561" lon="8.565116435046276"><ele>496.0</ele><time>2026-05-02T10:12:12Z</time></trkpt><trkpt lat="40.08299550926778" lon="8.565078966204975"><ele>494.0</ele><time>2026-05-02T10:12:13Z</time></trkpt><trkpt lat="40.08291600649242" lon="8.565036884320767"><ele>492.00000000000006</ele><time>2026-05-02T10:12:14Z</time></trkpt><trkpt lat="40.08285698055319" lon="8.564981766739345"><ele>490.0</ele><time>2026-05-02T10:12:15Z</time></trkpt><trkpt lat="40.082810717818866" lon="8.564882610975797"><ele>490.0</ele><time>2026-05-02T10:12:16Z</time></trkpt><trkpt lat="40.082751753616535" lon="8.564829168176917"><ele>490.0</ele><time>2026-05-02T10:12:17Z</time></trkpt><trkpt lat="40.08268345553787" lon="8.564807528333166"><ele>490.0</ele><time>2026-05-02T10:12:18Z</time></trkpt><trkpt lat="40.08259657418277" lon="8.564850342537433"><ele>490.0</ele><time>2026-05-02T10:12:19Z</time></trkpt><trkpt lat="40.08251251577687" lon="8.564899084154794"><ele>490.0</ele><time>2026-05-02T10:12:20Z</time></trkpt><trkpt lat="40.08239190356384" lon="8.564953860800673"><ele>487.75</ele><time>2026-05-02T10:12:21Z</time></trkpt><trkpt lat="40.08226535367689" lon="8.56503411936306"><ele>485.5</ele><time>2026-05-02T10:12:22Z</time></trkpt><trkpt lat="40.082146620591764" lon="8.56511215320942"><ele>483.25</ele><time>2026-05-02T10:12:23Z</time></trkpt><trkpt lat="40.08203451191993" lon="8.565170067449067"><ele>481.0</ele><time>2026-05-02T10:12:24Z</time></trkpt><trkpt lat="40.08194802040343" lon="8.56524329634396"><ele>480.75</ele><time>2026-05-02T10:12:25Z</time></trkpt><trkpt lat="40.08189169079849" lon="8.565383911029112"><ele>480.5</ele><time>2026-05-02T10:12:26Z</time></trkpt><trkpt lat="40.08179312737681" lon="8.565486804947957"><ele>480.25</ele><time>2026-05-02T10:12:27Z</time></trkpt><trkpt lat="40.08170611201062" lon="8.565589172091258"><ele>480.0</ele><time>2026-05-02T10:12:28Z</time></trkpt><trkpt lat="40.08161779001006" lon="8.565669123622774"><ele>477.5</ele><time>2026-05-02T10:12:29Z</time></trkpt><trkpt lat="40.08150269024896" lon="8.56571455069531"><ele>475.0</ele><time>2026-05-02T10:12:30Z</time></trkpt><trkpt lat="40.08138174500718" lon="8.565815822914"><ele>472.5</ele><time>2026-05-02T10:12:31Z</time></trkpt><trkpt lat="40.08127958207566" lon="8.565891010594385"><ele>470.0</ele><time>2026-05-02T10:12:32Z</time></trkpt><trkpt lat="40.08118996250802" lon="8.565921025815623"><ele>470.0</ele><time>2026-05-02T10:12:33Z</time></trkpt><trkpt lat="40.08113022568092" lon="8.565955575890445"><ele>470.0</ele><time>2026-05-02T10:12:34Z</time></trkpt><trkpt lat="40.081104676168444" lon="8.566074154447477"><ele>470.0</ele><time>2026-05-02T10:12:35Z</time></trkpt><trkpt lat="40.08105963023596" lon="8.56617602962041"><ele>470.0</ele><time>2026-05-02T10:12:36Z</time></trkpt><trkpt lat="40.08100002864366" lon="8.566283482041909"><ele>470.0</ele><time>2026-05-02T10:12:37Z</time></trkpt><trkpt lat="40.08092485160735" lon="8.566401599668145"><ele>469.0</ele><time>2026-05-02T10:12:38Z</time></trkpt><trkpt lat="40.08085450444765" lon="8.566533387998875"><ele>468.0</ele><time>2026-05-02T10:12:39Z</time></trkpt><trkpt lat="40.08083985476765" lon="8.566680981533008"><ele>467.0</ele><time>2026-05-02T10:12:40Z</time></trkpt><trkpt lat="40.08080903516877" lon="8.566839254578435"><ele>466.0</ele><time>2026-05-02T10:12:41Z</time></trkpt><trkpt lat="40.08076998226407" lon="8.566995710085195"><ele>464.0</ele><time>2026-05-02T10:12:42Z</time></trkpt><trkpt lat="40.08069093856162" lon="8.567126828890732"><ele>462.0</ele><time>2026-05-02T10:12:43Z</time></trkpt><trkpt lat="40.080618815787126" lon="8.567302315417923"><ele>460.0</ele><time>2026-05-02T10:12:44Z</time></trkpt><trkpt lat="40.08055527131641" lon="8.567454811611162"><ele>458.0</ele><time>2026-05-02T10:12:45Z</time></trkpt><trkpt lat="40.080471446013775" lon="8.567594146653516"><ele>458.0</ele><time>2026-05-02T10:12:46Z</time></trkpt><trkpt lat="40.080372750824424" lon="8.567732529087873"><ele>458.0</ele><time>2026-05-02T10:12:47Z</time></trkpt><trkpt lat="40.08026525660403" lon="8.567871793123306"><ele>458.0</ele><time>2026-05-02T10:12:48Z</time></trkpt><trkpt lat="40.080170041298295" lon="8.568014024930841"><ele>458.0</ele><time>2026-05-02T10:12:48.999Z</time></trkpt><trkpt lat="40.08006739634438" lon="8.568126295232387"><ele>457.0</ele><time>2026-05-02T10:12:49.999Z</time></trkpt><trkpt lat="40.07998197405755" lon="8.568278064533995"><ele>456.0</ele><time>2026-05-02T10:12:50.999Z</time></trkpt><trkpt lat="40.079888261140525" lon="8.568408417565468"><ele>455.0</ele><time>2026-05-02T10:12:51.999Z</time></trkpt><trkpt lat="40.07977005435804" lon="8.568501174859575"><ele>454.0</ele><time>2026-05-02T10:12:52.999Z</time></trkpt><trkpt lat="40.07970428977314" lon="8.568642364057546"><ele>454.25</ele><time>2026-05-02T10:12:53.999Z</time></trkpt><trkpt lat="40.0796341256711" lon="8.568783894943703"><ele>454.5</ele><time>2026-05-02T10:12:54.999Z</time></trkpt><trkpt lat="40.07957397020783" lon="8.568945373327177"><ele>454.75</ele><time>2026-05-02T10:12:55.999Z</time></trkpt><trkpt lat="40.07950099321703" lon="8.569096532773603"><ele>455.0</ele><time>2026-05-02T10:12:56.999Z</time></trkpt><trkpt lat="40.07947210107884" lon="8.56927838106516"><ele>455.0</ele><time>2026-05-02T10:12:57.999Z</time></trkpt><trkpt lat="40.07943993845821" lon="8.569439623630684"><ele>455.0</ele><time>2026-05-02T10:12:58.999Z</time></trkpt><trkpt lat="40.07942745987785" lon="8.569566200169461"><ele>455.0</ele><time>2026-05-02T10:12:59.999Z</time></trkpt><trkpt lat="40.07944563885487" lon="8.569699618483591"><ele>455.0</ele><time>2026-05-02T10:13:00.999Z</time></trkpt><trkpt lat="40.079461295834385" lon="8.569840069979904"><ele>455.0</ele><time>2026-05-02T10:13:01.999Z</time></trkpt><trkpt lat="40.0794848024348" lon="8.569932369984944"><ele>454.49999999999994</ele><time>2026-05-02T10:13:02.999Z</time></trkpt><trkpt lat="40.079422074182084" lon="8.569981345216629"><ele>454.0</ele><time>2026-05-02T10:13:03.999Z</time></trkpt><trkpt lat="40.0793487684556" lon="8.57001926668848"><ele>453.5</ele><time>2026-05-02T10:13:04.999Z</time></trkpt><trkpt lat="40.07928770451304" lon="8.570098966199744"><ele>453.0</ele><time>2026-05-02T10:13:05.999Z</time></trkpt><trkpt lat="40.07926624100448" lon="8.57021991770548"><ele>452.49999999999994</ele><time>2026-05-02T10:13:06.999Z</time></trkpt><trkpt lat="40.07927976309066" lon="8.570369392013463"><ele>452.0</ele><time>2026-05-02T10:13:07.999Z</time></trkpt><trkpt lat="40.07926750762042" lon="8.57052239798829"><ele>451.40000000000003</ele><time>2026-05-02T10:13:08.999Z</time></trkpt><trkpt lat="40.0792488173293" lon="8.570665206304792"><ele>450.80000000000007</ele><time>2026-05-02T10:13:09.999Z</time></trkpt><trkpt lat="40.07920973550429" lon="8.570796485867067"><ele>450.2</ele><time>2026-05-02T10:13:10.999Z</time></trkpt><trkpt lat="40.079184379374766" lon="8.570935407478036"><ele>449.6</ele><time>2026-05-02T10:13:11.999Z</time></trkpt><trkpt lat="40.079214387801095" lon="8.571073599445153"><ele>449.0</ele><time>2026-05-02T10:13:12.999Z</time></trkpt><trkpt lat="40.07920144915869" lon="8.571200959425454"><ele>448.3333333333333</ele><time>2026-05-02T10:13:13.999Z</time></trkpt><trkpt lat="40.079191687450084" lon="8.57131390729193"><ele>447.66666666666663</ele><time>2026-05-02T10:13:14.999Z</time></trkpt><trkpt lat="40.07917455325391" lon="8.571411780642075"><ele>447.0</ele><time>2026-05-02T10:13:15.999Z</time></trkpt><trkpt lat="40.07914612684349" lon="8.571514472255362"><ele>446.33333333333337</ele><time>2026-05-02T10:13:16.999Z</time></trkpt><trkpt lat="40.0791469502253" lon="8.571627916088303"><ele>445.6666666666667</ele><time>2026-05-02T10:13:17.999Z</time></trkpt><trkpt lat="40.07913655988318" lon="8.571729405234727"><ele>445.0</ele><time>2026-05-02T10:13:18.999Z</time></trkpt><trkpt lat="40.079113952617014" lon="8.571816733938348"><ele>445.0</ele><time>2026-05-02T10:13:19.999Z</time></trkpt><trkpt lat="40.07910533595628" lon="8.571959944598639"><ele>445.0</ele><time>2026-05-02T10:13:21.999Z</time></trkpt><trkpt lat="40.07908337208468" lon="8.57207487639079"><ele>445.0</ele><time>2026-05-02T10:13:23.999Z</time></trkpt><trkpt lat="40.07904355149873" lon="8.572189265298478"><ele>445.0</ele><time>2026-05-02T10:13:25.999Z</time></trkpt><trkpt lat="40.078997345405504" lon="8.572318650810585"><ele>445.0</ele><time>2026-05-02T10:13:27.999Z</time></trkpt><trkpt lat="40.07896677386661" lon="8.572477418105844"><ele>442.00000000000006</ele><time>2026-05-02T10:13:29.999Z</time></trkpt><trkpt lat="40.078956522680905" lon="8.572564958935235"><ele>439.0</ele><time>2026-05-02T10:13:30.999Z</time></trkpt><trkpt lat="40.07893519197916" lon="8.572660595504207"><ele>436.0</ele><time>2026-05-02T10:13:31.999Z</time></trkpt><trkpt lat="40.07888776999487" lon="8.572746571725592"><ele>433.0</ele><time>2026-05-02T10:13:32.999Z</time></trkpt><trkpt lat="40.07885640115796" lon="8.572836811552865"><ele>430.00000000000006</ele><time>2026-05-02T10:13:33.999Z</time></trkpt><trkpt lat="40.0788505579907" lon="8.572945231350134"><ele>427.0</ele><time>2026-05-02T10:13:34.999Z</time></trkpt><trkpt lat="40.07891242741814" lon="8.573060612284737"><ele>425.40000000000003</ele><time>2026-05-02T10:13:35.999Z</time></trkpt><trkpt lat="40.078927647225356" lon="8.573173554275304"><ele>423.80000000000007</ele><time>2026-05-02T10:13:36.999Z</time></trkpt><trkpt lat="40.078865583444994" lon="8.57329581484229"><ele>422.2</ele><time>2026-05-02T10:13:39Z</time></trkpt><trkpt lat="40.078798550696725" lon="8.573357883029162"><ele>420.6</ele><time>2026-05-02T10:13:40Z</time></trkpt><trkpt lat="40.078770375733995" lon="8.573475958970423"><ele>419.0</ele><time>2026-05-02T10:13:41Z</time></trkpt><trkpt lat="40.078769686095185" lon="8.573585690720938"><ele>419.0</ele><time>2026-05-02T10:13:42Z</time></trkpt><trkpt lat="40.078746859397825" lon="8.573705011143417"><ele>419.0</ele><time>2026-05-02T10:13:44Z</time></trkpt><trkpt lat="40.078652682697836" lon="8.573661950904945"><ele>419.0</ele><time>2026-05-02T10:13:47Z</time></trkpt><trkpt lat="40.07859302591967" lon="8.573620456823472"><ele>419.0</ele><time>2026-05-02T10:13:48Z</time></trkpt><trkpt lat="40.07850540743461" lon="8.573571591910113"><ele>419.0</ele><time>2026-05-02T10:13:49Z</time></trkpt><trkpt lat="40.07841578602536" lon="8.573485597100865"><ele>419.0</ele><time>2026-05-02T10:13:50Z</time></trkpt><trkpt lat="40.07832670298388" lon="8.573385027116405"><ele>419.0</ele><time>2026-05-02T10:13:51Z</time></trkpt><trkpt lat="40.07826771349093" lon="8.57323561218233"><ele>419.0</ele><time>2026-05-02T10:13:52Z</time></trkpt><trkpt lat="40.07818897812083" lon="8.573088786159262"><ele>419.0</ele><time>2026-05-02T10:13:53Z</time></trkpt><trkpt lat="40.07813046268749" lon="8.57291234187236"><ele>417.75</ele><time>2026-05-02T10:13:54Z</time></trkpt><trkpt lat="40.078068930980095" lon="8.572738812387678"><ele>416.5</ele><time>2026-05-02T10:13:55Z</time></trkpt><trkpt lat="40.078007159130706" lon="8.572563643158135"><ele>415.25</ele><time>2026-05-02T10:13:56Z</time></trkpt><trkpt lat="40.07793351635586" lon="8.572393525778581"><ele>414.0</ele><time>2026-05-02T10:13:57Z</time></trkpt><trkpt lat="40.07787240715159" lon="8.57221866958418"><ele>414.0</ele><time>2026-05-02T10:13:58Z</time></trkpt><trkpt lat="40.07780046925813" lon="8.572058447411388"><ele>414.0</ele><time>2026-05-02T10:13:59Z</time></trkpt><trkpt lat="40.07772556266154" lon="8.57190864778672"><ele>414.0</ele><time>2026-05-02T10:14:00Z</time></trkpt><trkpt lat="40.07764479114254" lon="8.571747134329751"><ele>414.0</ele><time>2026-05-02T10:14:01Z</time></trkpt><trkpt lat="40.07758297435574" lon="8.571568432109883"><ele>415.25</ele><time>2026-05-02T10:14:02Z</time></trkpt><trkpt lat="40.07751696740809" lon="8.57139799221494"><ele>416.5</ele><time>2026-05-02T10:14:03Z</time></trkpt><trkpt lat="40.07745338124246" lon="8.571233740004455"><ele>417.75</ele><time>2026-05-02T10:14:04Z</time></trkpt><trkpt lat="40.07737031927638" lon="8.571074411565197"><ele>419.0</ele><time>2026-05-02T10:14:05Z</time></trkpt><trkpt lat="40.0772732990259" lon="8.570913708184877"><ele>415.0</ele><time>2026-05-02T10:14:06Z</time></trkpt><trkpt lat="40.0771656973478" lon="8.570750785239946"><ele>411.0</ele><time>2026-05-02T10:14:07Z</time></trkpt><trkpt lat="40.077053503026804" lon="8.57058968700461"><ele>407.0</ele><time>2026-05-02T10:14:08Z</time></trkpt><trkpt lat="40.0769430612448" lon="8.570429615644871"><ele>407.3333333333333</ele><time>2026-05-02T10:14:09Z</time></trkpt><trkpt lat="40.0768438032102" lon="8.570251590645327"><ele>407.66666666666663</ele><time>2026-05-02T10:14:10Z</time></trkpt><trkpt lat="40.07673100431113" lon="8.570076022653039"><ele>408.0</ele><time>2026-05-02T10:14:11Z</time></trkpt><trkpt lat="40.07660525370153" lon="8.569913085037333"><ele>405.66666666666663</ele><time>2026-05-02T10:14:12Z</time></trkpt><trkpt lat="40.076496845126854" lon="8.569734882854105"><ele>403.3333333333333</ele><time>2026-05-02T10:14:13Z</time></trkpt><trkpt lat="40.07637945332795" lon="8.569562632936254"><ele>401.0</ele><time>2026-05-02T10:14:14Z</time></trkpt><trkpt lat="40.076278981845405" lon="8.569376074604481"><ele>401.0</ele><time>2026-05-02T10:14:15Z</time></trkpt><trkpt lat="40.076171160438825" lon="8.569207848678971"><ele>401.0</ele><time>2026-05-02T10:14:16Z</time></trkpt><trkpt lat="40.0760643581388" lon="8.569050704020688"><ele>401.0</ele><time>2026-05-02T10:14:17Z</time></trkpt><trkpt lat="40.07595368108933" lon="8.568900818199593"><ele>401.0</ele><time>2026-05-02T10:14:18Z</time></trkpt><trkpt lat="40.075888590772855" lon="8.56872004030963"><ele>401.0</ele><time>2026-05-02T10:14:19Z</time></trkpt><trkpt lat="40.07583456357928" lon="8.568546250485323"><ele>401.0</ele><time>2026-05-02T10:14:20Z</time></trkpt><trkpt lat="40.07580779493161" lon="8.56837182787429"><ele>401.0</ele><time>2026-05-02T10:14:21Z</time></trkpt><trkpt lat="40.07579660564966" lon="8.568197502304837"><ele>402.0</ele><time>2026-05-02T10:14:22Z</time></trkpt><trkpt lat="40.07582813978744" lon="8.568033446248071"><ele>403.0</ele><time>2026-05-02T10:14:23Z</time></trkpt><trkpt lat="40.075885079623646" lon="8.567868772030742"><ele>404.0</ele><time>2026-05-02T10:14:24Z</time></trkpt><trkpt lat="40.075967333727405" lon="8.567714749848825"><ele>405.0</ele><time>2026-05-02T10:14:25Z</time></trkpt><trkpt lat="40.07604540279929" lon="8.567550813268156"><ele>405.0</ele><time>2026-05-02T10:14:26Z</time></trkpt><trkpt lat="40.07614115442051" lon="8.567404062947059"><ele>405.0</ele><time>2026-05-02T10:14:27Z</time></trkpt><trkpt lat="40.076195999098935" lon="8.567245803356496"><ele>405.0</ele><time>2026-05-02T10:14:28Z</time></trkpt><trkpt lat="40.07621938053549" lon="8.567075170225348"><ele>405.0</ele><time>2026-05-02T10:14:29Z</time></trkpt><trkpt lat="40.076213344523126" lon="8.56690331043869"><ele>405.25</ele><time>2026-05-02T10:14:30Z</time></trkpt><trkpt lat="40.07617365665059" lon="8.566740790162543"><ele>405.5</ele><time>2026-05-02T10:14:31Z</time></trkpt><trkpt lat="40.076106600485225" lon="8.566578999900958"><ele>405.75</ele><time>2026-05-02T10:14:32Z</time></trkpt><trkpt lat="40.07602014623545" lon="8.566415149314"><ele>406.0</ele><time>2026-05-02T10:14:33Z</time></trkpt><trkpt lat="40.07591876735513" lon="8.566256936685171"><ele>405.0</ele><time>2026-05-02T10:14:34Z</time></trkpt><trkpt lat="40.07582327007117" lon="8.566091035152114"><ele>404.0</ele><time>2026-05-02T10:14:35Z</time></trkpt><trkpt lat="40.075732160586135" lon="8.5659251107023"><ele>403.0</ele><time>2026-05-02T10:14:36Z</time></trkpt><trkpt lat="40.07564954224585" lon="8.56575076676899"><ele>403.0</ele><time>2026-05-02T10:14:37Z</time></trkpt><trkpt lat="40.07555919332201" lon="8.56558258330277"><ele>403.0</ele><time>2026-05-02T10:14:38Z</time></trkpt><trkpt lat="40.0754716640747" lon="8.56541190538808"><ele>403.0</ele><time>2026-05-02T10:14:39Z</time></trkpt><trkpt lat="40.07539111476007" lon="8.565235940801825"><ele>404.6666666666667</ele><time>2026-05-02T10:14:40Z</time></trkpt><trkpt lat="40.07532674602729" lon="8.565045092746534"><ele>406.33333333333337</ele><time>2026-05-02T10:14:41Z</time></trkpt><trkpt lat="40.075288110539454" lon="8.564842716245881"><ele>408.0</ele><time>2026-05-02T10:14:42Z</time></trkpt><trkpt lat="40.07527736941565" lon="8.564634689218686"><ele>410.0</ele><time>2026-05-02T10:14:43Z</time></trkpt><trkpt lat="40.075267661971175" lon="8.564420976033578"><ele>412.0</ele><time>2026-05-02T10:14:44Z</time></trkpt><trkpt lat="40.07524332708826" lon="8.564211479753714"><ele>414.0</ele><time>2026-05-02T10:14:45Z</time></trkpt><trkpt lat="40.07521751669085" lon="8.564003252692691"><ele>414.0</ele><time>2026-05-02T10:14:46Z</time></trkpt><trkpt lat="40.07517247328115" lon="8.563795711905266"><ele>414.0</ele><time>2026-05-02T10:14:47Z</time></trkpt><trkpt lat="40.075122716526344" lon="8.563592703015198"><ele>414.0</ele><time>2026-05-02T10:14:48Z</time></trkpt><trkpt lat="40.07507067512866" lon="8.563388242520327"><ele>414.66666666666663</ele><time>2026-05-02T10:14:49Z</time></trkpt><trkpt lat="40.07504236248265" lon="8.563183299587363"><ele>415.3333333333333</ele><time>2026-05-02T10:14:50Z</time></trkpt><trkpt lat="40.07502174624122" lon="8.562977080437612"><ele>416.0</ele><time>2026-05-02T10:14:50.999Z</time></trkpt><trkpt lat="40.0750075236325" lon="8.56277235087471"><ele>418.66666666666663</ele><time>2026-05-02T10:14:51.999Z</time></trkpt><trkpt lat="40.07498420812927" lon="8.5625662287306"><ele>421.33333333333337</ele><time>2026-05-02T10:14:52.999Z</time></trkpt><trkpt lat="40.074995427571764" lon="8.562358607372321"><ele>424.0</ele><time>2026-05-02T10:14:53.999Z</time></trkpt><trkpt lat="40.074976961957134" lon="8.562150614836646"><ele>426.0</ele><time>2026-05-02T10:14:54.999Z</time></trkpt><trkpt lat="40.07498493904885" lon="8.561942470907642"><ele>428.0</ele><time>2026-05-02T10:14:55.999Z</time></trkpt><trkpt lat="40.07502609606859" lon="8.561739077814465"><ele>430.0</ele><time>2026-05-02T10:14:56.999Z</time></trkpt><trkpt lat="40.07504225432589" lon="8.561524568740811"><ele>430.0</ele><time>2026-05-02T10:14:57.999Z</time></trkpt><trkpt lat="40.07506525822757" lon="8.561313121594923"><ele>430.0</ele><time>2026-05-02T10:14:58.999Z</time></trkpt><trkpt lat="40.075074736266146" lon="8.561100101133512"><ele>430.0</ele><time>2026-05-02T10:14:59.999Z</time></trkpt><trkpt lat="40.075081103540185" lon="8.560885121502972"><ele>430.0</ele><time>2026-05-02T10:15:00.999Z</time></trkpt><trkpt lat="40.07509275605769" lon="8.56067888436885"><ele>430.0</ele><time>2026-05-02T10:15:01.999Z</time></trkpt><trkpt lat="40.07510499899429" lon="8.560500773195354"><ele>430.0</ele><time>2026-05-02T10:15:02.999Z</time></trkpt><trkpt lat="40.07511078772321" lon="8.560352780958329"><ele>430.0</ele><time>2026-05-02T10:15:03.999Z</time></trkpt><trkpt lat="40.0751057277388" lon="8.560214933032858"><ele>430.0</ele><time>2026-05-02T10:15:04.999Z</time></trkpt><trkpt lat="40.07507245226594" lon="8.560058168605549"><ele>430.0</ele><time>2026-05-02T10:15:05.999Z</time></trkpt><trkpt lat="40.0750185857475" lon="8.559890977128681"><ele>430.0</ele><time>2026-05-02T10:15:06.999Z</time></trkpt><trkpt lat="40.074936127080214" lon="8.55972834698781"><ele>430.0</ele><time>2026-05-02T10:15:07.999Z</time></trkpt><trkpt lat="40.074851448100034" lon="8.559552514428336"><ele>430.0</ele><time>2026-05-02T10:15:08.999Z</time></trkpt><trkpt lat="40.074750737397984" lon="8.559381709608282"><ele>430.0</ele><time>2026-05-02T10:15:09.999Z</time></trkpt><trkpt lat="40.07464638268674" lon="8.559204724661598"><ele>430.0</ele><time>2026-05-02T10:15:10.999Z</time></trkpt><trkpt lat="40.07454208530787" lon="8.559020038682558"><ele>430.0</ele><time>2026-05-02T10:15:11.999Z</time></trkpt><trkpt lat="40.07444238511013" lon="8.558827316196249"><ele>430.0</ele><time>2026-05-02T10:15:12.999Z</time></trkpt><trkpt lat="40.07434788816233" lon="8.558630064512027"><ele>430.0</ele><time>2026-05-02T10:15:13.999Z</time></trkpt><trkpt lat="40.07425969937808" lon="8.55842639740842"><ele>428.33333333333337</ele><time>2026-05-02T10:15:14.999Z</time></trkpt><trkpt lat="40.074180227398145" lon="8.558216216942897"><ele>426.66666666666663</ele><time>2026-05-02T10:15:15.999Z</time></trkpt><trkpt lat="40.074103264624156" lon="8.557994109311082"><ele>425.0</ele><time>2026-05-02T10:15:16.999Z</time></trkpt><trkpt lat="40.07402808249104" lon="8.557780963297576"><ele>422.66666666666663</ele><time>2026-05-02T10:15:17.999Z</time></trkpt><trkpt lat="40.073954958163355" lon="8.55757430617143"><ele>420.33333333333337</ele><time>2026-05-02T10:15:18.999Z</time></trkpt><trkpt lat="40.07387933170598" lon="8.557360587059202"><ele>418.0</ele><time>2026-05-02T10:15:19.999Z</time></trkpt><trkpt lat="40.073801919977804" lon="8.557144309002954"><ele>416.0</ele><time>2026-05-02T10:15:20.999Z</time></trkpt><trkpt lat="40.073723759917364" lon="8.556925940291604"><ele>414.0</ele><time>2026-05-02T10:15:21.999Z</time></trkpt><trkpt lat="40.07364639221381" lon="8.556706761703165"><ele>412.0</ele><time>2026-05-02T10:15:22.999Z</time></trkpt><trkpt lat="40.0735696331275" lon="8.55648741464224"><ele>412.0</ele><time>2026-05-02T10:15:23.999Z</time></trkpt><trkpt lat="40.0734925539241" lon="8.556267153078037"><ele>412.0</ele><time>2026-05-02T10:15:24.999Z</time></trkpt><trkpt lat="40.07341606018587" lon="8.556048564126872"><ele>412.0</ele><time>2026-05-02T10:15:25.999Z</time></trkpt><trkpt lat="40.07333890310038" lon="8.555828079581946"><ele>411.33333333333337</ele><time>2026-05-02T10:15:26.999Z</time></trkpt><trkpt lat="40.073262556747785" lon="8.555609911815894"><ele>410.66666666666663</ele><time>2026-05-02T10:15:27.999Z</time></trkpt><trkpt lat="40.073186527847454" lon="8.555396396876304"><ele>410.0</ele><time>2026-05-02T10:15:28.999Z</time></trkpt><trkpt lat="40.07310985536613" lon="8.555183751790654"><ele>410.0</ele><time>2026-05-02T10:15:29.999Z</time></trkpt><trkpt lat="40.07303569663161" lon="8.554978078361055"><ele>410.0</ele><time>2026-05-02T10:15:30.999Z</time></trkpt><trkpt lat="40.072970017219944" lon="8.554794027361742"><ele>410.0</ele><time>2026-05-02T10:15:31.999Z</time></trkpt><trkpt lat="40.072916500553845" lon="8.554625870630272"><ele>408.0</ele><time>2026-05-02T10:15:32.999Z</time></trkpt><trkpt lat="40.072863795260844" lon="8.55446840881842"><ele>406.0</ele><time>2026-05-02T10:15:33.999Z</time></trkpt><trkpt lat="40.07285416327472" lon="8.554288761138269"><ele>404.0</ele><time>2026-05-02T10:15:34.999Z</time></trkpt><trkpt lat="40.07288636065244" lon="8.554097657977819"><ele>402.0</ele><time>2026-05-02T10:15:35.999Z</time></trkpt><trkpt lat="40.07290234597816" lon="8.553898791288288"><ele>399.33333333333337</ele><time>2026-05-02T10:15:36.999Z</time></trkpt><trkpt lat="40.07294792941158" lon="8.553697922676966"><ele>396.6666666666667</ele><time>2026-05-02T10:15:37.999Z</time></trkpt><trkpt lat="40.072988769996634" lon="8.553502863499459"><ele>394.0</ele><time>2026-05-02T10:15:38.999Z</time></trkpt><trkpt lat="40.07301163008606" lon="8.55331712799625"><ele>394.0</ele><time>2026-05-02T10:15:39.999Z</time></trkpt><trkpt lat="40.073015698057844" lon="8.553136096379951"><ele>394.0</ele><time>2026-05-02T10:15:40.999Z</time></trkpt><trkpt lat="40.072992482211475" lon="8.55296048115642"><ele>394.0</ele><time>2026-05-02T10:15:41.999Z</time></trkpt><trkpt lat="40.072952967818864" lon="8.55278368290254"><ele>394.0</ele><time>2026-05-02T10:15:42.999Z</time></trkpt><trkpt lat="40.07289567524287" lon="8.552601676871264"><ele>391.33333333333337</ele><time>2026-05-02T10:15:43.999Z</time></trkpt><trkpt lat="40.07283192952685" lon="8.552410651365252"><ele>388.66666666666663</ele><time>2026-05-02T10:15:45Z</time></trkpt><trkpt lat="40.07276899579262" lon="8.552212282344996"><ele>386.0</ele><time>2026-05-02T10:15:46Z</time></trkpt><trkpt lat="40.07270286026886" lon="8.552010591096579"><ele>383.66666666666663</ele><time>2026-05-02T10:15:47Z</time></trkpt><trkpt lat="40.07263658137309" lon="8.551803639008504"><ele>381.3333333333333</ele><time>2026-05-02T10:15:48Z</time></trkpt><trkpt lat="40.07258134459665" lon="8.551588656932173"><ele>379.0</ele><time>2026-05-02T10:15:49Z</time></trkpt><trkpt lat="40.072499660777375" lon="8.55138089405789"><ele>377.3333333333333</ele><time>2026-05-02T10:15:50Z</time></trkpt><trkpt lat="40.0724054123353" lon="8.551175060914764"><ele>375.6666666666667</ele><time>2026-05-02T10:15:51Z</time></trkpt><trkpt lat="40.07230389651284" lon="8.550973497453645"><ele>374.0</ele><time>2026-05-02T10:15:52Z</time></trkpt><trkpt lat="40.0722051242785" lon="8.550770634251204"><ele>374.0</ele><time>2026-05-02T10:15:53Z</time></trkpt><trkpt lat="40.07211143918952" lon="8.550563715967595"><ele>374.0</ele><time>2026-05-02T10:15:54Z</time></trkpt><trkpt lat="40.07201535966656" lon="8.550357667581288"><ele>374.0</ele><time>2026-05-02T10:15:55Z</time></trkpt><trkpt lat="40.07191849665966" lon="8.550149664836889"><ele>371.33333333333337</ele><time>2026-05-02T10:15:56Z</time></trkpt><trkpt lat="40.07183621513391" lon="8.549949815224618"><ele>368.6666666666667</ele><time>2026-05-02T10:15:57Z</time></trkpt><trkpt lat="40.07177597883256" lon="8.549755782049115"><ele>366.0</ele><time>2026-05-02T10:15:58Z</time></trkpt><trkpt lat="40.07175714232844" lon="8.549563271443622"><ele>363.6666666666667</ele><time>2026-05-02T10:15:59Z</time></trkpt><trkpt lat="40.07174390477838" lon="8.549364159890642"><ele>361.33333333333337</ele><time>2026-05-02T10:16:00Z</time></trkpt><trkpt lat="40.07179115385565" lon="8.549176050535293"><ele>359.0</ele><time>2026-05-02T10:16:01Z</time></trkpt><trkpt lat="40.07185273328446" lon="8.54900090606357"><ele>359.0</ele><time>2026-05-02T10:16:02Z</time></trkpt><trkpt lat="40.07191906197399" lon="8.548815959257862"><ele>359.0</ele><time>2026-05-02T10:16:03Z</time></trkpt><trkpt lat="40.071960678170335" lon="8.548645333784716"><ele>359.0</ele><time>2026-05-02T10:16:04Z</time></trkpt><trkpt lat="40.07198171787858" lon="8.548485931730948"><ele>359.0</ele><time>2026-05-02T10:16:05Z</time></trkpt><trkpt lat="40.07195438202586" lon="8.548323800308411"><ele>358.25</ele><time>2026-05-02T10:16:06Z</time></trkpt><trkpt lat="40.071898028310656" lon="8.548168445235733"><ele>357.5</ele><time>2026-05-02T10:16:07Z</time></trkpt><trkpt lat="40.071823944169104" lon="8.548022128006568"><ele>356.75</ele><time>2026-05-02T10:16:08Z</time></trkpt><trkpt lat="40.071721378973116" lon="8.547889352960468"><ele>356.0</ele><time>2026-05-02T10:16:09Z</time></trkpt><trkpt lat="40.071616244385524" lon="8.54773265155464"><ele>356.0</ele><time>2026-05-02T10:16:10Z</time></trkpt><trkpt lat="40.071499315255885" lon="8.547592668054653"><ele>356.0</ele><time>2026-05-02T10:16:11Z</time></trkpt><trkpt lat="40.07138784333207" lon="8.547446204932848"><ele>356.0</ele><time>2026-05-02T10:16:12Z</time></trkpt><trkpt lat="40.071303346539516" lon="8.5472787480694"><ele>356.0</ele><time>2026-05-02T10:16:13Z</time></trkpt><trkpt lat="40.0712313471447" lon="8.547080465714403"><ele>356.0</ele><time>2026-05-02T10:16:14Z</time></trkpt><trkpt lat="40.07116584505082" lon="8.546890366950858"><ele>356.0</ele><time>2026-05-02T10:16:15Z</time></trkpt><trkpt lat="40.07111531444383" lon="8.546723493114841"><ele>354.5</ele><time>2026-05-02T10:16:16Z</time></trkpt><trkpt lat="40.07108756871525" lon="8.54658226427175"><ele>353.0</ele><time>2026-05-02T10:16:17Z</time></trkpt><trkpt lat="40.07113301107517" lon="8.546457106828935"><ele>351.5</ele><time>2026-05-02T10:16:18Z</time></trkpt><trkpt lat="40.07117949621804" lon="8.546270477437174"><ele>350.0</ele><time>2026-05-02T10:16:19Z</time></trkpt><trkpt lat="40.07121622500893" lon="8.546066178966498"><ele>347.33333333333337</ele><time>2026-05-02T10:16:20Z</time></trkpt><trkpt lat="40.071264714980664" lon="8.545860598490611"><ele>344.6666666666667</ele><time>2026-05-02T10:16:21Z</time></trkpt><trkpt lat="40.07133011504615" lon="8.545657953299035"><ele>342.0</ele><time>2026-05-02T10:16:22Z</time></trkpt><trkpt lat="40.07136871012316" lon="8.545445977959947"><ele>339.0</ele><time>2026-05-02T10:16:23Z</time></trkpt><trkpt lat="40.07141437065322" lon="8.54522888746956"><ele>336.0</ele><time>2026-05-02T10:16:24Z</time></trkpt><trkpt lat="40.07142941061451" lon="8.544996459243096"><ele>333.0</ele><time>2026-05-02T10:16:25Z</time></trkpt><trkpt lat="40.07142385777352" lon="8.54477383434286"><ele>333.0</ele><time>2026-05-02T10:16:26Z</time></trkpt><trkpt lat="40.07144357748052" lon="8.544588076587328"><ele>333.0</ele><time>2026-05-02T10:16:27Z</time></trkpt><trkpt lat="40.07146024827008" lon="8.544440133545073"><ele>333.0</ele><time>2026-05-02T10:16:28Z</time></trkpt><trkpt lat="40.07148027347772" lon="8.544299627266295"><ele>333.0</ele><time>2026-05-02T10:16:29Z</time></trkpt><trkpt lat="40.071544652785654" lon="8.544158432079966"><ele>330.0</ele><time>2026-05-02T10:16:30Z</time></trkpt><trkpt lat="40.071646758325876" lon="8.544028657809115"><ele>327.0</ele><time>2026-05-02T10:16:31Z</time></trkpt><trkpt lat="40.0717605864532" lon="8.543895622424804"><ele>324.0</ele><time>2026-05-02T10:16:32Z</time></trkpt><trkpt lat="40.07187531456935" lon="8.543744555520455"><ele>320.0</ele><time>2026-05-02T10:16:33Z</time></trkpt><trkpt lat="40.07201982412141" lon="8.543626649845567"><ele>316.0</ele><time>2026-05-02T10:16:34Z</time></trkpt><trkpt lat="40.072159904735486" lon="8.543488427370095"><ele>312.0</ele><time>2026-05-02T10:16:35Z</time></trkpt><trkpt lat="40.07230145488685" lon="8.543344464640091"><ele>311.3333333333333</ele><time>2026-05-02T10:16:36Z</time></trkpt><trkpt lat="40.072441358294206" lon="8.543184922419266"><ele>310.66666666666663</ele><time>2026-05-02T10:16:37Z</time></trkpt><trkpt lat="40.07259116838367" lon="8.543039561188651"><ele>310.0</ele><time>2026-05-02T10:16:38Z</time></trkpt><trkpt lat="40.07273278196015" lon="8.542893592562772"><ele>307.0</ele><time>2026-05-02T10:16:39Z</time></trkpt><trkpt lat="40.072867742029906" lon="8.54275395351819"><ele>304.0</ele><time>2026-05-02T10:16:40Z</time></trkpt><trkpt lat="40.073005398921424" lon="8.542623143572403"><ele>301.0</ele><time>2026-05-02T10:16:41Z</time></trkpt><trkpt lat="40.07314860980343" lon="8.542512249557122"><ele>299.66666666666663</ele><time>2026-05-02T10:16:42Z</time></trkpt><trkpt lat="40.07329823753243" lon="8.5424309867312"><ele>298.3333333333333</ele><time>2026-05-02T10:16:43Z</time></trkpt><trkpt lat="40.07346660759651" lon="8.5424311095778"><ele>297.0</ele><time>2026-05-02T10:16:44Z</time></trkpt><trkpt lat="40.073642607515794" lon="8.542424606187726"><ele>297.0</ele><time>2026-05-02T10:16:45Z</time></trkpt><trkpt lat="40.07381153988011" lon="8.542408495836261"><ele>297.0</ele><time>2026-05-02T10:16:46Z</time></trkpt><trkpt lat="40.073960527878555" lon="8.54242153056549"><ele>297.0</ele><time>2026-05-02T10:16:47Z</time></trkpt><trkpt lat="40.07409872835001" lon="8.5423750096663"><ele>296.0</ele><time>2026-05-02T10:16:48Z</time></trkpt><trkpt lat="40.074223811294054" lon="8.542312111227087"><ele>295.0</ele><time>2026-05-02T10:16:49Z</time></trkpt><trkpt lat="40.07430304767933" lon="8.54222586864705"><ele>294.0</ele><time>2026-05-02T10:16:50Z</time></trkpt><trkpt lat="40.07436727221356" lon="8.542114949944546"><ele>293.0</ele><time>2026-05-02T10:16:51Z</time></trkpt><trkpt lat="40.074436424710875" lon="8.541976840738721"><ele>290.25</ele><time>2026-05-02T10:16:52Z</time></trkpt><trkpt lat="40.074498078858255" lon="8.54182814881885"><ele>287.5</ele><time>2026-05-02T10:16:53Z</time></trkpt><trkpt lat="40.07452939491871" lon="8.541655650669945"><ele>284.75</ele><time>2026-05-02T10:16:54Z</time></trkpt><trkpt lat="40.074523736035836" lon="8.541453116569752"><ele>282.0</ele><time>2026-05-02T10:16:54.999Z</time></trkpt><trkpt lat="40.07450440270308" lon="8.541229901485522"><ele>279.3333333333333</ele><time>2026-05-02T10:16:55.999Z</time></trkpt><trkpt lat="40.074496903354685" lon="8.540994196451926"><ele>276.66666666666663</ele><time>2026-05-02T10:16:56.999Z</time></trkpt><trkpt lat="40.07449162753205" lon="8.540753836004077"><ele>274.0</ele><time>2026-05-02T10:16:57.999Z</time></trkpt><trkpt lat="40.07448370298556" lon="8.540510966603048"><ele>271.25</ele><time>2026-05-02T10:16:58.999Z</time></trkpt><trkpt lat="40.07449190652695" lon="8.540285826355312"><ele>268.5</ele><time>2026-05-02T10:16:59.999Z</time></trkpt><trkpt lat="40.0744621529645" lon="8.540091940525734"><ele>265.75</ele><time>2026-05-02T10:17:00.999Z</time></trkpt><trkpt lat="40.074426192720246" lon="8.53994413262873"><ele>263.0</ele><time>2026-05-02T10:17:01.999Z</time></trkpt><trkpt lat="40.07436296040757" lon="8.539798489905802"><ele>263.0</ele><time>2026-05-02T10:17:02.999Z</time></trkpt><trkpt lat="40.074268169603826" lon="8.539661637651818"><ele>263.0</ele><time>2026-05-02T10:17:03.999Z</time></trkpt><trkpt lat="40.074159496827626" lon="8.539546485041532"><ele>263.0</ele><time>2026-05-02T10:17:04.999Z</time></trkpt><trkpt lat="40.07401511256267" lon="8.539518324010073"><ele>263.0</ele><time>2026-05-02T10:17:05.999Z</time></trkpt><trkpt lat="40.07386047718668" lon="8.539509313120755"><ele>262.6666666666667</ele><time>2026-05-02T10:17:06.999Z</time></trkpt><trkpt lat="40.07369635224902" lon="8.539532492389165"><ele>262.3333333333333</ele><time>2026-05-02T10:17:07.999Z</time></trkpt><trkpt lat="40.07352627222559" lon="8.539536103704167"><ele>262.0</ele><time>2026-05-02T10:17:08.999Z</time></trkpt><trkpt lat="40.07335204629848" lon="8.539555584293586"><ele>262.0</ele><time>2026-05-02T10:17:09.999Z</time></trkpt><trkpt lat="40.073181030480974" lon="8.539578494035196"><ele>262.0</ele><time>2026-05-02T10:17:10.999Z</time></trkpt><trkpt lat="40.07301312024387" lon="8.539607473925113"><ele>262.0</ele><time>2026-05-02T10:17:11.999Z</time></trkpt><trkpt lat="40.07284474317119" lon="8.539641648501874"><ele>262.0</ele><time>2026-05-02T10:17:12.999Z</time></trkpt><trkpt lat="40.07267891670245" lon="8.539677344891262"><ele>262.0</ele><time>2026-05-02T10:17:13.999Z</time></trkpt><trkpt lat="40.07250742499086" lon="8.539704169089152"><ele>262.0</ele><time>2026-05-02T10:17:14.999Z</time></trkpt><trkpt lat="40.072335009656385" lon="8.539717168262387"><ele>260.66666666666663</ele><time>2026-05-02T10:17:15.999Z</time></trkpt><trkpt lat="40.07217634477014" lon="8.539708162591962"><ele>259.3333333333333</ele><time>2026-05-02T10:17:16.999Z</time></trkpt><trkpt lat="40.07202587332225" lon="8.539679353616549"><ele>258.0</ele><time>2026-05-02T10:17:17.999Z</time></trkpt><trkpt lat="40.0718734494052" lon="8.53963730687727"><ele>258.0</ele><time>2026-05-02T10:17:18.999Z</time></trkpt><trkpt lat="40.071715144904445" lon="8.539565146740234"><ele>258.0</ele><time>2026-05-02T10:17:19.999Z</time></trkpt><trkpt lat="40.0715446305218" lon="8.539489300223037"><ele>258.0</ele><time>2026-05-02T10:17:20.999Z</time></trkpt><trkpt lat="40.0713742282725" lon="8.5393855739632"><ele>252.33333333333331</ele><time>2026-05-02T10:17:21.999Z</time></trkpt><trkpt lat="40.07121041292489" lon="8.539283998906063"><ele>246.66666666666666</ele><time>2026-05-02T10:17:22.999Z</time></trkpt><trkpt lat="40.07106029746556" lon="8.539158546689356"><ele>241.0</ele><time>2026-05-02T10:17:23.999Z</time></trkpt><trkpt lat="40.07092002471379" lon="8.539041057728245"><ele>241.0</ele><time>2026-05-02T10:17:24.999Z</time></trkpt><trkpt lat="40.07078334158289" lon="8.538912505396267"><ele>241.0</ele><time>2026-05-02T10:17:25.999Z</time></trkpt><trkpt lat="40.07066042396807" lon="8.538777835951404"><ele>241.0</ele><time>2026-05-02T10:17:26.999Z</time></trkpt><trkpt lat="40.07056349994143" lon="8.53863386472477"><ele>235.33333333333331</ele><time>2026-05-02T10:17:27.999Z</time></trkpt><trkpt lat="40.07047486322316" lon="8.538483438042089"><ele>229.66666666666669</ele><time>2026-05-02T10:17:28.999Z</time></trkpt><trkpt lat="40.07039236652182" lon="8.53832233935173"><ele>224.0</ele><time>2026-05-02T10:17:29.999Z</time></trkpt><trkpt lat="40.070309840131394" lon="8.538141070704736"><ele>224.0</ele><time>2026-05-02T10:17:30.999Z</time></trkpt><trkpt lat="40.070233296127455" lon="8.537956000037855"><ele>224.0</ele><time>2026-05-02T10:17:31.999Z</time></trkpt><trkpt lat="40.070161846931015" lon="8.537775012918084"><ele>224.0</ele><time>2026-05-02T10:17:32.999Z</time></trkpt><trkpt lat="40.070092718856515" lon="8.537599905381802"><ele>223.0</ele><time>2026-05-02T10:17:33.999Z</time></trkpt><trkpt lat="40.07001294932916" lon="8.537438563303647"><ele>222.0</ele><time>2026-05-02T10:17:34.999Z</time></trkpt><trkpt lat="40.06995494596652" lon="8.537297448505278"><ele>221.0</ele><time>2026-05-02T10:17:35.999Z</time></trkpt><trkpt lat="40.06991711711282" lon="8.537176928810704"><ele>220.0</ele><time>2026-05-02T10:17:36.999Z</time></trkpt><trkpt lat="40.06983319142341" lon="8.537118544592484"><ele>217.4</ele><time>2026-05-02T10:17:37.999Z</time></trkpt><trkpt lat="40.06973537796802" lon="8.537094485919075"><ele>214.8</ele><time>2026-05-02T10:17:38.999Z</time></trkpt><trkpt lat="40.06963462078718" lon="8.537143275749143"><ele>212.2</ele><time>2026-05-02T10:17:39.999Z</time></trkpt><trkpt lat="40.06956306252333" lon="8.537248919808496"><ele>209.6</ele><time>2026-05-02T10:17:40.999Z</time></trkpt><trkpt lat="40.069521715498986" lon="8.537342181324409"><ele>207.0</ele><time>2026-05-02T10:17:41.999Z</time></trkpt><trkpt lat="40.06950555582433" lon="8.537457742791487"><ele>207.0</ele><time>2026-05-02T10:17:42.999Z</time></trkpt><trkpt lat="40.06950991355847" lon="8.53759997645835"><ele>207.0</ele><time>2026-05-02T10:17:43.999Z</time></trkpt><trkpt lat="40.06953411565972" lon="8.53775714226519"><ele>207.0</ele><time>2026-05-02T10:17:44.999Z</time></trkpt><trkpt lat="40.06957467936788" lon="8.537931604085507"><ele>207.0</ele><time>2026-05-02T10:17:45.999Z</time></trkpt><trkpt lat="40.0695886565163" lon="8.538121426833458"><ele>208.0</ele><time>2026-05-02T10:17:46.999Z</time></trkpt><trkpt lat="40.06961887179685" lon="8.538326858765124"><ele>209.0</ele><time>2026-05-02T10:17:47.999Z</time></trkpt><trkpt lat="40.06964980598299" lon="8.538529078290523"><ele>210.0</ele><time>2026-05-02T10:17:48.999Z</time></trkpt><trkpt lat="40.069673762865165" lon="8.538711135422657"><ele>211.33333333333334</ele><time>2026-05-02T10:17:50Z</time></trkpt><trkpt lat="40.069681821994045" lon="8.538850895448364"><ele>212.66666666666669</ele><time>2026-05-02T10:17:51Z</time></trkpt><trkpt lat="40.069665954723725" lon="8.538966659311818"><ele>214.0</ele><time>2026-05-02T10:17:52Z</time></trkpt><trkpt lat="40.06962349985194" lon="8.539047875238925"><ele>215.33333333333334</ele><time>2026-05-02T10:17:53Z</time></trkpt><trkpt lat="40.069559034923024" lon="8.53909461968946"><ele>216.66666666666669</ele><time>2026-05-02T10:17:54Z</time></trkpt><trkpt lat="40.06948741226443" lon="8.539098860669561"><ele>218.0</ele><time>2026-05-02T10:17:55Z</time></trkpt><trkpt lat="40.06940828987158" lon="8.53906938444069"><ele>218.0</ele><time>2026-05-02T10:17:56Z</time></trkpt><trkpt lat="40.06930356143608" lon="8.539023432552932"><ele>218.0</ele><time>2026-05-02T10:17:57Z</time></trkpt><trkpt lat="40.06923852750907" lon="8.538914046562844"><ele>218.0</ele><time>2026-05-02T10:17:58Z</time></trkpt><trkpt lat="40.06917677669044" lon="8.538779634637125"><ele>218.0</ele><time>2026-05-02T10:17:59Z</time></trkpt><trkpt lat="40.06910215660259" lon="8.538631307273212"><ele>217.66666666666669</ele><time>2026-05-02T10:18:00Z</time></trkpt><trkpt lat="40.06901586395544" lon="8.53846187004466"><ele>217.33333333333331</ele><time>2026-05-02T10:18:01Z</time></trkpt><trkpt lat="40.06892162532649" lon="8.538277512827994"><ele>217.0</ele><time>2026-05-02T10:18:02Z</time></trkpt><trkpt lat="40.0688216077639" lon="8.538082859907965"><ele>213.33333333333331</ele><time>2026-05-02T10:18:03Z</time></trkpt><trkpt lat="40.068714686465874" lon="8.537878362330307"><ele>209.66666666666669</ele><time>2026-05-02T10:18:04Z</time></trkpt><trkpt lat="40.06860991528893" lon="8.537663787703156"><ele>206.0</ele><time>2026-05-02T10:18:05Z</time></trkpt><trkpt lat="40.06851330569917" lon="8.537448396441954"><ele>206.0</ele><time>2026-05-02T10:18:06Z</time></trkpt><trkpt lat="40.06840872184129" lon="8.53724895831229"><ele>206.0</ele><time>2026-05-02T10:18:07Z</time></trkpt><trkpt lat="40.06833787576128" lon="8.537055420447777"><ele>206.0</ele><time>2026-05-02T10:18:08Z</time></trkpt><trkpt lat="40.06825565860075" lon="8.536858700763355"><ele>206.33333333333334</ele><time>2026-05-02T10:18:09Z</time></trkpt><trkpt lat="40.06819781957404" lon="8.536631580529386"><ele>206.66666666666669</ele><time>2026-05-02T10:18:10Z</time></trkpt><trkpt lat="40.06811878793477" lon="8.53641070708047"><ele>207.0</ele><time>2026-05-02T10:18:11Z</time></trkpt><trkpt lat="40.06803634515038" lon="8.536190215954692"><ele>206.33333333333331</ele><time>2026-05-02T10:18:12Z</time></trkpt><trkpt lat="40.06795602473285" lon="8.535974692368688"><ele>205.66666666666666</ele><time>2026-05-02T10:18:13Z</time></trkpt><trkpt lat="40.067879277291325" lon="8.535762260350124"><ele>205.0</ele><time>2026-05-02T10:18:14Z</time></trkpt><trkpt lat="40.067788807971276" lon="8.53557605442961"><ele>205.0</ele><time>2026-05-02T10:18:15Z</time></trkpt><trkpt lat="40.06770747270928" lon="8.535390406760001"><ele>205.0</ele><time>2026-05-02T10:18:16Z</time></trkpt><trkpt lat="40.067607247550164" lon="8.535223421254361"><ele>205.0</ele><time>2026-05-02T10:18:17Z</time></trkpt><trkpt lat="40.067485943155404" lon="8.535089725202681"><ele>204.33333333333331</ele><time>2026-05-02T10:18:18Z</time></trkpt><trkpt lat="40.06734729378307" lon="8.535004276299993"><ele>203.66666666666669</ele><time>2026-05-02T10:18:19Z</time></trkpt><trkpt lat="40.067190690138474" lon="8.534947080753467"><ele>203.0</ele><time>2026-05-02T10:18:20Z</time></trkpt><trkpt lat="40.06703557282527" lon="8.534907469920068"><ele>203.0</ele><time>2026-05-02T10:18:21Z</time></trkpt><trkpt lat="40.06687424144183" lon="8.534889160789549"><ele>203.0</ele><time>2026-05-02T10:18:22Z</time></trkpt><trkpt lat="40.066703861847806" lon="8.53486700832176"><ele>203.0</ele><time>2026-05-02T10:18:23Z</time></trkpt><trkpt lat="40.06653860679861" lon="8.534858375320681"><ele>199.0</ele><time>2026-05-02T10:18:24Z</time></trkpt><trkpt lat="40.06638372084376" lon="8.53484564600016"><ele>195.0</ele><time>2026-05-02T10:18:25Z</time></trkpt><trkpt lat="40.06623414377342" lon="8.534823286093973"><ele>191.0</ele><time>2026-05-02T10:18:26Z</time></trkpt><trkpt lat="40.0660892101668" lon="8.534783195910332"><ele>191.0</ele><time>2026-05-02T10:18:27Z</time></trkpt><trkpt lat="40.065969981160606" lon="8.534714454871873"><ele>191.0</ele><time>2026-05-02T10:18:28Z</time></trkpt><trkpt lat="40.06585398425183" lon="8.534620778840509"><ele>191.0</ele><time>2026-05-02T10:18:29Z</time></trkpt><trkpt lat="40.065734636253154" lon="8.534490939240682"><ele>191.0</ele><time>2026-05-02T10:18:30Z</time></trkpt><trkpt lat="40.065613739653024" lon="8.534336485076155"><ele>186.66666666666666</ele><time>2026-05-02T10:18:31Z</time></trkpt><trkpt lat="40.065487540140985" lon="8.534169885029858"><ele>182.33333333333334</ele><time>2026-05-02T10:18:32Z</time></trkpt><trkpt lat="40.06535684103341" lon="8.533998171407207"><ele>178.0</ele><time>2026-05-02T10:18:33Z</time></trkpt><trkpt lat="40.06522366499951" lon="8.533827856848012"><ele>179.33333333333334</ele><time>2026-05-02T10:18:34Z</time></trkpt><trkpt lat="40.06508972913026" lon="8.533655950026995"><ele>180.66666666666666</ele><time>2026-05-02T10:18:35Z</time></trkpt><trkpt lat="40.06495384601469" lon="8.53347905296769"><ele>182.0</ele><time>2026-05-02T10:18:36Z</time></trkpt><trkpt lat="40.06481884629043" lon="8.533302501177452"><ele>177.33333333333331</ele><time>2026-05-02T10:18:37Z</time></trkpt><trkpt lat="40.06468678998387" lon="8.533120802912737"><ele>172.66666666666666</ele><time>2026-05-02T10:18:38Z</time></trkpt><trkpt lat="40.06456058865339" lon="8.53291994231378"><ele>168.0</ele><time>2026-05-02T10:18:39Z</time></trkpt><trkpt lat="40.06443975263743" lon="8.532701985977562"><ele>168.0</ele><time>2026-05-02T10:18:40Z</time></trkpt><trkpt lat="40.0643181143066" lon="8.532480720066745"><ele>168.0</ele><time>2026-05-02T10:18:41Z</time></trkpt><trkpt lat="40.06419790476502" lon="8.532259530654184"><ele>168.0</ele><time>2026-05-02T10:18:42Z</time></trkpt><trkpt lat="40.064084152336704" lon="8.532051247654113"><ele>163.33333333333334</ele><time>2026-05-02T10:18:43Z</time></trkpt><trkpt lat="40.06397504561517" lon="8.53185704247633"><ele>158.66666666666669</ele><time>2026-05-02T10:18:44Z</time></trkpt><trkpt lat="40.06386565346235" lon="8.531658059455596"><ele>154.0</ele><time>2026-05-02T10:18:45Z</time></trkpt><trkpt lat="40.063760580633996" lon="8.531453620251822"><ele>154.0</ele><time>2026-05-02T10:18:46Z</time></trkpt><trkpt lat="40.063660286918605" lon="8.53124020142952"><ele>154.0</ele><time>2026-05-02T10:18:47Z</time></trkpt><trkpt lat="40.063560789935316" lon="8.531021631135722"><ele>154.0</ele><time>2026-05-02T10:18:48Z</time></trkpt><trkpt lat="40.06346136359674" lon="8.530800386636088"><ele>153.66666666666669</ele><time>2026-05-02T10:18:49Z</time></trkpt><trkpt lat="40.06336112973844" lon="8.530584029100881"><ele>153.33333333333334</ele><time>2026-05-02T10:18:50Z</time></trkpt><trkpt lat="40.063259380817016" lon="8.53036440129164"><ele>153.0</ele><time>2026-05-02T10:18:51Z</time></trkpt><trkpt lat="40.06315685686434" lon="8.530143100570882"><ele>149.0</ele><time>2026-05-02T10:18:52Z</time></trkpt><trkpt lat="40.06305431855567" lon="8.529919329516323"><ele>145.0</ele><time>2026-05-02T10:18:53Z</time></trkpt><trkpt lat="40.06295351934596" lon="8.529694863465286"><ele>141.0</ele><time>2026-05-02T10:18:54Z</time></trkpt><trkpt lat="40.06285278239975" lon="8.52946672703488"><ele>141.0</ele><time>2026-05-02T10:18:55Z</time></trkpt><trkpt lat="40.062754100253684" lon="8.52923631756469"><ele>141.0</ele><time>2026-05-02T10:18:55.999Z</time></trkpt><trkpt lat="40.06265453146795" lon="8.529003837918271"><ele>141.0</ele><time>2026-05-02T10:18:56.999Z</time></trkpt><trkpt lat="40.06255381574434" lon="8.52877412648375"><ele>140.66666666666666</ele><time>2026-05-02T10:18:57.999Z</time></trkpt><trkpt lat="40.062448669605786" lon="8.528542621420558"><ele>140.33333333333331</ele><time>2026-05-02T10:18:58.999Z</time></trkpt><trkpt lat="40.062339534677896" lon="8.528317062824112"><ele>140.0</ele><time>2026-05-02T10:18:59.999Z</time></trkpt><trkpt lat="40.062220483339345" lon="8.528102431756645"><ele>137.33333333333331</ele><time>2026-05-02T10:19:00.999Z</time></trkpt><trkpt lat="40.062137373110815" lon="8.527863741797354"><ele>134.66666666666666</ele><time>2026-05-02T10:19:01.999Z</time></trkpt><trkpt lat="40.062031796266915" lon="8.527635704559032"><ele>132.0</ele><time>2026-05-02T10:19:02.999Z</time></trkpt><trkpt lat="40.06190253935628" lon="8.527432034344056"><ele>132.0</ele><time>2026-05-02T10:19:03.999Z</time></trkpt><trkpt lat="40.06177440824536" lon="8.527226787084903"><ele>132.0</ele><time>2026-05-02T10:19:04.999Z</time></trkpt><trkpt lat="40.06165651745944" lon="8.527006651997585"><ele>132.0</ele><time>2026-05-02T10:19:05.999Z</time></trkpt><trkpt lat="40.06152602761961" lon="8.526803198595692"><ele>130.0</ele><time>2026-05-02T10:19:06.999Z</time></trkpt><trkpt lat="40.06139859529642" lon="8.526592195957017"><ele>128.0</ele><time>2026-05-02T10:19:07.999Z</time></trkpt><trkpt lat="40.06127006490592" lon="8.526367562174775"><ele>126.0</ele><time>2026-05-02T10:19:08.999Z</time></trkpt><trkpt lat="40.06113145366043" lon="8.526163704006649"><ele>126.0</ele><time>2026-05-02T10:19:09.999Z</time></trkpt><trkpt lat="40.06100752987029" lon="8.525955056153325"><ele>126.0</ele><time>2026-05-02T10:19:10.999Z</time></trkpt><trkpt lat="40.060905930417974" lon="8.525738060193012"><ele>126.0</ele><time>2026-05-02T10:19:11.999Z</time></trkpt><trkpt lat="40.06079723882223" lon="8.525503915214147"><ele>124.33333333333334</ele><time>2026-05-02T10:19:12.999Z</time></trkpt><trkpt lat="40.060692069075536" lon="8.525274141220148"><ele>122.66666666666667</ele><time>2026-05-02T10:19:13.999Z</time></trkpt><trkpt lat="40.06059622453731" lon="8.525029073300873"><ele>121.0</ele><time>2026-05-02T10:19:14.999Z</time></trkpt><trkpt lat="40.06049268098112" lon="8.524784092518093"><ele>120.66666666666667</ele><time>2026-05-02T10:19:15.999Z</time></trkpt><trkpt lat="40.06038593933697" lon="8.524549649309444"><ele>120.33333333333334</ele><time>2026-05-02T10:19:16.999Z</time></trkpt><trkpt lat="40.0602762418005" lon="8.5243157181118"><ele>120.0</ele><time>2026-05-02T10:19:17.999Z</time></trkpt><trkpt lat="40.06016240963661" lon="8.524090125887916"><ele>120.0</ele><time>2026-05-02T10:19:18.999Z</time></trkpt><trkpt lat="40.0600426405097" lon="8.52386637224477"><ele>120.0</ele><time>2026-05-02T10:19:19.999Z</time></trkpt><trkpt lat="40.05992436588377" lon="8.523637348513486"><ele>120.0</ele><time>2026-05-02T10:19:20.999Z</time></trkpt><trkpt lat="40.0598102250498" lon="8.523398308264806"><ele>118.66666666666666</ele><time>2026-05-02T10:19:21.999Z</time></trkpt><trkpt lat="40.059695855291736" lon="8.523162396494264"><ele>117.33333333333333</ele><time>2026-05-02T10:19:22.999Z</time></trkpt><trkpt lat="40.05957726681224" lon="8.522945614188618"><ele>116.0</ele><time>2026-05-02T10:19:23.999Z</time></trkpt><trkpt lat="40.05945631961959" lon="8.522737020291025"><ele>116.0</ele><time>2026-05-02T10:19:24.999Z</time></trkpt><trkpt lat="40.05933308998164" lon="8.52253081922478"><ele>116.0</ele><time>2026-05-02T10:19:25.999Z</time></trkpt><trkpt lat="40.05920865569834" lon="8.52233243074152"><ele>116.0</ele><time>2026-05-02T10:19:26.999Z</time></trkpt><trkpt lat="40.05908600300629" lon="8.52213217894578"><ele>114.0</ele><time>2026-05-02T10:19:27.999Z</time></trkpt><trkpt lat="40.05896654657709" lon="8.521932484230298"><ele>112.0</ele><time>2026-05-02T10:19:28.999Z</time></trkpt><trkpt lat="40.058852817128255" lon="8.521732491961851"><ele>110.0</ele><time>2026-05-02T10:19:29.999Z</time></trkpt><trkpt lat="40.0587426896318" lon="8.52152946044628"><ele>110.0</ele><time>2026-05-02T10:19:30.999Z</time></trkpt><trkpt lat="40.058635510326994" lon="8.521337199759582"><ele>110.0</ele><time>2026-05-02T10:19:31.999Z</time></trkpt><trkpt lat="40.05852670022997" lon="8.521153886015323"><ele>110.0</ele><time>2026-05-02T10:19:32.999Z</time></trkpt><trkpt lat="40.05841241707308" lon="8.520968322303533"><ele>110.0</ele><time>2026-05-02T10:19:33.999Z</time></trkpt><trkpt lat="40.05830379920611" lon="8.520794495137753"><ele>110.0</ele><time>2026-05-02T10:19:34.999Z</time></trkpt><trkpt lat="40.0581972125916" lon="8.520641005067032"><ele>110.0</ele><time>2026-05-02T10:19:35.999Z</time></trkpt><trkpt lat="40.05811008680426" lon="8.52048522320003"><ele>109.0</ele><time>2026-05-02T10:19:36.999Z</time></trkpt><trkpt lat="40.05805034702075" lon="8.520315287909883"><ele>108.0</ele><time>2026-05-02T10:19:37.999Z</time></trkpt><trkpt lat="40.05797547866383" lon="8.520181915696954"><ele>107.0</ele><time>2026-05-02T10:19:38.999Z</time></trkpt><trkpt lat="40.057911661388374" lon="8.520093575140539"><ele>106.0</ele><time>2026-05-02T10:19:39.999Z</time></trkpt><trkpt lat="40.05785101760085" lon="8.5200676494832"><ele>105.0</ele><time>2026-05-02T10:19:40.999Z</time></trkpt><trkpt lat="40.057726995700676" lon="8.520095564408235"><ele>105.0</ele><time>2026-05-02T10:19:42.999Z</time></trkpt><trkpt lat="40.057644563256694" lon="8.520159465926918"><ele>105.0</ele><time>2026-05-02T10:19:43.999Z</time></trkpt><trkpt lat="40.0575403376696" lon="8.520249571088069"><ele>105.0</ele><time>2026-05-02T10:19:44.999Z</time></trkpt><trkpt lat="40.057411917920376" lon="8.520324153517581"><ele>105.0</ele><time>2026-05-02T10:19:45.999Z</time></trkpt><trkpt lat="40.05727169038303" lon="8.520399063773876"><ele>102.66666666666666</ele><time>2026-05-02T10:19:46.999Z</time></trkpt><trkpt lat="40.05711804216297" lon="8.520481143271171"><ele>100.33333333333333</ele><time>2026-05-02T10:19:47.999Z</time></trkpt><trkpt lat="40.05696628631682" lon="8.520577274105543"><ele>98.0</ele><time>2026-05-02T10:19:48.999Z</time></trkpt><trkpt lat="40.05680640855483" lon="8.520656703836844"><ele>98.0</ele><time>2026-05-02T10:19:49.999Z</time></trkpt><trkpt lat="40.05665213877949" lon="8.520731247753858"><ele>98.0</ele><time>2026-05-02T10:19:50.999Z</time></trkpt><trkpt lat="40.056521411465624" lon="8.520780333297528"><ele>98.0</ele><time>2026-05-02T10:19:51.999Z</time></trkpt><trkpt lat="40.05639935448903" lon="8.520833759296714"><ele>98.0</ele><time>2026-05-02T10:19:52.999Z</time></trkpt><trkpt lat="40.056274370662706" lon="8.520929931791889"><ele>96.0</ele><time>2026-05-02T10:19:53.999Z</time></trkpt><trkpt lat="40.05614525986754" lon="8.521060765969446"><ele>94.0</ele><time>2026-05-02T10:19:54.999Z</time></trkpt><trkpt lat="40.05600852012307" lon="8.521191170965828"><ele>92.0</ele><time>2026-05-02T10:19:56Z</time></trkpt><trkpt lat="40.055860977215026" lon="8.521307036962328"><ele>91.33333333333334</ele><time>2026-05-02T10:19:57Z</time></trkpt><trkpt lat="40.05570983267162" lon="8.521407338709185"><ele>90.66666666666667</ele><time>2026-05-02T10:19:58Z</time></trkpt><trkpt lat="40.055557554136435" lon="8.521492926816089"><ele>90.0</ele><time>2026-05-02T10:19:59Z</time></trkpt><trkpt lat="40.05539636919252" lon="8.521568116496638"><ele>90.0</ele><time>2026-05-02T10:20:00Z</time></trkpt><trkpt lat="40.05522350399132" lon="8.521614899079935"><ele>90.0</ele><time>2026-05-02T10:20:01Z</time></trkpt><trkpt lat="40.0550619810704" lon="8.521705449534004"><ele>90.0</ele><time>2026-05-02T10:20:02Z</time></trkpt><trkpt lat="40.05490711097478" lon="8.521769630699074"><ele>90.25</ele><time>2026-05-02T10:20:03Z</time></trkpt><trkpt lat="40.054767937991684" lon="8.521826058771115"><ele>90.5</ele><time>2026-05-02T10:20:04Z</time></trkpt><trkpt lat="40.05463420334644" lon="8.521862378467304"><ele>90.75</ele><time>2026-05-02T10:20:05Z</time></trkpt><trkpt lat="40.0545033335579" lon="8.521875078787307"><ele>91.0</ele><time>2026-05-02T10:20:06Z</time></trkpt><trkpt lat="40.05437283208612" lon="8.521889015157976"><ele>91.0</ele><time>2026-05-02T10:20:07Z</time></trkpt><trkpt lat="40.0542397460511" lon="8.521912130626847"><ele>91.0</ele><time>2026-05-02T10:20:08Z</time></trkpt><trkpt lat="40.054108791975345" lon="8.521944568689007"><ele>91.0</ele><time>2026-05-02T10:20:09Z</time></trkpt><trkpt lat="40.05397850604999" lon="8.521994450172564"><ele>91.0</ele><time>2026-05-02T10:20:10Z</time></trkpt><trkpt lat="40.05384536006954" lon="8.522058087564863"><ele>91.0</ele><time>2026-05-02T10:20:11Z</time></trkpt><trkpt lat="40.053708832676236" lon="8.522141560391482"><ele>91.0</ele><time>2026-05-02T10:20:12Z</time></trkpt><trkpt lat="40.05358147085188" lon="8.522247124313758"><ele>91.0</ele><time>2026-05-02T10:20:13Z</time></trkpt><trkpt lat="40.053475443270344" lon="8.522364619010954"><ele>91.0</ele><time>2026-05-02T10:20:14Z</time></trkpt><trkpt lat="40.05338696647065" lon="8.522499635465323"><ele>91.0</ele><time>2026-05-02T10:20:15Z</time></trkpt><trkpt lat="40.05331188270264" lon="8.52263026575575"><ele>91.0</ele><time>2026-05-02T10:20:16Z</time></trkpt><trkpt lat="40.05323737465143" lon="8.522751120091279"><ele>91.0</ele><time>2026-05-02T10:20:17Z</time></trkpt><trkpt lat="40.05315745061413" lon="8.522856085495718"><ele>91.0</ele><time>2026-05-02T10:20:18Z</time></trkpt><trkpt lat="40.05306848242565" lon="8.522931852768721"><ele>92.25</ele><time>2026-05-02T10:20:19Z</time></trkpt><trkpt lat="40.05297518002707" lon="8.522978768811546"><ele>93.5</ele><time>2026-05-02T10:20:20Z</time></trkpt><trkpt lat="40.05287421623296" lon="8.523005606906723"><ele>94.75</ele><time>2026-05-02T10:20:21Z</time></trkpt><trkpt lat="40.052761823723564" lon="8.523044357328349"><ele>96.0</ele><time>2026-05-02T10:20:22Z</time></trkpt><trkpt lat="40.05262892222177" lon="8.523096245026556"><ele>96.0</ele><time>2026-05-02T10:20:23Z</time></trkpt><trkpt lat="40.052480014417945" lon="8.52310916290972"><ele>96.0</ele><time>2026-05-02T10:20:24Z</time></trkpt><trkpt lat="40.052322095749524" lon="8.523126159880416"><ele>96.0</ele><time>2026-05-02T10:20:25Z</time></trkpt><trkpt lat="40.05215086456438" lon="8.52316309705617"><ele>95.0</ele><time>2026-05-02T10:20:26Z</time></trkpt><trkpt lat="40.05198630639658" lon="8.523180183901298"><ele>94.0</ele><time>2026-05-02T10:20:27Z</time></trkpt><trkpt lat="40.051822556325725" lon="8.523196708698132"><ele>93.0</ele><time>2026-05-02T10:20:28Z</time></trkpt><trkpt lat="40.05165414630814" lon="8.523214914771069"><ele>92.66666666666667</ele><time>2026-05-02T10:20:29Z</time></trkpt><trkpt lat="40.05148065688572" lon="8.523236489408818"><ele>92.33333333333334</ele><time>2026-05-02T10:20:30Z</time></trkpt><trkpt lat="40.05130477616785" lon="8.523257969534031"><ele>92.0</ele><time>2026-05-02T10:20:31Z</time></trkpt><trkpt lat="40.0511279737478" lon="8.523278913680755"><ele>92.0</ele><time>2026-05-02T10:20:32Z</time></trkpt><trkpt lat="40.050951695997554" lon="8.523301159002974"><ele>92.0</ele><time>2026-05-02T10:20:33Z</time></trkpt><trkpt lat="40.05078149023488" lon="8.523324074153393"><ele>92.0</ele><time>2026-05-02T10:20:34Z</time></trkpt><trkpt lat="40.050625822428664" lon="8.523341034034638"><ele>91.5</ele><time>2026-05-02T10:20:35Z</time></trkpt><trkpt lat="40.05050145014854" lon="8.523427267890865"><ele>91.0</ele><time>2026-05-02T10:20:36Z</time></trkpt><trkpt lat="40.05040576103921" lon="8.523532839202844"><ele>90.5</ele><time>2026-05-02T10:20:37Z</time></trkpt><trkpt lat="40.050317216469416" lon="8.523669071820784"><ele>90.0</ele><time>2026-05-02T10:20:38Z</time></trkpt><trkpt lat="40.05021880153789" lon="8.523814488595702"><ele>89.66666666666667</ele><time>2026-05-02T10:20:39Z</time></trkpt><trkpt lat="40.050104321699955" lon="8.523963165175218"><ele>89.33333333333334</ele><time>2026-05-02T10:20:40Z</time></trkpt><trkpt lat="40.0499859059942" lon="8.524118355187031"><ele>89.0</ele><time>2026-05-02T10:20:41Z</time></trkpt><trkpt lat="40.049866121622074" lon="8.524278227613244"><ele>88.0</ele><time>2026-05-02T10:20:42Z</time></trkpt><trkpt lat="40.04974436707063" lon="8.52444402525853"><ele>87.0</ele><time>2026-05-02T10:20:43Z</time></trkpt><trkpt lat="40.049619195661684" lon="8.524615868167201"><ele>86.0</ele><time>2026-05-02T10:20:44Z</time></trkpt><trkpt lat="40.04949094940796" lon="8.524792758205786"><ele>85.33333333333334</ele><time>2026-05-02T10:20:45Z</time></trkpt><trkpt lat="40.04935939399354" lon="8.524967950209609"><ele>84.66666666666667</ele><time>2026-05-02T10:20:46Z</time></trkpt><trkpt lat="40.049224832970665" lon="8.525142682092461"><ele>84.0</ele><time>2026-05-02T10:20:47Z</time></trkpt><trkpt lat="40.04909176384575" lon="8.525317485885473"><ele>83.0</ele><time>2026-05-02T10:20:48Z</time></trkpt><trkpt lat="40.04895938824259" lon="8.525492016347243"><ele>82.0</ele><time>2026-05-02T10:20:49Z</time></trkpt><trkpt lat="40.0488260149164" lon="8.525661618524348"><ele>81.0</ele><time>2026-05-02T10:20:50Z</time></trkpt><trkpt lat="40.048690271458" lon="8.525830963761617"><ele>81.0</ele><time>2026-05-02T10:20:51Z</time></trkpt><trkpt lat="40.048553931256464" lon="8.525998538793718"><ele>81.0</ele><time>2026-05-02T10:20:52Z</time></trkpt><trkpt lat="40.04841946605395" lon="8.526168790304453"><ele>81.0</ele><time>2026-05-02T10:20:53Z</time></trkpt><trkpt lat="40.04828968083554" lon="8.526340715133214"><ele>81.8</ele><time>2026-05-02T10:20:54Z</time></trkpt><trkpt lat="40.04818664116774" lon="8.526489741522573"><ele>82.6</ele><time>2026-05-02T10:20:55Z</time></trkpt><trkpt lat="40.048103244739735" lon="8.526583237082434"><ele>83.4</ele><time>2026-05-02T10:20:56Z</time></trkpt><trkpt lat="40.048052591165145" lon="8.52667690891589"><ele>84.2</ele><time>2026-05-02T10:20:57Z</time></trkpt><trkpt lat="40.04796838147675" lon="8.526730137529151"><ele>85.0</ele><time>2026-05-02T10:20:59Z</time></trkpt><trkpt lat="40.04786179853911" lon="8.526607214134849"><ele>85.0</ele><time>2026-05-02T10:21:00Z</time></trkpt><trkpt lat="40.047742363675" lon="8.526608013804026"><ele>85.0</ele><time>2026-05-02T10:21:00.999Z</time></trkpt><trkpt lat="40.04761165926867" lon="8.526606055480814"><ele>85.0</ele><time>2026-05-02T10:21:01.999Z</time></trkpt><trkpt lat="40.04746425132385" lon="8.526602680108924"><ele>85.0</ele><time>2026-05-02T10:21:02.999Z</time></trkpt><trkpt lat="40.04730330355497" lon="8.526596539787407"><ele>84.66666666666666</ele><time>2026-05-02T10:21:03.999Z</time></trkpt><trkpt lat="40.04714403511895" lon="8.526554133451201"><ele>84.33333333333333</ele><time>2026-05-02T10:21:04.999Z</time></trkpt><trkpt lat="40.0469865643178" lon="8.526492548600459"><ele>84.0</ele><time>2026-05-02T10:21:05.999Z</time></trkpt><trkpt lat="40.04685213018275" lon="8.526438561869423"><ele>84.0</ele><time>2026-05-02T10:21:06.999Z</time></trkpt><trkpt lat="40.04675706716827" lon="8.526399825643884"><ele>84.0</ele><time>2026-05-02T10:21:07.999Z</time></trkpt><trkpt lat="40.04667195871658" lon="8.526367056632283"><ele>84.0</ele><time>2026-05-02T10:21:08.999Z</time></trkpt><trkpt lat="40.046579107372786" lon="8.526336044676608"><ele>84.0</ele><time>2026-05-02T10:21:09.999Z</time></trkpt><trkpt lat="40.046471858250925" lon="8.526314628537593"><ele>84.0</ele><time>2026-05-02T10:21:10.999Z</time></trkpt><trkpt lat="40.04635786682608" lon="8.526301616947016"><ele>84.0</ele><time>2026-05-02T10:21:11.999Z</time></trkpt><trkpt lat="40.046236525395656" lon="8.526288220391418"><ele>84.0</ele><time>2026-05-02T10:21:12.999Z</time></trkpt><trkpt lat="40.04610896560445" lon="8.526264567910983"><ele>84.0</ele><time>2026-05-02T10:21:13.999Z</time></trkpt><trkpt lat="40.0459768549165" lon="8.526229550839927"><ele>84.0</ele><time>2026-05-02T10:21:14.999Z</time></trkpt><trkpt lat="40.04584952642832" lon="8.526183219244547"><ele>84.0</ele><time>2026-05-02T10:21:15.999Z</time></trkpt><trkpt lat="40.045727612167056" lon="8.526114177753252"><ele>84.0</ele><time>2026-05-02T10:21:16.999Z</time></trkpt><trkpt lat="40.045598553510295" lon="8.52602938838677"><ele>84.0</ele><time>2026-05-02T10:21:17.999Z</time></trkpt><trkpt lat="40.04546924025476" lon="8.525940408843097"><ele>84.0</ele><time>2026-05-02T10:21:18.999Z</time></trkpt><trkpt lat="40.04533223874061" lon="8.525865995759634"><ele>84.0</ele><time>2026-05-02T10:21:19.999Z</time></trkpt><trkpt lat="40.045210838402944" lon="8.525779405809025"><ele>84.0</ele><time>2026-05-02T10:21:20.999Z</time></trkpt><trkpt lat="40.045101175448345" lon="8.525707898433238"><ele>84.0</ele><time>2026-05-02T10:21:21.999Z</time></trkpt><trkpt lat="40.04500032348896" lon="8.525645776167016"><ele>84.0</ele><time>2026-05-02T10:21:22.999Z</time></trkpt><trkpt lat="40.04490285398398" lon="8.525564814382545"><ele>84.0</ele><time>2026-05-02T10:21:23.999Z</time></trkpt><trkpt lat="40.044791519771834" lon="8.525496485757234"><ele>84.0</ele><time>2026-05-02T10:21:24.999Z</time></trkpt><trkpt lat="40.04468016827728" lon="8.525413272053989"><ele>84.0</ele><time>2026-05-02T10:21:25.999Z</time></trkpt><trkpt lat="40.044572449520686" lon="8.525295273905414"><ele>84.0</ele><time>2026-05-02T10:21:26.999Z</time></trkpt><trkpt lat="40.04444947123459" lon="8.52516204869664"><ele>84.0</ele><time>2026-05-02T10:21:27.999Z</time></trkpt><trkpt lat="40.044314397656045" lon="8.525041133031957"><ele>84.0</ele><time>2026-05-02T10:21:28.999Z</time></trkpt><trkpt lat="40.04418895318235" lon="8.524889413515758"><ele>84.0</ele><time>2026-05-02T10:21:29.999Z</time></trkpt><trkpt lat="40.04404524998368" lon="8.524763401748077"><ele>84.33333333333333</ele><time>2026-05-02T10:21:30.999Z</time></trkpt><trkpt lat="40.043883662536345" lon="8.524655100184583"><ele>84.66666666666666</ele><time>2026-05-02T10:21:31.999Z</time></trkpt><trkpt lat="40.043713764501106" lon="8.524593927572463"><ele>85.0</ele><time>2026-05-02T10:21:32.999Z</time></trkpt><trkpt lat="40.04356330579633" lon="8.52454090427388"><ele>85.0</ele><time>2026-05-02T10:21:33.999Z</time></trkpt><trkpt lat="40.043410918733585" lon="8.524508273095693"><ele>85.0</ele><time>2026-05-02T10:21:34.999Z</time></trkpt><trkpt lat="40.04324560457919" lon="8.52449096788354"><ele>85.0</ele><time>2026-05-02T10:21:35.999Z</time></trkpt><trkpt lat="40.04307141585524" lon="8.524451001137182"><ele>84.5</ele><time>2026-05-02T10:21:36.999Z</time></trkpt><trkpt lat="40.04291105147836" lon="8.524427691109446"><ele>84.0</ele><time>2026-05-02T10:21:37.999Z</time></trkpt><trkpt lat="40.0427756255395" lon="8.524397847184215"><ele>83.5</ele><time>2026-05-02T10:21:38.999Z</time></trkpt><trkpt lat="40.042641046191896" lon="8.524338997094718"><ele>83.0</ele><time>2026-05-02T10:21:39.999Z</time></trkpt><trkpt lat="40.04248131350241" lon="8.524278191420422"><ele>81.33333333333334</ele><time>2026-05-02T10:21:40.999Z</time></trkpt><trkpt lat="40.04230651702185" lon="8.524237279177408"><ele>79.66666666666667</ele><time>2026-05-02T10:21:41.999Z</time></trkpt><trkpt lat="40.04212662688454" lon="8.524192314194078"><ele>78.0</ele><time>2026-05-02T10:21:42.999Z</time></trkpt><trkpt lat="40.041951736917085" lon="8.524130455469152"><ele>78.0</ele><time>2026-05-02T10:21:43.999Z</time></trkpt><trkpt lat="40.04178064765987" lon="8.524088404774965"><ele>78.0</ele><time>2026-05-02T10:21:44.999Z</time></trkpt><trkpt lat="40.04160455099008" lon="8.524072473003004"><ele>78.0</ele><time>2026-05-02T10:21:45.999Z</time></trkpt><trkpt lat="40.04142603158189" lon="8.524045816716445"><ele>77.0</ele><time>2026-05-02T10:21:46.999Z</time></trkpt><trkpt lat="40.04124337286789" lon="8.524025534160703"><ele>76.0</ele><time>2026-05-02T10:21:47.999Z</time></trkpt><trkpt lat="40.041066887862414" lon="8.52401438701203"><ele>75.0</ele><time>2026-05-02T10:21:48.999Z</time></trkpt><trkpt lat="40.04088834299822" lon="8.524017901984548"><ele>74.0</ele><time>2026-05-02T10:21:49.999Z</time></trkpt><trkpt lat="40.04070625830555" lon="8.524013197180285"><ele>73.0</ele><time>2026-05-02T10:21:50.999Z</time></trkpt><trkpt lat="40.04051913288451" lon="8.524028392992943"><ele>72.0</ele><time>2026-05-02T10:21:51.999Z</time></trkpt><trkpt lat="40.04032986702746" lon="8.524067638166574"><ele>72.0</ele><time>2026-05-02T10:21:52.999Z</time></trkpt><trkpt lat="40.040136320811726" lon="8.524085910088798"><ele>72.0</ele><time>2026-05-02T10:21:53.999Z</time></trkpt><trkpt lat="40.03994325594028" lon="8.524110523736368"><ele>72.0</ele><time>2026-05-02T10:21:54.999Z</time></trkpt><trkpt lat="40.03975934078129" lon="8.524134230119115"><ele>71.33333333333333</ele><time>2026-05-02T10:21:55.999Z</time></trkpt><trkpt lat="40.03959220604636" lon="8.524119349415502"><ele>70.66666666666666</ele><time>2026-05-02T10:21:56.999Z</time></trkpt><trkpt lat="40.039431618820295" lon="8.524109004080307"><ele>70.0</ele><time>2026-05-02T10:21:57.999Z</time></trkpt><trkpt lat="40.03926033958689" lon="8.52408350980078"><ele>69.33333333333333</ele><time>2026-05-02T10:21:58.999Z</time></trkpt><trkpt lat="40.03908385623083" lon="8.524046011856456"><ele>68.66666666666667</ele><time>2026-05-02T10:21:59.999Z</time></trkpt><trkpt lat="40.038901541360126" lon="8.524003371126103"><ele>68.0</ele><time>2026-05-02T10:22:00.999Z</time></trkpt><trkpt lat="40.03871631070112" lon="8.523955937335428"><ele>68.0</ele><time>2026-05-02T10:22:02Z</time></trkpt><trkpt lat="40.038532178200185" lon="8.52394459604228"><ele>68.0</ele><time>2026-05-02T10:22:03Z</time></trkpt><trkpt lat="40.03835279794356" lon="8.52392736971523"><ele>68.0</ele><time>2026-05-02T10:22:04Z</time></trkpt><trkpt lat="40.03818956330157" lon="8.52394217095644"><ele>67.5</ele><time>2026-05-02T10:22:05Z</time></trkpt><trkpt lat="40.03805907103092" lon="8.523931423656459"><ele>67.0</ele><time>2026-05-02T10:22:06Z</time></trkpt><trkpt lat="40.037953771510026" lon="8.523908511948292"><ele>66.5</ele><time>2026-05-02T10:22:07Z</time></trkpt><trkpt lat="40.03783462148275" lon="8.52387464218589"><ele>66.0</ele><time>2026-05-02T10:22:08Z</time></trkpt><trkpt lat="40.037693817870114" lon="8.523827775280385"><ele>66.0</ele><time>2026-05-02T10:22:09Z</time></trkpt><trkpt lat="40.03754452902629" lon="8.523793316840873"><ele>66.0</ele><time>2026-05-02T10:22:10Z</time></trkpt><trkpt lat="40.03740184824673" lon="8.523734055311014"><ele>66.0</ele><time>2026-05-02T10:22:11Z</time></trkpt><trkpt lat="40.03726320798141" lon="8.523654279006239"><ele>66.75</ele><time>2026-05-02T10:22:12Z</time></trkpt><trkpt lat="40.037122915774646" lon="8.5235958002907"><ele>67.5</ele><time>2026-05-02T10:22:13Z</time></trkpt><trkpt lat="40.036994936075985" lon="8.52354189938823"><ele>68.25</ele><time>2026-05-02T10:22:14Z</time></trkpt><trkpt lat="40.036870225667656" lon="8.52348280237319"><ele>69.0</ele><time>2026-05-02T10:22:15Z</time></trkpt><trkpt lat="40.036742079080014" lon="8.523416850473527"><ele>69.0</ele><time>2026-05-02T10:22:16Z</time></trkpt><trkpt lat="40.03661019706591" lon="8.523348431038164"><ele>69.0</ele><time>2026-05-02T10:22:17Z</time></trkpt><trkpt lat="40.036481852382096" lon="8.523282294526535"><ele>69.0</ele><time>2026-05-02T10:22:18Z</time></trkpt><trkpt lat="40.03636457389883" lon="8.52323248305082"><ele>69.0</ele><time>2026-05-02T10:22:19Z</time></trkpt><trkpt lat="40.03625899042429" lon="8.52319715933242"><ele>69.0</ele><time>2026-05-02T10:22:20Z</time></trkpt><trkpt lat="40.03615280384107" lon="8.523209753377579"><ele>69.0</ele><time>2026-05-02T10:22:21Z</time></trkpt><trkpt lat="40.03603135898284" lon="8.523220026254519"><ele>69.0</ele><time>2026-05-02T10:22:22Z</time></trkpt><trkpt lat="40.03591491523025" lon="8.523268802344552"><ele>69.0</ele><time>2026-05-02T10:22:23Z</time></trkpt><trkpt lat="40.03578712125658" lon="8.523301727444156"><ele>68.33333333333333</ele><time>2026-05-02T10:22:24Z</time></trkpt><trkpt lat="40.035652246530006" lon="8.523370020305336"><ele>67.66666666666666</ele><time>2026-05-02T10:22:25Z</time></trkpt><trkpt lat="40.03551090070756" lon="8.523437459475023"><ele>67.0</ele><time>2026-05-02T10:22:26Z</time></trkpt><trkpt lat="40.03535845419842" lon="8.523502887148931"><ele>67.0</ele><time>2026-05-02T10:22:27Z</time></trkpt><trkpt lat="40.035199176487744" lon="8.523566939773705"><ele>67.0</ele><time>2026-05-02T10:22:28Z</time></trkpt><trkpt lat="40.03503598124982" lon="8.523628944399102"><ele>67.0</ele><time>2026-05-02T10:22:29Z</time></trkpt><trkpt lat="40.03488777793997" lon="8.523674912530215"><ele>66.75</ele><time>2026-05-02T10:22:30Z</time></trkpt><trkpt lat="40.03476574096462" lon="8.523715210189682"><ele>66.5</ele><time>2026-05-02T10:22:31Z</time></trkpt><trkpt lat="40.03466448978509" lon="8.523758438454381"><ele>66.25</ele><time>2026-05-02T10:22:32Z</time></trkpt><trkpt lat="40.034562299975775" lon="8.523802967726802"><ele>66.0</ele><time>2026-05-02T10:22:33Z</time></trkpt><trkpt lat="40.03446615057487" lon="8.5239216373594"><ele>66.5</ele><time>2026-05-02T10:22:34Z</time></trkpt><trkpt lat="40.03433765224547" lon="8.524003299464727"><ele>67.0</ele><time>2026-05-02T10:22:35Z</time></trkpt><trkpt lat="40.03420801258327" lon="8.524116495580174"><ele>67.5</ele><time>2026-05-02T10:22:36Z</time></trkpt><trkpt lat="40.034080731247464" lon="8.524217366557354"><ele>68.0</ele><time>2026-05-02T10:22:37Z</time></trkpt><trkpt lat="40.03396713911998" lon="8.524287439368678"><ele>68.25</ele><time>2026-05-02T10:22:38Z</time></trkpt><trkpt lat="40.03386834832106" lon="8.524281223765213"><ele>68.5</ele><time>2026-05-02T10:22:39Z</time></trkpt><trkpt lat="40.03376196290241" lon="8.52426662210086"><ele>68.75</ele><time>2026-05-02T10:22:40Z</time></trkpt><trkpt lat="40.03362360294685" lon="8.52425302536344"><ele>69.0</ele><time>2026-05-02T10:22:41Z</time></trkpt><trkpt lat="40.03346605932508" lon="8.52429534626229"><ele>68.0</ele><time>2026-05-02T10:22:42Z</time></trkpt><trkpt lat="40.033300124614726" lon="8.52429799785587"><ele>67.0</ele><time>2026-05-02T10:22:43Z</time></trkpt><trkpt lat="40.03313302988967" lon="8.524296205761464"><ele>66.0</ele><time>2026-05-02T10:22:44Z</time></trkpt><trkpt lat="40.03295342290226" lon="8.52431951842293"><ele>66.0</ele><time>2026-05-02T10:22:45Z</time></trkpt><trkpt lat="40.03278300799988" lon="8.524387212908332"><ele>66.0</ele><time>2026-05-02T10:22:46Z</time></trkpt><trkpt lat="40.03260715373666" lon="8.524424070009406"><ele>66.0</ele><time>2026-05-02T10:22:47Z</time></trkpt><trkpt lat="40.032447696115646" lon="8.524452825371553"><ele>64.66666666666667</ele><time>2026-05-02T10:22:48Z</time></trkpt><trkpt lat="40.032279878756476" lon="8.524461652488155"><ele>63.333333333333336</ele><time>2026-05-02T10:22:49Z</time></trkpt><trkpt lat="40.03210059471556" lon="8.524468086020475"><ele>62.0</ele><time>2026-05-02T10:22:50Z</time></trkpt><trkpt lat="40.031923400746194" lon="8.524482333013895"><ele>62.0</ele><time>2026-05-02T10:22:51Z</time></trkpt><trkpt lat="40.031763440617794" lon="8.52448392534568"><ele>62.0</ele><time>2026-05-02T10:22:52Z</time></trkpt><trkpt lat="40.03161256343753" lon="8.524516282316844"><ele>62.0</ele><time>2026-05-02T10:22:53Z</time></trkpt><trkpt lat="40.0314677277291" lon="8.524542327757523"><ele>60.66666666666667</ele><time>2026-05-02T10:22:54Z</time></trkpt><trkpt lat="40.03131279988105" lon="8.524602353673332"><ele>59.33333333333333</ele><time>2026-05-02T10:22:55Z</time></trkpt><trkpt lat="40.03115058008581" lon="8.524688342120342"><ele>58.0</ele><time>2026-05-02T10:22:56Z</time></trkpt><trkpt lat="40.03098404651523" lon="8.524740938873222"><ele>58.0</ele><time>2026-05-02T10:22:57Z</time></trkpt><trkpt lat="40.03084323959869" lon="8.524834228137761"><ele>58.0</ele><time>2026-05-02T10:22:58Z</time></trkpt><trkpt lat="40.03069702057865" lon="8.524893347089115"><ele>58.0</ele><time>2026-05-02T10:22:59Z</time></trkpt><trkpt lat="40.030555158888184" lon="8.525000426732399"><ele>57.0</ele><time>2026-05-02T10:23:00Z</time></trkpt><trkpt lat="40.0304266971124" lon="8.52514123343309"><ele>56.0</ele><time>2026-05-02T10:23:01Z</time></trkpt><trkpt lat="40.0302680274516" lon="8.525208196874734"><ele>55.0</ele><time>2026-05-02T10:23:02Z</time></trkpt><trkpt lat="40.03012412487212" lon="8.525288477154945"><ele>55.0</ele><time>2026-05-02T10:23:03Z</time></trkpt><trkpt lat="40.029993897089895" lon="8.525325979224933"><ele>55.0</ele><time>2026-05-02T10:23:03.999Z</time></trkpt><trkpt lat="40.029867673552204" lon="8.525355632227805"><ele>55.0</ele><time>2026-05-02T10:23:04.999Z</time></trkpt><trkpt lat="40.02977096009755" lon="8.525412761625448"><ele>55.0</ele><time>2026-05-02T10:23:05.999Z</time></trkpt><trkpt lat="40.0296786194568" lon="8.525471197923821"><ele>54.0</ele><time>2026-05-02T10:23:06.999Z</time></trkpt><trkpt lat="40.02959818343837" lon="8.525576675204341"><ele>53.0</ele><time>2026-05-02T10:23:07.999Z</time></trkpt><trkpt lat="40.02950218350886" lon="8.525699132021122"><ele>52.0</ele><time>2026-05-02T10:23:08.999Z</time></trkpt><trkpt lat="40.02939034139267" lon="8.525813556042543"><ele>51.0</ele><time>2026-05-02T10:23:09.999Z</time></trkpt><trkpt lat="40.0292601437705" lon="8.525894673560645"><ele>49.333333333333336</ele><time>2026-05-02T10:23:10.999Z</time></trkpt><trkpt lat="40.02911557678807" lon="8.525960823926503"><ele>47.66666666666667</ele><time>2026-05-02T10:23:11.999Z</time></trkpt><trkpt lat="40.028963525749795" lon="8.526008863447855"><ele>46.0</ele><time>2026-05-02T10:23:12.999Z</time></trkpt><trkpt lat="40.02879958118956" lon="8.526027512564838"><ele>46.0</ele><time>2026-05-02T10:23:13.999Z</time></trkpt><trkpt lat="40.02863128567692" lon="8.526042170786393"><ele>46.0</ele><time>2026-05-02T10:23:14.999Z</time></trkpt><trkpt lat="40.02847657347216" lon="8.52602906740501"><ele>46.0</ele><time>2026-05-02T10:23:15.999Z</time></trkpt><trkpt lat="40.02832651198923" lon="8.526008557930663"><ele>45.25</ele><time>2026-05-02T10:23:16.999Z</time></trkpt><trkpt lat="40.02817213987678" lon="8.526032887116685"><ele>44.5</ele><time>2026-05-02T10:23:17.999Z</time></trkpt><trkpt lat="40.02802032625534" lon="8.52609321547793"><ele>43.75</ele><time>2026-05-02T10:23:18.999Z</time></trkpt><trkpt lat="40.02790908635236" lon="8.526142191582034"><ele>43.0</ele><time>2026-05-02T10:23:19.999Z</time></trkpt><trkpt lat="40.0278420924344" lon="8.526181294431456"><ele>43.2</ele><time>2026-05-02T10:23:20.999Z</time></trkpt><trkpt lat="40.02782828211488" lon="8.526277058023567"><ele>43.4</ele><time>2026-05-02T10:23:23.999Z</time></trkpt><trkpt lat="40.027795489066996" lon="8.526435826427845"><ele>43.6</ele><time>2026-05-02T10:23:25.999Z</time></trkpt><trkpt lat="40.02773568883338" lon="8.526554462435636"><ele>43.800000000000004</ele><time>2026-05-02T10:23:26.999Z</time></trkpt><trkpt lat="40.02765879478633" lon="8.526684573262216"><ele>44.0</ele><time>2026-05-02T10:23:27.999Z</time></trkpt><trkpt lat="40.02754725616851" lon="8.526802458638064"><ele>43.0</ele><time>2026-05-02T10:23:28.999Z</time></trkpt><trkpt lat="40.02742564746275" lon="8.526927497002328"><ele>42.0</ele><time>2026-05-02T10:23:29.999Z</time></trkpt><trkpt lat="40.02730427929113" lon="8.527061862012083"><ele>41.0</ele><time>2026-05-02T10:23:30.999Z</time></trkpt><trkpt lat="40.02717615215612" lon="8.527201071273769"><ele>40.0</ele><time>2026-05-02T10:23:31.999Z</time></trkpt><trkpt lat="40.02704177971427" lon="8.527349208474904"><ele>39.0</ele><time>2026-05-02T10:23:32.999Z</time></trkpt><trkpt lat="40.02690618105527" lon="8.527495621980897"><ele>38.0</ele><time>2026-05-02T10:23:33.999Z</time></trkpt><trkpt lat="40.026762288874494" lon="8.527628593988101"><ele>37.33333333333333</ele><time>2026-05-02T10:23:34.999Z</time></trkpt><trkpt lat="40.02660891762892" lon="8.527739007019209"><ele>36.666666666666664</ele><time>2026-05-02T10:23:35.999Z</time></trkpt><trkpt lat="40.026445370812155" lon="8.527842231036795"><ele>36.0</ele><time>2026-05-02T10:23:36.999Z</time></trkpt><trkpt lat="40.02627602868804" lon="8.52792511706282"><ele>35.666666666666664</ele><time>2026-05-02T10:23:37.999Z</time></trkpt><trkpt lat="40.02610813418393" lon="8.528028039888792"><ele>35.33333333333333</ele><time>2026-05-02T10:23:38.999Z</time></trkpt><trkpt lat="40.025938779507186" lon="8.52813469557777"><ele>35.0</ele><time>2026-05-02T10:23:39.999Z</time></trkpt><trkpt lat="40.02577047572059" lon="8.5282408275236"><ele>34.666666666666664</ele><time>2026-05-02T10:23:40.999Z</time></trkpt><trkpt lat="40.02560205647026" lon="8.52834631966356"><ele>34.333333333333336</ele><time>2026-05-02T10:23:41.999Z</time></trkpt><trkpt lat="40.02544200110589" lon="8.52845157515103"><ele>34.0</ele><time>2026-05-02T10:23:42.999Z</time></trkpt><trkpt lat="40.025297162540156" lon="8.528547765343559"><ele>34.0</ele><time>2026-05-02T10:23:43.999Z</time></trkpt><trkpt lat="40.02517524114434" lon="8.528626406661932"><ele>34.0</ele><time>2026-05-02T10:23:44.999Z</time></trkpt><trkpt lat="40.02507987267638" lon="8.5286773241572"><ele>34.0</ele><time>2026-05-02T10:23:45.999Z</time></trkpt><trkpt lat="40.0250152486231" lon="8.528715444112931"><ele>34.0</ele><time>2026-05-02T10:23:47.999Z</time></trkpt><trkpt lat="40.02494975974111" lon="8.528784865231108"><ele>34.0</ele><time>2026-05-02T10:23:50.999Z</time></trkpt><trkpt lat="40.02484437197792" lon="8.52874517246769"><ele>33.75</ele><time>2026-05-02T10:23:51.999Z</time></trkpt><trkpt lat="40.0247393426395" lon="8.528767040410417"><ele>33.5</ele><time>2026-05-02T10:23:52.999Z</time></trkpt><trkpt lat="40.02460573677568" lon="8.528763180234087"><ele>33.25</ele><time>2026-05-02T10:23:53.999Z</time></trkpt><trkpt lat="40.02445316538157" lon="8.528740538341603"><ele>33.0</ele><time>2026-05-02T10:23:54.999Z</time></trkpt><trkpt lat="40.02429385227998" lon="8.52871545872677"><ele>32.333333333333336</ele><time>2026-05-02T10:23:55.999Z</time></trkpt><trkpt lat="40.02412511174044" lon="8.528717133095531"><ele>31.666666666666668</ele><time>2026-05-02T10:23:56.999Z</time></trkpt><trkpt lat="40.0239571775248" lon="8.528680905415888"><ele>31.0</ele><time>2026-05-02T10:23:57.999Z</time></trkpt><trkpt lat="40.02378990911317" lon="8.52872614293746"><ele>31.0</ele><time>2026-05-02T10:23:58.999Z</time></trkpt><trkpt lat="40.02363268947634" lon="8.528724886077603"><ele>31.0</ele><time>2026-05-02T10:23:59.999Z</time></trkpt><trkpt lat="40.0234838139711" lon="8.5287226403802"><ele>31.0</ele><time>2026-05-02T10:24:00.999Z</time></trkpt><trkpt lat="40.023319050407444" lon="8.528713612859342"><ele>30.0</ele><time>2026-05-02T10:24:01.999Z</time></trkpt><trkpt lat="40.02315892133644" lon="8.528687055344221"><ele>29.0</ele><time>2026-05-02T10:24:02.999Z</time></trkpt><trkpt lat="40.023006380513344" lon="8.528671914350012"><ele>28.0</ele><time>2026-05-02T10:24:03.999Z</time></trkpt><trkpt lat="40.022852447784054" lon="8.528676316010868"><ele>28.0</ele><time>2026-05-02T10:24:04.999Z</time></trkpt><trkpt lat="40.02268647980043" lon="8.528687873834464"><ele>28.0</ele><time>2026-05-02T10:24:05.999Z</time></trkpt><trkpt lat="40.02251746755598" lon="8.528699328291955"><ele>28.0</ele><time>2026-05-02T10:24:06.999Z</time></trkpt><trkpt lat="40.02233859136226" lon="8.528701476404722"><ele>27.666666666666668</ele><time>2026-05-02T10:24:08Z</time></trkpt><trkpt lat="40.02216199595179" lon="8.528719772132433"><ele>27.333333333333336</ele><time>2026-05-02T10:24:09Z</time></trkpt><trkpt lat="40.0219874383325" lon="8.528743475023141"><ele>27.0</ele><time>2026-05-02T10:24:10Z</time></trkpt><trkpt lat="40.021824740007744" lon="8.528770197019748"><ele>27.0</ele><time>2026-05-02T10:24:11Z</time></trkpt><trkpt lat="40.02166612220074" lon="8.52880308903753"><ele>27.0</ele><time>2026-05-02T10:24:12Z</time></trkpt><trkpt lat="40.021498159758494" lon="8.528854937603004"><ele>27.0</ele><time>2026-05-02T10:24:13Z</time></trkpt><trkpt lat="40.02132576736403" lon="8.528916344943074"><ele>26.333333333333336</ele><time>2026-05-02T10:24:14Z</time></trkpt><trkpt lat="40.02115075353886" lon="8.52897611595937"><ele>25.666666666666668</ele><time>2026-05-02T10:24:15Z</time></trkpt><trkpt lat="40.02097920841297" lon="8.529034185834009"><ele>25.0</ele><time>2026-05-02T10:24:16Z</time></trkpt><trkpt lat="40.020806810005446" lon="8.52908744958451"><ele>24.666666666666668</ele><time>2026-05-02T10:24:17Z</time></trkpt><trkpt lat="40.02063908366312" lon="8.529135713797132"><ele>24.333333333333336</ele><time>2026-05-02T10:24:18Z</time></trkpt><trkpt lat="40.02048014463717" lon="8.529176164015682"><ele>24.0</ele><time>2026-05-02T10:24:19Z</time></trkpt><trkpt lat="40.020321159050326" lon="8.529203944140487"><ele>24.0</ele><time>2026-05-02T10:24:20Z</time></trkpt><trkpt lat="40.02016562232855" lon="8.529205044792738"><ele>24.0</ele><time>2026-05-02T10:24:21Z</time></trkpt><trkpt lat="40.020012678933504" lon="8.52921255100933"><ele>24.0</ele><time>2026-05-02T10:24:22Z</time></trkpt><trkpt lat="40.019872470495464" lon="8.529254799114193"><ele>23.6</ele><time>2026-05-02T10:24:23Z</time></trkpt><trkpt lat="40.019762740597145" lon="8.529268814542602"><ele>23.2</ele><time>2026-05-02T10:24:24Z</time></trkpt><trkpt lat="40.01982177495234" lon="8.529173178955169"><ele>22.8</ele><time>2026-05-02T10:24:36Z</time></trkpt><trkpt lat="40.01980305631991" lon="8.529080180368563"><ele>22.400000000000002</ele><time>2026-05-02T10:24:37Z</time></trkpt><trkpt lat="40.01979872436016" lon="8.528953160520254"><ele>22.0</ele><time>2026-05-02T10:24:38Z</time></trkpt><trkpt lat="40.01980414453468" lon="8.528801447957049"><ele>22.0</ele><time>2026-05-02T10:24:39Z</time></trkpt><trkpt lat="40.01981320942199" lon="8.52863345241176"><ele>22.0</ele><time>2026-05-02T10:24:40Z</time></trkpt><trkpt lat="40.01981922993899" lon="8.528468022885447"><ele>22.0</ele><time>2026-05-02T10:24:41Z</time></trkpt><trkpt lat="40.01981725501989" lon="8.528287462965402"><ele>22.0</ele><time>2026-05-02T10:24:42Z</time></trkpt><trkpt lat="40.019836599329956" lon="8.528104348681538"><ele>22.0</ele><time>2026-05-02T10:24:43Z</time></trkpt><trkpt lat="40.01982815723482" lon="8.52792007664613"><ele>22.0</ele><time>2026-05-02T10:24:44Z</time></trkpt><trkpt lat="40.019853711490406" lon="8.527733269644747"><ele>22.0</ele><time>2026-05-02T10:24:45Z</time></trkpt><trkpt lat="40.01989023357773" lon="8.527545413209802"><ele>22.0</ele><time>2026-05-02T10:24:46Z</time></trkpt><trkpt lat="40.01992312367463" lon="8.527354304653777"><ele>21.666666666666664</ele><time>2026-05-02T10:24:47Z</time></trkpt><trkpt lat="40.019954914258236" lon="8.527162882959649"><ele>21.333333333333332</ele><time>2026-05-02T10:24:48Z</time></trkpt><trkpt lat="40.019990696085785" lon="8.526972522490194"><ele>21.0</ele><time>2026-05-02T10:24:49Z</time></trkpt><trkpt lat="40.020028422011265" lon="8.526782747062995"><ele>21.0</ele><time>2026-05-02T10:24:50Z</time></trkpt><trkpt lat="40.020072054724565" lon="8.52659743636658"><ele>21.0</ele><time>2026-05-02T10:24:51Z</time></trkpt><trkpt lat="40.02010958029039" lon="8.526408297407809"><ele>21.0</ele><time>2026-05-02T10:24:52Z</time></trkpt><trkpt lat="40.02014127358263" lon="8.526230068669127"><ele>21.0</ele><time>2026-05-02T10:24:53Z</time></trkpt><trkpt lat="40.020168789199374" lon="8.526066254236106"><ele>21.0</ele><time>2026-05-02T10:24:54Z</time></trkpt><trkpt lat="40.020203882159855" lon="8.525912168918264"><ele>21.0</ele><time>2026-05-02T10:24:55Z</time></trkpt><trkpt lat="40.020241967126616" lon="8.525746238219963"><ele>21.0</ele><time>2026-05-02T10:24:56Z</time></trkpt><trkpt lat="40.02028196425829" lon="8.525573964330547"><ele>21.0</ele><time>2026-05-02T10:24:57Z</time></trkpt><trkpt lat="40.020326038449944" lon="8.5253970302669"><ele>20.5</ele><time>2026-05-02T10:24:58Z</time></trkpt><trkpt lat="40.020360877576096" lon="8.525219807657455"><ele>20.0</ele><time>2026-05-02T10:24:59Z</time></trkpt><trkpt lat="40.020379540765504" lon="8.525033077855413"><ele>19.5</ele><time>2026-05-02T10:25:00Z</time></trkpt><trkpt lat="40.02039329310003" lon="8.524847806390229"><ele>19.0</ele><time>2026-05-02T10:25:01Z</time></trkpt><trkpt lat="40.020436591285225" lon="8.524671178573655"><ele>19.0</ele><time>2026-05-02T10:25:02Z</time></trkpt><trkpt lat="40.02046773417509" lon="8.524491346008414"><ele>19.0</ele><time>2026-05-02T10:25:03Z</time></trkpt><trkpt lat="40.02050421428842" lon="8.524302667779576"><ele>19.0</ele><time>2026-05-02T10:25:04Z</time></trkpt><trkpt lat="40.020560913344305" lon="8.524112171772687"><ele>19.0</ele><time>2026-05-02T10:25:05Z</time></trkpt><trkpt lat="40.020611670986035" lon="8.523916952907408"><ele>19.333333333333332</ele><time>2026-05-02T10:25:06Z</time></trkpt><trkpt lat="40.02065150515584" lon="8.523713410361923"><ele>19.666666666666668</ele><time>2026-05-02T10:25:06.999Z</time></trkpt><trkpt lat="40.02068491388944" lon="8.523507734715404"><ele>20.0</ele><time>2026-05-02T10:25:07.999Z</time></trkpt><trkpt lat="40.02071037093241" lon="8.523306936085577"><ele>20.0</ele><time>2026-05-02T10:25:08.999Z</time></trkpt><trkpt lat="40.02071915496058" lon="8.523107118642326"><ele>20.0</ele><time>2026-05-02T10:25:09.999Z</time></trkpt><trkpt lat="40.020738143522145" lon="8.522911991267714"><ele>20.0</ele><time>2026-05-02T10:25:10.999Z</time></trkpt><trkpt lat="40.02076044372035" lon="8.52271890882053"><ele>20.0</ele><time>2026-05-02T10:25:11.999Z</time></trkpt><trkpt lat="40.02079139994779" lon="8.522525174912023"><ele>20.0</ele><time>2026-05-02T10:25:12.999Z</time></trkpt><trkpt lat="40.02082338500793" lon="8.522356795964976"><ele>20.0</ele><time>2026-05-02T10:25:13.999Z</time></trkpt><trkpt lat="40.02085188750666" lon="8.522206051532024"><ele>20.0</ele><time>2026-05-02T10:25:14.999Z</time></trkpt><trkpt lat="40.02085547828044" lon="8.52208247313666"><ele>19.5</ele><time>2026-05-02T10:25:15.999Z</time></trkpt><trkpt lat="40.02083979439353" lon="8.521943708542398"><ele>19.0</ele><time>2026-05-02T10:25:20.999Z</time></trkpt><trkpt lat="40.020843050537046" lon="8.521770850793606"><ele>18.5</ele><time>2026-05-02T10:25:22.999Z</time></trkpt><trkpt lat="40.0208518840586" lon="8.52163366570814"><ele>18.0</ele><time>2026-05-02T10:25:23.999Z</time></trkpt><trkpt lat="40.020865433271595" lon="8.52147008732291"><ele>18.0</ele><time>2026-05-02T10:25:24.999Z</time></trkpt><trkpt lat="40.02088856474603" lon="8.521299262638422"><ele>18.0</ele><time>2026-05-02T10:25:25.999Z</time></trkpt><trkpt lat="40.02091589751948" lon="8.521115623969505"><ele>18.0</ele><time>2026-05-02T10:25:26.999Z</time></trkpt><trkpt lat="40.02094036638445" lon="8.520921063453317"><ele>18.0</ele><time>2026-05-02T10:25:27.999Z</time></trkpt><trkpt lat="40.02096496275277" lon="8.520725489081519"><ele>17.666666666666668</ele><time>2026-05-02T10:25:28.999Z</time></trkpt><trkpt lat="40.02098757069299" lon="8.52051193416935"><ele>17.333333333333336</ele><time>2026-05-02T10:25:29.999Z</time></trkpt><trkpt lat="40.02100399624027" lon="8.520291540716824"><ele>17.0</ele><time>2026-05-02T10:25:30.999Z</time></trkpt><trkpt lat="40.021009535605764" lon="8.520061179206365"><ele>17.0</ele><time>2026-05-02T10:25:31.999Z</time></trkpt><trkpt lat="40.02101036136857" lon="8.519830344406857"><ele>17.0</ele><time>2026-05-02T10:25:32.999Z</time></trkpt><trkpt lat="40.02100737202808" lon="8.519597150013542"><ele>17.0</ele><time>2026-05-02T10:25:33.999Z</time></trkpt><trkpt lat="40.021001365936336" lon="8.519368602776334"><ele>17.333333333333336</ele><time>2026-05-02T10:25:34.999Z</time></trkpt><trkpt lat="40.020986884876486" lon="8.519146191749602"><ele>17.666666666666668</ele><time>2026-05-02T10:25:35.999Z</time></trkpt><trkpt lat="40.02098401156114" lon="8.518927415892819"><ele>18.0</ele><time>2026-05-02T10:25:36.999Z</time></trkpt><trkpt lat="40.021004585994014" lon="8.518708731564184"><ele>18.0</ele><time>2026-05-02T10:25:37.999Z</time></trkpt><trkpt lat="40.02102174718603" lon="8.518487867407709"><ele>18.0</ele><time>2026-05-02T10:25:38.999Z</time></trkpt><trkpt lat="40.021012479432926" lon="8.518271621637663"><ele>18.0</ele><time>2026-05-02T10:25:39.999Z</time></trkpt><trkpt lat="40.021020718954325" lon="8.518057055636898"><ele>18.0</ele><time>2026-05-02T10:25:40.999Z</time></trkpt><trkpt lat="40.02101116056014" lon="8.517839074218044"><ele>18.0</ele><time>2026-05-02T10:25:41.999Z</time></trkpt><trkpt lat="40.020989074530426" lon="8.517621874203694"><ele>18.0</ele><time>2026-05-02T10:25:42.999Z</time></trkpt><trkpt lat="40.02096701873541" lon="8.517406748350181"><ele>18.0</ele><time>2026-05-02T10:25:43.999Z</time></trkpt><trkpt lat="40.02094475530855" lon="8.517188291936762"><ele>18.0</ele><time>2026-05-02T10:25:44.999Z</time></trkpt><trkpt lat="40.02093017507321" lon="8.516972589443265"><ele>18.0</ele><time>2026-05-02T10:25:45.999Z</time></trkpt><trkpt lat="40.02092367607867" lon="8.51675207386148"><ele>18.333333333333332</ele><time>2026-05-02T10:25:46.999Z</time></trkpt><trkpt lat="40.020923794267375" lon="8.51653100670972"><ele>18.666666666666664</ele><time>2026-05-02T10:25:47.999Z</time></trkpt><trkpt lat="40.02092568292923" lon="8.516309171152521"><ele>19.0</ele><time>2026-05-02T10:25:48.999Z</time></trkpt><trkpt lat="40.02092777332758" lon="8.51611222018702"><ele>18.599999999999998</ele><time>2026-05-02T10:25:49.999Z</time></trkpt><trkpt lat="40.020929117669446" lon="8.515985560497358"><ele>18.2</ele><time>2026-05-02T10:25:50.999Z</time></trkpt><trkpt lat="40.020913487332194" lon="8.515904323657306"><ele>17.799999999999997</ele><time>2026-05-02T10:25:51.999Z</time></trkpt><trkpt lat="40.02093094548144" lon="8.515813349811223"><ele>17.4</ele><time>2026-05-02T10:25:55.999Z</time></trkpt><trkpt lat="40.02092832504171" lon="8.515987753122701"><ele>17.0</ele><time>2026-05-02T10:25:59.999Z</time></trkpt><trkpt lat="40.02090352997907" lon="8.516127253579786"><ele>17.5</ele><time>2026-05-02T10:26:00.999Z</time></trkpt><trkpt lat="40.02089681256471" lon="8.516273472089146"><ele>18.0</ele><time>2026-05-02T10:26:01.999Z</time></trkpt><trkpt lat="40.020891733203015" lon="8.51642192449132"><ele>18.5</ele><time>2026-05-02T10:26:02.999Z</time></trkpt><trkpt lat="40.02089220830149" lon="8.516580406477887"><ele>19.0</ele><time>2026-05-02T10:26:03.999Z</time></trkpt><trkpt lat="40.02089509647035" lon="8.516739398324026"><ele>19.0</ele><time>2026-05-02T10:26:04.999Z</time></trkpt><trkpt lat="40.02089154544296" lon="8.516911403145015"><ele>19.0</ele><time>2026-05-02T10:26:05.999Z</time></trkpt><trkpt lat="40.02089236866016" lon="8.51708582778373"><ele>19.0</ele><time>2026-05-02T10:26:06.999Z</time></trkpt><trkpt lat="40.02090599921328" lon="8.517261169036793"><ele>19.0</ele><time>2026-05-02T10:26:07.999Z</time></trkpt><trkpt lat="40.02093146184069" lon="8.51744200662256"><ele>18.75</ele><time>2026-05-02T10:26:08.999Z</time></trkpt><trkpt lat="40.02095761237693" lon="8.51762395722101"><ele>18.5</ele><time>2026-05-02T10:26:09.999Z</time></trkpt><trkpt lat="40.020981227697106" lon="8.517805329148137"><ele>18.25</ele><time>2026-05-02T10:26:10.998Z</time></trkpt><trkpt lat="40.02099140772498" lon="8.517988930615516"><ele>18.0</ele><time>2026-05-02T10:26:11.998Z</time></trkpt><trkpt lat="40.02099942516449" lon="8.518169550953655"><ele>18.0</ele><time>2026-05-02T10:26:13Z</time></trkpt><trkpt lat="40.02098760771524" lon="8.518333917304828"><ele>18.0</ele><time>2026-05-02T10:26:14Z</time></trkpt><trkpt lat="40.020985233292365" lon="8.518474414046175"><ele>18.0</ele><time>2026-05-02T10:26:15Z</time></trkpt><trkpt lat="40.020994686333935" lon="8.518572636921872"><ele>18.0</ele><time>2026-05-02T10:26:16Z</time></trkpt><trkpt lat="40.02086053796195" lon="8.518568112556995"><ele>18.0</ele><time>2026-05-02T10:26:19Z</time></trkpt><trkpt lat="40.02077008778833" lon="8.518580933205923"><ele>17.75</ele><time>2026-05-02T10:26:20Z</time></trkpt><trkpt lat="40.02065654906323" lon="8.518622892345373"><ele>17.5</ele><time>2026-05-02T10:26:21Z</time></trkpt><trkpt lat="40.02052820205971" lon="8.518653346072831"><ele>17.25</ele><time>2026-05-02T10:26:22Z</time></trkpt><trkpt lat="40.020392869237774" lon="8.51867949555277"><ele>17.0</ele><time>2026-05-02T10:26:23Z</time></trkpt><trkpt lat="40.02025922899645" lon="8.518716500511852"><ele>16.75</ele><time>2026-05-02T10:26:24Z</time></trkpt><trkpt lat="40.02012487550797" lon="8.518757520030075"><ele>16.5</ele><time>2026-05-02T10:26:25Z</time></trkpt><trkpt lat="40.01999114118332" lon="8.518792905293799"><ele>16.25</ele><time>2026-05-02T10:26:26Z</time></trkpt><trkpt lat="40.01985325514917" lon="8.518814983450572"><ele>16.0</ele><time>2026-05-02T10:26:27Z</time></trkpt><trkpt lat="40.01970601326396" lon="8.518838259209431"><ele>15.75</ele><time>2026-05-02T10:26:28Z</time></trkpt><trkpt lat="40.01956120645763" lon="8.518876851593651"><ele>15.5</ele><time>2026-05-02T10:26:29Z</time></trkpt><trkpt lat="40.019428683678235" lon="8.518915581810296"><ele>15.25</ele><time>2026-05-02T10:26:30Z</time></trkpt><trkpt lat="40.01930817536547" lon="8.518933391074462"><ele>15.0</ele><time>2026-05-02T10:26:31Z</time></trkpt><trkpt lat="40.019194416219925" lon="8.518949704702534"><ele>15.4</ele><time>2026-05-02T10:26:32Z</time></trkpt><trkpt lat="40.01909438383546" lon="8.51897952061282"><ele>15.8</ele><time>2026-05-02T10:26:33Z</time></trkpt><trkpt lat="40.01899450009951" lon="8.519033015705006"><ele>16.2</ele><time>2026-05-02T10:26:34Z</time></trkpt><trkpt lat="40.0188924777837" lon="8.519086179349081"><ele>16.6</ele><time>2026-05-02T10:26:35Z</time></trkpt><trkpt lat="40.01878552426122" lon="8.519162118203088"><ele>17.0</ele><time>2026-05-02T10:26:36Z</time></trkpt><trkpt lat="40.01867904958636" lon="8.519242130918323"><ele>17.0</ele><time>2026-05-02T10:26:37Z</time></trkpt><trkpt lat="40.01857957169642" lon="8.5193362484809"><ele>17.0</ele><time>2026-05-02T10:26:38Z</time></trkpt><trkpt lat="40.01847380079817" lon="8.519423629910372"><ele>17.0</ele><time>2026-05-02T10:26:39Z</time></trkpt><trkpt lat="40.018356037308926" lon="8.51949855172945"><ele>17.0</ele><time>2026-05-02T10:26:40Z</time></trkpt><trkpt lat="40.01823729342168" lon="8.51956389822309"><ele>16.5</ele><time>2026-05-02T10:26:41Z</time></trkpt><trkpt lat="40.01812205958993" lon="8.519651759418098"><ele>16.0</ele><time>2026-05-02T10:26:42Z</time></trkpt><trkpt lat="40.01801278133793" lon="8.519761309275543"><ele>15.5</ele><time>2026-05-02T10:26:43Z</time></trkpt><trkpt lat="40.01789568235102" lon="8.519864151572003"><ele>15.0</ele><time>2026-05-02T10:26:44Z</time></trkpt><trkpt lat="40.017772745884784" lon="8.519961627900342"><ele>15.0</ele><time>2026-05-02T10:26:45Z</time></trkpt><trkpt lat="40.01765129716822" lon="8.520063357866372"><ele>15.0</ele><time>2026-05-02T10:26:46Z</time></trkpt><trkpt lat="40.01753586783698" lon="8.52016494074148"><ele>15.0</ele><time>2026-05-02T10:26:47Z</time></trkpt><trkpt lat="40.0174227280146" lon="8.520263615135185"><ele>15.0</ele><time>2026-05-02T10:26:48Z</time></trkpt><trkpt lat="40.01730531331077" lon="8.520349276350998"><ele>14.75</ele><time>2026-05-02T10:26:49Z</time></trkpt><trkpt lat="40.01717732702893" lon="8.52042828276008"><ele>14.5</ele><time>2026-05-02T10:26:50Z</time></trkpt><trkpt lat="40.01704520934407" lon="8.520509785588358"><ele>14.25</ele><time>2026-05-02T10:26:51Z</time></trkpt><trkpt lat="40.016906672099545" lon="8.520576053875438"><ele>14.0</ele><time>2026-05-02T10:26:52Z</time></trkpt><trkpt lat="40.01676664012422" lon="8.520649103505301"><ele>13.666666666666668</ele><time>2026-05-02T10:26:53Z</time></trkpt><trkpt lat="40.016622239725436" lon="8.52072674945399"><ele>13.333333333333332</ele><time>2026-05-02T10:26:54Z</time></trkpt><trkpt lat="40.016472181328844" lon="8.520804006964775"><ele>13.0</ele><time>2026-05-02T10:26:55Z</time></trkpt><trkpt lat="40.01632695469282" lon="8.52089504636018"><ele>13.0</ele><time>2026-05-02T10:26:56Z</time></trkpt><trkpt lat="40.01617792075314" lon="8.520987107704967"><ele>13.0</ele><time>2026-05-02T10:26:57Z</time></trkpt><trkpt lat="40.0160266201181" lon="8.521076206227482"><ele>13.0</ele><time>2026-05-02T10:26:58Z</time></trkpt><trkpt lat="40.015888348732624" lon="8.52117273862978"><ele>12.666666666666666</ele><time>2026-05-02T10:26:59Z</time></trkpt><trkpt lat="40.01575766967881" lon="8.521271083535444"><ele>12.333333333333332</ele><time>2026-05-02T10:27:00Z</time></trkpt><trkpt lat="40.01562368420462" lon="8.52135227260483"><ele>12.0</ele><time>2026-05-02T10:27:01Z</time></trkpt><trkpt lat="40.01547243920383" lon="8.521419369579986"><ele>12.0</ele><time>2026-05-02T10:27:02Z</time></trkpt><trkpt lat="40.01532200133137" lon="8.521490502601834"><ele>12.0</ele><time>2026-05-02T10:27:03Z</time></trkpt><trkpt lat="40.015176253388404" lon="8.521564241769207"><ele>12.0</ele><time>2026-05-02T10:27:04Z</time></trkpt><trkpt lat="40.015029005638034" lon="8.52163051924599"><ele>12.25</ele><time>2026-05-02T10:27:05Z</time></trkpt><trkpt lat="40.01487526876824" lon="8.521682592702552"><ele>12.5</ele><time>2026-05-02T10:27:06Z</time></trkpt><trkpt lat="40.014733232256134" lon="8.521738805674136"><ele>12.75</ele><time>2026-05-02T10:27:07Z</time></trkpt><trkpt lat="40.01460102978995" lon="8.521788312512603"><ele>13.0</ele><time>2026-05-02T10:27:08Z</time></trkpt><trkpt lat="40.01447170780267" lon="8.521812717974154"><ele>13.0</ele><time>2026-05-02T10:27:08.999Z</time></trkpt><trkpt lat="40.01434480578058" lon="8.521835293916213"><ele>13.0</ele><time>2026-05-02T10:27:09.999Z</time></trkpt><trkpt lat="40.014221870203144" lon="8.521906552966056"><ele>13.0</ele><time>2026-05-02T10:27:10.999Z</time></trkpt><trkpt lat="40.01409345062616" lon="8.522010447232132"><ele>13.0</ele><time>2026-05-02T10:27:11.999Z</time></trkpt><trkpt lat="40.01396669781929" lon="8.522113528069259"><ele>12.5</ele><time>2026-05-02T10:27:12.999Z</time></trkpt><trkpt lat="40.013850637189755" lon="8.522220783244695"><ele>12.0</ele><time>2026-05-02T10:27:13.999Z</time></trkpt><trkpt lat="40.01374683584807" lon="8.522358679809367"><ele>11.5</ele><time>2026-05-02T10:27:14.999Z</time></trkpt><trkpt lat="40.01364256908733" lon="8.522477696881841"><ele>11.0</ele><time>2026-05-02T10:27:15.999Z</time></trkpt><trkpt lat="40.01353450684584" lon="8.522578284947523"><ele>11.0</ele><time>2026-05-02T10:27:16.999Z</time></trkpt><trkpt lat="40.01341765676423" lon="8.522688181538898"><ele>11.0</ele><time>2026-05-02T10:27:17.999Z</time></trkpt><trkpt lat="40.01332040626424" lon="8.52284790062086"><ele>11.0</ele><time>2026-05-02T10:27:18.999Z</time></trkpt><trkpt lat="40.01320670138574" lon="8.522951512108692"><ele>11.0</ele><time>2026-05-02T10:27:19.999Z</time></trkpt><trkpt lat="40.013102937664264" lon="8.523047144748434"><ele>10.5</ele><time>2026-05-02T10:27:20.999Z</time></trkpt><trkpt lat="40.01299813312215" lon="8.523146337204633"><ele>10.0</ele><time>2026-05-02T10:27:21.999Z</time></trkpt><trkpt lat="40.01290614955318" lon="8.523234943720285"><ele>9.5</ele><time>2026-05-02T10:27:22.999Z</time></trkpt><trkpt lat="40.01284742122622" lon="8.52329468939443"><ele>9.0</ele><time>2026-05-02T10:27:23.999Z</time></trkpt><trkpt lat="40.012752845064014" lon="8.523415128497714"><ele>9.0</ele><time>2026-05-02T10:27:31.999Z</time></trkpt><trkpt lat="40.01266843608155" lon="8.523491032576974"><ele>9.0</ele><time>2026-05-02T10:27:32.999Z</time></trkpt><trkpt lat="40.012555996686835" lon="8.523564113772276"><ele>9.0</ele><time>2026-05-02T10:27:33.999Z</time></trkpt><trkpt lat="40.012455831103374" lon="8.523663248479556"><ele>9.0</ele><time>2026-05-02T10:27:34.999Z</time></trkpt><trkpt lat="40.01234779851949" lon="8.523755138994433"><ele>9.25</ele><time>2026-05-02T10:27:35.999Z</time></trkpt><trkpt lat="40.01222627015537" lon="8.523852888714016"><ele>9.5</ele><time>2026-05-02T10:27:36.999Z</time></trkpt><trkpt lat="40.012099518010686" lon="8.523952752346068"><ele>9.75</ele><time>2026-05-02T10:27:37.999Z</time></trkpt><trkpt lat="40.01197800800979" lon="8.52404717982761"><ele>10.0</ele><time>2026-05-02T10:27:38.999Z</time></trkpt><trkpt lat="40.01185773553675" lon="8.524139541751127"><ele>10.0</ele><time>2026-05-02T10:27:39.999Z</time></trkpt><trkpt lat="40.01173320053341" lon="8.524232339818761"><ele>10.0</ele><time>2026-05-02T10:27:40.999Z</time></trkpt><trkpt lat="40.01160717378076" lon="8.524324493939544"><ele>10.0</ele><time>2026-05-02T10:27:41.999Z</time></trkpt><trkpt lat="40.01148226543487" lon="8.52441510972418"><ele>10.0</ele><time>2026-05-02T10:27:42.999Z</time></trkpt><trkpt lat="40.01135992045798" lon="8.524509840552652"><ele>9.75</ele><time>2026-05-02T10:27:43.999Z</time></trkpt><trkpt lat="40.011258343180735" lon="8.524635688741155"><ele>9.5</ele><time>2026-05-02T10:27:44.999Z</time></trkpt><trkpt lat="40.01116404578766" lon="8.524756053379658"><ele>9.25</ele><time>2026-05-02T10:27:45.999Z</time></trkpt><trkpt lat="40.011051000133" lon="8.524868272067204"><ele>9.0</ele><time>2026-05-02T10:27:46.999Z</time></trkpt><trkpt lat="40.01092724744165" lon="8.524975518589596"><ele>9.0</ele><time>2026-05-02T10:27:47.999Z</time></trkpt><trkpt lat="40.010825789835266" lon="8.52512056730001"><ele>9.0</ele><time>2026-05-02T10:27:48.999Z</time></trkpt><trkpt lat="40.01071747165119" lon="8.525262305311221"><ele>9.0</ele><time>2026-05-02T10:27:49.999Z</time></trkpt><trkpt lat="40.010595489557936" lon="8.525398579992137"><ele>9.0</ele><time>2026-05-02T10:27:50.999Z</time></trkpt><trkpt lat="40.0104785795406" lon="8.525553487338954"><ele>9.0</ele><time>2026-05-02T10:27:51.999Z</time></trkpt><trkpt lat="40.01035850446962" lon="8.525703792563688"><ele>9.0</ele><time>2026-05-02T10:27:52.999Z</time></trkpt><trkpt lat="40.010245400423685" lon="8.525869892103497"><ele>9.0</ele><time>2026-05-02T10:27:53.999Z</time></trkpt><trkpt lat="40.01012277670876" lon="8.526026138103273"><ele>9.0</ele><time>2026-05-02T10:27:54.999Z</time></trkpt><trkpt lat="40.01000238192182" lon="8.526183766317372"><ele>9.0</ele><time>2026-05-02T10:27:55.999Z</time></trkpt><trkpt lat="40.00988354751202" lon="8.526339025772701"><ele>9.0</ele><time>2026-05-02T10:27:56.999Z</time></trkpt><trkpt lat="40.00976841219225" lon="8.526496549141209"><ele>9.0</ele><time>2026-05-02T10:27:57.999Z</time></trkpt><trkpt lat="40.009643667226904" lon="8.526636920492374"><ele>9.0</ele><time>2026-05-02T10:27:58.999Z</time></trkpt><trkpt lat="40.009534503929935" lon="8.526787622805045"><ele>9.0</ele><time>2026-05-02T10:27:59.999Z</time></trkpt><trkpt lat="40.009429914066736" lon="8.526938565100576"><ele>9.0</ele><time>2026-05-02T10:28:00.999Z</time></trkpt><trkpt lat="40.00932769073373" lon="8.527083825781482"><ele>9.0</ele><time>2026-05-02T10:28:01.999Z</time></trkpt><trkpt lat="40.009220116106135" lon="8.527217489243702"><ele>9.0</ele><time>2026-05-02T10:28:02.999Z</time></trkpt><trkpt lat="40.009113105806584" lon="8.5273431156039"><ele>9.0</ele><time>2026-05-02T10:28:03.999Z</time></trkpt><trkpt lat="40.009031113741194" lon="8.52747655530679"><ele>9.0</ele><time>2026-05-02T10:28:04.999Z</time></trkpt><trkpt lat="40.00893400379028" lon="8.52757714393901"><ele>9.0</ele><time>2026-05-02T10:28:05.999Z</time></trkpt><trkpt lat="40.00880966583854" lon="8.527634101185134"><ele>9.0</ele><time>2026-05-02T10:28:06.999Z</time></trkpt><trkpt lat="40.00868826991291" lon="8.527720311872748"><ele>9.0</ele><time>2026-05-02T10:28:07.999Z</time></trkpt><trkpt lat="40.008583496911584" lon="8.527827219972673"><ele>9.0</ele><time>2026-05-02T10:28:08.999Z</time></trkpt><trkpt lat="40.008489567636644" lon="8.527922632115727"><ele>9.0</ele><time>2026-05-02T10:28:09.999Z</time></trkpt><trkpt lat="40.00839756268026" lon="8.528046902754028"><ele>8.0</ele><time>2026-05-02T10:28:10.999Z</time></trkpt><trkpt lat="40.00830177354125" lon="8.528196188923214"><ele>7.0</ele><time>2026-05-02T10:28:11.999Z</time></trkpt><trkpt lat="40.00819181142391" lon="8.52833833306723"><ele>6.0</ele><time>2026-05-02T10:28:12.999Z</time></trkpt><trkpt lat="40.00808349379783" lon="8.528484229890198"><ele>6.0</ele><time>2026-05-02T10:28:13.998Z</time></trkpt><trkpt lat="40.00796164937199" lon="8.528612064877043"><ele>6.0</ele><time>2026-05-02T10:28:14.998Z</time></trkpt><trkpt lat="40.00785408839398" lon="8.528749479049882"><ele>6.0</ele><time>2026-05-02T10:28:15.998Z</time></trkpt><trkpt lat="40.00775866916726" lon="8.528876428500682"><ele>6.0</ele><time>2026-05-02T10:28:16.998Z</time></trkpt><trkpt lat="40.00766857253802" lon="8.528977764995318"><ele>6.5</ele><time>2026-05-02T10:28:18Z</time></trkpt><trkpt lat="40.00757530471667" lon="8.529064509843773"><ele>7.0</ele><time>2026-05-02T10:28:19Z</time></trkpt><trkpt lat="40.00746435881214" lon="8.529139126524012"><ele>7.5</ele><time>2026-05-02T10:28:20Z</time></trkpt><trkpt lat="40.00733552770598" lon="8.529210465765066"><ele>8.0</ele><time>2026-05-02T10:28:21Z</time></trkpt><trkpt lat="40.007221288661356" lon="8.529309796882687"><ele>7.999999999999999</ele><time>2026-05-02T10:28:22Z</time></trkpt><trkpt lat="40.00712067814993" lon="8.529379967155295"><ele>8.0</ele><time>2026-05-02T10:28:23Z</time></trkpt><trkpt lat="40.007034906658205" lon="8.529390203906866"><ele>8.0</ele><time>2026-05-02T10:28:24Z</time></trkpt><trkpt lat="40.006960251993746" lon="8.529380470345778"><ele>8.0</ele><time>2026-05-02T10:28:29Z</time></trkpt><trkpt lat="40.00692199692453" lon="8.529505168245596"><ele>7.999999999999999</ele><time>2026-05-02T10:28:31Z</time></trkpt><trkpt lat="40.00692279283307" lon="8.52958822010055"><ele>8.0</ele><time>2026-05-02T10:28:32Z</time></trkpt><trkpt lat="40.00692333245372" lon="8.529692916151788"><ele>8.0</ele><time>2026-05-02T10:28:35Z</time></trkpt><trkpt lat="40.006951470052535" lon="8.529547204634515"><ele>8.0</ele><time>2026-05-02T10:28:39Z</time></trkpt><trkpt lat="40.00695408718804" lon="8.529429563747083"><ele>8.0</ele><time>2026-05-02T10:28:40Z</time></trkpt><trkpt lat="40.00698006706457" lon="8.52929581267019"><ele>8.0</ele><time>2026-05-02T10:28:41Z</time></trkpt><trkpt lat="40.007017435351734" lon="8.52914211975708"><ele>8.0</ele><time>2026-05-02T10:28:42Z</time></trkpt><trkpt lat="40.00705363555596" lon="8.528981862237405"><ele>8.0</ele><time>2026-05-02T10:28:43Z</time></trkpt><trkpt lat="40.007088607077065" lon="8.528809583545979"><ele>8.0</ele><time>2026-05-02T10:28:44Z</time></trkpt><trkpt lat="40.00712251711831" lon="8.52862335238114"><ele>8.0</ele><time>2026-05-02T10:28:45Z</time></trkpt><trkpt lat="40.007158760173446" lon="8.52843403623604"><ele>8.0</ele><time>2026-05-02T10:28:46Z</time></trkpt><trkpt lat="40.00719786513641" lon="8.528233188101867"><ele>7.666666666666666</ele><time>2026-05-02T10:28:47Z</time></trkpt><trkpt lat="40.007237355640335" lon="8.5280290160349"><ele>7.333333333333334</ele><time>2026-05-02T10:28:48Z</time></trkpt><trkpt lat="40.00727356976114" lon="8.527816312122027"><ele>7.0</ele><time>2026-05-02T10:28:49Z</time></trkpt><trkpt lat="40.00731206267262" lon="8.527603099403283"><ele>7.0</ele><time>2026-05-02T10:28:50Z</time></trkpt><trkpt lat="40.00735123055024" lon="8.527386137876565"><ele>7.0</ele><time>2026-05-02T10:28:51Z</time></trkpt><trkpt lat="40.00738997459071" lon="8.527165031682944"><ele>7.0</ele><time>2026-05-02T10:28:52Z</time></trkpt><trkpt lat="40.00742594757379" lon="8.526945739682601"><ele>8.0</ele><time>2026-05-02T10:28:53Z</time></trkpt><trkpt lat="40.007459256104326" lon="8.526727666850952"><ele>9.0</ele><time>2026-05-02T10:28:54Z</time></trkpt><trkpt lat="40.00749161343506" lon="8.52651019426159"><ele>10.0</ele><time>2026-05-02T10:28:55Z</time></trkpt><trkpt lat="40.007524799461294" lon="8.526293647872711"><ele>10.0</ele><time>2026-05-02T10:28:56Z</time></trkpt><trkpt lat="40.00755971745867" lon="8.526076102189291"><ele>10.0</ele><time>2026-05-02T10:28:57Z</time></trkpt><trkpt lat="40.00759677835557" lon="8.525857951514407"><ele>10.0</ele><time>2026-05-02T10:28:58Z</time></trkpt><trkpt lat="40.00763328310955" lon="8.525641841408103"><ele>10.0</ele><time>2026-05-02T10:28:59Z</time></trkpt><trkpt lat="40.00767439335824" lon="8.525424207153758"><ele>10.0</ele><time>2026-05-02T10:29:00Z</time></trkpt><trkpt lat="40.00771201552439" lon="8.525214842573327"><ele>10.0</ele><time>2026-05-02T10:29:01Z</time></trkpt><trkpt lat="40.00774939099322" lon="8.525001496371923"><ele>9.666666666666668</ele><time>2026-05-02T10:29:02Z</time></trkpt><trkpt lat="40.007790811384076" lon="8.524785754910583"><ele>9.333333333333334</ele><time>2026-05-02T10:29:03Z</time></trkpt><trkpt lat="40.007836317310584" lon="8.524561452140148"><ele>9.0</ele><time>2026-05-02T10:29:04Z</time></trkpt><trkpt lat="40.0078873208693" lon="8.524329189669896"><ele>9.0</ele><time>2026-05-02T10:29:05Z</time></trkpt><trkpt lat="40.0079421145987" lon="8.524090704419498"><ele>9.0</ele><time>2026-05-02T10:29:06Z</time></trkpt><trkpt lat="40.00798872714671" lon="8.52385045626874"><ele>9.0</ele><time>2026-05-02T10:29:07Z</time></trkpt><trkpt lat="40.00803671931174" lon="8.523608227641427"><ele>8.666666666666666</ele><time>2026-05-02T10:29:08Z</time></trkpt><trkpt lat="40.00808247653452" lon="8.52336696308494"><ele>8.333333333333332</ele><time>2026-05-02T10:29:09Z</time></trkpt><trkpt lat="40.008126626076844" lon="8.523126534329931"><ele>8.0</ele><time>2026-05-02T10:29:10Z</time></trkpt><trkpt lat="40.00817043964819" lon="8.522884046956566"><ele>7.666666666666666</ele><time>2026-05-02T10:29:11Z</time></trkpt><trkpt lat="40.00823354517444" lon="8.522645453494377"><ele>7.333333333333334</ele><time>2026-05-02T10:29:12Z</time></trkpt><trkpt lat="40.00826208504945" lon="8.522396522851706"><ele>7.0</ele><time>2026-05-02T10:29:12.999Z</time></trkpt><trkpt lat="40.00830600033711" lon="8.522149847478657"><ele>7.666666666666667</ele><time>2026-05-02T10:29:13.999Z</time></trkpt><trkpt lat="40.00834658687412" lon="8.521908783023367"><ele>8.333333333333334</ele><time>2026-05-02T10:29:14.999Z</time></trkpt><trkpt lat="40.00838821238048" lon="8.52167501696717"><ele>9.0</ele><time>2026-05-02T10:29:15.999Z</time></trkpt><trkpt lat="40.00843130282688" lon="8.521444234134313"><ele>8.333333333333334</ele><time>2026-05-02T10:29:16.999Z</time></trkpt><trkpt lat="40.008476781198134" lon="8.521211286951806"><ele>7.666666666666667</ele><time>2026-05-02T10:29:17.999Z</time></trkpt><trkpt lat="40.008526608481695" lon="8.520972985475735"><ele>7.0</ele><time>2026-05-02T10:29:18.999Z</time></trkpt><trkpt lat="40.008578660737726" lon="8.520730875429097"><ele>7.0</ele><time>2026-05-02T10:29:19.999Z</time></trkpt><trkpt lat="40.00862972870678" lon="8.520488000501533"><ele>7.0</ele><time>2026-05-02T10:29:20.999Z</time></trkpt><trkpt lat="40.008676699932195" lon="8.520244937649853"><ele>7.0</ele><time>2026-05-02T10:29:21.999Z</time></trkpt><trkpt lat="40.00872374642499" lon="8.519998342829028"><ele>7.0</ele><time>2026-05-02T10:29:22.999Z</time></trkpt><trkpt lat="40.00877005501185" lon="8.519751131126506"><ele>7.0</ele><time>2026-05-02T10:29:23.999Z</time></trkpt><trkpt lat="40.00881524517831" lon="8.519501232579021"><ele>7.0</ele><time>2026-05-02T10:29:24.999Z</time></trkpt><trkpt lat="40.00885659125304" lon="8.519269982760212"><ele>7.0</ele><time>2026-05-02T10:29:25.999Z</time></trkpt><trkpt lat="40.008897773775" lon="8.519046065639106"><ele>7.0</ele><time>2026-05-02T10:29:26.999Z</time></trkpt><trkpt lat="40.00894378217653" lon="8.51881268697694"><ele>7.0</ele><time>2026-05-02T10:29:27.999Z</time></trkpt><trkpt lat="40.008988121191265" lon="8.51858235209155"><ele>7.0</ele><time>2026-05-02T10:29:28.999Z</time></trkpt><trkpt lat="40.00902802574947" lon="8.518359599398702"><ele>7.0</ele><time>2026-05-02T10:29:29.999Z</time></trkpt><trkpt lat="40.00907119091841" lon="8.518138361003444"><ele>7.0</ele><time>2026-05-02T10:29:30.999Z</time></trkpt><trkpt lat="40.009115419563386" lon="8.517918284224994"><ele>7.333333333333334</ele><time>2026-05-02T10:29:31.999Z</time></trkpt><trkpt lat="40.00915533796848" lon="8.517696854487436"><ele>7.666666666666666</ele><time>2026-05-02T10:29:32.999Z</time></trkpt><trkpt lat="40.00919437330035" lon="8.517474411716277"><ele>8.0</ele><time>2026-05-02T10:29:33.999Z</time></trkpt><trkpt lat="40.00923644608586" lon="8.517247621235759"><ele>8.333333333333332</ele><time>2026-05-02T10:29:34.999Z</time></trkpt><trkpt lat="40.009278667179174" lon="8.517016652845907"><ele>8.666666666666666</ele><time>2026-05-02T10:29:35.999Z</time></trkpt><trkpt lat="40.00931894252451" lon="8.516782193379921"><ele>9.0</ele><time>2026-05-02T10:29:36.999Z</time></trkpt><trkpt lat="40.00936277223598" lon="8.516544127270782"><ele>9.0</ele><time>2026-05-02T10:29:37.999Z</time></trkpt><trkpt lat="40.009409833884135" lon="8.516303632126432"><ele>9.0</ele><time>2026-05-02T10:29:38.999Z</time></trkpt><trkpt lat="40.009458026718555" lon="8.51606163748503"><ele>9.0</ele><time>2026-05-02T10:29:39.999Z</time></trkpt><trkpt lat="40.0095036929473" lon="8.51582306900034"><ele>8.666666666666666</ele><time>2026-05-02T10:29:40.999Z</time></trkpt><trkpt lat="40.00954497495422" lon="8.515587547428819"><ele>8.333333333333332</ele><time>2026-05-02T10:29:41.999Z</time></trkpt><trkpt lat="40.00958533513027" lon="8.51536461899476"><ele>8.0</ele><time>2026-05-02T10:29:42.999Z</time></trkpt><trkpt lat="40.00962290579556" lon="8.515161629447498"><ele>7.75</ele><time>2026-05-02T10:29:43.999Z</time></trkpt><trkpt lat="40.00966069225478" lon="8.514975193697373"><ele>7.5</ele><time>2026-05-02T10:29:44.999Z</time></trkpt><trkpt lat="40.00969385127651" lon="8.514792484886804"><ele>7.25</ele><time>2026-05-02T10:29:45.999Z</time></trkpt><trkpt lat="40.00971932608058" lon="8.514618896400139"><ele>7.0</ele><time>2026-05-02T10:29:46.999Z</time></trkpt><trkpt lat="40.009739175348265" lon="8.514454952840577"><ele>6.75</ele><time>2026-05-02T10:29:47.999Z</time></trkpt><trkpt lat="40.009753801661226" lon="8.514290377639716"><ele>6.5</ele><time>2026-05-02T10:29:48.999Z</time></trkpt><trkpt lat="40.00976283320231" lon="8.514111119247461"><ele>6.25</ele><time>2026-05-02T10:29:49.999Z</time></trkpt><trkpt lat="40.00976710493939" lon="8.513917766027172"><ele>6.0</ele><time>2026-05-02T10:29:50.999Z</time></trkpt><trkpt lat="40.00976788361849" lon="8.513709307999939"><ele>6.666666666666666</ele><time>2026-05-02T10:29:51.999Z</time></trkpt><trkpt lat="40.00976392477487" lon="8.513494998438116"><ele>7.333333333333333</ele><time>2026-05-02T10:29:52.999Z</time></trkpt><trkpt lat="40.00975802539286" lon="8.513275435236581"><ele>8.0</ele><time>2026-05-02T10:29:53.999Z</time></trkpt><trkpt lat="40.00975363560964" lon="8.513060549971195"><ele>8.333333333333332</ele><time>2026-05-02T10:29:54.999Z</time></trkpt><trkpt lat="40.00975043936121" lon="8.512854690437994"><ele>8.666666666666666</ele><time>2026-05-02T10:29:55.999Z</time></trkpt><trkpt lat="40.0097466124499" lon="8.51263195771407"><ele>9.0</ele><time>2026-05-02T10:29:56.999Z</time></trkpt><trkpt lat="40.00974620758594" lon="8.512407106491738"><ele>9.0</ele><time>2026-05-02T10:29:57.999Z</time></trkpt><trkpt lat="40.00974504033064" lon="8.512179781441626"><ele>9.0</ele><time>2026-05-02T10:29:58.999Z</time></trkpt><trkpt lat="40.009744486621294" lon="8.51194569984246"><ele>9.0</ele><time>2026-05-02T10:29:59.999Z</time></trkpt><trkpt lat="40.00974272135017" lon="8.511704026467198"><ele>9.0</ele><time>2026-05-02T10:30:00.999Z</time></trkpt><trkpt lat="40.00974084019915" lon="8.511459021531438"><ele>9.0</ele><time>2026-05-02T10:30:01.999Z</time></trkpt><trkpt lat="40.00974010126281" lon="8.511214910094754"><ele>9.0</ele><time>2026-05-02T10:30:02.999Z</time></trkpt><trkpt lat="40.00973971138471" lon="8.51097247031587"><ele>9.0</ele><time>2026-05-02T10:30:03.999Z</time></trkpt><trkpt lat="40.00974010291818" lon="8.510746239451747"><ele>9.0</ele><time>2026-05-02T10:30:04.999Z</time></trkpt><trkpt lat="40.009736648336364" lon="8.510542996332408"><ele>9.0</ele><time>2026-05-02T10:30:05.999Z</time></trkpt><trkpt lat="40.00973103747789" lon="8.510357979013715"><ele>8.666666666666666</ele><time>2026-05-02T10:30:06.999Z</time></trkpt><trkpt lat="40.00973206924938" lon="8.51014218346121"><ele>8.333333333333332</ele><time>2026-05-02T10:30:07.999Z</time></trkpt><trkpt lat="40.00973049942367" lon="8.509934478764793"><ele>8.0</ele><time>2026-05-02T10:30:08.999Z</time></trkpt><trkpt lat="40.009730994998506" lon="8.50973000567899"><ele>6.666666666666666</ele><time>2026-05-02T10:30:09.999Z</time></trkpt><trkpt lat="40.00972823421404" lon="8.509521925695932"><ele>5.333333333333333</ele><time>2026-05-02T10:30:10.999Z</time></trkpt><trkpt lat="40.009724855367814" lon="8.509302499114808"><ele>4.0</ele><time>2026-05-02T10:30:11.999Z</time></trkpt><trkpt lat="40.00972319268" lon="8.509068430273341"><ele>4.0</ele><time>2026-05-02T10:30:12.999Z</time></trkpt><trkpt lat="40.00972278143045" lon="8.508829879694742"><ele>4.0</ele><time>2026-05-02T10:30:13.999Z</time></trkpt><trkpt lat="40.009720917421234" lon="8.508594123936891"><ele>4.0</ele><time>2026-05-02T10:30:14.999Z</time></trkpt><trkpt lat="40.009717932998456" lon="8.508358561296795"><ele>4.666666666666666</ele><time>2026-05-02T10:30:15.999Z</time></trkpt><trkpt lat="40.009714867441" lon="8.508127473489592"><ele>5.333333333333333</ele><time>2026-05-02T10:30:16.999Z</time></trkpt><trkpt lat="40.00971396153582" lon="8.50790999171144"><ele>6.0</ele><time>2026-05-02T10:30:17.998Z</time></trkpt><trkpt lat="40.009711900524614" lon="8.507686658770659"><ele>6.0</ele><time>2026-05-02T10:30:18.998Z</time></trkpt><trkpt lat="40.009708918017175" lon="8.507459003187089"><ele>6.0</ele><time>2026-05-02T10:30:19.998Z</time></trkpt><trkpt lat="40.009709897443294" lon="8.507219736867775"><ele>6.0</ele><time>2026-05-02T10:30:20.998Z</time></trkpt><trkpt lat="40.009706128974805" lon="8.50698303221341"><ele>6.0</ele><time>2026-05-02T10:30:21.998Z</time></trkpt><trkpt lat="40.009703249156566" lon="8.506744557337262"><ele>6.0</ele><time>2026-05-02T10:30:22.998Z</time></trkpt><trkpt lat="40.00969988365371" lon="8.506508763834727"><ele>6.0</ele><time>2026-05-02T10:30:24Z</time></trkpt><trkpt lat="40.0096980038153" lon="8.506275356758401"><ele>6.333333333333334</ele><time>2026-05-02T10:30:25Z</time></trkpt><trkpt lat="40.00969519326063" lon="8.506050992317254"><ele>6.666666666666667</ele><time>2026-05-02T10:30:26Z</time></trkpt><trkpt lat="40.009693122666775" lon="8.505847483159336"><ele>7.0</ele><time>2026-05-02T10:30:27Z</time></trkpt><trkpt lat="40.00969376336248" lon="8.505658145509745"><ele>7.0</ele><time>2026-05-02T10:30:28Z</time></trkpt><trkpt lat="40.00968964385157" lon="8.505500975450694"><ele>6.999999999999999</ele><time>2026-05-02T10:30:29Z</time></trkpt><trkpt lat="40.00968231674195" lon="8.505384335455545"><ele>6.999999999999999</ele><time>2026-05-02T10:30:30Z</time></trkpt><trkpt lat="40.009672583379555" lon="8.505271541835862"><ele>7.0</ele><time>2026-05-02T10:30:32Z</time></trkpt><trkpt lat="40.00968448645861" lon="8.505101548188435"><ele>7.0</ele><time>2026-05-02T10:30:34Z</time></trkpt><trkpt lat="40.00970142505408" lon="8.504964429954557"><ele>7.25</ele><time>2026-05-02T10:30:35Z</time></trkpt><trkpt lat="40.00971789146071" lon="8.50481417846918"><ele>7.5</ele><time>2026-05-02T10:30:36Z</time></trkpt><trkpt lat="40.00973838135455" lon="8.504656266463456"><ele>7.75</ele><time>2026-05-02T10:30:37Z</time></trkpt><trkpt lat="40.00975179637481" lon="8.504489685505584"><ele>8.0</ele><time>2026-05-02T10:30:38Z</time></trkpt><trkpt lat="40.009764051572134" lon="8.504314578894345"><ele>7.5</ele><time>2026-05-02T10:30:39Z</time></trkpt><trkpt lat="40.00977985691706" lon="8.50413550577453"><ele>7.0</ele><time>2026-05-02T10:30:40Z</time></trkpt><trkpt lat="40.00979762117123" lon="8.50394744285942"><ele>6.5</ele><time>2026-05-02T10:30:41Z</time></trkpt><trkpt lat="40.00981575612207" lon="8.503755627574627"><ele>6.0</ele><time>2026-05-02T10:30:42Z</time></trkpt><trkpt lat="40.00983882848192" lon="8.503563058162989"><ele>6.0</ele><time>2026-05-02T10:30:43Z</time></trkpt><trkpt lat="40.00985839745596" lon="8.503372244748443"><ele>6.0</ele><time>2026-05-02T10:30:44Z</time></trkpt><trkpt lat="40.00987184057326" lon="8.503197436576006"><ele>6.0</ele><time>2026-05-02T10:30:45Z</time></trkpt><trkpt lat="40.00988575320632" lon="8.503027032430522"><ele>6.0</ele><time>2026-05-02T10:30:46Z</time></trkpt><trkpt lat="40.00989927796024" lon="8.50286097167939"><ele>5.75</ele><time>2026-05-02T10:30:47Z</time></trkpt><trkpt lat="40.009905182853366" lon="8.502698742449015"><ele>5.5</ele><time>2026-05-02T10:30:48Z</time></trkpt><trkpt lat="40.00990259415828" lon="8.502534409061637"><ele>5.25</ele><time>2026-05-02T10:30:49Z</time></trkpt><trkpt lat="40.00989164146279" lon="8.502359865496848"><ele>5.0</ele><time>2026-05-02T10:30:50Z</time></trkpt><trkpt lat="40.00987719423573" lon="8.50218391906294"><ele>5.0</ele><time>2026-05-02T10:30:51Z</time></trkpt><trkpt lat="40.00986393054918" lon="8.502032563088946"><ele>5.0</ele><time>2026-05-02T10:30:52Z</time></trkpt><trkpt lat="40.0098526375537" lon="8.501893653988834"><ele>5.0</ele><time>2026-05-02T10:30:53Z</time></trkpt><trkpt lat="40.00984498014987" lon="8.501763941864807"><ele>5.0</ele><time>2026-05-02T10:30:54Z</time></trkpt><trkpt lat="40.00983814940617" lon="8.501655758040515"><ele>5.0</ele><time>2026-05-02T10:30:55Z</time></trkpt><trkpt lat="40.009809718482785" lon="8.501520226642217"><ele>5.0</ele><time>2026-05-02T10:30:57Z</time></trkpt><trkpt lat="40.009798529467744" lon="8.501394273575293"><ele>5.0</ele><time>2026-05-02T10:30:59Z</time></trkpt><trkpt lat="40.00979566923861" lon="8.501242872275977"><ele>5.0</ele><time>2026-05-02T10:31:01Z</time></trkpt><trkpt lat="40.00976657451116" lon="8.501089340335287"><ele>5.0</ele><time>2026-05-02T10:31:03Z</time></trkpt><trkpt lat="40.0097704821366" lon="8.501006681998053"><ele>5.0</ele><time>2026-05-02T10:31:04Z</time></trkpt><trkpt lat="40.00976315989866" lon="8.50088286432678"><ele>5.2</ele><time>2026-05-02T10:31:07Z</time></trkpt><trkpt lat="40.00974303917942" lon="8.500702334311665"><ele>5.4</ele><time>2026-05-02T10:31:09Z</time></trkpt><trkpt lat="40.009728925916185" lon="8.50057938749083"><ele>5.6</ele><time>2026-05-02T10:31:10Z</time></trkpt><trkpt lat="40.00971450712944" lon="8.500448190916059"><ele>5.8</ele><time>2026-05-02T10:31:11Z</time></trkpt><trkpt lat="40.009700956036276" lon="8.500323139182475"><ele>6.0</ele><time>2026-05-02T10:31:12Z</time></trkpt><trkpt lat="40.00968829802498" lon="8.500210129233635"><ele>6.0</ele><time>2026-05-02T10:31:13Z</time></trkpt><trkpt lat="40.00972780206357" lon="8.500132530594591"><ele>6.0</ele><time>2026-05-02T10:31:16Z</time></trkpt><trkpt lat="40.00980537277772" lon="8.500136502749726"><ele>6.0</ele><time>2026-05-02T10:31:17.999Z</time></trkpt><trkpt lat="40.00988614688731" lon="8.500097679262039"><ele>6.0</ele><time>2026-05-02T10:31:20.999Z</time></trkpt><trkpt lat="40.009863133283034" lon="8.499933231358664"><ele>6.0</ele><time>2026-05-02T10:31:21.999Z</time></trkpt><trkpt lat="40.009856315107804" lon="8.499798188972782"><ele>6.0</ele><time>2026-05-02T10:31:22.999Z</time></trkpt><trkpt lat="40.00984692833303" lon="8.499644814669864"><ele>6.0</ele><time>2026-05-02T10:31:23.999Z</time></trkpt><trkpt lat="40.00983980468413" lon="8.499470737035042"><ele>6.0</ele><time>2026-05-02T10:31:24.999Z</time></trkpt><trkpt lat="40.009833448202976" lon="8.49928406246222"><ele>6.0</ele><time>2026-05-02T10:31:25.999Z</time></trkpt><trkpt lat="40.00982683266902" lon="8.499089780311122"><ele>6.0</ele><time>2026-05-02T10:31:26.999Z</time></trkpt><trkpt lat="40.00982481737878" lon="8.498890192613178"><ele>6.0</ele><time>2026-05-02T10:31:27.999Z</time></trkpt><trkpt lat="40.0098356709546" lon="8.498681764886543"><ele>6.0</ele><time>2026-05-02T10:31:28.999Z</time></trkpt><trkpt lat="40.00986213649617" lon="8.498476184321873"><ele>6.0</ele><time>2026-05-02T10:31:29.999Z</time></trkpt><trkpt lat="40.00988621683432" lon="8.498263354649534"><ele>6.0</ele><time>2026-05-02T10:31:30.999Z</time></trkpt><trkpt lat="40.00992874976836" lon="8.498062473404632"><ele>6.0</ele><time>2026-05-02T10:31:31.999Z</time></trkpt><trkpt lat="40.00996224314762" lon="8.497866066774865"><ele>6.0</ele><time>2026-05-02T10:31:32.999Z</time></trkpt><trkpt lat="40.00997294271625" lon="8.497682677721897"><ele>6.0</ele><time>2026-05-02T10:31:33.999Z</time></trkpt><trkpt lat="40.00995752762628" lon="8.497512762793185"><ele>6.0</ele><time>2026-05-02T10:31:34.999Z</time></trkpt><trkpt lat="40.00991149230579" lon="8.497355279068145"><ele>6.0</ele><time>2026-05-02T10:31:35.999Z</time></trkpt><trkpt lat="40.009843047199084" lon="8.497208079355072"><ele>6.25</ele><time>2026-05-02T10:31:36.999Z</time></trkpt><trkpt lat="40.009814957070006" lon="8.497051814845527"><ele>6.5</ele><time>2026-05-02T10:31:37.999Z</time></trkpt><trkpt lat="40.00980975148424" lon="8.496889972319245"><ele>6.75</ele><time>2026-05-02T10:31:38.999Z</time></trkpt><trkpt lat="40.00982790231915" lon="8.49671288409416"><ele>7.0</ele><time>2026-05-02T10:31:39.999Z</time></trkpt><trkpt lat="40.009850647213526" lon="8.496516050232191"><ele>7.0</ele><time>2026-05-02T10:31:40.999Z</time></trkpt><trkpt lat="40.00987175347198" lon="8.496305066486764"><ele>7.0</ele><time>2026-05-02T10:31:41.999Z</time></trkpt><trkpt lat="40.0098982261606" lon="8.496093837507201"><ele>7.0</ele><time>2026-05-02T10:31:42.999Z</time></trkpt><trkpt lat="40.009930100330294" lon="8.495881940176579"><ele>7.0</ele><time>2026-05-02T10:31:43.999Z</time></trkpt><trkpt lat="40.00996439828381" lon="8.495666269565952"><ele>7.0</ele><time>2026-05-02T10:31:44.999Z</time></trkpt><trkpt lat="40.00999971665087" lon="8.495444182112804"><ele>7.0</ele><time>2026-05-02T10:31:45.999Z</time></trkpt><trkpt lat="40.010034639979764" lon="8.495222374770059"><ele>7.333333333333334</ele><time>2026-05-02T10:31:46.999Z</time></trkpt><trkpt lat="40.01006352137834" lon="8.494988091513651"><ele>7.666666666666666</ele><time>2026-05-02T10:31:47.999Z</time></trkpt><trkpt lat="40.01008696811889" lon="8.494751091543447"><ele>8.0</ele><time>2026-05-02T10:31:48.999Z</time></trkpt><trkpt lat="40.010110967153345" lon="8.494511332367866"><ele>8.0</ele><time>2026-05-02T10:31:49.999Z</time></trkpt><trkpt lat="40.010136447695416" lon="8.494272425677467"><ele>8.0</ele><time>2026-05-02T10:31:50.999Z</time></trkpt><trkpt lat="40.01015670771049" lon="8.494033174768921"><ele>8.0</ele><time>2026-05-02T10:31:51.999Z</time></trkpt><trkpt lat="40.010163761420436" lon="8.493793702052473"><ele>8.333333333333332</ele><time>2026-05-02T10:31:52.999Z</time></trkpt><trkpt lat="40.01015717462633" lon="8.493559455640794"><ele>8.666666666666666</ele><time>2026-05-02T10:31:53.999Z</time></trkpt><trkpt lat="40.01014187105429" lon="8.493320761269624"><ele>9.0</ele><time>2026-05-02T10:31:54.999Z</time></trkpt><trkpt lat="40.010126694403425" lon="8.49308303352369"><ele>8.666666666666666</ele><time>2026-05-02T10:31:55.999Z</time></trkpt><trkpt lat="40.01010846264828" lon="8.49284337851417"><ele>8.333333333333332</ele><time>2026-05-02T10:31:56.999Z</time></trkpt><trkpt lat="40.01008795613346" lon="8.492601081108788"><ele>8.0</ele><time>2026-05-02T10:31:57.999Z</time></trkpt><trkpt lat="40.01007548614563" lon="8.492360843313108"><ele>8.0</ele><time>2026-05-02T10:31:58.999Z</time></trkpt><trkpt lat="40.01005979365255" lon="8.492118508754967"><ele>8.0</ele><time>2026-05-02T10:31:59.999Z</time></trkpt><trkpt lat="40.01004313629642" lon="8.49187579404915"><ele>8.0</ele><time>2026-05-02T10:32:00.999Z</time></trkpt><trkpt lat="40.01002804459441" lon="8.49164237098898"><ele>7.666666666666666</ele><time>2026-05-02T10:32:01.999Z</time></trkpt><trkpt lat="40.010027611079856" lon="8.49142842393596"><ele>7.333333333333334</ele><time>2026-05-02T10:32:02.999Z</time></trkpt><trkpt lat="40.010057525132154" lon="8.491237434752575"><ele>7.0</ele><time>2026-05-02T10:32:03.999Z</time></trkpt><trkpt lat="40.01010590913799" lon="8.491043554564088"><ele>7.0</ele><time>2026-05-02T10:32:04.999Z</time></trkpt><trkpt lat="40.010158356356335" lon="8.490835134539628"><ele>7.0</ele><time>2026-05-02T10:32:05.999Z</time></trkpt><trkpt lat="40.010252851571565" lon="8.490650625641418"><ele>7.0</ele><time>2026-05-02T10:32:06.999Z</time></trkpt><trkpt lat="40.0103442752796" lon="8.49045870605786"><ele>6.666666666666667</ele><time>2026-05-02T10:32:07.999Z</time></trkpt><trkpt lat="40.010431736178056" lon="8.490261391830973"><ele>6.333333333333334</ele><time>2026-05-02T10:32:08.999Z</time></trkpt><trkpt lat="40.010544866225565" lon="8.490080816983294"><ele>6.0</ele><time>2026-05-02T10:32:09.999Z</time></trkpt><trkpt lat="40.01066521774908" lon="8.489901036598482"><ele>6.0</ele><time>2026-05-02T10:32:10.999Z</time></trkpt><trkpt lat="40.01078490567422" lon="8.48972469115975"><ele>6.0</ele><time>2026-05-02T10:32:11.999Z</time></trkpt><trkpt lat="40.01091012085927" lon="8.48959975697711"><ele>6.0</ele><time>2026-05-02T10:32:12.999Z</time></trkpt><trkpt lat="40.0110133179914" lon="8.489465076303455"><ele>6.333333333333334</ele><time>2026-05-02T10:32:13.999Z</time></trkpt><trkpt lat="40.01114255472698" lon="8.48933677589228"><ele>6.666666666666667</ele><time>2026-05-02T10:32:14.999Z</time></trkpt><trkpt lat="40.01127429965488" lon="8.489186637587618"><ele>7.0</ele><time>2026-05-02T10:32:15.999Z</time></trkpt><trkpt lat="40.01140965505475" lon="8.489042514586101"><ele>7.0</ele><time>2026-05-02T10:32:16.999Z</time></trkpt><trkpt lat="40.01154407601708" lon="8.488905657461382"><ele>7.0</ele><time>2026-05-02T10:32:17.999Z</time></trkpt><trkpt lat="40.01168449110125" lon="8.48877353720663"><ele>7.0</ele><time>2026-05-02T10:32:18.999Z</time></trkpt><trkpt lat="40.01182212054069" lon="8.488642967587698"><ele>7.0</ele><time>2026-05-02T10:32:19.999Z</time></trkpt><trkpt lat="40.011971597929005" lon="8.48853823093726"><ele>7.0</ele><time>2026-05-02T10:32:20.999Z</time></trkpt><trkpt lat="40.01210407906668" lon="8.488425961263612"><ele>7.0</ele><time>2026-05-02T10:32:21.999Z</time></trkpt><trkpt lat="40.01222969969878" lon="8.488320121753775"><ele>7.0</ele><time>2026-05-02T10:32:22.999Z</time></trkpt><trkpt lat="40.01234356051758" lon="8.488202266055046"><ele>7.0</ele><time>2026-05-02T10:32:23.998Z</time></trkpt><trkpt lat="40.012453459738374" lon="8.488110079974494"><ele>7.0</ele><time>2026-05-02T10:32:24.998Z</time></trkpt><trkpt lat="40.01256318748666" lon="8.487992997597008"><ele>7.0</ele><time>2026-05-02T10:32:25.998Z</time></trkpt><trkpt lat="40.012670733034795" lon="8.487869294913688"><ele>7.0</ele><time>2026-05-02T10:32:26.998Z</time></trkpt><trkpt lat="40.01277332944865" lon="8.487728903728058"><ele>7.0</ele><time>2026-05-02T10:32:27.998Z</time></trkpt><trkpt lat="40.012870748468416" lon="8.487555410723735"><ele>7.0</ele><time>2026-05-02T10:32:28.998Z</time></trkpt><trkpt lat="40.01296532265278" lon="8.487373474290482"><ele>7.0</ele><time>2026-05-02T10:32:30Z</time></trkpt><trkpt lat="40.013050417834116" lon="8.487180986783505"><ele>7.0</ele><time>2026-05-02T10:32:31Z</time></trkpt><trkpt lat="40.0131628644368" lon="8.487019204762328"><ele>7.0</ele><time>2026-05-02T10:32:32Z</time></trkpt><trkpt lat="40.01326686253432" lon="8.486841082922957"><ele>6.666666666666667</ele><time>2026-05-02T10:32:33Z</time></trkpt><trkpt lat="40.01335260753244" lon="8.486655476839854"><ele>6.333333333333334</ele><time>2026-05-02T10:32:34Z</time></trkpt><trkpt lat="40.0134147635359" lon="8.486471632413735"><ele>6.0</ele><time>2026-05-02T10:32:35Z</time></trkpt><trkpt lat="40.01348117565692" lon="8.486308383124761"><ele>6.333333333333334</ele><time>2026-05-02T10:32:36Z</time></trkpt><trkpt lat="40.0135355537946" lon="8.486132952508052"><ele>6.666666666666667</ele><time>2026-05-02T10:32:37Z</time></trkpt><trkpt lat="40.01359474140709" lon="8.485941008229602"><ele>7.0</ele><time>2026-05-02T10:32:38Z</time></trkpt><trkpt lat="40.013612318447095" lon="8.485735148810907"><ele>7.0</ele><time>2026-05-02T10:32:39Z</time></trkpt><trkpt lat="40.01363200245945" lon="8.485525446105752"><ele>7.0</ele><time>2026-05-02T10:32:40Z</time></trkpt><trkpt lat="40.01364880769227" lon="8.485301337258184"><ele>7.0</ele><time>2026-05-02T10:32:41Z</time></trkpt><trkpt lat="40.01364583623852" lon="8.485066426935374"><ele>7.0</ele><time>2026-05-02T10:32:42Z</time></trkpt><trkpt lat="40.01360986981498" lon="8.484852096472599"><ele>7.0</ele><time>2026-05-02T10:32:43Z</time></trkpt><trkpt lat="40.013612835194394" lon="8.484671690511066"><ele>7.0</ele><time>2026-05-02T10:32:44Z</time></trkpt><trkpt lat="40.01359531502258" lon="8.484473049500822"><ele>7.0</ele><time>2026-05-02T10:32:45Z</time></trkpt><trkpt lat="40.01357462145102" lon="8.484255312134142"><ele>7.0</ele><time>2026-05-02T10:32:46Z</time></trkpt><trkpt lat="40.01357153123696" lon="8.484032559021013"><ele>7.0</ele><time>2026-05-02T10:32:47Z</time></trkpt><trkpt lat="40.01356021624657" lon="8.48380806720763"><ele>7.333333333333334</ele><time>2026-05-02T10:32:48Z</time></trkpt><trkpt lat="40.01355272457809" lon="8.483590771232866"><ele>7.666666666666666</ele><time>2026-05-02T10:32:49Z</time></trkpt><trkpt lat="40.01354671092757" lon="8.483373552484155"><ele>8.0</ele><time>2026-05-02T10:32:50Z</time></trkpt><trkpt lat="40.013539367165826" lon="8.483169252818739"><ele>8.0</ele><time>2026-05-02T10:32:51Z</time></trkpt><trkpt lat="40.01351851342301" lon="8.482963669647129"><ele>8.0</ele><time>2026-05-02T10:32:52Z</time></trkpt><trkpt lat="40.013504939841226" lon="8.482751851641696"><ele>8.0</ele><time>2026-05-02T10:32:53Z</time></trkpt><trkpt lat="40.013508457231964" lon="8.48255306291385"><ele>8.333333333333332</ele><time>2026-05-02T10:32:54Z</time></trkpt><trkpt lat="40.013498599111614" lon="8.482359215626635"><ele>8.666666666666666</ele><time>2026-05-02T10:32:55Z</time></trkpt><trkpt lat="40.01348629939008" lon="8.482151442565613"><ele>9.0</ele><time>2026-05-02T10:32:56Z</time></trkpt><trkpt lat="40.01347196152043" lon="8.48192431301238"><ele>9.0</ele><time>2026-05-02T10:32:57Z</time></trkpt><trkpt lat="40.013457073023964" lon="8.481691727651297"><ele>9.0</ele><time>2026-05-02T10:32:58Z</time></trkpt><trkpt lat="40.01344146839474" lon="8.48146742111958"><ele>9.0</ele><time>2026-05-02T10:32:59Z</time></trkpt><trkpt lat="40.0134281823012" lon="8.481267633480963"><ele>8.75</ele><time>2026-05-02T10:33:00Z</time></trkpt><trkpt lat="40.01341694894559" lon="8.481097642368164"><ele>8.5</ele><time>2026-05-02T10:33:01Z</time></trkpt><trkpt lat="40.0134115543811" lon="8.480915183759336"><ele>8.25</ele><time>2026-05-02T10:33:02Z</time></trkpt><trkpt lat="40.01340547326972" lon="8.480715193828805"><ele>8.0</ele><time>2026-05-02T10:33:03Z</time></trkpt><trkpt lat="40.01339661253643" lon="8.4805037337631"><ele>8.0</ele><time>2026-05-02T10:33:04Z</time></trkpt><trkpt lat="40.01338422460627" lon="8.480298164297865"><ele>8.0</ele><time>2026-05-02T10:33:05Z</time></trkpt><trkpt lat="40.013371166552965" lon="8.48008892882163"><ele>8.0</ele><time>2026-05-02T10:33:06Z</time></trkpt><trkpt lat="40.0133449139627" lon="8.479876666524316"><ele>8.0</ele><time>2026-05-02T10:33:07Z</time></trkpt><trkpt lat="40.013338140345724" lon="8.479652774266196"><ele>8.0</ele><time>2026-05-02T10:33:08Z</time></trkpt><trkpt lat="40.01334495313977" lon="8.479423442171365"><ele>8.0</ele><time>2026-05-02T10:33:09Z</time></trkpt><trkpt lat="40.01333658427012" lon="8.479190947580207"><ele>7.666666666666666</ele><time>2026-05-02T10:33:10Z</time></trkpt><trkpt lat="40.013328135043274" lon="8.478956220543928"><ele>7.333333333333334</ele><time>2026-05-02T10:33:11Z</time></trkpt><trkpt lat="40.01331972327957" lon="8.478722533932132"><ele>7.0</ele><time>2026-05-02T10:33:12Z</time></trkpt><trkpt lat="40.01331105215834" lon="8.478488831594392"><ele>7.666666666666667</ele><time>2026-05-02T10:33:13Z</time></trkpt><trkpt lat="40.013300668148915" lon="8.478254181313645"><ele>8.333333333333334</ele><time>2026-05-02T10:33:14Z</time></trkpt><trkpt lat="40.01329024849158" lon="8.478018725111793"><ele>9.0</ele><time>2026-05-02T10:33:15Z</time></trkpt><trkpt lat="40.01326451664691" lon="8.477780904399973"><ele>9.333333333333334</ele><time>2026-05-02T10:33:16Z</time></trkpt><trkpt lat="40.01325375787033" lon="8.4775378425588"><ele>9.666666666666668</ele><time>2026-05-02T10:33:17Z</time></trkpt><trkpt lat="40.01324731255196" lon="8.477296013774088"><ele>10.0</ele><time>2026-05-02T10:33:18Z</time></trkpt><trkpt lat="40.01323452333697" lon="8.477073738143314"><ele>10.0</ele><time>2026-05-02T10:33:19Z</time></trkpt><trkpt lat="40.01322579442842" lon="8.476855733732567"><ele>10.0</ele><time>2026-05-02T10:33:20Z</time></trkpt><trkpt lat="40.013232412138905" lon="8.476620650786732"><ele>10.0</ele><time>2026-05-02T10:33:20.999Z</time></trkpt><trkpt lat="40.01322263305585" lon="8.476389394194193"><ele>10.0</ele><time>2026-05-02T10:33:21.999Z</time></trkpt><trkpt lat="40.01321306147574" lon="8.476163044831326"><ele>10.0</ele><time>2026-05-02T10:33:22.999Z</time></trkpt><trkpt lat="40.013202899578246" lon="8.47594297198366"><ele>10.0</ele><time>2026-05-02T10:33:23.999Z</time></trkpt><trkpt lat="40.01319284161911" lon="8.475734907848464"><ele>10.0</ele><time>2026-05-02T10:33:24.999Z</time></trkpt><trkpt lat="40.01318390061429" lon="8.47554994946617"><ele>10.0</ele><time>2026-05-02T10:33:25.999Z</time></trkpt><trkpt lat="40.013175380087176" lon="8.475395276335687"><ele>10.0</ele><time>2026-05-02T10:33:26.999Z</time></trkpt><trkpt lat="40.013148513270274" lon="8.475282887002962"><ele>10.0</ele><time>2026-05-02T10:33:27.999Z</time></trkpt><trkpt lat="40.013190145241246" lon="8.47516409364264"><ele>10.166666666666668</ele><time>2026-05-02T10:33:29.999Z</time></trkpt><trkpt lat="40.013260705790906" lon="8.475158595240057"><ele>10.333333333333334</ele><time>2026-05-02T10:33:30.999Z</time></trkpt><trkpt lat="40.01331959689521" lon="8.47511490123237"><ele>10.5</ele><time>2026-05-02T10:33:31.999Z</time></trkpt><trkpt lat="40.01337901873332" lon="8.47505336532459"><ele>10.666666666666666</ele><time>2026-05-02T10:33:32.999Z</time></trkpt><trkpt lat="40.01343752099312" lon="8.475013692736194"><ele>10.833333333333332</ele><time>2026-05-02T10:33:33.999Z</time></trkpt><trkpt lat="40.01348705143571" lon="8.474952104798524"><ele>11.0</ele><time>2026-05-02T10:33:34.999Z</time></trkpt><trkpt lat="40.01347745001521" lon="8.474820850723091"><ele>10.5</ele><time>2026-05-02T10:33:35.999Z</time></trkpt><trkpt lat="40.013464690136935" lon="8.474687456894513"><ele>10.0</ele><time>2026-05-02T10:33:36.999Z</time></trkpt><trkpt lat="40.01344868322601" lon="8.474539325985315"><ele>9.5</ele><time>2026-05-02T10:33:37.999Z</time></trkpt><trkpt lat="40.01343505227843" lon="8.474378981588716"><ele>9.0</ele><time>2026-05-02T10:33:38.999Z</time></trkpt><trkpt lat="40.01342573479797" lon="8.474216522086545"><ele>9.0</ele><time>2026-05-02T10:33:39.999Z</time></trkpt><trkpt lat="40.01341379470739" lon="8.474042391430524"><ele>9.0</ele><time>2026-05-02T10:33:40.999Z</time></trkpt><trkpt lat="40.01340271154136" lon="8.473856905313276"><ele>9.0</ele><time>2026-05-02T10:33:41.999Z</time></trkpt><trkpt lat="40.01341516142165" lon="8.47367492666601"><ele>9.0</ele><time>2026-05-02T10:33:42.999Z</time></trkpt><trkpt lat="40.013415914885904" lon="8.473508552546303"><ele>9.0</ele><time>2026-05-02T10:33:43.999Z</time></trkpt><trkpt lat="40.013468231970926" lon="8.473352706811497"><ele>9.0</ele><time>2026-05-02T10:33:44.999Z</time></trkpt><trkpt lat="40.01357513953962" lon="8.473218755843016"><ele>9.0</ele><time>2026-05-02T10:33:45.999Z</time></trkpt><trkpt lat="40.013660828343404" lon="8.47305021960084"><ele>9.0</ele><time>2026-05-02T10:33:46.999Z</time></trkpt><trkpt lat="40.01374942613981" lon="8.472872726699906"><ele>9.0</ele><time>2026-05-02T10:33:47.999Z</time></trkpt><trkpt lat="40.01384179678763" lon="8.47269865528581"><ele>9.0</ele><time>2026-05-02T10:33:48.999Z</time></trkpt><trkpt lat="40.01394252352917" lon="8.47254270594027"><ele>9.0</ele><time>2026-05-02T10:33:49.999Z</time></trkpt><trkpt lat="40.014069751719575" lon="8.47242854405833"><ele>9.0</ele><time>2026-05-02T10:33:50.999Z</time></trkpt><trkpt lat="40.01418519760165" lon="8.472362291395493"><ele>9.0</ele><time>2026-05-02T10:33:51.999Z</time></trkpt><trkpt lat="40.014305182522016" lon="8.472315274654273"><ele>9.0</ele><time>2026-05-02T10:33:52.999Z</time></trkpt><trkpt lat="40.014447778732155" lon="8.472352606296106"><ele>9.0</ele><time>2026-05-02T10:33:53.999Z</time></trkpt><trkpt lat="40.01458880413084" lon="8.472371465682814"><ele>9.0</ele><time>2026-05-02T10:33:54.999Z</time></trkpt><trkpt lat="40.01468425370026" lon="8.47241107316534"><ele>9.0</ele><time>2026-05-02T10:33:55.999Z</time></trkpt><trkpt lat="40.01477263625616" lon="8.472428973193152"><ele>9.0</ele><time>2026-05-02T10:33:56.999Z</time></trkpt><trkpt lat="40.014842455535735" lon="8.472447910974156"><ele>9.0</ele><time>2026-05-02T10:33:57.999Z</time></trkpt><trkpt lat="40.01476077910944" lon="8.472394335766555"><ele>9.0</ele><time>2026-05-02T10:34:03.999Z</time></trkpt><trkpt lat="40.01466118448124" lon="8.472389577260763"><ele>9.0</ele><time>2026-05-02T10:34:04.999Z</time></trkpt><trkpt lat="40.014562267922706" lon="8.472365632195574"><ele>9.0</ele><time>2026-05-02T10:34:05.999Z</time></trkpt><trkpt lat="40.01445407765489" lon="8.472336426451097"><ele>9.0</ele><time>2026-05-02T10:34:06.999Z</time></trkpt><trkpt lat="40.01434317718449" lon="8.47231910152184"><ele>9.0</ele><time>2026-05-02T10:34:07.999Z</time></trkpt><trkpt lat="40.01424578023736" lon="8.472311863305471"><ele>9.0</ele><time>2026-05-02T10:34:08.999Z</time></trkpt><trkpt lat="40.0141639417375" lon="8.472291284713222"><ele>9.0</ele><time>2026-05-02T10:34:09.999Z</time></trkpt><trkpt lat="40.014085117724356" lon="8.472230614381056"><ele>9.0</ele><time>2026-05-02T10:34:10.999Z</time></trkpt><trkpt lat="40.01400390531729" lon="8.472115485494564"><ele>9.0</ele><time>2026-05-02T10:34:11.999Z</time></trkpt><trkpt lat="40.01392175267017" lon="8.4719839453661"><ele>9.0</ele><time>2026-05-02T10:34:12.999Z</time></trkpt><trkpt lat="40.01382202284505" lon="8.471882940788023"><ele>9.0</ele><time>2026-05-02T10:34:13.999Z</time></trkpt><trkpt lat="40.013714170814275" lon="8.471773038864686"><ele>9.0</ele><time>2026-05-02T10:34:14.999Z</time></trkpt><trkpt lat="40.01359266297365" lon="8.471670596341548"><ele>9.0</ele><time>2026-05-02T10:34:15.999Z</time></trkpt><trkpt lat="40.013474064079034" lon="8.471555191546749"><ele>9.0</ele><time>2026-05-02T10:34:16.999Z</time></trkpt><trkpt lat="40.01335204803453" lon="8.471440434049592"><ele>9.0</ele><time>2026-05-02T10:34:17.999Z</time></trkpt><trkpt lat="40.01321781700793" lon="8.471342616140861"><ele>9.0</ele><time>2026-05-02T10:34:18.999Z</time></trkpt><trkpt lat="40.013072106633665" lon="8.471244739333194"><ele>9.0</ele><time>2026-05-02T10:34:19.999Z</time></trkpt><trkpt lat="40.012926241812224" lon="8.47115236845486"><ele>9.0</ele><time>2026-05-02T10:34:20.999Z</time></trkpt><trkpt lat="40.01277919940159" lon="8.471061403649381"><ele>9.0</ele><time>2026-05-02T10:34:21.999Z</time></trkpt><trkpt lat="40.012635869355144" lon="8.470976778621234"><ele>9.0</ele><time>2026-05-02T10:34:22.999Z</time></trkpt><trkpt lat="40.012498152907035" lon="8.470931368214442"><ele>9.166666666666666</ele><time>2026-05-02T10:34:23.999Z</time></trkpt><trkpt lat="40.01239621742358" lon="8.470869093248151"><ele>9.333333333333334</ele><time>2026-05-02T10:34:24.999Z</time></trkpt><trkpt lat="40.0123167485161" lon="8.470797610873287"><ele>9.5</ele><time>2026-05-02T10:34:25.999Z</time></trkpt><trkpt lat="40.01227330777946" lon="8.470732118739855"><ele>9.666666666666668</ele><time>2026-05-02T10:34:26.998Z</time></trkpt><trkpt lat="40.0122832278352" lon="8.47063403887744"><ele>9.833333333333334</ele><time>2026-05-02T10:34:27.998Z</time></trkpt><trkpt lat="40.01228272862806" lon="8.470544689778592"><ele>10.0</ele><time>2026-05-02T10:34:28.998Z</time></trkpt><trkpt lat="40.01227922380357" lon="8.470433072864616"><ele>10.25</ele><time>2026-05-02T10:34:29.998Z</time></trkpt><trkpt lat="40.0122802108278" lon="8.470324826680818"><ele>10.5</ele><time>2026-05-02T10:34:30.998Z</time></trkpt><trkpt lat="40.0122838551681" lon="8.470182767778923"><ele>10.75</ele><time>2026-05-02T10:34:31.998Z</time></trkpt><trkpt lat="40.01229397872806" lon="8.470017877025704"><ele>11.0</ele><time>2026-05-02T10:34:32.998Z</time></trkpt><trkpt lat="40.01230825640869" lon="8.469837133309587"><ele>11.0</ele><time>2026-05-02T10:34:33.998Z</time></trkpt><trkpt lat="40.012323794171515" lon="8.469653084703738"><ele>11.0</ele><time>2026-05-02T10:34:34.998Z</time></trkpt><trkpt lat="40.01234202463925" lon="8.46946179541786"><ele>11.0</ele><time>2026-05-02T10:34:36Z</time></trkpt><trkpt lat="40.01236103683926" lon="8.469270939148766"><ele>11.0</ele><time>2026-05-02T10:34:37Z</time></trkpt><trkpt lat="40.012383176897984" lon="8.46907914582007"><ele>11.0</ele><time>2026-05-02T10:34:38Z</time></trkpt><trkpt lat="40.012403866714635" lon="8.468882528530841"><ele>11.0</ele><time>2026-05-02T10:34:39Z</time></trkpt><trkpt lat="40.012450087244616" lon="8.468701004635541"><ele>11.0</ele><time>2026-05-02T10:34:40Z</time></trkpt><trkpt lat="40.01246907670873" lon="8.468547690271441"><ele>11.0</ele><time>2026-05-02T10:34:41Z</time></trkpt><trkpt lat="40.012449118783735" lon="8.468418070602745"><ele>11.0</ele><time>2026-05-02T10:34:42Z</time></trkpt><trkpt lat="40.01239690351789" lon="8.468281950255898"><ele>11.0</ele><time>2026-05-02T10:34:43Z</time></trkpt><trkpt lat="40.012337001393625" lon="8.468120331315019"><ele>11.0</ele><time>2026-05-02T10:34:44Z</time></trkpt><trkpt lat="40.01233313677284" lon="8.467929843575522"><ele>11.0</ele><time>2026-05-02T10:34:45Z</time></trkpt><trkpt lat="40.012324056819836" lon="8.467729789320396"><ele>10.666666666666666</ele><time>2026-05-02T10:34:46Z</time></trkpt><trkpt lat="40.012308871399526" lon="8.467514328508353"><ele>10.333333333333334</ele><time>2026-05-02T10:34:47Z</time></trkpt><trkpt lat="40.01228787677908" lon="8.467303287317698"><ele>10.0</ele><time>2026-05-02T10:34:48Z</time></trkpt><trkpt lat="40.01224172357372" lon="8.46709416314814"><ele>9.666666666666668</ele><time>2026-05-02T10:34:49Z</time></trkpt><trkpt lat="40.01222380777926" lon="8.466891188286533"><ele>9.333333333333334</ele><time>2026-05-02T10:34:50Z</time></trkpt><trkpt lat="40.01217453797961" lon="8.466700529592968"><ele>9.0</ele><time>2026-05-02T10:34:51Z</time></trkpt><trkpt lat="40.01214016696858" lon="8.46650507969328"><ele>9.0</ele><time>2026-05-02T10:34:52Z</time></trkpt><trkpt lat="40.012098008434855" lon="8.466311268782693"><ele>9.0</ele><time>2026-05-02T10:34:53Z</time></trkpt><trkpt lat="40.01207268029577" lon="8.466113968389203"><ele>9.0</ele><time>2026-05-02T10:34:54Z</time></trkpt><trkpt lat="40.01203578036818" lon="8.465926139271957"><ele>9.25</ele><time>2026-05-02T10:34:55Z</time></trkpt><trkpt lat="40.0120210771932" lon="8.465735784922376"><ele>9.5</ele><time>2026-05-02T10:34:56Z</time></trkpt><trkpt lat="40.012009971848514" lon="8.465565197015147"><ele>9.75</ele><time>2026-05-02T10:34:57Z</time></trkpt><trkpt lat="40.01199238744701" lon="8.465414590684533"><ele>10.0</ele><time>2026-05-02T10:34:58Z</time></trkpt><trkpt lat="40.01197750825097" lon="8.465255651127736"><ele>10.0</ele><time>2026-05-02T10:34:59Z</time></trkpt><trkpt lat="40.011968966491665" lon="8.465074969398323"><ele>10.0</ele><time>2026-05-02T10:35:00Z</time></trkpt><trkpt lat="40.01198244404628" lon="8.46488041547284"><ele>10.0</ele><time>2026-05-02T10:35:01Z</time></trkpt><trkpt lat="40.01200420616534" lon="8.46467408277685"><ele>10.0</ele><time>2026-05-02T10:35:02Z</time></trkpt><trkpt lat="40.01201140497167" lon="8.464472409247959"><ele>10.0</ele><time>2026-05-02T10:35:03Z</time></trkpt><trkpt lat="40.0120014878631" lon="8.464269455430374"><ele>10.0</ele><time>2026-05-02T10:35:04Z</time></trkpt><trkpt lat="40.01202374143637" lon="8.464083707734003"><ele>10.0</ele><time>2026-05-02T10:35:05Z</time></trkpt><trkpt lat="40.01201635663843" lon="8.463918076701788"><ele>10.0</ele><time>2026-05-02T10:35:06Z</time></trkpt><trkpt lat="40.01201398132835" lon="8.463772470720384"><ele>10.0</ele><time>2026-05-02T10:35:07Z</time></trkpt><trkpt lat="40.01196838063014" lon="8.46363516506583"><ele>10.0</ele><time>2026-05-02T10:35:08Z</time></trkpt><trkpt lat="40.01190772873292" lon="8.46348595015895"><ele>10.0</ele><time>2026-05-02T10:35:09Z</time></trkpt><trkpt lat="40.011864328884585" lon="8.463305109399116"><ele>10.0</ele><time>2026-05-02T10:35:10Z</time></trkpt><trkpt lat="40.01178674974538" lon="8.46313400553222"><ele>10.0</ele><time>2026-05-02T10:35:11Z</time></trkpt><trkpt lat="40.01173000663771" lon="8.462973373846738"><ele>10.0</ele><time>2026-05-02T10:35:12Z</time></trkpt><trkpt lat="40.011707735594086" lon="8.46284428557782"><ele>10.0</ele><time>2026-05-02T10:35:13Z</time></trkpt><trkpt lat="40.01169129282049" lon="8.462762988800025"><ele>10.0</ele><time>2026-05-02T10:35:14Z</time></trkpt><trkpt lat="40.011684003066456" lon="8.462644581693688"><ele>10.0</ele><time>2026-05-02T10:35:16Z</time></trkpt><trkpt lat="40.011733411147645" lon="8.462544545202283"><ele>9.25</ele><time>2026-05-02T10:35:17Z</time></trkpt><trkpt lat="40.01175988117337" lon="8.462407064791607"><ele>8.5</ele><time>2026-05-02T10:35:18Z</time></trkpt><trkpt lat="40.01181197042036" lon="8.462266194010331"><ele>7.75</ele><time>2026-05-02T10:35:19Z</time></trkpt><trkpt lat="40.011864351621206" lon="8.462120394391494"><ele>7.0</ele><time>2026-05-02T10:35:20Z</time></trkpt><trkpt lat="40.011906004493184" lon="8.461968767995353"><ele>7.0</ele><time>2026-05-02T10:35:21Z</time></trkpt><trkpt lat="40.011913704733544" lon="8.461814587632597"><ele>7.0</ele><time>2026-05-02T10:35:22Z</time></trkpt><trkpt lat="40.011903622763136" lon="8.461650928088247"><ele>7.0</ele><time>2026-05-02T10:35:23Z</time></trkpt><trkpt lat="40.01191964322665" lon="8.461475384571491"><ele>7.0</ele><time>2026-05-02T10:35:24Z</time></trkpt><trkpt lat="40.01190795998075" lon="8.461292241654915"><ele>7.25</ele><time>2026-05-02T10:35:25Z</time></trkpt><trkpt lat="40.01186602707988" lon="8.46111048285143"><ele>7.5</ele><time>2026-05-02T10:35:25.999Z</time></trkpt><trkpt lat="40.01184356784901" lon="8.460925564225082"><ele>7.75</ele><time>2026-05-02T10:35:26.999Z</time></trkpt><trkpt lat="40.01181670996314" lon="8.460741289158632"><ele>8.0</ele><time>2026-05-02T10:35:27.999Z</time></trkpt><trkpt lat="40.011788504300256" lon="8.460556556996213"><ele>8.0</ele><time>2026-05-02T10:35:28.999Z</time></trkpt><trkpt lat="40.01174194089315" lon="8.460367481958306"><ele>8.0</ele><time>2026-05-02T10:35:29.999Z</time></trkpt><trkpt lat="40.01168464410039" lon="8.460205127577785"><ele>8.0</ele><time>2026-05-02T10:35:30.999Z</time></trkpt><trkpt lat="40.01161224891312" lon="8.460034954923202"><ele>8.0</ele><time>2026-05-02T10:35:31.999Z</time></trkpt><trkpt lat="40.011532724693375" lon="8.459860881981719"><ele>8.5</ele><time>2026-05-02T10:35:32.999Z</time></trkpt><trkpt lat="40.01146345890097" lon="8.459683352472988"><ele>9.0</ele><time>2026-05-02T10:35:33.999Z</time></trkpt><trkpt lat="40.011421464262995" lon="8.459517442422811"><ele>9.5</ele><time>2026-05-02T10:35:34.999Z</time></trkpt><trkpt lat="40.01139034110175" lon="8.459359083664966"><ele>10.0</ele><time>2026-05-02T10:35:35.999Z</time></trkpt><trkpt lat="40.01138059423442" lon="8.459215452567763"><ele>10.0</ele><time>2026-05-02T10:35:36.999Z</time></trkpt><trkpt lat="40.01137215153686" lon="8.459085895793445"><ele>10.0</ele><time>2026-05-02T10:35:37.999Z</time></trkpt><trkpt lat="40.0113609394576" lon="8.458973476157002"><ele>10.0</ele><time>2026-05-02T10:35:38.999Z</time></trkpt><trkpt lat="40.01130177243432" lon="8.458870180774042"><ele>10.0</ele><time>2026-05-02T10:35:39.999Z</time></trkpt><trkpt lat="40.01123613565056" lon="8.458752961436083"><ele>10.0</ele><time>2026-05-02T10:35:40.999Z</time></trkpt><trkpt lat="40.011165505859374" lon="8.458610373459377"><ele>10.0</ele><time>2026-05-02T10:35:41.999Z</time></trkpt><trkpt lat="40.01111903234256" lon="8.458433016752533"><ele>10.0</ele><time>2026-05-02T10:35:42.999Z</time></trkpt><trkpt lat="40.011074081617735" lon="8.458249461894676"><ele>10.0</ele><time>2026-05-02T10:35:43.999Z</time></trkpt><trkpt lat="40.01103517584624" lon="8.458050802033597"><ele>10.0</ele><time>2026-05-02T10:35:44.999Z</time></trkpt><trkpt lat="40.01099934954162" lon="8.457857324684566"><ele>10.0</ele><time>2026-05-02T10:35:45.999Z</time></trkpt><trkpt lat="40.010949655070014" lon="8.457691383672016"><ele>10.0</ele><time>2026-05-02T10:35:46.999Z</time></trkpt><trkpt lat="40.01090148505478" lon="8.45753023625452"><ele>10.0</ele><time>2026-05-02T10:35:47.999Z</time></trkpt><trkpt lat="40.01082811465511" lon="8.457374803258805"><ele>10.0</ele><time>2026-05-02T10:35:48.999Z</time></trkpt><trkpt lat="40.01073143700409" lon="8.457219728229646"><ele>9.666666666666668</ele><time>2026-05-02T10:35:49.999Z</time></trkpt><trkpt lat="40.0106424143095" lon="8.457044746525671"><ele>9.333333333333334</ele><time>2026-05-02T10:35:50.999Z</time></trkpt><trkpt lat="40.01054286265635" lon="8.456875154562631"><ele>9.0</ele><time>2026-05-02T10:35:51.999Z</time></trkpt><trkpt lat="40.01044166712428" lon="8.456709263242765"><ele>9.0</ele><time>2026-05-02T10:35:52.999Z</time></trkpt><trkpt lat="40.01030794300384" lon="8.456562971708145"><ele>9.0</ele><time>2026-05-02T10:35:53.999Z</time></trkpt><trkpt lat="40.01020404738394" lon="8.456399135260124"><ele>9.0</ele><time>2026-05-02T10:35:54.999Z</time></trkpt><trkpt lat="40.010105065334486" lon="8.456259374332129"><ele>9.0</ele><time>2026-05-02T10:35:55.999Z</time></trkpt><trkpt lat="40.010018617977536" lon="8.456145017330124"><ele>9.0</ele><time>2026-05-02T10:35:56.999Z</time></trkpt><trkpt lat="40.00995930318945" lon="8.456052886266553"><ele>9.0</ele><time>2026-05-02T10:35:57.999Z</time></trkpt><trkpt lat="40.00990024097693" lon="8.455948885393985"><ele>9.0</ele><time>2026-05-02T10:35:58.999Z</time></trkpt><trkpt lat="40.00983053687308" lon="8.455814317325846"><ele>9.0</ele><time>2026-05-02T10:35:59.999Z</time></trkpt><trkpt lat="40.00978214170502" lon="8.455684570821926"><ele>8.75</ele><time>2026-05-02T10:36:00.999Z</time></trkpt><trkpt lat="40.00974960832304" lon="8.455570973950234"><ele>8.5</ele><time>2026-05-02T10:36:01.999Z</time></trkpt><trkpt lat="40.00973048550962" lon="8.45542788431547"><ele>8.25</ele><time>2026-05-02T10:36:02.999Z</time></trkpt><trkpt lat="40.00968602221548" lon="8.455254354584897"><ele>8.0</ele><time>2026-05-02T10:36:03.999Z</time></trkpt><trkpt lat="40.009631447892495" lon="8.455070378528047"><ele>8.0</ele><time>2026-05-02T10:36:04.999Z</time></trkpt><trkpt lat="40.009559449141534" lon="8.454876175163198"><ele>8.0</ele><time>2026-05-02T10:36:05.999Z</time></trkpt><trkpt lat="40.009488430150945" lon="8.454680049086628"><ele>8.0</ele><time>2026-05-02T10:36:06.999Z</time></trkpt><trkpt lat="40.00942242672789" lon="8.45446913771949"><ele>8.0</ele><time>2026-05-02T10:36:07.999Z</time></trkpt><trkpt lat="40.00934389964381" lon="8.454265866464548"><ele>8.0</ele><time>2026-05-02T10:36:08.999Z</time></trkpt><trkpt lat="40.00927648209313" lon="8.45407414957606"><ele>8.0</ele><time>2026-05-02T10:36:09.999Z</time></trkpt><trkpt lat="40.00923002955527" lon="8.453913736352357"><ele>7.75</ele><time>2026-05-02T10:36:10.999Z</time></trkpt><trkpt lat="40.00921797404545" lon="8.453739659935337"><ele>7.5</ele><time>2026-05-02T10:36:11.999Z</time></trkpt><trkpt lat="40.009192907451414" lon="8.453551357591277"><ele>7.25</ele><time>2026-05-02T10:36:12.999Z</time></trkpt><trkpt lat="40.00914073028739" lon="8.453379033366241"><ele>7.0</ele><time>2026-05-02T10:36:13.999Z</time></trkpt><trkpt lat="40.0090752243208" lon="8.453223395532062"><ele>7.0</ele><time>2026-05-02T10:36:14.999Z</time></trkpt><trkpt lat="40.00900433971244" lon="8.453056635903357"><ele>7.0</ele><time>2026-05-02T10:36:15.999Z</time></trkpt><trkpt lat="40.00893258411366" lon="8.452900893971297"><ele>7.0</ele><time>2026-05-02T10:36:16.999Z</time></trkpt><trkpt lat="40.00885449484694" lon="8.452776012975704"><ele>7.0</ele><time>2026-05-02T10:36:17.999Z</time></trkpt><trkpt lat="40.00874074753368" lon="8.452678211279062"><ele>7.0</ele><time>2026-05-02T10:36:18.999Z</time></trkpt><trkpt lat="40.00861357088823" lon="8.452587503547516"><ele>7.0</ele><time>2026-05-02T10:36:19.999Z</time></trkpt><trkpt lat="40.008468236994034" lon="8.45249325863671"><ele>7.0</ele><time>2026-05-02T10:36:20.999Z</time></trkpt><trkpt lat="40.008305110040325" lon="8.452414848394612"><ele>7.0</ele><time>2026-05-02T10:36:21.999Z</time></trkpt><trkpt lat="40.00815332260102" lon="8.452339215616606"><ele>7.0</ele><time>2026-05-02T10:36:22.999Z</time></trkpt><trkpt lat="40.00801772714256" lon="8.452253176746694"><ele>7.0</ele><time>2026-05-02T10:36:23.999Z</time></trkpt><trkpt lat="40.00788165675474" lon="8.452149138789776"><ele>6.666666666666667</ele><time>2026-05-02T10:36:24.999Z</time></trkpt><trkpt lat="40.00774217289931" lon="8.452022968536582"><ele>6.333333333333334</ele><time>2026-05-02T10:36:25.999Z</time></trkpt><trkpt lat="40.007600158451154" lon="8.451896015480502"><ele>6.0</ele><time>2026-05-02T10:36:26.999Z</time></trkpt><trkpt lat="40.0074695847032" lon="8.451782829853881"><ele>6.5</ele><time>2026-05-02T10:36:27.999Z</time></trkpt><trkpt lat="40.007357427622885" lon="8.451688678962938"><ele>7.0</ele><time>2026-05-02T10:36:28.999Z</time></trkpt><trkpt lat="40.00726437361786" lon="8.45160574960801"><ele>7.5</ele><time>2026-05-02T10:36:29.999Z</time></trkpt><trkpt lat="40.00719739687366" lon="8.451507554287204"><ele>8.0</ele><time>2026-05-02T10:36:30.999Z</time></trkpt><trkpt lat="40.007105465836375" lon="8.45137424115373"><ele>7.5</ele><time>2026-05-02T10:36:31.998Z</time></trkpt><trkpt lat="40.00700494200979" lon="8.45123480734967"><ele>7.0</ele><time>2026-05-02T10:36:32.998Z</time></trkpt><trkpt lat="40.00690509511145" lon="8.451088268850162"><ele>6.5</ele><time>2026-05-02T10:36:33.998Z</time></trkpt><trkpt lat="40.006803721637255" lon="8.450942358668037"><ele>6.0</ele><time>2026-05-02T10:36:34.998Z</time></trkpt><trkpt lat="40.00669433826198" lon="8.450804873974405"><ele>6.333333333333334</ele><time>2026-05-02T10:36:35.998Z</time></trkpt><trkpt lat="40.006571304148494" lon="8.450669071026507"><ele>6.666666666666667</ele><time>2026-05-02T10:36:36.998Z</time></trkpt><trkpt lat="40.00643131619568" lon="8.450544912948061"><ele>7.0</ele><time>2026-05-02T10:36:37.998Z</time></trkpt><trkpt lat="40.00629316926401" lon="8.450418590664318"><ele>6.333333333333334</ele><time>2026-05-02T10:36:38.998Z</time></trkpt><trkpt lat="40.006151644280585" lon="8.45028314651074"><ele>5.666666666666667</ele><time>2026-05-02T10:36:39.998Z</time></trkpt><trkpt lat="40.006011204054616" lon="8.450139723586169"><ele>5.0</ele><time>2026-05-02T10:36:40.998Z</time></trkpt><trkpt lat="40.005872657631144" lon="8.449992226892856"><ele>5.0</ele><time>2026-05-02T10:36:42Z</time></trkpt><trkpt lat="40.00573636767888" lon="8.44984448327888"><ele>5.0</ele><time>2026-05-02T10:36:43Z</time></trkpt><trkpt lat="40.005595656621516" lon="8.44969194951123"><ele>5.0</ele><time>2026-05-02T10:36:44Z</time></trkpt><trkpt lat="40.00545523552736" lon="8.449539730070368"><ele>5.0</ele><time>2026-05-02T10:36:45Z</time></trkpt><trkpt lat="40.00528452502751" lon="8.449432544659258"><ele>5.0</ele><time>2026-05-02T10:36:46Z</time></trkpt><trkpt lat="40.005139152968766" lon="8.449283075019586"><ele>5.0</ele><time>2026-05-02T10:36:47Z</time></trkpt><trkpt lat="40.00499222453334" lon="8.44913765988792"><ele>5.666666666666667</ele><time>2026-05-02T10:36:48Z</time></trkpt><trkpt lat="40.00484521363088" lon="8.448992605065833"><ele>6.333333333333334</ele><time>2026-05-02T10:36:49Z</time></trkpt><trkpt lat="40.00470945479227" lon="8.44886752128271"><ele>7.0</ele><time>2026-05-02T10:36:50Z</time></trkpt><trkpt lat="40.00458062974045" lon="8.44875542923043"><ele>7.0</ele><time>2026-05-02T10:36:51Z</time></trkpt><trkpt lat="40.00445597359123" lon="8.448662202433814"><ele>7.0</ele><time>2026-05-02T10:36:52Z</time></trkpt><trkpt lat="40.00432674819176" lon="8.44859092615456"><ele>7.0</ele><time>2026-05-02T10:36:53Z</time></trkpt><trkpt lat="40.00418471597442" lon="8.448541203716962"><ele>7.0</ele><time>2026-05-02T10:36:54Z</time></trkpt><trkpt lat="40.00403949611012" lon="8.448499065690537"><ele>6.75</ele><time>2026-05-02T10:36:55Z</time></trkpt><trkpt lat="40.00389770871998" lon="8.448442977794718"><ele>6.5</ele><time>2026-05-02T10:36:56Z</time></trkpt><trkpt lat="40.00376519514138" lon="8.448364955950046"><ele>6.25</ele><time>2026-05-02T10:36:57Z</time></trkpt><trkpt lat="40.003636359153646" lon="8.448256190384086"><ele>6.0</ele><time>2026-05-02T10:36:58Z</time></trkpt><trkpt lat="40.00350514177775" lon="8.448149283625392"><ele>6.0</ele><time>2026-05-02T10:36:59Z</time></trkpt><trkpt lat="40.00336157877752" lon="8.44805731820324"><ele>6.0</ele><time>2026-05-02T10:37:00Z</time></trkpt><trkpt lat="40.003200206970256" lon="8.447987417553145"><ele>6.0</ele><time>2026-05-02T10:37:01Z</time></trkpt><trkpt lat="40.00303704399081" lon="8.447929525565263"><ele>6.0</ele><time>2026-05-02T10:37:02Z</time></trkpt><trkpt lat="40.00286446285547" lon="8.447877500895295"><ele>6.0</ele><time>2026-05-02T10:37:03Z</time></trkpt><trkpt lat="40.00269076551034" lon="8.447827550305195"><ele>6.0</ele><time>2026-05-02T10:37:04Z</time></trkpt><trkpt lat="40.00251958575344" lon="8.44776836752462"><ele>6.333333333333334</ele><time>2026-05-02T10:37:05Z</time></trkpt><trkpt lat="40.00235490115033" lon="8.447694977845334"><ele>6.666666666666667</ele><time>2026-05-02T10:37:06Z</time></trkpt><trkpt lat="40.00219048762" lon="8.447622591689273"><ele>7.0</ele><time>2026-05-02T10:37:07Z</time></trkpt><trkpt lat="40.00202483217537" lon="8.44755007308736"><ele>7.0</ele><time>2026-05-02T10:37:08Z</time></trkpt><trkpt lat="40.00186347684281" lon="8.44746887726976"><ele>7.0</ele><time>2026-05-02T10:37:09Z</time></trkpt><trkpt lat="40.00170254462411" lon="8.447378307251284"><ele>7.0</ele><time>2026-05-02T10:37:10Z</time></trkpt><trkpt lat="40.00154060606317" lon="8.447283473980537"><ele>7.0</ele><time>2026-05-02T10:37:11Z</time></trkpt><trkpt lat="40.001375283809246" lon="8.44718868789882"><ele>7.0</ele><time>2026-05-02T10:37:12Z</time></trkpt><trkpt lat="40.00121231998878" lon="8.447101486436283"><ele>7.0</ele><time>2026-05-02T10:37:13Z</time></trkpt><trkpt lat="40.00104799315718" lon="8.447017805920856"><ele>7.0</ele><time>2026-05-02T10:37:14Z</time></trkpt><trkpt lat="40.00088730461185" lon="8.446950949346736"><ele>7.0</ele><time>2026-05-02T10:37:15Z</time></trkpt><trkpt lat="40.00072373606906" lon="8.446903915253596"><ele>7.0</ele><time>2026-05-02T10:37:16Z</time></trkpt><trkpt lat="40.00057252915689" lon="8.446877003535594"><ele>6.666666666666667</ele><time>2026-05-02T10:37:17Z</time></trkpt><trkpt lat="40.00042048786688" lon="8.446866471955524"><ele>6.333333333333334</ele><time>2026-05-02T10:37:18Z</time></trkpt><trkpt lat="40.000271772830224" lon="8.446871161705547"><ele>6.0</ele><time>2026-05-02T10:37:19Z</time></trkpt><trkpt lat="40.00012345404017" lon="8.446857774148858"><ele>6.0</ele><time>2026-05-02T10:37:20Z</time></trkpt><trkpt lat="39.999976908764054" lon="8.446808527789793"><ele>6.0</ele><time>2026-05-02T10:37:21Z</time></trkpt><trkpt lat="39.99983035302569" lon="8.446745104842531"><ele>6.0</ele><time>2026-05-02T10:37:22Z</time></trkpt><trkpt lat="39.99967676775886" lon="8.446673048484621"><ele>6.0</ele><time>2026-05-02T10:37:23Z</time></trkpt><trkpt lat="39.999527285633235" lon="8.446583703155245"><ele>6.0</ele><time>2026-05-02T10:37:24Z</time></trkpt><trkpt lat="39.99937729081729" lon="8.44647726140726"><ele>6.0</ele><time>2026-05-02T10:37:25Z</time></trkpt><trkpt lat="39.99922760412828" lon="8.446363463866147"><ele>5.666666666666667</ele><time>2026-05-02T10:37:26Z</time></trkpt><trkpt lat="39.999075603294806" lon="8.446246975015752"><ele>5.333333333333334</ele><time>2026-05-02T10:37:27Z</time></trkpt><trkpt lat="39.99891633935038" lon="8.44614004406542"><ele>5.0</ele><time>2026-05-02T10:37:28Z</time></trkpt><trkpt lat="39.99875186482689" lon="8.446039592840947"><ele>5.0</ele><time>2026-05-02T10:37:29Z</time></trkpt><trkpt lat="39.998598827218466" lon="8.445936514867745"><ele>5.0</ele><time>2026-05-02T10:37:29.999Z</time></trkpt><trkpt lat="39.99846101740204" lon="8.44583813868916"><ele>5.0</ele><time>2026-05-02T10:37:30.999Z</time></trkpt><trkpt lat="39.998334522756544" lon="8.445737671074962"><ele>5.0</ele><time>2026-05-02T10:37:31.999Z</time></trkpt><trkpt lat="39.99822678965915" lon="8.4456475428787"><ele>5.0</ele><time>2026-05-02T10:37:32.999Z</time></trkpt><trkpt lat="39.99813250774415" lon="8.44557561192345"><ele>5.0</ele><time>2026-05-02T10:37:33.999Z</time></trkpt><trkpt lat="39.99802005283039" lon="8.445533358494878"><ele>5.0</ele><time>2026-05-02T10:37:34.999Z</time></trkpt><trkpt lat="39.99789997586356" lon="8.445506680216454"><ele>5.0</ele><time>2026-05-02T10:37:35.999Z</time></trkpt><trkpt lat="39.997778351136745" lon="8.445490700084893"><ele>5.0</ele><time>2026-05-02T10:37:36.999Z</time></trkpt><trkpt lat="39.997641814806656" lon="8.44547108778626"><ele>5.0</ele><time>2026-05-02T10:37:37.999Z</time></trkpt><trkpt lat="39.9974921924794" lon="8.445439652586419"><ele>5.0</ele><time>2026-05-02T10:37:38.999Z</time></trkpt><trkpt lat="39.99733178622273" lon="8.445425506374125"><ele>4.333333333333334</ele><time>2026-05-02T10:37:39.999Z</time></trkpt><trkpt lat="39.99715995988344" lon="8.445418632004122"><ele>3.666666666666667</ele><time>2026-05-02T10:37:40.999Z</time></trkpt><trkpt lat="39.99698691129004" lon="8.445406558320105"><ele>3.0</ele><time>2026-05-02T10:37:41.999Z</time></trkpt><trkpt lat="39.996803773146254" lon="8.445391756378406"><ele>3.25</ele><time>2026-05-02T10:37:42.999Z</time></trkpt><trkpt lat="39.99664445992878" lon="8.445377126028426"><ele>3.5</ele><time>2026-05-02T10:37:43.999Z</time></trkpt><trkpt lat="39.996529861203506" lon="8.445369627763188"><ele>3.75</ele><time>2026-05-02T10:37:44.999Z</time></trkpt><trkpt lat="39.99643472032671" lon="8.445355463247497"><ele>4.0</ele><time>2026-05-02T10:37:45.999Z</time></trkpt><trkpt lat="39.9963382019436" lon="8.445353845035042"><ele>4.0</ele><time>2026-05-02T10:37:46.999Z</time></trkpt><trkpt lat="39.99623015355161" lon="8.445373700652963"><ele>4.0</ele><time>2026-05-02T10:37:47.999Z</time></trkpt><trkpt lat="39.996112588126145" lon="8.445397467572352"><ele>4.0</ele><time>2026-05-02T10:37:48.999Z</time></trkpt><trkpt lat="39.995990869053244" lon="8.445405216614713"><ele>4.0</ele><time>2026-05-02T10:37:49.999Z</time></trkpt><trkpt lat="39.995871790892" lon="8.445404566628365"><ele>4.0</ele><time>2026-05-02T10:37:50.999Z</time></trkpt><trkpt lat="39.995762359872664" lon="8.445412444598531"><ele>4.0</ele><time>2026-05-02T10:37:51.999Z</time></trkpt><trkpt lat="39.99565723453458" lon="8.445386335688399"><ele>4.0</ele><time>2026-05-02T10:37:52.999Z</time></trkpt><trkpt lat="39.995559969837586" lon="8.445333724982191"><ele>4.0</ele><time>2026-05-02T10:37:53.999Z</time></trkpt><trkpt lat="39.995462327262445" lon="8.445274546765756"><ele>4.0</ele><time>2026-05-02T10:37:54.999Z</time></trkpt><trkpt lat="39.99536433410689" lon="8.445231354018683"><ele>4.0</ele><time>2026-05-02T10:37:55.999Z</time></trkpt><trkpt lat="39.99527857849927" lon="8.445183756654666"><ele>4.0</ele><time>2026-05-02T10:37:56.999Z</time></trkpt><trkpt lat="39.99519352846861" lon="8.445140085616028"><ele>4.0</ele><time>2026-05-02T10:37:57.999Z</time></trkpt><trkpt lat="39.99508897525523" lon="8.445113015396098"><ele>4.0</ele><time>2026-05-02T10:37:58.999Z</time></trkpt><trkpt lat="39.99497372448112" lon="8.445077002596058"><ele>4.0</ele><time>2026-05-02T10:37:59.999Z</time></trkpt><trkpt lat="39.994859041110345" lon="8.445010536811008"><ele>4.5</ele><time>2026-05-02T10:38:00.999Z</time></trkpt><trkpt lat="39.99472858424552" lon="8.444966696174609"><ele>5.0</ele><time>2026-05-02T10:38:01.999Z</time></trkpt><trkpt lat="39.99458017841875" lon="8.444926771643742"><ele>5.5</ele><time>2026-05-02T10:38:02.999Z</time></trkpt><trkpt lat="39.994424604513924" lon="8.444881518125163"><ele>6.0</ele><time>2026-05-02T10:38:03.999Z</time></trkpt><trkpt lat="39.994275298505" lon="8.444834699026906"><ele>5.5</ele><time>2026-05-02T10:38:04.999Z</time></trkpt><trkpt lat="39.994137573487265" lon="8.444791927951568"><ele>5.0</ele><time>2026-05-02T10:38:05.999Z</time></trkpt><trkpt lat="39.99399389487139" lon="8.444757769512066"><ele>4.5</ele><time>2026-05-02T10:38:06.999Z</time></trkpt><trkpt lat="39.99384216142171" lon="8.44472546232167"><ele>4.0</ele><time>2026-05-02T10:38:07.999Z</time></trkpt><trkpt lat="39.993680644779" lon="8.444714438199052"><ele>4.0</ele><time>2026-05-02T10:38:08.999Z</time></trkpt><trkpt lat="39.99351368987384" lon="8.444712848130468"><ele>4.0</ele><time>2026-05-02T10:38:09.999Z</time></trkpt><trkpt lat="39.99333973212606" lon="8.444718256349175"><ele>4.0</ele><time>2026-05-02T10:38:10.999Z</time></trkpt><trkpt lat="39.99317014940417" lon="8.44474408111506"><ele>4.0</ele><time>2026-05-02T10:38:11.999Z</time></trkpt><trkpt lat="39.99302159725357" lon="8.444776602816376"><ele>4.0</ele><time>2026-05-02T10:38:12.999Z</time></trkpt><trkpt lat="39.99289085141677" lon="8.444790173244629"><ele>4.0</ele><time>2026-05-02T10:38:13.999Z</time></trkpt><trkpt lat="39.992768909257414" lon="8.444777124498376"><ele>4.0</ele><time>2026-05-02T10:38:14.999Z</time></trkpt><trkpt lat="39.99264109696805" lon="8.444728260993315"><ele>4.0</ele><time>2026-05-02T10:38:15.999Z</time></trkpt><trkpt lat="39.99250536752284" lon="8.444668262908264"><ele>4.0</ele><time>2026-05-02T10:38:16.999Z</time></trkpt><trkpt lat="39.9923702482685" lon="8.444607507348982"><ele>4.0</ele><time>2026-05-02T10:38:17.999Z</time></trkpt><trkpt lat="39.992231109048035" lon="8.444528546445849"><ele>4.0</ele><time>2026-05-02T10:38:18.999Z</time></trkpt><trkpt lat="39.99209301953105" lon="8.444447681911388"><ele>4.0</ele><time>2026-05-02T10:38:19.999Z</time></trkpt><trkpt lat="39.99198238356401" lon="8.444343877305453"><ele>4.0</ele><time>2026-05-02T10:38:20.999Z</time></trkpt><trkpt lat="39.99189296511852" lon="8.444328857806024"><ele>4.0</ele><time>2026-05-02T10:38:21.999Z</time></trkpt><trkpt lat="39.9917781996814" lon="8.444321027776539"><ele>4.0</ele><time>2026-05-02T10:38:23.999Z</time></trkpt><trkpt lat="39.991738497595236" lon="8.444426552860332"><ele>4.0</ele><time>2026-05-02T10:38:24.999Z</time></trkpt><trkpt lat="39.99168141024444" lon="8.444515573879391"><ele>4.25</ele><time>2026-05-02T10:38:25.999Z</time></trkpt><trkpt lat="39.99160907854394" lon="8.444623992888678"><ele>4.5</ele><time>2026-05-02T10:38:26.999Z</time></trkpt><trkpt lat="39.99152414710331" lon="8.44474185941429"><ele>4.75</ele><time>2026-05-02T10:38:27.999Z</time></trkpt><trkpt lat="39.99143309086225" lon="8.444869280317276"><ele>5.0</ele><time>2026-05-02T10:38:28.999Z</time></trkpt><trkpt lat="39.991337643786714" lon="8.445002845804693"><ele>5.0</ele><time>2026-05-02T10:38:29.999Z</time></trkpt><trkpt lat="39.991248001379745" lon="8.445162965140064"><ele>5.0</ele><time>2026-05-02T10:38:30.999Z</time></trkpt><trkpt lat="39.99113979756984" lon="8.445273043907765"><ele>5.0</ele><time>2026-05-02T10:38:31.999Z</time></trkpt><trkpt lat="39.99106810085028" lon="8.44534364061922"><ele>5.0</ele><time>2026-05-02T10:38:32.999Z</time></trkpt><trkpt lat="39.99097175309116" lon="8.44532613810906"><ele>5.0</ele><time>2026-05-02T10:38:34.999Z</time></trkpt><trkpt lat="39.9908574274434" lon="8.445199936348425"><ele>5.0</ele><time>2026-05-02T10:38:36.998Z</time></trkpt><trkpt lat="39.99076542870255" lon="8.445101346936887"><ele>5.0</ele><time>2026-05-02T10:38:37.998Z</time></trkpt><trkpt lat="39.99066367030713" lon="8.444988451209106"><ele>5.0</ele><time>2026-05-02T10:38:38.998Z</time></trkpt><trkpt lat="39.9905612528952" lon="8.444874631411855"><ele>4.833333333333334</ele><time>2026-05-02T10:38:39.998Z</time></trkpt><trkpt lat="39.9904694689707" lon="8.4447660373554"><ele>4.666666666666667</ele><time>2026-05-02T10:38:40.998Z</time></trkpt><trkpt lat="39.99039945487747" lon="8.444686509351923"><ele>4.5</ele><time>2026-05-02T10:38:41.998Z</time></trkpt><trkpt lat="39.990336324303335" lon="8.444633925059687"><ele>4.333333333333333</ele><time>2026-05-02T10:38:42.998Z</time></trkpt><trkpt lat="39.99026915281485" lon="8.444610498848427"><ele>4.166666666666666</ele><time>2026-05-02T10:38:43.998Z</time></trkpt><trkpt lat="39.99020461539355" lon="8.444621938106511"><ele>4.0</ele><time>2026-05-02T10:38:44.998Z</time></trkpt><trkpt lat="39.990135851008105" lon="8.444716838803634"><ele>4.0</ele><time>2026-05-02T10:38:45.998Z</time></trkpt><trkpt lat="39.99008730626619" lon="8.444847603992935"><ele>4.0</ele><time>2026-05-02T10:38:46.998Z</time></trkpt><trkpt lat="39.990005162476514" lon="8.444971541466787"><ele>4.0</ele><time>2026-05-02T10:38:48Z</time></trkpt><trkpt lat="39.989917925053994" lon="8.445114342136534"><ele>4.0</ele><time>2026-05-02T10:38:49Z</time></trkpt><trkpt lat="39.98982146411306" lon="8.445255098810502"><ele>4.333333333333333</ele><time>2026-05-02T10:38:50Z</time></trkpt><trkpt lat="39.989712795547526" lon="8.445391446793247"><ele>4.666666666666667</ele><time>2026-05-02T10:38:51Z</time></trkpt><trkpt lat="39.98958612515116" lon="8.44552153464716"><ele>5.0</ele><time>2026-05-02T10:38:52Z</time></trkpt><trkpt lat="39.989447703900346" lon="8.445655791597776"><ele>4.333333333333334</ele><time>2026-05-02T10:38:53Z</time></trkpt><trkpt lat="39.989305020664744" lon="8.445794792412006"><ele>3.666666666666667</ele><time>2026-05-02T10:38:54Z</time></trkpt><trkpt lat="39.98917367702051" lon="8.445923208207397"><ele>3.0</ele><time>2026-05-02T10:38:55Z</time></trkpt><trkpt lat="39.98905712025722" lon="8.446038867031247"><ele>2.75</ele><time>2026-05-02T10:38:56Z</time></trkpt><trkpt lat="39.98895935563032" lon="8.44616153214531"><ele>2.5</ele><time>2026-05-02T10:38:57Z</time></trkpt><trkpt lat="39.98884712266612" lon="8.44624092615631"><ele>2.25</ele><time>2026-05-02T10:38:58Z</time></trkpt><trkpt lat="39.98874199972032" lon="8.446305009129365"><ele>2.0</ele><time>2026-05-02T10:38:59Z</time></trkpt><trkpt lat="39.98861993303079" lon="8.446361495768967"><ele>2.6666666666666665</ele><time>2026-05-02T10:39:00Z</time></trkpt><trkpt lat="39.98850648832538" lon="8.446471440194065"><ele>3.333333333333333</ele><time>2026-05-02T10:39:01Z</time></trkpt><trkpt lat="39.988390419558776" lon="8.446603158123796"><ele>4.0</ele><time>2026-05-02T10:39:02Z</time></trkpt><trkpt lat="39.98827567530912" lon="8.446755686804046"><ele>4.0</ele><time>2026-05-02T10:39:03Z</time></trkpt><trkpt lat="39.98814047278846" lon="8.446893015360006"><ele>4.0</ele><time>2026-05-02T10:39:04Z</time></trkpt><trkpt lat="39.988018150840965" lon="8.447059803503725"><ele>4.0</ele><time>2026-05-02T10:39:05Z</time></trkpt><trkpt lat="39.98788268763955" lon="8.447211790395599"><ele>4.333333333333333</ele><time>2026-05-02T10:39:06Z</time></trkpt><trkpt lat="39.98773737946792" lon="8.447345943194211"><ele>4.666666666666667</ele><time>2026-05-02T10:39:07Z</time></trkpt><trkpt lat="39.98760577576715" lon="8.447510201125395"><ele>5.0</ele><time>2026-05-02T10:39:08Z</time></trkpt><trkpt lat="39.98746212202373" lon="8.447655566762293"><ele>5.0</ele><time>2026-05-02T10:39:09Z</time></trkpt><trkpt lat="39.98732031691857" lon="8.447803093403815"><ele>5.0</ele><time>2026-05-02T10:39:10Z</time></trkpt><trkpt lat="39.987174266235776" lon="8.447916199589148"><ele>5.0</ele><time>2026-05-02T10:39:11Z</time></trkpt><trkpt lat="39.987032812496864" lon="8.448039517277417"><ele>5.0</ele><time>2026-05-02T10:39:12Z</time></trkpt><trkpt lat="39.98688248955215" lon="8.448169579409262"><ele>5.0</ele><time>2026-05-02T10:39:13Z</time></trkpt><trkpt lat="39.986731654365364" lon="8.448320053772763"><ele>5.0</ele><time>2026-05-02T10:39:14Z</time></trkpt><trkpt lat="39.98658778176078" lon="8.448447338677381"><ele>5.2</ele><time>2026-05-02T10:39:15Z</time></trkpt><trkpt lat="39.986469058930666" lon="8.448570354212949"><ele>5.4</ele><time>2026-05-02T10:39:16Z</time></trkpt><trkpt lat="39.98638750052831" lon="8.448664589004292"><ele>5.6</ele><time>2026-05-02T10:39:17Z</time></trkpt><trkpt lat="39.986332593776304" lon="8.44872286742363"><ele>5.8</ele><time>2026-05-02T10:39:18Z</time></trkpt><trkpt lat="39.98622780920713" lon="8.448711796227636"><ele>6.0</ele><time>2026-05-02T10:39:20Z</time></trkpt><trkpt lat="39.98613745873905" lon="8.448718546330388"><ele>6.4</ele><time>2026-05-02T10:39:23Z</time></trkpt><trkpt lat="39.9860876097921" lon="8.448801922560083"><ele>6.8</ele><time>2026-05-02T10:39:24Z</time></trkpt><trkpt lat="39.98602899755299" lon="8.448903538714761"><ele>7.200000000000001</ele><time>2026-05-02T10:39:25Z</time></trkpt><trkpt lat="39.98597102409316" lon="8.449043819592234"><ele>7.6000000000000005</ele><time>2026-05-02T10:39:26Z</time></trkpt><trkpt lat="39.9858945623632" lon="8.449194260592803"><ele>8.0</ele><time>2026-05-02T10:39:27Z</time></trkpt><trkpt lat="39.98580853528265" lon="8.449339649568394"><ele>8.0</ele><time>2026-05-02T10:39:28Z</time></trkpt><trkpt lat="39.985720303552135" lon="8.44945310479068"><ele>8.0</ele><time>2026-05-02T10:39:29Z</time></trkpt><trkpt lat="39.98565972238851" lon="8.449547578548419"><ele>8.0</ele><time>2026-05-02T10:39:30Z</time></trkpt><trkpt lat="39.98557596427059" lon="8.449454399927486"><ele>8.0</ele><time>2026-05-02T10:39:33Z</time></trkpt><trkpt lat="39.9855042136245" lon="8.449369922300766"><ele>8.0</ele><time>2026-05-02T10:39:34Z</time></trkpt><trkpt lat="39.98541343935392" lon="8.449285209639598"><ele>8.0</ele><time>2026-05-02T10:39:34.999Z</time></trkpt><trkpt lat="39.98532984403159" lon="8.449169592532956"><ele>8.0</ele><time>2026-05-02T10:39:35.999Z</time></trkpt><trkpt lat="39.9852352741745" lon="8.449041937675165"><ele>8.0</ele><time>2026-05-02T10:39:36.999Z</time></trkpt><trkpt lat="39.98513387857837" lon="8.448915246198359"><ele>8.0</ele><time>2026-05-02T10:39:37.999Z</time></trkpt><trkpt lat="39.98504086928289" lon="8.448759752316333"><ele>8.0</ele><time>2026-05-02T10:39:38.999Z</time></trkpt><trkpt lat="39.98493103298847" lon="8.44861139152988"><ele>8.0</ele><time>2026-05-02T10:39:39.999Z</time></trkpt><trkpt lat="39.98482772034197" lon="8.448469514592555"><ele>8.0</ele><time>2026-05-02T10:39:40.999Z</time></trkpt><trkpt lat="39.984728819120285" lon="8.448322356536856"><ele>8.0</ele><time>2026-05-02T10:39:41.999Z</time></trkpt><trkpt lat="39.98463526705024" lon="8.448172608697384"><ele>8.0</ele><time>2026-05-02T10:39:42.999Z</time></trkpt><trkpt lat="39.98454346855484" lon="8.448030971819264"><ele>8.0</ele><time>2026-05-02T10:39:43.999Z</time></trkpt><trkpt lat="39.98443923078826" lon="8.44790324202"><ele>8.0</ele><time>2026-05-02T10:39:44.999Z</time></trkpt><trkpt lat="39.984337946186656" lon="8.447765859371572"><ele>7.666666666666666</ele><time>2026-05-02T10:39:45.999Z</time></trkpt><trkpt lat="39.98422601025732" lon="8.447633539647489"><ele>7.333333333333334</ele><time>2026-05-02T10:39:46.999Z</time></trkpt><trkpt lat="39.98412834462485" lon="8.447485251723721"><ele>7.0</ele><time>2026-05-02T10:39:47.999Z</time></trkpt><trkpt lat="39.98402018063535" lon="8.447351967762746"><ele>7.75</ele><time>2026-05-02T10:39:48.999Z</time></trkpt><trkpt lat="39.983912489682744" lon="8.447217335309022"><ele>8.5</ele><time>2026-05-02T10:39:49.999Z</time></trkpt><trkpt lat="39.98381441240474" lon="8.447092021647226"><ele>9.25</ele><time>2026-05-02T10:39:50.999Z</time></trkpt><trkpt lat="39.98372825631449" lon="8.446977114209576"><ele>10.0</ele><time>2026-05-02T10:39:51.999Z</time></trkpt><trkpt lat="39.98365121878542" lon="8.446856463903606"><ele>10.0</ele><time>2026-05-02T10:39:52.999Z</time></trkpt><trkpt lat="39.98358031621472" lon="8.446725582274505"><ele>10.0</ele><time>2026-05-02T10:39:53.999Z</time></trkpt><trkpt lat="39.98351954760006" lon="8.446586009616386"><ele>10.0</ele><time>2026-05-02T10:39:54.999Z</time></trkpt><trkpt lat="39.98347273508881" lon="8.446443208062746"><ele>10.0</ele><time>2026-05-02T10:39:55.999Z</time></trkpt><trkpt lat="39.983447922408494" lon="8.446291520159795"><ele>9.5</ele><time>2026-05-02T10:39:56.999Z</time></trkpt><trkpt lat="39.98343191320532" lon="8.446120396989004"><ele>9.0</ele><time>2026-05-02T10:39:57.999Z</time></trkpt><trkpt lat="39.98341561724613" lon="8.44593556316842"><ele>8.5</ele><time>2026-05-02T10:39:58.999Z</time></trkpt><trkpt lat="39.98339252748205" lon="8.445742954725654"><ele>8.0</ele><time>2026-05-02T10:39:59.999Z</time></trkpt><trkpt lat="39.9833652465996" lon="8.445546696357049"><ele>8.0</ele><time>2026-05-02T10:40:00.999Z</time></trkpt><trkpt lat="39.98333402735014" lon="8.445346852695456"><ele>8.0</ele><time>2026-05-02T10:40:01.999Z</time></trkpt><trkpt lat="39.98329891526103" lon="8.445148690963622"><ele>8.0</ele><time>2026-05-02T10:40:02.999Z</time></trkpt><trkpt lat="39.98326345768869" lon="8.444965176497384"><ele>8.0</ele><time>2026-05-02T10:40:03.999Z</time></trkpt><trkpt lat="39.98322642761367" lon="8.444799235713852"><ele>8.0</ele><time>2026-05-02T10:40:04.999Z</time></trkpt><trkpt lat="39.98319100123771" lon="8.444654163530704"><ele>8.0</ele><time>2026-05-02T10:40:05.999Z</time></trkpt><trkpt lat="39.98314972301017" lon="8.444507083942646"><ele>8.0</ele><time>2026-05-02T10:40:06.999Z</time></trkpt><trkpt lat="39.98309953125489" lon="8.444351662577596"><ele>8.0</ele><time>2026-05-02T10:40:07.999Z</time></trkpt><trkpt lat="39.983033410795706" lon="8.44421286100029"><ele>8.0</ele><time>2026-05-02T10:40:08.999Z</time></trkpt><trkpt lat="39.98298384203758" lon="8.444078492295995"><ele>8.0</ele><time>2026-05-02T10:40:09.999Z</time></trkpt><trkpt lat="39.98290880023343" lon="8.443951576611173"><ele>8.0</ele><time>2026-05-02T10:40:10.999Z</time></trkpt><trkpt lat="39.98281444581434" lon="8.443823424716417"><ele>7.75</ele><time>2026-05-02T10:40:11.999Z</time></trkpt><trkpt lat="39.98273834285489" lon="8.443675390395951"><ele>7.5</ele><time>2026-05-02T10:40:12.999Z</time></trkpt><trkpt lat="39.982652916068254" lon="8.443545555735202"><ele>7.25</ele><time>2026-05-02T10:40:13.999Z</time></trkpt><trkpt lat="39.98255292765475" lon="8.443425319180742"><ele>7.0</ele><time>2026-05-02T10:40:14.999Z</time></trkpt><trkpt lat="39.98246548351617" lon="8.443292446257704"><ele>7.0</ele><time>2026-05-02T10:40:15.999Z</time></trkpt><trkpt lat="39.98238651220155" lon="8.443165810637359"><ele>7.0</ele><time>2026-05-02T10:40:16.999Z</time></trkpt><trkpt lat="39.98231357855008" lon="8.443045443368009"><ele>7.0</ele><time>2026-05-02T10:40:17.999Z</time></trkpt><trkpt lat="39.98224339456808" lon="8.442942538419096"><ele>7.0</ele><time>2026-05-02T10:40:18.999Z</time></trkpt><trkpt lat="39.982184873212525" lon="8.442824096727765"><ele>6.666666666666667</ele><time>2026-05-02T10:40:19.999Z</time></trkpt><trkpt lat="39.982110825230386" lon="8.442736544324658"><ele>6.333333333333334</ele><time>2026-05-02T10:40:20.999Z</time></trkpt><trkpt lat="39.982055639570774" lon="8.44264335553736"><ele>6.0</ele><time>2026-05-02T10:40:21.999Z</time></trkpt><trkpt lat="39.98201048273282" lon="8.44257323279481"><ele>5.666666666666667</ele><time>2026-05-02T10:40:22.999Z</time></trkpt><trkpt lat="39.98198460784951" lon="8.442463948053636"><ele>5.333333333333334</ele><time>2026-05-02T10:40:24.999Z</time></trkpt><trkpt lat="39.98191466164469" lon="8.442424561701033"><ele>5.0</ele><time>2026-05-02T10:41:22Z</time></trkpt><trkpt lat="39.981885295703" lon="8.44234155222813"><ele>5.0</ele><time>2026-05-02T10:41:23Z</time></trkpt><trkpt lat="39.98186440211737" lon="8.442237078051"><ele>5.0</ele><time>2026-05-02T10:41:24Z</time></trkpt><trkpt lat="39.98184117882913" lon="8.442119414309035"><ele>5.0</ele><time>2026-05-02T10:41:25Z</time></trkpt><trkpt lat="39.981814700458145" lon="8.441980932252383"><ele>5.0</ele><time>2026-05-02T10:41:26Z</time></trkpt><trkpt lat="39.98178333077231" lon="8.44182575773207"><ele>5.0</ele><time>2026-05-02T10:41:27Z</time></trkpt><trkpt lat="39.98174733464422" lon="8.441653982710449"><ele>5.0</ele><time>2026-05-02T10:41:28Z</time></trkpt><trkpt lat="39.98170452953825" lon="8.4414876105844"><ele>5.0</ele><time>2026-05-02T10:41:29Z</time></trkpt><trkpt lat="39.98164613867095" lon="8.441323108589145"><ele>5.0</ele><time>2026-05-02T10:41:30Z</time></trkpt><trkpt lat="39.98158502265431" lon="8.441166480507794"><ele>5.0</ele><time>2026-05-02T10:41:31Z</time></trkpt><trkpt lat="39.98151806840516" lon="8.441035701709566"><ele>5.5</ele><time>2026-05-02T10:41:32Z</time></trkpt><trkpt lat="39.98143429497377" lon="8.440905922145758"><ele>6.0</ele><time>2026-05-02T10:41:33Z</time></trkpt><trkpt lat="39.98134036833251" lon="8.44076968308568"><ele>6.5</ele><time>2026-05-02T10:41:34Z</time></trkpt><trkpt lat="39.981248874689626" lon="8.440621135302418"><ele>7.0</ele><time>2026-05-02T10:41:34.999Z</time></trkpt><trkpt lat="39.9811521601047" lon="8.440468498255992"><ele>6.666666666666667</ele><time>2026-05-02T10:41:35.999Z</time></trkpt><trkpt lat="39.98105143417685" lon="8.440312806706858"><ele>6.333333333333334</ele><time>2026-05-02T10:41:36.999Z</time></trkpt><trkpt lat="39.980951630337195" lon="8.440154057552736"><ele>6.0</ele><time>2026-05-02T10:41:37.999Z</time></trkpt><trkpt lat="39.980849752959934" lon="8.439993411100973"><ele>6.333333333333334</ele><time>2026-05-02T10:41:38.999Z</time></trkpt><trkpt lat="39.98076228764914" lon="8.439817309713183"><ele>6.666666666666667</ele><time>2026-05-02T10:41:39.999Z</time></trkpt><trkpt lat="39.980663505518706" lon="8.439653145895074"><ele>7.0</ele><time>2026-05-02T10:41:40.999Z</time></trkpt><trkpt lat="39.98056890814845" lon="8.439490650764618"><ele>7.0</ele><time>2026-05-02T10:41:41.999Z</time></trkpt><trkpt lat="39.98046194659038" lon="8.439338084255647"><ele>7.0</ele><time>2026-05-02T10:41:42.999Z</time></trkpt><trkpt lat="39.98036742112539" lon="8.439166923884448"><ele>7.0</ele><time>2026-05-02T10:41:43.999Z</time></trkpt><trkpt lat="39.980271275978886" lon="8.43900208304797"><ele>7.0</ele><time>2026-05-02T10:41:44.999Z</time></trkpt><trkpt lat="39.98017137338198" lon="8.438832267146651"><ele>7.0</ele><time>2026-05-02T10:41:45.999Z</time></trkpt><trkpt lat="39.98007128019012" lon="8.438659879284407"><ele>7.0</ele><time>2026-05-02T10:41:46.999Z</time></trkpt><trkpt lat="39.97997071531976" lon="8.438481371296307"><ele>7.666666666666667</ele><time>2026-05-02T10:41:47.999Z</time></trkpt><trkpt lat="39.979866317889176" lon="8.43830459478951"><ele>8.333333333333334</ele><time>2026-05-02T10:41:48.999Z</time></trkpt><trkpt lat="39.979758379183345" lon="8.43813445160381"><ele>9.0</ele><time>2026-05-02T10:41:49.999Z</time></trkpt><trkpt lat="39.97964916710424" lon="8.437978873371174"><ele>9.0</ele><time>2026-05-02T10:41:50.999Z</time></trkpt><trkpt lat="39.97954035827427" lon="8.437816987471612"><ele>9.0</ele><time>2026-05-02T10:41:51.999Z</time></trkpt><trkpt lat="39.979433646445" lon="8.437656996090807"><ele>9.0</ele><time>2026-05-02T10:41:52.999Z</time></trkpt><trkpt lat="39.97932791754618" lon="8.437494532070549"><ele>9.0</ele><time>2026-05-02T10:41:53.999Z</time></trkpt><trkpt lat="39.97922004459743" lon="8.437333849216966"><ele>9.0</ele><time>2026-05-02T10:41:54.999Z</time></trkpt><trkpt lat="39.97910726196686" lon="8.437181603075494"><ele>9.0</ele><time>2026-05-02T10:41:55.999Z</time></trkpt><trkpt lat="39.97899953303136" lon="8.437025511336596"><ele>10.0</ele><time>2026-05-02T10:41:56.999Z</time></trkpt><trkpt lat="39.97888744055625" lon="8.436875260742976"><ele>11.0</ele><time>2026-05-02T10:41:57.999Z</time></trkpt><trkpt lat="39.97878204299709" lon="8.436723549248152"><ele>12.0</ele><time>2026-05-02T10:41:58.999Z</time></trkpt><trkpt lat="39.978690254267306" lon="8.436567751297048"><ele>12.0</ele><time>2026-05-02T10:41:59.999Z</time></trkpt><trkpt lat="39.97860859530237" lon="8.436408746749308"><ele>12.0</ele><time>2026-05-02T10:42:00.999Z</time></trkpt><trkpt lat="39.97854097129186" lon="8.4362413934397"><ele>12.0</ele><time>2026-05-02T10:42:01.999Z</time></trkpt><trkpt lat="39.97848090708736" lon="8.436064836358081"><ele>12.0</ele><time>2026-05-02T10:42:02.999Z</time></trkpt><trkpt lat="39.97843118935545" lon="8.435874893415683"><ele>12.333333333333332</ele><time>2026-05-02T10:42:03.999Z</time></trkpt><trkpt lat="39.97839088413097" lon="8.435677000231813"><ele>12.666666666666666</ele><time>2026-05-02T10:42:04.999Z</time></trkpt><trkpt lat="39.978359936313566" lon="8.435476808180258"><ele>13.0</ele><time>2026-05-02T10:42:05.999Z</time></trkpt><trkpt lat="39.978333221190816" lon="8.435278732932295"><ele>13.0</ele><time>2026-05-02T10:42:06.999Z</time></trkpt><trkpt lat="39.97831280804503" lon="8.435100516811275"><ele>13.0</ele><time>2026-05-02T10:42:07.999Z</time></trkpt><trkpt lat="39.97829309684697" lon="8.434933008438955"><ele>13.0</ele><time>2026-05-02T10:42:08.999Z</time></trkpt><trkpt lat="39.978268472355325" lon="8.43478704090595"><ele>13.0</ele><time>2026-05-02T10:42:09.999Z</time></trkpt><trkpt lat="39.978253682087185" lon="8.434650835620559"><ele>13.0</ele><time>2026-05-02T10:42:10.999Z</time></trkpt><trkpt lat="39.97819492659568" lon="8.434542528970006"><ele>13.0</ele><time>2026-05-02T10:42:11.999Z</time></trkpt><trkpt lat="39.978140510799335" lon="8.434463580359932"><ele>13.0</ele><time>2026-05-02T10:42:12.999Z</time></trkpt><trkpt lat="39.97806960516749" lon="8.434412076175773"><ele>13.0</ele><time>2026-05-02T10:42:13.999Z</time></trkpt><trkpt lat="39.977978148201686" lon="8.434367102165195"><ele>13.0</ele><time>2026-05-02T10:42:14.999Z</time></trkpt><trkpt lat="39.97788652456734" lon="8.434310461718043"><ele>13.0</ele><time>2026-05-02T10:42:15.999Z</time></trkpt><trkpt lat="39.97781826388189" lon="8.434249328440034"><ele>13.0</ele><time>2026-05-02T10:42:16.999Z</time></trkpt><trkpt lat="39.97777152667425" lon="8.434189126594895"><ele>13.0</ele><time>2026-05-02T10:42:17.999Z</time></trkpt><trkpt lat="39.97774086697955" lon="8.434003287187187"><ele>13.0</ele><time>2026-05-02T10:42:19.999Z</time></trkpt><trkpt lat="39.97772169329678" lon="8.433861225367068"><ele>13.0</ele><time>2026-05-02T10:42:20.999Z</time></trkpt><trkpt lat="39.97766669437438" lon="8.43369968352478"><ele>13.666666666666666</ele><time>2026-05-02T10:42:21.999Z</time></trkpt><trkpt lat="39.977611563279204" lon="8.433524679728768"><ele>14.333333333333332</ele><time>2026-05-02T10:42:22.999Z</time></trkpt><trkpt lat="39.97754579156828" lon="8.433347678543923"><ele>15.0</ele><time>2026-05-02T10:42:23.999Z</time></trkpt><trkpt lat="39.977478246348326" lon="8.433158347921967"><ele>15.333333333333332</ele><time>2026-05-02T10:42:24.999Z</time></trkpt><trkpt lat="39.977402804408904" lon="8.432958259914933"><ele>15.666666666666666</ele><time>2026-05-02T10:42:25.999Z</time></trkpt><trkpt lat="39.977323256284926" lon="8.432757336688427"><ele>16.0</ele><time>2026-05-02T10:42:26.999Z</time></trkpt><trkpt lat="39.977226966138126" lon="8.432556979985328"><ele>16.0</ele><time>2026-05-02T10:42:27.999Z</time></trkpt><trkpt lat="39.9771297435773" lon="8.43235457500527"><ele>16.0</ele><time>2026-05-02T10:42:28.999Z</time></trkpt><trkpt lat="39.97703084041389" lon="8.432142895964105"><ele>16.0</ele><time>2026-05-02T10:42:29.999Z</time></trkpt><trkpt lat="39.976938067742054" lon="8.431929704491251"><ele>16.333333333333332</ele><time>2026-05-02T10:42:30.999Z</time></trkpt><trkpt lat="39.97684620808692" lon="8.431713033723993"><ele>16.666666666666668</ele><time>2026-05-02T10:42:31.999Z</time></trkpt><trkpt lat="39.97675517788908" lon="8.431493020121021"><ele>17.0</ele><time>2026-05-02T10:42:32.999Z</time></trkpt><trkpt lat="39.97668006895888" lon="8.431257827560426"><ele>17.0</ele><time>2026-05-02T10:42:33.999Z</time></trkpt><trkpt lat="39.97661053845445" lon="8.431019800642533"><ele>17.0</ele><time>2026-05-02T10:42:34.999Z</time></trkpt><trkpt lat="39.97654255478374" lon="8.430778294157777"><ele>17.0</ele><time>2026-05-02T10:42:35.999Z</time></trkpt><trkpt lat="39.97646695428264" lon="8.430545049664708"><ele>17.333333333333336</ele><time>2026-05-02T10:42:36.999Z</time></trkpt><trkpt lat="39.97637915296195" lon="8.430317656338563"><ele>17.666666666666668</ele><time>2026-05-02T10:42:37.999Z</time></trkpt><trkpt lat="39.97628971195157" lon="8.430095208338267"><ele>18.0</ele><time>2026-05-02T10:42:38.999Z</time></trkpt><trkpt lat="39.97619906674268" lon="8.429873712544394"><ele>18.0</ele><time>2026-05-02T10:42:39.999Z</time></trkpt><trkpt lat="39.97610384370796" lon="8.429661054528706"><ele>18.0</ele><time>2026-05-02T10:42:40.998Z</time></trkpt><trkpt lat="39.97603262297088" lon="8.429431819808835"><ele>18.0</ele><time>2026-05-02T10:42:41.998Z</time></trkpt><trkpt lat="39.975962698198465" lon="8.429202869661795"><ele>18.0</ele><time>2026-05-02T10:42:42.998Z</time></trkpt><trkpt lat="39.9758978482414" lon="8.428974679273338"><ele>18.0</ele><time>2026-05-02T10:42:43.998Z</time></trkpt><trkpt lat="39.975821124545725" lon="8.42877041576778"><ele>18.0</ele><time>2026-05-02T10:42:44.998Z</time></trkpt><trkpt lat="39.97575973643103" lon="8.428576496692092"><ele>18.0</ele><time>2026-05-02T10:42:45.998Z</time></trkpt><trkpt lat="39.9756801567959" lon="8.428385010348"><ele>18.0</ele><time>2026-05-02T10:42:46.998Z</time></trkpt><trkpt lat="39.97558659335774" lon="8.428188899754936"><ele>18.0</ele><time>2026-05-02T10:42:47.998Z</time></trkpt><trkpt lat="39.97548424727958" lon="8.427998088013844"><ele>17.666666666666668</ele><time>2026-05-02T10:42:48.998Z</time></trkpt><trkpt lat="39.97538287917436" lon="8.427806032634683"><ele>17.333333333333336</ele><time>2026-05-02T10:42:49.998Z</time></trkpt><trkpt lat="39.97528434888473" lon="8.42761323230497"><ele>17.0</ele><time>2026-05-02T10:42:50.998Z</time></trkpt><trkpt lat="39.97519007290325" lon="8.427420246266472"><ele>17.0</ele><time>2026-05-02T10:42:51.998Z</time></trkpt><trkpt lat="39.9751019124815" lon="8.427233242790917"><ele>17.0</ele><time>2026-05-02T10:42:52.998Z</time></trkpt><trkpt lat="39.97503051762307" lon="8.427062476757124"><ele>17.0</ele><time>2026-05-02T10:42:53.998Z</time></trkpt><trkpt lat="39.97496916411991" lon="8.426890451407917"><ele>17.5</ele><time>2026-05-02T10:42:54.998Z</time></trkpt><trkpt lat="39.974932022686936" lon="8.42672811214405"><ele>18.0</ele><time>2026-05-02T10:42:55.998Z</time></trkpt><trkpt lat="39.974928403076795" lon="8.426562093196923"><ele>18.5</ele><time>2026-05-02T10:42:56.998Z</time></trkpt><trkpt lat="39.974963461271194" lon="8.426364715115865"><ele>19.0</ele><time>2026-05-02T10:42:57.998Z</time></trkpt><trkpt lat="39.974951874945795" lon="8.426191048995848"><ele>19.25</ele><time>2026-05-02T10:42:59Z</time></trkpt><trkpt lat="39.97492308716034" lon="8.426009908191151"><ele>19.5</ele><time>2026-05-02T10:43:00Z</time></trkpt><trkpt lat="39.97487785270581" lon="8.425823849743892"><ele>19.75</ele><time>2026-05-02T10:43:01Z</time></trkpt><trkpt lat="39.97484956399335" lon="8.425661656030405"><ele>20.0</ele><time>2026-05-02T10:43:02Z</time></trkpt><trkpt lat="39.974848417327586" lon="8.425502987109185"><ele>19.75</ele><time>2026-05-02T10:43:03Z</time></trkpt><trkpt lat="39.97486359294849" lon="8.425319605523855"><ele>19.5</ele><time>2026-05-02T10:43:04Z</time></trkpt><trkpt lat="39.9748785088819" lon="8.42513300382562"><ele>19.25</ele><time>2026-05-02T10:43:05Z</time></trkpt><trkpt lat="39.97487609983897" lon="8.424978105813658"><ele>19.0</ele><time>2026-05-02T10:43:06Z</time></trkpt><trkpt lat="39.97484578393468" lon="8.42483268816774"><ele>19.0</ele><time>2026-05-02T10:43:07Z</time></trkpt><trkpt lat="39.97477908905145" lon="8.424668766937629"><ele>19.0</ele><time>2026-05-02T10:43:08Z</time></trkpt><trkpt lat="39.97470373309145" lon="8.424480824272582"><ele>19.0</ele><time>2026-05-02T10:43:09Z</time></trkpt><trkpt lat="39.97462767161204" lon="8.424293524904888"><ele>19.0</ele><time>2026-05-02T10:43:10Z</time></trkpt><trkpt lat="39.97454160413666" lon="8.424124002630581"><ele>19.0</ele><time>2026-05-02T10:43:11Z</time></trkpt><trkpt lat="39.97447360015967" lon="8.423949494438206"><ele>19.0</ele><time>2026-05-02T10:43:12Z</time></trkpt><trkpt lat="39.97446100992561" lon="8.42375529844299"><ele>19.0</ele><time>2026-05-02T10:43:13Z</time></trkpt><trkpt lat="39.97443119582965" lon="8.423555183957989"><ele>19.0</ele><time>2026-05-02T10:43:14Z</time></trkpt><trkpt lat="39.97441016612734" lon="8.423388906356637"><ele>19.0</ele><time>2026-05-02T10:43:15Z</time></trkpt><trkpt lat="39.9743680170842" lon="8.423232081607317"><ele>19.0</ele><time>2026-05-02T10:43:16Z</time></trkpt><trkpt lat="39.97429468101848" lon="8.423073034876444"><ele>18.333333333333332</ele><time>2026-05-02T10:43:17Z</time></trkpt><trkpt lat="39.97423331705811" lon="8.422897993134951"><ele>17.666666666666668</ele><time>2026-05-02T10:43:18Z</time></trkpt><trkpt lat="39.97418132971898" lon="8.42269916214611"><ele>17.0</ele><time>2026-05-02T10:43:19Z</time></trkpt><trkpt lat="39.97413819317007" lon="8.422472388495143"><ele>17.0</ele><time>2026-05-02T10:43:20Z</time></trkpt><trkpt lat="39.974099734533105" lon="8.422234736662528"><ele>17.0</ele><time>2026-05-02T10:43:21Z</time></trkpt><trkpt lat="39.97404953466829" lon="8.421998511973102"><ele>17.0</ele><time>2026-05-02T10:43:22Z</time></trkpt><trkpt lat="39.97403116102472" lon="8.421757663890556"><ele>17.333333333333336</ele><time>2026-05-02T10:43:23Z</time></trkpt><trkpt lat="39.973959129740834" lon="8.421533700849038"><ele>17.666666666666668</ele><time>2026-05-02T10:43:24Z</time></trkpt><trkpt lat="39.97388774368252" lon="8.421312836363104"><ele>18.0</ele><time>2026-05-02T10:43:25Z</time></trkpt><trkpt lat="39.97379834385894" lon="8.42109519912114"><ele>18.0</ele><time>2026-05-02T10:43:26Z</time></trkpt><trkpt lat="39.973695073696405" lon="8.420897326003079"><ele>18.0</ele><time>2026-05-02T10:43:27Z</time></trkpt><trkpt lat="39.97360512321432" lon="8.420747082251072"><ele>18.0</ele><time>2026-05-02T10:43:28Z</time></trkpt><trkpt lat="39.97354527456755" lon="8.420644202101277"><ele>18.0</ele><time>2026-05-02T10:43:29Z</time></trkpt><trkpt lat="39.97350201736337" lon="8.420581219524195"><ele>18.0</ele><time>2026-05-02T10:43:30Z</time></trkpt><trkpt lat="39.97339182822366" lon="8.420607106972483"><ele>18.0</ele><time>2026-05-02T10:43:34Z</time></trkpt><trkpt lat="39.97332777541297" lon="8.42069445916109"><ele>18.0</ele><time>2026-05-02T10:43:35Z</time></trkpt><trkpt lat="39.973240844882405" lon="8.420810887669015"><ele>18.0</ele><time>2026-05-02T10:43:36Z</time></trkpt><trkpt lat="39.973153978581884" lon="8.420940393447097"><ele>18.666666666666668</ele><time>2026-05-02T10:43:37Z</time></trkpt><trkpt lat="39.97305869666041" lon="8.42108322643784"><ele>19.333333333333336</ele><time>2026-05-02T10:43:38Z</time></trkpt><trkpt lat="39.97295998338138" lon="8.421232472884919"><ele>20.0</ele><time>2026-05-02T10:43:38.999Z</time></trkpt><trkpt lat="39.97286208667394" lon="8.42140968429717"><ele>20.0</ele><time>2026-05-02T10:43:39.999Z</time></trkpt><trkpt lat="39.97274365925862" lon="8.421585031136871"><ele>20.0</ele><time>2026-05-02T10:43:40.999Z</time></trkpt><trkpt lat="39.972623147534556" lon="8.421760030689882"><ele>20.0</ele><time>2026-05-02T10:43:41.999Z</time></trkpt><trkpt lat="39.97250034787985" lon="8.42194525335895"><ele>20.0</ele><time>2026-05-02T10:43:42.999Z</time></trkpt><trkpt lat="39.972358803329854" lon="8.422125336898569"><ele>20.0</ele><time>2026-05-02T10:43:43.999Z</time></trkpt><trkpt lat="39.97222563867162" lon="8.422322675131975"><ele>20.0</ele><time>2026-05-02T10:43:44.999Z</time></trkpt><trkpt lat="39.972088882834036" lon="8.422525335157708"><ele>20.0</ele><time>2026-05-02T10:43:45.999Z</time></trkpt><trkpt lat="39.97196521894243" lon="8.422739633629245"><ele>20.0</ele><time>2026-05-02T10:43:46.999Z</time></trkpt><trkpt lat="39.97182876970008" lon="8.422940170393465"><ele>20.0</ele><time>2026-05-02T10:43:47.999Z</time></trkpt><trkpt lat="39.97169098434759" lon="8.423145695546742"><ele>21.333333333333336</ele><time>2026-05-02T10:43:48.999Z</time></trkpt><trkpt lat="39.97155399730044" lon="8.423351370648867"><ele>22.666666666666668</ele><time>2026-05-02T10:43:49.999Z</time></trkpt><trkpt lat="39.97142206279674" lon="8.42356161939658"><ele>24.0</ele><time>2026-05-02T10:43:50.999Z</time></trkpt><trkpt lat="39.971301581274425" lon="8.423781931457464"><ele>24.0</ele><time>2026-05-02T10:43:51.999Z</time></trkpt><trkpt lat="39.97120080110669" lon="8.424022993745025"><ele>24.0</ele><time>2026-05-02T10:43:52.999Z</time></trkpt><trkpt lat="39.971119317977546" lon="8.42427635203955"><ele>24.0</ele><time>2026-05-02T10:43:53.999Z</time></trkpt><trkpt lat="39.971057384881654" lon="8.424536990821897"><ele>24.666666666666664</ele><time>2026-05-02T10:43:54.999Z</time></trkpt><trkpt lat="39.971007057342305" lon="8.424801587715148"><ele>25.333333333333332</ele><time>2026-05-02T10:43:55.999Z</time></trkpt><trkpt lat="39.970939460735" lon="8.425058605428022"><ele>26.0</ele><time>2026-05-02T10:43:56.999Z</time></trkpt><trkpt lat="39.97088433460175" lon="8.425317749336857"><ele>26.666666666666664</ele><time>2026-05-02T10:43:57.999Z</time></trkpt><trkpt lat="39.970826376890926" lon="8.425581491630947"><ele>27.333333333333336</ele><time>2026-05-02T10:43:58.999Z</time></trkpt><trkpt lat="39.970766574947575" lon="8.425837937291877"><ele>28.0</ele><time>2026-05-02T10:43:59.999Z</time></trkpt><trkpt lat="39.97069037169122" lon="8.426084240004803"><ele>28.666666666666668</ele><time>2026-05-02T10:44:00.999Z</time></trkpt><trkpt lat="39.97060051572042" lon="8.42632939862086"><ele>29.333333333333336</ele><time>2026-05-02T10:44:01.999Z</time></trkpt><trkpt lat="39.970460591047" lon="8.42653421935134"><ele>30.0</ele><time>2026-05-02T10:44:02.999Z</time></trkpt><trkpt lat="39.970311920201" lon="8.42672593506829"><ele>30.0</ele><time>2026-05-02T10:44:03.999Z</time></trkpt><trkpt lat="39.970159448566584" lon="8.426912686632459"><ele>30.0</ele><time>2026-05-02T10:44:04.999Z</time></trkpt><trkpt lat="39.969990388194546" lon="8.427072429313354"><ele>30.0</ele><time>2026-05-02T10:44:05.999Z</time></trkpt><trkpt lat="39.96982110987499" lon="8.427231088820532"><ele>32.333333333333336</ele><time>2026-05-02T10:44:06.999Z</time></trkpt><trkpt lat="39.96965459280159" lon="8.42739513128469"><ele>34.66666666666667</ele><time>2026-05-02T10:44:07.999Z</time></trkpt><trkpt lat="39.96948830678545" lon="8.427561884434729"><ele>37.0</ele><time>2026-05-02T10:44:08.999Z</time></trkpt><trkpt lat="39.969322756375" lon="8.427728703243355"><ele>37.0</ele><time>2026-05-02T10:44:09.999Z</time></trkpt><trkpt lat="39.969157136193864" lon="8.427895742483257"><ele>37.0</ele><time>2026-05-02T10:44:10.999Z</time></trkpt><trkpt lat="39.96898975098998" lon="8.42806172360432"><ele>37.0</ele><time>2026-05-02T10:44:11.999Z</time></trkpt><trkpt lat="39.968821194212126" lon="8.428229550588426"><ele>38.0</ele><time>2026-05-02T10:44:12.999Z</time></trkpt><trkpt lat="39.968652110677105" lon="8.428398922052816"><ele>39.0</ele><time>2026-05-02T10:44:13.999Z</time></trkpt><trkpt lat="39.968482263541034" lon="8.428569235025796"><ele>40.0</ele><time>2026-05-02T10:44:14.999Z</time></trkpt><trkpt lat="39.96831108492521" lon="8.42874056545573"><ele>41.333333333333336</ele><time>2026-05-02T10:44:15.999Z</time></trkpt><trkpt lat="39.96813471319495" lon="8.428914577120379"><ele>42.666666666666664</ele><time>2026-05-02T10:44:16.999Z</time></trkpt><trkpt lat="39.96795739387794" lon="8.429089397299308"><ele>44.0</ele><time>2026-05-02T10:44:17.999Z</time></trkpt><trkpt lat="39.96777768847469" lon="8.429262949899611"><ele>44.0</ele><time>2026-05-02T10:44:18.999Z</time></trkpt><trkpt lat="39.96760001974603" lon="8.429437069799759"><ele>44.0</ele><time>2026-05-02T10:44:19.999Z</time></trkpt><trkpt lat="39.967426392233946" lon="8.429615711232444"><ele>44.0</ele><time>2026-05-02T10:44:20.999Z</time></trkpt><trkpt lat="39.96726219246391" lon="8.42980597867338"><ele>44.33333333333333</ele><time>2026-05-02T10:44:21.999Z</time></trkpt><trkpt lat="39.96711326898687" lon="8.430021014306265"><ele>44.666666666666664</ele><time>2026-05-02T10:44:22.999Z</time></trkpt><trkpt lat="39.966974975536175" lon="8.430250512154918"><ele>45.0</ele><time>2026-05-02T10:44:23.999Z</time></trkpt><trkpt lat="39.966848546810084" lon="8.430493867830183"><ele>45.5</ele><time>2026-05-02T10:44:24.999Z</time></trkpt><trkpt lat="39.966735132163265" lon="8.430748021707442"><ele>46.0</ele><time>2026-05-02T10:44:25.999Z</time></trkpt><trkpt lat="39.96662115552481" lon="8.431008096214082"><ele>46.0</ele><time>2026-05-02T10:44:26.999Z</time></trkpt><trkpt lat="39.96650795882551" lon="8.431268337606708"><ele>46.0</ele><time>2026-05-02T10:44:27.999Z</time></trkpt><trkpt lat="39.96639187298823" lon="8.431528111235831"><ele>47.0</ele><time>2026-05-02T10:44:28.999Z</time></trkpt><trkpt lat="39.96627407422472" lon="8.431788905817255"><ele>48.0</ele><time>2026-05-02T10:44:29.999Z</time></trkpt><trkpt lat="39.96615631135585" lon="8.432048959479893"><ele>49.5</ele><time>2026-05-02T10:44:30.999Z</time></trkpt><trkpt lat="39.96603923125275" lon="8.432308474133242"><ele>51.0</ele><time>2026-05-02T10:44:31.999Z</time></trkpt><trkpt lat="39.965923523962495" lon="8.432569458831601"><ele>50.5</ele><time>2026-05-02T10:44:32.999Z</time></trkpt><trkpt lat="39.965807667836984" lon="8.432833250332422"><ele>50.0</ele><time>2026-05-02T10:44:33.999Z</time></trkpt><trkpt lat="39.96569066602268" lon="8.433092555329072"><ele>51.5</ele><time>2026-05-02T10:44:34.999Z</time></trkpt><trkpt lat="39.96557822628901" lon="8.43335003504656"><ele>53.0</ele><time>2026-05-02T10:44:35.999Z</time></trkpt><trkpt lat="39.96547797575578" lon="8.433610045901439"><ele>53.66666666666667</ele><time>2026-05-02T10:44:36.999Z</time></trkpt><trkpt lat="39.9653977186746" lon="8.433877406843093"><ele>54.33333333333333</ele><time>2026-05-02T10:44:37.999Z</time></trkpt><trkpt lat="39.9653254623635" lon="8.434150286118811"><ele>55.0</ele><time>2026-05-02T10:44:38.999Z</time></trkpt><trkpt lat="39.9652672580571" lon="8.434424987667741"><ele>54.666666666666664</ele><time>2026-05-02T10:44:39.999Z</time></trkpt><trkpt lat="39.96522610788232" lon="8.434705469583829"><ele>54.33333333333333</ele><time>2026-05-02T10:44:40.999Z</time></trkpt><trkpt lat="39.96518931949866" lon="8.434986754550318"><ele>54.0</ele><time>2026-05-02T10:44:41.999Z</time></trkpt><trkpt lat="39.96515300069303" lon="8.435268418722966"><ele>53.33333333333333</ele><time>2026-05-02T10:44:42.999Z</time></trkpt><trkpt lat="39.96511632451801" lon="8.435546569897653"><ele>52.666666666666664</ele><time>2026-05-02T10:44:43.999Z</time></trkpt><trkpt lat="39.96507987118533" lon="8.435819993927588"><ele>52.0</ele><time>2026-05-02T10:44:44.998Z</time></trkpt><trkpt lat="39.96504151484054" lon="8.436096510103457"><ele>51.33333333333333</ele><time>2026-05-02T10:44:45.998Z</time></trkpt><trkpt lat="39.96498677574229" lon="8.436372446427173"><ele>50.66666666666667</ele><time>2026-05-02T10:44:46.998Z</time></trkpt><trkpt lat="39.964947849447285" lon="8.436654156487485"><ele>50.0</ele><time>2026-05-02T10:44:47.998Z</time></trkpt><trkpt lat="39.96492426200546" lon="8.436941808716263"><ele>50.0</ele><time>2026-05-02T10:44:48.998Z</time></trkpt><trkpt lat="39.96488376172592" lon="8.437225858217559"><ele>50.0</ele><time>2026-05-02T10:44:49.998Z</time></trkpt><trkpt lat="39.964842301931554" lon="8.437511638585544"><ele>50.0</ele><time>2026-05-02T10:44:50.998Z</time></trkpt><trkpt lat="39.96480076186037" lon="8.437797022635912"><ele>48.66666666666667</ele><time>2026-05-02T10:44:51.998Z</time></trkpt><trkpt lat="39.96476159471148" lon="8.438083747485264"><ele>47.333333333333336</ele><time>2026-05-02T10:44:52.998Z</time></trkpt><trkpt lat="39.964723581544135" lon="8.438373785204885"><ele>46.0</ele><time>2026-05-02T10:44:53.998Z</time></trkpt><trkpt lat="39.96469145058464" lon="8.438664698270498"><ele>44.0</ele><time>2026-05-02T10:44:54.998Z</time></trkpt><trkpt lat="39.96467056931218" lon="8.438957444396538"><ele>42.0</ele><time>2026-05-02T10:44:55.998Z</time></trkpt><trkpt lat="39.96465948574952" lon="8.439253015658567"><ele>42.0</ele><time>2026-05-02T10:44:56.998Z</time></trkpt><trkpt lat="39.964654940910464" lon="8.439550936526418"><ele>42.0</ele><time>2026-05-02T10:44:57.998Z</time></trkpt><trkpt lat="39.96465538674857" lon="8.439848219276108"><ele>41.5</ele><time>2026-05-02T10:44:58.998Z</time></trkpt><trkpt lat="39.964653421252926" lon="8.440145214047027"><ele>41.0</ele><time>2026-05-02T10:44:59.998Z</time></trkpt><trkpt lat="39.96465086440137" lon="8.440445486032969"><ele>40.0</ele><time>2026-05-02T10:45:00.998Z</time></trkpt><trkpt lat="39.964647588901386" lon="8.440744444458435"><ele>39.0</ele><time>2026-05-02T10:45:01.998Z</time></trkpt><trkpt lat="39.96464298382526" lon="8.441030342318738"><ele>38.0</ele><time>2026-05-02T10:45:02.998Z</time></trkpt><trkpt lat="39.96462770286175" lon="8.441302415449275"><ele>38.0</ele><time>2026-05-02T10:45:03.998Z</time></trkpt><trkpt lat="39.964589668127424" lon="8.44158025225584"><ele>38.0</ele><time>2026-05-02T10:45:05Z</time></trkpt><trkpt lat="39.96452154092074" lon="8.441852994131988"><ele>38.0</ele><time>2026-05-02T10:45:06Z</time></trkpt><trkpt lat="39.96441320873145" lon="8.442103034797702"><ele>37.0</ele><time>2026-05-02T10:45:07Z</time></trkpt><trkpt lat="39.964274746469286" lon="8.442330311769984"><ele>36.0</ele><time>2026-05-02T10:45:08Z</time></trkpt><trkpt lat="39.96411855863194" lon="8.442538580811146"><ele>35.0</ele><time>2026-05-02T10:45:09Z</time></trkpt><trkpt lat="39.9639541703114" lon="8.442743671790597"><ele>34.5</ele><time>2026-05-02T10:45:10Z</time></trkpt><trkpt lat="39.96379386830658" lon="8.442956183404949"><ele>34.0</ele><time>2026-05-02T10:45:11Z</time></trkpt><trkpt lat="39.963630145183025" lon="8.443168698550963"><ele>33.5</ele><time>2026-05-02T10:45:12Z</time></trkpt><trkpt lat="39.96346141554311" lon="8.443378466630284"><ele>33.0</ele><time>2026-05-02T10:45:13Z</time></trkpt><trkpt lat="39.96329406476867" lon="8.443591761718585"><ele>31.5</ele><time>2026-05-02T10:45:14Z</time></trkpt><trkpt lat="39.96312590227503" lon="8.443808147176208"><ele>30.0</ele><time>2026-05-02T10:45:15Z</time></trkpt><trkpt lat="39.96295714664697" lon="8.444023976357277"><ele>30.0</ele><time>2026-05-02T10:45:16Z</time></trkpt><trkpt lat="39.96279109515155" lon="8.444234920604002"><ele>30.0</ele><time>2026-05-02T10:45:17Z</time></trkpt><trkpt lat="39.96263572783012" lon="8.444449368522399"><ele>29.0</ele><time>2026-05-02T10:45:18Z</time></trkpt><trkpt lat="39.96250217493556" lon="8.444685212127396"><ele>28.0</ele><time>2026-05-02T10:45:19Z</time></trkpt><trkpt lat="39.9624001133005" lon="8.444945746467928"><ele>27.0</ele><time>2026-05-02T10:45:20Z</time></trkpt><trkpt lat="39.96233035044801" lon="8.445225526962423"><ele>27.0</ele><time>2026-05-02T10:45:21Z</time></trkpt><trkpt lat="39.962273412937776" lon="8.445513708445324"><ele>27.0</ele><time>2026-05-02T10:45:22Z</time></trkpt><trkpt lat="39.962206806037784" lon="8.44579945941214"><ele>27.0</ele><time>2026-05-02T10:45:23Z</time></trkpt><trkpt lat="39.96213549049046" lon="8.446085493529116"><ele>27.0</ele><time>2026-05-02T10:45:24Z</time></trkpt><trkpt lat="39.962067835706414" lon="8.44637228362095"><ele>27.5</ele><time>2026-05-02T10:45:25Z</time></trkpt><trkpt lat="39.96199970805824" lon="8.446661758861893"><ele>28.0</ele><time>2026-05-02T10:45:26Z</time></trkpt><trkpt lat="39.96193121300461" lon="8.446949360241788"><ele>29.5</ele><time>2026-05-02T10:45:27Z</time></trkpt><trkpt lat="39.9618615333357" lon="8.447237996538233"><ele>31.0</ele><time>2026-05-02T10:45:28Z</time></trkpt><trkpt lat="39.96179063902745" lon="8.447527611267526"><ele>31.0</ele><time>2026-05-02T10:45:29Z</time></trkpt><trkpt lat="39.96171946418777" lon="8.44781614554696"><ele>31.0</ele><time>2026-05-02T10:45:30Z</time></trkpt><trkpt lat="39.9616486440846" lon="8.448105274805895"><ele>29.0</ele><time>2026-05-02T10:45:31Z</time></trkpt><trkpt lat="39.961582120008536" lon="8.448394649988298"><ele>27.0</ele><time>2026-05-02T10:45:32Z</time></trkpt><trkpt lat="39.961514873772565" lon="8.44868228242461"><ele>27.333333333333336</ele><time>2026-05-02T10:45:33Z</time></trkpt><trkpt lat="39.96144488624438" lon="8.448966535282326"><ele>27.666666666666668</ele><time>2026-05-02T10:45:34Z</time></trkpt><trkpt lat="39.961379811284964" lon="8.449229646788396"><ele>28.0</ele><time>2026-05-02T10:45:35Z</time></trkpt><trkpt lat="39.961329501322844" lon="8.449428980458993"><ele>28.0</ele><time>2026-05-02T10:45:36Z</time></trkpt><trkpt lat="39.961290145247496" lon="8.449575684535931"><ele>27.999999999999996</ele><time>2026-05-02T10:45:37Z</time></trkpt><trkpt lat="39.96126183610444" lon="8.449675574127918"><ele>27.999999999999996</ele><time>2026-05-02T10:45:38Z</time></trkpt><trkpt lat="39.961227571683494" lon="8.449756451368797"><ele>28.0</ele><time>2026-05-02T10:45:40Z</time></trkpt><trkpt lat="39.96128185706373" lon="8.449685700743192"><ele>28.0</ele><time>2026-05-02T10:45:44.999Z</time></trkpt><trkpt lat="39.961328255149404" lon="8.449516773580289"><ele>28.0</ele><time>2026-05-02T10:45:45.999Z</time></trkpt><trkpt lat="39.96136123757065" lon="8.449359462682272"><ele>28.0</ele><time>2026-05-02T10:45:46.999Z</time></trkpt><trkpt lat="39.96139715145061" lon="8.449209690177348"><ele>28.0</ele><time>2026-05-02T10:45:47.999Z</time></trkpt><trkpt lat="39.96143494118536" lon="8.449040284452522"><ele>28.0</ele><time>2026-05-02T10:45:48.999Z</time></trkpt><trkpt lat="39.96147666701317" lon="8.44886079605319"><ele>27.799999999999997</ele><time>2026-05-02T10:45:49.999Z</time></trkpt><trkpt lat="39.96151910941554" lon="8.448698184317326"><ele>27.599999999999998</ele><time>2026-05-02T10:45:50.999Z</time></trkpt><trkpt lat="39.96155568452565" lon="8.448564221623947"><ele>27.400000000000002</ele><time>2026-05-02T10:45:51.999Z</time></trkpt><trkpt lat="39.96157837325852" lon="8.448456608963307"><ele>27.200000000000003</ele><time>2026-05-02T10:45:52.999Z</time></trkpt><trkpt lat="39.9615382647717" lon="8.448327087503785"><ele>27.0</ele><time>2026-05-02T10:45:54.999Z</time></trkpt><trkpt lat="39.961473823201175" lon="8.448279836998521"><ele>27.0</ele><time>2026-05-02T10:45:55.999Z</time></trkpt><trkpt lat="39.96137014337095" lon="8.448239881060942"><ele>27.0</ele><time>2026-05-02T10:45:56.999Z</time></trkpt><trkpt lat="39.961246059328694" lon="8.448190899197188"><ele>27.0</ele><time>2026-05-02T10:45:57.999Z</time></trkpt><trkpt lat="39.96111546788002" lon="8.448121488909848"><ele>27.0</ele><time>2026-05-02T10:45:58.999Z</time></trkpt><trkpt lat="39.9609728473834" lon="8.448047180321314"><ele>27.0</ele><time>2026-05-02T10:45:59.999Z</time></trkpt><trkpt lat="39.960830104150425" lon="8.447944128574962"><ele>27.0</ele><time>2026-05-02T10:46:00.999Z</time></trkpt><trkpt lat="39.96068336314254" lon="8.447858420278468"><ele>27.0</ele><time>2026-05-02T10:46:01.999Z</time></trkpt><trkpt lat="39.96052219830686" lon="8.44778626506242"><ele>27.0</ele><time>2026-05-02T10:46:02.999Z</time></trkpt><trkpt lat="39.960364650420104" lon="8.447693963074665"><ele>27.0</ele><time>2026-05-02T10:46:03.999Z</time></trkpt><trkpt lat="39.96021904224098" lon="8.447630299241773"><ele>27.0</ele><time>2026-05-02T10:46:04.999Z</time></trkpt><trkpt lat="39.960084416917866" lon="8.447594936884324"><ele>29.0</ele><time>2026-05-02T10:46:05.999Z</time></trkpt><trkpt lat="39.95995712939859" lon="8.44757914359343"><ele>31.0</ele><time>2026-05-02T10:46:06.999Z</time></trkpt><trkpt lat="39.95983422455457" lon="8.447584711269917"><ele>33.0</ele><time>2026-05-02T10:46:07.999Z</time></trkpt><trkpt lat="39.95971790681151" lon="8.447586621034164"><ele>35.0</ele><time>2026-05-02T10:46:08.999Z</time></trkpt><trkpt lat="39.959608579826124" lon="8.44752031842257"><ele>35.0</ele><time>2026-05-02T10:46:09.999Z</time></trkpt><trkpt lat="39.95949404812248" lon="8.447451750986504"><ele>35.0</ele><time>2026-05-02T10:46:10.999Z</time></trkpt><trkpt lat="39.959382853554835" lon="8.447372251947051"><ele>35.0</ele><time>2026-05-02T10:46:11.999Z</time></trkpt><trkpt lat="39.95926696240223" lon="8.44731090912564"><ele>35.0</ele><time>2026-05-02T10:46:12.999Z</time></trkpt><trkpt lat="39.95916585010636" lon="8.44722155504334"><ele>36.25</ele><time>2026-05-02T10:46:13.999Z</time></trkpt><trkpt lat="39.959054746774605" lon="8.447149350529957"><ele>37.5</ele><time>2026-05-02T10:46:14.999Z</time></trkpt><trkpt lat="39.95894432166914" lon="8.447075342452525"><ele>38.75</ele><time>2026-05-02T10:46:15.999Z</time></trkpt><trkpt lat="39.95884397173141" lon="8.446981025089368"><ele>40.0</ele><time>2026-05-02T10:46:16.999Z</time></trkpt><trkpt lat="39.95874675489617" lon="8.446883050387752"><ele>40.25</ele><time>2026-05-02T10:46:17.999Z</time></trkpt><trkpt lat="39.958645550405784" lon="8.446780519833146"><ele>40.5</ele><time>2026-05-02T10:46:18.999Z</time></trkpt><trkpt lat="39.958536997033676" lon="8.446670544051724"><ele>40.75</ele><time>2026-05-02T10:46:19.999Z</time></trkpt><trkpt lat="39.95841632436456" lon="8.446570928350479"><ele>41.0</ele><time>2026-05-02T10:46:20.999Z</time></trkpt><trkpt lat="39.95830077681573" lon="8.446446611404498"><ele>42.666666666666664</ele><time>2026-05-02T10:46:21.999Z</time></trkpt><trkpt lat="39.958181250217045" lon="8.446327373029087"><ele>44.333333333333336</ele><time>2026-05-02T10:46:22.999Z</time></trkpt><trkpt lat="39.95806610159961" lon="8.446192377459623"><ele>46.0</ele><time>2026-05-02T10:46:23.999Z</time></trkpt><trkpt lat="39.95794291572786" lon="8.44606446335636"><ele>46.333333333333336</ele><time>2026-05-02T10:46:24.999Z</time></trkpt><trkpt lat="39.95783049385501" lon="8.445922908892529"><ele>46.666666666666664</ele><time>2026-05-02T10:46:25.999Z</time></trkpt><trkpt lat="39.95773191936733" lon="8.445767908857386"><ele>47.0</ele><time>2026-05-02T10:46:26.999Z</time></trkpt><trkpt lat="39.9576708685821" lon="8.445592600982652"><ele>47.666666666666664</ele><time>2026-05-02T10:46:27.999Z</time></trkpt><trkpt lat="39.9576028037957" lon="8.44540692834099"><ele>48.33333333333333</ele><time>2026-05-02T10:46:28.999Z</time></trkpt><trkpt lat="39.95750602296519" lon="8.445231393394856"><ele>49.0</ele><time>2026-05-02T10:46:29.999Z</time></trkpt><trkpt lat="39.95741624828107" lon="8.445048451853408"><ele>50.0</ele><time>2026-05-02T10:46:30.999Z</time></trkpt><trkpt lat="39.957313705744674" lon="8.444870331533913"><ele>51.0</ele><time>2026-05-02T10:46:31.999Z</time></trkpt><trkpt lat="39.957206605346165" lon="8.444697816433214"><ele>52.0</ele><time>2026-05-02T10:46:32.999Z</time></trkpt><trkpt lat="39.957098025583555" lon="8.444521040367027"><ele>52.0</ele><time>2026-05-02T10:46:33.999Z</time></trkpt><trkpt lat="39.956990274144104" lon="8.444338861012746"><ele>52.0</ele><time>2026-05-02T10:46:34.999Z</time></trkpt><trkpt lat="39.95687644579488" lon="8.444152719867493"><ele>52.0</ele><time>2026-05-02T10:46:35.999Z</time></trkpt><trkpt lat="39.956760502833646" lon="8.443968082379376"><ele>52.666666666666664</ele><time>2026-05-02T10:46:36.999Z</time></trkpt><trkpt lat="39.956663174695635" lon="8.44377675210604"><ele>53.33333333333333</ele><time>2026-05-02T10:46:37.999Z</time></trkpt><trkpt lat="39.956550529830274" lon="8.44359303132606"><ele>54.0</ele><time>2026-05-02T10:46:38.999Z</time></trkpt><trkpt lat="39.956430769893565" lon="8.443397706036794"><ele>54.0</ele><time>2026-05-02T10:46:39.999Z</time></trkpt><trkpt lat="39.956298486437866" lon="8.443216290695485"><ele>54.0</ele><time>2026-05-02T10:46:40.999Z</time></trkpt><trkpt lat="39.9561783918262" lon="8.443019998016942"><ele>54.0</ele><time>2026-05-02T10:46:41.999Z</time></trkpt><trkpt lat="39.95605893064456" lon="8.442828432357187"><ele>53.66666666666667</ele><time>2026-05-02T10:46:42.999Z</time></trkpt><trkpt lat="39.95593935473037" lon="8.44262769820752"><ele>53.333333333333336</ele><time>2026-05-02T10:46:43.999Z</time></trkpt><trkpt lat="39.95581837317341" lon="8.442428480910262"><ele>53.0</ele><time>2026-05-02T10:46:44.999Z</time></trkpt><trkpt lat="39.95569581977939" lon="8.442231085466329"><ele>53.333333333333336</ele><time>2026-05-02T10:46:45.999Z</time></trkpt><trkpt lat="39.955574191836604" lon="8.442030835687742"><ele>53.66666666666667</ele><time>2026-05-02T10:46:46.999Z</time></trkpt><trkpt lat="39.95545051530165" lon="8.441829835350699"><ele>54.0</ele><time>2026-05-02T10:46:47.998Z</time></trkpt><trkpt lat="39.95532662141702" lon="8.441633425498203"><ele>54.0</ele><time>2026-05-02T10:46:48.998Z</time></trkpt><trkpt lat="39.95521470235189" lon="8.441427204337721"><ele>54.0</ele><time>2026-05-02T10:46:49.998Z</time></trkpt><trkpt lat="39.9550866276767" lon="8.441227740164624"><ele>54.0</ele><time>2026-05-02T10:46:50.998Z</time></trkpt><trkpt lat="39.95496181849006" lon="8.441023012089945"><ele>54.0</ele><time>2026-05-02T10:46:51.998Z</time></trkpt><trkpt lat="39.95482292433838" lon="8.440827880630248"><ele>54.0</ele><time>2026-05-02T10:46:52.998Z</time></trkpt><trkpt lat="39.95469862043508" lon="8.440611912561346"><ele>54.0</ele><time>2026-05-02T10:46:53.998Z</time></trkpt><trkpt lat="39.95459145520753" lon="8.440401434980737"><ele>54.0</ele><time>2026-05-02T10:46:54.998Z</time></trkpt><trkpt lat="39.95448634630391" lon="8.440186424230626"><ele>54.0</ele><time>2026-05-02T10:46:55.998Z</time></trkpt><trkpt lat="39.954396530740354" lon="8.440002002632912"><ele>54.0</ele><time>2026-05-02T10:46:56.998Z</time></trkpt><trkpt lat="39.954323940454394" lon="8.439824488407575"><ele>54.0</ele><time>2026-05-02T10:46:57.998Z</time></trkpt><trkpt lat="39.95426879543019" lon="8.43961942084681"><ele>54.0</ele><time>2026-05-02T10:46:58.998Z</time></trkpt><trkpt lat="39.954228267013754" lon="8.439402078677594"><ele>54.0</ele><time>2026-05-02T10:46:59.998Z</time></trkpt><trkpt lat="39.95414750532399" lon="8.43919833606559"><ele>54.33333333333333</ele><time>2026-05-02T10:47:00.998Z</time></trkpt><trkpt lat="39.95407942674525" lon="8.438978142173315"><ele>54.666666666666664</ele><time>2026-05-02T10:47:01.998Z</time></trkpt><trkpt lat="39.95400876974233" lon="8.438773276984657"><ele>55.0</ele><time>2026-05-02T10:47:02.998Z</time></trkpt><trkpt lat="39.95393534245308" lon="8.438589445931832"><ele>54.33333333333333</ele><time>2026-05-02T10:47:03.998Z</time></trkpt><trkpt lat="39.95384473510367" lon="8.438404149780064"><ele>53.66666666666667</ele><time>2026-05-02T10:47:04.998Z</time></trkpt><trkpt lat="39.95373306823537" lon="8.438220953401618"><ele>53.0</ele><time>2026-05-02T10:47:05.998Z</time></trkpt><trkpt lat="39.953615348929425" lon="8.438030972493136"><ele>53.0</ele><time>2026-05-02T10:47:06.998Z</time></trkpt><trkpt lat="39.953515368839504" lon="8.437822770441548"><ele>53.0</ele><time>2026-05-02T10:47:07.998Z</time></trkpt><trkpt lat="39.953404254753295" lon="8.437623736760589"><ele>53.0</ele><time>2026-05-02T10:47:08.998Z</time></trkpt><trkpt lat="39.953282310793256" lon="8.437451704611606"><ele>53.0</ele><time>2026-05-02T10:47:10Z</time></trkpt><trkpt lat="39.95318310118541" lon="8.43726480992952"><ele>53.0</ele><time>2026-05-02T10:47:11Z</time></trkpt><trkpt lat="39.953096908655986" lon="8.437059786236803"><ele>53.0</ele><time>2026-05-02T10:47:12Z</time></trkpt><trkpt lat="39.953014683985465" lon="8.436839048387236"><ele>53.0</ele><time>2026-05-02T10:47:13Z</time></trkpt><trkpt lat="39.95293759806574" lon="8.436610962806046"><ele>53.0</ele><time>2026-05-02T10:47:14Z</time></trkpt><trkpt lat="39.95286154013145" lon="8.436400341339581"><ele>53.0</ele><time>2026-05-02T10:47:15Z</time></trkpt><trkpt lat="39.95277571247887" lon="8.436204019605384"><ele>53.0</ele><time>2026-05-02T10:47:16Z</time></trkpt><trkpt lat="39.952677651962475" lon="8.436022957467102"><ele>53.0</ele><time>2026-05-02T10:47:17Z</time></trkpt><trkpt lat="39.95255790256804" lon="8.435855138010922"><ele>53.0</ele><time>2026-05-02T10:47:18Z</time></trkpt><trkpt lat="39.95243880727534" lon="8.43569171680846"><ele>53.0</ele><time>2026-05-02T10:47:19Z</time></trkpt><trkpt lat="39.95234095984583" lon="8.435546138242088"><ele>53.0</ele><time>2026-05-02T10:47:20Z</time></trkpt><trkpt lat="39.95226047846874" lon="8.43543260087368"><ele>53.0</ele><time>2026-05-02T10:47:21Z</time></trkpt><trkpt lat="39.95218068248027" lon="8.435356605306712"><ele>53.0</ele><time>2026-05-02T10:47:22Z</time></trkpt><trkpt lat="39.95209055427226" lon="8.435322773254066"><ele>52.75</ele><time>2026-05-02T10:47:23Z</time></trkpt><trkpt lat="39.95198669282962" lon="8.43532362691255"><ele>52.5</ele><time>2026-05-02T10:47:24Z</time></trkpt><trkpt lat="39.95186248841069" lon="8.435347077973004"><ele>52.25</ele><time>2026-05-02T10:47:25Z</time></trkpt><trkpt lat="39.95172229086164" lon="8.43532759019801"><ele>52.0</ele><time>2026-05-02T10:47:26Z</time></trkpt><trkpt lat="39.95157871498789" lon="8.435311959406725"><ele>52.0</ele><time>2026-05-02T10:47:27Z</time></trkpt><trkpt lat="39.951445002169514" lon="8.435273326888959"><ele>52.0</ele><time>2026-05-02T10:47:28Z</time></trkpt><trkpt lat="39.95131123998936" lon="8.435232776314042"><ele>52.0</ele><time>2026-05-02T10:47:29Z</time></trkpt><trkpt lat="39.95118552383374" lon="8.435120982577056"><ele>52.0</ele><time>2026-05-02T10:47:30Z</time></trkpt><trkpt lat="39.951092454480566" lon="8.435045380878057"><ele>52.0</ele><time>2026-05-02T10:47:31Z</time></trkpt><trkpt lat="39.95102508020265" lon="8.435013356612922"><ele>52.0</ele><time>2026-05-02T10:47:32Z</time></trkpt><trkpt lat="39.95097264643168" lon="8.434944032029083"><ele>52.0</ele><time>2026-05-02T10:47:34Z</time></trkpt><trkpt lat="39.95108904156513" lon="8.435037928507345"><ele>52.0</ele><time>2026-05-02T10:47:39Z</time></trkpt><trkpt lat="39.95116992968658" lon="8.435132049100902"><ele>52.0</ele><time>2026-05-02T10:47:40Z</time></trkpt><trkpt lat="39.95125106482299" lon="8.435191259288366"><ele>52.0</ele><time>2026-05-02T10:47:41Z</time></trkpt><trkpt lat="39.951300257096" lon="8.43526414897867"><ele>52.0</ele><time>2026-05-02T10:47:42.999Z</time></trkpt><trkpt lat="39.951226707244494" lon="8.435343461733233"><ele>52.0</ele><time>2026-05-02T10:47:44.999Z</time></trkpt><trkpt lat="39.95111768412129" lon="8.43533813991531"><ele>52.0</ele><time>2026-05-02T10:47:45.999Z</time></trkpt><trkpt lat="39.95099209491544" lon="8.435387050076624"><ele>52.0</ele><time>2026-05-02T10:47:46.999Z</time></trkpt><trkpt lat="39.95085686579678" lon="8.435446172790163"><ele>53.0</ele><time>2026-05-02T10:47:47.999Z</time></trkpt><trkpt lat="39.95070506696696" lon="8.435492716182383"><ele>54.0</ele><time>2026-05-02T10:47:48.999Z</time></trkpt><trkpt lat="39.95054529516059" lon="8.435524166367177"><ele>55.0</ele><time>2026-05-02T10:47:49.999Z</time></trkpt><trkpt lat="39.95038165953526" lon="8.435585869036963"><ele>55.0</ele><time>2026-05-02T10:47:50.999Z</time></trkpt><trkpt lat="39.95023093539845" lon="8.435690246330935"><ele>55.0</ele><time>2026-05-02T10:47:51.999Z</time></trkpt><trkpt lat="39.950077965355256" lon="8.435789977296999"><ele>55.0</ele><time>2026-05-02T10:47:52.999Z</time></trkpt><trkpt lat="39.949912386094304" lon="8.435871533147717"><ele>54.0</ele><time>2026-05-02T10:47:53.999Z</time></trkpt><trkpt lat="39.94975571471414" lon="8.435938342369148"><ele>53.0</ele><time>2026-05-02T10:47:54.999Z</time></trkpt><trkpt lat="39.949605364455834" lon="8.43601030796578"><ele>52.0</ele><time>2026-05-02T10:47:55.999Z</time></trkpt><trkpt lat="39.949461110611246" lon="8.436100206962669"><ele>52.0</ele><time>2026-05-02T10:47:56.999Z</time></trkpt><trkpt lat="39.949336792234284" lon="8.436217115076742"><ele>52.0</ele><time>2026-05-02T10:47:57.999Z</time></trkpt><trkpt lat="39.94923266304465" lon="8.436321294556455"><ele>52.0</ele><time>2026-05-02T10:47:58.999Z</time></trkpt><trkpt lat="39.94912300488894" lon="8.436457583368155"><ele>52.0</ele><time>2026-05-02T10:47:59.999Z</time></trkpt><trkpt lat="39.94899990075315" lon="8.43659626503128"><ele>51.666666666666664</ele><time>2026-05-02T10:48:00.999Z</time></trkpt><trkpt lat="39.94888895722238" lon="8.436748222592598"><ele>51.33333333333333</ele><time>2026-05-02T10:48:01.999Z</time></trkpt><trkpt lat="39.94878700239752" lon="8.436897583333163"><ele>51.0</ele><time>2026-05-02T10:48:02.999Z</time></trkpt><trkpt lat="39.94868424781598" lon="8.437055238135908"><ele>52.0</ele><time>2026-05-02T10:48:03.999Z</time></trkpt><trkpt lat="39.948594584024335" lon="8.437234984042485"><ele>53.0</ele><time>2026-05-02T10:48:04.999Z</time></trkpt><trkpt lat="39.94854592947842" lon="8.437407965593676"><ele>54.0</ele><time>2026-05-02T10:48:05.999Z</time></trkpt><trkpt lat="39.94850492424493" lon="8.437580117263359"><ele>55.0</ele><time>2026-05-02T10:48:06.999Z</time></trkpt><trkpt lat="39.948448992021945" lon="8.437761469540169"><ele>55.0</ele><time>2026-05-02T10:48:07.999Z</time></trkpt><trkpt lat="39.94840645449657" lon="8.43793664739984"><ele>55.0</ele><time>2026-05-02T10:48:08.999Z</time></trkpt><trkpt lat="39.94837446562098" lon="8.43806887000267"><ele>55.0</ele><time>2026-05-02T10:48:09.999Z</time></trkpt><trkpt lat="39.94832661080806" lon="8.438184572242838"><ele>55.0</ele><time>2026-05-02T10:48:10.999Z</time></trkpt><trkpt lat="39.948237223014296" lon="8.438282025744602"><ele>54.75</ele><time>2026-05-02T10:48:11.999Z</time></trkpt><trkpt lat="39.94814254503785" lon="8.438411094778273"><ele>54.5</ele><time>2026-05-02T10:48:12.999Z</time></trkpt><trkpt lat="39.948035835317704" lon="8.43854979729824"><ele>54.25</ele><time>2026-05-02T10:48:13.999Z</time></trkpt><trkpt lat="39.94791997183746" lon="8.438696356415903"><ele>54.0</ele><time>2026-05-02T10:48:14.999Z</time></trkpt><trkpt lat="39.94779937226152" lon="8.438839962902769"><ele>53.66666666666667</ele><time>2026-05-02T10:48:15.999Z</time></trkpt><trkpt lat="39.94767528047093" lon="8.438973171953466"><ele>53.333333333333336</ele><time>2026-05-02T10:48:16.999Z</time></trkpt><trkpt lat="39.947544823318694" lon="8.43909997227759"><ele>53.0</ele><time>2026-05-02T10:48:17.999Z</time></trkpt><trkpt lat="39.94743544570028" lon="8.439235435779631"><ele>53.0</ele><time>2026-05-02T10:48:18.999Z</time></trkpt><trkpt lat="39.947323112092626" lon="8.439357575380223"><ele>53.0</ele><time>2026-05-02T10:48:19.999Z</time></trkpt><trkpt lat="39.94718497088147" lon="8.439474013865375"><ele>53.0</ele><time>2026-05-02T10:48:20.999Z</time></trkpt><trkpt lat="39.947048493253135" lon="8.439610067618151"><ele>52.66666666666667</ele><time>2026-05-02T10:48:21.999Z</time></trkpt><trkpt lat="39.9469151486645" lon="8.43973981440659"><ele>52.33333333333333</ele><time>2026-05-02T10:48:22.999Z</time></trkpt><trkpt lat="39.94680295999783" lon="8.439874883264915"><ele>52.0</ele><time>2026-05-02T10:48:23.999Z</time></trkpt><trkpt lat="39.94668503850557" lon="8.439996220863522"><ele>52.0</ele><time>2026-05-02T10:48:24.999Z</time></trkpt><trkpt lat="39.946558719292376" lon="8.440112388640253"><ele>52.0</ele><time>2026-05-02T10:48:25.999Z</time></trkpt><trkpt lat="39.94645145197098" lon="8.440233111790285"><ele>52.0</ele><time>2026-05-02T10:48:26.999Z</time></trkpt><trkpt lat="39.946342206308394" lon="8.440341589993865"><ele>52.0</ele><time>2026-05-02T10:48:27.999Z</time></trkpt><trkpt lat="39.9462203400983" lon="8.440452051580527"><ele>52.5</ele><time>2026-05-02T10:48:28.999Z</time></trkpt><trkpt lat="39.94609757174295" lon="8.44054914588114"><ele>53.0</ele><time>2026-05-02T10:48:29.999Z</time></trkpt><trkpt lat="39.94597908198757" lon="8.440615157062812"><ele>53.5</ele><time>2026-05-02T10:48:30.999Z</time></trkpt><trkpt lat="39.94585622857452" lon="8.440632315428235"><ele>54.0</ele><time>2026-05-02T10:48:31.999Z</time></trkpt><trkpt lat="39.94571565796872" lon="8.440670689704579"><ele>54.0</ele><time>2026-05-02T10:48:32.999Z</time></trkpt><trkpt lat="39.945567424191914" lon="8.44072418681747"><ele>54.0</ele><time>2026-05-02T10:48:33.999Z</time></trkpt><trkpt lat="39.9454369517138" lon="8.440797503163436"><ele>54.0</ele><time>2026-05-02T10:48:34.999Z</time></trkpt><trkpt lat="39.945318908062234" lon="8.440814550185594"><ele>54.0</ele><time>2026-05-02T10:48:35.999Z</time></trkpt><trkpt lat="39.945227918533206" lon="8.440815452807007"><ele>54.0</ele><time>2026-05-02T10:48:36.999Z</time></trkpt><trkpt lat="39.94515188408676" lon="8.440774554429886"><ele>54.00000000000001</ele><time>2026-05-02T10:48:37.999Z</time></trkpt><trkpt lat="39.94506351751411" lon="8.440755905045032"><ele>54.00000000000001</ele><time>2026-05-02T10:48:38.999Z</time></trkpt><trkpt lat="39.94497163085392" lon="8.440793405256963"><ele>54.0</ele><time>2026-05-02T10:48:39.999Z</time></trkpt><trkpt lat="39.94485915800331" lon="8.44084928694698"><ele>54.0</ele><time>2026-05-02T10:48:40.999Z</time></trkpt><trkpt lat="39.94472854235602" lon="8.44093848787645"><ele>54.0</ele><time>2026-05-02T10:48:41.999Z</time></trkpt><trkpt lat="39.94458215526798" lon="8.441031895640682"><ele>54.0</ele><time>2026-05-02T10:48:42.999Z</time></trkpt><trkpt lat="39.94441663787135" lon="8.441078826398767"><ele>54.0</ele><time>2026-05-02T10:48:43.999Z</time></trkpt><trkpt lat="39.944242747023694" lon="8.44113316498573"><ele>53.33333333333333</ele><time>2026-05-02T10:48:44.999Z</time></trkpt><trkpt lat="39.944059230518825" lon="8.441190370032206"><ele>52.666666666666664</ele><time>2026-05-02T10:48:45.999Z</time></trkpt><trkpt lat="39.94388341610371" lon="8.441277407255244"><ele>52.0</ele><time>2026-05-02T10:48:46.999Z</time></trkpt><trkpt lat="39.94372023437418" lon="8.441319577206379"><ele>53.33333333333333</ele><time>2026-05-02T10:48:47.999Z</time></trkpt><trkpt lat="39.943569343066024" lon="8.441372685987687"><ele>54.66666666666667</ele><time>2026-05-02T10:48:48.999Z</time></trkpt><trkpt lat="39.94340593131381" lon="8.44138778718684"><ele>56.0</ele><time>2026-05-02T10:48:49.999Z</time></trkpt><trkpt lat="39.94323463467514" lon="8.441385743435077"><ele>56.0</ele><time>2026-05-02T10:48:50.998Z</time></trkpt><trkpt lat="39.943069207481045" lon="8.441402933881934"><ele>56.0</ele><time>2026-05-02T10:48:51.998Z</time></trkpt><trkpt lat="39.94290622472683" lon="8.441449128833744"><ele>56.0</ele><time>2026-05-02T10:48:52.998Z</time></trkpt><trkpt lat="39.94274549400396" lon="8.441504678415013"><ele>56.0</ele><time>2026-05-02T10:48:53.998Z</time></trkpt><trkpt lat="39.94260646383727" lon="8.441568554233381"><ele>56.0</ele><time>2026-05-02T10:48:54.998Z</time></trkpt><trkpt lat="39.94246997572695" lon="8.441672959786361"><ele>56.0</ele><time>2026-05-02T10:48:55.998Z</time></trkpt><trkpt lat="39.94231030947259" lon="8.44177561374751"><ele>55.66666666666667</ele><time>2026-05-02T10:48:56.998Z</time></trkpt><trkpt lat="39.942147986546495" lon="8.441909929024215"><ele>55.33333333333333</ele><time>2026-05-02T10:48:57.998Z</time></trkpt><trkpt lat="39.9420066807289" lon="8.442051346724842"><ele>55.0</ele><time>2026-05-02T10:48:58.998Z</time></trkpt><trkpt lat="39.94185656398563" lon="8.442105982926714"><ele>56.25</ele><time>2026-05-02T10:48:59.998Z</time></trkpt><trkpt lat="39.941715850998754" lon="8.442158553351538"><ele>57.5</ele><time>2026-05-02T10:49:00.998Z</time></trkpt><trkpt lat="39.94157632927383" lon="8.442208243085902"><ele>58.75</ele><time>2026-05-02T10:49:01.998Z</time></trkpt><trkpt lat="39.94145459067271" lon="8.442259939703046"><ele>60.0</ele><time>2026-05-02T10:49:02.998Z</time></trkpt><trkpt lat="39.94135993300637" lon="8.442336828574293"><ele>60.0</ele><time>2026-05-02T10:49:03.998Z</time></trkpt><trkpt lat="39.941271081205954" lon="8.442415904065312"><ele>60.0</ele><time>2026-05-02T10:49:04.998Z</time></trkpt><trkpt lat="39.94117387214286" lon="8.442534576431454"><ele>60.0</ele><time>2026-05-02T10:49:05.998Z</time></trkpt><trkpt lat="39.941089003425745" lon="8.442636170165656"><ele>60.0</ele><time>2026-05-02T10:49:06.998Z</time></trkpt><trkpt lat="39.941032583886575" lon="8.442733964119265"><ele>60.0</ele><time>2026-05-02T10:49:07.998Z</time></trkpt><trkpt lat="39.94098987959976" lon="8.442858761249726"><ele>60.0</ele><time>2026-05-02T10:49:08.998Z</time></trkpt><trkpt lat="39.940927665655714" lon="8.443013645568493"><ele>60.0</ele><time>2026-05-02T10:49:09.998Z</time></trkpt><trkpt lat="39.94082695599021" lon="8.443120156620504"><ele>60.0</ele><time>2026-05-02T10:49:10.998Z</time></trkpt><trkpt lat="39.9407163924495" lon="8.443222523450439"><ele>59.75</ele><time>2026-05-02T10:49:11.998Z</time></trkpt><trkpt lat="39.94062608157348" lon="8.443367217093662"><ele>59.5</ele><time>2026-05-02T10:49:12.998Z</time></trkpt><trkpt lat="39.94052944717961" lon="8.443517089094454"><ele>59.25</ele><time>2026-05-02T10:49:13.998Z</time></trkpt><trkpt lat="39.94043117892448" lon="8.44367200166032"><ele>59.0</ele><time>2026-05-02T10:49:14.998Z</time></trkpt><trkpt lat="39.940320979776466" lon="8.443795160012087"><ele>59.75</ele><time>2026-05-02T10:49:16Z</time></trkpt><trkpt lat="39.94023254438416" lon="8.443934840741047"><ele>60.5</ele><time>2026-05-02T10:49:17Z</time></trkpt><trkpt lat="39.94013275561754" lon="8.444033169886593"><ele>61.25</ele><time>2026-05-02T10:49:18Z</time></trkpt><trkpt lat="39.94001763413166" lon="8.444069119203442"><ele>62.0</ele><time>2026-05-02T10:49:19Z</time></trkpt><trkpt lat="39.939930132331384" lon="8.444171331986604"><ele>60.5</ele><time>2026-05-02T10:49:20Z</time></trkpt><trkpt lat="39.93983879009847" lon="8.444275633975892"><ele>59.0</ele><time>2026-05-02T10:49:21Z</time></trkpt><trkpt lat="39.93975082501951" lon="8.444412013343989"><ele>57.5</ele><time>2026-05-02T10:49:22Z</time></trkpt><trkpt lat="39.93965321202368" lon="8.444521301849704"><ele>56.0</ele><time>2026-05-02T10:49:23Z</time></trkpt><trkpt lat="39.93957588698345" lon="8.444607310467962"><ele>57.0</ele><time>2026-05-02T10:49:24Z</time></trkpt><trkpt lat="39.93952979903437" lon="8.444705117475632"><ele>58.0</ele><time>2026-05-02T10:49:25Z</time></trkpt><trkpt lat="39.939448329811576" lon="8.44481151031739"><ele>59.0</ele><time>2026-05-02T10:49:26Z</time></trkpt><trkpt lat="39.939371451155985" lon="8.44496097620667"><ele>60.0</ele><time>2026-05-02T10:49:27Z</time></trkpt><trkpt lat="39.939341726601995" lon="8.445149401553243"><ele>59.66666666666667</ele><time>2026-05-02T10:49:28Z</time></trkpt><trkpt lat="39.939199046463116" lon="8.445280419406698"><ele>59.333333333333336</ele><time>2026-05-02T10:49:29Z</time></trkpt><trkpt lat="39.93910409018182" lon="8.445440342679246"><ele>59.0</ele><time>2026-05-02T10:49:30Z</time></trkpt><trkpt lat="39.93901585565808" lon="8.445589339277483"><ele>59.0</ele><time>2026-05-02T10:49:31Z</time></trkpt><trkpt lat="39.938948662775594" lon="8.445699193554718"><ele>59.00000000000001</ele><time>2026-05-02T10:49:32Z</time></trkpt><trkpt lat="39.938898530732175" lon="8.445779709000188"><ele>59.00000000000001</ele><time>2026-05-02T10:49:33Z</time></trkpt><trkpt lat="39.938794334981246" lon="8.445825986530945"><ele>59.0</ele><time>2026-05-02T10:49:35Z</time></trkpt><trkpt lat="39.938685778427555" lon="8.44582620270098"><ele>59.0</ele><time>2026-05-02T10:49:36Z</time></trkpt><trkpt lat="39.93855854476655" lon="8.44585003533774"><ele>59.0</ele><time>2026-05-02T10:49:37Z</time></trkpt><trkpt lat="39.938430742579584" lon="8.44588036599114"><ele>59.0</ele><time>2026-05-02T10:49:38Z</time></trkpt><trkpt lat="39.93831999853799" lon="8.445911456367378"><ele>59.0</ele><time>2026-05-02T10:49:39Z</time></trkpt><trkpt lat="39.93820829105155" lon="8.445964339484114"><ele>59.0</ele><time>2026-05-02T10:49:40Z</time></trkpt><trkpt lat="39.93808554764165" lon="8.446027181238414"><ele>58.400000000000006</ele><time>2026-05-02T10:49:41Z</time></trkpt><trkpt lat="39.93795872797945" lon="8.446078443857127"><ele>57.800000000000004</ele><time>2026-05-02T10:49:42Z</time></trkpt><trkpt lat="39.9378452548331" lon="8.446100376724893"><ele>57.199999999999996</ele><time>2026-05-02T10:49:43Z</time></trkpt><trkpt lat="39.93774719766591" lon="8.446107632966434"><ele>56.599999999999994</ele><time>2026-05-02T10:49:44Z</time></trkpt><trkpt lat="39.937671641886276" lon="8.446113633435594"><ele>56.0</ele><time>2026-05-02T10:49:45Z</time></trkpt><trkpt lat="39.93755664930791" lon="8.44615362178944"><ele>56.199999999999996</ele><time>2026-05-02T10:49:47Z</time></trkpt><trkpt lat="39.937498108375145" lon="8.446200627031347"><ele>56.39999999999999</ele><time>2026-05-02T10:49:47.999Z</time></trkpt><trkpt lat="39.93744563372736" lon="8.446278949637568"><ele>56.6</ele><time>2026-05-02T10:49:48.999Z</time></trkpt><trkpt lat="39.93738080660292" lon="8.446398207539412"><ele>56.8</ele><time>2026-05-02T10:49:49.999Z</time></trkpt><trkpt lat="39.93728988068796" lon="8.446544636470879"><ele>57.0</ele><time>2026-05-02T10:49:50.999Z</time></trkpt><trkpt lat="39.937179610003334" lon="8.446702763782048"><ele>57.0</ele><time>2026-05-02T10:49:51.999Z</time></trkpt><trkpt lat="39.937067175060726" lon="8.446861177089653"><ele>57.0</ele><time>2026-05-02T10:49:52.999Z</time></trkpt><trkpt lat="39.936954820518416" lon="8.44703028567264"><ele>57.0</ele><time>2026-05-02T10:49:53.999Z</time></trkpt><trkpt lat="39.93684634391638" lon="8.447212885038006"><ele>57.33333333333333</ele><time>2026-05-02T10:49:54.999Z</time></trkpt><trkpt lat="39.936739152995614" lon="8.447397209149962"><ele>57.666666666666664</ele><time>2026-05-02T10:49:55.999Z</time></trkpt><trkpt lat="39.936627453277126" lon="8.44756422197567"><ele>58.0</ele><time>2026-05-02T10:49:56.999Z</time></trkpt><trkpt lat="39.93650275739444" lon="8.447741967187143"><ele>58.0</ele><time>2026-05-02T10:49:57.999Z</time></trkpt><trkpt lat="39.936365022958256" lon="8.447936268217319"><ele>58.0</ele><time>2026-05-02T10:49:58.999Z</time></trkpt><trkpt lat="39.93622356213141" lon="8.448141941684806"><ele>58.0</ele><time>2026-05-02T10:49:59.999Z</time></trkpt><trkpt lat="39.936078392572604" lon="8.448351630959179"><ele>59.5</ele><time>2026-05-02T10:50:00.999Z</time></trkpt><trkpt lat="39.93592533302988" lon="8.448560832443267"><ele>61.0</ele><time>2026-05-02T10:50:01.999Z</time></trkpt><trkpt lat="39.93576832535974" lon="8.448776752706078"><ele>61.5</ele><time>2026-05-02T10:50:02.999Z</time></trkpt><trkpt lat="39.93561009710117" lon="8.448995728508446"><ele>62.0</ele><time>2026-05-02T10:50:03.999Z</time></trkpt><trkpt lat="39.935453861605595" lon="8.449220114362802"><ele>62.0</ele><time>2026-05-02T10:50:04.999Z</time></trkpt><trkpt lat="39.935306798933986" lon="8.449436819393439"><ele>62.0</ele><time>2026-05-02T10:50:05.999Z</time></trkpt><trkpt lat="39.93519283632586" lon="8.44960810782174"><ele>62.0</ele><time>2026-05-02T10:50:06.999Z</time></trkpt><trkpt lat="39.93511114063626" lon="8.449730402237462"><ele>61.75</ele><time>2026-05-02T10:50:07.999Z</time></trkpt><trkpt lat="39.9350498026753" lon="8.449828220505909"><ele>61.5</ele><time>2026-05-02T10:50:08.999Z</time></trkpt><trkpt lat="39.934982416301025" lon="8.449884215927634"><ele>61.25</ele><time>2026-05-02T10:50:10.999Z</time></trkpt><trkpt lat="39.93486664450243" lon="8.449750016461177"><ele>61.0</ele><time>2026-05-02T10:50:12.999Z</time></trkpt><trkpt lat="39.934778968975074" lon="8.44962025037356"><ele>60.666666666666664</ele><time>2026-05-02T10:50:13.999Z</time></trkpt><trkpt lat="39.93465838504618" lon="8.44948447182992"><ele>60.33333333333333</ele><time>2026-05-02T10:50:14.999Z</time></trkpt><trkpt lat="39.934518215934055" lon="8.449338483589356"><ele>60.0</ele><time>2026-05-02T10:50:15.999Z</time></trkpt><trkpt lat="39.93437401455024" lon="8.449181714610715"><ele>60.0</ele><time>2026-05-02T10:50:16.999Z</time></trkpt><trkpt lat="39.93423013789593" lon="8.449007721594704"><ele>60.0</ele><time>2026-05-02T10:50:17.999Z</time></trkpt><trkpt lat="39.93409210602644" lon="8.44883812001859"><ele>60.0</ele><time>2026-05-02T10:50:18.999Z</time></trkpt><trkpt lat="39.93393803902853" lon="8.448675962451606"><ele>59.66666666666667</ele><time>2026-05-02T10:50:19.999Z</time></trkpt><trkpt lat="39.9337997457008" lon="8.448534426592861"><ele>59.333333333333336</ele><time>2026-05-02T10:50:20.999Z</time></trkpt><trkpt lat="39.93368885844749" lon="8.44840390425806"><ele>59.0</ele><time>2026-05-02T10:50:21.999Z</time></trkpt><trkpt lat="39.933607462592896" lon="8.448277464191749"><ele>59.00000000000001</ele><time>2026-05-02T10:50:22.999Z</time></trkpt><trkpt lat="39.93354473718639" lon="8.44816942667129"><ele>59.0</ele><time>2026-05-02T10:50:23.999Z</time></trkpt><trkpt lat="39.93348671961771" lon="8.44809061481769"><ele>59.0</ele><time>2026-05-02T10:50:24.999Z</time></trkpt><trkpt lat="39.93343376699609" lon="8.448030275731478"><ele>59.0</ele><time>2026-05-02T10:50:25.999Z</time></trkpt><trkpt lat="39.93335666049905" lon="8.447992506764402"><ele>59.00000000000001</ele><time>2026-05-02T10:50:28.999Z</time></trkpt><trkpt lat="39.93328440475903" lon="8.447999082845849"><ele>59.0</ele><time>2026-05-02T10:50:29.999Z</time></trkpt><trkpt lat="39.933184908211004" lon="8.448067745723893"><ele>59.0</ele><time>2026-05-02T10:50:30.999Z</time></trkpt><trkpt lat="39.93307355104778" lon="8.448177539643863"><ele>59.0</ele><time>2026-05-02T10:50:31.999Z</time></trkpt><trkpt lat="39.93293736750382" lon="8.448294597545067"><ele>59.0</ele><time>2026-05-02T10:50:32.999Z</time></trkpt><trkpt lat="39.93278655400641" lon="8.448407394429204"><ele>59.0</ele><time>2026-05-02T10:50:33.999Z</time></trkpt><trkpt lat="39.932626350357666" lon="8.448531649887451"><ele>59.0</ele><time>2026-05-02T10:50:34.999Z</time></trkpt><trkpt lat="39.93246199725535" lon="8.448663854789245"><ele>59.0</ele><time>2026-05-02T10:50:35.999Z</time></trkpt><trkpt lat="39.93229003812812" lon="8.4488011434855"><ele>57.333333333333336</ele><time>2026-05-02T10:50:36.999Z</time></trkpt><trkpt lat="39.93211369058129" lon="8.448944787179764"><ele>55.66666666666667</ele><time>2026-05-02T10:50:37.999Z</time></trkpt><trkpt lat="39.93194222430688" lon="8.449113368281052"><ele>54.0</ele><time>2026-05-02T10:50:38.999Z</time></trkpt><trkpt lat="39.93178611034585" lon="8.449322473631574"><ele>51.5</ele><time>2026-05-02T10:50:39.999Z</time></trkpt><trkpt lat="39.931657449730125" lon="8.44957370291256"><ele>49.0</ele><time>2026-05-02T10:50:40.999Z</time></trkpt><trkpt lat="39.9315594392709" lon="8.449849764670425"><ele>48.0</ele><time>2026-05-02T10:50:41.999Z</time></trkpt><trkpt lat="39.9314920737202" lon="8.450144008490847"><ele>47.0</ele><time>2026-05-02T10:50:42.999Z</time></trkpt><trkpt lat="39.93145160493434" lon="8.450444442805646"><ele>46.5</ele><time>2026-05-02T10:50:43.999Z</time></trkpt><trkpt lat="39.93141837796399" lon="8.450744448117337"><ele>46.0</ele><time>2026-05-02T10:50:44.999Z</time></trkpt><trkpt lat="39.93137271092503" lon="8.451042529263917"><ele>47.0</ele><time>2026-05-02T10:50:45.999Z</time></trkpt><trkpt lat="39.93131328910605" lon="8.45133491126276"><ele>48.0</ele><time>2026-05-02T10:50:46.999Z</time></trkpt><trkpt lat="39.93121667125014" lon="8.451610316899565"><ele>48.0</ele><time>2026-05-02T10:50:47.999Z</time></trkpt><trkpt lat="39.93109983959237" lon="8.451864944701002"><ele>48.0</ele><time>2026-05-02T10:50:48.999Z</time></trkpt><trkpt lat="39.930961254696086" lon="8.452111387140949"><ele>41.5</ele><time>2026-05-02T10:50:49.999Z</time></trkpt><trkpt lat="39.930817362301774" lon="8.452356991644091"><ele>35.0</ele><time>2026-05-02T10:50:50.999Z</time></trkpt><trkpt lat="39.93068101477917" lon="8.452615751758099"><ele>35.0</ele><time>2026-05-02T10:50:51.999Z</time></trkpt><trkpt lat="39.930533485359085" lon="8.452865277637676"><ele>35.0</ele><time>2026-05-02T10:50:52.999Z</time></trkpt><trkpt lat="39.93038600816456" lon="8.453120720298394"><ele>35.5</ele><time>2026-05-02T10:50:53.999Z</time></trkpt><trkpt lat="39.93023761938522" lon="8.45337661798447"><ele>36.0</ele><time>2026-05-02T10:50:54.999Z</time></trkpt><trkpt lat="39.93009077900693" lon="8.453634743451627"><ele>32.0</ele><time>2026-05-02T10:50:55.998Z</time></trkpt><trkpt lat="39.92993711255121" lon="8.453871048226075"><ele>28.0</ele><time>2026-05-02T10:50:56.998Z</time></trkpt><trkpt lat="39.92981690235816" lon="8.454136254399383"><ele>28.0</ele><time>2026-05-02T10:50:57.998Z</time></trkpt><trkpt lat="39.9296957799839" lon="8.45438624021281"><ele>28.0</ele><time>2026-05-02T10:50:58.998Z</time></trkpt><trkpt lat="39.92957769607786" lon="8.454620212457812"><ele>28.0</ele><time>2026-05-02T10:50:59.998Z</time></trkpt><trkpt lat="39.92947621828594" lon="8.454845084095702"><ele>26.666666666666668</ele><time>2026-05-02T10:51:00.998Z</time></trkpt><trkpt lat="39.92938701887316" lon="8.455042836342498"><ele>25.333333333333336</ele><time>2026-05-02T10:51:01.998Z</time></trkpt><trkpt lat="39.929325865298786" lon="8.455221479990701"><ele>24.0</ele><time>2026-05-02T10:51:02.998Z</time></trkpt><trkpt lat="39.929256266519936" lon="8.455360530458712"><ele>23.0</ele><time>2026-05-02T10:51:03.998Z</time></trkpt><trkpt lat="39.92917549615525" lon="8.455466464768138"><ele>22.0</ele><time>2026-05-02T10:51:04.998Z</time></trkpt><trkpt lat="39.9290823419065" lon="8.455506995641118"><ele>21.0</ele><time>2026-05-02T10:51:05.998Z</time></trkpt><trkpt lat="39.928995938090694" lon="8.455519240133022"><ele>20.0</ele><time>2026-05-02T10:51:06.998Z</time></trkpt><trkpt lat="39.928900229142734" lon="8.45549691026665"><ele>19.0</ele><time>2026-05-02T10:51:07.998Z</time></trkpt><trkpt lat="39.9287703494278" lon="8.45545333772611"><ele>19.0</ele><time>2026-05-02T10:51:08.998Z</time></trkpt><trkpt lat="39.9286286448494" lon="8.455365141872745"><ele>19.0</ele><time>2026-05-02T10:51:09.998Z</time></trkpt><trkpt lat="39.92845629259214" lon="8.45529682561987"><ele>19.0</ele><time>2026-05-02T10:51:10.998Z</time></trkpt><trkpt lat="39.92826334449592" lon="8.455223412957215"><ele>18.666666666666664</ele><time>2026-05-02T10:51:11.998Z</time></trkpt><trkpt lat="39.928051730682775" lon="8.455144912238046"><ele>18.333333333333332</ele><time>2026-05-02T10:51:12.998Z</time></trkpt><trkpt lat="39.92783390306619" lon="8.4550570271217"><ele>18.0</ele><time>2026-05-02T10:51:13.998Z</time></trkpt><trkpt lat="39.92760161569089" lon="8.454983793250639"><ele>17.0</ele><time>2026-05-02T10:51:14.998Z</time></trkpt><trkpt lat="39.92736884837663" lon="8.454896230234"><ele>16.0</ele><time>2026-05-02T10:51:15.998Z</time></trkpt><trkpt lat="39.92714051597148" lon="8.454807895192843"><ele>16.0</ele><time>2026-05-02T10:51:16.998Z</time></trkpt><trkpt lat="39.926910578615974" lon="8.45472161269767"><ele>16.0</ele><time>2026-05-02T10:51:17.998Z</time></trkpt><trkpt lat="39.92667867667743" lon="8.454645006112239"><ele>15.0</ele><time>2026-05-02T10:51:18.998Z</time></trkpt><trkpt lat="39.926442607570685" lon="8.45459962428301"><ele>14.0</ele><time>2026-05-02T10:51:19.998Z</time></trkpt><trkpt lat="39.92620195049448" lon="8.454589420380264"><ele>14.0</ele><time>2026-05-02T10:51:20.998Z</time></trkpt><trkpt lat="39.92595875942082" lon="8.454573073435622"><ele>14.0</ele><time>2026-05-02T10:51:22Z</time></trkpt><trkpt lat="39.925727173636275" lon="8.454525595694559"><ele>13.333333333333334</ele><time>2026-05-02T10:51:23Z</time></trkpt><trkpt lat="39.92550679521573" lon="8.454465569424904"><ele>12.666666666666668</ele><time>2026-05-02T10:51:24Z</time></trkpt><trkpt lat="39.925306105618844" lon="8.454343175948747"><ele>12.0</ele><time>2026-05-02T10:51:25Z</time></trkpt><trkpt lat="39.925113580318545" lon="8.454175210308728"><ele>11.0</ele><time>2026-05-02T10:51:26Z</time></trkpt><trkpt lat="39.92491547339962" lon="8.454005240679995"><ele>10.0</ele><time>2026-05-02T10:51:27Z</time></trkpt><trkpt lat="39.92470707090042" lon="8.453849624477405"><ele>12.0</ele><time>2026-05-02T10:51:28Z</time></trkpt><trkpt lat="39.92451125252656" lon="8.453662563578256"><ele>14.0</ele><time>2026-05-02T10:51:29Z</time></trkpt><trkpt lat="39.92430136434982" lon="8.453500665819817"><ele>12.5</ele><time>2026-05-02T10:51:30Z</time></trkpt><trkpt lat="39.924083441979235" lon="8.453362952021084"><ele>11.0</ele><time>2026-05-02T10:51:31Z</time></trkpt><trkpt lat="39.92387718225759" lon="8.453193261829096"><ele>11.0</ele><time>2026-05-02T10:51:32Z</time></trkpt><trkpt lat="39.9236643395842" lon="8.45304103215459"><ele>11.0</ele><time>2026-05-02T10:51:33Z</time></trkpt><trkpt lat="39.92345455902823" lon="8.452890992518588"><ele>9.5</ele><time>2026-05-02T10:51:34Z</time></trkpt><trkpt lat="39.9232431329086" lon="8.452739064003742"><ele>8.0</ele><time>2026-05-02T10:51:35Z</time></trkpt><trkpt lat="39.92302566447401" lon="8.452594438332904"><ele>8.0</ele><time>2026-05-02T10:51:36Z</time></trkpt><trkpt lat="39.92282043153689" lon="8.452424775278281"><ele>8.0</ele><time>2026-05-02T10:51:37Z</time></trkpt><trkpt lat="39.92262000482367" lon="8.452256269506686"><ele>8.0</ele><time>2026-05-02T10:51:38Z</time></trkpt><trkpt lat="39.92242451913127" lon="8.452087362131895"><ele>8.0</ele><time>2026-05-02T10:51:39Z</time></trkpt><trkpt lat="39.92223158950949" lon="8.451914503308524"><ele>8.0</ele><time>2026-05-02T10:51:40Z</time></trkpt><trkpt lat="39.922038105065255" lon="8.451743810221807"><ele>8.0</ele><time>2026-05-02T10:51:41Z</time></trkpt><trkpt lat="39.92184326807428" lon="8.451570558443246"><ele>8.0</ele><time>2026-05-02T10:51:42Z</time></trkpt><trkpt lat="39.92164598159982" lon="8.451399538090723"><ele>8.0</ele><time>2026-05-02T10:51:43Z</time></trkpt><trkpt lat="39.92144840264686" lon="8.451226397581799"><ele>8.0</ele><time>2026-05-02T10:51:44Z</time></trkpt><trkpt lat="39.9212599272946" lon="8.451062034401167"><ele>8.0</ele><time>2026-05-02T10:51:45Z</time></trkpt><trkpt lat="39.921103556338565" lon="8.450930643156541"><ele>8.0</ele><time>2026-05-02T10:51:46Z</time></trkpt><trkpt lat="39.920960417580396" lon="8.450840217525196"><ele>7.666666666666666</ele><time>2026-05-02T10:51:47Z</time></trkpt><trkpt lat="39.92081314679534" lon="8.450801753168605"><ele>7.333333333333334</ele><time>2026-05-02T10:51:48Z</time></trkpt><trkpt lat="39.92065630555974" lon="8.450821120844994"><ele>7.0</ele><time>2026-05-02T10:51:49Z</time></trkpt><trkpt lat="39.92050328846654" lon="8.450900762073537"><ele>7.0</ele><time>2026-05-02T10:51:50Z</time></trkpt><trkpt lat="39.92035346300117" lon="8.451030752196882"><ele>7.0</ele><time>2026-05-02T10:51:51Z</time></trkpt><trkpt lat="39.92020626294559" lon="8.45117977632067"><ele>7.0</ele><time>2026-05-02T10:51:52Z</time></trkpt><trkpt lat="39.92006456818836" lon="8.45129482135246"><ele>6.5</ele><time>2026-05-02T10:51:52.999Z</time></trkpt><trkpt lat="39.91992829123695" lon="8.451377008810145"><ele>6.0</ele><time>2026-05-02T10:51:53.999Z</time></trkpt><trkpt lat="39.91981483542817" lon="8.45140156632396"><ele>5.5</ele><time>2026-05-02T10:51:54.999Z</time></trkpt><trkpt lat="39.919707079451" lon="8.451413813117211"><ele>5.0</ele><time>2026-05-02T10:51:55.999Z</time></trkpt><trkpt lat="39.91961285789404" lon="8.451380242445335"><ele>5.0</ele><time>2026-05-02T10:51:56.999Z</time></trkpt><trkpt lat="39.91952041284407" lon="8.451376288310735"><ele>5.0</ele><time>2026-05-02T10:51:57.999Z</time></trkpt><trkpt lat="39.91944674599754" lon="8.451334003479982"><ele>5.0</ele><time>2026-05-02T10:51:58.999Z</time></trkpt><trkpt lat="39.91936866459985" lon="8.451307693262253"><ele>5.0</ele><time>2026-05-02T10:52:00.999Z</time></trkpt><trkpt lat="39.91960171720475" lon="8.45143212515149"><ele>5.0</ele><time>2026-05-02T10:52:06.999Z</time></trkpt><trkpt lat="39.91973121268094" lon="8.451440778160627"><ele>5.0</ele><time>2026-05-02T10:52:07.999Z</time></trkpt><trkpt lat="39.919888245501056" lon="8.451435012848197"><ele>5.0</ele><time>2026-05-02T10:52:08.999Z</time></trkpt><trkpt lat="39.920010614952055" lon="8.451373499594027"><ele>5.0</ele><time>2026-05-02T10:52:09.999Z</time></trkpt><trkpt lat="39.9200949053858" lon="8.451307940415793"><ele>5.4</ele><time>2026-05-02T10:52:10.999Z</time></trkpt><trkpt lat="39.920176025194046" lon="8.451219058047089"><ele>5.8</ele><time>2026-05-02T10:52:11.999Z</time></trkpt><trkpt lat="39.92025181246722" lon="8.451177078587733"><ele>6.199999999999999</ele><time>2026-05-02T10:52:12.999Z</time></trkpt><trkpt lat="39.920299167709246" lon="8.451272822599561"><ele>6.6</ele><time>2026-05-02T10:52:15.999Z</time></trkpt><trkpt lat="39.92024422231063" lon="8.451411821300397"><ele>7.0</ele><time>2026-05-02T10:52:17.999Z</time></trkpt><trkpt lat="39.92016105946054" lon="8.451508906144854"><ele>7.333333333333334</ele><time>2026-05-02T10:52:18.999Z</time></trkpt><trkpt lat="39.92007428475043" lon="8.451645178900941"><ele>7.666666666666666</ele><time>2026-05-02T10:52:19.999Z</time></trkpt><trkpt lat="39.91997982183798" lon="8.451838297336236"><ele>8.0</ele><time>2026-05-02T10:52:20.999Z</time></trkpt><trkpt lat="39.91989067897992" lon="8.45203217714983"><ele>7.333333333333333</ele><time>2026-05-02T10:52:21.999Z</time></trkpt><trkpt lat="39.91980864855784" lon="8.452210701157483"><ele>6.666666666666666</ele><time>2026-05-02T10:52:22.999Z</time></trkpt><trkpt lat="39.919722845166724" lon="8.45238764332037"><ele>6.0</ele><time>2026-05-02T10:52:23.999Z</time></trkpt><trkpt lat="39.91964676000458" lon="8.452547504084164"><ele>6.0</ele><time>2026-05-02T10:52:24.999Z</time></trkpt><trkpt lat="39.91956866809196" lon="8.452700232588743"><ele>6.0</ele><time>2026-05-02T10:52:25.999Z</time></trkpt><trkpt lat="39.91949489776021" lon="8.452902710726775"><ele>6.0</ele><time>2026-05-02T10:52:26.999Z</time></trkpt><trkpt lat="39.919459002883876" lon="8.45312097447471"><ele>5.333333333333333</ele><time>2026-05-02T10:52:27.999Z</time></trkpt><trkpt lat="39.91940500942729" lon="8.45331494313012"><ele>4.666666666666666</ele><time>2026-05-02T10:52:28.999Z</time></trkpt><trkpt lat="39.919380755898814" lon="8.453522627177735"><ele>4.0</ele><time>2026-05-02T10:52:29.999Z</time></trkpt><trkpt lat="39.91939348233702" lon="8.453735851071963"><ele>3.6666666666666665</ele><time>2026-05-02T10:52:30.999Z</time></trkpt><trkpt lat="39.91938328023906" lon="8.45397368586046"><ele>3.333333333333333</ele><time>2026-05-02T10:52:31.999Z</time></trkpt><trkpt lat="39.919386574699615" lon="8.454219037426528"><ele>3.0</ele><time>2026-05-02T10:52:32.999Z</time></trkpt><trkpt lat="39.91936161233921" lon="8.454470595221279"><ele>3.0</ele><time>2026-05-02T10:52:33.999Z</time></trkpt><trkpt lat="39.919325179361756" lon="8.454735330636211"><ele>3.0</ele><time>2026-05-02T10:52:34.999Z</time></trkpt><trkpt lat="39.91928872154071" lon="8.455000471075262"><ele>3.0</ele><time>2026-05-02T10:52:35.999Z</time></trkpt><trkpt lat="39.919280224638605" lon="8.45526013115729"><ele>3.0</ele><time>2026-05-02T10:52:36.999Z</time></trkpt><trkpt lat="39.91925806576466" lon="8.455519236772338"><ele>3.0</ele><time>2026-05-02T10:52:37.999Z</time></trkpt><trkpt lat="39.919236616335056" lon="8.455784711555662"><ele>3.0</ele><time>2026-05-02T10:52:38.999Z</time></trkpt><trkpt lat="39.91920089819042" lon="8.456055578750709"><ele>2.6666666666666665</ele><time>2026-05-02T10:52:39.999Z</time></trkpt><trkpt lat="39.919208274168724" lon="8.456334046378448"><ele>2.333333333333333</ele><time>2026-05-02T10:52:40.999Z</time></trkpt><trkpt lat="39.919210438514824" lon="8.45660712273018"><ele>2.0</ele><time>2026-05-02T10:52:41.999Z</time></trkpt><trkpt lat="39.9192081281681" lon="8.456887995927312"><ele>2.0</ele><time>2026-05-02T10:52:42.999Z</time></trkpt><trkpt lat="39.91920354597128" lon="8.457177416359436"><ele>2.0</ele><time>2026-05-02T10:52:43.999Z</time></trkpt><trkpt lat="39.91919800970499" lon="8.457477927643215"><ele>2.0</ele><time>2026-05-02T10:52:44.999Z</time></trkpt><trkpt lat="39.91919211020388" lon="8.457784870430249"><ele>2.0</ele><time>2026-05-02T10:52:45.999Z</time></trkpt><trkpt lat="39.91916956133339" lon="8.458086504644262"><ele>2.0</ele><time>2026-05-02T10:52:46.999Z</time></trkpt><trkpt lat="39.91916549832776" lon="8.458390176247084"><ele>2.0</ele><time>2026-05-02T10:52:47.999Z</time></trkpt><trkpt lat="39.91916178091209" lon="8.45870116008434"><ele>2.5</ele><time>2026-05-02T10:52:48.999Z</time></trkpt><trkpt lat="39.91915640695847" lon="8.459027140245896"><ele>3.0</ele><time>2026-05-02T10:52:49.999Z</time></trkpt><trkpt lat="39.91914847279694" lon="8.459367835530934"><ele>3.5</ele><time>2026-05-02T10:52:50.999Z</time></trkpt><trkpt lat="39.91914174930893" lon="8.459721141723156"><ele>4.0</ele><time>2026-05-02T10:52:51.999Z</time></trkpt><trkpt lat="39.91915105330503" lon="8.460077586034135"><ele>4.0</ele><time>2026-05-02T10:52:52.999Z</time></trkpt><trkpt lat="39.91914376233554" lon="8.460443267614703"><ele>4.0</ele><time>2026-05-02T10:52:53.999Z</time></trkpt><trkpt lat="39.91913659735315" lon="8.460794797519153"><ele>3.5</ele><time>2026-05-02T10:52:54.999Z</time></trkpt><trkpt lat="39.919114713020036" lon="8.461105233724558"><ele>3.0</ele><time>2026-05-02T10:52:55.999Z</time></trkpt><trkpt lat="39.91910749951493" lon="8.461399529760488"><ele>3.0</ele><time>2026-05-02T10:52:56.999Z</time></trkpt><trkpt lat="39.91909873850444" lon="8.461696609725218"><ele>3.0</ele><time>2026-05-02T10:52:57.999Z</time></trkpt><trkpt lat="39.91908599595228" lon="8.461996884639046"><ele>2.5</ele><time>2026-05-02T10:52:58.999Z</time></trkpt><trkpt lat="39.91906548895507" lon="8.462300785900414"><ele>2.0</ele><time>2026-05-02T10:52:59.999Z</time></trkpt><trkpt lat="39.919040266587785" lon="8.462611511525802"><ele>2.0</ele><time>2026-05-02T10:53:00.999Z</time></trkpt><trkpt lat="39.91901451545453" lon="8.462928751222494"><ele>2.0</ele><time>2026-05-02T10:53:01.998Z</time></trkpt><trkpt lat="39.91899103209289" lon="8.463218053091161"><ele>2.0</ele><time>2026-05-02T10:53:02.998Z</time></trkpt><trkpt lat="39.91898355067967" lon="8.463487304484964"><ele>2.0</ele><time>2026-05-02T10:53:03.998Z</time></trkpt><trkpt lat="39.91896717456567" lon="8.463736465709196"><ele>2.0</ele><time>2026-05-02T10:53:04.998Z</time></trkpt><trkpt lat="39.918937324224764" lon="8.463993961637682"><ele>2.0</ele><time>2026-05-02T10:53:05.998Z</time></trkpt><trkpt lat="39.918933138315026" lon="8.464267146713944"><ele>2.0</ele><time>2026-05-02T10:53:06.998Z</time></trkpt><trkpt lat="39.91894276099287" lon="8.464552340293237"><ele>2.0</ele><time>2026-05-02T10:53:07.998Z</time></trkpt><trkpt lat="39.91896612940106" lon="8.464835152497843"><ele>2.0</ele><time>2026-05-02T10:53:08.998Z</time></trkpt><trkpt lat="39.918997423077535" lon="8.465103543281623"><ele>2.0</ele><time>2026-05-02T10:53:09.998Z</time></trkpt><trkpt lat="39.91903712238316" lon="8.465345441363437"><ele>2.0</ele><time>2026-05-02T10:53:10.998Z</time></trkpt><trkpt lat="39.919099982220594" lon="8.465557713500116"><ele>1.6666666666666665</ele><time>2026-05-02T10:53:11.998Z</time></trkpt><trkpt lat="39.91914692613545" lon="8.465781499149873"><ele>1.3333333333333333</ele><time>2026-05-02T10:53:12.998Z</time></trkpt><trkpt lat="39.91924428533042" lon="8.46600051677663"><ele>1.0</ele><time>2026-05-02T10:53:13.998Z</time></trkpt><trkpt lat="39.91933260605199" lon="8.466229457972986"><ele>1.3333333333333333</ele><time>2026-05-02T10:53:14.998Z</time></trkpt><trkpt lat="39.91942097965131" lon="8.466467939750492"><ele>1.6666666666666665</ele><time>2026-05-02T10:53:15.998Z</time></trkpt><trkpt lat="39.919500803270516" lon="8.466687905287067"><ele>2.0</ele><time>2026-05-02T10:53:16.998Z</time></trkpt><trkpt lat="39.91956632449723" lon="8.466885777596643"><ele>2.0</ele><time>2026-05-02T10:53:17.998Z</time></trkpt><trkpt lat="39.9196243812113" lon="8.467055914455974"><ele>2.0</ele><time>2026-05-02T10:53:18.998Z</time></trkpt><trkpt lat="39.91967669300523" lon="8.467193608536807"><ele>2.0</ele><time>2026-05-02T10:53:19.998Z</time></trkpt><trkpt lat="39.919738570167" lon="8.467308372533637"><ele>2.0</ele><time>2026-05-02T10:53:20.998Z</time></trkpt><trkpt lat="39.91980752527712" lon="8.467411828366576"><ele>2.0</ele><time>2026-05-02T10:53:21.998Z</time></trkpt><trkpt lat="39.91988442601356" lon="8.467497559232465"><ele>2.0</ele><time>2026-05-02T10:53:22.998Z</time></trkpt><trkpt lat="39.91994352707562" lon="8.467600524933893"><ele>2.0</ele><time>2026-05-02T10:53:23.998Z</time></trkpt><trkpt lat="39.919967048239045" lon="8.46775146927235"><ele>2.0</ele><time>2026-05-02T10:53:24.998Z</time></trkpt><trkpt lat="39.919976446855436" lon="8.467907847854798"><ele>2.0</ele><time>2026-05-02T10:53:25.998Z</time></trkpt><trkpt lat="39.91997749237936" lon="8.46808778273092"><ele>2.0</ele><time>2026-05-02T10:53:26.998Z</time></trkpt><trkpt lat="39.91998606600393" lon="8.468299919816083"><ele>2.0</ele><time>2026-05-02T10:53:28Z</time></trkpt><trkpt lat="39.91996825241669" lon="8.46852627733728"><ele>2.0</ele><time>2026-05-02T10:53:29Z</time></trkpt><trkpt lat="39.919957814610974" lon="8.468772629505368"><ele>1.6666666666666665</ele><time>2026-05-02T10:53:30Z</time></trkpt><trkpt lat="39.91994404926466" lon="8.469028215845285"><ele>1.3333333333333333</ele><time>2026-05-02T10:53:31Z</time></trkpt><trkpt lat="39.919943745186664" lon="8.46929277434984"><ele>1.0</ele><time>2026-05-02T10:53:32Z</time></trkpt><trkpt lat="39.91996176389236" lon="8.46956735535608"><ele>1.0</ele><time>2026-05-02T10:53:33Z</time></trkpt><trkpt lat="39.919961111405264" lon="8.46982943259167"><ele>1.0</ele><time>2026-05-02T10:53:34Z</time></trkpt><trkpt lat="39.92000687099328" lon="8.470065934613686"><ele>1.0</ele><time>2026-05-02T10:53:35Z</time></trkpt><trkpt lat="39.9200385975402" lon="8.470294847677014"><ele>1.3333333333333333</ele><time>2026-05-02T10:53:36Z</time></trkpt><trkpt lat="39.920071116503394" lon="8.470524038867552"><ele>1.6666666666666665</ele><time>2026-05-02T10:53:37Z</time></trkpt><trkpt lat="39.92009846741848" lon="8.470770413532438"><ele>2.0</ele><time>2026-05-02T10:53:38Z</time></trkpt><trkpt lat="39.92008223085236" lon="8.471033794889864"><ele>2.0</ele><time>2026-05-02T10:53:39Z</time></trkpt><trkpt lat="39.92007720894052" lon="8.471300181653367"><ele>2.0</ele><time>2026-05-02T10:53:40Z</time></trkpt><trkpt lat="39.92008900078874" lon="8.471563582354772"><ele>2.0</ele><time>2026-05-02T10:53:41Z</time></trkpt><trkpt lat="39.92007978346561" lon="8.471813477349599"><ele>2.0</ele><time>2026-05-02T10:53:42Z</time></trkpt><trkpt lat="39.92004878840929" lon="8.472051548304721"><ele>2.0</ele><time>2026-05-02T10:53:43Z</time></trkpt><trkpt lat="39.92003896947478" lon="8.472294930988262"><ele>2.0</ele><time>2026-05-02T10:53:44Z</time></trkpt><trkpt lat="39.9200390178893" lon="8.472542436877225"><ele>2.0</ele><time>2026-05-02T10:53:45Z</time></trkpt><trkpt lat="39.92006666120268" lon="8.472790033535704"><ele>2.0</ele><time>2026-05-02T10:53:46Z</time></trkpt><trkpt lat="39.92009474867852" lon="8.473049962299264"><ele>2.0</ele><time>2026-05-02T10:53:47Z</time></trkpt><trkpt lat="39.92009617570078" lon="8.473305814475284"><ele>2.0</ele><time>2026-05-02T10:53:48Z</time></trkpt><trkpt lat="39.92008767667965" lon="8.473530474875885"><ele>2.0</ele><time>2026-05-02T10:53:49Z</time></trkpt><trkpt lat="39.920053872259096" lon="8.473762656181522"><ele>2.0</ele><time>2026-05-02T10:53:50Z</time></trkpt><trkpt lat="39.92002424336186" lon="8.474008774271768"><ele>2.2</ele><time>2026-05-02T10:53:51Z</time></trkpt><trkpt lat="39.92003148377004" lon="8.474181995415101"><ele>2.4000000000000004</ele><time>2026-05-02T10:53:52Z</time></trkpt><trkpt lat="39.92002570312605" lon="8.47426926371287"><ele>2.5999999999999996</ele><time>2026-05-02T10:53:53Z</time></trkpt><trkpt lat="39.92001469236158" lon="8.47417108059397"><ele>2.8</ele><time>2026-05-02T10:53:58.999Z</time></trkpt><trkpt lat="39.9198934422751" lon="8.47417596383318"><ele>3.0</ele><time>2026-05-02T10:54:00.999Z</time></trkpt><trkpt lat="39.91981337056074" lon="8.474249129684448"><ele>3.0</ele><time>2026-05-02T10:54:01.999Z</time></trkpt><trkpt lat="39.91969161115826" lon="8.474276097557428"><ele>3.0</ele><time>2026-05-02T10:54:02.999Z</time></trkpt><trkpt lat="39.919558982656355" lon="8.474352011828524"><ele>3.0</ele><time>2026-05-02T10:54:03.999Z</time></trkpt><trkpt lat="39.919406315123766" lon="8.474419503177653"><ele>3.0</ele><time>2026-05-02T10:54:04.999Z</time></trkpt><trkpt lat="39.919246877995825" lon="8.474500382811335"><ele>2.6666666666666665</ele><time>2026-05-02T10:54:05.999Z</time></trkpt><trkpt lat="39.919081629236416" lon="8.474530692388681"><ele>2.333333333333333</ele><time>2026-05-02T10:54:06.999Z</time></trkpt><trkpt lat="39.918913653897995" lon="8.474568716134197"><ele>2.0</ele><time>2026-05-02T10:54:07.999Z</time></trkpt><trkpt lat="39.918740998206374" lon="8.474606091159886"><ele>2.0</ele><time>2026-05-02T10:54:08.999Z</time></trkpt><trkpt lat="39.918588104893225" lon="8.47465291013278"><ele>2.0</ele><time>2026-05-02T10:54:09.999Z</time></trkpt><trkpt lat="39.918427766891035" lon="8.474676881436249"><ele>2.0</ele><time>2026-05-02T10:54:10.999Z</time></trkpt><trkpt lat="39.91825488319659" lon="8.47470075959122"><ele>2.0</ele><time>2026-05-02T10:54:11.999Z</time></trkpt><trkpt lat="39.918067433358694" lon="8.474678333875298"><ele>2.0</ele><time>2026-05-02T10:54:12.999Z</time></trkpt><trkpt lat="39.9178799689775" lon="8.474682643989311"><ele>2.0</ele><time>2026-05-02T10:54:13.999Z</time></trkpt><trkpt lat="39.91770591888464" lon="8.47471206742944"><ele>2.0</ele><time>2026-05-02T10:54:14.999Z</time></trkpt><trkpt lat="39.917551191452304" lon="8.474711461413635"><ele>2.0</ele><time>2026-05-02T10:54:15.999Z</time></trkpt><trkpt lat="39.91740930373769" lon="8.474726634548084"><ele>2.0</ele><time>2026-05-02T10:54:16.999Z</time></trkpt><trkpt lat="39.91728563416277" lon="8.474728061659764"><ele>2.0</ele><time>2026-05-02T10:54:17.999Z</time></trkpt><trkpt lat="39.91716045077336" lon="8.474711702798665"><ele>2.0</ele><time>2026-05-02T10:54:18.999Z</time></trkpt><trkpt lat="39.917034579610174" lon="8.474668754168947"><ele>2.0</ele><time>2026-05-02T10:54:19.999Z</time></trkpt><trkpt lat="39.916923968678404" lon="8.47463743178022"><ele>2.0</ele><time>2026-05-02T10:54:20.999Z</time></trkpt><trkpt lat="39.91684885790717" lon="8.474620782108348"><ele>2.0</ele><time>2026-05-02T10:54:21.999Z</time></trkpt><trkpt lat="39.91678106252572" lon="8.474611718017266"><ele>2.0</ele><time>2026-05-02T10:54:23.999Z</time></trkpt><trkpt lat="39.91670687737091" lon="8.474750033832578"><ele>2.0</ele><time>2026-05-02T10:54:32.999Z</time></trkpt><trkpt lat="39.91670166729856" lon="8.47487168057955"><ele>2.0</ele><time>2026-05-02T10:54:33.999Z</time></trkpt><trkpt lat="39.91669315859275" lon="8.47503397331515"><ele>2.0</ele><time>2026-05-02T10:54:34.999Z</time></trkpt><trkpt lat="39.91667579956842" lon="8.47524421473559"><ele>2.0</ele><time>2026-05-02T10:54:35.999Z</time></trkpt><trkpt lat="39.91667115627801" lon="8.475465044819767"><ele>2.333333333333333</ele><time>2026-05-02T10:54:36.999Z</time></trkpt><trkpt lat="39.916653728959496" lon="8.475702733158245"><ele>2.6666666666666665</ele><time>2026-05-02T10:54:37.999Z</time></trkpt><trkpt lat="39.91661965171271" lon="8.475954937700592"><ele>3.0</ele><time>2026-05-02T10:54:38.999Z</time></trkpt><trkpt lat="39.916598045668096" lon="8.47623200828579"><ele>3.0</ele><time>2026-05-02T10:54:39.999Z</time></trkpt><trkpt lat="39.91657593315842" lon="8.476515574186411"><ele>3.0</ele><time>2026-05-02T10:54:40.999Z</time></trkpt><trkpt lat="39.91655262035871" lon="8.476814532001127"><ele>3.0</ele><time>2026-05-02T10:54:41.999Z</time></trkpt><trkpt lat="39.916527993970575" lon="8.477130335336494"><ele>3.0</ele><time>2026-05-02T10:54:42.999Z</time></trkpt><trkpt lat="39.91650330181635" lon="8.477446981379595"><ele>3.0</ele><time>2026-05-02T10:54:43.999Z</time></trkpt><trkpt lat="39.91647887831384" lon="8.477760235762446"><ele>2.5</ele><time>2026-05-02T10:54:44.999Z</time></trkpt><trkpt lat="39.91645460955183" lon="8.478071888736299"><ele>2.0</ele><time>2026-05-02T10:54:45.999Z</time></trkpt><trkpt lat="39.91643016548983" lon="8.47838579278805"><ele>2.0</ele><time>2026-05-02T10:54:46.999Z</time></trkpt><trkpt lat="39.916405991774944" lon="8.478696225222254"><ele>2.0</ele><time>2026-05-02T10:54:47.999Z</time></trkpt><trkpt lat="39.91638214188318" lon="8.479002499182082"><ele>2.0</ele><time>2026-05-02T10:54:48.999Z</time></trkpt><trkpt lat="39.916358622501335" lon="8.479304528787406"><ele>2.0</ele><time>2026-05-02T10:54:49.999Z</time></trkpt><trkpt lat="39.9163357672807" lon="8.4795998767137"><ele>2.0</ele><time>2026-05-02T10:54:50.999Z</time></trkpt><trkpt lat="39.91631373526266" lon="8.479890703704774"><ele>2.0</ele><time>2026-05-02T10:54:51.999Z</time></trkpt><trkpt lat="39.916291892420226" lon="8.48017903353931"><ele>2.0</ele><time>2026-05-02T10:54:52.999Z</time></trkpt><trkpt lat="39.9162706920732" lon="8.480458882502552"><ele>2.0</ele><time>2026-05-02T10:54:53.999Z</time></trkpt><trkpt lat="39.91624979492891" lon="8.48073472877228"><ele>2.0</ele><time>2026-05-02T10:54:54.999Z</time></trkpt><trkpt lat="39.9162462453852" lon="8.48100931740275"><ele>2.0</ele><time>2026-05-02T10:54:55.999Z</time></trkpt><trkpt lat="39.9162351892992" lon="8.481276339338326"><ele>2.0</ele><time>2026-05-02T10:54:56.999Z</time></trkpt><trkpt lat="39.9162513236392" lon="8.481548534338957"><ele>2.0</ele><time>2026-05-02T10:54:57.999Z</time></trkpt><trkpt lat="39.916294804948855" lon="8.481829960130494"><ele>2.0</ele><time>2026-05-02T10:54:58.999Z</time></trkpt><trkpt lat="39.91631897889508" lon="8.48212470011217"><ele>1.5</ele><time>2026-05-02T10:54:59.999Z</time></trkpt><trkpt lat="39.91635967425784" lon="8.482422959320424"><ele>1.0</ele><time>2026-05-02T10:55:00.999Z</time></trkpt><trkpt lat="39.916400717880364" lon="8.482723770743373"><ele>1.5</ele><time>2026-05-02T10:55:01.999Z</time></trkpt><trkpt lat="39.91644090205164" lon="8.48302976091832"><ele>2.0</ele><time>2026-05-02T10:55:02.999Z</time></trkpt><trkpt lat="39.91648088718206" lon="8.483337563709624"><ele>2.0</ele><time>2026-05-02T10:55:03.998Z</time></trkpt><trkpt lat="39.9165265674731" lon="8.483643354082144"><ele>2.0</ele><time>2026-05-02T10:55:04.998Z</time></trkpt><trkpt lat="39.91655935645418" lon="8.483947528599472"><ele>2.0</ele><time>2026-05-02T10:55:05.998Z</time></trkpt><trkpt lat="39.916600773342864" lon="8.484247072163354"><ele>2.0</ele><time>2026-05-02T10:55:06.998Z</time></trkpt><trkpt lat="39.916643214014385" lon="8.4845443485612"><ele>2.0</ele><time>2026-05-02T10:55:07.998Z</time></trkpt><trkpt lat="39.91668339462132" lon="8.484840905553625"><ele>2.0</ele><time>2026-05-02T10:55:08.998Z</time></trkpt><trkpt lat="39.91672178046385" lon="8.485137108949456"><ele>1.5</ele><time>2026-05-02T10:55:09.998Z</time></trkpt><trkpt lat="39.91676243848357" lon="8.48543212089854"><ele>1.0</ele><time>2026-05-02T10:55:10.998Z</time></trkpt><trkpt lat="39.91680158315926" lon="8.485724512776075"><ele>1.0</ele><time>2026-05-02T10:55:11.998Z</time></trkpt><trkpt lat="39.91683890290171" lon="8.486015349953087"><ele>1.0</ele><time>2026-05-02T10:55:12.998Z</time></trkpt><trkpt lat="39.91687669858352" lon="8.486305202414261"><ele>1.0</ele><time>2026-05-02T10:55:13.998Z</time></trkpt><trkpt lat="39.91691556743494" lon="8.486595540737632"><ele>1.0</ele><time>2026-05-02T10:55:14.998Z</time></trkpt><trkpt lat="39.91695558235804" lon="8.48688618588443"><ele>1.5</ele><time>2026-05-02T10:55:15.998Z</time></trkpt><trkpt lat="39.91699559818054" lon="8.48717734847629"><ele>2.0</ele><time>2026-05-02T10:55:16.998Z</time></trkpt><trkpt lat="39.91703463235911" lon="8.487469711495855"><ele>2.0</ele><time>2026-05-02T10:55:17.998Z</time></trkpt><trkpt lat="39.917073279774506" lon="8.487762323048758"><ele>2.0</ele><time>2026-05-02T10:55:18.998Z</time></trkpt><trkpt lat="39.91711139900747" lon="8.488054989070216"><ele>1.5</ele><time>2026-05-02T10:55:19.998Z</time></trkpt><trkpt lat="39.91715090891577" lon="8.48834965539876"><ele>1.0</ele><time>2026-05-02T10:55:20.998Z</time></trkpt><trkpt lat="39.91718979955642" lon="8.488645198902407"><ele>1.0</ele><time>2026-05-02T10:55:21.998Z</time></trkpt><trkpt lat="39.917228852244264" lon="8.488940050698094"><ele>1.0</ele><time>2026-05-02T10:55:22.998Z</time></trkpt><trkpt lat="39.91726791033602" lon="8.489235243510574"><ele>1.0</ele><time>2026-05-02T10:55:23.998Z</time></trkpt><trkpt lat="39.917307358631454" lon="8.489531381545312"><ele>1.0</ele><time>2026-05-02T10:55:24.998Z</time></trkpt><trkpt lat="39.91734635368883" lon="8.489826944431183"><ele>1.0</ele><time>2026-05-02T10:55:25.998Z</time></trkpt><trkpt lat="39.917384521421916" lon="8.490121683142089"><ele>1.0</ele><time>2026-05-02T10:55:26.998Z</time></trkpt><trkpt lat="39.91742654900197" lon="8.490414980828652"><ele>0.5</ele><time>2026-05-02T10:55:27.998Z</time></trkpt><trkpt lat="39.91747529452405" lon="8.49070556269466"><ele>0.0</ele><time>2026-05-02T10:55:28.998Z</time></trkpt><trkpt lat="39.917533030738646" lon="8.490987834451827"><ele>0.6666666666666666</ele><time>2026-05-02T10:55:29.998Z</time></trkpt><trkpt lat="39.91760063995249" lon="8.491248367836238"><ele>1.3333333333333333</ele><time>2026-05-02T10:55:30.998Z</time></trkpt><trkpt lat="39.91767487353943" lon="8.4914831665777"><ele>2.0</ele><time>2026-05-02T10:55:31.998Z</time></trkpt><trkpt lat="39.917753861566815" lon="8.491713188326997"><ele>2.0</ele><time>2026-05-02T10:55:32.998Z</time></trkpt><trkpt lat="39.91783560788713" lon="8.491934782177363"><ele>2.0</ele><time>2026-05-02T10:55:34Z</time></trkpt><trkpt lat="39.917920163246414" lon="8.492154515489103"><ele>2.0</ele><time>2026-05-02T10:55:35Z</time></trkpt><trkpt lat="39.91800816171769" lon="8.492374513256825"><ele>1.6666666666666665</ele><time>2026-05-02T10:55:36Z</time></trkpt><trkpt lat="39.918092886204974" lon="8.4925934165572"><ele>1.3333333333333333</ele><time>2026-05-02T10:55:37Z</time></trkpt><trkpt lat="39.91817119310903" lon="8.492806525616608"><ele>1.0</ele><time>2026-05-02T10:55:38Z</time></trkpt><trkpt lat="39.918245921525035" lon="8.493002706223132"><ele>1.0</ele><time>2026-05-02T10:55:39Z</time></trkpt><trkpt lat="39.9183213092271" lon="8.493204272808047"><ele>1.0</ele><time>2026-05-02T10:55:40Z</time></trkpt><trkpt lat="39.9184019254925" lon="8.493405296721402"><ele>1.0</ele><time>2026-05-02T10:55:41Z</time></trkpt><trkpt lat="39.918470693092985" lon="8.493615181271633"><ele>1.3333333333333333</ele><time>2026-05-02T10:55:42Z</time></trkpt><trkpt lat="39.91852914234269" lon="8.493833728033694"><ele>1.6666666666666665</ele><time>2026-05-02T10:55:43Z</time></trkpt><trkpt lat="39.91858010998589" lon="8.494055353568877"><ele>2.0</ele><time>2026-05-02T10:55:44Z</time></trkpt><trkpt lat="39.91861921694212" lon="8.49428377075528"><ele>2.0</ele><time>2026-05-02T10:55:45Z</time></trkpt><trkpt lat="39.918643130045986" lon="8.49451973433722"><ele>2.0</ele><time>2026-05-02T10:55:46Z</time></trkpt><trkpt lat="39.91865447640039" lon="8.494760905174848"><ele>2.0</ele><time>2026-05-02T10:55:47Z</time></trkpt><trkpt lat="39.918659225310634" lon="8.49500344543097"><ele>2.0</ele><time>2026-05-02T10:55:48Z</time></trkpt><trkpt lat="39.91864779206861" lon="8.495250575460672"><ele>2.0</ele><time>2026-05-02T10:55:49Z</time></trkpt><trkpt lat="39.91861934976548" lon="8.495500235544622"><ele>2.0</ele><time>2026-05-02T10:55:50Z</time></trkpt><trkpt lat="39.9185788161429" lon="8.49575086008822"><ele>2.333333333333333</ele><time>2026-05-02T10:55:51Z</time></trkpt><trkpt lat="39.9185278622744" lon="8.496000575440355"><ele>2.6666666666666665</ele><time>2026-05-02T10:55:52Z</time></trkpt><trkpt lat="39.9184594127548" lon="8.4962433242975"><ele>3.0</ele><time>2026-05-02T10:55:53Z</time></trkpt><trkpt lat="39.91837261965518" lon="8.496477315502469"><ele>3.0</ele><time>2026-05-02T10:55:54Z</time></trkpt><trkpt lat="39.918275400777546" lon="8.496701502621352"><ele>3.0</ele><time>2026-05-02T10:55:55Z</time></trkpt><trkpt lat="39.918168525275405" lon="8.496916532275682"><ele>3.0</ele><time>2026-05-02T10:55:56Z</time></trkpt><trkpt lat="39.91804962140546" lon="8.49711877746028"><ele>2.3333333333333335</ele><time>2026-05-02T10:55:57Z</time></trkpt><trkpt lat="39.917918468562945" lon="8.497302839834378"><ele>1.6666666666666665</ele><time>2026-05-02T10:55:58Z</time></trkpt><trkpt lat="39.91778270231689" lon="8.497477540958238"><ele>1.0</ele><time>2026-05-02T10:55:58.999Z</time></trkpt><trkpt lat="39.91765570808316" lon="8.497660262803963"><ele>0.6666666666666666</ele><time>2026-05-02T10:55:59.999Z</time></trkpt><trkpt lat="39.917541402925934" lon="8.49785452042655"><ele>0.3333333333333333</ele><time>2026-05-02T10:56:00.999Z</time></trkpt><trkpt lat="39.9174292893951" lon="8.49804542563086"><ele>0.0</ele><time>2026-05-02T10:56:01.999Z</time></trkpt><trkpt lat="39.917316388879975" lon="8.498232628717188"><ele>0.0</ele><time>2026-05-02T10:56:02.999Z</time></trkpt><trkpt lat="39.91719832783157" lon="8.49842067649315"><ele>0.0</ele><time>2026-05-02T10:56:03.999Z</time></trkpt><trkpt lat="39.91708011673957" lon="8.498608296819295"><ele>0.0</ele><time>2026-05-02T10:56:04.999Z</time></trkpt><trkpt lat="39.91696428873974" lon="8.49879660123529"><ele>0.0</ele><time>2026-05-02T10:56:05.999Z</time></trkpt><trkpt lat="39.916850209287254" lon="8.498986735569206"><ele>0.0</ele><time>2026-05-02T10:56:06.999Z</time></trkpt><trkpt lat="39.916735741198636" lon="8.499178819764003"><ele>0.0</ele><time>2026-05-02T10:56:07.999Z</time></trkpt><trkpt lat="39.91662617514085" lon="8.499366123263295"><ele>0.3333333333333333</ele><time>2026-05-02T10:56:08.999Z</time></trkpt><trkpt lat="39.91652477891699" lon="8.499541922871783"><ele>0.6666666666666666</ele><time>2026-05-02T10:56:09.999Z</time></trkpt><trkpt lat="39.916422658779325" lon="8.499729947769469"><ele>1.0</ele><time>2026-05-02T10:56:10.999Z</time></trkpt><trkpt lat="39.916328670563715" lon="8.499927922577184"><ele>1.3333333333333333</ele><time>2026-05-02T10:56:11.999Z</time></trkpt><trkpt lat="39.916243761850474" lon="8.500134602081033"><ele>1.6666666666666665</ele><time>2026-05-02T10:56:12.999Z</time></trkpt><trkpt lat="39.91616667163573" lon="8.500351415618965"><ele>2.0</ele><time>2026-05-02T10:56:13.999Z</time></trkpt><trkpt lat="39.91610206351405" lon="8.500577325541757"><ele>2.333333333333333</ele><time>2026-05-02T10:56:14.999Z</time></trkpt><trkpt lat="39.9160518137118" lon="8.500810003390566"><ele>2.6666666666666665</ele><time>2026-05-02T10:56:15.999Z</time></trkpt><trkpt lat="39.91601433046519" lon="8.501046473844998"><ele>3.0</ele><time>2026-05-02T10:56:16.999Z</time></trkpt><trkpt lat="39.915989376040734" lon="8.501280189710597"><ele>3.0</ele><time>2026-05-02T10:56:17.999Z</time></trkpt><trkpt lat="39.91597335318097" lon="8.501512944973653"><ele>3.0</ele><time>2026-05-02T10:56:18.999Z</time></trkpt><trkpt lat="39.91596803853973" lon="8.50174473674618"><ele>3.0</ele><time>2026-05-02T10:56:19.999Z</time></trkpt><trkpt lat="39.915971729648405" lon="8.501976810431263"><ele>3.0</ele><time>2026-05-02T10:56:20.999Z</time></trkpt><trkpt lat="39.915988371954576" lon="8.502206695905283"><ele>3.0</ele><time>2026-05-02T10:56:21.999Z</time></trkpt><trkpt lat="39.9160168451375" lon="8.502436224773428"><ele>3.0</ele><time>2026-05-02T10:56:22.999Z</time></trkpt><trkpt lat="39.91605988495285" lon="8.502665207959797"><ele>3.0</ele><time>2026-05-02T10:56:23.999Z</time></trkpt><trkpt lat="39.91611521498498" lon="8.502889448575905"><ele>3.0</ele><time>2026-05-02T10:56:24.999Z</time></trkpt><trkpt lat="39.91618584195257" lon="8.50310643253695"><ele>3.0</ele><time>2026-05-02T10:56:25.999Z</time></trkpt><trkpt lat="39.916263317056334" lon="8.503319495403655"><ele>3.0</ele><time>2026-05-02T10:56:26.999Z</time></trkpt><trkpt lat="39.91635285985983" lon="8.503528393625796"><ele>3.0</ele><time>2026-05-02T10:56:27.999Z</time></trkpt><trkpt lat="39.916463928588755" lon="8.503721443734664"><ele>3.0</ele><time>2026-05-02T10:56:28.999Z</time></trkpt><trkpt lat="39.91657851741386" lon="8.503911497020061"><ele>3.0</ele><time>2026-05-02T10:56:29.999Z</time></trkpt><trkpt lat="39.91669152560495" lon="8.50409963571306"><ele>3.0</ele><time>2026-05-02T10:56:30.999Z</time></trkpt><trkpt lat="39.91680341367125" lon="8.504280593473132"><ele>3.0</ele><time>2026-05-02T10:56:31.999Z</time></trkpt><trkpt lat="39.916914605027095" lon="8.504458054742747"><ele>3.0</ele><time>2026-05-02T10:56:32.999Z</time></trkpt><trkpt lat="39.917022853128046" lon="8.504637453158692"><ele>3.0</ele><time>2026-05-02T10:56:33.999Z</time></trkpt><trkpt lat="39.91712668600397" lon="8.504819442228998"><ele>3.0</ele><time>2026-05-02T10:56:34.999Z</time></trkpt><trkpt lat="39.91723031053193" lon="8.505001020990228"><ele>3.0</ele><time>2026-05-02T10:56:35.999Z</time></trkpt><trkpt lat="39.9173324153269" lon="8.505189756285752"><ele>3.0</ele><time>2026-05-02T10:56:36.999Z</time></trkpt><trkpt lat="39.91742338423696" lon="8.505386551026357"><ele>3.0</ele><time>2026-05-02T10:56:37.999Z</time></trkpt><trkpt lat="39.91750478525396" lon="8.50558873109693"><ele>3.0</ele><time>2026-05-02T10:56:38.999Z</time></trkpt><trkpt lat="39.91757942636443" lon="8.50579810705618"><ele>3.0</ele><time>2026-05-02T10:56:39.999Z</time></trkpt><trkpt lat="39.91764749139951" lon="8.506007378138357"><ele>3.0</ele><time>2026-05-02T10:56:40.999Z</time></trkpt><trkpt lat="39.91770637348779" lon="8.506220346524128"><ele>3.0</ele><time>2026-05-02T10:56:41.999Z</time></trkpt><trkpt lat="39.91775929362711" lon="8.506435868141706"><ele>3.0</ele><time>2026-05-02T10:56:42.999Z</time></trkpt><trkpt lat="39.91780486492355" lon="8.50665134847234"><ele>3.0</ele><time>2026-05-02T10:56:43.999Z</time></trkpt><trkpt lat="39.91784736193497" lon="8.50686862421706"><ele>2.6666666666666665</ele><time>2026-05-02T10:56:44.999Z</time></trkpt><trkpt lat="39.917894859784326" lon="8.507079620526765"><ele>2.333333333333333</ele><time>2026-05-02T10:56:45.999Z</time></trkpt><trkpt lat="39.91794499846891" lon="8.507292489941527"><ele>2.0</ele><time>2026-05-02T10:56:46.999Z</time></trkpt><trkpt lat="39.91799340170982" lon="8.507502319550833"><ele>2.0</ele><time>2026-05-02T10:56:47.999Z</time></trkpt><trkpt lat="39.91803602496137" lon="8.50770454753025"><ele>2.0</ele><time>2026-05-02T10:56:48.999Z</time></trkpt><trkpt lat="39.9180765096396" lon="8.50789386325122"><ele>2.0</ele><time>2026-05-02T10:56:49.999Z</time></trkpt><trkpt lat="39.91811763330124" lon="8.50807439639825"><ele>1.75</ele><time>2026-05-02T10:56:50.999Z</time></trkpt><trkpt lat="39.918162078398545" lon="8.508253145896012"><ele>1.5</ele><time>2026-05-02T10:56:51.999Z</time></trkpt><trkpt lat="39.91820736296524" lon="8.508437795117059"><ele>1.25</ele><time>2026-05-02T10:56:52.999Z</time></trkpt><trkpt lat="39.91824516442859" lon="8.508624735935092"><ele>1.0</ele><time>2026-05-02T10:56:53.999Z</time></trkpt><trkpt lat="39.91827765456211" lon="8.508814378705374"><ele>0.6666666666666666</ele><time>2026-05-02T10:56:54.999Z</time></trkpt><trkpt lat="39.918311188974464" lon="8.50900969269056"><ele>0.3333333333333333</ele><time>2026-05-02T10:56:55.999Z</time></trkpt><trkpt lat="39.91833614911513" lon="8.509215252455016"><ele>0.0</ele><time>2026-05-02T10:56:56.999Z</time></trkpt><trkpt lat="39.91834210195982" lon="8.509428829572455"><ele>0.3333333333333333</ele><time>2026-05-02T10:56:57.999Z</time></trkpt><trkpt lat="39.9183454848549" lon="8.509645994552468"><ele>0.6666666666666666</ele><time>2026-05-02T10:56:58.999Z</time></trkpt><trkpt lat="39.91836313134726" lon="8.509863939425806"><ele>1.0</ele><time>2026-05-02T10:56:59.999Z</time></trkpt><trkpt lat="39.91838641551284" lon="8.510083171221481"><ele>0.6666666666666666</ele><time>2026-05-02T10:57:00.999Z</time></trkpt><trkpt lat="39.91840898611794" lon="8.510306917779538"><ele>0.3333333333333333</ele><time>2026-05-02T10:57:01.999Z</time></trkpt><trkpt lat="39.91843486290605" lon="8.510530097292168"><ele>0.0</ele><time>2026-05-02T10:57:02.999Z</time></trkpt><trkpt lat="39.91846232509814" lon="8.510757657749329"><ele>0.0</ele><time>2026-05-02T10:57:03.999Z</time></trkpt><trkpt lat="39.91848526721357" lon="8.510987614720248"><ele>0.0</ele><time>2026-05-02T10:57:04.999Z</time></trkpt><trkpt lat="39.9185044240531" lon="8.51122192837757"><ele>0.0</ele><time>2026-05-02T10:57:05.999Z</time></trkpt><trkpt lat="39.91852660827748" lon="8.511457164677203"><ele>0.3333333333333333</ele><time>2026-05-02T10:57:06.999Z</time></trkpt><trkpt lat="39.9185546677634" lon="8.511695453531939"><ele>0.6666666666666666</ele><time>2026-05-02T10:57:07.999Z</time></trkpt><trkpt lat="39.91858336465317" lon="8.511933703052021"><ele>1.0</ele><time>2026-05-02T10:57:08.999Z</time></trkpt><trkpt lat="39.91860875599909" lon="8.51217187972855"><ele>1.0</ele><time>2026-05-02T10:57:09.998Z</time></trkpt><trkpt lat="39.91863215665787" lon="8.512407431856397"><ele>1.0</ele><time>2026-05-02T10:57:10.998Z</time></trkpt><trkpt lat="39.9186589325758" lon="8.512639681360572"><ele>1.0</ele><time>2026-05-02T10:57:11.998Z</time></trkpt><trkpt lat="39.918685942116824" lon="8.512864962144038"><ele>1.3333333333333333</ele><time>2026-05-02T10:57:12.998Z</time></trkpt><trkpt lat="39.91870895483855" lon="8.513088938693791"><ele>1.6666666666666665</ele><time>2026-05-02T10:57:13.998Z</time></trkpt><trkpt lat="39.918734590137554" lon="8.513310468954955"><ele>2.0</ele><time>2026-05-02T10:57:14.998Z</time></trkpt><trkpt lat="39.91876222244228" lon="8.513527667761508"><ele>2.0</ele><time>2026-05-02T10:57:15.998Z</time></trkpt><trkpt lat="39.91878456490334" lon="8.51374003716081"><ele>2.0</ele><time>2026-05-02T10:57:16.998Z</time></trkpt><trkpt lat="39.91880142753486" lon="8.513952374386335"><ele>2.0</ele><time>2026-05-02T10:57:17.998Z</time></trkpt><trkpt lat="39.918814277037534" lon="8.51416693197607"><ele>2.0</ele><time>2026-05-02T10:57:18.998Z</time></trkpt><trkpt lat="39.91880882695691" lon="8.514383391150368"><ele>2.0</ele><time>2026-05-02T10:57:19.998Z</time></trkpt><trkpt lat="39.91876771962078" lon="8.514594859905408"><ele>2.0</ele><time>2026-05-02T10:57:20.998Z</time></trkpt><trkpt lat="39.918694544039376" lon="8.51479108573442"><ele>2.0</ele><time>2026-05-02T10:57:21.998Z</time></trkpt><trkpt lat="39.91862513160747" lon="8.514986168564482"><ele>2.0</ele><time>2026-05-02T10:57:22.998Z</time></trkpt><trkpt lat="39.918566026601766" lon="8.515188923030223"><ele>2.0</ele><time>2026-05-02T10:57:23.998Z</time></trkpt><trkpt lat="39.91850432998415" lon="8.515387344145298"><ele>2.0</ele><time>2026-05-02T10:57:24.998Z</time></trkpt><trkpt lat="39.91843885479814" lon="8.515582851767817"><ele>2.0</ele><time>2026-05-02T10:57:25.998Z</time></trkpt><trkpt lat="39.91837552060718" lon="8.515779132196108"><ele>2.0</ele><time>2026-05-02T10:57:26.998Z</time></trkpt><trkpt lat="39.91831470050662" lon="8.515975702494496"><ele>2.0</ele><time>2026-05-02T10:57:27.998Z</time></trkpt><trkpt lat="39.91825594425625" lon="8.516163409751643"><ele>2.0</ele><time>2026-05-02T10:57:28.998Z</time></trkpt><trkpt lat="39.91819804600877" lon="8.516336051727418"><ele>2.0</ele><time>2026-05-02T10:57:29.998Z</time></trkpt><trkpt lat="39.918143566085995" lon="8.516499793877927"><ele>2.0</ele><time>2026-05-02T10:57:30.998Z</time></trkpt><trkpt lat="39.918094275873585" lon="8.516662274981863"><ele>2.0</ele><time>2026-05-02T10:57:31.998Z</time></trkpt><trkpt lat="39.91804788180889" lon="8.516814526523806"><ele>2.0</ele><time>2026-05-02T10:57:32.998Z</time></trkpt><trkpt lat="39.917997943836156" lon="8.516952219202418"><ele>2.0</ele><time>2026-05-02T10:57:33.998Z</time></trkpt><trkpt lat="39.91794766019065" lon="8.517089348939372"><ele>2.0</ele><time>2026-05-02T10:57:34.998Z</time></trkpt><trkpt lat="39.91790354573938" lon="8.517243974554477"><ele>2.0</ele><time>2026-05-02T10:57:35.998Z</time></trkpt><trkpt lat="39.91787752464312" lon="8.517400585677972"><ele>2.0</ele><time>2026-05-02T10:57:36.998Z</time></trkpt><trkpt lat="39.91787414319181" lon="8.517551404813366"><ele>2.0</ele><time>2026-05-02T10:57:37.998Z</time></trkpt><trkpt lat="39.91788500390639" lon="8.517708971075791"><ele>2.0</ele><time>2026-05-02T10:57:38.998Z</time></trkpt><trkpt lat="39.91790060839434" lon="8.517873590014796"><ele>1.5</ele><time>2026-05-02T10:57:40Z</time></trkpt><trkpt lat="39.91791477845918" lon="8.518042356168186"><ele>1.0</ele><time>2026-05-02T10:57:41Z</time></trkpt><trkpt lat="39.917937581689856" lon="8.518212682062298"><ele>0.5</ele><time>2026-05-02T10:57:42Z</time></trkpt><trkpt lat="39.91798087116511" lon="8.518380731136165"><ele>0.0</ele><time>2026-05-02T10:57:43Z</time></trkpt><trkpt lat="39.91804021185242" lon="8.518544365983116"><ele>0.0</ele><time>2026-05-02T10:57:44Z</time></trkpt><trkpt lat="39.91810354376446" lon="8.518705710563466"><ele>0.0</ele><time>2026-05-02T10:57:45Z</time></trkpt><trkpt lat="39.91816751459925" lon="8.518865293427938"><ele>0.0</ele><time>2026-05-02T10:57:46Z</time></trkpt><trkpt lat="39.91823131595618" lon="8.519025108428263"><ele>0.0</ele><time>2026-05-02T10:57:47Z</time></trkpt><trkpt lat="39.91829096820379" lon="8.519188328675083"><ele>0.0</ele><time>2026-05-02T10:57:48Z</time></trkpt><trkpt lat="39.9183483561518" lon="8.519347034561454"><ele>0.0</ele><time>2026-05-02T10:57:49Z</time></trkpt><trkpt lat="39.91840255509323" lon="8.519490477662167"><ele>0.0</ele><time>2026-05-02T10:57:50Z</time></trkpt><trkpt lat="39.91845193209044" lon="8.519613449483673"><ele>0.0</ele><time>2026-05-02T10:57:51Z</time></trkpt><trkpt lat="39.91849555264168" lon="8.519725530098523"><ele>-0.16666666666666666</ele><time>2026-05-02T10:57:52Z</time></trkpt><trkpt lat="39.91853617243114" lon="8.519835912971974"><ele>-0.3333333333333333</ele><time>2026-05-02T10:57:53Z</time></trkpt><trkpt lat="39.91857260851056" lon="8.519947761811274"><ele>-0.5</ele><time>2026-05-02T10:57:54Z</time></trkpt><trkpt lat="39.91860191488886" lon="8.520058879226946"><ele>-0.6666666666666666</ele><time>2026-05-02T10:57:55Z</time></trkpt><trkpt lat="39.91862572826019" lon="8.520167013883006"><ele>-0.8333333333333333</ele><time>2026-05-02T10:57:56Z</time></trkpt><trkpt lat="39.918645011587515" lon="8.520272015806757"><ele>-1.0</ele><time>2026-05-02T10:57:57Z</time></trkpt><trkpt lat="39.91865882168345" lon="8.520376666434329"><ele>-0.6666666666666666</ele><time>2026-05-02T10:57:58Z</time></trkpt><trkpt lat="39.918682561505314" lon="8.520478066359852"><ele>-0.3333333333333333</ele><time>2026-05-02T10:57:59Z</time></trkpt><trkpt lat="39.91869349970751" lon="8.520576704740883"><ele>0.0</ele><time>2026-05-02T10:58:00Z</time></trkpt><trkpt lat="39.918705898602646" lon="8.520688517825416"><ele>0.3333333333333333</ele><time>2026-05-02T10:58:01Z</time></trkpt><trkpt lat="39.91872271399269" lon="8.520804057597115"><ele>0.6666666666666666</ele><time>2026-05-02T10:58:02Z</time></trkpt><trkpt lat="39.9188007814548" lon="8.520894343259464"><ele>1.0</ele><time>2026-05-02T10:58:03Z</time></trkpt><trkpt lat="39.91886997709145" lon="8.520975078698111"><ele>1.0</ele><time>2026-05-02T10:58:03.999Z</time></trkpt><trkpt lat="39.91893752400594" lon="8.521043550438348"><ele>1.0</ele><time>2026-05-02T10:58:04.999Z</time></trkpt><trkpt lat="39.91900141519336" lon="8.521122080921868"><ele>1.0</ele><time>2026-05-02T10:58:05.999Z</time></trkpt><trkpt lat="39.919003871879454" lon="8.521310887954412"><ele>1.0</ele><time>2026-05-02T10:58:06.999Z</time></trkpt><trkpt lat="39.919030479570935" lon="8.521463774834201"><ele>1.0</ele><time>2026-05-02T10:58:07.999Z</time></trkpt><trkpt lat="39.91904428434903" lon="8.521627698076895"><ele>1.25</ele><time>2026-05-02T10:58:08.999Z</time></trkpt><trkpt lat="39.91907415404726" lon="8.521790408609396"><ele>1.5</ele><time>2026-05-02T10:58:09.999Z</time></trkpt><trkpt lat="39.91910558253321" lon="8.52194924904024"><ele>1.75</ele><time>2026-05-02T10:58:10.999Z</time></trkpt><trkpt lat="39.919051781108784" lon="8.522156052138678"><ele>2.0</ele><time>2026-05-02T10:58:11.999Z</time></trkpt><trkpt lat="39.91904120074286" lon="8.522347779604322"><ele>1.3333333333333333</ele><time>2026-05-02T10:58:12.999Z</time></trkpt><trkpt lat="39.91901774381723" lon="8.522546010377148"><ele>0.6666666666666666</ele><time>2026-05-02T10:58:13.999Z</time></trkpt><trkpt lat="39.91898366045511" lon="8.522749657273373"><ele>0.0</ele><time>2026-05-02T10:58:14.999Z</time></trkpt><trkpt lat="39.918945843974456" lon="8.522960642182023"><ele>0.0</ele><time>2026-05-02T10:58:15.999Z</time></trkpt><trkpt lat="39.918906744534674" lon="8.523176842488795"><ele>0.0</ele><time>2026-05-02T10:58:16.999Z</time></trkpt><trkpt lat="39.918866911849385" lon="8.523394422966335"><ele>0.0</ele><time>2026-05-02T10:58:17.999Z</time></trkpt><trkpt lat="39.9188291354296" lon="8.523627458717964"><ele>0.0</ele><time>2026-05-02T10:58:18.999Z</time></trkpt><trkpt lat="39.918790585064066" lon="8.523861773213003"><ele>0.0</ele><time>2026-05-02T10:58:19.999Z</time></trkpt><trkpt lat="39.91875201271104" lon="8.524080604033239"><ele>0.0</ele><time>2026-05-02T10:58:20.999Z</time></trkpt><trkpt lat="39.91870658681317" lon="8.524269895441298"><ele>0.0</ele><time>2026-05-02T10:58:21.999Z</time></trkpt><trkpt lat="39.918667412601486" lon="8.524431480176263"><ele>0.0</ele><time>2026-05-02T10:58:22.999Z</time></trkpt><trkpt lat="39.918636984358734" lon="8.524581665355441"><ele>0.0</ele><time>2026-05-02T10:58:23.999Z</time></trkpt><trkpt lat="39.918613637558714" lon="8.524731488192387"><ele>0.0</ele><time>2026-05-02T10:58:24.999Z</time></trkpt><trkpt lat="39.91858305978166" lon="8.524893375738309"><ele>0.0</ele><time>2026-05-02T10:58:25.999Z</time></trkpt><trkpt lat="39.91854252447984" lon="8.525074992433849"><ele>0.0</ele><time>2026-05-02T10:58:26.999Z</time></trkpt><trkpt lat="39.918507557596165" lon="8.52526696856451"><ele>0.0</ele><time>2026-05-02T10:58:27.999Z</time></trkpt><trkpt lat="39.91847970660456" lon="8.525470025059986"><ele>0.0</ele><time>2026-05-02T10:58:28.999Z</time></trkpt><trkpt lat="39.91842642851703" lon="8.52567344514739"><ele>0.0</ele><time>2026-05-02T10:58:29.999Z</time></trkpt><trkpt lat="39.91838230578409" lon="8.52589589616072"><ele>0.0</ele><time>2026-05-02T10:58:30.999Z</time></trkpt><trkpt lat="39.91833657792185" lon="8.526126570731746"><ele>0.3333333333333333</ele><time>2026-05-02T10:58:31.999Z</time></trkpt><trkpt lat="39.91828932347852" lon="8.526364946174112"><ele>0.6666666666666666</ele><time>2026-05-02T10:58:32.999Z</time></trkpt><trkpt lat="39.9182406014441" lon="8.526611553019084"><ele>1.0</ele><time>2026-05-02T10:58:33.999Z</time></trkpt><trkpt lat="39.91819320899118" lon="8.526863731371735"><ele>0.6666666666666666</ele><time>2026-05-02T10:58:34.999Z</time></trkpt><trkpt lat="39.91815276193256" lon="8.527122454357269"><ele>0.3333333333333333</ele><time>2026-05-02T10:58:35.999Z</time></trkpt><trkpt lat="39.91809715627274" lon="8.527373178401263"><ele>0.0</ele><time>2026-05-02T10:58:36.999Z</time></trkpt><trkpt lat="39.91804642001285" lon="8.527616317325766"><ele>0.0</ele><time>2026-05-02T10:58:37.999Z</time></trkpt><trkpt lat="39.91800056921514" lon="8.52786258952801"><ele>0.0</ele><time>2026-05-02T10:58:38.999Z</time></trkpt><trkpt lat="39.91796258648652" lon="8.52811706272243"><ele>0.0</ele><time>2026-05-02T10:58:39.999Z</time></trkpt><trkpt lat="39.91792771665193" lon="8.528379127146012"><ele>0.6666666666666666</ele><time>2026-05-02T10:58:40.999Z</time></trkpt><trkpt lat="39.91789921838313" lon="8.528648015033923"><ele>1.3333333333333333</ele><time>2026-05-02T10:58:41.999Z</time></trkpt><trkpt lat="39.91787694569119" lon="8.528922176724278"><ele>2.0</ele><time>2026-05-02T10:58:42.999Z</time></trkpt><trkpt lat="39.917865408460486" lon="8.529194656785286"><ele>2.0</ele><time>2026-05-02T10:58:43.999Z</time></trkpt><trkpt lat="39.917867941729405" lon="8.529471755323733"><ele>2.0</ele><time>2026-05-02T10:58:44.999Z</time></trkpt><trkpt lat="39.91788769571622" lon="8.529744843461737"><ele>2.0</ele><time>2026-05-02T10:58:45.999Z</time></trkpt><trkpt lat="39.91792039698192" lon="8.530010749241672"><ele>1.6666666666666665</ele><time>2026-05-02T10:58:46.999Z</time></trkpt><trkpt lat="39.91796042110635" lon="8.530268721596148"><ele>1.3333333333333333</ele><time>2026-05-02T10:58:47.999Z</time></trkpt><trkpt lat="39.91800107048967" lon="8.530524086729782"><ele>1.0</ele><time>2026-05-02T10:58:48.999Z</time></trkpt><trkpt lat="39.91803871958454" lon="8.530777207371266"><ele>1.0</ele><time>2026-05-02T10:58:49.999Z</time></trkpt><trkpt lat="39.918083108138525" lon="8.53103292044322"><ele>1.0</ele><time>2026-05-02T10:58:50.999Z</time></trkpt><trkpt lat="39.918131090397786" lon="8.531288437430728"><ele>1.0</ele><time>2026-05-02T10:58:51.999Z</time></trkpt><trkpt lat="39.918182370146546" lon="8.531543844314832"><ele>1.3333333333333333</ele><time>2026-05-02T10:58:52.999Z</time></trkpt><trkpt lat="39.9182308469509" lon="8.531800383458643"><ele>1.6666666666666665</ele><time>2026-05-02T10:58:53.999Z</time></trkpt><trkpt lat="39.91827786923558" lon="8.532058657145344"><ele>2.0</ele><time>2026-05-02T10:58:54.999Z</time></trkpt><trkpt lat="39.9183240398033" lon="8.532317651447768"><ele>2.0</ele><time>2026-05-02T10:58:55.999Z</time></trkpt><trkpt lat="39.91837325394479" lon="8.532577999689629"><ele>2.0</ele><time>2026-05-02T10:58:56.999Z</time></trkpt><trkpt lat="39.91842254297135" lon="8.532839154145055"><ele>2.0</ele><time>2026-05-02T10:58:57.999Z</time></trkpt><trkpt lat="39.918471803676525" lon="8.53310132175416"><ele>1.6666666666666665</ele><time>2026-05-02T10:58:58.999Z</time></trkpt><trkpt lat="39.918516996018134" lon="8.533361076549244"><ele>1.3333333333333333</ele><time>2026-05-02T10:58:59.999Z</time></trkpt><trkpt lat="39.91856275587962" lon="8.533621167042229"><ele>1.0</ele><time>2026-05-02T10:59:00.999Z</time></trkpt><trkpt lat="39.91861175803278" lon="8.533880731849852"><ele>1.0</ele><time>2026-05-02T10:59:01.999Z</time></trkpt><trkpt lat="39.918663732833316" lon="8.534139637532832"><ele>1.0</ele><time>2026-05-02T10:59:02.999Z</time></trkpt><trkpt lat="39.918718350487474" lon="8.534397774815321"><ele>1.0</ele><time>2026-05-02T10:59:03.999Z</time></trkpt><trkpt lat="39.91876924279861" lon="8.53465702671972"><ele>1.0</ele><time>2026-05-02T10:59:04.999Z</time></trkpt><trkpt lat="39.918813845260296" lon="8.534916866435143"><ele>1.0</ele><time>2026-05-02T10:59:05.999Z</time></trkpt><trkpt lat="39.9188558917293" lon="8.535176952265617"><ele>1.0</ele><time>2026-05-02T10:59:06.999Z</time></trkpt><trkpt lat="39.918902742856666" lon="8.535432362641927"><ele>1.0</ele><time>2026-05-02T10:59:07.999Z</time></trkpt><trkpt lat="39.91895298604169" lon="8.535678825681563"><ele>1.0</ele><time>2026-05-02T10:59:08.999Z</time></trkpt><trkpt lat="39.918998398197395" lon="8.535918268329507"><ele>1.0</ele><time>2026-05-02T10:59:09.999Z</time></trkpt><trkpt lat="39.91903693914399" lon="8.536148392179348"><ele>1.0</ele><time>2026-05-02T10:59:10.999Z</time></trkpt><trkpt lat="39.91907057229988" lon="8.536360538225718"><ele>1.0</ele><time>2026-05-02T10:59:11.999Z</time></trkpt><trkpt lat="39.91910456564692" lon="8.536563406017414"><ele>1.0</ele><time>2026-05-02T10:59:12.999Z</time></trkpt><trkpt lat="39.919134009805454" lon="8.53675127595717"><ele>1.0</ele><time>2026-05-02T10:59:13.999Z</time></trkpt><trkpt lat="39.91916758153956" lon="8.5369236938523"><ele>1.0</ele><time>2026-05-02T10:59:14.998Z</time></trkpt><trkpt lat="39.91915263433651" lon="8.53708295436218"><ele>1.0</ele><time>2026-05-02T10:59:15.998Z</time></trkpt><trkpt lat="39.91910282719286" lon="8.53723244962854"><ele>1.0</ele><time>2026-05-02T10:59:16.998Z</time></trkpt><trkpt lat="39.9190140834798" lon="8.537339117845375"><ele>1.25</ele><time>2026-05-02T10:59:17.998Z</time></trkpt><trkpt lat="39.91895784856205" lon="8.537455453178067"><ele>1.5</ele><time>2026-05-02T10:59:18.998Z</time></trkpt><trkpt lat="39.91891133954811" lon="8.537594337429628"><ele>1.75</ele><time>2026-05-02T10:59:19.998Z</time></trkpt><trkpt lat="39.918948534647775" lon="8.53773722510647"><ele>2.0</ele><time>2026-05-02T10:59:20.998Z</time></trkpt><trkpt lat="39.91882729503569" lon="8.537896490136056"><ele>2.0</ele><time>2026-05-02T10:59:21.998Z</time></trkpt><trkpt lat="39.91875021608548" lon="8.538034155512449"><ele>2.0</ele><time>2026-05-02T10:59:22.998Z</time></trkpt><trkpt lat="39.91864365499433" lon="8.538158000475722"><ele>2.0</ele><time>2026-05-02T10:59:23.998Z</time></trkpt><trkpt lat="39.91852266203915" lon="8.538293710732049"><ele>2.0</ele><time>2026-05-02T10:59:24.998Z</time></trkpt><trkpt lat="39.918385770341914" lon="8.53844206057456"><ele>1.6666666666666665</ele><time>2026-05-02T10:59:25.998Z</time></trkpt><trkpt lat="39.918234273642504" lon="8.53859709375557"><ele>1.3333333333333333</ele><time>2026-05-02T10:59:26.998Z</time></trkpt><trkpt lat="39.918070453015254" lon="8.538762827688506"><ele>1.0</ele><time>2026-05-02T10:59:27.998Z</time></trkpt><trkpt lat="39.917899807388665" lon="8.538927311386011"><ele>1.6666666666666665</ele><time>2026-05-02T10:59:28.998Z</time></trkpt><trkpt lat="39.917732268728564" lon="8.539102025989896"><ele>2.3333333333333335</ele><time>2026-05-02T10:59:29.998Z</time></trkpt><trkpt lat="39.917556901035276" lon="8.539295042236274"><ele>3.0</ele><time>2026-05-02T10:59:30.998Z</time></trkpt><trkpt lat="39.91737813149307" lon="8.539492822680259"><ele>3.0</ele><time>2026-05-02T10:59:31.998Z</time></trkpt><trkpt lat="39.917191125419386" lon="8.53967711812988"><ele>3.0</ele><time>2026-05-02T10:59:32.998Z</time></trkpt><trkpt lat="39.91700492140557" lon="8.539856796878027"><ele>3.0</ele><time>2026-05-02T10:59:33.998Z</time></trkpt><trkpt lat="39.91681782351213" lon="8.540032782385492"><ele>3.0</ele><time>2026-05-02T10:59:34.998Z</time></trkpt><trkpt lat="39.916617699418765" lon="8.540151448856623"><ele>3.0</ele><time>2026-05-02T10:59:35.998Z</time></trkpt><trkpt lat="39.91642556870435" lon="8.540280712868627"><ele>3.0</ele><time>2026-05-02T10:59:36.998Z</time></trkpt><trkpt lat="39.916225929959985" lon="8.540375661482146"><ele>3.0</ele><time>2026-05-02T10:59:37.998Z</time></trkpt><trkpt lat="39.91605102874543" lon="8.540472907218735"><ele>3.333333333333333</ele><time>2026-05-02T10:59:38.998Z</time></trkpt><trkpt lat="39.915900108558056" lon="8.540558700692495"><ele>3.6666666666666665</ele><time>2026-05-02T10:59:39.998Z</time></trkpt><trkpt lat="39.91575089149448" lon="8.540641655355907"><ele>4.0</ele><time>2026-05-02T10:59:40.998Z</time></trkpt><trkpt lat="39.91559838404566" lon="8.540727472402088"><ele>4.0</ele><time>2026-05-02T10:59:41.998Z</time></trkpt><trkpt lat="39.91545380775015" lon="8.540827383763787"><ele>4.0</ele><time>2026-05-02T10:59:42.998Z</time></trkpt><trkpt lat="39.91532952213376" lon="8.54093832801027"><ele>4.0</ele><time>2026-05-02T10:59:43.998Z</time></trkpt><trkpt lat="39.91522847374165" lon="8.541065712799229"><ele>4.0</ele><time>2026-05-02T10:59:44.998Z</time></trkpt><trkpt lat="39.91514737931068" lon="8.54120214934038"><ele>4.0</ele><time>2026-05-02T10:59:46Z</time></trkpt><trkpt lat="39.91507661340577" lon="8.541339742109619"><ele>4.0</ele><time>2026-05-02T10:59:47Z</time></trkpt><trkpt lat="39.914998125105946" lon="8.541469606097271"><ele>4.0</ele><time>2026-05-02T10:59:48Z</time></trkpt><trkpt lat="39.91491575442028" lon="8.541594213446741"><ele>4.4</ele><time>2026-05-02T10:59:49Z</time></trkpt><trkpt lat="39.914838555573304" lon="8.541705645632067"><ele>4.800000000000001</ele><time>2026-05-02T10:59:50Z</time></trkpt><trkpt lat="39.91477025843405" lon="8.541801747513125"><ele>5.199999999999999</ele><time>2026-05-02T10:59:51Z</time></trkpt><trkpt lat="39.91470406068486" lon="8.541878304675306"><ele>5.6</ele><time>2026-05-02T10:59:52Z</time></trkpt><trkpt lat="39.91462494887537" lon="8.54192192531151"><ele>6.0</ele><time>2026-05-02T10:59:53Z</time></trkpt><trkpt lat="39.91453914716704" lon="8.54190769939809"><ele>6.0</ele><time>2026-05-02T10:59:54Z</time></trkpt><trkpt lat="39.914477380776674" lon="8.541840311168178"><ele>6.0</ele><time>2026-05-02T10:59:55Z</time></trkpt><trkpt lat="39.914443800437276" lon="8.541731322893186"><ele>6.0</ele><time>2026-05-02T10:59:56Z</time></trkpt><trkpt lat="39.91445254096038" lon="8.541605050421076"><ele>6.0</ele><time>2026-05-02T10:59:57Z</time></trkpt><trkpt lat="39.914504977010736" lon="8.541476834854121"><ele>6.0</ele><time>2026-05-02T10:59:58Z</time></trkpt><trkpt lat="39.914573991144536" lon="8.541358574920528"><ele>6.0</ele><time>2026-05-02T10:59:59Z</time></trkpt><trkpt lat="39.9146394165599" lon="8.541275633418566"><ele>6.0</ele><time>2026-05-02T11:00:00Z</time></trkpt><trkpt lat="39.914686777010395" lon="8.541163037128278"><ele>6.0</ele><time>2026-05-02T11:00:02Z</time></trkpt><trkpt lat="39.915003263499116" lon="8.54079354073437"><ele>5.5</ele><time>2026-05-02T11:00:03Z</time></trkpt><trkpt lat="39.91497342350677" lon="8.540686582035324"><ele>5.0</ele><time>2026-05-02T11:00:05Z</time></trkpt><trkpt lat="39.914424239127285" lon="8.54090382514174"><ele>5.0</ele><time>2026-05-02T11:00:06Z</time></trkpt><trkpt lat="39.9143658803435" lon="8.54093539794811"><ele>5.0</ele><time>2026-05-02T11:00:08Z</time></trkpt><trkpt lat="39.914314558289355" lon="8.540724791148518"><ele>5.0</ele><time>2026-05-02T11:00:09Z</time></trkpt><trkpt lat="39.91438042308852" lon="8.54095025831792"><ele>5.0</ele><time>2026-05-02T11:00:19.999Z</time></trkpt><trkpt lat="39.91435396499608" lon="8.541039274427112"><ele>5.0</ele><time>2026-05-02T11:04:03Z</time></trkpt><trkpt lat="39.91443712930237" lon="8.541053956301145"><ele>5.0</ele><time>2026-05-02T11:04:06Z</time></trkpt><trkpt lat="39.91448909630309" lon="8.541004318993984"><ele>5.0</ele><time>2026-05-02T11:04:08Z</time></trkpt><trkpt lat="39.91458498677635" lon="8.540987504230527"><ele>5.0</ele><time>2026-05-02T11:04:10Z</time></trkpt><trkpt lat="39.91464334004225" lon="8.541096759544313"><ele>5.0</ele><time>2026-05-02T11:04:12Z</time></trkpt><trkpt lat="39.91465231089411" lon="8.541178258704326"><ele>5.0</ele><time>2026-05-02T11:04:13Z</time></trkpt><trkpt lat="39.91461481871368" lon="8.541324679636453"><ele>5.2</ele><time>2026-05-02T11:04:15Z</time></trkpt><trkpt lat="39.91452906869439" lon="8.5414092482408"><ele>5.4</ele><time>2026-05-02T11:04:16Z</time></trkpt><trkpt lat="39.91448805745594" lon="8.54151664509578"><ele>5.6</ele><time>2026-05-02T11:04:17Z</time></trkpt><trkpt lat="39.91447533632568" lon="8.541610709107552"><ele>5.8</ele><time>2026-05-02T11:04:17.999Z</time></trkpt><trkpt lat="39.91441688757557" lon="8.54173634374473"><ele>6.0</ele><time>2026-05-02T11:04:19.999Z</time></trkpt><trkpt lat="39.91434651058915" lon="8.541773892709518"><ele>6.0</ele><time>2026-05-02T11:04:20.999Z</time></trkpt><trkpt lat="39.91425527960839" lon="8.541804929286311"><ele>6.0</ele><time>2026-05-02T11:04:21.999Z</time></trkpt><trkpt lat="39.91415267290099" lon="8.541850657674129"><ele>6.0</ele><time>2026-05-02T11:04:22.999Z</time></trkpt><trkpt lat="39.91405736086047" lon="8.541918199702202"><ele>6.0</ele><time>2026-05-02T11:04:23.999Z</time></trkpt><trkpt lat="39.91397252889412" lon="8.542034818561916"><ele>6.0</ele><time>2026-05-02T11:04:24.999Z</time></trkpt><trkpt lat="39.91390959926047" lon="8.542203931954877"><ele>5.333333333333333</ele><time>2026-05-02T11:04:25.999Z</time></trkpt><trkpt lat="39.913854530174355" lon="8.542386738621156"><ele>4.666666666666666</ele><time>2026-05-02T11:04:26.999Z</time></trkpt><trkpt lat="39.913790347085055" lon="8.542559793534394"><ele>4.0</ele><time>2026-05-02T11:04:27.999Z</time></trkpt><trkpt lat="39.9136919731331" lon="8.542726611485671"><ele>3.6666666666666665</ele><time>2026-05-02T11:04:28.999Z</time></trkpt><trkpt lat="39.91357251424842" lon="8.542891478206661"><ele>3.333333333333333</ele><time>2026-05-02T11:04:29.999Z</time></trkpt><trkpt lat="39.91345277096721" lon="8.5430541782122"><ele>3.0</ele><time>2026-05-02T11:04:30.999Z</time></trkpt><trkpt lat="39.9133283671887" lon="8.543216848448667"><ele>2.6666666666666665</ele><time>2026-05-02T11:04:31.999Z</time></trkpt><trkpt lat="39.91319918982785" lon="8.543384887278878"><ele>2.333333333333333</ele><time>2026-05-02T11:04:32.999Z</time></trkpt><trkpt lat="39.913072517573184" lon="8.54355971262048"><ele>2.0</ele><time>2026-05-02T11:04:33.999Z</time></trkpt><trkpt lat="39.912932643977335" lon="8.543725361953625"><ele>2.0</ele><time>2026-05-02T11:04:34.999Z</time></trkpt><trkpt lat="39.9128080779134" lon="8.543904098833552"><ele>2.0</ele><time>2026-05-02T11:04:35.999Z</time></trkpt><trkpt lat="39.912694412934805" lon="8.544079859066514"><ele>2.0</ele><time>2026-05-02T11:04:36.999Z</time></trkpt><trkpt lat="39.91260028735443" lon="8.544241565210903"><ele>2.0</ele><time>2026-05-02T11:04:37.999Z</time></trkpt><trkpt lat="39.91252121520232" lon="8.54438893325002"><ele>2.0</ele><time>2026-05-02T11:04:38.999Z</time></trkpt><trkpt lat="39.912442004153846" lon="8.544551760032892"><ele>2.0</ele><time>2026-05-02T11:04:39.999Z</time></trkpt><trkpt lat="39.91236151680269" lon="8.54473530349529"><ele>2.0</ele><time>2026-05-02T11:04:40.999Z</time></trkpt><trkpt lat="39.91228331958243" lon="8.544934470475756"><ele>2.0</ele><time>2026-05-02T11:04:41.999Z</time></trkpt><trkpt lat="39.91221177186347" lon="8.545147921865407"><ele>2.0</ele><time>2026-05-02T11:04:42.999Z</time></trkpt><trkpt lat="39.91214565039998" lon="8.54536699565811"><ele>2.0</ele><time>2026-05-02T11:04:43.999Z</time></trkpt><trkpt lat="39.91208190694512" lon="8.545593598375941"><ele>2.0</ele><time>2026-05-02T11:04:44.999Z</time></trkpt><trkpt lat="39.91203262052079" lon="8.545831802296155"><ele>2.0</ele><time>2026-05-02T11:04:45.999Z</time></trkpt><trkpt lat="39.91199639475172" lon="8.546074788288472"><ele>2.0</ele><time>2026-05-02T11:04:46.999Z</time></trkpt><trkpt lat="39.91196688865341" lon="8.546321037611133"><ele>2.333333333333333</ele><time>2026-05-02T11:04:47.999Z</time></trkpt><trkpt lat="39.91194183091594" lon="8.546570622955324"><ele>2.6666666666666665</ele><time>2026-05-02T11:04:48.999Z</time></trkpt><trkpt lat="39.91191788990739" lon="8.546826331282961"><ele>3.0</ele><time>2026-05-02T11:04:49.999Z</time></trkpt><trkpt lat="39.91189353163886" lon="8.547086496530145"><ele>3.0</ele><time>2026-05-02T11:04:50.999Z</time></trkpt><trkpt lat="39.91186865262739" lon="8.547352223969233"><ele>3.0</ele><time>2026-05-02T11:04:51.999Z</time></trkpt><trkpt lat="39.91184342350906" lon="8.54762347156601"><ele>3.0</ele><time>2026-05-02T11:04:52.999Z</time></trkpt><trkpt lat="39.911831727795764" lon="8.547902355499787"><ele>3.0</ele><time>2026-05-02T11:04:53.999Z</time></trkpt><trkpt lat="39.91180263205601" lon="8.548182210401388"><ele>3.0</ele><time>2026-05-02T11:04:54.999Z</time></trkpt><trkpt lat="39.911777158256314" lon="8.548466186948819"><ele>3.0</ele><time>2026-05-02T11:04:55.999Z</time></trkpt><trkpt lat="39.9117509014368" lon="8.548751544092985"><ele>3.0</ele><time>2026-05-02T11:04:56.999Z</time></trkpt><trkpt lat="39.91172343329557" lon="8.549037488493907"><ele>3.0</ele><time>2026-05-02T11:04:57.999Z</time></trkpt><trkpt lat="39.91169660614967" lon="8.549323932042247"><ele>3.0</ele><time>2026-05-02T11:04:58.999Z</time></trkpt><trkpt lat="39.911671886764275" lon="8.54960982990376"><ele>3.0</ele><time>2026-05-02T11:04:59.999Z</time></trkpt><trkpt lat="39.91162984006122" lon="8.54989214376051"><ele>3.0</ele><time>2026-05-02T11:05:00.999Z</time></trkpt><trkpt lat="39.91160275754358" lon="8.550177782471549"><ele>3.0</ele><time>2026-05-02T11:05:01.999Z</time></trkpt><trkpt lat="39.91157550103716" lon="8.55046525617579"><ele>3.0</ele><time>2026-05-02T11:05:02.999Z</time></trkpt><trkpt lat="39.91156346225382" lon="8.550757416013615"><ele>3.0</ele><time>2026-05-02T11:05:03.999Z</time></trkpt><trkpt lat="39.91153531498041" lon="8.551044898457148"><ele>3.0</ele><time>2026-05-02T11:05:04.999Z</time></trkpt><trkpt lat="39.91150686619616" lon="8.551332977870262"><ele>3.0</ele><time>2026-05-02T11:05:05.999Z</time></trkpt><trkpt lat="39.91147953250557" lon="8.551622587380365"><ele>3.0</ele><time>2026-05-02T11:05:06.999Z</time></trkpt><trkpt lat="39.91145211569723" lon="8.551910359482669"><ele>3.0</ele><time>2026-05-02T11:05:07.999Z</time></trkpt><trkpt lat="39.91142457212522" lon="8.552200127052243"><ele>3.0</ele><time>2026-05-02T11:05:08.999Z</time></trkpt><trkpt lat="39.91139665618321" lon="8.552491197934033"><ele>3.0</ele><time>2026-05-02T11:05:09.999Z</time></trkpt><trkpt lat="39.911367590377786" lon="8.552784457562558"><ele>2.5</ele><time>2026-05-02T11:05:10.999Z</time></trkpt><trkpt lat="39.91134000520011" lon="8.553079425504022"><ele>2.0</ele><time>2026-05-02T11:05:11.999Z</time></trkpt><trkpt lat="39.911313137124424" lon="8.553374768878733"><ele>2.0</ele><time>2026-05-02T11:05:12.999Z</time></trkpt><trkpt lat="39.911283938107104" lon="8.553673252348863"><ele>2.0</ele><time>2026-05-02T11:05:13.999Z</time></trkpt><trkpt lat="39.91125408765484" lon="8.553973170169105"><ele>2.0</ele><time>2026-05-02T11:05:14.999Z</time></trkpt><trkpt lat="39.91122325159874" lon="8.554273329229877"><ele>2.0</ele><time>2026-05-02T11:05:15.999Z</time></trkpt><trkpt lat="39.91119297089747" lon="8.554574899628939"><ele>2.5</ele><time>2026-05-02T11:05:16.999Z</time></trkpt><trkpt lat="39.91116498018216" lon="8.554880702535678"><ele>3.0</ele><time>2026-05-02T11:05:17.999Z</time></trkpt><trkpt lat="39.9111375326542" lon="8.555189316675124"><ele>2.5</ele><time>2026-05-02T11:05:18.999Z</time></trkpt><trkpt lat="39.91110963233765" lon="8.555499214432016"><ele>2.0</ele><time>2026-05-02T11:05:19.999Z</time></trkpt><trkpt lat="39.91106785917477" lon="8.555810289224402"><ele>2.0</ele><time>2026-05-02T11:05:20.999Z</time></trkpt><trkpt lat="39.91103800017888" lon="8.556124389345731"><ele>2.0</ele><time>2026-05-02T11:05:21.999Z</time></trkpt><trkpt lat="39.91100863381425" lon="8.556434283880307"><ele>2.0</ele><time>2026-05-02T11:05:22.999Z</time></trkpt><trkpt lat="39.91099586358655" lon="8.556731914336565"><ele>2.0</ele><time>2026-05-02T11:05:23.999Z</time></trkpt><trkpt lat="39.910955089392125" lon="8.557000506669239"><ele>2.0</ele><time>2026-05-02T11:05:24.999Z</time></trkpt><trkpt lat="39.91093191722956" lon="8.557245547937125"><ele>2.25</ele><time>2026-05-02T11:05:25.998Z</time></trkpt><trkpt lat="39.910914116788554" lon="8.557442969211612"><ele>2.5</ele><time>2026-05-02T11:05:26.998Z</time></trkpt><trkpt lat="39.9109013541448" lon="8.557592281333566"><ele>2.75</ele><time>2026-05-02T11:05:27.998Z</time></trkpt><trkpt lat="39.91085608199473" lon="8.557697120915916"><ele>3.0</ele><time>2026-05-02T11:05:28.998Z</time></trkpt><trkpt lat="39.910784527604385" lon="8.55777944534863"><ele>3.2</ele><time>2026-05-02T11:05:29.998Z</time></trkpt><trkpt lat="39.91069542021886" lon="8.557817690094012"><ele>3.4</ele><time>2026-05-02T11:05:30.998Z</time></trkpt><trkpt lat="39.91062188962592" lon="8.557872289570321"><ele>3.6000000000000005</ele><time>2026-05-02T11:05:31.998Z</time></trkpt><trkpt lat="39.910509372677005" lon="8.557786911459354"><ele>3.8000000000000003</ele><time>2026-05-02T11:05:32.998Z</time></trkpt><trkpt lat="39.910434116829336" lon="8.557667525816449"><ele>4.0</ele><time>2026-05-02T11:05:33.998Z</time></trkpt><trkpt lat="39.91035862601052" lon="8.557558906110529"><ele>4.0</ele><time>2026-05-02T11:05:34.998Z</time></trkpt><trkpt lat="39.91027053463106" lon="8.557443287936863"><ele>4.0</ele><time>2026-05-02T11:05:35.998Z</time></trkpt><trkpt lat="39.910176799992485" lon="8.557318391994158"><ele>4.0</ele><time>2026-05-02T11:05:36.998Z</time></trkpt><trkpt lat="39.91008912938117" lon="8.557200244496801"><ele>4.0</ele><time>2026-05-02T11:05:37.998Z</time></trkpt><trkpt lat="39.91002319972546" lon="8.557108472218951"><ele>3.8000000000000003</ele><time>2026-05-02T11:05:38.998Z</time></trkpt><trkpt lat="39.90996650169806" lon="8.557026637290084"><ele>3.6000000000000005</ele><time>2026-05-02T11:05:39.998Z</time></trkpt><trkpt lat="39.90989847841296" lon="8.556932525430932"><ele>3.4</ele><time>2026-05-02T11:05:40.998Z</time></trkpt><trkpt lat="39.909814120908294" lon="8.556835245280613"><ele>3.2</ele><time>2026-05-02T11:05:41.998Z</time></trkpt><trkpt lat="39.90971567536384" lon="8.556735919365552"><ele>3.0</ele><time>2026-05-02T11:05:42.998Z</time></trkpt><trkpt lat="39.90961139189547" lon="8.55664339271606"><ele>3.0</ele><time>2026-05-02T11:05:43.998Z</time></trkpt><trkpt lat="39.90951391864142" lon="8.556565271345619"><ele>3.0</ele><time>2026-05-02T11:05:44.998Z</time></trkpt><trkpt lat="39.909427589725695" lon="8.556504174543193"><ele>3.0</ele><time>2026-05-02T11:05:45.998Z</time></trkpt><trkpt lat="39.909333922460306" lon="8.55644500498231"><ele>3.0</ele><time>2026-05-02T11:05:46.998Z</time></trkpt><trkpt lat="39.909247308449785" lon="8.556381210320334"><ele>3.0</ele><time>2026-05-02T11:05:47.998Z</time></trkpt><trkpt lat="39.9091641632132" lon="8.556313144421887"><ele>3.0</ele><time>2026-05-02T11:05:48.998Z</time></trkpt><trkpt lat="39.9091006333134" lon="8.556189830837987"><ele>3.0</ele><time>2026-05-02T11:05:49.998Z</time></trkpt><trkpt lat="39.9090127739023" lon="8.556119587728713"><ele>3.0</ele><time>2026-05-02T11:05:50.998Z</time></trkpt><trkpt lat="39.90892288787604" lon="8.556040854986287"><ele>3.0</ele><time>2026-05-02T11:05:51.998Z</time></trkpt><trkpt lat="39.90882830368835" lon="8.555958004790337"><ele>3.0</ele><time>2026-05-02T11:05:52.998Z</time></trkpt><trkpt lat="39.908714057281145" lon="8.555876806825836"><ele>3.0</ele><time>2026-05-02T11:05:53.998Z</time></trkpt><trkpt lat="39.9085904016986" lon="8.555785024574515"><ele>3.0</ele><time>2026-05-02T11:05:54.998Z</time></trkpt><trkpt lat="39.90845035335237" lon="8.55568676407337"><ele>3.0</ele><time>2026-05-02T11:05:55.998Z</time></trkpt><trkpt lat="39.908300812194184" lon="8.55558504627105"><ele>3.0</ele><time>2026-05-02T11:05:56.998Z</time></trkpt><trkpt lat="39.90814422223012" lon="8.55549015415999"><ele>3.0</ele><time>2026-05-02T11:05:57.998Z</time></trkpt><trkpt lat="39.90797134587157" lon="8.555395883115207"><ele>3.0</ele><time>2026-05-02T11:05:58.998Z</time></trkpt><trkpt lat="39.90778193069882" lon="8.555304595479138"><ele>3.5</ele><time>2026-05-02T11:05:59.998Z</time></trkpt><trkpt lat="39.90756313033536" lon="8.555211776194746"><ele>4.0</ele><time>2026-05-02T11:06:00.998Z</time></trkpt><trkpt lat="39.90733372022826" lon="8.555119935180125"><ele>4.0</ele><time>2026-05-02T11:06:02Z</time></trkpt><trkpt lat="39.90710581934238" lon="8.555028925623146"><ele>4.0</ele><time>2026-05-02T11:06:03Z</time></trkpt><trkpt lat="39.906871812731666" lon="8.55493613663104"><ele>4.5</ele><time>2026-05-02T11:06:04Z</time></trkpt><trkpt lat="39.90664486820684" lon="8.554848265273428"><ele>5.0</ele><time>2026-05-02T11:06:05Z</time></trkpt><trkpt lat="39.90641997377248" lon="8.554766788302189"><ele>5.0</ele><time>2026-05-02T11:06:06Z</time></trkpt><trkpt lat="39.906197444899874" lon="8.554691698690037"><ele>5.0</ele><time>2026-05-02T11:06:07Z</time></trkpt><trkpt lat="39.90596943534297" lon="8.554624240814558"><ele>4.0</ele><time>2026-05-02T11:06:08Z</time></trkpt><trkpt lat="39.905740234968135" lon="8.554560095562504"><ele>3.0</ele><time>2026-05-02T11:06:09Z</time></trkpt><trkpt lat="39.9055127491981" lon="8.55450443921026"><ele>3.0</ele><time>2026-05-02T11:06:10Z</time></trkpt><trkpt lat="39.905286164969695" lon="8.554458226638852"><ele>3.0</ele><time>2026-05-02T11:06:11Z</time></trkpt><trkpt lat="39.90505766235251" lon="8.554421341204687"><ele>3.0</ele><time>2026-05-02T11:06:12Z</time></trkpt><trkpt lat="39.904825306370164" lon="8.554402971999917"><ele>3.0</ele><time>2026-05-02T11:06:13Z</time></trkpt><trkpt lat="39.904592479338554" lon="8.554390202089115"><ele>3.0</ele><time>2026-05-02T11:06:14Z</time></trkpt><trkpt lat="39.9043548373273" lon="8.554393717847907"><ele>3.0</ele><time>2026-05-02T11:06:15Z</time></trkpt><trkpt lat="39.90412213403627" lon="8.554399076265357"><ele>3.0</ele><time>2026-05-02T11:06:16Z</time></trkpt><trkpt lat="39.90390606052463" lon="8.55441057806247"><ele>3.0</ele><time>2026-05-02T11:06:17Z</time></trkpt><trkpt lat="39.90370920973414" lon="8.554424595325187"><ele>3.0</ele><time>2026-05-02T11:06:18Z</time></trkpt><trkpt lat="39.903516124882756" lon="8.554443620041903"><ele>3.0</ele><time>2026-05-02T11:06:19Z</time></trkpt><trkpt lat="39.90332186771583" lon="8.554474384412226"><ele>3.0</ele><time>2026-05-02T11:06:20Z</time></trkpt><trkpt lat="39.90312705688222" lon="8.554505285875425"><ele>3.0</ele><time>2026-05-02T11:06:20.999Z</time></trkpt><trkpt lat="39.902936055858014" lon="8.554554639420981"><ele>3.0</ele><time>2026-05-02T11:06:21.999Z</time></trkpt><trkpt lat="39.90279007596046" lon="8.554567751448435"><ele>3.0</ele><time>2026-05-02T11:06:22.999Z</time></trkpt><trkpt lat="39.90271588860708" lon="8.554556336707577"><ele>3.0</ele><time>2026-05-02T11:06:23.999Z</time></trkpt><trkpt lat="39.902656870840744" lon="8.554614308721428"><ele>3.0</ele><time>2026-05-02T11:06:25.999Z</time></trkpt><trkpt lat="39.902658671253285" lon="8.554707401421746"><ele>3.0</ele><time>2026-05-02T11:06:27.999Z</time></trkpt><trkpt lat="39.902614767415514" lon="8.554766739245114"><ele>3.0</ele><time>2026-05-02T11:06:29.999Z</time></trkpt><trkpt lat="39.902528168135234" lon="8.554824660794413"><ele>3.5</ele><time>2026-05-02T11:06:30.999Z</time></trkpt><trkpt lat="39.90242699086169" lon="8.554892332830379"><ele>4.0</ele><time>2026-05-02T11:06:31.999Z</time></trkpt><trkpt lat="39.902300443560385" lon="8.554976973410891"><ele>4.5</ele><time>2026-05-02T11:06:32.999Z</time></trkpt><trkpt lat="39.90215357658872" lon="8.555075126060753"><ele>5.0</ele><time>2026-05-02T11:06:33.999Z</time></trkpt><trkpt lat="39.90199552686626" lon="8.555180473758309"><ele>5.0</ele><time>2026-05-02T11:06:34.999Z</time></trkpt><trkpt lat="39.90182490853236" lon="8.555294587950758"><ele>5.0</ele><time>2026-05-02T11:06:35.999Z</time></trkpt><trkpt lat="39.90164708827103" lon="8.555413945328128"><ele>5.0</ele><time>2026-05-02T11:06:36.999Z</time></trkpt><trkpt lat="39.90146543421892" lon="8.555539046594326"><ele>5.0</ele><time>2026-05-02T11:06:37.999Z</time></trkpt><trkpt lat="39.90128626751544" lon="8.555666772673286"><ele>5.0</ele><time>2026-05-02T11:06:38.999Z</time></trkpt><trkpt lat="39.90112800728346" lon="8.555783324024148"><ele>5.0</ele><time>2026-05-02T11:06:39.999Z</time></trkpt><trkpt lat="39.90098524311002" lon="8.555885620002869"><ele>4.333333333333334</ele><time>2026-05-02T11:06:40.999Z</time></trkpt><trkpt lat="39.90085133791153" lon="8.55598156801196"><ele>3.666666666666667</ele><time>2026-05-02T11:06:41.999Z</time></trkpt><trkpt lat="39.90073277447313" lon="8.556089877824936"><ele>3.0</ele><time>2026-05-02T11:06:42.999Z</time></trkpt><trkpt lat="39.900597972789704" lon="8.556195394118424"><ele>2.75</ele><time>2026-05-02T11:06:43.999Z</time></trkpt><trkpt lat="39.90047882261787" lon="8.556317294465316"><ele>2.5</ele><time>2026-05-02T11:06:44.999Z</time></trkpt><trkpt lat="39.900380055836266" lon="8.556428192466747"><ele>2.25</ele><time>2026-05-02T11:06:45.999Z</time></trkpt><trkpt lat="39.90028269018129" lon="8.556551172536071"><ele>2.0</ele><time>2026-05-02T11:06:46.999Z</time></trkpt><trkpt lat="39.90018208385853" lon="8.556697687310555"><ele>2.0</ele><time>2026-05-02T11:06:47.999Z</time></trkpt><trkpt lat="39.90008513651886" lon="8.556877214656476"><ele>2.0</ele><time>2026-05-02T11:06:48.999Z</time></trkpt><trkpt lat="39.89999328650901" lon="8.557065871044413"><ele>2.0</ele><time>2026-05-02T11:06:49.999Z</time></trkpt><trkpt lat="39.899884866990654" lon="8.557253735927146"><ele>2.0</ele><time>2026-05-02T11:06:50.999Z</time></trkpt><trkpt lat="39.899790136737664" lon="8.55745043506801"><ele>2.0</ele><time>2026-05-02T11:06:51.999Z</time></trkpt><trkpt lat="39.89969584226729" lon="8.557647498762364"><ele>2.0</ele><time>2026-05-02T11:06:52.999Z</time></trkpt><trkpt lat="39.8996058656846" lon="8.55784482117537"><ele>2.0</ele><time>2026-05-02T11:06:53.999Z</time></trkpt><trkpt lat="39.89952157503562" lon="8.558031703931126"><ele>2.0</ele><time>2026-05-02T11:06:54.999Z</time></trkpt><trkpt lat="39.89944143596943" lon="8.558213851817143"><ele>2.0</ele><time>2026-05-02T11:06:55.999Z</time></trkpt><trkpt lat="39.89936436049929" lon="8.558390147547373"><ele>2.0</ele><time>2026-05-02T11:06:56.999Z</time></trkpt><trkpt lat="39.89928801853549" lon="8.558567514829402"><ele>2.0</ele><time>2026-05-02T11:06:57.999Z</time></trkpt><trkpt lat="39.89921418155536" lon="8.558739062184772"><ele>2.0</ele><time>2026-05-02T11:06:58.999Z</time></trkpt><trkpt lat="39.899152600886175" lon="8.558921456595787"><ele>1.5</ele><time>2026-05-02T11:06:59.999Z</time></trkpt><trkpt lat="39.89907294315794" lon="8.559081660359753"><ele>1.0</ele><time>2026-05-02T11:07:00.999Z</time></trkpt><trkpt lat="39.89900625667457" lon="8.559223345589048"><ele>0.5</ele><time>2026-05-02T11:07:01.999Z</time></trkpt><trkpt lat="39.89894104924095" lon="8.559365538272942"><ele>0.0</ele><time>2026-05-02T11:07:02.999Z</time></trkpt><trkpt lat="39.89887583086969" lon="8.559512078885989"><ele>0.25</ele><time>2026-05-02T11:07:03.999Z</time></trkpt><trkpt lat="39.89881175944472" lon="8.559664556185977"><ele>0.5</ele><time>2026-05-02T11:07:04.999Z</time></trkpt><trkpt lat="39.898745521444326" lon="8.559812951484467"><ele>0.75</ele><time>2026-05-02T11:07:05.999Z</time></trkpt><trkpt lat="39.89867810735049" lon="8.559959703424443"><ele>1.0</ele><time>2026-05-02T11:07:06.999Z</time></trkpt><trkpt lat="39.898611042964156" lon="8.560106426178791"><ele>1.0</ele><time>2026-05-02T11:07:07.999Z</time></trkpt><trkpt lat="39.89854663135746" lon="8.560249053682963"><ele>1.0</ele><time>2026-05-02T11:07:08.999Z</time></trkpt><trkpt lat="39.89848366095819" lon="8.560387116294809"><ele>1.0</ele><time>2026-05-02T11:07:09.999Z</time></trkpt><trkpt lat="39.89842387816223" lon="8.560517080067424"><ele>1.0</ele><time>2026-05-02T11:07:10.999Z</time></trkpt><trkpt lat="39.89836610161474" lon="8.56065184803895"><ele>1.0</ele><time>2026-05-02T11:07:11.999Z</time></trkpt><trkpt lat="39.89830372570644" lon="8.560796357641633"><ele>1.0</ele><time>2026-05-02T11:07:12.999Z</time></trkpt><trkpt lat="39.898234970231584" lon="8.560942307421959"><ele>1.0</ele><time>2026-05-02T11:07:13.999Z</time></trkpt><trkpt lat="39.898167925912794" lon="8.561087164673783"><ele>1.0</ele><time>2026-05-02T11:07:14.999Z</time></trkpt><trkpt lat="39.89810378631307" lon="8.5612334014942"><ele>1.25</ele><time>2026-05-02T11:07:15.999Z</time></trkpt><trkpt lat="39.898037949849765" lon="8.56137614217754"><ele>1.5</ele><time>2026-05-02T11:07:16.999Z</time></trkpt><trkpt lat="39.89796606988285" lon="8.56151956147744"><ele>1.75</ele><time>2026-05-02T11:07:17.999Z</time></trkpt><trkpt lat="39.8978983565904" lon="8.561662311904929"><ele>2.0</ele><time>2026-05-02T11:07:18.999Z</time></trkpt><trkpt lat="39.897829374210346" lon="8.561800428950463"><ele>2.0</ele><time>2026-05-02T11:07:19.999Z</time></trkpt><trkpt lat="39.89776035585438" lon="8.561943925662506"><ele>2.0</ele><time>2026-05-02T11:07:20.999Z</time></trkpt><trkpt lat="39.89769053449588" lon="8.562097332620615"><ele>2.0</ele><time>2026-05-02T11:07:21.999Z</time></trkpt><trkpt lat="39.89762674945926" lon="8.562250146053012"><ele>2.0</ele><time>2026-05-02T11:07:22.999Z</time></trkpt><trkpt lat="39.89756167492972" lon="8.562397405619743"><ele>2.0</ele><time>2026-05-02T11:07:23.999Z</time></trkpt><trkpt lat="39.89748962728549" lon="8.562546787509309"><ele>2.0</ele><time>2026-05-02T11:07:24.999Z</time></trkpt><trkpt lat="39.89742045100886" lon="8.56270440836858"><ele>2.0</ele><time>2026-05-02T11:07:25.999Z</time></trkpt><trkpt lat="39.89734628588636" lon="8.562862869877186"><ele>2.0</ele><time>2026-05-02T11:07:26.999Z</time></trkpt><trkpt lat="39.897272620103514" lon="8.563022931256285"><ele>2.25</ele><time>2026-05-02T11:07:27.998Z</time></trkpt><trkpt lat="39.89719860682219" lon="8.563183898985534"><ele>2.5</ele><time>2026-05-02T11:07:28.998Z</time></trkpt><trkpt lat="39.897124609871895" lon="8.563347080515111"><ele>2.75</ele><time>2026-05-02T11:07:29.998Z</time></trkpt><trkpt lat="39.897052100983444" lon="8.563503442479377"><ele>3.0</ele><time>2026-05-02T11:07:30.998Z</time></trkpt><trkpt lat="39.896977895578274" lon="8.563658942773438"><ele>2.75</ele><time>2026-05-02T11:07:31.998Z</time></trkpt><trkpt lat="39.896909528822256" lon="8.563803439852174"><ele>2.5</ele><time>2026-05-02T11:07:32.998Z</time></trkpt><trkpt lat="39.89685089911104" lon="8.563938595246867"><ele>2.25</ele><time>2026-05-02T11:07:33.998Z</time></trkpt><trkpt lat="39.89678367835771" lon="8.564051028387489"><ele>2.0</ele><time>2026-05-02T11:07:34.998Z</time></trkpt><trkpt lat="39.89672114523007" lon="8.56418618820755"><ele>2.0</ele><time>2026-05-02T11:07:35.998Z</time></trkpt><trkpt lat="39.896651492502805" lon="8.564340082859534"><ele>2.0</ele><time>2026-05-02T11:07:36.998Z</time></trkpt><trkpt lat="39.89657162902289" lon="8.564515988708283"><ele>2.0</ele><time>2026-05-02T11:07:37.998Z</time></trkpt><trkpt lat="39.896484205766576" lon="8.564708545559757"><ele>2.0</ele><time>2026-05-02T11:07:38.998Z</time></trkpt><trkpt lat="39.896393862122004" lon="8.56490903748185"><ele>2.0</ele><time>2026-05-02T11:07:39.998Z</time></trkpt><trkpt lat="39.89629957691266" lon="8.565119071233102"><ele>2.0</ele><time>2026-05-02T11:07:40.998Z</time></trkpt><trkpt lat="39.89620196312388" lon="8.56533652062379"><ele>2.0</ele><time>2026-05-02T11:07:41.998Z</time></trkpt><trkpt lat="39.89611219093276" lon="8.565579077203129"><ele>2.0</ele><time>2026-05-02T11:07:42.998Z</time></trkpt><trkpt lat="39.896003880707426" lon="8.565814964252906"><ele>2.0</ele><time>2026-05-02T11:07:43.998Z</time></trkpt><trkpt lat="39.89589045140509" lon="8.566052829373007"><ele>2.0</ele><time>2026-05-02T11:07:44.998Z</time></trkpt><trkpt lat="39.89576770487603" lon="8.566303778342396"><ele>2.0</ele><time>2026-05-02T11:07:45.998Z</time></trkpt><trkpt lat="39.895645428204276" lon="8.566558200628867"><ele>2.0</ele><time>2026-05-02T11:07:46.998Z</time></trkpt><trkpt lat="39.89552634092752" lon="8.566818909087281"><ele>2.0</ele><time>2026-05-02T11:07:47.998Z</time></trkpt><trkpt lat="39.895406689574884" lon="8.567082552032733"><ele>1.0</ele><time>2026-05-02T11:07:48.998Z</time></trkpt><trkpt lat="39.89526501947295" lon="8.567338452166815"><ele>0.0</ele><time>2026-05-02T11:07:49.998Z</time></trkpt><trkpt lat="39.89513044653719" lon="8.567608022099767"><ele>0.5</ele><time>2026-05-02T11:07:50.998Z</time></trkpt><trkpt lat="39.8950050807913" lon="8.567880566362257"><ele>1.0</ele><time>2026-05-02T11:07:51.998Z</time></trkpt><trkpt lat="39.89491791597475" lon="8.56814685165964"><ele>1.0</ele><time>2026-05-02T11:07:52.998Z</time></trkpt><trkpt lat="39.894825303018344" lon="8.568388425556705"><ele>1.0</ele><time>2026-05-02T11:07:53.998Z</time></trkpt><trkpt lat="39.89475521345432" lon="8.568658651613031"><ele>1.0</ele><time>2026-05-02T11:07:54.998Z</time></trkpt><trkpt lat="39.89471118831023" lon="8.568959283058605"><ele>1.0</ele><time>2026-05-02T11:07:55.998Z</time></trkpt><trkpt lat="39.89468479035851" lon="8.569270513838793"><ele>1.0</ele><time>2026-05-02T11:07:56.998Z</time></trkpt><trkpt lat="39.89463922261927" lon="8.56957826249287"><ele>1.0</ele><time>2026-05-02T11:07:57.998Z</time></trkpt><trkpt lat="39.89460773781173" lon="8.569887813267526"><ele>1.0</ele><time>2026-05-02T11:07:58.998Z</time></trkpt><trkpt lat="39.89458006903135" lon="8.5702002817482"><ele>1.0</ele><time>2026-05-02T11:07:59.998Z</time></trkpt><trkpt lat="39.89455372794535" lon="8.570519204991825"><ele>1.0</ele><time>2026-05-02T11:08:00.998Z</time></trkpt><trkpt lat="39.894529104768054" lon="8.570841288224496"><ele>1.0</ele><time>2026-05-02T11:08:01.998Z</time></trkpt><trkpt lat="39.894505850738234" lon="8.57116655633918"><ele>1.0</ele><time>2026-05-02T11:08:02.998Z</time></trkpt><trkpt lat="39.894482405779044" lon="8.571494495344893"><ele>1.0</ele><time>2026-05-02T11:08:03.998Z</time></trkpt><trkpt lat="39.89445894647581" lon="8.571822634822809"><ele>1.0</ele><time>2026-05-02T11:08:04.998Z</time></trkpt><trkpt lat="39.894435277209" lon="8.572153711281087"><ele>1.0</ele><time>2026-05-02T11:08:05.998Z</time></trkpt><trkpt lat="39.894424884115054" lon="8.572485125670205"><ele>1.0</ele><time>2026-05-02T11:08:06.998Z</time></trkpt><trkpt lat="39.89439722713972" lon="8.572812185875364"><ele>1.3333333333333333</ele><time>2026-05-02T11:08:07.999Z</time></trkpt><trkpt lat="39.89435523053646" lon="8.5731094560434"><ele>1.6666666666666665</ele><time>2026-05-02T11:08:08.999Z</time></trkpt><trkpt lat="39.89432885572383" lon="8.573389950926817"><ele>2.0</ele><time>2026-05-02T11:08:09.999Z</time></trkpt><trkpt lat="39.894302373079206" lon="8.573668996916794"><ele>1.6666666666666665</ele><time>2026-05-02T11:08:10.999Z</time></trkpt><trkpt lat="39.89427862430156" lon="8.573930825818604"><ele>1.3333333333333333</ele><time>2026-05-02T11:08:11.999Z</time></trkpt><trkpt lat="39.894254052977985" lon="8.574167450291293"><ele>1.0</ele><time>2026-05-02T11:08:12.999Z</time></trkpt><trkpt lat="39.89423485414289" lon="8.574391578702224"><ele>1.6666666666666665</ele><time>2026-05-02T11:08:13.999Z</time></trkpt><trkpt lat="39.89425430625172" lon="8.574603532061774"><ele>2.3333333333333335</ele><time>2026-05-02T11:08:14.999Z</time></trkpt><trkpt lat="39.89421515099199" lon="8.57480420187667"><ele>3.0</ele><time>2026-05-02T11:08:15.999Z</time></trkpt><trkpt lat="39.89412927260449" lon="8.575002777241544"><ele>3.0</ele><time>2026-05-02T11:08:17Z</time></trkpt><trkpt lat="39.89405387477719" lon="8.57523168725892"><ele>3.0</ele><time>2026-05-02T11:08:18Z</time></trkpt><trkpt lat="39.89397142680121" lon="8.575479827838867"><ele>3.0</ele><time>2026-05-02T11:08:19Z</time></trkpt><trkpt lat="39.89388198704025" lon="8.57574056893235"><ele>3.0</ele><time>2026-05-02T11:08:20Z</time></trkpt><trkpt lat="39.8937923805162" lon="8.576001796195536"><ele>3.0</ele><time>2026-05-02T11:08:21Z</time></trkpt><trkpt lat="39.89370242583778" lon="8.57627412760299"><ele>3.0</ele><time>2026-05-02T11:08:22Z</time></trkpt><trkpt lat="39.893614064631606" lon="8.576543139140496"><ele>2.6666666666666665</ele><time>2026-05-02T11:08:23Z</time></trkpt><trkpt lat="39.89352524194849" lon="8.576813511112043"><ele>2.333333333333333</ele><time>2026-05-02T11:08:24Z</time></trkpt><trkpt lat="39.89344320940288" lon="8.57705977480128"><ele>2.0</ele><time>2026-05-02T11:08:25Z</time></trkpt><trkpt lat="39.89336270467135" lon="8.577301451981068"><ele>2.0</ele><time>2026-05-02T11:08:26Z</time></trkpt><trkpt lat="39.89328669683825" lon="8.577529629339171"><ele>2.0</ele><time>2026-05-02T11:08:27Z</time></trkpt><trkpt lat="39.89321690613466" lon="8.577739142780572"><ele>2.0</ele><time>2026-05-02T11:08:28Z</time></trkpt><trkpt lat="39.89315164572607" lon="8.577935695191272"><ele>2.0</ele><time>2026-05-02T11:08:29Z</time></trkpt><trkpt lat="39.89309079108527" lon="8.578119730209306"><ele>2.0</ele><time>2026-05-02T11:08:30Z</time></trkpt><trkpt lat="39.89303111288331" lon="8.578300207557175"><ele>2.0</ele><time>2026-05-02T11:08:31Z</time></trkpt><trkpt lat="39.892970174709454" lon="8.578484495251592"><ele>2.0</ele><time>2026-05-02T11:08:32Z</time></trkpt><trkpt lat="39.89291073175981" lon="8.578654852046851"><ele>2.0</ele><time>2026-05-02T11:08:33Z</time></trkpt><trkpt lat="39.89283727844153" lon="8.578819407836166"><ele>2.0</ele><time>2026-05-02T11:08:34Z</time></trkpt><trkpt lat="39.89276400776622" lon="8.578974923141972"><ele>2.0</ele><time>2026-05-02T11:08:35Z</time></trkpt><trkpt lat="39.89270122518562" lon="8.57911809028342"><ele>2.0</ele><time>2026-05-02T11:08:36Z</time></trkpt><trkpt lat="39.8926268715611" lon="8.579238255174532"><ele>2.0</ele><time>2026-05-02T11:08:37Z</time></trkpt><trkpt lat="39.89257528134463" lon="8.579342532977146"><ele>2.0</ele><time>2026-05-02T11:08:38Z</time></trkpt><trkpt lat="39.892558275366625" lon="8.579476221203937"><ele>2.0</ele><time>2026-05-02T11:08:40Z</time></trkpt><trkpt lat="39.892647584378594" lon="8.57960000086287"><ele>2.0</ele><time>2026-05-02T11:08:42Z</time></trkpt><trkpt lat="39.89274103655347" lon="8.579671431999628"><ele>1.75</ele><time>2026-05-02T11:08:43Z</time></trkpt><trkpt lat="39.89285216935208" lon="8.579762200694287"><ele>1.5</ele><time>2026-05-02T11:08:44Z</time></trkpt><trkpt lat="39.892967824866815" lon="8.579866070728945"><ele>1.25</ele><time>2026-05-02T11:08:45Z</time></trkpt><trkpt lat="39.893082071676595" lon="8.579966073727709"><ele>1.0</ele><time>2026-05-02T11:08:46Z</time></trkpt><trkpt lat="39.89318212258085" lon="8.580052158926518"><ele>0.9999999999999999</ele><time>2026-05-02T11:08:47Z</time></trkpt><trkpt lat="39.893266273510875" lon="8.580126145433573"><ele>1.0</ele><time>2026-05-02T11:08:48Z</time></trkpt><trkpt lat="39.89333470216798" lon="8.580185583236014"><ele>1.0</ele><time>2026-05-02T11:08:49Z</time></trkpt><trkpt lat="39.89339206247923" lon="8.580243517535921"><ele>1.0</ele><time>2026-05-02T11:08:50Z</time></trkpt><trkpt lat="39.893462670097094" lon="8.580332190830223"><ele>0.9999999999999999</ele><time>2026-05-02T11:08:52Z</time></trkpt><trkpt lat="39.893428989483915" lon="8.580431063398759"><ele>1.0</ele><time>2026-05-02T11:08:55Z</time></trkpt><trkpt lat="39.893357672117574" lon="8.580381653966155"><ele>1.0</ele><time>2026-05-02T11:08:57Z</time></trkpt><trkpt lat="39.89329796101095" lon="8.580318253395417"><ele>1.0</ele><time>2026-05-02T11:08:58Z</time></trkpt><trkpt lat="39.89324332880168" lon="8.5802661162993"><ele>1.0</ele><time>2026-05-02T11:08:59Z</time></trkpt><trkpt lat="39.893155444273205" lon="8.580197821519958"><ele>1.0</ele><time>2026-05-02T11:09:01Z</time></trkpt><trkpt lat="39.89305554222344" lon="8.580124696447776"><ele>1.0</ele><time>2026-05-02T11:09:02Z</time></trkpt><trkpt lat="39.89295435351643" lon="8.580045135833094"><ele>1.0</ele><time>2026-05-02T11:09:03Z</time></trkpt><trkpt lat="39.89287388742258" lon="8.580008494551159"><ele>1.0</ele><time>2026-05-02T11:09:04Z</time></trkpt><trkpt lat="39.89275786043455" lon="8.580042030995498"><ele>1.0</ele><time>2026-05-02T11:09:05Z</time></trkpt><trkpt lat="39.8926200676749" lon="8.5801214197625"><ele>1.0</ele><time>2026-05-02T11:09:06Z</time></trkpt><trkpt lat="39.89245901502441" lon="8.580208874305537"><ele>1.0</ele><time>2026-05-02T11:09:07Z</time></trkpt><trkpt lat="39.89226179921051" lon="8.5803045514555"><ele>1.0</ele><time>2026-05-02T11:09:08Z</time></trkpt><trkpt lat="39.89204537693286" lon="8.58040371069705"><ele>1.0</ele><time>2026-05-02T11:09:09Z</time></trkpt><trkpt lat="39.89184209013996" lon="8.580498002737846"><ele>1.0</ele><time>2026-05-02T11:09:10Z</time></trkpt><trkpt lat="39.89166475032277" lon="8.580578021487568"><ele>1.0</ele><time>2026-05-02T11:09:11Z</time></trkpt><trkpt lat="39.89151143419435" lon="8.580650384261943"><ele>1.0</ele><time>2026-05-02T11:09:12Z</time></trkpt><trkpt lat="39.89136234229542" lon="8.580707807268666"><ele>1.0</ele><time>2026-05-02T11:09:13Z</time></trkpt><trkpt lat="39.89121586476411" lon="8.580751587071465"><ele>1.0</ele><time>2026-05-02T11:09:14Z</time></trkpt><trkpt lat="39.89105391691692" lon="8.580795821526083"><ele>1.0</ele><time>2026-05-02T11:09:15Z</time></trkpt><trkpt lat="39.89089466627689" lon="8.580840492323643"><ele>1.0</ele><time>2026-05-02T11:09:16Z</time></trkpt><trkpt lat="39.89074408713895" lon="8.580865209539168"><ele>1.0</ele><time>2026-05-02T11:09:17Z</time></trkpt><trkpt lat="39.89057465340483" lon="8.580875977591234"><ele>1.0</ele><time>2026-05-02T11:09:18Z</time></trkpt><trkpt lat="39.89038617574493" lon="8.58088376593497"><ele>1.0</ele><time>2026-05-02T11:09:19Z</time></trkpt><trkpt lat="39.89021414852037" lon="8.580883668871781"><ele>1.0</ele><time>2026-05-02T11:09:20Z</time></trkpt><trkpt lat="39.89006854513568" lon="8.580877091517308"><ele>1.0</ele><time>2026-05-02T11:09:21Z</time></trkpt><trkpt lat="39.889929274454126" lon="8.58086950800351"><ele>1.0</ele><time>2026-05-02T11:09:22Z</time></trkpt><trkpt lat="39.88980233641714" lon="8.580876932063024"><ele>1.0</ele><time>2026-05-02T11:09:23Z</time></trkpt><trkpt lat="39.889680846847966" lon="8.580877309626507"><ele>1.0</ele><time>2026-05-02T11:09:24Z</time></trkpt><trkpt lat="39.88956771048099" lon="8.580846978085518"><ele>1.0</ele><time>2026-05-02T11:09:25Z</time></trkpt><trkpt lat="39.88944689303181" lon="8.580789517121724"><ele>1.0</ele><time>2026-05-02T11:09:26Z</time></trkpt><trkpt lat="39.88932727985517" lon="8.58076121118267"><ele>1.0</ele><time>2026-05-02T11:09:27Z</time></trkpt><trkpt lat="39.889237056281985" lon="8.580763564860474"><ele>1.0</ele><time>2026-05-02T11:09:28Z</time></trkpt><trkpt lat="39.88911531571281" lon="8.58084818092181"><ele>1.0</ele><time>2026-05-02T11:09:30Z</time></trkpt><trkpt lat="39.88903528558764" lon="8.580941150825383"><ele>1.0</ele><time>2026-05-02T11:09:30.999Z</time></trkpt><trkpt lat="39.8889560859724" lon="8.581001690466943"><ele>1.0</ele><time>2026-05-02T11:09:31.999Z</time></trkpt><trkpt lat="39.88886393327265" lon="8.581053010759991"><ele>1.0</ele><time>2026-05-02T11:09:32.999Z</time></trkpt><trkpt lat="39.88877932270116" lon="8.581121869807058"><ele>1.0</ele><time>2026-05-02T11:09:33.999Z</time></trkpt><trkpt lat="39.88872557894424" lon="8.581223495332853"><ele>1.0</ele><time>2026-05-02T11:09:34.999Z</time></trkpt><trkpt lat="39.888698488465806" lon="8.581357632884739"><ele>1.0</ele><time>2026-05-02T11:09:35.999Z</time></trkpt><trkpt lat="39.88868942500772" lon="8.58151484886075"><ele>1.0</ele><time>2026-05-02T11:09:36.999Z</time></trkpt><trkpt lat="39.88883554637509" lon="8.581673022903038"><ele>1.0</ele><time>2026-05-02T11:09:37.999Z</time></trkpt><trkpt lat="39.88883632826325" lon="8.581774001033397"><ele>1.0</ele><time>2026-05-02T11:09:38.999Z</time></trkpt><trkpt lat="39.88884894419802" lon="8.58187032677681"><ele>1.0</ele><time>2026-05-02T11:09:39.999Z</time></trkpt><trkpt lat="39.88875043951251" lon="8.581984542015435"><ele>1.0</ele><time>2026-05-02T11:09:40.999Z</time></trkpt><trkpt lat="39.88868992203164" lon="8.582078518254606"><ele>1.0</ele><time>2026-05-02T11:09:42.999Z</time></trkpt><trkpt lat="39.88859697602196" lon="8.582055499095677"><ele>1.0</ele><time>2026-05-02T11:09:44.999Z</time></trkpt><trkpt lat="39.88856224463404" lon="8.5818558262167"><ele>1.0</ele><time>2026-05-02T11:09:46.999Z</time></trkpt><trkpt lat="39.88856213391599" lon="8.581678157627776"><ele>1.0</ele><time>2026-05-02T11:09:47.999Z</time></trkpt><trkpt lat="39.888529645997494" lon="8.581462168996653"><ele>1.0</ele><time>2026-05-02T11:09:48.999Z</time></trkpt><trkpt lat="39.88849428838122" lon="8.58123927976671"><ele>0.75</ele><time>2026-05-02T11:09:49.999Z</time></trkpt><trkpt lat="39.888454154665034" lon="8.581043732548366"><ele>0.5</ele><time>2026-05-02T11:09:50.999Z</time></trkpt><trkpt lat="39.8883820523112" lon="8.580898726956704"><ele>0.25</ele><time>2026-05-02T11:09:51.999Z</time></trkpt><trkpt lat="39.888273219989415" lon="8.580799029758413"><ele>0.0</ele><time>2026-05-02T11:09:52.999Z</time></trkpt><trkpt lat="39.8881331202138" lon="8.580744154321327"><ele>-0.3333333333333333</ele><time>2026-05-02T11:09:53.999Z</time></trkpt><trkpt lat="39.887965177940885" lon="8.580737388344934"><ele>-0.6666666666666666</ele><time>2026-05-02T11:09:54.999Z</time></trkpt><trkpt lat="39.887773622242975" lon="8.58074982484627"><ele>-1.0</ele><time>2026-05-02T11:09:55.999Z</time></trkpt><trkpt lat="39.88756656342684" lon="8.580736971072806"><ele>0.0</ele><time>2026-05-02T11:09:56.999Z</time></trkpt><trkpt lat="39.88735166311855" lon="8.580701815901955"><ele>1.0</ele><time>2026-05-02T11:09:57.999Z</time></trkpt><trkpt lat="39.88712688155186" lon="8.580653782376746"><ele>2.0</ele><time>2026-05-02T11:09:58.999Z</time></trkpt><trkpt lat="39.886898939835326" lon="8.580581722169185"><ele>1.5</ele><time>2026-05-02T11:09:59.999Z</time></trkpt><trkpt lat="39.88666858781334" lon="8.580490534522172"><ele>1.0</ele><time>2026-05-02T11:10:00.999Z</time></trkpt><trkpt lat="39.88643150912446" lon="8.580402277673725"><ele>1.0</ele><time>2026-05-02T11:10:01.999Z</time></trkpt><trkpt lat="39.8861910665574" lon="8.580331009114099"><ele>1.0</ele><time>2026-05-02T11:10:02.999Z</time></trkpt><trkpt lat="39.8859468825108" lon="8.580257358340521"><ele>1.0</ele><time>2026-05-02T11:10:03.999Z</time></trkpt><trkpt lat="39.88570278111618" lon="8.580178184110423"><ele>1.0</ele><time>2026-05-02T11:10:04.999Z</time></trkpt><trkpt lat="39.88546103850783" lon="8.58010135381698"><ele>1.0</ele><time>2026-05-02T11:10:05.999Z</time></trkpt><trkpt lat="39.885223138301996" lon="8.58002582892321"><ele>1.0</ele><time>2026-05-02T11:10:06.999Z</time></trkpt><trkpt lat="39.88498738629005" lon="8.579949464442553"><ele>1.0</ele><time>2026-05-02T11:10:07.999Z</time></trkpt><trkpt lat="39.884752825783956" lon="8.57986756787599"><ele>1.0</ele><time>2026-05-02T11:10:08.999Z</time></trkpt><trkpt lat="39.88452295319163" lon="8.579774929844273"><ele>1.0</ele><time>2026-05-02T11:10:09.999Z</time></trkpt><trkpt lat="39.88429795372487" lon="8.579665366309912"><ele>1.0</ele><time>2026-05-02T11:10:10.999Z</time></trkpt><trkpt lat="39.88407674603057" lon="8.579541910608071"><ele>1.5</ele><time>2026-05-02T11:10:11.999Z</time></trkpt><trkpt lat="39.88385697979463" lon="8.579410980705154"><ele>2.0</ele><time>2026-05-02T11:10:12.999Z</time></trkpt><trkpt lat="39.88363199759043" lon="8.579279570752487"><ele>2.0</ele><time>2026-05-02T11:10:14Z</time></trkpt><trkpt lat="39.88340509337627" lon="8.579149721146566"><ele>2.0</ele><time>2026-05-02T11:10:15Z</time></trkpt><trkpt lat="39.88317932597512" lon="8.57901657368578"><ele>2.0</ele><time>2026-05-02T11:10:16Z</time></trkpt><trkpt lat="39.88294948536478" lon="8.57888467133686"><ele>2.0</ele><time>2026-05-02T11:10:17Z</time></trkpt><trkpt lat="39.882716542982344" lon="8.578751680536607"><ele>2.0</ele><time>2026-05-02T11:10:18Z</time></trkpt><trkpt lat="39.88247656705589" lon="8.578617016258542"><ele>2.0</ele><time>2026-05-02T11:10:19Z</time></trkpt><trkpt lat="39.882220995194615" lon="8.578468137681158"><ele>2.0</ele><time>2026-05-02T11:10:20Z</time></trkpt><trkpt lat="39.88195011741285" lon="8.57831294814689"><ele>2.0</ele><time>2026-05-02T11:10:21Z</time></trkpt><trkpt lat="39.8816685771659" lon="8.578150141633337"><ele>1.5</ele><time>2026-05-02T11:10:22Z</time></trkpt><trkpt lat="39.88137701927286" lon="8.577984028459925"><ele>1.0</ele><time>2026-05-02T11:10:23Z</time></trkpt><trkpt lat="39.88107846777534" lon="8.577810481844613"><ele>0.5</ele><time>2026-05-02T11:10:24Z</time></trkpt><trkpt lat="39.88077404070232" lon="8.577635027550537"><ele>0.0</ele><time>2026-05-02T11:10:25Z</time></trkpt><trkpt lat="39.880474231027776" lon="8.577465364578634"><ele>0.0</ele><time>2026-05-02T11:10:26Z</time></trkpt><trkpt lat="39.880185944231656" lon="8.577302378786973"><ele>0.0</ele><time>2026-05-02T11:10:27Z</time></trkpt><trkpt lat="39.87990602996705" lon="8.577140200779201"><ele>0.5</ele><time>2026-05-02T11:10:28Z</time></trkpt><trkpt lat="39.87963580511465" lon="8.576980021722864"><ele>1.0</ele><time>2026-05-02T11:10:29Z</time></trkpt><trkpt lat="39.8793759865245" lon="8.576830956605848"><ele>1.0</ele><time>2026-05-02T11:10:30Z</time></trkpt><trkpt lat="39.87912227922042" lon="8.576686208822675"><ele>1.0</ele><time>2026-05-02T11:10:31Z</time></trkpt><trkpt lat="39.878874264675055" lon="8.576542413605361"><ele>1.0</ele><time>2026-05-02T11:10:32Z</time></trkpt><trkpt lat="39.87862862120514" lon="8.576401216511842"><ele>1.0</ele><time>2026-05-02T11:10:33Z</time></trkpt><trkpt lat="39.8783850415255" lon="8.576262278182488"><ele>1.0</ele><time>2026-05-02T11:10:34Z</time></trkpt><trkpt lat="39.87814353945292" lon="8.57612494876461"><ele>1.0</ele><time>2026-05-02T11:10:35Z</time></trkpt><trkpt lat="39.87790595598655" lon="8.575989014884621"><ele>1.0</ele><time>2026-05-02T11:10:36Z</time></trkpt><trkpt lat="39.87767236094704" lon="8.575855173874023"><ele>1.0</ele><time>2026-05-02T11:10:37Z</time></trkpt><trkpt lat="39.87743790247168" lon="8.575723212145492"><ele>1.5</ele><time>2026-05-02T11:10:38Z</time></trkpt><trkpt lat="39.877208722403545" lon="8.575593926113855"><ele>2.0</ele><time>2026-05-02T11:10:39Z</time></trkpt><trkpt lat="39.87699044856003" lon="8.57546391540931"><ele>1.5</ele><time>2026-05-02T11:10:40Z</time></trkpt><trkpt lat="39.876780029251606" lon="8.575310927755261"><ele>1.0</ele><time>2026-05-02T11:10:41Z</time></trkpt><trkpt lat="39.87658098664382" lon="8.57512818471059"><ele>1.0</ele><time>2026-05-02T11:10:42Z</time></trkpt><trkpt lat="39.87639461180195" lon="8.574916658376276"><ele>1.0</ele><time>2026-05-02T11:10:43Z</time></trkpt><trkpt lat="39.87622341796431" lon="8.574680236663228"><ele>1.0</ele><time>2026-05-02T11:10:44Z</time></trkpt><trkpt lat="39.87606112780342" lon="8.574428575007577"><ele>1.0</ele><time>2026-05-02T11:10:45Z</time></trkpt><trkpt lat="39.87589133579097" lon="8.574172490768586"><ele>2.0</ele><time>2026-05-02T11:10:46Z</time></trkpt><trkpt lat="39.87572134663507" lon="8.573922290846392"><ele>3.0</ele><time>2026-05-02T11:10:47Z</time></trkpt><trkpt lat="39.875552327382195" lon="8.57367525533067"><ele>3.0</ele><time>2026-05-02T11:10:48Z</time></trkpt><trkpt lat="39.875385754122924" lon="8.573429898863466"><ele>3.0</ele><time>2026-05-02T11:10:49Z</time></trkpt><trkpt lat="39.8752199213902" lon="8.57318230285606"><ele>3.5</ele><time>2026-05-02T11:10:50Z</time></trkpt><trkpt lat="39.87505562994933" lon="8.572934342230806"><ele>4.0</ele><time>2026-05-02T11:10:51Z</time></trkpt><trkpt lat="39.87489182908134" lon="8.572684975923414"><ele>4.0</ele><time>2026-05-02T11:10:52Z</time></trkpt><trkpt lat="39.87473134424823" lon="8.572437944604353"><ele>4.0</ele><time>2026-05-02T11:10:53Z</time></trkpt><trkpt lat="39.874569785607946" lon="8.572197118029077"><ele>3.0</ele><time>2026-05-02T11:10:54Z</time></trkpt><trkpt lat="39.87440725974359" lon="8.571959138903065"><ele>2.0</ele><time>2026-05-02T11:10:55Z</time></trkpt><trkpt lat="39.87424822120447" lon="8.571721241942857"><ele>2.0</ele><time>2026-05-02T11:10:56Z</time></trkpt><trkpt lat="39.874093013008135" lon="8.571486683855921"><ele>2.0</ele><time>2026-05-02T11:10:57Z</time></trkpt><trkpt lat="39.87393690403016" lon="8.571254318300069"><ele>2.0</ele><time>2026-05-02T11:10:58Z</time></trkpt><trkpt lat="39.87377794312657" lon="8.571023358959868"><ele>2.0</ele><time>2026-05-02T11:10:59Z</time></trkpt><trkpt lat="39.873619482946836" lon="8.570789381409664"><ele>2.0</ele><time>2026-05-02T11:11:00Z</time></trkpt><trkpt lat="39.873463758916856" lon="8.570553636000783"><ele>2.0</ele><time>2026-05-02T11:11:01Z</time></trkpt><trkpt lat="39.87330894889232" lon="8.570318394370972"><ele>2.5</ele><time>2026-05-02T11:11:02Z</time></trkpt><trkpt lat="39.8731525670732" lon="8.570083663531435"><ele>3.0</ele><time>2026-05-02T11:11:03Z</time></trkpt><trkpt lat="39.872996946285134" lon="8.56985180231692"><ele>3.0</ele><time>2026-05-02T11:11:04Z</time></trkpt><trkpt lat="39.87284334179989" lon="8.569623262547532"><ele>3.0</ele><time>2026-05-02T11:11:05Z</time></trkpt><trkpt lat="39.872693927133774" lon="8.569403280485666"><ele>3.333333333333333</ele><time>2026-05-02T11:11:06Z</time></trkpt><trkpt lat="39.872541114747584" lon="8.569214869953745"><ele>3.6666666666666665</ele><time>2026-05-02T11:11:07Z</time></trkpt><trkpt lat="39.872369340029294" lon="8.569051877012363"><ele>4.0</ele><time>2026-05-02T11:11:08Z</time></trkpt><trkpt lat="39.872177411940314" lon="8.56891950198361"><ele>4.0</ele><time>2026-05-02T11:11:09Z</time></trkpt><trkpt lat="39.87197190670642" lon="8.568826052189022"><ele>4.0</ele><time>2026-05-02T11:11:10Z</time></trkpt><trkpt lat="39.87176194662019" lon="8.568778927376517"><ele>4.0</ele><time>2026-05-02T11:11:11Z</time></trkpt><trkpt lat="39.87154671726102" lon="8.568771682756239"><ele>3.0</ele><time>2026-05-02T11:11:12Z</time></trkpt><trkpt lat="39.87131876341797" lon="8.568802565917375"><ele>2.0</ele><time>2026-05-02T11:11:13Z</time></trkpt><trkpt lat="39.87108527770745" lon="8.568840686511393"><ele>2.5</ele><time>2026-05-02T11:11:14Z</time></trkpt><trkpt lat="39.870848852108004" lon="8.568861650465534"><ele>3.0</ele><time>2026-05-02T11:11:15Z</time></trkpt><trkpt lat="39.87061014760375" lon="8.56888165167269"><ele>3.0</ele><time>2026-05-02T11:11:16Z</time></trkpt><trkpt lat="39.870375430378274" lon="8.568909914652991"><ele>3.0</ele><time>2026-05-02T11:11:17Z</time></trkpt><trkpt lat="39.87014334831439" lon="8.568934245153121"><ele>2.0</ele><time>2026-05-02T11:11:18Z</time></trkpt><trkpt lat="39.86991427201883" lon="8.568954552412917"><ele>1.0</ele><time>2026-05-02T11:11:19Z</time></trkpt><trkpt lat="39.86968822400888" lon="8.56897515566052"><ele>1.0</ele><time>2026-05-02T11:11:20Z</time></trkpt><trkpt lat="39.86946449090192" lon="8.56899353124652"><ele>1.0</ele><time>2026-05-02T11:11:21Z</time></trkpt><trkpt lat="39.86924300024559" lon="8.569006757558405"><ele>1.0</ele><time>2026-05-02T11:11:22Z</time></trkpt><trkpt lat="39.86902137178522" lon="8.569016478225322"><ele>1.0</ele><time>2026-05-02T11:11:23Z</time></trkpt><trkpt lat="39.86879999116961" lon="8.569039120772704"><ele>1.0</ele><time>2026-05-02T11:11:24Z</time></trkpt><trkpt lat="39.86857823776346" lon="8.569071923018045"><ele>1.0</ele><time>2026-05-02T11:11:25Z</time></trkpt><trkpt lat="39.86835690906693" lon="8.569118319182074"><ele>2.5</ele><time>2026-05-02T11:11:26Z</time></trkpt><trkpt lat="39.868139194588956" lon="8.569195758395095"><ele>4.0</ele><time>2026-05-02T11:11:27Z</time></trkpt><trkpt lat="39.86792604335982" lon="8.569309873531827"><ele>4.0</ele><time>2026-05-02T11:11:28Z</time></trkpt><trkpt lat="39.86772213999668" lon="8.569456404151818"><ele>4.0</ele><time>2026-05-02T11:11:29Z</time></trkpt><trkpt lat="39.86752913284072" lon="8.569635644106798"><ele>4.5</ele><time>2026-05-02T11:11:30Z</time></trkpt><trkpt lat="39.86735092806095" lon="8.569847440725086"><ele>5.0</ele><time>2026-05-02T11:11:31Z</time></trkpt><trkpt lat="39.867187131269375" lon="8.570083889939491"><ele>5.0</ele><time>2026-05-02T11:11:32Z</time></trkpt><trkpt lat="39.86700657875141" lon="8.57030144697165"><ele>5.0</ele><time>2026-05-02T11:11:33Z</time></trkpt><trkpt lat="39.86683582387746" lon="8.570532783291762"><ele>4.5</ele><time>2026-05-02T11:11:34Z</time></trkpt><trkpt lat="39.86666422893353" lon="8.57076525779795"><ele>4.0</ele><time>2026-05-02T11:11:34.999Z</time></trkpt><trkpt lat="39.86649201022429" lon="8.570999579862738"><ele>3.5</ele><time>2026-05-02T11:11:35.999Z</time></trkpt><trkpt lat="39.86632103526557" lon="8.57123330649312"><ele>3.0</ele><time>2026-05-02T11:11:36.999Z</time></trkpt><trkpt lat="39.86615140726524" lon="8.571465191862815"><ele>3.0</ele><time>2026-05-02T11:11:37.999Z</time></trkpt><trkpt lat="39.86598275491309" lon="8.57169574349123"><ele>3.0</ele><time>2026-05-02T11:11:38.999Z</time></trkpt><trkpt lat="39.86582373414313" lon="8.571931547417487"><ele>3.5</ele><time>2026-05-02T11:11:39.999Z</time></trkpt><trkpt lat="39.86563868991939" lon="8.572131408049351"><ele>4.0</ele><time>2026-05-02T11:11:40.999Z</time></trkpt><trkpt lat="39.86544382371026" lon="8.572308991901261"><ele>4.0</ele><time>2026-05-02T11:11:41.999Z</time></trkpt><trkpt lat="39.86523599151009" lon="8.572461391827696"><ele>4.0</ele><time>2026-05-02T11:11:42.999Z</time></trkpt><trkpt lat="39.865015526645415" lon="8.572585705766828"><ele>4.0</ele><time>2026-05-02T11:11:43.999Z</time></trkpt><trkpt lat="39.86478631359811" lon="8.572678393776334"><ele>4.0</ele><time>2026-05-02T11:11:44.999Z</time></trkpt><trkpt lat="39.864547561492046" lon="8.572731318817631"><ele>4.0</ele><time>2026-05-02T11:11:45.999Z</time></trkpt><trkpt lat="39.864302125254376" lon="8.572760754622788"><ele>4.0</ele><time>2026-05-02T11:11:46.999Z</time></trkpt><trkpt lat="39.86405612229324" lon="8.572793135553582"><ele>3.5</ele><time>2026-05-02T11:11:47.999Z</time></trkpt><trkpt lat="39.86380942637736" lon="8.572824965397428"><ele>3.0</ele><time>2026-05-02T11:11:48.999Z</time></trkpt><trkpt lat="39.86356403786538" lon="8.572853996829883"><ele>4.0</ele><time>2026-05-02T11:11:49.999Z</time></trkpt><trkpt lat="39.863317480812285" lon="8.572884251307562"><ele>5.0</ele><time>2026-05-02T11:11:50.999Z</time></trkpt><trkpt lat="39.86307168865886" lon="8.572917819814153"><ele>5.0</ele><time>2026-05-02T11:11:51.999Z</time></trkpt><trkpt lat="39.86282520800449" lon="8.572952088168915"><ele>5.0</ele><time>2026-05-02T11:11:52.999Z</time></trkpt><trkpt lat="39.86257821917563" lon="8.57298673386729"><ele>5.0</ele><time>2026-05-02T11:11:53.999Z</time></trkpt><trkpt lat="39.86233133680462" lon="8.573025440559356"><ele>5.0</ele><time>2026-05-02T11:11:54.999Z</time></trkpt><trkpt lat="39.86208392584785" lon="8.573063052348843"><ele>5.0</ele><time>2026-05-02T11:11:55.999Z</time></trkpt><trkpt lat="39.86183652988814" lon="8.57309666463047"><ele>5.0</ele><time>2026-05-02T11:11:56.999Z</time></trkpt><trkpt lat="39.861589070332485" lon="8.573126317786341"><ele>4.5</ele><time>2026-05-02T11:11:57.999Z</time></trkpt><trkpt lat="39.861343448895106" lon="8.573151606956747"><ele>4.0</ele><time>2026-05-02T11:11:58.999Z</time></trkpt><trkpt lat="39.861098160956466" lon="8.573184912787614"><ele>4.0</ele><time>2026-05-02T11:11:59.999Z</time></trkpt><trkpt lat="39.86085451144579" lon="8.573227116844611"><ele>4.0</ele><time>2026-05-02T11:12:00.999Z</time></trkpt><trkpt lat="39.86060746261948" lon="8.573265567230361"><ele>4.0</ele><time>2026-05-02T11:12:01.999Z</time></trkpt><trkpt lat="39.860362414832984" lon="8.57329812819237"><ele>4.0</ele><time>2026-05-02T11:12:02.999Z</time></trkpt><trkpt lat="39.86012037934801" lon="8.573330824419937"><ele>4.0</ele><time>2026-05-02T11:12:03.999Z</time></trkpt><trkpt lat="39.85987853323059" lon="8.573363682956305"><ele>4.0</ele><time>2026-05-02T11:12:04.999Z</time></trkpt><trkpt lat="39.85963533202315" lon="8.57339598701105"><ele>4.0</ele><time>2026-05-02T11:12:05.999Z</time></trkpt><trkpt lat="39.85939106380492" lon="8.57342793147975"><ele>4.0</ele><time>2026-05-02T11:12:06.999Z</time></trkpt><trkpt lat="39.859148264220366" lon="8.573461117905563"><ele>3.0</ele><time>2026-05-02T11:12:07.999Z</time></trkpt><trkpt lat="39.85890476854834" lon="8.573491839879653"><ele>2.0</ele><time>2026-05-02T11:12:08.999Z</time></trkpt><trkpt lat="39.85866140937475" lon="8.573521250020663"><ele>2.5</ele><time>2026-05-02T11:12:09.999Z</time></trkpt><trkpt lat="39.858418614292006" lon="8.573552641982399"><ele>3.0</ele><time>2026-05-02T11:12:10.999Z</time></trkpt><trkpt lat="39.85817570409527" lon="8.573589656744174"><ele>3.0</ele><time>2026-05-02T11:12:11.999Z</time></trkpt><trkpt lat="39.85793340862997" lon="8.573629250515845"><ele>3.0</ele><time>2026-05-02T11:12:12.999Z</time></trkpt><trkpt lat="39.857693187289435" lon="8.57368334005561"><ele>4.0</ele><time>2026-05-02T11:12:13.999Z</time></trkpt><trkpt lat="39.85745439007225" lon="8.573758198470552"><ele>5.0</ele><time>2026-05-02T11:12:14.999Z</time></trkpt><trkpt lat="39.85721959188788" lon="8.573864243840937"><ele>5.0</ele><time>2026-05-02T11:12:15.999Z</time></trkpt><trkpt lat="39.85699286563563" lon="8.573999507169868"><ele>5.0</ele><time>2026-05-02T11:12:16.999Z</time></trkpt><trkpt lat="39.85677215772133" lon="8.57415666890644"><ele>4.0</ele><time>2026-05-02T11:12:17.999Z</time></trkpt><trkpt lat="39.856560849031716" lon="8.574341541489629"><ele>3.0</ele><time>2026-05-02T11:12:18.999Z</time></trkpt><trkpt lat="39.856363137031984" lon="8.57455091608199"><ele>5.0</ele><time>2026-05-02T11:12:20Z</time></trkpt><trkpt lat="39.856175752586125" lon="8.574778791489198"><ele>7.0</ele><time>2026-05-02T11:12:21Z</time></trkpt><trkpt lat="39.85599479181001" lon="8.575013529416214"><ele>6.0</ele><time>2026-05-02T11:12:22Z</time></trkpt><trkpt lat="39.855810885982706" lon="8.575242939380049"><ele>5.0</ele><time>2026-05-02T11:12:23Z</time></trkpt><trkpt lat="39.855625240871255" lon="8.57546750973617"><ele>5.0</ele><time>2026-05-02T11:12:24Z</time></trkpt><trkpt lat="39.85543819531078" lon="8.575691545776934"><ele>5.0</ele><time>2026-05-02T11:12:25Z</time></trkpt><trkpt lat="39.85525305015303" lon="8.575917320776988"><ele>5.0</ele><time>2026-05-02T11:12:26Z</time></trkpt><trkpt lat="39.85506925022364" lon="8.576146534468334"><ele>5.0</ele><time>2026-05-02T11:12:27Z</time></trkpt><trkpt lat="39.854887174832854" lon="8.576372089946707"><ele>5.0</ele><time>2026-05-02T11:12:28Z</time></trkpt><trkpt lat="39.85471281326307" lon="8.576585037905199"><ele>5.0</ele><time>2026-05-02T11:12:29Z</time></trkpt><trkpt lat="39.85455355206604" lon="8.57678503408417"><ele>5.0</ele><time>2026-05-02T11:12:30Z</time></trkpt><trkpt lat="39.85440180563525" lon="8.576969296473246"><ele>5.0</ele><time>2026-05-02T11:12:31Z</time></trkpt><trkpt lat="39.85425643745119" lon="8.577138262887761"><ele>5.0</ele><time>2026-05-02T11:12:32Z</time></trkpt><trkpt lat="39.85412151654237" lon="8.577292576628736"><ele>4.75</ele><time>2026-05-02T11:12:33Z</time></trkpt><trkpt lat="39.85400034864742" lon="8.577417392011139"><ele>4.5</ele><time>2026-05-02T11:12:34Z</time></trkpt><trkpt lat="39.85389117867585" lon="8.577510941258343"><ele>4.25</ele><time>2026-05-02T11:12:35Z</time></trkpt><trkpt lat="39.85379251659242" lon="8.577570551489014"><ele>4.0</ele><time>2026-05-02T11:12:36Z</time></trkpt><trkpt lat="39.85370674967337" lon="8.57759777392779"><ele>4.0</ele><time>2026-05-02T11:12:37Z</time></trkpt><trkpt lat="39.853622084512" lon="8.577621414166222"><ele>4.0</ele><time>2026-05-02T11:12:38Z</time></trkpt><trkpt lat="39.853555089392195" lon="8.577683238599782"><ele>4.0</ele><time>2026-05-02T11:12:39Z</time></trkpt><trkpt lat="39.853511265432275" lon="8.577797569248187"><ele>4.0</ele><time>2026-05-02T11:12:40Z</time></trkpt><trkpt lat="39.85350306905926" lon="8.577948574119288"><ele>4.0</ele><time>2026-05-02T11:12:41Z</time></trkpt><trkpt lat="39.853416668321415" lon="8.578111970523395"><ele>3.0</ele><time>2026-05-02T11:12:42Z</time></trkpt><trkpt lat="39.85331335386511" lon="8.578273524067757"><ele>2.0</ele><time>2026-05-02T11:12:43Z</time></trkpt><trkpt lat="39.85318390287832" lon="8.578434381912533"><ele>1.0</ele><time>2026-05-02T11:12:44Z</time></trkpt><trkpt lat="39.8530384585974" lon="8.578605283624627"><ele>1.6666666666666665</ele><time>2026-05-02T11:12:45Z</time></trkpt><trkpt lat="39.852884961230416" lon="8.578790345298097"><ele>2.3333333333333335</ele><time>2026-05-02T11:12:46Z</time></trkpt><trkpt lat="39.852730944746064" lon="8.578982342147603"><ele>3.0</ele><time>2026-05-02T11:12:47Z</time></trkpt><trkpt lat="39.85257520150349" lon="8.579178594776163"><ele>3.0</ele><time>2026-05-02T11:12:48Z</time></trkpt><trkpt lat="39.85240989450288" lon="8.57938566092187"><ele>3.0</ele><time>2026-05-02T11:12:49Z</time></trkpt><trkpt lat="39.852239652432516" lon="8.579594676980232"><ele>4.0</ele><time>2026-05-02T11:12:50Z</time></trkpt><trkpt lat="39.8520669164995" lon="8.579808853293514"><ele>5.0</ele><time>2026-05-02T11:12:51Z</time></trkpt><trkpt lat="39.85189357413658" lon="8.580026923481508"><ele>3.5</ele><time>2026-05-02T11:12:52Z</time></trkpt><trkpt lat="39.85171920404522" lon="8.580245670555742"><ele>2.0</ele><time>2026-05-02T11:12:53Z</time></trkpt><trkpt lat="39.85154537866336" lon="8.580467137964417"><ele>2.0</ele><time>2026-05-02T11:12:54Z</time></trkpt><trkpt lat="39.851370152864476" lon="8.580689107522028"><ele>2.0</ele><time>2026-05-02T11:12:55Z</time></trkpt><trkpt lat="39.85119781111679" lon="8.580917469195805"><ele>2.0</ele><time>2026-05-02T11:12:56Z</time></trkpt><trkpt lat="39.85103037096452" lon="8.581153697382746"><ele>2.0</ele><time>2026-05-02T11:12:57Z</time></trkpt><trkpt lat="39.850871169715084" lon="8.581402253397016"><ele>1.5</ele><time>2026-05-02T11:12:58Z</time></trkpt><trkpt lat="39.85072052075805" lon="8.581661001944951"><ele>1.0</ele><time>2026-05-02T11:12:59Z</time></trkpt><trkpt lat="39.85057788802474" lon="8.5819299701199"><ele>2.0</ele><time>2026-05-02T11:13:00Z</time></trkpt><trkpt lat="39.85043879312946" lon="8.582202720121916"><ele>3.0</ele><time>2026-05-02T11:13:01Z</time></trkpt><trkpt lat="39.85030155730841" lon="8.582480557571596"><ele>3.0</ele><time>2026-05-02T11:13:02Z</time></trkpt><trkpt lat="39.850150227288346" lon="8.582748475133204"><ele>3.0</ele><time>2026-05-02T11:13:03Z</time></trkpt><trkpt lat="39.85000977545241" lon="8.58302828252821"><ele>3.5</ele><time>2026-05-02T11:13:04Z</time></trkpt><trkpt lat="39.849869073404406" lon="8.583308869138532"><ele>4.0</ele><time>2026-05-02T11:13:05Z</time></trkpt><trkpt lat="39.84972798372971" lon="8.583590848374044"><ele>3.5</ele><time>2026-05-02T11:13:06Z</time></trkpt><trkpt lat="39.849585330804324" lon="8.58387595164903"><ele>3.0</ele><time>2026-05-02T11:13:07Z</time></trkpt><trkpt lat="39.84944748603297" lon="8.584165614137735"><ele>3.0</ele><time>2026-05-02T11:13:08Z</time></trkpt><trkpt lat="39.84929743162016" lon="8.584445857059643"><ele>3.0</ele><time>2026-05-02T11:13:09Z</time></trkpt><trkpt lat="39.84915399295557" lon="8.584730298859109"><ele>2.5</ele><time>2026-05-02T11:13:10Z</time></trkpt><trkpt lat="39.84901121446936" lon="8.58501415818615"><ele>2.0</ele><time>2026-05-02T11:13:11Z</time></trkpt><trkpt lat="39.84886883089406" lon="8.585294653735943"><ele>2.5</ele><time>2026-05-02T11:13:12Z</time></trkpt><trkpt lat="39.84872755922253" lon="8.58557826485216"><ele>3.0</ele><time>2026-05-02T11:13:13Z</time></trkpt><trkpt lat="39.8485849953575" lon="8.585862078064038"><ele>2.5</ele><time>2026-05-02T11:13:14Z</time></trkpt><trkpt lat="39.848447144724744" lon="8.586134256648004"><ele>2.0</ele><time>2026-05-02T11:13:15Z</time></trkpt><trkpt lat="39.84831172828412" lon="8.586410365438402"><ele>3.0</ele><time>2026-05-02T11:13:16Z</time></trkpt><trkpt lat="39.84817693172344" lon="8.586684332248257"><ele>4.0</ele><time>2026-05-02T11:13:17Z</time></trkpt><trkpt lat="39.84804221553231" lon="8.586956113731834"><ele>3.0</ele><time>2026-05-02T11:13:18Z</time></trkpt><trkpt lat="39.84790619210799" lon="8.587230456517904"><ele>2.0</ele><time>2026-05-02T11:13:19Z</time></trkpt><trkpt lat="39.84777201686689" lon="8.587501598047044"><ele>2.0</ele><time>2026-05-02T11:13:20Z</time></trkpt><trkpt lat="39.8476392943886" lon="8.587771077928217"><ele>2.0</ele><time>2026-05-02T11:13:21Z</time></trkpt><trkpt lat="39.84751930681836" lon="8.588016900115194"><ele>3.0</ele><time>2026-05-02T11:13:22Z</time></trkpt><trkpt lat="39.84740852865601" lon="8.588242079889854"><ele>4.0</ele><time>2026-05-02T11:13:23Z</time></trkpt><trkpt lat="39.847302966945655" lon="8.58845185498455"><ele>5.0</ele><time>2026-05-02T11:13:24Z</time></trkpt><trkpt lat="39.84720021164539" lon="8.58864699050617"><ele>4.333333333333334</ele><time>2026-05-02T11:13:25Z</time></trkpt><trkpt lat="39.84709942091253" lon="8.588822724007006"><ele>3.666666666666667</ele><time>2026-05-02T11:13:26Z</time></trkpt><trkpt lat="39.846992314113216" lon="8.588973259936212"><ele>3.0</ele><time>2026-05-02T11:13:27Z</time></trkpt><trkpt lat="39.84686940331536" lon="8.589091942797749"><ele>2.6666666666666665</ele><time>2026-05-02T11:13:28Z</time></trkpt><trkpt lat="39.84673219441507" lon="8.589187505144057"><ele>2.333333333333333</ele><time>2026-05-02T11:13:29Z</time></trkpt><trkpt lat="39.84658472869112" lon="8.589259362856478"><ele>2.0</ele><time>2026-05-02T11:13:30Z</time></trkpt><trkpt lat="39.846426148722266" lon="8.589288483756057"><ele>2.0</ele><time>2026-05-02T11:13:31Z</time></trkpt><trkpt lat="39.84626160370772" lon="8.58926548887714"><ele>2.0</ele><time>2026-05-02T11:13:32Z</time></trkpt><trkpt lat="39.84609973828001" lon="8.589185770888767"><ele>2.0</ele><time>2026-05-02T11:13:33Z</time></trkpt><trkpt lat="39.845933718628025" lon="8.589115165250591"><ele>2.0</ele><time>2026-05-02T11:13:34Z</time></trkpt><trkpt lat="39.845801801197034" lon="8.588912607467668"><ele>2.0</ele><time>2026-05-02T11:13:35Z</time></trkpt><trkpt lat="39.84564558573006" lon="8.588778548420134"><ele>2.0</ele><time>2026-05-02T11:13:36Z</time></trkpt><trkpt lat="39.84547660426761" lon="8.588653304145364"><ele>2.0</ele><time>2026-05-02T11:13:37Z</time></trkpt><trkpt lat="39.84529872492421" lon="8.588538430622478"><ele>2.0</ele><time>2026-05-02T11:13:38Z</time></trkpt><trkpt lat="39.845112225059665" lon="8.588438576345974"><ele>2.0</ele><time>2026-05-02T11:13:39Z</time></trkpt><trkpt lat="39.84491509529483" lon="8.588357117812967"><ele>2.333333333333333</ele><time>2026-05-02T11:13:39.999Z</time></trkpt><trkpt lat="39.84470876051089" lon="8.588284677712032"><ele>2.6666666666666665</ele><time>2026-05-02T11:13:40.999Z</time></trkpt><trkpt lat="39.84450110203887" lon="8.588201003472832"><ele>3.0</ele><time>2026-05-02T11:13:41.999Z</time></trkpt><trkpt lat="39.8442937036212" lon="8.58810160915801"><ele>3.5</ele><time>2026-05-02T11:13:42.999Z</time></trkpt><trkpt lat="39.84408301068668" lon="8.587999537347946"><ele>4.0</ele><time>2026-05-02T11:13:43.999Z</time></trkpt><trkpt lat="39.84386882053935" lon="8.587901287762888"><ele>3.0</ele><time>2026-05-02T11:13:44.999Z</time></trkpt><trkpt lat="39.84365026400429" lon="8.587804833841105"><ele>2.0</ele><time>2026-05-02T11:13:45.999Z</time></trkpt><trkpt lat="39.84343120793173" lon="8.587706002699871"><ele>2.0</ele><time>2026-05-02T11:13:46.999Z</time></trkpt><trkpt lat="39.84320985196881" lon="8.587606920241617"><ele>2.0</ele><time>2026-05-02T11:13:47.999Z</time></trkpt><trkpt lat="39.84298798678145" lon="8.587505892480905"><ele>2.0</ele><time>2026-05-02T11:13:48.999Z</time></trkpt><trkpt lat="39.84276390278052" lon="8.587410345400134"><ele>2.0</ele><time>2026-05-02T11:13:49.999Z</time></trkpt><trkpt lat="39.84254187783773" lon="8.587310454868144"><ele>3.5</ele><time>2026-05-02T11:13:50.999Z</time></trkpt><trkpt lat="39.842319478863935" lon="8.587204855787043"><ele>5.0</ele><time>2026-05-02T11:13:51.999Z</time></trkpt><trkpt lat="39.84209805647526" lon="8.587102717904159"><ele>5.5</ele><time>2026-05-02T11:13:52.999Z</time></trkpt><trkpt lat="39.841876085404735" lon="8.58700598892739"><ele>6.0</ele><time>2026-05-02T11:13:53.999Z</time></trkpt><trkpt lat="39.841653127307055" lon="8.586910510999004"><ele>6.0</ele><time>2026-05-02T11:13:54.999Z</time></trkpt><trkpt lat="39.84142985109662" lon="8.586810719997368"><ele>6.0</ele><time>2026-05-02T11:13:55.999Z</time></trkpt><trkpt lat="39.84120710369443" lon="8.586707112187959"><ele>6.0</ele><time>2026-05-02T11:13:56.999Z</time></trkpt><trkpt lat="39.840982471078355" lon="8.586602144476911"><ele>6.0</ele><time>2026-05-02T11:13:57.999Z</time></trkpt><trkpt lat="39.840756871871676" lon="8.58649259179388"><ele>6.0</ele><time>2026-05-02T11:13:58.999Z</time></trkpt><trkpt lat="39.84053125128871" lon="8.586383669406468"><ele>6.0</ele><time>2026-05-02T11:13:59.999Z</time></trkpt><trkpt lat="39.84030319369917" lon="8.586281074364033"><ele>5.5</ele><time>2026-05-02T11:14:00.999Z</time></trkpt><trkpt lat="39.840073841641804" lon="8.586185652198184"><ele>5.0</ele><time>2026-05-02T11:14:01.999Z</time></trkpt><trkpt lat="39.83984475054241" lon="8.586088576298057"><ele>4.0</ele><time>2026-05-02T11:14:02.999Z</time></trkpt><trkpt lat="39.83961779253004" lon="8.58598594571298"><ele>3.0</ele><time>2026-05-02T11:14:03.999Z</time></trkpt><trkpt lat="39.839389443401146" lon="8.585880205814059"><ele>3.5</ele><time>2026-05-02T11:14:04.999Z</time></trkpt><trkpt lat="39.83915977112888" lon="8.585778663723676"><ele>4.0</ele><time>2026-05-02T11:14:05.999Z</time></trkpt><trkpt lat="39.838931248108594" lon="8.585680331721244"><ele>4.0</ele><time>2026-05-02T11:14:06.999Z</time></trkpt><trkpt lat="39.838705528074364" lon="8.585581637449371"><ele>4.0</ele><time>2026-05-02T11:14:07.999Z</time></trkpt><trkpt lat="39.83848180529037" lon="8.585477470728874"><ele>3.5</ele><time>2026-05-02T11:14:08.999Z</time></trkpt><trkpt lat="39.83825664151669" lon="8.585374798613376"><ele>3.0</ele><time>2026-05-02T11:14:09.999Z</time></trkpt><trkpt lat="39.83803185867043" lon="8.58527271254937"><ele>3.5</ele><time>2026-05-02T11:14:10.999Z</time></trkpt><trkpt lat="39.83780631434483" lon="8.585171178658639"><ele>4.0</ele><time>2026-05-02T11:14:11.999Z</time></trkpt><trkpt lat="39.83758075599386" lon="8.58506941806258"><ele>4.0</ele><time>2026-05-02T11:14:12.999Z</time></trkpt><trkpt lat="39.837354922690665" lon="8.584967126516538"><ele>4.0</ele><time>2026-05-02T11:14:13.999Z</time></trkpt><trkpt lat="39.83712908016123" lon="8.584860750091282"><ele>4.0</ele><time>2026-05-02T11:14:14.999Z</time></trkpt><trkpt lat="39.83690171684338" lon="8.58475212093986"><ele>4.0</ele><time>2026-05-02T11:14:15.999Z</time></trkpt><trkpt lat="39.836674252526485" lon="8.584644161618458"><ele>4.0</ele><time>2026-05-02T11:14:16.999Z</time></trkpt><trkpt lat="39.83644601601401" lon="8.584538048515817"><ele>4.0</ele><time>2026-05-02T11:14:17.999Z</time></trkpt><trkpt lat="39.836218394786954" lon="8.584427916746309"><ele>4.0</ele><time>2026-05-02T11:14:18.999Z</time></trkpt><trkpt lat="39.835990813737105" lon="8.584309640861362"><ele>4.0</ele><time>2026-05-02T11:14:19.999Z</time></trkpt><trkpt lat="39.83576393434633" lon="8.584180297819566"><ele>5.0</ele><time>2026-05-02T11:14:20.999Z</time></trkpt><trkpt lat="39.83553706196921" lon="8.584049364527674"><ele>6.0</ele><time>2026-05-02T11:14:21.999Z</time></trkpt><trkpt lat="39.83530761095656" lon="8.58392310582653"><ele>5.5</ele><time>2026-05-02T11:14:22.999Z</time></trkpt><trkpt lat="39.83507550123176" lon="8.583798222888287"><ele>5.0</ele><time>2026-05-02T11:14:23.999Z</time></trkpt><trkpt lat="39.83484422383506" lon="8.583674318049892"><ele>5.0</ele><time>2026-05-02T11:14:24.999Z</time></trkpt><trkpt lat="39.834613937936304" lon="8.583548780666082"><ele>5.0</ele><time>2026-05-02T11:14:26Z</time></trkpt><trkpt lat="39.83438657325018" lon="8.58342067330089"><ele>5.0</ele><time>2026-05-02T11:14:27Z</time></trkpt><trkpt lat="39.83416214493386" lon="8.583290072974698"><ele>5.0</ele><time>2026-05-02T11:14:28Z</time></trkpt><trkpt lat="39.83393682333193" lon="8.583167017291135"><ele>5.0</ele><time>2026-05-02T11:14:29Z</time></trkpt><trkpt lat="39.83371214925952" lon="8.583045764942833"><ele>5.0</ele><time>2026-05-02T11:14:30Z</time></trkpt><trkpt lat="39.83348920555938" lon="8.582920560610685"><ele>4.5</ele><time>2026-05-02T11:14:31Z</time></trkpt><trkpt lat="39.83326511701087" lon="8.582796905428284"><ele>4.0</ele><time>2026-05-02T11:14:32Z</time></trkpt><trkpt lat="39.8330410974318" lon="8.582673146652546"><ele>4.0</ele><time>2026-05-02T11:14:33Z</time></trkpt><trkpt lat="39.83281726277364" lon="8.58254994461115"><ele>4.0</ele><time>2026-05-02T11:14:34Z</time></trkpt><trkpt lat="39.832589881700066" lon="8.582431668606677"><ele>4.5</ele><time>2026-05-02T11:14:35Z</time></trkpt><trkpt lat="39.832363808625395" lon="8.582311226590038"><ele>5.0</ele><time>2026-05-02T11:14:36Z</time></trkpt><trkpt lat="39.8321388523017" lon="8.582187515024039"><ele>5.0</ele><time>2026-05-02T11:14:37Z</time></trkpt><trkpt lat="39.831913384747864" lon="8.582062220792029"><ele>5.0</ele><time>2026-05-02T11:14:38Z</time></trkpt><trkpt lat="39.83168830372214" lon="8.581936054667777"><ele>5.5</ele><time>2026-05-02T11:14:39Z</time></trkpt><trkpt lat="39.8314625705293" lon="8.58181081163184"><ele>6.0</ele><time>2026-05-02T11:14:40Z</time></trkpt><trkpt lat="39.831237111090786" lon="8.581684451298509"><ele>6.0</ele><time>2026-05-02T11:14:41Z</time></trkpt><trkpt lat="39.83101168813883" lon="8.581559456405465"><ele>6.0</ele><time>2026-05-02T11:14:42Z</time></trkpt><trkpt lat="39.83078652502804" lon="8.58143414021517"><ele>6.0</ele><time>2026-05-02T11:14:43Z</time></trkpt><trkpt lat="39.83056008275545" lon="8.581312605422967"><ele>6.0</ele><time>2026-05-02T11:14:44Z</time></trkpt><trkpt lat="39.83033240107834" lon="8.581189367424603"><ele>6.5</ele><time>2026-05-02T11:14:45Z</time></trkpt><trkpt lat="39.830107878229356" lon="8.581064836794507"><ele>7.0</ele><time>2026-05-02T11:14:46Z</time></trkpt><trkpt lat="39.829881152821535" lon="8.580940412704269"><ele>7.0</ele><time>2026-05-02T11:14:47Z</time></trkpt><trkpt lat="39.8296547184352" lon="8.58081550899755"><ele>7.0</ele><time>2026-05-02T11:14:48Z</time></trkpt><trkpt lat="39.82942784617707" lon="8.580688486972988"><ele>8.0</ele><time>2026-05-02T11:14:49Z</time></trkpt><trkpt lat="39.829200878325246" lon="8.580561651299593"><ele>9.0</ele><time>2026-05-02T11:14:50Z</time></trkpt><trkpt lat="39.82897562645603" lon="8.580436815360367"><ele>7.0</ele><time>2026-05-02T11:14:51Z</time></trkpt><trkpt lat="39.828749331252375" lon="8.580315290882396"><ele>5.0</ele><time>2026-05-02T11:14:52Z</time></trkpt><trkpt lat="39.828521937247245" lon="8.580195582417259"><ele>6.5</ele><time>2026-05-02T11:14:53Z</time></trkpt><trkpt lat="39.828295844682415" lon="8.580076364739542"><ele>8.0</ele><time>2026-05-02T11:14:54Z</time></trkpt><trkpt lat="39.82807110775998" lon="8.57995616630653"><ele>8.0</ele><time>2026-05-02T11:14:55Z</time></trkpt><trkpt lat="39.82784742167221" lon="8.579836319637067"><ele>8.0</ele><time>2026-05-02T11:14:56Z</time></trkpt><trkpt lat="39.82762457875357" lon="8.579716537258555"><ele>7.5</ele><time>2026-05-02T11:14:57Z</time></trkpt><trkpt lat="39.82740167640985" lon="8.579595529651058"><ele>7.0</ele><time>2026-05-02T11:14:58Z</time></trkpt><trkpt lat="39.827181468703124" lon="8.57947455818083"><ele>6.5</ele><time>2026-05-02T11:14:59Z</time></trkpt><trkpt lat="39.82696804136042" lon="8.579359024144456"><ele>6.0</ele><time>2026-05-02T11:15:00Z</time></trkpt><trkpt lat="39.826762905132966" lon="8.579237646110577"><ele>6.666666666666666</ele><time>2026-05-02T11:15:01Z</time></trkpt><trkpt lat="39.82656601889711" lon="8.579094420032538"><ele>7.333333333333333</ele><time>2026-05-02T11:15:02Z</time></trkpt><trkpt lat="39.82638497983469" lon="8.578923230072316"><ele>8.0</ele><time>2026-05-02T11:15:03Z</time></trkpt><trkpt lat="39.82621056158814" lon="8.578731696446965"><ele>6.5</ele><time>2026-05-02T11:15:04Z</time></trkpt><trkpt lat="39.82603663961018" lon="8.578536953463002"><ele>5.0</ele><time>2026-05-02T11:15:05Z</time></trkpt><trkpt lat="39.825859922676216" lon="8.578348619878929"><ele>5.0</ele><time>2026-05-02T11:15:06Z</time></trkpt><trkpt lat="39.82568062343563" lon="8.578166875541399"><ele>5.0</ele><time>2026-05-02T11:15:07Z</time></trkpt><trkpt lat="39.8255017173648" lon="8.577979063851851"><ele>4.0</ele><time>2026-05-02T11:15:08Z</time></trkpt><trkpt lat="39.825327855568176" lon="8.577787357914904"><ele>3.0</ele><time>2026-05-02T11:15:09Z</time></trkpt><trkpt lat="39.825156003324814" lon="8.57760031564934"><ele>3.333333333333333</ele><time>2026-05-02T11:15:10Z</time></trkpt><trkpt lat="39.82497856617904" lon="8.577434471812037"><ele>3.6666666666666665</ele><time>2026-05-02T11:15:11Z</time></trkpt><trkpt lat="39.82478733388722" lon="8.577307808703715"><ele>4.0</ele><time>2026-05-02T11:15:12Z</time></trkpt><trkpt lat="39.824578752369646" lon="8.577220110503703"><ele>4.0</ele><time>2026-05-02T11:15:13Z</time></trkpt><trkpt lat="39.8243690378317" lon="8.577145110266557"><ele>4.0</ele><time>2026-05-02T11:15:14Z</time></trkpt><trkpt lat="39.824160478747736" lon="8.577065147476123"><ele>4.0</ele><time>2026-05-02T11:15:15Z</time></trkpt><trkpt lat="39.82396007570706" lon="8.576985836815924"><ele>3.0</ele><time>2026-05-02T11:15:16Z</time></trkpt><trkpt lat="39.823766124596034" lon="8.576912609027563"><ele>2.0</ele><time>2026-05-02T11:15:17Z</time></trkpt><trkpt lat="39.82356945948533" lon="8.576856339295338"><ele>1.0</ele><time>2026-05-02T11:15:18Z</time></trkpt><trkpt lat="39.82336092179198" lon="8.57683827904865"><ele>1.0</ele><time>2026-05-02T11:15:19Z</time></trkpt><trkpt lat="39.8231465718751" lon="8.57686569375483"><ele>1.0</ele><time>2026-05-02T11:15:20Z</time></trkpt><trkpt lat="39.822925734996474" lon="8.576920151463348"><ele>1.0</ele><time>2026-05-02T11:15:21Z</time></trkpt><trkpt lat="39.822697021880124" lon="8.576944107357596"><ele>1.0</ele><time>2026-05-02T11:15:22Z</time></trkpt><trkpt lat="39.8224727003041" lon="8.576985302947085"><ele>1.0</ele><time>2026-05-02T11:15:23Z</time></trkpt><trkpt lat="39.82225118113467" lon="8.577017469063996"><ele>1.0</ele><time>2026-05-02T11:15:24Z</time></trkpt><trkpt lat="39.82203022934815" lon="8.57702356902864"><ele>0.6666666666666666</ele><time>2026-05-02T11:15:25Z</time></trkpt><trkpt lat="39.821813199285415" lon="8.576959884553858"><ele>0.3333333333333333</ele><time>2026-05-02T11:15:26Z</time></trkpt><trkpt lat="39.821606650747846" lon="8.576840953824389"><ele>0.0</ele><time>2026-05-02T11:15:27Z</time></trkpt><trkpt lat="39.82142064145312" lon="8.57667343485438"><ele>0.0</ele><time>2026-05-02T11:15:28Z</time></trkpt><trkpt lat="39.821252581212065" lon="8.576471389477916"><ele>0.0</ele><time>2026-05-02T11:15:29Z</time></trkpt><trkpt lat="39.82108888123164" lon="8.57627039499823"><ele>0.0</ele><time>2026-05-02T11:15:30Z</time></trkpt><trkpt lat="39.82091604001677" lon="8.576072338638879"><ele>0.0</ele><time>2026-05-02T11:15:31Z</time></trkpt><trkpt lat="39.82073959032491" lon="8.575874085477091"><ele>0.0</ele><time>2026-05-02T11:15:32Z</time></trkpt><trkpt lat="39.82056183697956" lon="8.575673044734073"><ele>0.0</ele><time>2026-05-02T11:15:33Z</time></trkpt><trkpt lat="39.82038379285206" lon="8.575472825321055"><ele>0.0</ele><time>2026-05-02T11:15:34Z</time></trkpt><trkpt lat="39.82020410413698" lon="8.575276170831245"><ele>0.0</ele><time>2026-05-02T11:15:35Z</time></trkpt><trkpt lat="39.82002564480961" lon="8.575076504315025"><ele>-0.5</ele><time>2026-05-02T11:15:36Z</time></trkpt><trkpt lat="39.81985020274057" lon="8.574874053647594"><ele>-1.0</ele><time>2026-05-02T11:15:37Z</time></trkpt><trkpt lat="39.81967823438073" lon="8.574674630212364"><ele>-0.3333333333333333</ele><time>2026-05-02T11:15:38Z</time></trkpt><trkpt lat="39.819502605048335" lon="8.574497749020242"><ele>0.3333333333333333</ele><time>2026-05-02T11:15:39Z</time></trkpt><trkpt lat="39.81930476752146" lon="8.574371987030815"><ele>1.0</ele><time>2026-05-02T11:15:39.999Z</time></trkpt><trkpt lat="39.8190872043489" lon="8.574304589472556"><ele>1.0</ele><time>2026-05-02T11:15:40.999Z</time></trkpt><trkpt lat="39.81885965886215" lon="8.574277262553128"><ele>1.0</ele><time>2026-05-02T11:15:41.999Z</time></trkpt><trkpt lat="39.81863932731506" lon="8.574247043717474"><ele>1.0</ele><time>2026-05-02T11:15:42.999Z</time></trkpt><trkpt lat="39.81841821023414" lon="8.574195527844447"><ele>1.0</ele><time>2026-05-02T11:15:43.999Z</time></trkpt><trkpt lat="39.818196035186425" lon="8.574146031471008"><ele>1.0</ele><time>2026-05-02T11:15:44.999Z</time></trkpt><trkpt lat="39.81797452012739" lon="8.5740867607302"><ele>1.0</ele><time>2026-05-02T11:15:45.999Z</time></trkpt><trkpt lat="39.8177584092532" lon="8.573999162587839"><ele>1.5</ele><time>2026-05-02T11:15:46.999Z</time></trkpt><trkpt lat="39.81754852035545" lon="8.573885819728616"><ele>2.0</ele><time>2026-05-02T11:15:47.999Z</time></trkpt><trkpt lat="39.81733791439876" lon="8.57377758122986"><ele>2.0</ele><time>2026-05-02T11:15:48.999Z</time></trkpt><trkpt lat="39.81712620354851" lon="8.573676263512755"><ele>2.0</ele><time>2026-05-02T11:15:49.999Z</time></trkpt><trkpt lat="39.81691763439835" lon="8.573574694020666"><ele>2.0</ele><time>2026-05-02T11:15:50.999Z</time></trkpt><trkpt lat="39.8167108848482" lon="8.573485111856565"><ele>2.0</ele><time>2026-05-02T11:15:51.999Z</time></trkpt><trkpt lat="39.81650009783901" lon="8.573442700298614"><ele>2.0</ele><time>2026-05-02T11:15:52.999Z</time></trkpt><trkpt lat="39.81628853993238" lon="8.573470331634322"><ele>2.0</ele><time>2026-05-02T11:15:53.999Z</time></trkpt><trkpt lat="39.81608619369177" lon="8.573563016200563"><ele>2.333333333333333</ele><time>2026-05-02T11:15:54.999Z</time></trkpt><trkpt lat="39.81590148458288" lon="8.57371535488464"><ele>2.6666666666666665</ele><time>2026-05-02T11:15:55.999Z</time></trkpt><trkpt lat="39.81574440604696" lon="8.573912017155115"><ele>3.0</ele><time>2026-05-02T11:15:56.999Z</time></trkpt><trkpt lat="39.815624377731744" lon="8.574157707921279"><ele>3.0</ele><time>2026-05-02T11:15:57.999Z</time></trkpt><trkpt lat="39.81552337653177" lon="8.57441908559696"><ele>3.0</ele><time>2026-05-02T11:15:58.999Z</time></trkpt><trkpt lat="39.81540530081707" lon="8.574668990881335"><ele>3.333333333333333</ele><time>2026-05-02T11:15:59.999Z</time></trkpt><trkpt lat="39.81530363680848" lon="8.57492810314055"><ele>3.6666666666666665</ele><time>2026-05-02T11:16:00.999Z</time></trkpt><trkpt lat="39.81519111760541" lon="8.575179866321804"><ele>4.0</ele><time>2026-05-02T11:16:01.999Z</time></trkpt><trkpt lat="39.81508726769506" lon="8.575435951720708"><ele>4.0</ele><time>2026-05-02T11:16:02.999Z</time></trkpt><trkpt lat="39.81497849592267" lon="8.575688098078466"><ele>4.0</ele><time>2026-05-02T11:16:03.999Z</time></trkpt><trkpt lat="39.81486666393574" lon="8.575938098521178"><ele>4.0</ele><time>2026-05-02T11:16:04.999Z</time></trkpt><trkpt lat="39.81475120242515" lon="8.576188222879097"><ele>3.5</ele><time>2026-05-02T11:16:05.999Z</time></trkpt><trkpt lat="39.81463184116037" lon="8.576436651083846"><ele>3.0</ele><time>2026-05-02T11:16:06.999Z</time></trkpt><trkpt lat="39.81451285767277" lon="8.576686725502952"><ele>3.0</ele><time>2026-05-02T11:16:07.999Z</time></trkpt><trkpt lat="39.81439567814565" lon="8.576943456558586"><ele>3.0</ele><time>2026-05-02T11:16:08.999Z</time></trkpt><trkpt lat="39.81427774271366" lon="8.577197502024777"><ele>3.0</ele><time>2026-05-02T11:16:09.999Z</time></trkpt><trkpt lat="39.814159659298156" lon="8.57745306774021"><ele>3.0</ele><time>2026-05-02T11:16:10.999Z</time></trkpt><trkpt lat="39.81403868589691" lon="8.577707360016603"><ele>2.0</ele><time>2026-05-02T11:16:11.999Z</time></trkpt><trkpt lat="39.813912825417546" lon="8.577955743778704"><ele>1.0</ele><time>2026-05-02T11:16:12.999Z</time></trkpt><trkpt lat="39.81376307062895" lon="8.578175354859585"><ele>1.0</ele><time>2026-05-02T11:16:13.999Z</time></trkpt><trkpt lat="39.81360592617847" lon="8.578389158330916"><ele>1.0</ele><time>2026-05-02T11:16:14.999Z</time></trkpt><trkpt lat="39.81344210044629" lon="8.578595992301448"><ele>1.0</ele><time>2026-05-02T11:16:15.999Z</time></trkpt><trkpt lat="39.81328737135607" lon="8.578817904521681"><ele>1.0</ele><time>2026-05-02T11:16:16.999Z</time></trkpt><trkpt lat="39.813118934389934" lon="8.579021974579074"><ele>1.0</ele><time>2026-05-02T11:16:17.999Z</time></trkpt><trkpt lat="39.81295096345511" lon="8.579229310429703"><ele>1.0</ele><time>2026-05-02T11:16:18.999Z</time></trkpt><trkpt lat="39.81277860069206" lon="8.579431864668601"><ele>1.5</ele><time>2026-05-02T11:16:19.999Z</time></trkpt><trkpt lat="39.81259665957015" lon="8.579616952262276"><ele>2.0</ele><time>2026-05-02T11:16:20.999Z</time></trkpt><trkpt lat="39.812406883701286" lon="8.579786414693567"><ele>2.0</ele><time>2026-05-02T11:16:21.999Z</time></trkpt><trkpt lat="39.81221178815635" lon="8.57995065283682"><ele>2.0</ele><time>2026-05-02T11:16:22.999Z</time></trkpt><trkpt lat="39.81201708903429" lon="8.580116685905363"><ele>2.0</ele><time>2026-05-02T11:16:23.999Z</time></trkpt><trkpt lat="39.811822033112605" lon="8.580288191281607"><ele>2.0</ele><time>2026-05-02T11:16:24.999Z</time></trkpt><trkpt lat="39.81162724574958" lon="8.580464743634677"><ele>1.5</ele><time>2026-05-02T11:16:25.999Z</time></trkpt><trkpt lat="39.81142864328716" lon="8.58064018048291"><ele>1.0</ele><time>2026-05-02T11:16:26.999Z</time></trkpt><trkpt lat="39.81122958706758" lon="8.580816014978904"><ele>1.0</ele><time>2026-05-02T11:16:27.999Z</time></trkpt><trkpt lat="39.81103163041835" lon="8.580994931195079"><ele>1.0</ele><time>2026-05-02T11:16:28.999Z</time></trkpt><trkpt lat="39.81083955991168" lon="8.58117938134873"><ele>2.5</ele><time>2026-05-02T11:16:29.999Z</time></trkpt><trkpt lat="39.810654132833385" lon="8.58136995838235"><ele>4.0</ele><time>2026-05-02T11:16:30.999Z</time></trkpt><trkpt lat="39.81046154033171" lon="8.581548154102531"><ele>4.0</ele><time>2026-05-02T11:16:32Z</time></trkpt><trkpt lat="39.81029534820883" lon="8.581716728006286"><ele>4.0</ele><time>2026-05-02T11:16:33Z</time></trkpt><trkpt lat="39.81014956355329" lon="8.581864582399268"><ele>4.0</ele><time>2026-05-02T11:16:34Z</time></trkpt><trkpt lat="39.81001670112526" lon="8.58198626654396"><ele>4.0</ele><time>2026-05-02T11:16:35Z</time></trkpt><trkpt lat="39.809867117070254" lon="8.582088533577403"><ele>4.0</ele><time>2026-05-02T11:16:36Z</time></trkpt><trkpt lat="39.809681631743345" lon="8.58212636208777"><ele>4.0</ele><time>2026-05-02T11:16:37Z</time></trkpt><trkpt lat="39.809485414722616" lon="8.582132502803724"><ele>4.0</ele><time>2026-05-02T11:16:38Z</time></trkpt><trkpt lat="39.8092818583934" lon="8.582121291199767"><ele>4.0</ele><time>2026-05-02T11:16:39Z</time></trkpt><trkpt lat="39.80907453491442" lon="8.582116323102236"><ele>4.0</ele><time>2026-05-02T11:16:40Z</time></trkpt><trkpt lat="39.80885896472156" lon="8.58211364558524"><ele>4.0</ele><time>2026-05-02T11:16:41Z</time></trkpt><trkpt lat="39.80863655893816" lon="8.58211859308947"><ele>4.0</ele><time>2026-05-02T11:16:42Z</time></trkpt><trkpt lat="39.80840963465005" lon="8.582120492527553"><ele>4.0</ele><time>2026-05-02T11:16:43Z</time></trkpt><trkpt lat="39.80817955347484" lon="8.582120433856545"><ele>4.5</ele><time>2026-05-02T11:16:44Z</time></trkpt><trkpt lat="39.80794921454531" lon="8.582121247857318"><ele>5.0</ele><time>2026-05-02T11:16:45Z</time></trkpt><trkpt lat="39.80771748389854" lon="8.582120840892435"><ele>4.5</ele><time>2026-05-02T11:16:46Z</time></trkpt><trkpt lat="39.807484941018245" lon="8.582120039614002"><ele>4.0</ele><time>2026-05-02T11:16:47Z</time></trkpt><trkpt lat="39.80725318276908" lon="8.582119643834671"><ele>4.0</ele><time>2026-05-02T11:16:48Z</time></trkpt><trkpt lat="39.807021476384186" lon="8.582119301771847"><ele>4.0</ele><time>2026-05-02T11:16:49Z</time></trkpt><trkpt lat="39.806788310505816" lon="8.582120803625223"><ele>5.5</ele><time>2026-05-02T11:16:50Z</time></trkpt><trkpt lat="39.806556414803765" lon="8.582126439388114"><ele>7.0</ele><time>2026-05-02T11:16:51Z</time></trkpt><trkpt lat="39.806324972745436" lon="8.582130056775167"><ele>7.0</ele><time>2026-05-02T11:16:52Z</time></trkpt><trkpt lat="39.806091934860675" lon="8.582128883035457"><ele>7.0</ele><time>2026-05-02T11:16:53Z</time></trkpt><trkpt lat="39.80585812464614" lon="8.582125104404419"><ele>7.0</ele><time>2026-05-02T11:16:54Z</time></trkpt><trkpt lat="39.80562907389354" lon="8.58212971714051"><ele>7.0</ele><time>2026-05-02T11:16:55Z</time></trkpt><trkpt lat="39.805397733162266" lon="8.58213518111089"><ele>7.0</ele><time>2026-05-02T11:16:56Z</time></trkpt><trkpt lat="39.805164736374024" lon="8.582136064311182"><ele>7.0</ele><time>2026-05-02T11:16:57Z</time></trkpt><trkpt lat="39.804931451622586" lon="8.582134214346267"><ele>7.0</ele><time>2026-05-02T11:16:58Z</time></trkpt><trkpt lat="39.80469976153301" lon="8.582131076279264"><ele>7.0</ele><time>2026-05-02T11:16:59Z</time></trkpt><trkpt lat="39.80447171603931" lon="8.582131211389125"><ele>6.0</ele><time>2026-05-02T11:17:00Z</time></trkpt><trkpt lat="39.80424367896405" lon="8.582135133313756"><ele>5.0</ele><time>2026-05-02T11:17:01Z</time></trkpt><trkpt lat="39.8040330669386" lon="8.582138569788842"><ele>4.0</ele><time>2026-05-02T11:17:02Z</time></trkpt><trkpt lat="39.80387204756441" lon="8.582143992077578"><ele>4.0</ele><time>2026-05-02T11:17:03Z</time></trkpt><trkpt lat="39.80372040869751" lon="8.58214451397066"><ele>4.0</ele><time>2026-05-02T11:17:04Z</time></trkpt><trkpt lat="39.80355534848274" lon="8.5821438972634"><ele>4.0</ele><time>2026-05-02T11:17:05Z</time></trkpt><trkpt lat="39.80339206546179" lon="8.582140997150184"><ele>4.0</ele><time>2026-05-02T11:17:06Z</time></trkpt><trkpt lat="39.80324221984849" lon="8.582140032232537"><ele>4.0</ele><time>2026-05-02T11:17:07Z</time></trkpt><trkpt lat="39.80310029137934" lon="8.582139910922782"><ele>4.0</ele><time>2026-05-02T11:17:08Z</time></trkpt><trkpt lat="39.80296651170872" lon="8.582141741264754"><ele>4.0</ele><time>2026-05-02T11:17:09Z</time></trkpt><trkpt lat="39.80283511407003" lon="8.582146358969279"><ele>4.0</ele><time>2026-05-02T11:17:10Z</time></trkpt><trkpt lat="39.80271256038191" lon="8.582149508737821"><ele>4.0</ele><time>2026-05-02T11:17:11Z</time></trkpt><trkpt lat="39.8025969357377" lon="8.582150505307249"><ele>4.0</ele><time>2026-05-02T11:17:12Z</time></trkpt><trkpt lat="39.802487911345615" lon="8.582150279409534"><ele>4.0</ele><time>2026-05-02T11:17:13Z</time></trkpt><trkpt lat="39.802384562765205" lon="8.582147349541401"><ele>4.166666666666666</ele><time>2026-05-02T11:17:14Z</time></trkpt><trkpt lat="39.802288020700416" lon="8.582143749824782"><ele>4.333333333333333</ele><time>2026-05-02T11:17:15Z</time></trkpt><trkpt lat="39.802197004567034" lon="8.58214562621821"><ele>4.5</ele><time>2026-05-02T11:17:16Z</time></trkpt><trkpt lat="39.80211311187633" lon="8.5821508398089"><ele>4.666666666666667</ele><time>2026-05-02T11:17:17Z</time></trkpt><trkpt lat="39.80203608883601" lon="8.582086901281349"><ele>4.833333333333334</ele><time>2026-05-02T11:17:19Z</time></trkpt><trkpt lat="39.80202434817461" lon="8.581998925202184"><ele>5.0</ele><time>2026-05-02T11:17:20Z</time></trkpt><trkpt lat="39.802046275620356" lon="8.581860907056274"><ele>5.25</ele><time>2026-05-02T11:17:21Z</time></trkpt><trkpt lat="39.80205489906876" lon="8.581712324985109"><ele>5.5</ele><time>2026-05-02T11:17:22Z</time></trkpt><trkpt lat="39.80205450185738" lon="8.5815332932846"><ele>5.75</ele><time>2026-05-02T11:17:23Z</time></trkpt><trkpt lat="39.80204678429944" lon="8.581327354300276"><ele>6.0</ele><time>2026-05-02T11:17:24Z</time></trkpt><trkpt lat="39.802040438699024" lon="8.581101404611028"><ele>6.0</ele><time>2026-05-02T11:17:25Z</time></trkpt><trkpt lat="39.80203955342529" lon="8.5808656178639"><ele>6.0</ele><time>2026-05-02T11:17:26Z</time></trkpt><trkpt lat="39.80203833585889" lon="8.58063097054287"><ele>6.0</ele><time>2026-05-02T11:17:27Z</time></trkpt><trkpt lat="39.80203665311899" lon="8.580378788110146"><ele>6.0</ele><time>2026-05-02T11:17:28Z</time></trkpt><trkpt lat="39.80203612117545" lon="8.580110528350252"><ele>6.0</ele><time>2026-05-02T11:17:29Z</time></trkpt><trkpt lat="39.8020328941377" lon="8.57983967010458"><ele>6.0</ele><time>2026-05-02T11:17:30Z</time></trkpt><trkpt lat="39.80203023995004" lon="8.579558508322174"><ele>6.333333333333334</ele><time>2026-05-02T11:17:31Z</time></trkpt><trkpt lat="39.802026549015636" lon="8.579268579260624"><ele>6.666666666666667</ele><time>2026-05-02T11:17:32Z</time></trkpt><trkpt lat="39.802027488173295" lon="8.578973670568981"><ele>7.0</ele><time>2026-05-02T11:17:33Z</time></trkpt><trkpt lat="39.80202860194621" lon="8.578673367213876"><ele>7.0</ele><time>2026-05-02T11:17:34Z</time></trkpt><trkpt lat="39.80202388497136" lon="8.578370860666306"><ele>7.0</ele><time>2026-05-02T11:17:35Z</time></trkpt><trkpt lat="39.80201896588773" lon="8.578066195778044"><ele>7.5</ele><time>2026-05-02T11:17:36Z</time></trkpt><trkpt lat="39.8020176336107" lon="8.577761714416264"><ele>8.0</ele><time>2026-05-02T11:17:37Z</time></trkpt><trkpt lat="39.80201634786938" lon="8.57746014298917"><ele>8.0</ele><time>2026-05-02T11:17:38Z</time></trkpt><trkpt lat="39.8020175913358" lon="8.577162928130468"><ele>8.0</ele><time>2026-05-02T11:17:39Z</time></trkpt><trkpt lat="39.80201932061304" lon="8.576860145564202"><ele>7.0</ele><time>2026-05-02T11:17:40Z</time></trkpt><trkpt lat="39.80201738766758" lon="8.57655052147228"><ele>6.0</ele><time>2026-05-02T11:17:41Z</time></trkpt><trkpt lat="39.80201621674286" lon="8.5762343222108"><ele>5.0</ele><time>2026-05-02T11:17:42Z</time></trkpt><trkpt lat="39.80201589906155" lon="8.575915613062032"><ele>4.0</ele><time>2026-05-02T11:17:43Z</time></trkpt><trkpt lat="39.80201541941476" lon="8.575596867123878"><ele>4.0</ele><time>2026-05-02T11:17:43.999Z</time></trkpt><trkpt lat="39.80201485946093" lon="8.575283629429883"><ele>4.0</ele><time>2026-05-02T11:17:44.999Z</time></trkpt><trkpt lat="39.802015462658105" lon="8.57497078637313"><ele>4.0</ele><time>2026-05-02T11:17:45.999Z</time></trkpt><trkpt lat="39.802014793136394" lon="8.574657790844403"><ele>4.0</ele><time>2026-05-02T11:17:46.999Z</time></trkpt><trkpt lat="39.80201581571892" lon="8.574346071688208"><ele>3.5</ele><time>2026-05-02T11:17:47.999Z</time></trkpt><trkpt lat="39.802015186779194" lon="8.574037021241624"><ele>3.0</ele><time>2026-05-02T11:17:48.999Z</time></trkpt><trkpt lat="39.80201190309245" lon="8.573726372553521"><ele>3.5</ele><time>2026-05-02T11:17:49.999Z</time></trkpt><trkpt lat="39.80201258915356" lon="8.573413973791384"><ele>4.0</ele><time>2026-05-02T11:17:50.999Z</time></trkpt><trkpt lat="39.802015675076525" lon="8.573098781361136"><ele>4.0</ele><time>2026-05-02T11:17:51.999Z</time></trkpt><trkpt lat="39.80201356558152" lon="8.572779967149451"><ele>4.0</ele><time>2026-05-02T11:17:52.999Z</time></trkpt><trkpt lat="39.80201198866138" lon="8.572458017649142"><ele>4.0</ele><time>2026-05-02T11:17:53.999Z</time></trkpt><trkpt lat="39.80200970233281" lon="8.572140153113923"><ele>4.0</ele><time>2026-05-02T11:17:54.999Z</time></trkpt><trkpt lat="39.802007692816844" lon="8.571822036334657"><ele>4.0</ele><time>2026-05-02T11:17:55.999Z</time></trkpt><trkpt lat="39.80200690287714" lon="8.571506520232887"><ele>4.0</ele><time>2026-05-02T11:17:56.999Z</time></trkpt><trkpt lat="39.80200633725745" lon="8.571193736061552"><ele>3.5</ele><time>2026-05-02T11:17:57.999Z</time></trkpt><trkpt lat="39.80200698968131" lon="8.570886049150483"><ele>3.0</ele><time>2026-05-02T11:17:58.999Z</time></trkpt><trkpt lat="39.80200913070471" lon="8.570577664544622"><ele>3.0</ele><time>2026-05-02T11:17:59.999Z</time></trkpt><trkpt lat="39.80201025194477" lon="8.570272994990423"><ele>3.0</ele><time>2026-05-02T11:18:00.999Z</time></trkpt><trkpt lat="39.802007012824376" lon="8.569972617303948"><ele>3.0</ele><time>2026-05-02T11:18:01.999Z</time></trkpt><trkpt lat="39.80200116821508" lon="8.569673557552312"><ele>3.0</ele><time>2026-05-02T11:18:02.999Z</time></trkpt><trkpt lat="39.80199663490087" lon="8.569377764860098"><ele>3.5</ele><time>2026-05-02T11:18:03.999Z</time></trkpt><trkpt lat="39.80199236438344" lon="8.569083808733946"><ele>4.0</ele><time>2026-05-02T11:18:04.999Z</time></trkpt><trkpt lat="39.80199129052457" lon="8.568786594568751"><ele>5.0</ele><time>2026-05-02T11:18:05.999Z</time></trkpt><trkpt lat="39.80199365879196" lon="8.568489223705491"><ele>6.0</ele><time>2026-05-02T11:18:06.999Z</time></trkpt><trkpt lat="39.801996985521015" lon="8.568190631931513"><ele>6.0</ele><time>2026-05-02T11:18:07.999Z</time></trkpt><trkpt lat="39.8019998750568" lon="8.567891659199674"><ele>6.0</ele><time>2026-05-02T11:18:08.999Z</time></trkpt><trkpt lat="39.802000960722076" lon="8.567593343408749"><ele>5.5</ele><time>2026-05-02T11:18:09.999Z</time></trkpt><trkpt lat="39.80199669346398" lon="8.567296006615383"><ele>5.0</ele><time>2026-05-02T11:18:10.999Z</time></trkpt><trkpt lat="39.801990601489955" lon="8.566997672759992"><ele>4.5</ele><time>2026-05-02T11:18:11.999Z</time></trkpt><trkpt lat="39.801988259743176" lon="8.566700955663094"><ele>4.0</ele><time>2026-05-02T11:18:12.999Z</time></trkpt><trkpt lat="39.80198908945481" lon="8.566403080911405"><ele>5.0</ele><time>2026-05-02T11:18:13.999Z</time></trkpt><trkpt lat="39.80198796210799" lon="8.56610628983645"><ele>6.0</ele><time>2026-05-02T11:18:14.999Z</time></trkpt><trkpt lat="39.80198744116328" lon="8.565809340706666"><ele>6.0</ele><time>2026-05-02T11:18:15.999Z</time></trkpt><trkpt lat="39.80198871931808" lon="8.565510183840802"><ele>6.0</ele><time>2026-05-02T11:18:16.999Z</time></trkpt><trkpt lat="39.80199094764292" lon="8.565208525827462"><ele>4.5</ele><time>2026-05-02T11:18:17.999Z</time></trkpt><trkpt lat="39.801991498100804" lon="8.564907327395433"><ele>3.0</ele><time>2026-05-02T11:18:18.999Z</time></trkpt><trkpt lat="39.801988671996696" lon="8.564605863616439"><ele>2.3333333333333335</ele><time>2026-05-02T11:18:19.999Z</time></trkpt><trkpt lat="39.80198569480059" lon="8.564312608586972"><ele>1.6666666666666665</ele><time>2026-05-02T11:18:20.999Z</time></trkpt><trkpt lat="39.80198014691518" lon="8.564030908537054"><ele>1.0</ele><time>2026-05-02T11:18:21.999Z</time></trkpt><trkpt lat="39.80197597681997" lon="8.563763691757892"><ele>2.0</ele><time>2026-05-02T11:18:22.999Z</time></trkpt><trkpt lat="39.801973723618396" lon="8.563524074800954"><ele>3.0</ele><time>2026-05-02T11:18:23.999Z</time></trkpt><trkpt lat="39.80197421024966" lon="8.563285125559624"><ele>4.0</ele><time>2026-05-02T11:18:24.999Z</time></trkpt><trkpt lat="39.80197560730839" lon="8.563044848058942"><ele>4.0</ele><time>2026-05-02T11:18:25.999Z</time></trkpt><trkpt lat="39.80197641308408" lon="8.562807514233818"><ele>4.0</ele><time>2026-05-02T11:18:26.999Z</time></trkpt><trkpt lat="39.80197840845252" lon="8.562570409762056"><ele>4.0</ele><time>2026-05-02T11:18:27.999Z</time></trkpt><trkpt lat="39.80197928855548" lon="8.562332295027751"><ele>4.0</ele><time>2026-05-02T11:18:28.999Z</time></trkpt><trkpt lat="39.801978232022854" lon="8.562093993926103"><ele>4.0</ele><time>2026-05-02T11:18:29.999Z</time></trkpt><trkpt lat="39.80197658477747" lon="8.561855196444133"><ele>4.0</ele><time>2026-05-02T11:18:30.999Z</time></trkpt><trkpt lat="39.80197568771703" lon="8.561617162612407"><ele>3.333333333333333</ele><time>2026-05-02T11:18:31.999Z</time></trkpt><trkpt lat="39.80197600984706" lon="8.561377771358336"><ele>2.6666666666666665</ele><time>2026-05-02T11:18:32.999Z</time></trkpt><trkpt lat="39.8019756823028" lon="8.561138684605943"><ele>2.0</ele><time>2026-05-02T11:18:33.999Z</time></trkpt><trkpt lat="39.8019751127358" lon="8.560897245918508"><ele>2.0</ele><time>2026-05-02T11:18:34.999Z</time></trkpt><trkpt lat="39.80197462093256" lon="8.560655058375087"><ele>2.0</ele><time>2026-05-02T11:18:35.999Z</time></trkpt><trkpt lat="39.80197384719384" lon="8.560411666521663"><ele>2.0</ele><time>2026-05-02T11:18:37Z</time></trkpt><trkpt lat="39.80197482915186" lon="8.560168607758264"><ele>2.0</ele><time>2026-05-02T11:18:38Z</time></trkpt><trkpt lat="39.80197420663388" lon="8.559924902553133"><ele>2.0</ele><time>2026-05-02T11:18:39Z</time></trkpt><trkpt lat="39.801969107456635" lon="8.559686590329013"><ele>2.0</ele><time>2026-05-02T11:18:40Z</time></trkpt><trkpt lat="39.801965950518166" lon="8.559471949118986"><ele>2.25</ele><time>2026-05-02T11:18:41Z</time></trkpt><trkpt lat="39.8019623867137" lon="8.55926995464834"><ele>2.5</ele><time>2026-05-02T11:18:42Z</time></trkpt><trkpt lat="39.80195849691105" lon="8.559082768420971"><ele>2.75</ele><time>2026-05-02T11:18:43Z</time></trkpt><trkpt lat="39.801956922927836" lon="8.558904246888561"><ele>3.0</ele><time>2026-05-02T11:18:44Z</time></trkpt><trkpt lat="39.80195521696114" lon="8.558719896826"><ele>2.5</ele><time>2026-05-02T11:18:45Z</time></trkpt><trkpt lat="39.80195630093573" lon="8.558533298203011"><ele>2.0</ele><time>2026-05-02T11:18:46Z</time></trkpt><trkpt lat="39.80195733499714" lon="8.558346161623824"><ele>1.5</ele><time>2026-05-02T11:18:47Z</time></trkpt><trkpt lat="39.80195909181039" lon="8.558162742559487"><ele>1.0</ele><time>2026-05-02T11:18:48Z</time></trkpt><trkpt lat="39.80196072479851" lon="8.55800394119874"><ele>1.2000000000000002</ele><time>2026-05-02T11:18:49Z</time></trkpt><trkpt lat="39.801959935325016" lon="8.557849222574893"><ele>1.4000000000000001</ele><time>2026-05-02T11:18:50Z</time></trkpt><trkpt lat="39.80195667715862" lon="8.557705907339095"><ele>1.6</ele><time>2026-05-02T11:18:51Z</time></trkpt><trkpt lat="39.80196202687829" lon="8.55758411635397"><ele>1.8</ele><time>2026-05-02T11:18:52Z</time></trkpt><trkpt lat="39.80194604474357" lon="8.557503020982795"><ele>2.0</ele><time>2026-05-02T11:18:53Z</time></trkpt><trkpt lat="39.80183576646683" lon="8.557424543812033"><ele>2.25</ele><time>2026-05-02T11:18:55Z</time></trkpt><trkpt lat="39.80173689506592" lon="8.557420588162822"><ele>2.5</ele><time>2026-05-02T11:18:56Z</time></trkpt><trkpt lat="39.801621264038275" lon="8.557434604316857"><ele>2.75</ele><time>2026-05-02T11:18:57Z</time></trkpt><trkpt lat="39.80147978869336" lon="8.55745298057253"><ele>3.0</ele><time>2026-05-02T11:18:58Z</time></trkpt><trkpt lat="39.801313268456546" lon="8.557459103595411"><ele>3.0</ele><time>2026-05-02T11:18:59Z</time></trkpt><trkpt lat="39.8011366593871" lon="8.557460221617157"><ele>3.0</ele><time>2026-05-02T11:19:00Z</time></trkpt><trkpt lat="39.80096030664477" lon="8.557462604652759"><ele>3.0</ele><time>2026-05-02T11:19:01Z</time></trkpt><trkpt lat="39.80077311615283" lon="8.557465876205244"><ele>3.333333333333333</ele><time>2026-05-02T11:19:02Z</time></trkpt><trkpt lat="39.80058122057888" lon="8.55746572550372"><ele>3.6666666666666665</ele><time>2026-05-02T11:19:03Z</time></trkpt><trkpt lat="39.80038780391372" lon="8.557465176935601"><ele>4.0</ele><time>2026-05-02T11:19:04Z</time></trkpt><trkpt lat="39.800190028088615" lon="8.557463746291695"><ele>3.6666666666666665</ele><time>2026-05-02T11:19:05Z</time></trkpt><trkpt lat="39.79998181300957" lon="8.557462825652756"><ele>3.333333333333333</ele><time>2026-05-02T11:19:06Z</time></trkpt><trkpt lat="39.799770375344536" lon="8.55746252001723"><ele>3.0</ele><time>2026-05-02T11:19:07Z</time></trkpt><trkpt lat="39.79955524669975" lon="8.557460678023885"><ele>3.0</ele><time>2026-05-02T11:19:08Z</time></trkpt><trkpt lat="39.79934173408186" lon="8.557455788852488"><ele>3.0</ele><time>2026-05-02T11:19:09Z</time></trkpt><trkpt lat="39.79912798214044" lon="8.557457070554532"><ele>3.0</ele><time>2026-05-02T11:19:10Z</time></trkpt><trkpt lat="39.79893349273662" lon="8.557460482720545"><ele>3.0</ele><time>2026-05-02T11:19:11Z</time></trkpt><trkpt lat="39.7987608683257" lon="8.557444951546369"><ele>3.0</ele><time>2026-05-02T11:19:12Z</time></trkpt><trkpt lat="39.7986081699972" lon="8.557447229714642"><ele>3.0</ele><time>2026-05-02T11:19:13Z</time></trkpt><trkpt lat="39.798478775978936" lon="8.5574482012489"><ele>3.0</ele><time>2026-05-02T11:19:14Z</time></trkpt><trkpt lat="39.798350257016715" lon="8.557449166213653"><ele>3.0</ele><time>2026-05-02T11:19:15Z</time></trkpt><trkpt lat="39.798250159627834" lon="8.55745180358298"><ele>3.0</ele><time>2026-05-02T11:19:16Z</time></trkpt><trkpt lat="39.79817250440409" lon="8.55747131690667"><ele>3.0</ele><time>2026-05-02T11:19:17Z</time></trkpt><trkpt lat="39.79807856122781" lon="8.557387140221918"><ele>3.0</ele><time>2026-05-02T11:19:19Z</time></trkpt><trkpt lat="39.798063564474724" lon="8.557284855818148"><ele>3.0</ele><time>2026-05-02T11:19:20Z</time></trkpt><trkpt lat="39.79807416439444" lon="8.557143372824005"><ele>3.0</ele><time>2026-05-02T11:19:21Z</time></trkpt><trkpt lat="39.798075290823945" lon="8.556971501734978"><ele>3.0</ele><time>2026-05-02T11:19:22Z</time></trkpt><trkpt lat="39.79807265812033" lon="8.556761829220937"><ele>3.0</ele><time>2026-05-02T11:19:23Z</time></trkpt><trkpt lat="39.79806593748045" lon="8.556527434896765"><ele>2.6666666666666665</ele><time>2026-05-02T11:19:24Z</time></trkpt><trkpt lat="39.7980616997166" lon="8.556265848422035"><ele>2.333333333333333</ele><time>2026-05-02T11:19:25Z</time></trkpt><trkpt lat="39.79807140637317" lon="8.555990941472212"><ele>2.0</ele><time>2026-05-02T11:19:26Z</time></trkpt><trkpt lat="39.79809023427339" lon="8.555692500122532"><ele>2.6666666666666665</ele><time>2026-05-02T11:19:27Z</time></trkpt><trkpt lat="39.798104534829406" lon="8.555434033845383"><ele>3.333333333333333</ele><time>2026-05-02T11:19:28Z</time></trkpt><trkpt lat="39.798112771534036" lon="8.555235833278454"><ele>4.0</ele><time>2026-05-02T11:19:29Z</time></trkpt><trkpt lat="39.7981143889875" lon="8.555094617397563"><ele>4.75</ele><time>2026-05-02T11:19:30Z</time></trkpt><trkpt lat="39.79810198788783" lon="8.55500627977193"><ele>5.5</ele><time>2026-05-02T11:19:31Z</time></trkpt><trkpt lat="39.79799197328318" lon="8.554918115087403"><ele>6.25</ele><time>2026-05-02T11:19:33Z</time></trkpt><trkpt lat="39.797867093935466" lon="8.554925310784283"><ele>7.0</ele><time>2026-05-02T11:19:34Z</time></trkpt><trkpt lat="39.797711332251644" lon="8.554931157770492"><ele>6.666666666666667</ele><time>2026-05-02T11:19:35Z</time></trkpt><trkpt lat="39.79753221119185" lon="8.554934105472762"><ele>6.333333333333334</ele><time>2026-05-02T11:19:36Z</time></trkpt><trkpt lat="39.79732830788565" lon="8.554937461001735"><ele>6.0</ele><time>2026-05-02T11:19:37Z</time></trkpt><trkpt lat="39.79709548569326" lon="8.554941292435807"><ele>6.0</ele><time>2026-05-02T11:19:38Z</time></trkpt><trkpt lat="39.79684848614705" lon="8.554944082731938"><ele>6.0</ele><time>2026-05-02T11:19:39Z</time></trkpt><trkpt lat="39.796577483305896" lon="8.554947141558849"><ele>5.0</ele><time>2026-05-02T11:19:40Z</time></trkpt><trkpt lat="39.79629449023492" lon="8.554949470971607"><ele>4.0</ele><time>2026-05-02T11:19:41Z</time></trkpt><trkpt lat="39.79600182001303" lon="8.55495155166946"><ele>3.5</ele><time>2026-05-02T11:19:42Z</time></trkpt><trkpt lat="39.79569721037894" lon="8.55495371724927"><ele>3.0</ele><time>2026-05-02T11:19:43Z</time></trkpt><trkpt lat="39.79541278588101" lon="8.554955739326687"><ele>3.0</ele><time>2026-05-02T11:19:44Z</time></trkpt><trkpt lat="39.7951717083481" lon="8.554978703395063"><ele>3.0</ele><time>2026-05-02T11:19:44.999Z</time></trkpt><trkpt lat="39.79496943185252" lon="8.55497510866132"><ele>3.0</ele><time>2026-05-02T11:19:45.999Z</time></trkpt><trkpt lat="39.794810459697224" lon="8.55495739887737"><ele>3.2</ele><time>2026-05-02T11:19:46.999Z</time></trkpt><trkpt lat="39.794683247180174" lon="8.554957398877164"><ele>3.4</ele><time>2026-05-02T11:19:47.999Z</time></trkpt><trkpt lat="39.79457867547927" lon="8.554958182926715"><ele>3.6000000000000005</ele><time>2026-05-02T11:19:48.999Z</time></trkpt><trkpt lat="39.79450194956336" lon="8.55495930088034"><ele>3.8000000000000003</ele><time>2026-05-02T11:19:49.999Z</time></trkpt><trkpt lat="39.794435924894984" lon="8.55493970582759"><ele>4.0</ele><time>2026-05-02T11:19:52.999Z</time></trkpt><trkpt lat="39.79445034760547" lon="8.55471617333442"><ele>4.0</ele><time>2026-05-02T11:19:53.999Z</time></trkpt><trkpt lat="39.79445155901886" lon="8.554586147835328"><ele>4.0</ele><time>2026-05-02T11:19:54.999Z</time></trkpt><trkpt lat="39.79446044919437" lon="8.55445494338528"><ele>4.0</ele><time>2026-05-02T11:19:55.999Z</time></trkpt><trkpt lat="39.79445396291349" lon="8.554315483848033"><ele>4.0</ele><time>2026-05-02T11:19:56.999Z</time></trkpt><trkpt lat="39.79445465544059" lon="8.554181751657744"><ele>4.0</ele><time>2026-05-02T11:19:57.999Z</time></trkpt><trkpt lat="39.79445730632316" lon="8.554061305462218"><ele>3.833333333333333</ele><time>2026-05-02T11:19:58.999Z</time></trkpt><trkpt lat="39.79445454236164" lon="8.553951516116513"><ele>3.6666666666666665</ele><time>2026-05-02T11:19:59.999Z</time></trkpt><trkpt lat="39.79445032816132" lon="8.5538517888186"><ele>3.5</ele><time>2026-05-02T11:20:00.999Z</time></trkpt><trkpt lat="39.79444961110624" lon="8.553758120904309"><ele>3.333333333333333</ele><time>2026-05-02T11:20:01.999Z</time></trkpt><trkpt lat="39.79444899291874" lon="8.553667733022243"><ele>3.1666666666666665</ele><time>2026-05-02T11:20:02.999Z</time></trkpt><trkpt lat="39.79444601642168" lon="8.55356287593304"><ele>3.0</ele><time>2026-05-02T11:20:03.999Z</time></trkpt><trkpt lat="39.79444585659054" lon="8.55345720340475"><ele>3.0</ele><time>2026-05-02T11:20:04.999Z</time></trkpt><trkpt lat="39.7944458623851" lon="8.553346188751194"><ele>3.0</ele><time>2026-05-02T11:20:05.999Z</time></trkpt><trkpt lat="39.794447827174224" lon="8.553246162203717"><ele>3.0</ele><time>2026-05-02T11:20:06.999Z</time></trkpt><trkpt lat="39.79445609051859" lon="8.553159250076115"><ele>3.0</ele><time>2026-05-02T11:20:07.999Z</time></trkpt><trkpt lat="39.794455854940914" lon="8.553077015728123"><ele>3.0</ele><time>2026-05-02T11:20:08.999Z</time></trkpt><trkpt lat="39.79444370911662" lon="8.552923674734872"><ele>3.0</ele><time>2026-05-02T11:20:10.999Z</time></trkpt><trkpt lat="39.794436306408876" lon="8.552746618969822"><ele>3.666666666666667</ele><time>2026-05-02T11:20:12.999Z</time></trkpt><trkpt lat="39.79443535603468" lon="8.552643875231247"><ele>4.333333333333334</ele><time>2026-05-02T11:20:13.999Z</time></trkpt><trkpt lat="39.794437449652314" lon="8.552543119160287"><ele>5.0</ele><time>2026-05-02T11:20:14.999Z</time></trkpt><trkpt lat="39.794431478120075" lon="8.552457025316098"><ele>5.666666666666667</ele><time>2026-05-02T11:20:15.999Z</time></trkpt><trkpt lat="39.79443785552288" lon="8.552328408187293"><ele>6.333333333333334</ele><time>2026-05-02T11:20:17.999Z</time></trkpt><trkpt lat="39.79443935716437" lon="8.552208057347261"><ele>7.0</ele><time>2026-05-02T11:20:19.999Z</time></trkpt><trkpt lat="39.79443477828516" lon="8.552121142993586"><ele>7.0</ele><time>2026-05-02T11:20:20.999Z</time></trkpt><trkpt lat="39.794445801874936" lon="8.552020517329607"><ele>6.999999999999999</ele><time>2026-05-02T11:20:21.999Z</time></trkpt><trkpt lat="39.79444721300543" lon="8.551913951562822"><ele>6.999999999999999</ele><time>2026-05-02T11:20:22.999Z</time></trkpt><trkpt lat="39.79444804983569" lon="8.551787844285563"><ele>7.0</ele><time>2026-05-02T11:20:23.999Z</time></trkpt><trkpt lat="39.794443969771386" lon="8.55165830592275"><ele>7.0</ele><time>2026-05-02T11:20:24.999Z</time></trkpt><trkpt lat="39.79443911808772" lon="8.55151956875025"><ele>7.0</ele><time>2026-05-02T11:20:25.999Z</time></trkpt><trkpt lat="39.79444084558984" lon="8.55137991552045"><ele>6.999999999999999</ele><time>2026-05-02T11:20:26.999Z</time></trkpt><trkpt lat="39.79443956770882" lon="8.55124981577276"><ele>6.999999999999999</ele><time>2026-05-02T11:20:27.999Z</time></trkpt><trkpt lat="39.794440094539574" lon="8.551118713457983"><ele>7.0</ele><time>2026-05-02T11:20:28.999Z</time></trkpt><trkpt lat="39.79443309460845" lon="8.550981799320567"><ele>7.0</ele><time>2026-05-02T11:20:29.999Z</time></trkpt><trkpt lat="39.79441793048155" lon="8.550848547627346"><ele>7.0</ele><time>2026-05-02T11:20:30.999Z</time></trkpt><trkpt lat="39.79441376608254" lon="8.55071860178496"><ele>6.999999999999999</ele><time>2026-05-02T11:20:31.999Z</time></trkpt><trkpt lat="39.79441658494911" lon="8.550586815183912"><ele>6.999999999999999</ele><time>2026-05-02T11:20:32.999Z</time></trkpt><trkpt lat="39.79441811371403" lon="8.550453236085664"><ele>7.0</ele><time>2026-05-02T11:20:33.999Z</time></trkpt><trkpt lat="39.794419709131944" lon="8.550328082097739"><ele>7.0</ele><time>2026-05-02T11:20:34.999Z</time></trkpt><trkpt lat="39.79442388035566" lon="8.550212572202687"><ele>7.500000000000001</ele><time>2026-05-02T11:20:35.999Z</time></trkpt><trkpt lat="39.79442785080858" lon="8.550094428460504"><ele>8.0</ele><time>2026-05-02T11:20:36.999Z</time></trkpt><trkpt lat="39.79442343668743" lon="8.549968235140442"><ele>8.5</ele><time>2026-05-02T11:20:37.999Z</time></trkpt><trkpt lat="39.79441703998186" lon="8.549854022216616"><ele>9.0</ele><time>2026-05-02T11:20:38.999Z</time></trkpt><trkpt lat="39.7944160568499" lon="8.549743403483959"><ele>9.5</ele><time>2026-05-02T11:20:39.999Z</time></trkpt><trkpt lat="39.79442524413357" lon="8.54963042946604"><ele>10.0</ele><time>2026-05-02T11:20:40.999Z</time></trkpt><trkpt lat="39.79442120195442" lon="8.549511170830474"><ele>10.0</ele><time>2026-05-02T11:20:42Z</time></trkpt><trkpt lat="39.794422098371825" lon="8.549413849701672"><ele>10.0</ele><time>2026-05-02T11:20:43Z</time></trkpt><trkpt lat="39.79442235816664" lon="8.54932558668313"><ele>10.0</ele><time>2026-05-02T11:20:44Z</time></trkpt><trkpt lat="39.79442807886224" lon="8.549239779548063"><ele>10.0</ele><time>2026-05-02T11:20:45Z</time></trkpt><trkpt lat="39.79442968084539" lon="8.549155044981351"><ele>10.0</ele><time>2026-05-02T11:20:46Z</time></trkpt><trkpt lat="39.79441942904018" lon="8.549059519764363"><ele>10.0</ele><time>2026-05-02T11:20:47Z</time></trkpt><trkpt lat="39.794425284891794" lon="8.548918810380371"><ele>10.0</ele><time>2026-05-02T11:20:49Z</time></trkpt><trkpt lat="39.79440041632993" lon="8.548829248315434"><ele>10.0</ele><time>2026-05-02T11:21:23Z</time></trkpt><trkpt lat="39.79440041632993" lon="8.548829248315434"><ele>10.0</ele><time>2026-05-02T11:21:23Z</time></trkpt><trkpt lat="39.79440041632993" lon="8.548829248315434"><ele>10.0</ele><time>2026-05-02T11:21:23Z</time></trkpt><trkpt lat="39.79440041632993" lon="8.548829248315434"><ele>10.0</ele><time>2026-05-02T11:21:23Z</time></trkpt></trkseg></trk></gpx>